<?xml version="1.0" encoding="UTF-8" standalone="no" ?>
<gpx xmlns="http://www.topografix.com/GPX/1/1" xmlns:xsi="http://www.w3.org/2001/XMLSchema-instance" xsi:schemaLocation="http://www.topografix.com/GPX/1/1 http://www.topografix.com/GPX/1/1/gpx.xsd" version="1.1" creator="VisuGPX - https://www.visugpx.com">
  <metadata>
    <name>Hangar - Démuin</name>
  </metadata>
  <trk>
    <name><![CDATA[Hangar - Démuin_1]]></name>
    <trkseg>
      <trkpt lat="49.82387" lon="2.51272">
        <ele>46.6</ele>
        <time>2022-12-07T13:00:17Z</time>
      </trkpt>
      <trkpt lat="49.82387" lon="2.51273">
        <ele>46.6</ele>
        <time>2022-12-07T13:00:18Z</time>
      </trkpt>
      <trkpt lat="49.82388" lon="2.51274">
        <ele>46.6</ele>
        <time>2022-12-07T13:00:19Z</time>
      </trkpt>
      <trkpt lat="49.82389" lon="2.51276">
        <ele>46.7</ele>
        <time>2022-12-07T13:00:20Z</time>
      </trkpt>
      <trkpt lat="49.82389" lon="2.51277">
        <ele>46.7</ele>
        <time>2022-12-07T13:00:21Z</time>
      </trkpt>
      <trkpt lat="49.82389" lon="2.51277">
        <ele>46.7</ele>
        <time>2022-12-07T13:00:22Z</time>
      </trkpt>
      <trkpt lat="49.8239" lon="2.51279">
        <ele>46.7</ele>
        <time>2022-12-07T13:00:23Z</time>
      </trkpt>
      <trkpt lat="49.8239" lon="2.51281">
        <ele>46.8</ele>
        <time>2022-12-07T13:00:24Z</time>
      </trkpt>
      <trkpt lat="49.82391" lon="2.51283">
        <ele>46.8</ele>
        <time>2022-12-07T13:00:25Z</time>
      </trkpt>
      <trkpt lat="49.82392" lon="2.51286">
        <ele>46.9</ele>
        <time>2022-12-07T13:00:26Z</time>
      </trkpt>
      <trkpt lat="49.82392" lon="2.51287">
        <ele>46.9</ele>
        <time>2022-12-07T13:00:27Z</time>
      </trkpt>
      <trkpt lat="49.82392" lon="2.51288">
        <ele>47</ele>
        <time>2022-12-07T13:00:28Z</time>
      </trkpt>
      <trkpt lat="49.82393" lon="2.51292">
        <ele>47</ele>
        <time>2022-12-07T13:00:29Z</time>
      </trkpt>
      <trkpt lat="49.82393" lon="2.51293">
        <ele>47.1</ele>
        <time>2022-12-07T13:00:30Z</time>
      </trkpt>
      <trkpt lat="49.82393" lon="2.51294">
        <ele>47.1</ele>
        <time>2022-12-07T13:00:31Z</time>
      </trkpt>
      <trkpt lat="49.82394" lon="2.51296">
        <ele>47.1</ele>
        <time>2022-12-07T13:00:32Z</time>
      </trkpt>
      <trkpt lat="49.82394" lon="2.51298">
        <ele>47.1</ele>
        <time>2022-12-07T13:00:33Z</time>
      </trkpt>
      <trkpt lat="49.82395" lon="2.51301">
        <ele>47.2</ele>
        <time>2022-12-07T13:00:34Z</time>
      </trkpt>
      <trkpt lat="49.82395" lon="2.51303">
        <ele>47.2</ele>
        <time>2022-12-07T13:00:35Z</time>
      </trkpt>
      <trkpt lat="49.82395" lon="2.51304">
        <ele>47.3</ele>
        <time>2022-12-07T13:00:36Z</time>
      </trkpt>
      <trkpt lat="49.82395" lon="2.51307">
        <ele>47.3</ele>
        <time>2022-12-07T13:00:37Z</time>
      </trkpt>
      <trkpt lat="49.82395" lon="2.51309">
        <ele>47.3</ele>
        <time>2022-12-07T13:00:38Z</time>
      </trkpt>
      <trkpt lat="49.82395" lon="2.5131">
        <ele>47.3</ele>
        <time>2022-12-07T13:00:39Z</time>
      </trkpt>
      <trkpt lat="49.82396" lon="2.51312">
        <ele>47.4</ele>
        <time>2022-12-07T13:00:40Z</time>
      </trkpt>
      <trkpt lat="49.82396" lon="2.51313">
        <ele>47.4</ele>
        <time>2022-12-07T13:00:41Z</time>
      </trkpt>
      <trkpt lat="49.82396" lon="2.51315">
        <ele>47.4</ele>
        <time>2022-12-07T13:00:42Z</time>
      </trkpt>
      <trkpt lat="49.82396" lon="2.51316">
        <ele>47.4</ele>
        <time>2022-12-07T13:00:43Z</time>
      </trkpt>
      <trkpt lat="49.82396" lon="2.51318">
        <ele>47.4</ele>
        <time>2022-12-07T13:00:44Z</time>
      </trkpt>
      <trkpt lat="49.82396" lon="2.5132">
        <ele>47.5</ele>
        <time>2022-12-07T13:00:45Z</time>
      </trkpt>
      <trkpt lat="49.82396" lon="2.51321">
        <ele>47.5</ele>
        <time>2022-12-07T13:00:46Z</time>
      </trkpt>
      <trkpt lat="49.82396" lon="2.51323">
        <ele>47.5</ele>
        <time>2022-12-07T13:00:47Z</time>
      </trkpt>
      <trkpt lat="49.82396" lon="2.51325">
        <ele>47.5</ele>
        <time>2022-12-07T13:00:48Z</time>
      </trkpt>
      <trkpt lat="49.82396" lon="2.51327">
        <ele>47.5</ele>
        <time>2022-12-07T13:00:49Z</time>
      </trkpt>
      <trkpt lat="49.82396" lon="2.51329">
        <ele>47.5</ele>
        <time>2022-12-07T13:00:50Z</time>
      </trkpt>
      <trkpt lat="49.82396" lon="2.5133">
        <ele>47.5</ele>
        <time>2022-12-07T13:00:51Z</time>
      </trkpt>
      <trkpt lat="49.82397" lon="2.51334">
        <ele>47.6</ele>
        <time>2022-12-07T13:00:52Z</time>
      </trkpt>
      <trkpt lat="49.82397" lon="2.51335">
        <ele>47.6</ele>
        <time>2022-12-07T13:00:53Z</time>
      </trkpt>
      <trkpt lat="49.82397" lon="2.51336">
        <ele>47.6</ele>
        <time>2022-12-07T13:00:54Z</time>
      </trkpt>
      <trkpt lat="49.82397" lon="2.5134">
        <ele>47.6</ele>
        <time>2022-12-07T13:00:55Z</time>
      </trkpt>
      <trkpt lat="49.82397" lon="2.51341">
        <ele>47.6</ele>
        <time>2022-12-07T13:00:56Z</time>
      </trkpt>
      <trkpt lat="49.82397" lon="2.51342">
        <ele>47.6</ele>
        <time>2022-12-07T13:00:57Z</time>
      </trkpt>
      <trkpt lat="49.82397" lon="2.51345">
        <ele>47.7</ele>
        <time>2022-12-07T13:00:58Z</time>
      </trkpt>
      <trkpt lat="49.82397" lon="2.51346">
        <ele>47.7</ele>
        <time>2022-12-07T13:00:59Z</time>
      </trkpt>
      <trkpt lat="49.82397" lon="2.51348">
        <ele>47.7</ele>
        <time>2022-12-07T13:01:00Z</time>
      </trkpt>
      <trkpt lat="49.82397" lon="2.51351">
        <ele>47.7</ele>
        <time>2022-12-07T13:01:01Z</time>
      </trkpt>
      <trkpt lat="49.82397" lon="2.51352">
        <ele>47.7</ele>
        <time>2022-12-07T13:01:02Z</time>
      </trkpt>
      <trkpt lat="49.82397" lon="2.51353">
        <ele>47.7</ele>
        <time>2022-12-07T13:01:03Z</time>
      </trkpt>
      <trkpt lat="49.82397" lon="2.51355">
        <ele>47.7</ele>
        <time>2022-12-07T13:01:04Z</time>
      </trkpt>
      <trkpt lat="49.82397" lon="2.51357">
        <ele>47.7</ele>
        <time>2022-12-07T13:01:05Z</time>
      </trkpt>
      <trkpt lat="49.82397" lon="2.51359">
        <ele>47.7</ele>
        <time>2022-12-07T13:01:06Z</time>
      </trkpt>
      <trkpt lat="49.82397" lon="2.5136">
        <ele>47.7</ele>
        <time>2022-12-07T13:01:07Z</time>
      </trkpt>
      <trkpt lat="49.82397" lon="2.51362">
        <ele>47.7</ele>
        <time>2022-12-07T13:01:08Z</time>
      </trkpt>
      <trkpt lat="49.82397" lon="2.51364">
        <ele>47.7</ele>
        <time>2022-12-07T13:01:09Z</time>
      </trkpt>
      <trkpt lat="49.82397" lon="2.51365">
        <ele>47.7</ele>
        <time>2022-12-07T13:01:10Z</time>
      </trkpt>
      <trkpt lat="49.82397" lon="2.51367">
        <ele>47.7</ele>
        <time>2022-12-07T13:01:11Z</time>
      </trkpt>
      <trkpt lat="49.82397" lon="2.51368">
        <ele>47.8</ele>
        <time>2022-12-07T13:01:12Z</time>
      </trkpt>
      <trkpt lat="49.82397" lon="2.5137">
        <ele>47.8</ele>
        <time>2022-12-07T13:01:13Z</time>
      </trkpt>
      <trkpt lat="49.82397" lon="2.51371">
        <ele>47.8</ele>
        <time>2022-12-07T13:01:14Z</time>
      </trkpt>
      <trkpt lat="49.82397" lon="2.51372">
        <ele>47.8</ele>
        <time>2022-12-07T13:01:15Z</time>
      </trkpt>
      <trkpt lat="49.82397" lon="2.51374">
        <ele>47.8</ele>
        <time>2022-12-07T13:01:16Z</time>
      </trkpt>
      <trkpt lat="49.82397" lon="2.51375">
        <ele>47.8</ele>
        <time>2022-12-07T13:01:17Z</time>
      </trkpt>
      <trkpt lat="49.82397" lon="2.51376">
        <ele>47.8</ele>
        <time>2022-12-07T13:01:18Z</time>
      </trkpt>
      <trkpt lat="49.82397" lon="2.51377">
        <ele>47.8</ele>
        <time>2022-12-07T13:01:19Z</time>
      </trkpt>
      <trkpt lat="49.82397" lon="2.51376">
        <ele>47.8</ele>
        <time>2022-12-07T13:01:20Z</time>
      </trkpt>
      <trkpt lat="49.82396" lon="2.51377">
        <ele>47.8</ele>
        <time>2022-12-07T13:01:21Z</time>
      </trkpt>
      <trkpt lat="49.82396" lon="2.51377">
        <ele>47.8</ele>
        <time>2022-12-07T13:01:22Z</time>
      </trkpt>
      <trkpt lat="49.82396" lon="2.51378">
        <ele>47.8</ele>
        <time>2022-12-07T13:01:23Z</time>
      </trkpt>
      <trkpt lat="49.82396" lon="2.51379">
        <ele>47.8</ele>
        <time>2022-12-07T13:01:24Z</time>
      </trkpt>
      <trkpt lat="49.82395" lon="2.5138">
        <ele>47.8</ele>
        <time>2022-12-07T13:01:25Z</time>
      </trkpt>
      <trkpt lat="49.82395" lon="2.51381">
        <ele>47.8</ele>
        <time>2022-12-07T13:01:26Z</time>
      </trkpt>
      <trkpt lat="49.82395" lon="2.51382">
        <ele>47.8</ele>
        <time>2022-12-07T13:01:27Z</time>
      </trkpt>
      <trkpt lat="49.82395" lon="2.51384">
        <ele>47.8</ele>
        <time>2022-12-07T13:01:28Z</time>
      </trkpt>
      <trkpt lat="49.82395" lon="2.51385">
        <ele>47.8</ele>
        <time>2022-12-07T13:01:29Z</time>
      </trkpt>
      <trkpt lat="49.82395" lon="2.51386">
        <ele>47.8</ele>
        <time>2022-12-07T13:01:30Z</time>
      </trkpt>
      <trkpt lat="49.82395" lon="2.51388">
        <ele>47.8</ele>
        <time>2022-12-07T13:01:31Z</time>
      </trkpt>
      <trkpt lat="49.82395" lon="2.51389">
        <ele>47.8</ele>
        <time>2022-12-07T13:01:32Z</time>
      </trkpt>
      <trkpt lat="49.82395" lon="2.51391">
        <ele>47.8</ele>
        <time>2022-12-07T13:01:33Z</time>
      </trkpt>
      <trkpt lat="49.82396" lon="2.51392">
        <ele>47.8</ele>
        <time>2022-12-07T13:01:34Z</time>
      </trkpt>
      <trkpt lat="49.82396" lon="2.51393">
        <ele>47.8</ele>
        <time>2022-12-07T13:01:35Z</time>
      </trkpt>
      <trkpt lat="49.82396" lon="2.51394">
        <ele>47.8</ele>
        <time>2022-12-07T13:01:36Z</time>
      </trkpt>
      <trkpt lat="49.82396" lon="2.51395">
        <ele>47.8</ele>
        <time>2022-12-07T13:01:37Z</time>
      </trkpt>
      <trkpt lat="49.82396" lon="2.51396">
        <ele>47.8</ele>
        <time>2022-12-07T13:01:38Z</time>
      </trkpt>
      <trkpt lat="49.82396" lon="2.51398">
        <ele>47.8</ele>
        <time>2022-12-07T13:01:39Z</time>
      </trkpt>
      <trkpt lat="49.82397" lon="2.51401">
        <ele>47.8</ele>
        <time>2022-12-07T13:01:40Z</time>
      </trkpt>
      <trkpt lat="49.82397" lon="2.51402">
        <ele>47.8</ele>
        <time>2022-12-07T13:01:41Z</time>
      </trkpt>
      <trkpt lat="49.82397" lon="2.51404">
        <ele>47.8</ele>
        <time>2022-12-07T13:01:42Z</time>
      </trkpt>
      <trkpt lat="49.82397" lon="2.51406">
        <ele>47.8</ele>
        <time>2022-12-07T13:01:43Z</time>
      </trkpt>
      <trkpt lat="49.82397" lon="2.51408">
        <ele>47.8</ele>
        <time>2022-12-07T13:01:44Z</time>
      </trkpt>
      <trkpt lat="49.82397" lon="2.51409">
        <ele>47.8</ele>
        <time>2022-12-07T13:01:45Z</time>
      </trkpt>
      <trkpt lat="49.82397" lon="2.51409">
        <ele>47.8</ele>
        <time>2022-12-07T13:01:46Z</time>
      </trkpt>
      <trkpt lat="49.82396" lon="2.51409">
        <ele>47.8</ele>
        <time>2022-12-07T13:01:47Z</time>
      </trkpt>
      <trkpt lat="49.82396" lon="2.51411">
        <ele>47.8</ele>
        <time>2022-12-07T13:01:48Z</time>
      </trkpt>
      <trkpt lat="49.82397" lon="2.51412">
        <ele>47.8</ele>
        <time>2022-12-07T13:01:49Z</time>
      </trkpt>
      <trkpt lat="49.82397" lon="2.51414">
        <ele>47.8</ele>
        <time>2022-12-07T13:01:50Z</time>
      </trkpt>
      <trkpt lat="49.82397" lon="2.51415">
        <ele>47.8</ele>
        <time>2022-12-07T13:01:51Z</time>
      </trkpt>
      <trkpt lat="49.82397" lon="2.51416">
        <ele>47.8</ele>
        <time>2022-12-07T13:01:52Z</time>
      </trkpt>
      <trkpt lat="49.82397" lon="2.51417">
        <ele>47.8</ele>
        <time>2022-12-07T13:01:53Z</time>
      </trkpt>
      <trkpt lat="49.82397" lon="2.51418">
        <ele>47.8</ele>
        <time>2022-12-07T13:01:54Z</time>
      </trkpt>
      <trkpt lat="49.82398" lon="2.51421">
        <ele>47.8</ele>
        <time>2022-12-07T13:01:55Z</time>
      </trkpt>
      <trkpt lat="49.82398" lon="2.51423">
        <ele>47.8</ele>
        <time>2022-12-07T13:01:56Z</time>
      </trkpt>
      <trkpt lat="49.82398" lon="2.51424">
        <ele>47.8</ele>
        <time>2022-12-07T13:01:57Z</time>
      </trkpt>
      <trkpt lat="49.82398" lon="2.51426">
        <ele>47.9</ele>
        <time>2022-12-07T13:01:58Z</time>
      </trkpt>
      <trkpt lat="49.82399" lon="2.51429">
        <ele>47.9</ele>
        <time>2022-12-07T13:01:59Z</time>
      </trkpt>
      <trkpt lat="49.82399" lon="2.51431">
        <ele>47.9</ele>
        <time>2022-12-07T13:02:00Z</time>
      </trkpt>
      <trkpt lat="49.82399" lon="2.51433">
        <ele>47.9</ele>
        <time>2022-12-07T13:02:01Z</time>
      </trkpt>
      <trkpt lat="49.82399" lon="2.51436">
        <ele>47.9</ele>
        <time>2022-12-07T13:02:02Z</time>
      </trkpt>
      <trkpt lat="49.82399" lon="2.51438">
        <ele>47.9</ele>
        <time>2022-12-07T13:02:03Z</time>
      </trkpt>
      <trkpt lat="49.82399" lon="2.51441">
        <ele>47.9</ele>
        <time>2022-12-07T13:02:04Z</time>
      </trkpt>
      <trkpt lat="49.82398" lon="2.51444">
        <ele>47.9</ele>
        <time>2022-12-07T13:02:05Z</time>
      </trkpt>
      <trkpt lat="49.82398" lon="2.51448">
        <ele>47.9</ele>
        <time>2022-12-07T13:02:06Z</time>
      </trkpt>
      <trkpt lat="49.82398" lon="2.51449">
        <ele>47.9</ele>
        <time>2022-12-07T13:02:07Z</time>
      </trkpt>
      <trkpt lat="49.82398" lon="2.51454">
        <ele>47.9</ele>
        <time>2022-12-07T13:02:08Z</time>
      </trkpt>
      <trkpt lat="49.82398" lon="2.51456">
        <ele>47.9</ele>
        <time>2022-12-07T13:02:09Z</time>
      </trkpt>
      <trkpt lat="49.82398" lon="2.51459">
        <ele>47.9</ele>
        <time>2022-12-07T13:02:10Z</time>
      </trkpt>
      <trkpt lat="49.82397" lon="2.51461">
        <ele>47.9</ele>
        <time>2022-12-07T13:02:11Z</time>
      </trkpt>
      <trkpt lat="49.82397" lon="2.51464">
        <ele>48</ele>
        <time>2022-12-07T13:02:12Z</time>
      </trkpt>
      <trkpt lat="49.82397" lon="2.51467">
        <ele>48</ele>
        <time>2022-12-07T13:02:13Z</time>
      </trkpt>
      <trkpt lat="49.82397" lon="2.51469">
        <ele>48</ele>
        <time>2022-12-07T13:02:14Z</time>
      </trkpt>
      <trkpt lat="49.82397" lon="2.51472">
        <ele>48</ele>
        <time>2022-12-07T13:02:15Z</time>
      </trkpt>
      <trkpt lat="49.82397" lon="2.51474">
        <ele>48</ele>
        <time>2022-12-07T13:02:16Z</time>
      </trkpt>
      <trkpt lat="49.82397" lon="2.51476">
        <ele>48</ele>
        <time>2022-12-07T13:02:17Z</time>
      </trkpt>
      <trkpt lat="49.82397" lon="2.51478">
        <ele>48</ele>
        <time>2022-12-07T13:02:18Z</time>
      </trkpt>
      <trkpt lat="49.82397" lon="2.51481">
        <ele>48</ele>
        <time>2022-12-07T13:02:19Z</time>
      </trkpt>
      <trkpt lat="49.82396" lon="2.51483">
        <ele>48</ele>
        <time>2022-12-07T13:02:20Z</time>
      </trkpt>
      <trkpt lat="49.82396" lon="2.51485">
        <ele>48</ele>
        <time>2022-12-07T13:02:21Z</time>
      </trkpt>
      <trkpt lat="49.82397" lon="2.51488">
        <ele>48</ele>
        <time>2022-12-07T13:02:22Z</time>
      </trkpt>
      <trkpt lat="49.82397" lon="2.51489">
        <ele>48</ele>
        <time>2022-12-07T13:02:23Z</time>
      </trkpt>
      <trkpt lat="49.82398" lon="2.51491">
        <ele>48.1</ele>
        <time>2022-12-07T13:02:24Z</time>
      </trkpt>
      <trkpt lat="49.82398" lon="2.51493">
        <ele>48.1</ele>
        <time>2022-12-07T13:02:25Z</time>
      </trkpt>
      <trkpt lat="49.82399" lon="2.51495">
        <ele>48.2</ele>
        <time>2022-12-07T13:02:26Z</time>
      </trkpt>
      <trkpt lat="49.82401" lon="2.51496">
        <ele>48.2</ele>
        <time>2022-12-07T13:02:27Z</time>
      </trkpt>
      <trkpt lat="49.82402" lon="2.51497">
        <ele>48.3</ele>
        <time>2022-12-07T13:02:28Z</time>
      </trkpt>
      <trkpt lat="49.82404" lon="2.51497">
        <ele>48.3</ele>
        <time>2022-12-07T13:02:29Z</time>
      </trkpt>
      <trkpt lat="49.82406" lon="2.51496">
        <ele>48.3</ele>
        <time>2022-12-07T13:02:30Z</time>
      </trkpt>
      <trkpt lat="49.82407" lon="2.51496">
        <ele>48.4</ele>
        <time>2022-12-07T13:02:31Z</time>
      </trkpt>
      <trkpt lat="49.82408" lon="2.51496">
        <ele>48.4</ele>
        <time>2022-12-07T13:02:32Z</time>
      </trkpt>
      <trkpt lat="49.82409" lon="2.51495">
        <ele>48.4</ele>
        <time>2022-12-07T13:02:33Z</time>
      </trkpt>
      <trkpt lat="49.82411" lon="2.51495">
        <ele>48.5</ele>
        <time>2022-12-07T13:02:34Z</time>
      </trkpt>
      <trkpt lat="49.82413" lon="2.51494">
        <ele>48.5</ele>
        <time>2022-12-07T13:02:35Z</time>
      </trkpt>
      <trkpt lat="49.82414" lon="2.51493">
        <ele>48.5</ele>
        <time>2022-12-07T13:02:36Z</time>
      </trkpt>
      <trkpt lat="49.82415" lon="2.51493">
        <ele>48.6</ele>
        <time>2022-12-07T13:02:37Z</time>
      </trkpt>
      <trkpt lat="49.82416" lon="2.51493">
        <ele>48.6</ele>
        <time>2022-12-07T13:02:38Z</time>
      </trkpt>
      <trkpt lat="49.82417" lon="2.51493">
        <ele>48.7</ele>
        <time>2022-12-07T13:02:39Z</time>
      </trkpt>
      <trkpt lat="49.82419" lon="2.51493">
        <ele>48.7</ele>
        <time>2022-12-07T13:02:40Z</time>
      </trkpt>
      <trkpt lat="49.8242" lon="2.51493">
        <ele>48.8</ele>
        <time>2022-12-07T13:02:41Z</time>
      </trkpt>
      <trkpt lat="49.82422" lon="2.51493">
        <ele>48.9</ele>
        <time>2022-12-07T13:02:42Z</time>
      </trkpt>
      <trkpt lat="49.82423" lon="2.51493">
        <ele>48.9</ele>
        <time>2022-12-07T13:02:43Z</time>
      </trkpt>
      <trkpt lat="49.82424" lon="2.51492">
        <ele>49</ele>
        <time>2022-12-07T13:02:44Z</time>
      </trkpt>
      <trkpt lat="49.82426" lon="2.51492">
        <ele>49.1</ele>
        <time>2022-12-07T13:02:45Z</time>
      </trkpt>
      <trkpt lat="49.82427" lon="2.51492">
        <ele>49.2</ele>
        <time>2022-12-07T13:02:46Z</time>
      </trkpt>
      <trkpt lat="49.82428" lon="2.51492">
        <ele>49.2</ele>
        <time>2022-12-07T13:02:47Z</time>
      </trkpt>
      <trkpt lat="49.82431" lon="2.51491">
        <ele>49.4</ele>
        <time>2022-12-07T13:02:48Z</time>
      </trkpt>
      <trkpt lat="49.82432" lon="2.51491">
        <ele>49.5</ele>
        <time>2022-12-07T13:02:49Z</time>
      </trkpt>
      <trkpt lat="49.82432" lon="2.51491">
        <ele>49.5</ele>
        <time>2022-12-07T13:02:50Z</time>
      </trkpt>
      <trkpt lat="49.82435" lon="2.5149">
        <ele>49.7</ele>
        <time>2022-12-07T13:02:51Z</time>
      </trkpt>
      <trkpt lat="49.82435" lon="2.5149">
        <ele>49.7</ele>
        <time>2022-12-07T13:02:52Z</time>
      </trkpt>
      <trkpt lat="49.82436" lon="2.5149">
        <ele>49.8</ele>
        <time>2022-12-07T13:02:53Z</time>
      </trkpt>
      <trkpt lat="49.82438" lon="2.51489">
        <ele>49.9</ele>
        <time>2022-12-07T13:02:54Z</time>
      </trkpt>
      <trkpt lat="49.82439" lon="2.51489">
        <ele>50</ele>
        <time>2022-12-07T13:02:55Z</time>
      </trkpt>
      <trkpt lat="49.82439" lon="2.51488">
        <ele>50</ele>
        <time>2022-12-07T13:02:56Z</time>
      </trkpt>
      <trkpt lat="49.8244" lon="2.51488">
        <ele>50.1</ele>
        <time>2022-12-07T13:02:57Z</time>
      </trkpt>
      <trkpt lat="49.82441" lon="2.51487">
        <ele>50.2</ele>
        <time>2022-12-07T13:02:58Z</time>
      </trkpt>
      <trkpt lat="49.82442" lon="2.51487">
        <ele>50.3</ele>
        <time>2022-12-07T13:02:59Z</time>
      </trkpt>
      <trkpt lat="49.82443" lon="2.51486">
        <ele>50.3</ele>
        <time>2022-12-07T13:03:00Z</time>
      </trkpt>
      <trkpt lat="49.82444" lon="2.51486">
        <ele>50.4</ele>
        <time>2022-12-07T13:03:01Z</time>
      </trkpt>
      <trkpt lat="49.82445" lon="2.51485">
        <ele>50.5</ele>
        <time>2022-12-07T13:03:02Z</time>
      </trkpt>
      <trkpt lat="49.82446" lon="2.51485">
        <ele>50.5</ele>
        <time>2022-12-07T13:03:03Z</time>
      </trkpt>
      <trkpt lat="49.82447" lon="2.51485">
        <ele>50.6</ele>
        <time>2022-12-07T13:03:04Z</time>
      </trkpt>
      <trkpt lat="49.82448" lon="2.51484">
        <ele>50.7</ele>
        <time>2022-12-07T13:03:05Z</time>
      </trkpt>
      <trkpt lat="49.82449" lon="2.51484">
        <ele>50.8</ele>
        <time>2022-12-07T13:03:06Z</time>
      </trkpt>
      <trkpt lat="49.82449" lon="2.51484">
        <ele>50.8</ele>
        <time>2022-12-07T13:03:07Z</time>
      </trkpt>
      <trkpt lat="49.8245" lon="2.51484">
        <ele>50.9</ele>
        <time>2022-12-07T13:03:08Z</time>
      </trkpt>
      <trkpt lat="49.82451" lon="2.51484">
        <ele>51</ele>
        <time>2022-12-07T13:03:09Z</time>
      </trkpt>
      <trkpt lat="49.82452" lon="2.51484">
        <ele>51</ele>
        <time>2022-12-07T13:03:10Z</time>
      </trkpt>
      <trkpt lat="49.82453" lon="2.51484">
        <ele>51.1</ele>
        <time>2022-12-07T13:03:11Z</time>
      </trkpt>
      <trkpt lat="49.82454" lon="2.51484">
        <ele>51.2</ele>
        <time>2022-12-07T13:03:12Z</time>
      </trkpt>
      <trkpt lat="49.82455" lon="2.51484">
        <ele>51.2</ele>
        <time>2022-12-07T13:03:13Z</time>
      </trkpt>
      <trkpt lat="49.82455" lon="2.51484">
        <ele>51.3</ele>
        <time>2022-12-07T13:03:14Z</time>
      </trkpt>
      <trkpt lat="49.82456" lon="2.51484">
        <ele>51.4</ele>
        <time>2022-12-07T13:03:15Z</time>
      </trkpt>
      <trkpt lat="49.82457" lon="2.51484">
        <ele>51.5</ele>
        <time>2022-12-07T13:03:16Z</time>
      </trkpt>
      <trkpt lat="49.82458" lon="2.51484">
        <ele>51.5</ele>
        <time>2022-12-07T13:03:17Z</time>
      </trkpt>
      <trkpt lat="49.82459" lon="2.51484">
        <ele>51.6</ele>
        <time>2022-12-07T13:03:18Z</time>
      </trkpt>
      <trkpt lat="49.8246" lon="2.51484">
        <ele>51.7</ele>
        <time>2022-12-07T13:03:19Z</time>
      </trkpt>
      <trkpt lat="49.82461" lon="2.51483">
        <ele>51.8</ele>
        <time>2022-12-07T13:03:20Z</time>
      </trkpt>
      <trkpt lat="49.82462" lon="2.51483">
        <ele>51.9</ele>
        <time>2022-12-07T13:03:21Z</time>
      </trkpt>
      <trkpt lat="49.82463" lon="2.51483">
        <ele>52</ele>
        <time>2022-12-07T13:03:22Z</time>
      </trkpt>
      <trkpt lat="49.82464" lon="2.51482">
        <ele>52</ele>
        <time>2022-12-07T13:03:23Z</time>
      </trkpt>
      <trkpt lat="49.82465" lon="2.51482">
        <ele>52.2</ele>
        <time>2022-12-07T13:03:24Z</time>
      </trkpt>
      <trkpt lat="49.82466" lon="2.51481">
        <ele>52.3</ele>
        <time>2022-12-07T13:03:25Z</time>
      </trkpt>
      <trkpt lat="49.82467" lon="2.51481">
        <ele>52.3</ele>
        <time>2022-12-07T13:03:26Z</time>
      </trkpt>
      <trkpt lat="49.82468" lon="2.5148">
        <ele>52.4</ele>
        <time>2022-12-07T13:03:27Z</time>
      </trkpt>
      <trkpt lat="49.82469" lon="2.5148">
        <ele>52.5</ele>
        <time>2022-12-07T13:03:28Z</time>
      </trkpt>
      <trkpt lat="49.82471" lon="2.5148">
        <ele>52.7</ele>
        <time>2022-12-07T13:03:29Z</time>
      </trkpt>
      <trkpt lat="49.82471" lon="2.5148">
        <ele>52.8</ele>
        <time>2022-12-07T13:03:30Z</time>
      </trkpt>
      <trkpt lat="49.82473" lon="2.5148">
        <ele>52.9</ele>
        <time>2022-12-07T13:03:31Z</time>
      </trkpt>
      <trkpt lat="49.82474" lon="2.5148">
        <ele>53</ele>
        <time>2022-12-07T13:03:32Z</time>
      </trkpt>
      <trkpt lat="49.82475" lon="2.5148">
        <ele>53.1</ele>
        <time>2022-12-07T13:03:33Z</time>
      </trkpt>
      <trkpt lat="49.82476" lon="2.51481">
        <ele>53.2</ele>
        <time>2022-12-07T13:03:34Z</time>
      </trkpt>
      <trkpt lat="49.82477" lon="2.51481">
        <ele>53.3</ele>
        <time>2022-12-07T13:03:35Z</time>
      </trkpt>
      <trkpt lat="49.82478" lon="2.51481">
        <ele>53.4</ele>
        <time>2022-12-07T13:03:36Z</time>
      </trkpt>
      <trkpt lat="49.82479" lon="2.51481">
        <ele>53.6</ele>
        <time>2022-12-07T13:03:37Z</time>
      </trkpt>
      <trkpt lat="49.82481" lon="2.51481">
        <ele>53.7</ele>
        <time>2022-12-07T13:03:38Z</time>
      </trkpt>
      <trkpt lat="49.82483" lon="2.51481">
        <ele>53.9</ele>
        <time>2022-12-07T13:03:39Z</time>
      </trkpt>
      <trkpt lat="49.82483" lon="2.51481">
        <ele>54</ele>
        <time>2022-12-07T13:03:40Z</time>
      </trkpt>
      <trkpt lat="49.82484" lon="2.51481">
        <ele>54.1</ele>
        <time>2022-12-07T13:03:41Z</time>
      </trkpt>
      <trkpt lat="49.82485" lon="2.5148">
        <ele>54.2</ele>
        <time>2022-12-07T13:03:42Z</time>
      </trkpt>
      <trkpt lat="49.82486" lon="2.5148">
        <ele>54.3</ele>
        <time>2022-12-07T13:03:43Z</time>
      </trkpt>
      <trkpt lat="49.82487" lon="2.51479">
        <ele>54.4</ele>
        <time>2022-12-07T13:03:44Z</time>
      </trkpt>
      <trkpt lat="49.82488" lon="2.51479">
        <ele>54.5</ele>
        <time>2022-12-07T13:03:45Z</time>
      </trkpt>
      <trkpt lat="49.82489" lon="2.51478">
        <ele>54.7</ele>
        <time>2022-12-07T13:03:46Z</time>
      </trkpt>
      <trkpt lat="49.8249" lon="2.51478">
        <ele>54.8</ele>
        <time>2022-12-07T13:03:47Z</time>
      </trkpt>
      <trkpt lat="49.82491" lon="2.51478">
        <ele>54.9</ele>
        <time>2022-12-07T13:03:48Z</time>
      </trkpt>
      <trkpt lat="49.82492" lon="2.51478">
        <ele>55</ele>
        <time>2022-12-07T13:03:49Z</time>
      </trkpt>
      <trkpt lat="49.82493" lon="2.51477">
        <ele>55.1</ele>
        <time>2022-12-07T13:03:50Z</time>
      </trkpt>
      <trkpt lat="49.82494" lon="2.51477">
        <ele>55.2</ele>
        <time>2022-12-07T13:03:51Z</time>
      </trkpt>
      <trkpt lat="49.82495" lon="2.51477">
        <ele>55.4</ele>
        <time>2022-12-07T13:03:52Z</time>
      </trkpt>
      <trkpt lat="49.82496" lon="2.51477">
        <ele>55.5</ele>
        <time>2022-12-07T13:03:53Z</time>
      </trkpt>
      <trkpt lat="49.82497" lon="2.51476">
        <ele>55.6</ele>
        <time>2022-12-07T13:03:54Z</time>
      </trkpt>
      <trkpt lat="49.82498" lon="2.51476">
        <ele>55.7</ele>
        <time>2022-12-07T13:03:55Z</time>
      </trkpt>
      <trkpt lat="49.82499" lon="2.51476">
        <ele>55.8</ele>
        <time>2022-12-07T13:03:56Z</time>
      </trkpt>
      <trkpt lat="49.825" lon="2.51475">
        <ele>55.9</ele>
        <time>2022-12-07T13:03:57Z</time>
      </trkpt>
      <trkpt lat="49.82501" lon="2.51475">
        <ele>56</ele>
        <time>2022-12-07T13:03:58Z</time>
      </trkpt>
      <trkpt lat="49.82502" lon="2.51474">
        <ele>56.2</ele>
        <time>2022-12-07T13:03:59Z</time>
      </trkpt>
      <trkpt lat="49.82502" lon="2.51474">
        <ele>56.2</ele>
        <time>2022-12-07T13:04:00Z</time>
      </trkpt>
      <trkpt lat="49.82503" lon="2.51474">
        <ele>56.3</ele>
        <time>2022-12-07T13:04:01Z</time>
      </trkpt>
      <trkpt lat="49.82504" lon="2.51473">
        <ele>56.5</ele>
        <time>2022-12-07T13:04:02Z</time>
      </trkpt>
      <trkpt lat="49.82505" lon="2.51473">
        <ele>56.6</ele>
        <time>2022-12-07T13:04:03Z</time>
      </trkpt>
      <trkpt lat="49.82506" lon="2.51473">
        <ele>56.7</ele>
        <time>2022-12-07T13:04:04Z</time>
      </trkpt>
      <trkpt lat="49.82507" lon="2.51473">
        <ele>56.8</ele>
        <time>2022-12-07T13:04:05Z</time>
      </trkpt>
      <trkpt lat="49.82507" lon="2.51473">
        <ele>56.9</ele>
        <time>2022-12-07T13:04:06Z</time>
      </trkpt>
      <trkpt lat="49.82508" lon="2.51473">
        <ele>57</ele>
        <time>2022-12-07T13:04:07Z</time>
      </trkpt>
      <trkpt lat="49.82509" lon="2.51472">
        <ele>57.1</ele>
        <time>2022-12-07T13:04:08Z</time>
      </trkpt>
      <trkpt lat="49.8251" lon="2.51472">
        <ele>57.2</ele>
        <time>2022-12-07T13:04:09Z</time>
      </trkpt>
      <trkpt lat="49.82511" lon="2.51472">
        <ele>57.3</ele>
        <time>2022-12-07T13:04:10Z</time>
      </trkpt>
      <trkpt lat="49.82512" lon="2.51472">
        <ele>57.4</ele>
        <time>2022-12-07T13:04:11Z</time>
      </trkpt>
      <trkpt lat="49.82513" lon="2.51471">
        <ele>57.6</ele>
        <time>2022-12-07T13:04:12Z</time>
      </trkpt>
      <trkpt lat="49.82513" lon="2.51471">
        <ele>57.7</ele>
        <time>2022-12-07T13:04:13Z</time>
      </trkpt>
      <trkpt lat="49.82514" lon="2.51471">
        <ele>57.8</ele>
        <time>2022-12-07T13:04:14Z</time>
      </trkpt>
      <trkpt lat="49.82515" lon="2.51471">
        <ele>57.9</ele>
        <time>2022-12-07T13:04:15Z</time>
      </trkpt>
      <trkpt lat="49.82516" lon="2.51471">
        <ele>58</ele>
        <time>2022-12-07T13:04:16Z</time>
      </trkpt>
      <trkpt lat="49.82517" lon="2.51471">
        <ele>58.2</ele>
        <time>2022-12-07T13:04:17Z</time>
      </trkpt>
      <trkpt lat="49.82518" lon="2.5147">
        <ele>58.3</ele>
        <time>2022-12-07T13:04:18Z</time>
      </trkpt>
      <trkpt lat="49.82518" lon="2.5147">
        <ele>58.4</ele>
        <time>2022-12-07T13:04:19Z</time>
      </trkpt>
      <trkpt lat="49.82519" lon="2.5147">
        <ele>58.5</ele>
        <time>2022-12-07T13:04:20Z</time>
      </trkpt>
      <trkpt lat="49.8252" lon="2.5147">
        <ele>58.6</ele>
        <time>2022-12-07T13:04:21Z</time>
      </trkpt>
      <trkpt lat="49.82521" lon="2.5147">
        <ele>58.7</ele>
        <time>2022-12-07T13:04:22Z</time>
      </trkpt>
      <trkpt lat="49.82522" lon="2.5147">
        <ele>58.8</ele>
        <time>2022-12-07T13:04:23Z</time>
      </trkpt>
      <trkpt lat="49.82523" lon="2.5147">
        <ele>58.9</ele>
        <time>2022-12-07T13:04:24Z</time>
      </trkpt>
      <trkpt lat="49.82523" lon="2.5147">
        <ele>59</ele>
        <time>2022-12-07T13:04:25Z</time>
      </trkpt>
      <trkpt lat="49.82524" lon="2.5147">
        <ele>59.2</ele>
        <time>2022-12-07T13:04:26Z</time>
      </trkpt>
      <trkpt lat="49.82525" lon="2.5147">
        <ele>59.3</ele>
        <time>2022-12-07T13:04:27Z</time>
      </trkpt>
      <trkpt lat="49.82526" lon="2.5147">
        <ele>59.4</ele>
        <time>2022-12-07T13:04:28Z</time>
      </trkpt>
      <trkpt lat="49.82527" lon="2.5147">
        <ele>59.5</ele>
        <time>2022-12-07T13:04:29Z</time>
      </trkpt>
      <trkpt lat="49.82528" lon="2.5147">
        <ele>59.7</ele>
        <time>2022-12-07T13:04:30Z</time>
      </trkpt>
      <trkpt lat="49.82529" lon="2.5147">
        <ele>59.8</ele>
        <time>2022-12-07T13:04:31Z</time>
      </trkpt>
      <trkpt lat="49.8253" lon="2.5147">
        <ele>59.9</ele>
        <time>2022-12-07T13:04:32Z</time>
      </trkpt>
      <trkpt lat="49.82531" lon="2.5147">
        <ele>60</ele>
        <time>2022-12-07T13:04:33Z</time>
      </trkpt>
      <trkpt lat="49.82532" lon="2.5147">
        <ele>60.1</ele>
        <time>2022-12-07T13:04:34Z</time>
      </trkpt>
      <trkpt lat="49.82532" lon="2.5147">
        <ele>60.2</ele>
        <time>2022-12-07T13:04:35Z</time>
      </trkpt>
      <trkpt lat="49.82533" lon="2.5147">
        <ele>60.3</ele>
        <time>2022-12-07T13:04:36Z</time>
      </trkpt>
      <trkpt lat="49.82534" lon="2.5147">
        <ele>60.4</ele>
        <time>2022-12-07T13:04:37Z</time>
      </trkpt>
      <trkpt lat="49.82535" lon="2.5147">
        <ele>60.5</ele>
        <time>2022-12-07T13:04:38Z</time>
      </trkpt>
      <trkpt lat="49.82535" lon="2.5147">
        <ele>60.6</ele>
        <time>2022-12-07T13:04:39Z</time>
      </trkpt>
      <trkpt lat="49.82536" lon="2.5147">
        <ele>60.7</ele>
        <time>2022-12-07T13:04:40Z</time>
      </trkpt>
      <trkpt lat="49.82537" lon="2.5147">
        <ele>60.8</ele>
        <time>2022-12-07T13:04:41Z</time>
      </trkpt>
      <trkpt lat="49.82538" lon="2.51469">
        <ele>60.9</ele>
        <time>2022-12-07T13:04:42Z</time>
      </trkpt>
      <trkpt lat="49.82539" lon="2.51469">
        <ele>61</ele>
        <time>2022-12-07T13:04:43Z</time>
      </trkpt>
      <trkpt lat="49.8254" lon="2.5147">
        <ele>61.1</ele>
        <time>2022-12-07T13:04:44Z</time>
      </trkpt>
      <trkpt lat="49.8254" lon="2.5147">
        <ele>61.1</ele>
        <time>2022-12-07T13:04:45Z</time>
      </trkpt>
      <trkpt lat="49.82541" lon="2.51471">
        <ele>61.2</ele>
        <time>2022-12-07T13:04:46Z</time>
      </trkpt>
      <trkpt lat="49.82542" lon="2.51471">
        <ele>61.4</ele>
        <time>2022-12-07T13:04:47Z</time>
      </trkpt>
      <trkpt lat="49.82543" lon="2.51472">
        <ele>61.5</ele>
        <time>2022-12-07T13:04:48Z</time>
      </trkpt>
      <trkpt lat="49.82544" lon="2.51473">
        <ele>61.6</ele>
        <time>2022-12-07T13:04:49Z</time>
      </trkpt>
      <trkpt lat="49.82544" lon="2.51474">
        <ele>61.7</ele>
        <time>2022-12-07T13:04:50Z</time>
      </trkpt>
      <trkpt lat="49.82545" lon="2.51475">
        <ele>61.8</ele>
        <time>2022-12-07T13:04:51Z</time>
      </trkpt>
      <trkpt lat="49.82546" lon="2.51476">
        <ele>61.9</ele>
        <time>2022-12-07T13:04:52Z</time>
      </trkpt>
      <trkpt lat="49.82547" lon="2.51477">
        <ele>62</ele>
        <time>2022-12-07T13:04:53Z</time>
      </trkpt>
      <trkpt lat="49.82548" lon="2.51478">
        <ele>62.2</ele>
        <time>2022-12-07T13:04:54Z</time>
      </trkpt>
      <trkpt lat="49.82548" lon="2.5148">
        <ele>62.3</ele>
        <time>2022-12-07T13:04:55Z</time>
      </trkpt>
      <trkpt lat="49.82548" lon="2.51481">
        <ele>62.4</ele>
        <time>2022-12-07T13:04:56Z</time>
      </trkpt>
      <trkpt lat="49.82549" lon="2.51483">
        <ele>62.5</ele>
        <time>2022-12-07T13:04:57Z</time>
      </trkpt>
      <trkpt lat="49.82549" lon="2.51484">
        <ele>62.6</ele>
        <time>2022-12-07T13:04:58Z</time>
      </trkpt>
      <trkpt lat="49.8255" lon="2.51486">
        <ele>62.7</ele>
        <time>2022-12-07T13:04:59Z</time>
      </trkpt>
      <trkpt lat="49.8255" lon="2.51487">
        <ele>62.8</ele>
        <time>2022-12-07T13:05:00Z</time>
      </trkpt>
      <trkpt lat="49.82551" lon="2.51489">
        <ele>62.9</ele>
        <time>2022-12-07T13:05:01Z</time>
      </trkpt>
      <trkpt lat="49.82551" lon="2.5149">
        <ele>63</ele>
        <time>2022-12-07T13:05:02Z</time>
      </trkpt>
      <trkpt lat="49.82552" lon="2.51491">
        <ele>63.1</ele>
        <time>2022-12-07T13:05:03Z</time>
      </trkpt>
      <trkpt lat="49.82552" lon="2.51493">
        <ele>63.2</ele>
        <time>2022-12-07T13:05:04Z</time>
      </trkpt>
      <trkpt lat="49.82552" lon="2.51495">
        <ele>63.3</ele>
        <time>2022-12-07T13:05:05Z</time>
      </trkpt>
      <trkpt lat="49.82553" lon="2.51496">
        <ele>63.4</ele>
        <time>2022-12-07T13:05:06Z</time>
      </trkpt>
      <trkpt lat="49.82553" lon="2.51498">
        <ele>63.5</ele>
        <time>2022-12-07T13:05:07Z</time>
      </trkpt>
      <trkpt lat="49.82553" lon="2.51499">
        <ele>63.6</ele>
        <time>2022-12-07T13:05:08Z</time>
      </trkpt>
      <trkpt lat="49.82554" lon="2.515">
        <ele>63.7</ele>
        <time>2022-12-07T13:05:09Z</time>
      </trkpt>
      <trkpt lat="49.82554" lon="2.51502">
        <ele>63.8</ele>
        <time>2022-12-07T13:05:10Z</time>
      </trkpt>
      <trkpt lat="49.82555" lon="2.51504">
        <ele>63.9</ele>
        <time>2022-12-07T13:05:11Z</time>
      </trkpt>
      <trkpt lat="49.82555" lon="2.51505">
        <ele>63.9</ele>
        <time>2022-12-07T13:05:12Z</time>
      </trkpt>
      <trkpt lat="49.82556" lon="2.51507">
        <ele>64</ele>
        <time>2022-12-07T13:05:13Z</time>
      </trkpt>
      <trkpt lat="49.82556" lon="2.51508">
        <ele>64.1</ele>
        <time>2022-12-07T13:05:14Z</time>
      </trkpt>
      <trkpt lat="49.82557" lon="2.5151">
        <ele>64.2</ele>
        <time>2022-12-07T13:05:15Z</time>
      </trkpt>
      <trkpt lat="49.82557" lon="2.51511">
        <ele>64.3</ele>
        <time>2022-12-07T13:05:16Z</time>
      </trkpt>
      <trkpt lat="49.82557" lon="2.51512">
        <ele>64.3</ele>
        <time>2022-12-07T13:05:17Z</time>
      </trkpt>
      <trkpt lat="49.82558" lon="2.51514">
        <ele>64.4</ele>
        <time>2022-12-07T13:05:18Z</time>
      </trkpt>
      <trkpt lat="49.82558" lon="2.51515">
        <ele>64.5</ele>
        <time>2022-12-07T13:05:19Z</time>
      </trkpt>
      <trkpt lat="49.82559" lon="2.51516">
        <ele>64.5</ele>
        <time>2022-12-07T13:05:20Z</time>
      </trkpt>
      <trkpt lat="49.82559" lon="2.51518">
        <ele>64.6</ele>
        <time>2022-12-07T13:05:21Z</time>
      </trkpt>
      <trkpt lat="49.82559" lon="2.51519">
        <ele>64.7</ele>
        <time>2022-12-07T13:05:22Z</time>
      </trkpt>
      <trkpt lat="49.8256" lon="2.5152">
        <ele>64.7</ele>
        <time>2022-12-07T13:05:23Z</time>
      </trkpt>
      <trkpt lat="49.8256" lon="2.51522">
        <ele>64.8</ele>
        <time>2022-12-07T13:05:24Z</time>
      </trkpt>
      <trkpt lat="49.82561" lon="2.51523">
        <ele>64.9</ele>
        <time>2022-12-07T13:05:25Z</time>
      </trkpt>
      <trkpt lat="49.82561" lon="2.51524">
        <ele>64.9</ele>
        <time>2022-12-07T13:05:26Z</time>
      </trkpt>
      <trkpt lat="49.82561" lon="2.51526">
        <ele>65</ele>
        <time>2022-12-07T13:05:27Z</time>
      </trkpt>
      <trkpt lat="49.82561" lon="2.51528">
        <ele>65</ele>
        <time>2022-12-07T13:05:28Z</time>
      </trkpt>
      <trkpt lat="49.82562" lon="2.51529">
        <ele>65.1</ele>
        <time>2022-12-07T13:05:29Z</time>
      </trkpt>
      <trkpt lat="49.82562" lon="2.5153">
        <ele>65.1</ele>
        <time>2022-12-07T13:05:30Z</time>
      </trkpt>
      <trkpt lat="49.82562" lon="2.51532">
        <ele>65.2</ele>
        <time>2022-12-07T13:05:31Z</time>
      </trkpt>
      <trkpt lat="49.82562" lon="2.51533">
        <ele>65.2</ele>
        <time>2022-12-07T13:05:32Z</time>
      </trkpt>
      <trkpt lat="49.82563" lon="2.51534">
        <ele>65.3</ele>
        <time>2022-12-07T13:05:33Z</time>
      </trkpt>
      <trkpt lat="49.82563" lon="2.51536">
        <ele>65.3</ele>
        <time>2022-12-07T13:05:34Z</time>
      </trkpt>
      <trkpt lat="49.82563" lon="2.51537">
        <ele>65.4</ele>
        <time>2022-12-07T13:05:35Z</time>
      </trkpt>
      <trkpt lat="49.82563" lon="2.51538">
        <ele>65.4</ele>
        <time>2022-12-07T13:05:36Z</time>
      </trkpt>
      <trkpt lat="49.82563" lon="2.5154">
        <ele>65.5</ele>
        <time>2022-12-07T13:05:37Z</time>
      </trkpt>
      <trkpt lat="49.82564" lon="2.51542">
        <ele>65.5</ele>
        <time>2022-12-07T13:05:38Z</time>
      </trkpt>
      <trkpt lat="49.82564" lon="2.51543">
        <ele>65.6</ele>
        <time>2022-12-07T13:05:39Z</time>
      </trkpt>
      <trkpt lat="49.82564" lon="2.51544">
        <ele>65.6</ele>
        <time>2022-12-07T13:05:40Z</time>
      </trkpt>
      <trkpt lat="49.82564" lon="2.51545">
        <ele>65.7</ele>
        <time>2022-12-07T13:05:41Z</time>
      </trkpt>
      <trkpt lat="49.82564" lon="2.51546">
        <ele>65.7</ele>
        <time>2022-12-07T13:05:42Z</time>
      </trkpt>
      <trkpt lat="49.82564" lon="2.51548">
        <ele>65.8</ele>
        <time>2022-12-07T13:05:43Z</time>
      </trkpt>
      <trkpt lat="49.82565" lon="2.5155">
        <ele>65.8</ele>
        <time>2022-12-07T13:05:44Z</time>
      </trkpt>
      <trkpt lat="49.82565" lon="2.51551">
        <ele>65.9</ele>
        <time>2022-12-07T13:05:45Z</time>
      </trkpt>
      <trkpt lat="49.82565" lon="2.51552">
        <ele>65.9</ele>
        <time>2022-12-07T13:05:46Z</time>
      </trkpt>
      <trkpt lat="49.82566" lon="2.51554">
        <ele>66</ele>
        <time>2022-12-07T13:05:47Z</time>
      </trkpt>
      <trkpt lat="49.82566" lon="2.51556">
        <ele>66.1</ele>
        <time>2022-12-07T13:05:48Z</time>
      </trkpt>
      <trkpt lat="49.82566" lon="2.51557">
        <ele>66.1</ele>
        <time>2022-12-07T13:05:49Z</time>
      </trkpt>
      <trkpt lat="49.82567" lon="2.51558">
        <ele>66.2</ele>
        <time>2022-12-07T13:05:50Z</time>
      </trkpt>
      <trkpt lat="49.82567" lon="2.5156">
        <ele>66.3</ele>
        <time>2022-12-07T13:05:51Z</time>
      </trkpt>
      <trkpt lat="49.82568" lon="2.51561">
        <ele>66.3</ele>
        <time>2022-12-07T13:05:52Z</time>
      </trkpt>
      <trkpt lat="49.82568" lon="2.51563">
        <ele>66.4</ele>
        <time>2022-12-07T13:05:53Z</time>
      </trkpt>
      <trkpt lat="49.82568" lon="2.51564">
        <ele>66.5</ele>
        <time>2022-12-07T13:05:54Z</time>
      </trkpt>
      <trkpt lat="49.82569" lon="2.51566">
        <ele>66.6</ele>
        <time>2022-12-07T13:05:55Z</time>
      </trkpt>
      <trkpt lat="49.82569" lon="2.51567">
        <ele>66.6</ele>
        <time>2022-12-07T13:05:56Z</time>
      </trkpt>
      <trkpt lat="49.8257" lon="2.51568">
        <ele>66.7</ele>
        <time>2022-12-07T13:05:57Z</time>
      </trkpt>
      <trkpt lat="49.8257" lon="2.5157">
        <ele>66.8</ele>
        <time>2022-12-07T13:05:58Z</time>
      </trkpt>
      <trkpt lat="49.82571" lon="2.51571">
        <ele>66.9</ele>
        <time>2022-12-07T13:05:59Z</time>
      </trkpt>
      <trkpt lat="49.82571" lon="2.51572">
        <ele>66.9</ele>
        <time>2022-12-07T13:06:00Z</time>
      </trkpt>
      <trkpt lat="49.82572" lon="2.51573">
        <ele>67</ele>
        <time>2022-12-07T13:06:01Z</time>
      </trkpt>
      <trkpt lat="49.82573" lon="2.51574">
        <ele>67.1</ele>
        <time>2022-12-07T13:06:02Z</time>
      </trkpt>
      <trkpt lat="49.82573" lon="2.51575">
        <ele>67.3</ele>
        <time>2022-12-07T13:06:03Z</time>
      </trkpt>
      <trkpt lat="49.82574" lon="2.51576">
        <ele>67.4</ele>
        <time>2022-12-07T13:06:04Z</time>
      </trkpt>
      <trkpt lat="49.82574" lon="2.51577">
        <ele>67.5</ele>
        <time>2022-12-07T13:06:05Z</time>
      </trkpt>
      <trkpt lat="49.82575" lon="2.51578">
        <ele>67.5</ele>
        <time>2022-12-07T13:06:06Z</time>
      </trkpt>
      <trkpt lat="49.82575" lon="2.51579">
        <ele>67.6</ele>
        <time>2022-12-07T13:06:07Z</time>
      </trkpt>
      <trkpt lat="49.82576" lon="2.5158">
        <ele>67.7</ele>
        <time>2022-12-07T13:06:08Z</time>
      </trkpt>
      <trkpt lat="49.82576" lon="2.51581">
        <ele>67.7</ele>
        <time>2022-12-07T13:06:09Z</time>
      </trkpt>
      <trkpt lat="49.82576" lon="2.51582">
        <ele>67.8</ele>
        <time>2022-12-07T13:06:10Z</time>
      </trkpt>
      <trkpt lat="49.82576" lon="2.51583">
        <ele>67.8</ele>
        <time>2022-12-07T13:06:11Z</time>
      </trkpt>
      <trkpt lat="49.82576" lon="2.51583">
        <ele>67.9</ele>
        <time>2022-12-07T13:06:12Z</time>
      </trkpt>
      <trkpt lat="49.82576" lon="2.51584">
        <ele>67.9</ele>
        <time>2022-12-07T13:06:13Z</time>
      </trkpt>
      <trkpt lat="49.82576" lon="2.51584">
        <ele>67.9</ele>
        <time>2022-12-07T13:06:14Z</time>
      </trkpt>
      <trkpt lat="49.82576" lon="2.51584">
        <ele>67.9</ele>
        <time>2022-12-07T13:06:15Z</time>
      </trkpt>
      <trkpt lat="49.82576" lon="2.51584">
        <ele>68</ele>
        <time>2022-12-07T13:06:16Z</time>
      </trkpt>
      <trkpt lat="49.82576" lon="2.51584">
        <ele>68</ele>
        <time>2022-12-07T13:06:17Z</time>
      </trkpt>
      <trkpt lat="49.82576" lon="2.51584">
        <ele>68</ele>
        <time>2022-12-07T13:06:18Z</time>
      </trkpt>
      <trkpt lat="49.82576" lon="2.51584">
        <ele>68</ele>
        <time>2022-12-07T13:06:19Z</time>
      </trkpt>
      <trkpt lat="49.82576" lon="2.51584">
        <ele>68</ele>
        <time>2022-12-07T13:06:20Z</time>
      </trkpt>
      <trkpt lat="49.82576" lon="2.51584">
        <ele>68</ele>
        <time>2022-12-07T13:06:21Z</time>
      </trkpt>
      <trkpt lat="49.82576" lon="2.51584">
        <ele>68</ele>
        <time>2022-12-07T13:06:22Z</time>
      </trkpt>
      <trkpt lat="49.82576" lon="2.51584">
        <ele>68</ele>
        <time>2022-12-07T13:06:23Z</time>
      </trkpt>
      <trkpt lat="49.82576" lon="2.51584">
        <ele>68</ele>
        <time>2022-12-07T13:06:24Z</time>
      </trkpt>
      <trkpt lat="49.82576" lon="2.51584">
        <ele>68</ele>
        <time>2022-12-07T13:06:25Z</time>
      </trkpt>
      <trkpt lat="49.82576" lon="2.51583">
        <ele>68</ele>
        <time>2022-12-07T13:06:26Z</time>
      </trkpt>
      <trkpt lat="49.82576" lon="2.51583">
        <ele>68.1</ele>
        <time>2022-12-07T13:06:27Z</time>
      </trkpt>
      <trkpt lat="49.82577" lon="2.51583">
        <ele>68.1</ele>
        <time>2022-12-07T13:06:28Z</time>
      </trkpt>
      <trkpt lat="49.82577" lon="2.51583">
        <ele>68.2</ele>
        <time>2022-12-07T13:06:29Z</time>
      </trkpt>
      <trkpt lat="49.82578" lon="2.51582">
        <ele>68.2</ele>
        <time>2022-12-07T13:06:30Z</time>
      </trkpt>
      <trkpt lat="49.82579" lon="2.51582">
        <ele>68.3</ele>
        <time>2022-12-07T13:06:31Z</time>
      </trkpt>
      <trkpt lat="49.8258" lon="2.51581">
        <ele>68.4</ele>
        <time>2022-12-07T13:06:32Z</time>
      </trkpt>
      <trkpt lat="49.82581" lon="2.51581">
        <ele>68.5</ele>
        <time>2022-12-07T13:06:33Z</time>
      </trkpt>
      <trkpt lat="49.82582" lon="2.5158">
        <ele>68.6</ele>
        <time>2022-12-07T13:06:34Z</time>
      </trkpt>
      <trkpt lat="49.82583" lon="2.5158">
        <ele>68.7</ele>
        <time>2022-12-07T13:06:35Z</time>
      </trkpt>
      <trkpt lat="49.82584" lon="2.5158">
        <ele>68.8</ele>
        <time>2022-12-07T13:06:36Z</time>
      </trkpt>
      <trkpt lat="49.82585" lon="2.5158">
        <ele>68.9</ele>
        <time>2022-12-07T13:06:37Z</time>
      </trkpt>
      <trkpt lat="49.82586" lon="2.5158">
        <ele>69.1</ele>
        <time>2022-12-07T13:06:38Z</time>
      </trkpt>
      <trkpt lat="49.82587" lon="2.51579">
        <ele>69.2</ele>
        <time>2022-12-07T13:06:39Z</time>
      </trkpt>
      <trkpt lat="49.82588" lon="2.51579">
        <ele>69.3</ele>
        <time>2022-12-07T13:06:40Z</time>
      </trkpt>
      <trkpt lat="49.82589" lon="2.51579">
        <ele>69.4</ele>
        <time>2022-12-07T13:06:41Z</time>
      </trkpt>
      <trkpt lat="49.8259" lon="2.51579">
        <ele>69.5</ele>
        <time>2022-12-07T13:06:42Z</time>
      </trkpt>
      <trkpt lat="49.82591" lon="2.51579">
        <ele>69.6</ele>
        <time>2022-12-07T13:06:43Z</time>
      </trkpt>
      <trkpt lat="49.82593" lon="2.51579">
        <ele>69.7</ele>
        <time>2022-12-07T13:06:44Z</time>
      </trkpt>
      <trkpt lat="49.82593" lon="2.51579">
        <ele>69.8</ele>
        <time>2022-12-07T13:06:45Z</time>
      </trkpt>
      <trkpt lat="49.82594" lon="2.51578">
        <ele>69.9</ele>
        <time>2022-12-07T13:06:46Z</time>
      </trkpt>
      <trkpt lat="49.82595" lon="2.51578">
        <ele>70</ele>
        <time>2022-12-07T13:06:47Z</time>
      </trkpt>
      <trkpt lat="49.82596" lon="2.51578">
        <ele>70.1</ele>
        <time>2022-12-07T13:06:48Z</time>
      </trkpt>
      <trkpt lat="49.82597" lon="2.51577">
        <ele>70.2</ele>
        <time>2022-12-07T13:06:49Z</time>
      </trkpt>
      <trkpt lat="49.82598" lon="2.51577">
        <ele>70.3</ele>
        <time>2022-12-07T13:06:50Z</time>
      </trkpt>
      <trkpt lat="49.82599" lon="2.51576">
        <ele>70.4</ele>
        <time>2022-12-07T13:06:51Z</time>
      </trkpt>
      <trkpt lat="49.826" lon="2.51576">
        <ele>70.5</ele>
        <time>2022-12-07T13:06:52Z</time>
      </trkpt>
      <trkpt lat="49.82601" lon="2.51575">
        <ele>70.7</ele>
        <time>2022-12-07T13:06:53Z</time>
      </trkpt>
      <trkpt lat="49.82602" lon="2.51575">
        <ele>70.7</ele>
        <time>2022-12-07T13:06:54Z</time>
      </trkpt>
      <trkpt lat="49.82603" lon="2.51575">
        <ele>70.8</ele>
        <time>2022-12-07T13:06:55Z</time>
      </trkpt>
      <trkpt lat="49.82603" lon="2.51575">
        <ele>70.9</ele>
        <time>2022-12-07T13:06:56Z</time>
      </trkpt>
      <trkpt lat="49.82604" lon="2.51574">
        <ele>71</ele>
        <time>2022-12-07T13:06:57Z</time>
      </trkpt>
      <trkpt lat="49.82605" lon="2.51574">
        <ele>71.1</ele>
        <time>2022-12-07T13:06:58Z</time>
      </trkpt>
      <trkpt lat="49.82606" lon="2.51573">
        <ele>71.2</ele>
        <time>2022-12-07T13:06:59Z</time>
      </trkpt>
      <trkpt lat="49.82607" lon="2.51573">
        <ele>71.3</ele>
        <time>2022-12-07T13:07:00Z</time>
      </trkpt>
      <trkpt lat="49.82608" lon="2.51572">
        <ele>71.4</ele>
        <time>2022-12-07T13:07:01Z</time>
      </trkpt>
      <trkpt lat="49.82609" lon="2.51572">
        <ele>71.5</ele>
        <time>2022-12-07T13:07:02Z</time>
      </trkpt>
      <trkpt lat="49.82609" lon="2.51571">
        <ele>71.6</ele>
        <time>2022-12-07T13:07:03Z</time>
      </trkpt>
      <trkpt lat="49.8261" lon="2.51571">
        <ele>71.7</ele>
        <time>2022-12-07T13:07:04Z</time>
      </trkpt>
      <trkpt lat="49.82611" lon="2.5157">
        <ele>71.8</ele>
        <time>2022-12-07T13:07:05Z</time>
      </trkpt>
      <trkpt lat="49.82612" lon="2.51569">
        <ele>71.8</ele>
        <time>2022-12-07T13:07:06Z</time>
      </trkpt>
      <trkpt lat="49.82613" lon="2.51569">
        <ele>71.9</ele>
        <time>2022-12-07T13:07:07Z</time>
      </trkpt>
      <trkpt lat="49.82613" lon="2.51568">
        <ele>72</ele>
        <time>2022-12-07T13:07:08Z</time>
      </trkpt>
      <trkpt lat="49.82614" lon="2.51567">
        <ele>72.1</ele>
        <time>2022-12-07T13:07:09Z</time>
      </trkpt>
      <trkpt lat="49.82614" lon="2.51567">
        <ele>72.2</ele>
        <time>2022-12-07T13:07:10Z</time>
      </trkpt>
      <trkpt lat="49.82615" lon="2.51566">
        <ele>72.2</ele>
        <time>2022-12-07T13:07:11Z</time>
      </trkpt>
      <trkpt lat="49.82616" lon="2.51565">
        <ele>72.3</ele>
        <time>2022-12-07T13:07:12Z</time>
      </trkpt>
      <trkpt lat="49.82616" lon="2.51564">
        <ele>72.4</ele>
        <time>2022-12-07T13:07:13Z</time>
      </trkpt>
      <trkpt lat="49.82617" lon="2.51564">
        <ele>72.5</ele>
        <time>2022-12-07T13:07:14Z</time>
      </trkpt>
      <trkpt lat="49.82618" lon="2.51563">
        <ele>72.6</ele>
        <time>2022-12-07T13:07:15Z</time>
      </trkpt>
      <trkpt lat="49.82619" lon="2.51563">
        <ele>72.7</ele>
        <time>2022-12-07T13:07:16Z</time>
      </trkpt>
      <trkpt lat="49.8262" lon="2.51562">
        <ele>72.8</ele>
        <time>2022-12-07T13:07:17Z</time>
      </trkpt>
      <trkpt lat="49.82621" lon="2.51561">
        <ele>72.9</ele>
        <time>2022-12-07T13:07:18Z</time>
      </trkpt>
      <trkpt lat="49.82622" lon="2.51561">
        <ele>73</ele>
        <time>2022-12-07T13:07:19Z</time>
      </trkpt>
      <trkpt lat="49.82623" lon="2.5156">
        <ele>73.1</ele>
        <time>2022-12-07T13:07:20Z</time>
      </trkpt>
      <trkpt lat="49.82624" lon="2.5156">
        <ele>73.2</ele>
        <time>2022-12-07T13:07:21Z</time>
      </trkpt>
      <trkpt lat="49.82625" lon="2.51559">
        <ele>73.3</ele>
        <time>2022-12-07T13:07:22Z</time>
      </trkpt>
      <trkpt lat="49.82626" lon="2.51558">
        <ele>73.4</ele>
        <time>2022-12-07T13:07:23Z</time>
      </trkpt>
      <trkpt lat="49.82627" lon="2.51558">
        <ele>73.5</ele>
        <time>2022-12-07T13:07:24Z</time>
      </trkpt>
      <trkpt lat="49.82628" lon="2.51557">
        <ele>73.6</ele>
        <time>2022-12-07T13:07:25Z</time>
      </trkpt>
      <trkpt lat="49.82629" lon="2.51557">
        <ele>73.7</ele>
        <time>2022-12-07T13:07:26Z</time>
      </trkpt>
      <trkpt lat="49.8263" lon="2.51556">
        <ele>73.8</ele>
        <time>2022-12-07T13:07:27Z</time>
      </trkpt>
      <trkpt lat="49.82631" lon="2.51555">
        <ele>73.9</ele>
        <time>2022-12-07T13:07:28Z</time>
      </trkpt>
      <trkpt lat="49.82632" lon="2.51554">
        <ele>74</ele>
        <time>2022-12-07T13:07:29Z</time>
      </trkpt>
      <trkpt lat="49.82633" lon="2.51554">
        <ele>74.1</ele>
        <time>2022-12-07T13:07:30Z</time>
      </trkpt>
      <trkpt lat="49.82634" lon="2.51553">
        <ele>74.2</ele>
        <time>2022-12-07T13:07:31Z</time>
      </trkpt>
      <trkpt lat="49.82634" lon="2.51552">
        <ele>74.3</ele>
        <time>2022-12-07T13:07:32Z</time>
      </trkpt>
      <trkpt lat="49.82635" lon="2.51551">
        <ele>74.4</ele>
        <time>2022-12-07T13:07:33Z</time>
      </trkpt>
      <trkpt lat="49.82636" lon="2.5155">
        <ele>74.5</ele>
        <time>2022-12-07T13:07:34Z</time>
      </trkpt>
      <trkpt lat="49.82637" lon="2.51549">
        <ele>74.6</ele>
        <time>2022-12-07T13:07:35Z</time>
      </trkpt>
      <trkpt lat="49.82638" lon="2.51548">
        <ele>74.7</ele>
        <time>2022-12-07T13:07:36Z</time>
      </trkpt>
      <trkpt lat="49.82638" lon="2.51548">
        <ele>74.8</ele>
        <time>2022-12-07T13:07:37Z</time>
      </trkpt>
      <trkpt lat="49.82639" lon="2.51547">
        <ele>74.9</ele>
        <time>2022-12-07T13:07:38Z</time>
      </trkpt>
      <trkpt lat="49.8264" lon="2.51546">
        <ele>75</ele>
        <time>2022-12-07T13:07:39Z</time>
      </trkpt>
      <trkpt lat="49.82641" lon="2.51545">
        <ele>75.1</ele>
        <time>2022-12-07T13:07:40Z</time>
      </trkpt>
      <trkpt lat="49.82642" lon="2.51544">
        <ele>75.2</ele>
        <time>2022-12-07T13:07:41Z</time>
      </trkpt>
      <trkpt lat="49.82643" lon="2.51543">
        <ele>75.3</ele>
        <time>2022-12-07T13:07:42Z</time>
      </trkpt>
      <trkpt lat="49.82644" lon="2.51542">
        <ele>75.4</ele>
        <time>2022-12-07T13:07:43Z</time>
      </trkpt>
      <trkpt lat="49.82645" lon="2.51542">
        <ele>75.5</ele>
        <time>2022-12-07T13:07:44Z</time>
      </trkpt>
      <trkpt lat="49.82646" lon="2.51541">
        <ele>75.5</ele>
        <time>2022-12-07T13:07:45Z</time>
      </trkpt>
      <trkpt lat="49.82646" lon="2.5154">
        <ele>75.6</ele>
        <time>2022-12-07T13:07:46Z</time>
      </trkpt>
      <trkpt lat="49.82647" lon="2.5154">
        <ele>75.7</ele>
        <time>2022-12-07T13:07:47Z</time>
      </trkpt>
      <trkpt lat="49.82648" lon="2.51539">
        <ele>75.8</ele>
        <time>2022-12-07T13:07:48Z</time>
      </trkpt>
      <trkpt lat="49.82649" lon="2.51538">
        <ele>75.9</ele>
        <time>2022-12-07T13:07:49Z</time>
      </trkpt>
      <trkpt lat="49.8265" lon="2.51538">
        <ele>76</ele>
        <time>2022-12-07T13:07:50Z</time>
      </trkpt>
      <trkpt lat="49.82651" lon="2.51537">
        <ele>76.1</ele>
        <time>2022-12-07T13:07:51Z</time>
      </trkpt>
      <trkpt lat="49.82652" lon="2.51537">
        <ele>76.2</ele>
        <time>2022-12-07T13:07:52Z</time>
      </trkpt>
      <trkpt lat="49.82653" lon="2.51536">
        <ele>76.2</ele>
        <time>2022-12-07T13:07:53Z</time>
      </trkpt>
      <trkpt lat="49.82654" lon="2.51536">
        <ele>76.3</ele>
        <time>2022-12-07T13:07:54Z</time>
      </trkpt>
      <trkpt lat="49.82655" lon="2.51535">
        <ele>76.4</ele>
        <time>2022-12-07T13:07:55Z</time>
      </trkpt>
      <trkpt lat="49.82656" lon="2.51534">
        <ele>76.5</ele>
        <time>2022-12-07T13:07:56Z</time>
      </trkpt>
      <trkpt lat="49.82657" lon="2.51533">
        <ele>76.6</ele>
        <time>2022-12-07T13:07:57Z</time>
      </trkpt>
      <trkpt lat="49.82658" lon="2.51533">
        <ele>76.7</ele>
        <time>2022-12-07T13:07:58Z</time>
      </trkpt>
      <trkpt lat="49.82659" lon="2.51532">
        <ele>76.8</ele>
        <time>2022-12-07T13:07:59Z</time>
      </trkpt>
      <trkpt lat="49.8266" lon="2.51531">
        <ele>76.9</ele>
        <time>2022-12-07T13:08:00Z</time>
      </trkpt>
      <trkpt lat="49.82661" lon="2.5153">
        <ele>77</ele>
        <time>2022-12-07T13:08:01Z</time>
      </trkpt>
      <trkpt lat="49.82662" lon="2.5153">
        <ele>77.1</ele>
        <time>2022-12-07T13:08:02Z</time>
      </trkpt>
      <trkpt lat="49.82662" lon="2.51529">
        <ele>77.2</ele>
        <time>2022-12-07T13:08:03Z</time>
      </trkpt>
      <trkpt lat="49.82663" lon="2.51528">
        <ele>77.3</ele>
        <time>2022-12-07T13:08:04Z</time>
      </trkpt>
      <trkpt lat="49.82665" lon="2.51528">
        <ele>77.4</ele>
        <time>2022-12-07T13:08:05Z</time>
      </trkpt>
      <trkpt lat="49.82665" lon="2.51527">
        <ele>77.4</ele>
        <time>2022-12-07T13:08:06Z</time>
      </trkpt>
      <trkpt lat="49.82666" lon="2.51526">
        <ele>77.5</ele>
        <time>2022-12-07T13:08:07Z</time>
      </trkpt>
      <trkpt lat="49.82667" lon="2.51525">
        <ele>77.6</ele>
        <time>2022-12-07T13:08:08Z</time>
      </trkpt>
      <trkpt lat="49.82668" lon="2.51525">
        <ele>77.7</ele>
        <time>2022-12-07T13:08:09Z</time>
      </trkpt>
      <trkpt lat="49.82669" lon="2.51524">
        <ele>77.8</ele>
        <time>2022-12-07T13:08:10Z</time>
      </trkpt>
      <trkpt lat="49.8267" lon="2.51523">
        <ele>77.9</ele>
        <time>2022-12-07T13:08:11Z</time>
      </trkpt>
      <trkpt lat="49.82671" lon="2.51523">
        <ele>78</ele>
        <time>2022-12-07T13:08:12Z</time>
      </trkpt>
      <trkpt lat="49.82671" lon="2.51522">
        <ele>78</ele>
        <time>2022-12-07T13:08:13Z</time>
      </trkpt>
      <trkpt lat="49.82672" lon="2.51522">
        <ele>78.1</ele>
        <time>2022-12-07T13:08:14Z</time>
      </trkpt>
      <trkpt lat="49.82673" lon="2.51521">
        <ele>78.2</ele>
        <time>2022-12-07T13:08:15Z</time>
      </trkpt>
      <trkpt lat="49.82674" lon="2.51521">
        <ele>78.3</ele>
        <time>2022-12-07T13:08:16Z</time>
      </trkpt>
      <trkpt lat="49.82674" lon="2.5152">
        <ele>78.3</ele>
        <time>2022-12-07T13:08:17Z</time>
      </trkpt>
      <trkpt lat="49.82675" lon="2.5152">
        <ele>78.4</ele>
        <time>2022-12-07T13:08:18Z</time>
      </trkpt>
      <trkpt lat="49.82676" lon="2.51519">
        <ele>78.5</ele>
        <time>2022-12-07T13:08:19Z</time>
      </trkpt>
      <trkpt lat="49.82677" lon="2.51519">
        <ele>78.6</ele>
        <time>2022-12-07T13:08:20Z</time>
      </trkpt>
      <trkpt lat="49.82677" lon="2.51519">
        <ele>78.6</ele>
        <time>2022-12-07T13:08:21Z</time>
      </trkpt>
      <trkpt lat="49.82678" lon="2.51519">
        <ele>78.7</ele>
        <time>2022-12-07T13:08:22Z</time>
      </trkpt>
      <trkpt lat="49.82679" lon="2.51518">
        <ele>78.8</ele>
        <time>2022-12-07T13:08:23Z</time>
      </trkpt>
      <trkpt lat="49.8268" lon="2.51518">
        <ele>78.8</ele>
        <time>2022-12-07T13:08:24Z</time>
      </trkpt>
      <trkpt lat="49.82681" lon="2.51518">
        <ele>78.9</ele>
        <time>2022-12-07T13:08:25Z</time>
      </trkpt>
      <trkpt lat="49.82682" lon="2.51517">
        <ele>79</ele>
        <time>2022-12-07T13:08:26Z</time>
      </trkpt>
      <trkpt lat="49.82682" lon="2.51517">
        <ele>79.1</ele>
        <time>2022-12-07T13:08:27Z</time>
      </trkpt>
      <trkpt lat="49.82683" lon="2.51516">
        <ele>79.1</ele>
        <time>2022-12-07T13:08:28Z</time>
      </trkpt>
      <trkpt lat="49.82684" lon="2.51516">
        <ele>79.2</ele>
        <time>2022-12-07T13:08:29Z</time>
      </trkpt>
      <trkpt lat="49.82685" lon="2.51515">
        <ele>79.3</ele>
        <time>2022-12-07T13:08:30Z</time>
      </trkpt>
      <trkpt lat="49.82686" lon="2.51515">
        <ele>79.3</ele>
        <time>2022-12-07T13:08:31Z</time>
      </trkpt>
      <trkpt lat="49.82687" lon="2.51514">
        <ele>79.4</ele>
        <time>2022-12-07T13:08:32Z</time>
      </trkpt>
      <trkpt lat="49.82688" lon="2.51514">
        <ele>79.5</ele>
        <time>2022-12-07T13:08:33Z</time>
      </trkpt>
      <trkpt lat="49.82688" lon="2.51513">
        <ele>79.6</ele>
        <time>2022-12-07T13:08:34Z</time>
      </trkpt>
      <trkpt lat="49.82689" lon="2.51513">
        <ele>79.6</ele>
        <time>2022-12-07T13:08:35Z</time>
      </trkpt>
      <trkpt lat="49.8269" lon="2.51512">
        <ele>79.7</ele>
        <time>2022-12-07T13:08:36Z</time>
      </trkpt>
      <trkpt lat="49.82691" lon="2.51512">
        <ele>79.8</ele>
        <time>2022-12-07T13:08:37Z</time>
      </trkpt>
      <trkpt lat="49.82692" lon="2.51512">
        <ele>79.9</ele>
        <time>2022-12-07T13:08:38Z</time>
      </trkpt>
      <trkpt lat="49.82693" lon="2.51511">
        <ele>80</ele>
        <time>2022-12-07T13:08:39Z</time>
      </trkpt>
      <trkpt lat="49.82694" lon="2.51511">
        <ele>80</ele>
        <time>2022-12-07T13:08:40Z</time>
      </trkpt>
      <trkpt lat="49.82695" lon="2.51511">
        <ele>80.1</ele>
        <time>2022-12-07T13:08:41Z</time>
      </trkpt>
      <trkpt lat="49.82696" lon="2.5151">
        <ele>80.2</ele>
        <time>2022-12-07T13:08:42Z</time>
      </trkpt>
      <trkpt lat="49.82697" lon="2.5151">
        <ele>80.3</ele>
        <time>2022-12-07T13:08:43Z</time>
      </trkpt>
      <trkpt lat="49.82698" lon="2.51509">
        <ele>80.3</ele>
        <time>2022-12-07T13:08:44Z</time>
      </trkpt>
      <trkpt lat="49.82698" lon="2.51509">
        <ele>80.4</ele>
        <time>2022-12-07T13:08:45Z</time>
      </trkpt>
      <trkpt lat="49.82699" lon="2.51509">
        <ele>80.4</ele>
        <time>2022-12-07T13:08:46Z</time>
      </trkpt>
      <trkpt lat="49.827" lon="2.51508">
        <ele>80.5</ele>
        <time>2022-12-07T13:08:47Z</time>
      </trkpt>
      <trkpt lat="49.82701" lon="2.51508">
        <ele>80.6</ele>
        <time>2022-12-07T13:08:48Z</time>
      </trkpt>
      <trkpt lat="49.82702" lon="2.51508">
        <ele>80.7</ele>
        <time>2022-12-07T13:08:49Z</time>
      </trkpt>
      <trkpt lat="49.82703" lon="2.51507">
        <ele>80.7</ele>
        <time>2022-12-07T13:08:50Z</time>
      </trkpt>
      <trkpt lat="49.82704" lon="2.51507">
        <ele>80.8</ele>
        <time>2022-12-07T13:08:51Z</time>
      </trkpt>
      <trkpt lat="49.82705" lon="2.51506">
        <ele>80.9</ele>
        <time>2022-12-07T13:08:52Z</time>
      </trkpt>
      <trkpt lat="49.82706" lon="2.51506">
        <ele>80.9</ele>
        <time>2022-12-07T13:08:53Z</time>
      </trkpt>
      <trkpt lat="49.82707" lon="2.51506">
        <ele>81</ele>
        <time>2022-12-07T13:08:54Z</time>
      </trkpt>
      <trkpt lat="49.82708" lon="2.51505">
        <ele>81.1</ele>
        <time>2022-12-07T13:08:55Z</time>
      </trkpt>
      <trkpt lat="49.82709" lon="2.51504">
        <ele>81.2</ele>
        <time>2022-12-07T13:08:56Z</time>
      </trkpt>
      <trkpt lat="49.82709" lon="2.51504">
        <ele>81.2</ele>
        <time>2022-12-07T13:08:57Z</time>
      </trkpt>
      <trkpt lat="49.8271" lon="2.51504">
        <ele>81.3</ele>
        <time>2022-12-07T13:08:58Z</time>
      </trkpt>
      <trkpt lat="49.82712" lon="2.51504">
        <ele>81.4</ele>
        <time>2022-12-07T13:08:59Z</time>
      </trkpt>
      <trkpt lat="49.82713" lon="2.51503">
        <ele>81.5</ele>
        <time>2022-12-07T13:09:00Z</time>
      </trkpt>
      <trkpt lat="49.82714" lon="2.51503">
        <ele>81.5</ele>
        <time>2022-12-07T13:09:01Z</time>
      </trkpt>
      <trkpt lat="49.82715" lon="2.51503">
        <ele>81.6</ele>
        <time>2022-12-07T13:09:02Z</time>
      </trkpt>
      <trkpt lat="49.82716" lon="2.51503">
        <ele>81.7</ele>
        <time>2022-12-07T13:09:03Z</time>
      </trkpt>
      <trkpt lat="49.82717" lon="2.51502">
        <ele>81.7</ele>
        <time>2022-12-07T13:09:04Z</time>
      </trkpt>
      <trkpt lat="49.82718" lon="2.51502">
        <ele>81.8</ele>
        <time>2022-12-07T13:09:05Z</time>
      </trkpt>
      <trkpt lat="49.82719" lon="2.51502">
        <ele>81.9</ele>
        <time>2022-12-07T13:09:06Z</time>
      </trkpt>
      <trkpt lat="49.8272" lon="2.51502">
        <ele>82</ele>
        <time>2022-12-07T13:09:07Z</time>
      </trkpt>
      <trkpt lat="49.82721" lon="2.51501">
        <ele>82.1</ele>
        <time>2022-12-07T13:09:08Z</time>
      </trkpt>
      <trkpt lat="49.82722" lon="2.51501">
        <ele>82.1</ele>
        <time>2022-12-07T13:09:09Z</time>
      </trkpt>
      <trkpt lat="49.82723" lon="2.51501">
        <ele>82.2</ele>
        <time>2022-12-07T13:09:10Z</time>
      </trkpt>
      <trkpt lat="49.82724" lon="2.51501">
        <ele>82.3</ele>
        <time>2022-12-07T13:09:11Z</time>
      </trkpt>
      <trkpt lat="49.82725" lon="2.51501">
        <ele>82.3</ele>
        <time>2022-12-07T13:09:12Z</time>
      </trkpt>
      <trkpt lat="49.82726" lon="2.51501">
        <ele>82.4</ele>
        <time>2022-12-07T13:09:13Z</time>
      </trkpt>
      <trkpt lat="49.82727" lon="2.51501">
        <ele>82.5</ele>
        <time>2022-12-07T13:09:14Z</time>
      </trkpt>
      <trkpt lat="49.82728" lon="2.51501">
        <ele>82.6</ele>
        <time>2022-12-07T13:09:15Z</time>
      </trkpt>
      <trkpt lat="49.82729" lon="2.515">
        <ele>82.6</ele>
        <time>2022-12-07T13:09:16Z</time>
      </trkpt>
      <trkpt lat="49.8273" lon="2.515">
        <ele>82.7</ele>
        <time>2022-12-07T13:09:17Z</time>
      </trkpt>
      <trkpt lat="49.82731" lon="2.515">
        <ele>82.8</ele>
        <time>2022-12-07T13:09:18Z</time>
      </trkpt>
      <trkpt lat="49.82732" lon="2.515">
        <ele>82.8</ele>
        <time>2022-12-07T13:09:19Z</time>
      </trkpt>
      <trkpt lat="49.82733" lon="2.515">
        <ele>82.9</ele>
        <time>2022-12-07T13:09:20Z</time>
      </trkpt>
      <trkpt lat="49.82734" lon="2.515">
        <ele>83</ele>
        <time>2022-12-07T13:09:21Z</time>
      </trkpt>
      <trkpt lat="49.82735" lon="2.515">
        <ele>83</ele>
        <time>2022-12-07T13:09:22Z</time>
      </trkpt>
      <trkpt lat="49.82736" lon="2.515">
        <ele>83.1</ele>
        <time>2022-12-07T13:09:23Z</time>
      </trkpt>
      <trkpt lat="49.82737" lon="2.515">
        <ele>83.2</ele>
        <time>2022-12-07T13:09:24Z</time>
      </trkpt>
      <trkpt lat="49.82738" lon="2.515">
        <ele>83.3</ele>
        <time>2022-12-07T13:09:25Z</time>
      </trkpt>
      <trkpt lat="49.82739" lon="2.515">
        <ele>83.3</ele>
        <time>2022-12-07T13:09:26Z</time>
      </trkpt>
      <trkpt lat="49.8274" lon="2.515">
        <ele>83.4</ele>
        <time>2022-12-07T13:09:27Z</time>
      </trkpt>
      <trkpt lat="49.82741" lon="2.515">
        <ele>83.5</ele>
        <time>2022-12-07T13:09:28Z</time>
      </trkpt>
      <trkpt lat="49.82742" lon="2.51501">
        <ele>83.5</ele>
        <time>2022-12-07T13:09:29Z</time>
      </trkpt>
      <trkpt lat="49.82743" lon="2.51501">
        <ele>83.6</ele>
        <time>2022-12-07T13:09:30Z</time>
      </trkpt>
      <trkpt lat="49.82744" lon="2.51501">
        <ele>83.6</ele>
        <time>2022-12-07T13:09:31Z</time>
      </trkpt>
      <trkpt lat="49.82745" lon="2.51501">
        <ele>83.7</ele>
        <time>2022-12-07T13:09:32Z</time>
      </trkpt>
      <trkpt lat="49.82747" lon="2.51501">
        <ele>83.8</ele>
        <time>2022-12-07T13:09:33Z</time>
      </trkpt>
      <trkpt lat="49.82747" lon="2.51502">
        <ele>83.8</ele>
        <time>2022-12-07T13:09:34Z</time>
      </trkpt>
      <trkpt lat="49.82749" lon="2.51502">
        <ele>83.9</ele>
        <time>2022-12-07T13:09:35Z</time>
      </trkpt>
      <trkpt lat="49.8275" lon="2.51503">
        <ele>84</ele>
        <time>2022-12-07T13:09:36Z</time>
      </trkpt>
      <trkpt lat="49.82751" lon="2.51503">
        <ele>84</ele>
        <time>2022-12-07T13:09:37Z</time>
      </trkpt>
      <trkpt lat="49.82752" lon="2.51503">
        <ele>84.1</ele>
        <time>2022-12-07T13:09:38Z</time>
      </trkpt>
      <trkpt lat="49.82753" lon="2.51504">
        <ele>84.1</ele>
        <time>2022-12-07T13:09:39Z</time>
      </trkpt>
      <trkpt lat="49.82754" lon="2.51504">
        <ele>84.2</ele>
        <time>2022-12-07T13:09:40Z</time>
      </trkpt>
      <trkpt lat="49.82755" lon="2.51504">
        <ele>84.2</ele>
        <time>2022-12-07T13:09:41Z</time>
      </trkpt>
      <trkpt lat="49.82757" lon="2.51505">
        <ele>84.3</ele>
        <time>2022-12-07T13:09:42Z</time>
      </trkpt>
      <trkpt lat="49.82758" lon="2.51505">
        <ele>84.3</ele>
        <time>2022-12-07T13:09:43Z</time>
      </trkpt>
      <trkpt lat="49.82759" lon="2.51506">
        <ele>84.3</ele>
        <time>2022-12-07T13:09:44Z</time>
      </trkpt>
      <trkpt lat="49.8276" lon="2.51506">
        <ele>84.4</ele>
        <time>2022-12-07T13:09:45Z</time>
      </trkpt>
      <trkpt lat="49.82761" lon="2.51507">
        <ele>84.4</ele>
        <time>2022-12-07T13:09:46Z</time>
      </trkpt>
      <trkpt lat="49.82762" lon="2.51508">
        <ele>84.5</ele>
        <time>2022-12-07T13:09:47Z</time>
      </trkpt>
      <trkpt lat="49.82763" lon="2.51508">
        <ele>84.5</ele>
        <time>2022-12-07T13:09:48Z</time>
      </trkpt>
      <trkpt lat="49.82764" lon="2.51509">
        <ele>84.5</ele>
        <time>2022-12-07T13:09:49Z</time>
      </trkpt>
      <trkpt lat="49.82765" lon="2.51509">
        <ele>84.6</ele>
        <time>2022-12-07T13:09:50Z</time>
      </trkpt>
      <trkpt lat="49.82767" lon="2.5151">
        <ele>84.6</ele>
        <time>2022-12-07T13:09:51Z</time>
      </trkpt>
      <trkpt lat="49.82768" lon="2.5151">
        <ele>84.6</ele>
        <time>2022-12-07T13:09:52Z</time>
      </trkpt>
      <trkpt lat="49.82769" lon="2.5151">
        <ele>84.6</ele>
        <time>2022-12-07T13:09:53Z</time>
      </trkpt>
      <trkpt lat="49.82771" lon="2.51511">
        <ele>84.7</ele>
        <time>2022-12-07T13:09:54Z</time>
      </trkpt>
      <trkpt lat="49.82771" lon="2.51512">
        <ele>84.7</ele>
        <time>2022-12-07T13:09:55Z</time>
      </trkpt>
      <trkpt lat="49.82772" lon="2.51512">
        <ele>84.7</ele>
        <time>2022-12-07T13:09:56Z</time>
      </trkpt>
      <trkpt lat="49.82773" lon="2.51513">
        <ele>84.7</ele>
        <time>2022-12-07T13:09:57Z</time>
      </trkpt>
      <trkpt lat="49.82775" lon="2.51514">
        <ele>84.7</ele>
        <time>2022-12-07T13:09:58Z</time>
      </trkpt>
      <trkpt lat="49.82775" lon="2.51515">
        <ele>84.8</ele>
        <time>2022-12-07T13:09:59Z</time>
      </trkpt>
      <trkpt lat="49.82777" lon="2.51516">
        <ele>84.8</ele>
        <time>2022-12-07T13:10:00Z</time>
      </trkpt>
      <trkpt lat="49.82778" lon="2.51516">
        <ele>84.8</ele>
        <time>2022-12-07T13:10:01Z</time>
      </trkpt>
      <trkpt lat="49.82779" lon="2.51517">
        <ele>84.8</ele>
        <time>2022-12-07T13:10:02Z</time>
      </trkpt>
      <trkpt lat="49.8278" lon="2.51517">
        <ele>84.8</ele>
        <time>2022-12-07T13:10:03Z</time>
      </trkpt>
      <trkpt lat="49.82781" lon="2.51518">
        <ele>84.8</ele>
        <time>2022-12-07T13:10:04Z</time>
      </trkpt>
      <trkpt lat="49.82782" lon="2.51519">
        <ele>84.9</ele>
        <time>2022-12-07T13:10:05Z</time>
      </trkpt>
      <trkpt lat="49.82783" lon="2.5152">
        <ele>84.9</ele>
        <time>2022-12-07T13:10:06Z</time>
      </trkpt>
      <trkpt lat="49.82784" lon="2.5152">
        <ele>84.9</ele>
        <time>2022-12-07T13:10:07Z</time>
      </trkpt>
      <trkpt lat="49.82785" lon="2.51521">
        <ele>84.9</ele>
        <time>2022-12-07T13:10:08Z</time>
      </trkpt>
      <trkpt lat="49.82787" lon="2.51522">
        <ele>84.9</ele>
        <time>2022-12-07T13:10:09Z</time>
      </trkpt>
      <trkpt lat="49.82788" lon="2.51523">
        <ele>84.9</ele>
        <time>2022-12-07T13:10:10Z</time>
      </trkpt>
      <trkpt lat="49.82789" lon="2.51523">
        <ele>84.9</ele>
        <time>2022-12-07T13:10:11Z</time>
      </trkpt>
      <trkpt lat="49.8279" lon="2.51524">
        <ele>85</ele>
        <time>2022-12-07T13:10:12Z</time>
      </trkpt>
      <trkpt lat="49.82791" lon="2.51525">
        <ele>85</ele>
        <time>2022-12-07T13:10:13Z</time>
      </trkpt>
      <trkpt lat="49.82792" lon="2.51525">
        <ele>85</ele>
        <time>2022-12-07T13:10:14Z</time>
      </trkpt>
      <trkpt lat="49.82793" lon="2.51526">
        <ele>85</ele>
        <time>2022-12-07T13:10:15Z</time>
      </trkpt>
      <trkpt lat="49.82794" lon="2.51527">
        <ele>85</ele>
        <time>2022-12-07T13:10:16Z</time>
      </trkpt>
      <trkpt lat="49.82795" lon="2.51528">
        <ele>85</ele>
        <time>2022-12-07T13:10:17Z</time>
      </trkpt>
      <trkpt lat="49.82796" lon="2.51529">
        <ele>85</ele>
        <time>2022-12-07T13:10:18Z</time>
      </trkpt>
      <trkpt lat="49.82797" lon="2.5153">
        <ele>85</ele>
        <time>2022-12-07T13:10:19Z</time>
      </trkpt>
      <trkpt lat="49.82798" lon="2.5153">
        <ele>85</ele>
        <time>2022-12-07T13:10:20Z</time>
      </trkpt>
      <trkpt lat="49.82799" lon="2.51531">
        <ele>85</ele>
        <time>2022-12-07T13:10:21Z</time>
      </trkpt>
      <trkpt lat="49.828" lon="2.51532">
        <ele>85</ele>
        <time>2022-12-07T13:10:22Z</time>
      </trkpt>
      <trkpt lat="49.828" lon="2.51533">
        <ele>85</ele>
        <time>2022-12-07T13:10:23Z</time>
      </trkpt>
      <trkpt lat="49.82802" lon="2.51535">
        <ele>85.1</ele>
        <time>2022-12-07T13:10:24Z</time>
      </trkpt>
      <trkpt lat="49.82803" lon="2.51535">
        <ele>85.1</ele>
        <time>2022-12-07T13:10:25Z</time>
      </trkpt>
      <trkpt lat="49.82804" lon="2.51536">
        <ele>85.1</ele>
        <time>2022-12-07T13:10:26Z</time>
      </trkpt>
      <trkpt lat="49.82805" lon="2.51537">
        <ele>85.1</ele>
        <time>2022-12-07T13:10:27Z</time>
      </trkpt>
      <trkpt lat="49.82806" lon="2.51538">
        <ele>85.1</ele>
        <time>2022-12-07T13:10:28Z</time>
      </trkpt>
      <trkpt lat="49.82807" lon="2.51538">
        <ele>85.1</ele>
        <time>2022-12-07T13:10:29Z</time>
      </trkpt>
      <trkpt lat="49.82809" lon="2.5154">
        <ele>85.1</ele>
        <time>2022-12-07T13:10:30Z</time>
      </trkpt>
      <trkpt lat="49.82809" lon="2.5154">
        <ele>85.1</ele>
        <time>2022-12-07T13:10:31Z</time>
      </trkpt>
      <trkpt lat="49.8281" lon="2.51541">
        <ele>85.1</ele>
        <time>2022-12-07T13:10:32Z</time>
      </trkpt>
      <trkpt lat="49.82811" lon="2.51542">
        <ele>85.1</ele>
        <time>2022-12-07T13:10:33Z</time>
      </trkpt>
      <trkpt lat="49.82812" lon="2.51543">
        <ele>85.1</ele>
        <time>2022-12-07T13:10:34Z</time>
      </trkpt>
      <trkpt lat="49.82813" lon="2.51544">
        <ele>85.2</ele>
        <time>2022-12-07T13:10:35Z</time>
      </trkpt>
      <trkpt lat="49.82814" lon="2.51545">
        <ele>85.2</ele>
        <time>2022-12-07T13:10:36Z</time>
      </trkpt>
      <trkpt lat="49.82815" lon="2.51546">
        <ele>85.2</ele>
        <time>2022-12-07T13:10:37Z</time>
      </trkpt>
      <trkpt lat="49.82815" lon="2.51546">
        <ele>85.2</ele>
        <time>2022-12-07T13:10:38Z</time>
      </trkpt>
      <trkpt lat="49.82816" lon="2.51547">
        <ele>85.2</ele>
        <time>2022-12-07T13:10:39Z</time>
      </trkpt>
      <trkpt lat="49.82817" lon="2.51548">
        <ele>85.2</ele>
        <time>2022-12-07T13:10:40Z</time>
      </trkpt>
      <trkpt lat="49.82818" lon="2.51549">
        <ele>85.2</ele>
        <time>2022-12-07T13:10:41Z</time>
      </trkpt>
      <trkpt lat="49.82819" lon="2.5155">
        <ele>85.2</ele>
        <time>2022-12-07T13:10:42Z</time>
      </trkpt>
      <trkpt lat="49.8282" lon="2.51551">
        <ele>85.2</ele>
        <time>2022-12-07T13:10:43Z</time>
      </trkpt>
      <trkpt lat="49.82821" lon="2.51552">
        <ele>85.2</ele>
        <time>2022-12-07T13:10:44Z</time>
      </trkpt>
      <trkpt lat="49.82822" lon="2.51553">
        <ele>85.2</ele>
        <time>2022-12-07T13:10:45Z</time>
      </trkpt>
      <trkpt lat="49.82823" lon="2.51554">
        <ele>85.2</ele>
        <time>2022-12-07T13:10:46Z</time>
      </trkpt>
      <trkpt lat="49.82824" lon="2.51555">
        <ele>85.2</ele>
        <time>2022-12-07T13:10:47Z</time>
      </trkpt>
      <trkpt lat="49.82825" lon="2.51556">
        <ele>85.2</ele>
        <time>2022-12-07T13:10:48Z</time>
      </trkpt>
      <trkpt lat="49.82825" lon="2.51558">
        <ele>85.2</ele>
        <time>2022-12-07T13:10:49Z</time>
      </trkpt>
      <trkpt lat="49.82827" lon="2.51559">
        <ele>85.1</ele>
        <time>2022-12-07T13:10:50Z</time>
      </trkpt>
      <trkpt lat="49.82827" lon="2.5156">
        <ele>85.1</ele>
        <time>2022-12-07T13:10:51Z</time>
      </trkpt>
      <trkpt lat="49.82828" lon="2.5156">
        <ele>85.1</ele>
        <time>2022-12-07T13:10:52Z</time>
      </trkpt>
      <trkpt lat="49.82829" lon="2.51561">
        <ele>85.1</ele>
        <time>2022-12-07T13:10:53Z</time>
      </trkpt>
      <trkpt lat="49.8283" lon="2.51562">
        <ele>85.1</ele>
        <time>2022-12-07T13:10:54Z</time>
      </trkpt>
      <trkpt lat="49.82831" lon="2.51563">
        <ele>85.1</ele>
        <time>2022-12-07T13:10:55Z</time>
      </trkpt>
      <trkpt lat="49.82831" lon="2.51564">
        <ele>85.1</ele>
        <time>2022-12-07T13:10:56Z</time>
      </trkpt>
      <trkpt lat="49.82832" lon="2.51565">
        <ele>85.1</ele>
        <time>2022-12-07T13:10:57Z</time>
      </trkpt>
      <trkpt lat="49.82833" lon="2.51566">
        <ele>85.1</ele>
        <time>2022-12-07T13:10:58Z</time>
      </trkpt>
      <trkpt lat="49.82834" lon="2.51567">
        <ele>85.1</ele>
        <time>2022-12-07T13:10:59Z</time>
      </trkpt>
      <trkpt lat="49.82835" lon="2.51568">
        <ele>85</ele>
        <time>2022-12-07T13:11:00Z</time>
      </trkpt>
      <trkpt lat="49.82836" lon="2.51569">
        <ele>85</ele>
        <time>2022-12-07T13:11:01Z</time>
      </trkpt>
      <trkpt lat="49.82837" lon="2.5157">
        <ele>85</ele>
        <time>2022-12-07T13:11:02Z</time>
      </trkpt>
      <trkpt lat="49.82839" lon="2.51572">
        <ele>85</ele>
        <time>2022-12-07T13:11:03Z</time>
      </trkpt>
      <trkpt lat="49.82839" lon="2.51572">
        <ele>85</ele>
        <time>2022-12-07T13:11:04Z</time>
      </trkpt>
      <trkpt lat="49.8284" lon="2.51573">
        <ele>85</ele>
        <time>2022-12-07T13:11:05Z</time>
      </trkpt>
      <trkpt lat="49.82842" lon="2.51575">
        <ele>85</ele>
        <time>2022-12-07T13:11:06Z</time>
      </trkpt>
      <trkpt lat="49.82843" lon="2.51575">
        <ele>84.9</ele>
        <time>2022-12-07T13:11:07Z</time>
      </trkpt>
      <trkpt lat="49.82843" lon="2.51576">
        <ele>84.9</ele>
        <time>2022-12-07T13:11:08Z</time>
      </trkpt>
      <trkpt lat="49.82844" lon="2.51577">
        <ele>84.9</ele>
        <time>2022-12-07T13:11:09Z</time>
      </trkpt>
      <trkpt lat="49.82845" lon="2.51578">
        <ele>84.9</ele>
        <time>2022-12-07T13:11:10Z</time>
      </trkpt>
      <trkpt lat="49.82846" lon="2.51579">
        <ele>84.9</ele>
        <time>2022-12-07T13:11:11Z</time>
      </trkpt>
      <trkpt lat="49.82848" lon="2.51581">
        <ele>84.8</ele>
        <time>2022-12-07T13:11:12Z</time>
      </trkpt>
      <trkpt lat="49.82849" lon="2.51581">
        <ele>84.8</ele>
        <time>2022-12-07T13:11:13Z</time>
      </trkpt>
      <trkpt lat="49.82849" lon="2.51582">
        <ele>84.8</ele>
        <time>2022-12-07T13:11:14Z</time>
      </trkpt>
      <trkpt lat="49.82851" lon="2.51583">
        <ele>84.8</ele>
        <time>2022-12-07T13:11:15Z</time>
      </trkpt>
      <trkpt lat="49.82852" lon="2.51584">
        <ele>84.7</ele>
        <time>2022-12-07T13:11:16Z</time>
      </trkpt>
      <trkpt lat="49.82854" lon="2.51586">
        <ele>84.7</ele>
        <time>2022-12-07T13:11:17Z</time>
      </trkpt>
      <trkpt lat="49.82854" lon="2.51586">
        <ele>84.7</ele>
        <time>2022-12-07T13:11:18Z</time>
      </trkpt>
      <trkpt lat="49.82855" lon="2.51587">
        <ele>84.7</ele>
        <time>2022-12-07T13:11:19Z</time>
      </trkpt>
      <trkpt lat="49.82856" lon="2.51588">
        <ele>84.6</ele>
        <time>2022-12-07T13:11:20Z</time>
      </trkpt>
      <trkpt lat="49.82857" lon="2.51589">
        <ele>84.6</ele>
        <time>2022-12-07T13:11:21Z</time>
      </trkpt>
      <trkpt lat="49.82858" lon="2.5159">
        <ele>84.6</ele>
        <time>2022-12-07T13:11:22Z</time>
      </trkpt>
      <trkpt lat="49.82859" lon="2.51591">
        <ele>84.6</ele>
        <time>2022-12-07T13:11:23Z</time>
      </trkpt>
      <trkpt lat="49.8286" lon="2.51592">
        <ele>84.6</ele>
        <time>2022-12-07T13:11:24Z</time>
      </trkpt>
      <trkpt lat="49.82861" lon="2.51593">
        <ele>84.5</ele>
        <time>2022-12-07T13:11:25Z</time>
      </trkpt>
      <trkpt lat="49.82862" lon="2.51595">
        <ele>84.5</ele>
        <time>2022-12-07T13:11:26Z</time>
      </trkpt>
      <trkpt lat="49.82863" lon="2.51596">
        <ele>84.5</ele>
        <time>2022-12-07T13:11:27Z</time>
      </trkpt>
      <trkpt lat="49.82864" lon="2.51597">
        <ele>84.5</ele>
        <time>2022-12-07T13:11:28Z</time>
      </trkpt>
      <trkpt lat="49.82865" lon="2.51599">
        <ele>84.4</ele>
        <time>2022-12-07T13:11:29Z</time>
      </trkpt>
      <trkpt lat="49.82866" lon="2.516">
        <ele>84.4</ele>
        <time>2022-12-07T13:11:30Z</time>
      </trkpt>
      <trkpt lat="49.82866" lon="2.51601">
        <ele>84.4</ele>
        <time>2022-12-07T13:11:31Z</time>
      </trkpt>
      <trkpt lat="49.82867" lon="2.51603">
        <ele>84.4</ele>
        <time>2022-12-07T13:11:32Z</time>
      </trkpt>
      <trkpt lat="49.82868" lon="2.51604">
        <ele>84.4</ele>
        <time>2022-12-07T13:11:33Z</time>
      </trkpt>
      <trkpt lat="49.82869" lon="2.51606">
        <ele>84.3</ele>
        <time>2022-12-07T13:11:34Z</time>
      </trkpt>
      <trkpt lat="49.8287" lon="2.51607">
        <ele>84.3</ele>
        <time>2022-12-07T13:11:35Z</time>
      </trkpt>
      <trkpt lat="49.82871" lon="2.51608">
        <ele>84.3</ele>
        <time>2022-12-07T13:11:36Z</time>
      </trkpt>
      <trkpt lat="49.82872" lon="2.51609">
        <ele>84.3</ele>
        <time>2022-12-07T13:11:37Z</time>
      </trkpt>
      <trkpt lat="49.82873" lon="2.5161">
        <ele>84.2</ele>
        <time>2022-12-07T13:11:38Z</time>
      </trkpt>
      <trkpt lat="49.82874" lon="2.51611">
        <ele>84.2</ele>
        <time>2022-12-07T13:11:39Z</time>
      </trkpt>
      <trkpt lat="49.82876" lon="2.51613">
        <ele>84.2</ele>
        <time>2022-12-07T13:11:40Z</time>
      </trkpt>
      <trkpt lat="49.82877" lon="2.51613">
        <ele>84.1</ele>
        <time>2022-12-07T13:11:41Z</time>
      </trkpt>
      <trkpt lat="49.82877" lon="2.51614">
        <ele>84.1</ele>
        <time>2022-12-07T13:11:42Z</time>
      </trkpt>
      <trkpt lat="49.82879" lon="2.51615">
        <ele>84.1</ele>
        <time>2022-12-07T13:11:43Z</time>
      </trkpt>
      <trkpt lat="49.8288" lon="2.51616">
        <ele>84.1</ele>
        <time>2022-12-07T13:11:44Z</time>
      </trkpt>
      <trkpt lat="49.82882" lon="2.51618">
        <ele>84</ele>
        <time>2022-12-07T13:11:45Z</time>
      </trkpt>
      <trkpt lat="49.82883" lon="2.51618">
        <ele>84</ele>
        <time>2022-12-07T13:11:46Z</time>
      </trkpt>
      <trkpt lat="49.82884" lon="2.51619">
        <ele>84</ele>
        <time>2022-12-07T13:11:47Z</time>
      </trkpt>
      <trkpt lat="49.82886" lon="2.5162">
        <ele>83.9</ele>
        <time>2022-12-07T13:11:48Z</time>
      </trkpt>
      <trkpt lat="49.82886" lon="2.51621">
        <ele>83.9</ele>
        <time>2022-12-07T13:11:49Z</time>
      </trkpt>
      <trkpt lat="49.82887" lon="2.51621">
        <ele>83.9</ele>
        <time>2022-12-07T13:11:50Z</time>
      </trkpt>
      <trkpt lat="49.82888" lon="2.51622">
        <ele>83.8</ele>
        <time>2022-12-07T13:11:51Z</time>
      </trkpt>
      <trkpt lat="49.8289" lon="2.51623">
        <ele>83.8</ele>
        <time>2022-12-07T13:11:52Z</time>
      </trkpt>
      <trkpt lat="49.82891" lon="2.51623">
        <ele>83.8</ele>
        <time>2022-12-07T13:11:53Z</time>
      </trkpt>
      <trkpt lat="49.82892" lon="2.51624">
        <ele>83.7</ele>
        <time>2022-12-07T13:11:54Z</time>
      </trkpt>
      <trkpt lat="49.82893" lon="2.51625">
        <ele>83.7</ele>
        <time>2022-12-07T13:11:55Z</time>
      </trkpt>
      <trkpt lat="49.82894" lon="2.51626">
        <ele>83.7</ele>
        <time>2022-12-07T13:11:56Z</time>
      </trkpt>
      <trkpt lat="49.82895" lon="2.51627">
        <ele>83.6</ele>
        <time>2022-12-07T13:11:57Z</time>
      </trkpt>
      <trkpt lat="49.82897" lon="2.51628">
        <ele>83.6</ele>
        <time>2022-12-07T13:11:58Z</time>
      </trkpt>
      <trkpt lat="49.82898" lon="2.51629">
        <ele>83.5</ele>
        <time>2022-12-07T13:11:59Z</time>
      </trkpt>
      <trkpt lat="49.82899" lon="2.51629">
        <ele>83.5</ele>
        <time>2022-12-07T13:12:00Z</time>
      </trkpt>
      <trkpt lat="49.829" lon="2.5163">
        <ele>83.5</ele>
        <time>2022-12-07T13:12:01Z</time>
      </trkpt>
      <trkpt lat="49.82901" lon="2.5163">
        <ele>83.5</ele>
        <time>2022-12-07T13:12:02Z</time>
      </trkpt>
      <trkpt lat="49.82902" lon="2.51631">
        <ele>83.4</ele>
        <time>2022-12-07T13:12:03Z</time>
      </trkpt>
      <trkpt lat="49.82902" lon="2.51632">
        <ele>83.4</ele>
        <time>2022-12-07T13:12:04Z</time>
      </trkpt>
      <trkpt lat="49.82904" lon="2.51632">
        <ele>83.3</ele>
        <time>2022-12-07T13:12:05Z</time>
      </trkpt>
      <trkpt lat="49.82905" lon="2.51633">
        <ele>83.3</ele>
        <time>2022-12-07T13:12:06Z</time>
      </trkpt>
      <trkpt lat="49.82907" lon="2.51634">
        <ele>83.2</ele>
        <time>2022-12-07T13:12:07Z</time>
      </trkpt>
      <trkpt lat="49.82907" lon="2.51635">
        <ele>83.2</ele>
        <time>2022-12-07T13:12:08Z</time>
      </trkpt>
      <trkpt lat="49.82908" lon="2.51636">
        <ele>83.2</ele>
        <time>2022-12-07T13:12:09Z</time>
      </trkpt>
      <trkpt lat="49.8291" lon="2.51637">
        <ele>83.1</ele>
        <time>2022-12-07T13:12:10Z</time>
      </trkpt>
      <trkpt lat="49.82911" lon="2.51638">
        <ele>83.1</ele>
        <time>2022-12-07T13:12:11Z</time>
      </trkpt>
      <trkpt lat="49.82911" lon="2.51638">
        <ele>83</ele>
        <time>2022-12-07T13:12:12Z</time>
      </trkpt>
      <trkpt lat="49.82914" lon="2.51639">
        <ele>83</ele>
        <time>2022-12-07T13:12:13Z</time>
      </trkpt>
      <trkpt lat="49.82914" lon="2.5164">
        <ele>82.9</ele>
        <time>2022-12-07T13:12:14Z</time>
      </trkpt>
      <trkpt lat="49.82915" lon="2.5164">
        <ele>82.9</ele>
        <time>2022-12-07T13:12:15Z</time>
      </trkpt>
      <trkpt lat="49.82916" lon="2.5164">
        <ele>82.9</ele>
        <time>2022-12-07T13:12:16Z</time>
      </trkpt>
      <trkpt lat="49.82918" lon="2.51641">
        <ele>82.8</ele>
        <time>2022-12-07T13:12:17Z</time>
      </trkpt>
      <trkpt lat="49.8292" lon="2.51642">
        <ele>82.7</ele>
        <time>2022-12-07T13:12:18Z</time>
      </trkpt>
      <trkpt lat="49.8292" lon="2.51642">
        <ele>82.7</ele>
        <time>2022-12-07T13:12:19Z</time>
      </trkpt>
      <trkpt lat="49.82921" lon="2.51643">
        <ele>82.7</ele>
        <time>2022-12-07T13:12:20Z</time>
      </trkpt>
      <trkpt lat="49.82922" lon="2.51643">
        <ele>82.7</ele>
        <time>2022-12-07T13:12:21Z</time>
      </trkpt>
      <trkpt lat="49.82923" lon="2.51644">
        <ele>82.6</ele>
        <time>2022-12-07T13:12:22Z</time>
      </trkpt>
      <trkpt lat="49.82924" lon="2.51644">
        <ele>82.6</ele>
        <time>2022-12-07T13:12:23Z</time>
      </trkpt>
      <trkpt lat="49.82926" lon="2.51646">
        <ele>82.5</ele>
        <time>2022-12-07T13:12:24Z</time>
      </trkpt>
      <trkpt lat="49.82927" lon="2.51646">
        <ele>82.5</ele>
        <time>2022-12-07T13:12:25Z</time>
      </trkpt>
      <trkpt lat="49.82928" lon="2.51647">
        <ele>82.5</ele>
        <time>2022-12-07T13:12:26Z</time>
      </trkpt>
      <trkpt lat="49.82928" lon="2.51648">
        <ele>82.4</ele>
        <time>2022-12-07T13:12:27Z</time>
      </trkpt>
      <trkpt lat="49.8293" lon="2.51648">
        <ele>82.4</ele>
        <time>2022-12-07T13:12:28Z</time>
      </trkpt>
      <trkpt lat="49.82931" lon="2.51649">
        <ele>82.4</ele>
        <time>2022-12-07T13:12:29Z</time>
      </trkpt>
      <trkpt lat="49.82932" lon="2.5165">
        <ele>82.3</ele>
        <time>2022-12-07T13:12:30Z</time>
      </trkpt>
      <trkpt lat="49.82933" lon="2.51651">
        <ele>82.3</ele>
        <time>2022-12-07T13:12:31Z</time>
      </trkpt>
      <trkpt lat="49.82934" lon="2.51651">
        <ele>82.2</ele>
        <time>2022-12-07T13:12:32Z</time>
      </trkpt>
      <trkpt lat="49.82935" lon="2.51652">
        <ele>82.2</ele>
        <time>2022-12-07T13:12:33Z</time>
      </trkpt>
      <trkpt lat="49.82936" lon="2.51652">
        <ele>82.2</ele>
        <time>2022-12-07T13:12:34Z</time>
      </trkpt>
      <trkpt lat="49.82937" lon="2.51653">
        <ele>82.1</ele>
        <time>2022-12-07T13:12:35Z</time>
      </trkpt>
      <trkpt lat="49.82939" lon="2.51654">
        <ele>82.1</ele>
        <time>2022-12-07T13:12:36Z</time>
      </trkpt>
      <trkpt lat="49.8294" lon="2.51655">
        <ele>82</ele>
        <time>2022-12-07T13:12:37Z</time>
      </trkpt>
      <trkpt lat="49.82941" lon="2.51656">
        <ele>82</ele>
        <time>2022-12-07T13:12:38Z</time>
      </trkpt>
      <trkpt lat="49.82942" lon="2.51656">
        <ele>82</ele>
        <time>2022-12-07T13:12:39Z</time>
      </trkpt>
      <trkpt lat="49.82943" lon="2.51657">
        <ele>81.9</ele>
        <time>2022-12-07T13:12:40Z</time>
      </trkpt>
      <trkpt lat="49.82944" lon="2.51658">
        <ele>81.9</ele>
        <time>2022-12-07T13:12:41Z</time>
      </trkpt>
      <trkpt lat="49.82945" lon="2.51659">
        <ele>81.8</ele>
        <time>2022-12-07T13:12:42Z</time>
      </trkpt>
      <trkpt lat="49.82945" lon="2.5166">
        <ele>81.8</ele>
        <time>2022-12-07T13:12:43Z</time>
      </trkpt>
      <trkpt lat="49.82946" lon="2.51661">
        <ele>81.8</ele>
        <time>2022-12-07T13:12:44Z</time>
      </trkpt>
      <trkpt lat="49.82947" lon="2.51661">
        <ele>81.7</ele>
        <time>2022-12-07T13:12:45Z</time>
      </trkpt>
      <trkpt lat="49.82948" lon="2.51661">
        <ele>81.7</ele>
        <time>2022-12-07T13:12:46Z</time>
      </trkpt>
      <trkpt lat="49.82949" lon="2.51662">
        <ele>81.6</ele>
        <time>2022-12-07T13:12:47Z</time>
      </trkpt>
      <trkpt lat="49.8295" lon="2.51662">
        <ele>81.6</ele>
        <time>2022-12-07T13:12:48Z</time>
      </trkpt>
      <trkpt lat="49.82952" lon="2.51663">
        <ele>81.5</ele>
        <time>2022-12-07T13:12:49Z</time>
      </trkpt>
      <trkpt lat="49.82953" lon="2.51663">
        <ele>81.5</ele>
        <time>2022-12-07T13:12:50Z</time>
      </trkpt>
      <trkpt lat="49.82955" lon="2.51664">
        <ele>81.4</ele>
        <time>2022-12-07T13:12:51Z</time>
      </trkpt>
      <trkpt lat="49.82955" lon="2.51665">
        <ele>81.4</ele>
        <time>2022-12-07T13:12:52Z</time>
      </trkpt>
      <trkpt lat="49.82956" lon="2.51665">
        <ele>81.3</ele>
        <time>2022-12-07T13:12:53Z</time>
      </trkpt>
      <trkpt lat="49.82957" lon="2.51666">
        <ele>81.3</ele>
        <time>2022-12-07T13:12:54Z</time>
      </trkpt>
      <trkpt lat="49.82958" lon="2.51666">
        <ele>81.2</ele>
        <time>2022-12-07T13:12:55Z</time>
      </trkpt>
      <trkpt lat="49.8296" lon="2.51666">
        <ele>81.2</ele>
        <time>2022-12-07T13:12:56Z</time>
      </trkpt>
      <trkpt lat="49.82961" lon="2.51667">
        <ele>81.1</ele>
        <time>2022-12-07T13:12:57Z</time>
      </trkpt>
      <trkpt lat="49.82962" lon="2.51667">
        <ele>81.1</ele>
        <time>2022-12-07T13:12:58Z</time>
      </trkpt>
      <trkpt lat="49.82963" lon="2.51668">
        <ele>81</ele>
        <time>2022-12-07T13:12:59Z</time>
      </trkpt>
      <trkpt lat="49.82964" lon="2.51669">
        <ele>81</ele>
        <time>2022-12-07T13:13:00Z</time>
      </trkpt>
      <trkpt lat="49.82964" lon="2.5167">
        <ele>81</ele>
        <time>2022-12-07T13:13:01Z</time>
      </trkpt>
      <trkpt lat="49.82965" lon="2.51671">
        <ele>80.9</ele>
        <time>2022-12-07T13:13:02Z</time>
      </trkpt>
      <trkpt lat="49.82965" lon="2.51672">
        <ele>80.9</ele>
        <time>2022-12-07T13:13:03Z</time>
      </trkpt>
      <trkpt lat="49.82966" lon="2.51672">
        <ele>80.9</ele>
        <time>2022-12-07T13:13:04Z</time>
      </trkpt>
      <trkpt lat="49.82967" lon="2.51672">
        <ele>80.8</ele>
        <time>2022-12-07T13:13:05Z</time>
      </trkpt>
      <trkpt lat="49.82968" lon="2.51672">
        <ele>80.8</ele>
        <time>2022-12-07T13:13:06Z</time>
      </trkpt>
      <trkpt lat="49.82969" lon="2.51671">
        <ele>80.7</ele>
        <time>2022-12-07T13:13:07Z</time>
      </trkpt>
      <trkpt lat="49.82971" lon="2.51671">
        <ele>80.7</ele>
        <time>2022-12-07T13:13:08Z</time>
      </trkpt>
      <trkpt lat="49.82971" lon="2.51672">
        <ele>80.6</ele>
        <time>2022-12-07T13:13:09Z</time>
      </trkpt>
      <trkpt lat="49.82972" lon="2.51673">
        <ele>80.6</ele>
        <time>2022-12-07T13:13:10Z</time>
      </trkpt>
      <trkpt lat="49.82973" lon="2.51675">
        <ele>80.6</ele>
        <time>2022-12-07T13:13:11Z</time>
      </trkpt>
      <trkpt lat="49.82974" lon="2.51676">
        <ele>80.5</ele>
        <time>2022-12-07T13:13:12Z</time>
      </trkpt>
      <trkpt lat="49.82975" lon="2.51676">
        <ele>80.5</ele>
        <time>2022-12-07T13:13:13Z</time>
      </trkpt>
      <trkpt lat="49.82976" lon="2.51677">
        <ele>80.5</ele>
        <time>2022-12-07T13:13:14Z</time>
      </trkpt>
      <trkpt lat="49.82977" lon="2.51677">
        <ele>80.4</ele>
        <time>2022-12-07T13:13:15Z</time>
      </trkpt>
      <trkpt lat="49.82979" lon="2.51677">
        <ele>80.3</ele>
        <time>2022-12-07T13:13:16Z</time>
      </trkpt>
      <trkpt lat="49.8298" lon="2.51676">
        <ele>80.3</ele>
        <time>2022-12-07T13:13:17Z</time>
      </trkpt>
      <trkpt lat="49.82981" lon="2.51676">
        <ele>80.3</ele>
        <time>2022-12-07T13:13:18Z</time>
      </trkpt>
      <trkpt lat="49.82983" lon="2.51676">
        <ele>80.2</ele>
        <time>2022-12-07T13:13:19Z</time>
      </trkpt>
      <trkpt lat="49.82984" lon="2.51676">
        <ele>80.2</ele>
        <time>2022-12-07T13:13:20Z</time>
      </trkpt>
      <trkpt lat="49.82985" lon="2.51676">
        <ele>80.2</ele>
        <time>2022-12-07T13:13:21Z</time>
      </trkpt>
      <trkpt lat="49.82985" lon="2.51675">
        <ele>80.2</ele>
        <time>2022-12-07T13:13:22Z</time>
      </trkpt>
      <trkpt lat="49.82987" lon="2.51675">
        <ele>80.1</ele>
        <time>2022-12-07T13:13:23Z</time>
      </trkpt>
      <trkpt lat="49.82988" lon="2.51674">
        <ele>80.1</ele>
        <time>2022-12-07T13:13:24Z</time>
      </trkpt>
      <trkpt lat="49.82989" lon="2.51674">
        <ele>80.1</ele>
        <time>2022-12-07T13:13:25Z</time>
      </trkpt>
      <trkpt lat="49.8299" lon="2.51674">
        <ele>80</ele>
        <time>2022-12-07T13:13:26Z</time>
      </trkpt>
      <trkpt lat="49.82991" lon="2.51674">
        <ele>80</ele>
        <time>2022-12-07T13:13:27Z</time>
      </trkpt>
      <trkpt lat="49.82992" lon="2.51674">
        <ele>80</ele>
        <time>2022-12-07T13:13:28Z</time>
      </trkpt>
      <trkpt lat="49.82993" lon="2.51673">
        <ele>80</ele>
        <time>2022-12-07T13:13:29Z</time>
      </trkpt>
      <trkpt lat="49.82994" lon="2.51674">
        <ele>79.9</ele>
        <time>2022-12-07T13:13:30Z</time>
      </trkpt>
      <trkpt lat="49.82994" lon="2.51676">
        <ele>79.9</ele>
        <time>2022-12-07T13:13:31Z</time>
      </trkpt>
      <trkpt lat="49.82995" lon="2.51677">
        <ele>79.9</ele>
        <time>2022-12-07T13:13:32Z</time>
      </trkpt>
      <trkpt lat="49.82995" lon="2.51678">
        <ele>79.9</ele>
        <time>2022-12-07T13:13:33Z</time>
      </trkpt>
      <trkpt lat="49.82997" lon="2.51679">
        <ele>79.8</ele>
        <time>2022-12-07T13:13:34Z</time>
      </trkpt>
      <trkpt lat="49.82998" lon="2.51679">
        <ele>79.8</ele>
        <time>2022-12-07T13:13:35Z</time>
      </trkpt>
      <trkpt lat="49.82998" lon="2.51679">
        <ele>79.8</ele>
        <time>2022-12-07T13:13:36Z</time>
      </trkpt>
      <trkpt lat="49.82999" lon="2.51679">
        <ele>79.8</ele>
        <time>2022-12-07T13:13:37Z</time>
      </trkpt>
      <trkpt lat="49.83" lon="2.51679">
        <ele>79.8</ele>
        <time>2022-12-07T13:13:38Z</time>
      </trkpt>
      <trkpt lat="49.83001" lon="2.51679">
        <ele>79.7</ele>
        <time>2022-12-07T13:13:39Z</time>
      </trkpt>
      <trkpt lat="49.83001" lon="2.51679">
        <ele>79.7</ele>
        <time>2022-12-07T13:13:40Z</time>
      </trkpt>
      <trkpt lat="49.83002" lon="2.5168">
        <ele>79.7</ele>
        <time>2022-12-07T13:13:41Z</time>
      </trkpt>
      <trkpt lat="49.83002" lon="2.5168">
        <ele>79.7</ele>
        <time>2022-12-07T13:13:42Z</time>
      </trkpt>
      <trkpt lat="49.83003" lon="2.51681">
        <ele>79.7</ele>
        <time>2022-12-07T13:13:43Z</time>
      </trkpt>
      <trkpt lat="49.83003" lon="2.51682">
        <ele>79.7</ele>
        <time>2022-12-07T13:13:44Z</time>
      </trkpt>
      <trkpt lat="49.83002" lon="2.51683">
        <ele>79.7</ele>
        <time>2022-12-07T13:13:45Z</time>
      </trkpt>
      <trkpt lat="49.83002" lon="2.51684">
        <ele>79.7</ele>
        <time>2022-12-07T13:13:46Z</time>
      </trkpt>
      <trkpt lat="49.83001" lon="2.51685">
        <ele>79.6</ele>
        <time>2022-12-07T13:13:47Z</time>
      </trkpt>
      <trkpt lat="49.83" lon="2.51686">
        <ele>79.6</ele>
        <time>2022-12-07T13:13:48Z</time>
      </trkpt>
      <trkpt lat="49.83" lon="2.51686">
        <ele>79.6</ele>
        <time>2022-12-07T13:13:49Z</time>
      </trkpt>
      <trkpt lat="49.83" lon="2.51686">
        <ele>79.6</ele>
        <time>2022-12-07T13:13:50Z</time>
      </trkpt>
      <trkpt lat="49.82999" lon="2.51685">
        <ele>79.6</ele>
        <time>2022-12-07T13:13:51Z</time>
      </trkpt>
      <trkpt lat="49.82999" lon="2.51685">
        <ele>79.6</ele>
        <time>2022-12-07T13:13:52Z</time>
      </trkpt>
      <trkpt lat="49.82998" lon="2.51685">
        <ele>79.6</ele>
        <time>2022-12-07T13:13:53Z</time>
      </trkpt>
      <trkpt lat="49.82997" lon="2.51685">
        <ele>79.6</ele>
        <time>2022-12-07T13:13:54Z</time>
      </trkpt>
      <trkpt lat="49.82997" lon="2.51685">
        <ele>79.5</ele>
        <time>2022-12-07T13:13:55Z</time>
      </trkpt>
      <trkpt lat="49.82996" lon="2.51685">
        <ele>79.5</ele>
        <time>2022-12-07T13:13:56Z</time>
      </trkpt>
      <trkpt lat="49.82995" lon="2.51684">
        <ele>79.5</ele>
        <time>2022-12-07T13:13:57Z</time>
      </trkpt>
      <trkpt lat="49.82994" lon="2.51684">
        <ele>79.5</ele>
        <time>2022-12-07T13:13:58Z</time>
      </trkpt>
      <trkpt lat="49.82993" lon="2.51683">
        <ele>79.5</ele>
        <time>2022-12-07T13:13:59Z</time>
      </trkpt>
      <trkpt lat="49.82993" lon="2.51683">
        <ele>79.5</ele>
        <time>2022-12-07T13:14:00Z</time>
      </trkpt>
      <trkpt lat="49.82993" lon="2.51683">
        <ele>79.5</ele>
        <time>2022-12-07T13:14:01Z</time>
      </trkpt>
      <trkpt lat="49.82993" lon="2.51683">
        <ele>79.5</ele>
        <time>2022-12-07T13:14:02Z</time>
      </trkpt>
      <trkpt lat="49.82993" lon="2.51683">
        <ele>79.5</ele>
        <time>2022-12-07T13:14:03Z</time>
      </trkpt>
      <trkpt lat="49.82993" lon="2.51683">
        <ele>79.5</ele>
        <time>2022-12-07T13:14:04Z</time>
      </trkpt>
      <trkpt lat="49.82993" lon="2.51683">
        <ele>79.5</ele>
        <time>2022-12-07T13:14:05Z</time>
      </trkpt>
      <trkpt lat="49.82993" lon="2.51683">
        <ele>79.5</ele>
        <time>2022-12-07T13:14:06Z</time>
      </trkpt>
      <trkpt lat="49.82993" lon="2.51683">
        <ele>79.4</ele>
        <time>2022-12-07T13:14:07Z</time>
      </trkpt>
      <trkpt lat="49.82993" lon="2.51683">
        <ele>79.4</ele>
        <time>2022-12-07T13:14:08Z</time>
      </trkpt>
      <trkpt lat="49.82993" lon="2.51683">
        <ele>79.4</ele>
        <time>2022-12-07T13:14:09Z</time>
      </trkpt>
      <trkpt lat="49.82993" lon="2.51683">
        <ele>79.4</ele>
        <time>2022-12-07T13:14:10Z</time>
      </trkpt>
      <trkpt lat="49.82993" lon="2.51684">
        <ele>79.4</ele>
        <time>2022-12-07T13:14:11Z</time>
      </trkpt>
      <trkpt lat="49.82993" lon="2.51684">
        <ele>79.4</ele>
        <time>2022-12-07T13:14:12Z</time>
      </trkpt>
      <trkpt lat="49.82992" lon="2.51684">
        <ele>79.4</ele>
        <time>2022-12-07T13:14:13Z</time>
      </trkpt>
      <trkpt lat="49.82992" lon="2.51684">
        <ele>79.4</ele>
        <time>2022-12-07T13:14:14Z</time>
      </trkpt>
      <trkpt lat="49.82992" lon="2.51684">
        <ele>79.4</ele>
        <time>2022-12-07T13:14:15Z</time>
      </trkpt>
      <trkpt lat="49.82992" lon="2.51683">
        <ele>79.4</ele>
        <time>2022-12-07T13:14:16Z</time>
      </trkpt>
      <trkpt lat="49.82992" lon="2.51683">
        <ele>79.4</ele>
        <time>2022-12-07T13:14:17Z</time>
      </trkpt>
      <trkpt lat="49.82992" lon="2.51683">
        <ele>79.4</ele>
        <time>2022-12-07T13:14:18Z</time>
      </trkpt>
      <trkpt lat="49.82992" lon="2.51683">
        <ele>79.4</ele>
        <time>2022-12-07T13:14:19Z</time>
      </trkpt>
      <trkpt lat="49.82992" lon="2.51683">
        <ele>79.4</ele>
        <time>2022-12-07T13:14:20Z</time>
      </trkpt>
      <trkpt lat="49.82992" lon="2.51683">
        <ele>79.4</ele>
        <time>2022-12-07T13:14:21Z</time>
      </trkpt>
      <trkpt lat="49.82992" lon="2.51683">
        <ele>79.4</ele>
        <time>2022-12-07T13:14:22Z</time>
      </trkpt>
      <trkpt lat="49.82992" lon="2.51683">
        <ele>79.4</ele>
        <time>2022-12-07T13:14:23Z</time>
      </trkpt>
      <trkpt lat="49.82992" lon="2.51683">
        <ele>79.4</ele>
        <time>2022-12-07T13:14:24Z</time>
      </trkpt>
      <trkpt lat="49.82992" lon="2.51683">
        <ele>79.4</ele>
        <time>2022-12-07T13:14:25Z</time>
      </trkpt>
      <trkpt lat="49.82992" lon="2.51683">
        <ele>79.4</ele>
        <time>2022-12-07T13:14:26Z</time>
      </trkpt>
      <trkpt lat="49.82992" lon="2.51683">
        <ele>79.4</ele>
        <time>2022-12-07T13:14:27Z</time>
      </trkpt>
      <trkpt lat="49.82992" lon="2.51683">
        <ele>79.4</ele>
        <time>2022-12-07T13:14:28Z</time>
      </trkpt>
      <trkpt lat="49.82992" lon="2.51683">
        <ele>79.4</ele>
        <time>2022-12-07T13:14:29Z</time>
      </trkpt>
      <trkpt lat="49.82992" lon="2.51683">
        <ele>79.4</ele>
        <time>2022-12-07T13:14:30Z</time>
      </trkpt>
      <trkpt lat="49.82992" lon="2.5168">
        <ele>79.4</ele>
        <time>2022-12-07T13:14:31Z</time>
      </trkpt>
      <trkpt lat="49.82993" lon="2.51679">
        <ele>79.3</ele>
        <time>2022-12-07T13:14:32Z</time>
      </trkpt>
      <trkpt lat="49.82993" lon="2.51678">
        <ele>79.3</ele>
        <time>2022-12-07T13:14:33Z</time>
      </trkpt>
      <trkpt lat="49.82993" lon="2.51677">
        <ele>79.3</ele>
        <time>2022-12-07T13:14:34Z</time>
      </trkpt>
      <trkpt lat="49.82993" lon="2.51677">
        <ele>79.3</ele>
        <time>2022-12-07T13:14:35Z</time>
      </trkpt>
      <trkpt lat="49.82993" lon="2.51676">
        <ele>79.3</ele>
        <time>2022-12-07T13:14:36Z</time>
      </trkpt>
      <trkpt lat="49.82993" lon="2.51676">
        <ele>79.3</ele>
        <time>2022-12-07T13:14:37Z</time>
      </trkpt>
      <trkpt lat="49.82993" lon="2.51676">
        <ele>79.3</ele>
        <time>2022-12-07T13:14:38Z</time>
      </trkpt>
      <trkpt lat="49.82993" lon="2.51676">
        <ele>79.3</ele>
        <time>2022-12-07T13:14:39Z</time>
      </trkpt>
      <trkpt lat="49.82993" lon="2.51676">
        <ele>79.3</ele>
        <time>2022-12-07T13:14:40Z</time>
      </trkpt>
      <trkpt lat="49.82993" lon="2.51676">
        <ele>79.3</ele>
        <time>2022-12-07T13:14:41Z</time>
      </trkpt>
      <trkpt lat="49.82993" lon="2.51676">
        <ele>79.3</ele>
        <time>2022-12-07T13:14:42Z</time>
      </trkpt>
      <trkpt lat="49.82993" lon="2.51676">
        <ele>79.3</ele>
        <time>2022-12-07T13:14:43Z</time>
      </trkpt>
      <trkpt lat="49.82993" lon="2.51676">
        <ele>79.3</ele>
        <time>2022-12-07T13:14:44Z</time>
      </trkpt>
      <trkpt lat="49.82993" lon="2.51676">
        <ele>79.3</ele>
        <time>2022-12-07T13:14:45Z</time>
      </trkpt>
      <trkpt lat="49.82993" lon="2.51676">
        <ele>79.2</ele>
        <time>2022-12-07T13:14:46Z</time>
      </trkpt>
      <trkpt lat="49.82994" lon="2.51676">
        <ele>79.2</ele>
        <time>2022-12-07T13:14:47Z</time>
      </trkpt>
      <trkpt lat="49.82994" lon="2.51676">
        <ele>79.2</ele>
        <time>2022-12-07T13:14:48Z</time>
      </trkpt>
      <trkpt lat="49.82995" lon="2.51675">
        <ele>79.2</ele>
        <time>2022-12-07T13:14:49Z</time>
      </trkpt>
      <trkpt lat="49.82995" lon="2.51675">
        <ele>79.2</ele>
        <time>2022-12-07T13:14:50Z</time>
      </trkpt>
      <trkpt lat="49.82995" lon="2.51674">
        <ele>79.2</ele>
        <time>2022-12-07T13:14:51Z</time>
      </trkpt>
      <trkpt lat="49.82995" lon="2.51674">
        <ele>79.2</ele>
        <time>2022-12-07T13:14:52Z</time>
      </trkpt>
      <trkpt lat="49.82995" lon="2.51674">
        <ele>79.2</ele>
        <time>2022-12-07T13:14:53Z</time>
      </trkpt>
      <trkpt lat="49.82996" lon="2.51674">
        <ele>79.2</ele>
        <time>2022-12-07T13:14:54Z</time>
      </trkpt>
      <trkpt lat="49.82996" lon="2.51674">
        <ele>79.1</ele>
        <time>2022-12-07T13:14:55Z</time>
      </trkpt>
      <trkpt lat="49.82996" lon="2.51674">
        <ele>79.1</ele>
        <time>2022-12-07T13:14:56Z</time>
      </trkpt>
      <trkpt lat="49.82997" lon="2.51673">
        <ele>79.1</ele>
        <time>2022-12-07T13:14:57Z</time>
      </trkpt>
      <trkpt lat="49.82997" lon="2.51673">
        <ele>79.1</ele>
        <time>2022-12-07T13:14:58Z</time>
      </trkpt>
      <trkpt lat="49.82998" lon="2.51673">
        <ele>79.1</ele>
        <time>2022-12-07T13:14:59Z</time>
      </trkpt>
      <trkpt lat="49.82999" lon="2.51673">
        <ele>79.1</ele>
        <time>2022-12-07T13:15:00Z</time>
      </trkpt>
      <trkpt lat="49.83" lon="2.51673">
        <ele>79</ele>
        <time>2022-12-07T13:15:01Z</time>
      </trkpt>
      <trkpt lat="49.83001" lon="2.51673">
        <ele>79</ele>
        <time>2022-12-07T13:15:02Z</time>
      </trkpt>
      <trkpt lat="49.83003" lon="2.51674">
        <ele>78.9</ele>
        <time>2022-12-07T13:15:03Z</time>
      </trkpt>
      <trkpt lat="49.83003" lon="2.51674">
        <ele>78.9</ele>
        <time>2022-12-07T13:15:04Z</time>
      </trkpt>
      <trkpt lat="49.83004" lon="2.51675">
        <ele>78.9</ele>
        <time>2022-12-07T13:15:05Z</time>
      </trkpt>
      <trkpt lat="49.83006" lon="2.51676">
        <ele>78.9</ele>
        <time>2022-12-07T13:15:06Z</time>
      </trkpt>
      <trkpt lat="49.83007" lon="2.51677">
        <ele>78.8</ele>
        <time>2022-12-07T13:15:07Z</time>
      </trkpt>
      <trkpt lat="49.83008" lon="2.51678">
        <ele>78.8</ele>
        <time>2022-12-07T13:15:08Z</time>
      </trkpt>
      <trkpt lat="49.83009" lon="2.51678">
        <ele>78.8</ele>
        <time>2022-12-07T13:15:09Z</time>
      </trkpt>
      <trkpt lat="49.8301" lon="2.51679">
        <ele>78.8</ele>
        <time>2022-12-07T13:15:10Z</time>
      </trkpt>
      <trkpt lat="49.8301" lon="2.51679">
        <ele>78.8</ele>
        <time>2022-12-07T13:15:11Z</time>
      </trkpt>
      <trkpt lat="49.83011" lon="2.5168">
        <ele>78.8</ele>
        <time>2022-12-07T13:15:12Z</time>
      </trkpt>
      <trkpt lat="49.83012" lon="2.5168">
        <ele>78.7</ele>
        <time>2022-12-07T13:15:13Z</time>
      </trkpt>
      <trkpt lat="49.83013" lon="2.5168">
        <ele>78.7</ele>
        <time>2022-12-07T13:15:14Z</time>
      </trkpt>
      <trkpt lat="49.83013" lon="2.5168">
        <ele>78.7</ele>
        <time>2022-12-07T13:15:15Z</time>
      </trkpt>
      <trkpt lat="49.83014" lon="2.5168">
        <ele>78.7</ele>
        <time>2022-12-07T13:15:16Z</time>
      </trkpt>
      <trkpt lat="49.83015" lon="2.5168">
        <ele>78.7</ele>
        <time>2022-12-07T13:15:17Z</time>
      </trkpt>
      <trkpt lat="49.83015" lon="2.5168">
        <ele>78.7</ele>
        <time>2022-12-07T13:15:18Z</time>
      </trkpt>
      <trkpt lat="49.83016" lon="2.51679">
        <ele>78.7</ele>
        <time>2022-12-07T13:15:19Z</time>
      </trkpt>
      <trkpt lat="49.83017" lon="2.51679">
        <ele>78.7</ele>
        <time>2022-12-07T13:15:20Z</time>
      </trkpt>
      <trkpt lat="49.83017" lon="2.51679">
        <ele>78.7</ele>
        <time>2022-12-07T13:15:21Z</time>
      </trkpt>
      <trkpt lat="49.83017" lon="2.5168">
        <ele>78.7</ele>
        <time>2022-12-07T13:15:22Z</time>
      </trkpt>
      <trkpt lat="49.83018" lon="2.5168">
        <ele>78.6</ele>
        <time>2022-12-07T13:15:23Z</time>
      </trkpt>
      <trkpt lat="49.83018" lon="2.5168">
        <ele>78.6</ele>
        <time>2022-12-07T13:15:24Z</time>
      </trkpt>
      <trkpt lat="49.83019" lon="2.5168">
        <ele>78.6</ele>
        <time>2022-12-07T13:15:25Z</time>
      </trkpt>
      <trkpt lat="49.8302" lon="2.51681">
        <ele>78.6</ele>
        <time>2022-12-07T13:15:26Z</time>
      </trkpt>
      <trkpt lat="49.83021" lon="2.51681">
        <ele>78.6</ele>
        <time>2022-12-07T13:15:27Z</time>
      </trkpt>
      <trkpt lat="49.83021" lon="2.51682">
        <ele>78.6</ele>
        <time>2022-12-07T13:15:28Z</time>
      </trkpt>
      <trkpt lat="49.83023" lon="2.51682">
        <ele>78.5</ele>
        <time>2022-12-07T13:15:29Z</time>
      </trkpt>
      <trkpt lat="49.83024" lon="2.51683">
        <ele>78.5</ele>
        <time>2022-12-07T13:15:30Z</time>
      </trkpt>
      <trkpt lat="49.83025" lon="2.51683">
        <ele>78.5</ele>
        <time>2022-12-07T13:15:31Z</time>
      </trkpt>
      <trkpt lat="49.83026" lon="2.51683">
        <ele>78.5</ele>
        <time>2022-12-07T13:15:32Z</time>
      </trkpt>
      <trkpt lat="49.83027" lon="2.51683">
        <ele>78.4</ele>
        <time>2022-12-07T13:15:33Z</time>
      </trkpt>
      <trkpt lat="49.83028" lon="2.51684">
        <ele>78.4</ele>
        <time>2022-12-07T13:15:34Z</time>
      </trkpt>
      <trkpt lat="49.83028" lon="2.51684">
        <ele>78.4</ele>
        <time>2022-12-07T13:15:35Z</time>
      </trkpt>
      <trkpt lat="49.8303" lon="2.51685">
        <ele>78.4</ele>
        <time>2022-12-07T13:15:36Z</time>
      </trkpt>
      <trkpt lat="49.8303" lon="2.51685">
        <ele>78.3</ele>
        <time>2022-12-07T13:15:37Z</time>
      </trkpt>
      <trkpt lat="49.83031" lon="2.51685">
        <ele>78.3</ele>
        <time>2022-12-07T13:15:38Z</time>
      </trkpt>
      <trkpt lat="49.83032" lon="2.51685">
        <ele>78.3</ele>
        <time>2022-12-07T13:15:39Z</time>
      </trkpt>
      <trkpt lat="49.83034" lon="2.51685">
        <ele>78.3</ele>
        <time>2022-12-07T13:15:40Z</time>
      </trkpt>
      <trkpt lat="49.83036" lon="2.51686">
        <ele>78.2</ele>
        <time>2022-12-07T13:15:41Z</time>
      </trkpt>
      <trkpt lat="49.83037" lon="2.51686">
        <ele>78.2</ele>
        <time>2022-12-07T13:15:42Z</time>
      </trkpt>
      <trkpt lat="49.83037" lon="2.51687">
        <ele>78.1</ele>
        <time>2022-12-07T13:15:43Z</time>
      </trkpt>
      <trkpt lat="49.8304" lon="2.51687">
        <ele>78.1</ele>
        <time>2022-12-07T13:15:44Z</time>
      </trkpt>
      <trkpt lat="49.8304" lon="2.51687">
        <ele>78.1</ele>
        <time>2022-12-07T13:15:45Z</time>
      </trkpt>
      <trkpt lat="49.83041" lon="2.51687">
        <ele>78</ele>
        <time>2022-12-07T13:15:46Z</time>
      </trkpt>
      <trkpt lat="49.83043" lon="2.51688">
        <ele>78</ele>
        <time>2022-12-07T13:15:47Z</time>
      </trkpt>
      <trkpt lat="49.83044" lon="2.51688">
        <ele>77.9</ele>
        <time>2022-12-07T13:15:48Z</time>
      </trkpt>
      <trkpt lat="49.83045" lon="2.51689">
        <ele>77.9</ele>
        <time>2022-12-07T13:15:49Z</time>
      </trkpt>
      <trkpt lat="49.83047" lon="2.51689">
        <ele>77.9</ele>
        <time>2022-12-07T13:15:50Z</time>
      </trkpt>
      <trkpt lat="49.83048" lon="2.51689">
        <ele>77.8</ele>
        <time>2022-12-07T13:15:51Z</time>
      </trkpt>
      <trkpt lat="49.83049" lon="2.51689">
        <ele>77.8</ele>
        <time>2022-12-07T13:15:52Z</time>
      </trkpt>
      <trkpt lat="49.8305" lon="2.5169">
        <ele>77.8</ele>
        <time>2022-12-07T13:15:53Z</time>
      </trkpt>
      <trkpt lat="49.83051" lon="2.5169">
        <ele>77.7</ele>
        <time>2022-12-07T13:15:54Z</time>
      </trkpt>
      <trkpt lat="49.83052" lon="2.5169">
        <ele>77.7</ele>
        <time>2022-12-07T13:15:55Z</time>
      </trkpt>
      <trkpt lat="49.83053" lon="2.5169">
        <ele>77.6</ele>
        <time>2022-12-07T13:15:56Z</time>
      </trkpt>
      <trkpt lat="49.83055" lon="2.5169">
        <ele>77.6</ele>
        <time>2022-12-07T13:15:57Z</time>
      </trkpt>
      <trkpt lat="49.83056" lon="2.51691">
        <ele>77.6</ele>
        <time>2022-12-07T13:15:58Z</time>
      </trkpt>
      <trkpt lat="49.83057" lon="2.51691">
        <ele>77.5</ele>
        <time>2022-12-07T13:15:59Z</time>
      </trkpt>
      <trkpt lat="49.83058" lon="2.51692">
        <ele>77.5</ele>
        <time>2022-12-07T13:16:00Z</time>
      </trkpt>
      <trkpt lat="49.83059" lon="2.51692">
        <ele>77.5</ele>
        <time>2022-12-07T13:16:01Z</time>
      </trkpt>
      <trkpt lat="49.83061" lon="2.51692">
        <ele>77.4</ele>
        <time>2022-12-07T13:16:02Z</time>
      </trkpt>
      <trkpt lat="49.83062" lon="2.51692">
        <ele>77.4</ele>
        <time>2022-12-07T13:16:03Z</time>
      </trkpt>
      <trkpt lat="49.83063" lon="2.51693">
        <ele>77.3</ele>
        <time>2022-12-07T13:16:04Z</time>
      </trkpt>
      <trkpt lat="49.83064" lon="2.51693">
        <ele>77.3</ele>
        <time>2022-12-07T13:16:05Z</time>
      </trkpt>
      <trkpt lat="49.83065" lon="2.51693">
        <ele>77.3</ele>
        <time>2022-12-07T13:16:06Z</time>
      </trkpt>
      <trkpt lat="49.83066" lon="2.51694">
        <ele>77.2</ele>
        <time>2022-12-07T13:16:07Z</time>
      </trkpt>
      <trkpt lat="49.83067" lon="2.51694">
        <ele>77.2</ele>
        <time>2022-12-07T13:16:08Z</time>
      </trkpt>
      <trkpt lat="49.83068" lon="2.51695">
        <ele>77.2</ele>
        <time>2022-12-07T13:16:09Z</time>
      </trkpt>
      <trkpt lat="49.83069" lon="2.51695">
        <ele>77.1</ele>
        <time>2022-12-07T13:16:10Z</time>
      </trkpt>
      <trkpt lat="49.83071" lon="2.51696">
        <ele>77.1</ele>
        <time>2022-12-07T13:16:11Z</time>
      </trkpt>
      <trkpt lat="49.83072" lon="2.51696">
        <ele>77</ele>
        <time>2022-12-07T13:16:12Z</time>
      </trkpt>
      <trkpt lat="49.83072" lon="2.51696">
        <ele>77</ele>
        <time>2022-12-07T13:16:13Z</time>
      </trkpt>
      <trkpt lat="49.83073" lon="2.51696">
        <ele>77</ele>
        <time>2022-12-07T13:16:14Z</time>
      </trkpt>
      <trkpt lat="49.83075" lon="2.51697">
        <ele>76.9</ele>
        <time>2022-12-07T13:16:15Z</time>
      </trkpt>
      <trkpt lat="49.83076" lon="2.51697">
        <ele>76.9</ele>
        <time>2022-12-07T13:16:16Z</time>
      </trkpt>
      <trkpt lat="49.83077" lon="2.51698">
        <ele>76.8</ele>
        <time>2022-12-07T13:16:17Z</time>
      </trkpt>
      <trkpt lat="49.83078" lon="2.51698">
        <ele>76.8</ele>
        <time>2022-12-07T13:16:18Z</time>
      </trkpt>
      <trkpt lat="49.83079" lon="2.51698">
        <ele>76.8</ele>
        <time>2022-12-07T13:16:19Z</time>
      </trkpt>
      <trkpt lat="49.8308" lon="2.51699">
        <ele>76.7</ele>
        <time>2022-12-07T13:16:20Z</time>
      </trkpt>
      <trkpt lat="49.83081" lon="2.51699">
        <ele>76.7</ele>
        <time>2022-12-07T13:16:21Z</time>
      </trkpt>
      <trkpt lat="49.83082" lon="2.517">
        <ele>76.6</ele>
        <time>2022-12-07T13:16:22Z</time>
      </trkpt>
      <trkpt lat="49.83083" lon="2.517">
        <ele>76.6</ele>
        <time>2022-12-07T13:16:23Z</time>
      </trkpt>
      <trkpt lat="49.83084" lon="2.51701">
        <ele>76.5</ele>
        <time>2022-12-07T13:16:24Z</time>
      </trkpt>
      <trkpt lat="49.83085" lon="2.51701">
        <ele>76.5</ele>
        <time>2022-12-07T13:16:25Z</time>
      </trkpt>
      <trkpt lat="49.83086" lon="2.51701">
        <ele>76.4</ele>
        <time>2022-12-07T13:16:26Z</time>
      </trkpt>
      <trkpt lat="49.83087" lon="2.51702">
        <ele>76.4</ele>
        <time>2022-12-07T13:16:27Z</time>
      </trkpt>
      <trkpt lat="49.83088" lon="2.51702">
        <ele>76.4</ele>
        <time>2022-12-07T13:16:28Z</time>
      </trkpt>
      <trkpt lat="49.83091" lon="2.51702">
        <ele>76.3</ele>
        <time>2022-12-07T13:16:29Z</time>
      </trkpt>
      <trkpt lat="49.83091" lon="2.51702">
        <ele>76.2</ele>
        <time>2022-12-07T13:16:30Z</time>
      </trkpt>
      <trkpt lat="49.83092" lon="2.51702">
        <ele>76.2</ele>
        <time>2022-12-07T13:16:31Z</time>
      </trkpt>
      <trkpt lat="49.83093" lon="2.51702">
        <ele>76.1</ele>
        <time>2022-12-07T13:16:32Z</time>
      </trkpt>
      <trkpt lat="49.83095" lon="2.51702">
        <ele>76</ele>
        <time>2022-12-07T13:16:33Z</time>
      </trkpt>
      <trkpt lat="49.83096" lon="2.51702">
        <ele>76</ele>
        <time>2022-12-07T13:16:34Z</time>
      </trkpt>
      <trkpt lat="49.83097" lon="2.51702">
        <ele>75.9</ele>
        <time>2022-12-07T13:16:35Z</time>
      </trkpt>
      <trkpt lat="49.83098" lon="2.51702">
        <ele>75.9</ele>
        <time>2022-12-07T13:16:36Z</time>
      </trkpt>
      <trkpt lat="49.83099" lon="2.51702">
        <ele>75.8</ele>
        <time>2022-12-07T13:16:37Z</time>
      </trkpt>
      <trkpt lat="49.831" lon="2.51702">
        <ele>75.7</ele>
        <time>2022-12-07T13:16:38Z</time>
      </trkpt>
      <trkpt lat="49.83101" lon="2.51702">
        <ele>75.7</ele>
        <time>2022-12-07T13:16:39Z</time>
      </trkpt>
      <trkpt lat="49.83102" lon="2.51702">
        <ele>75.6</ele>
        <time>2022-12-07T13:16:40Z</time>
      </trkpt>
      <trkpt lat="49.83104" lon="2.51702">
        <ele>75.5</ele>
        <time>2022-12-07T13:16:41Z</time>
      </trkpt>
      <trkpt lat="49.83104" lon="2.51703">
        <ele>75.5</ele>
        <time>2022-12-07T13:16:42Z</time>
      </trkpt>
      <trkpt lat="49.83106" lon="2.51703">
        <ele>75.4</ele>
        <time>2022-12-07T13:16:43Z</time>
      </trkpt>
      <trkpt lat="49.83108" lon="2.51704">
        <ele>75.3</ele>
        <time>2022-12-07T13:16:44Z</time>
      </trkpt>
      <trkpt lat="49.83108" lon="2.51704">
        <ele>75.2</ele>
        <time>2022-12-07T13:16:45Z</time>
      </trkpt>
      <trkpt lat="49.83109" lon="2.51704">
        <ele>75.2</ele>
        <time>2022-12-07T13:16:46Z</time>
      </trkpt>
      <trkpt lat="49.8311" lon="2.51704">
        <ele>75.1</ele>
        <time>2022-12-07T13:16:47Z</time>
      </trkpt>
      <trkpt lat="49.83111" lon="2.51704">
        <ele>75.1</ele>
        <time>2022-12-07T13:16:48Z</time>
      </trkpt>
      <trkpt lat="49.83113" lon="2.51705">
        <ele>75</ele>
        <time>2022-12-07T13:16:49Z</time>
      </trkpt>
      <trkpt lat="49.83114" lon="2.51704">
        <ele>74.9</ele>
        <time>2022-12-07T13:16:50Z</time>
      </trkpt>
      <trkpt lat="49.83115" lon="2.51704">
        <ele>74.8</ele>
        <time>2022-12-07T13:16:51Z</time>
      </trkpt>
      <trkpt lat="49.83116" lon="2.51704">
        <ele>74.8</ele>
        <time>2022-12-07T13:16:52Z</time>
      </trkpt>
      <trkpt lat="49.83117" lon="2.51705">
        <ele>74.7</ele>
        <time>2022-12-07T13:16:53Z</time>
      </trkpt>
      <trkpt lat="49.83118" lon="2.51705">
        <ele>74.6</ele>
        <time>2022-12-07T13:16:54Z</time>
      </trkpt>
      <trkpt lat="49.83119" lon="2.51705">
        <ele>74.6</ele>
        <time>2022-12-07T13:16:55Z</time>
      </trkpt>
      <trkpt lat="49.8312" lon="2.51706">
        <ele>74.5</ele>
        <time>2022-12-07T13:16:56Z</time>
      </trkpt>
      <trkpt lat="49.83121" lon="2.51706">
        <ele>74.5</ele>
        <time>2022-12-07T13:16:57Z</time>
      </trkpt>
      <trkpt lat="49.83122" lon="2.51707">
        <ele>74.4</ele>
        <time>2022-12-07T13:16:58Z</time>
      </trkpt>
      <trkpt lat="49.83123" lon="2.51707">
        <ele>74.3</ele>
        <time>2022-12-07T13:16:59Z</time>
      </trkpt>
      <trkpt lat="49.83123" lon="2.51708">
        <ele>74.3</ele>
        <time>2022-12-07T13:17:00Z</time>
      </trkpt>
      <trkpt lat="49.83124" lon="2.51708">
        <ele>74.2</ele>
        <time>2022-12-07T13:17:01Z</time>
      </trkpt>
      <trkpt lat="49.83125" lon="2.51709">
        <ele>74.2</ele>
        <time>2022-12-07T13:17:02Z</time>
      </trkpt>
      <trkpt lat="49.83126" lon="2.5171">
        <ele>74.1</ele>
        <time>2022-12-07T13:17:03Z</time>
      </trkpt>
      <trkpt lat="49.83127" lon="2.5171">
        <ele>74</ele>
        <time>2022-12-07T13:17:04Z</time>
      </trkpt>
      <trkpt lat="49.83128" lon="2.5171">
        <ele>74</ele>
        <time>2022-12-07T13:17:05Z</time>
      </trkpt>
      <trkpt lat="49.83129" lon="2.51711">
        <ele>73.9</ele>
        <time>2022-12-07T13:17:06Z</time>
      </trkpt>
      <trkpt lat="49.8313" lon="2.51711">
        <ele>73.8</ele>
        <time>2022-12-07T13:17:07Z</time>
      </trkpt>
      <trkpt lat="49.83131" lon="2.51711">
        <ele>73.8</ele>
        <time>2022-12-07T13:17:08Z</time>
      </trkpt>
      <trkpt lat="49.83132" lon="2.51711">
        <ele>73.7</ele>
        <time>2022-12-07T13:17:09Z</time>
      </trkpt>
      <trkpt lat="49.83133" lon="2.51711">
        <ele>73.6</ele>
        <time>2022-12-07T13:17:10Z</time>
      </trkpt>
      <trkpt lat="49.83134" lon="2.51712">
        <ele>73.5</ele>
        <time>2022-12-07T13:17:11Z</time>
      </trkpt>
      <trkpt lat="49.83135" lon="2.51712">
        <ele>73.5</ele>
        <time>2022-12-07T13:17:12Z</time>
      </trkpt>
      <trkpt lat="49.83136" lon="2.51712">
        <ele>73.4</ele>
        <time>2022-12-07T13:17:13Z</time>
      </trkpt>
      <trkpt lat="49.83137" lon="2.51712">
        <ele>73.4</ele>
        <time>2022-12-07T13:17:14Z</time>
      </trkpt>
      <trkpt lat="49.83138" lon="2.51712">
        <ele>73.3</ele>
        <time>2022-12-07T13:17:15Z</time>
      </trkpt>
      <trkpt lat="49.83138" lon="2.51713">
        <ele>73.2</ele>
        <time>2022-12-07T13:17:16Z</time>
      </trkpt>
      <trkpt lat="49.83139" lon="2.51713">
        <ele>73.2</ele>
        <time>2022-12-07T13:17:17Z</time>
      </trkpt>
      <trkpt lat="49.8314" lon="2.51713">
        <ele>73.1</ele>
        <time>2022-12-07T13:17:18Z</time>
      </trkpt>
      <trkpt lat="49.83141" lon="2.51714">
        <ele>73</ele>
        <time>2022-12-07T13:17:19Z</time>
      </trkpt>
      <trkpt lat="49.83142" lon="2.51714">
        <ele>73</ele>
        <time>2022-12-07T13:17:20Z</time>
      </trkpt>
      <trkpt lat="49.83143" lon="2.51714">
        <ele>72.9</ele>
        <time>2022-12-07T13:17:21Z</time>
      </trkpt>
      <trkpt lat="49.83144" lon="2.51714">
        <ele>72.8</ele>
        <time>2022-12-07T13:17:22Z</time>
      </trkpt>
      <trkpt lat="49.83146" lon="2.51715">
        <ele>72.8</ele>
        <time>2022-12-07T13:17:23Z</time>
      </trkpt>
      <trkpt lat="49.83147" lon="2.51715">
        <ele>72.7</ele>
        <time>2022-12-07T13:17:24Z</time>
      </trkpt>
      <trkpt lat="49.83147" lon="2.51715">
        <ele>72.7</ele>
        <time>2022-12-07T13:17:25Z</time>
      </trkpt>
      <trkpt lat="49.83148" lon="2.51715">
        <ele>72.6</ele>
        <time>2022-12-07T13:17:26Z</time>
      </trkpt>
      <trkpt lat="49.8315" lon="2.51716">
        <ele>72.5</ele>
        <time>2022-12-07T13:17:27Z</time>
      </trkpt>
      <trkpt lat="49.83151" lon="2.51716">
        <ele>72.4</ele>
        <time>2022-12-07T13:17:28Z</time>
      </trkpt>
      <trkpt lat="49.83152" lon="2.51717">
        <ele>72.4</ele>
        <time>2022-12-07T13:17:29Z</time>
      </trkpt>
      <trkpt lat="49.83154" lon="2.51717">
        <ele>72.3</ele>
        <time>2022-12-07T13:17:30Z</time>
      </trkpt>
      <trkpt lat="49.83155" lon="2.51717">
        <ele>72.2</ele>
        <time>2022-12-07T13:17:31Z</time>
      </trkpt>
      <trkpt lat="49.83156" lon="2.51718">
        <ele>72.1</ele>
        <time>2022-12-07T13:17:32Z</time>
      </trkpt>
      <trkpt lat="49.83157" lon="2.51718">
        <ele>72.1</ele>
        <time>2022-12-07T13:17:33Z</time>
      </trkpt>
      <trkpt lat="49.83158" lon="2.51718">
        <ele>72</ele>
        <time>2022-12-07T13:17:34Z</time>
      </trkpt>
      <trkpt lat="49.83159" lon="2.51719">
        <ele>71.9</ele>
        <time>2022-12-07T13:17:35Z</time>
      </trkpt>
      <trkpt lat="49.8316" lon="2.51719">
        <ele>71.9</ele>
        <time>2022-12-07T13:17:36Z</time>
      </trkpt>
      <trkpt lat="49.83162" lon="2.51719">
        <ele>71.8</ele>
        <time>2022-12-07T13:17:37Z</time>
      </trkpt>
      <trkpt lat="49.83163" lon="2.51719">
        <ele>71.8</ele>
        <time>2022-12-07T13:17:38Z</time>
      </trkpt>
      <trkpt lat="49.83163" lon="2.51719">
        <ele>71.7</ele>
        <time>2022-12-07T13:17:39Z</time>
      </trkpt>
      <trkpt lat="49.83164" lon="2.51719">
        <ele>71.7</ele>
        <time>2022-12-07T13:17:40Z</time>
      </trkpt>
      <trkpt lat="49.83165" lon="2.51719">
        <ele>71.6</ele>
        <time>2022-12-07T13:17:41Z</time>
      </trkpt>
      <trkpt lat="49.83166" lon="2.5172">
        <ele>71.5</ele>
        <time>2022-12-07T13:17:42Z</time>
      </trkpt>
      <trkpt lat="49.83167" lon="2.5172">
        <ele>71.5</ele>
        <time>2022-12-07T13:17:43Z</time>
      </trkpt>
      <trkpt lat="49.83168" lon="2.5172">
        <ele>71.4</ele>
        <time>2022-12-07T13:17:44Z</time>
      </trkpt>
      <trkpt lat="49.83169" lon="2.5172">
        <ele>71.4</ele>
        <time>2022-12-07T13:17:45Z</time>
      </trkpt>
      <trkpt lat="49.8317" lon="2.5172">
        <ele>71.3</ele>
        <time>2022-12-07T13:17:46Z</time>
      </trkpt>
      <trkpt lat="49.83171" lon="2.5172">
        <ele>71.3</ele>
        <time>2022-12-07T13:17:47Z</time>
      </trkpt>
      <trkpt lat="49.83172" lon="2.5172">
        <ele>71.2</ele>
        <time>2022-12-07T13:17:48Z</time>
      </trkpt>
      <trkpt lat="49.83172" lon="2.5172">
        <ele>71.2</ele>
        <time>2022-12-07T13:17:49Z</time>
      </trkpt>
      <trkpt lat="49.83174" lon="2.51721">
        <ele>71.1</ele>
        <time>2022-12-07T13:17:50Z</time>
      </trkpt>
      <trkpt lat="49.83174" lon="2.51722">
        <ele>71.1</ele>
        <time>2022-12-07T13:17:51Z</time>
      </trkpt>
      <trkpt lat="49.83175" lon="2.51722">
        <ele>71</ele>
        <time>2022-12-07T13:17:52Z</time>
      </trkpt>
      <trkpt lat="49.83176" lon="2.51722">
        <ele>71</ele>
        <time>2022-12-07T13:17:53Z</time>
      </trkpt>
      <trkpt lat="49.83177" lon="2.51723">
        <ele>70.9</ele>
        <time>2022-12-07T13:17:54Z</time>
      </trkpt>
      <trkpt lat="49.83178" lon="2.51724">
        <ele>70.9</ele>
        <time>2022-12-07T13:17:55Z</time>
      </trkpt>
      <trkpt lat="49.83179" lon="2.51724">
        <ele>70.8</ele>
        <time>2022-12-07T13:17:56Z</time>
      </trkpt>
      <trkpt lat="49.8318" lon="2.51725">
        <ele>70.8</ele>
        <time>2022-12-07T13:17:57Z</time>
      </trkpt>
      <trkpt lat="49.83181" lon="2.51726">
        <ele>70.7</ele>
        <time>2022-12-07T13:17:58Z</time>
      </trkpt>
      <trkpt lat="49.83182" lon="2.51726">
        <ele>70.6</ele>
        <time>2022-12-07T13:17:59Z</time>
      </trkpt>
      <trkpt lat="49.83183" lon="2.51727">
        <ele>70.5</ele>
        <time>2022-12-07T13:18:00Z</time>
      </trkpt>
      <trkpt lat="49.83184" lon="2.51727">
        <ele>70.5</ele>
        <time>2022-12-07T13:18:01Z</time>
      </trkpt>
      <trkpt lat="49.83185" lon="2.51727">
        <ele>70.5</ele>
        <time>2022-12-07T13:18:02Z</time>
      </trkpt>
      <trkpt lat="49.83185" lon="2.51727">
        <ele>70.4</ele>
        <time>2022-12-07T13:18:03Z</time>
      </trkpt>
      <trkpt lat="49.83187" lon="2.51728">
        <ele>70.4</ele>
        <time>2022-12-07T13:18:04Z</time>
      </trkpt>
      <trkpt lat="49.83187" lon="2.51728">
        <ele>70.3</ele>
        <time>2022-12-07T13:18:05Z</time>
      </trkpt>
      <trkpt lat="49.83189" lon="2.51728">
        <ele>70.3</ele>
        <time>2022-12-07T13:18:06Z</time>
      </trkpt>
      <trkpt lat="49.8319" lon="2.51729">
        <ele>70.2</ele>
        <time>2022-12-07T13:18:07Z</time>
      </trkpt>
      <trkpt lat="49.83191" lon="2.51729">
        <ele>70.1</ele>
        <time>2022-12-07T13:18:08Z</time>
      </trkpt>
      <trkpt lat="49.83192" lon="2.51729">
        <ele>70.1</ele>
        <time>2022-12-07T13:18:09Z</time>
      </trkpt>
      <trkpt lat="49.83193" lon="2.51729">
        <ele>70</ele>
        <time>2022-12-07T13:18:10Z</time>
      </trkpt>
      <trkpt lat="49.83194" lon="2.51729">
        <ele>69.9</ele>
        <time>2022-12-07T13:18:11Z</time>
      </trkpt>
      <trkpt lat="49.83195" lon="2.51729">
        <ele>69.9</ele>
        <time>2022-12-07T13:18:12Z</time>
      </trkpt>
      <trkpt lat="49.83197" lon="2.51729">
        <ele>69.8</ele>
        <time>2022-12-07T13:18:13Z</time>
      </trkpt>
      <trkpt lat="49.83198" lon="2.5173">
        <ele>69.7</ele>
        <time>2022-12-07T13:18:14Z</time>
      </trkpt>
      <trkpt lat="49.83198" lon="2.5173">
        <ele>69.7</ele>
        <time>2022-12-07T13:18:15Z</time>
      </trkpt>
      <trkpt lat="49.83199" lon="2.5173">
        <ele>69.7</ele>
        <time>2022-12-07T13:18:16Z</time>
      </trkpt>
      <trkpt lat="49.83201" lon="2.5173">
        <ele>69.6</ele>
        <time>2022-12-07T13:18:17Z</time>
      </trkpt>
      <trkpt lat="49.83201" lon="2.51731">
        <ele>69.5</ele>
        <time>2022-12-07T13:18:18Z</time>
      </trkpt>
      <trkpt lat="49.83202" lon="2.51731">
        <ele>69.5</ele>
        <time>2022-12-07T13:18:19Z</time>
      </trkpt>
      <trkpt lat="49.83203" lon="2.51731">
        <ele>69.5</ele>
        <time>2022-12-07T13:18:20Z</time>
      </trkpt>
      <trkpt lat="49.83204" lon="2.51731">
        <ele>69.4</ele>
        <time>2022-12-07T13:18:21Z</time>
      </trkpt>
      <trkpt lat="49.83205" lon="2.51732">
        <ele>69.3</ele>
        <time>2022-12-07T13:18:22Z</time>
      </trkpt>
      <trkpt lat="49.83206" lon="2.51732">
        <ele>69.3</ele>
        <time>2022-12-07T13:18:23Z</time>
      </trkpt>
      <trkpt lat="49.83206" lon="2.51732">
        <ele>69.2</ele>
        <time>2022-12-07T13:18:24Z</time>
      </trkpt>
      <trkpt lat="49.83207" lon="2.51732">
        <ele>69.2</ele>
        <time>2022-12-07T13:18:25Z</time>
      </trkpt>
      <trkpt lat="49.83208" lon="2.51732">
        <ele>69.1</ele>
        <time>2022-12-07T13:18:26Z</time>
      </trkpt>
      <trkpt lat="49.83209" lon="2.51731">
        <ele>69.1</ele>
        <time>2022-12-07T13:18:27Z</time>
      </trkpt>
      <trkpt lat="49.83209" lon="2.51731">
        <ele>69.1</ele>
        <time>2022-12-07T13:18:28Z</time>
      </trkpt>
      <trkpt lat="49.8321" lon="2.5173">
        <ele>69</ele>
        <time>2022-12-07T13:18:29Z</time>
      </trkpt>
      <trkpt lat="49.83211" lon="2.5173">
        <ele>68.9</ele>
        <time>2022-12-07T13:18:30Z</time>
      </trkpt>
      <trkpt lat="49.83212" lon="2.5173">
        <ele>68.9</ele>
        <time>2022-12-07T13:18:31Z</time>
      </trkpt>
      <trkpt lat="49.83212" lon="2.51729">
        <ele>68.8</ele>
        <time>2022-12-07T13:18:32Z</time>
      </trkpt>
      <trkpt lat="49.83213" lon="2.51729">
        <ele>68.7</ele>
        <time>2022-12-07T13:18:33Z</time>
      </trkpt>
      <trkpt lat="49.83214" lon="2.51729">
        <ele>68.7</ele>
        <time>2022-12-07T13:18:34Z</time>
      </trkpt>
      <trkpt lat="49.83215" lon="2.51729">
        <ele>68.6</ele>
        <time>2022-12-07T13:18:35Z</time>
      </trkpt>
      <trkpt lat="49.83216" lon="2.5173">
        <ele>68.6</ele>
        <time>2022-12-07T13:18:36Z</time>
      </trkpt>
      <trkpt lat="49.83217" lon="2.5173">
        <ele>68.5</ele>
        <time>2022-12-07T13:18:37Z</time>
      </trkpt>
      <trkpt lat="49.83218" lon="2.5173">
        <ele>68.4</ele>
        <time>2022-12-07T13:18:38Z</time>
      </trkpt>
      <trkpt lat="49.83219" lon="2.5173">
        <ele>68.4</ele>
        <time>2022-12-07T13:18:39Z</time>
      </trkpt>
      <trkpt lat="49.8322" lon="2.51731">
        <ele>68.3</ele>
        <time>2022-12-07T13:18:40Z</time>
      </trkpt>
      <trkpt lat="49.8322" lon="2.51731">
        <ele>68.2</ele>
        <time>2022-12-07T13:18:41Z</time>
      </trkpt>
      <trkpt lat="49.83221" lon="2.51732">
        <ele>68.2</ele>
        <time>2022-12-07T13:18:42Z</time>
      </trkpt>
      <trkpt lat="49.83222" lon="2.51732">
        <ele>68.1</ele>
        <time>2022-12-07T13:18:43Z</time>
      </trkpt>
      <trkpt lat="49.83223" lon="2.51731">
        <ele>68.1</ele>
        <time>2022-12-07T13:18:44Z</time>
      </trkpt>
      <trkpt lat="49.83224" lon="2.51731">
        <ele>68</ele>
        <time>2022-12-07T13:18:45Z</time>
      </trkpt>
      <trkpt lat="49.83225" lon="2.51731">
        <ele>68</ele>
        <time>2022-12-07T13:18:46Z</time>
      </trkpt>
      <trkpt lat="49.83226" lon="2.5173">
        <ele>67.9</ele>
        <time>2022-12-07T13:18:47Z</time>
      </trkpt>
      <trkpt lat="49.83227" lon="2.5173">
        <ele>67.8</ele>
        <time>2022-12-07T13:18:48Z</time>
      </trkpt>
      <trkpt lat="49.83228" lon="2.51729">
        <ele>67.8</ele>
        <time>2022-12-07T13:18:49Z</time>
      </trkpt>
      <trkpt lat="49.83229" lon="2.51728">
        <ele>67.7</ele>
        <time>2022-12-07T13:18:50Z</time>
      </trkpt>
      <trkpt lat="49.8323" lon="2.51728">
        <ele>67.7</ele>
        <time>2022-12-07T13:18:51Z</time>
      </trkpt>
      <trkpt lat="49.83231" lon="2.51727">
        <ele>67.6</ele>
        <time>2022-12-07T13:18:52Z</time>
      </trkpt>
      <trkpt lat="49.83232" lon="2.51727">
        <ele>67.6</ele>
        <time>2022-12-07T13:18:53Z</time>
      </trkpt>
      <trkpt lat="49.83233" lon="2.51726">
        <ele>67.5</ele>
        <time>2022-12-07T13:18:54Z</time>
      </trkpt>
      <trkpt lat="49.83234" lon="2.51725">
        <ele>67.5</ele>
        <time>2022-12-07T13:18:55Z</time>
      </trkpt>
      <trkpt lat="49.83235" lon="2.51725">
        <ele>67.4</ele>
        <time>2022-12-07T13:18:56Z</time>
      </trkpt>
      <trkpt lat="49.83236" lon="2.51724">
        <ele>67.4</ele>
        <time>2022-12-07T13:18:57Z</time>
      </trkpt>
      <trkpt lat="49.83237" lon="2.51723">
        <ele>67.3</ele>
        <time>2022-12-07T13:18:58Z</time>
      </trkpt>
      <trkpt lat="49.83238" lon="2.51723">
        <ele>67.3</ele>
        <time>2022-12-07T13:18:59Z</time>
      </trkpt>
      <trkpt lat="49.83239" lon="2.51722">
        <ele>67.2</ele>
        <time>2022-12-07T13:19:00Z</time>
      </trkpt>
      <trkpt lat="49.8324" lon="2.51721">
        <ele>67.2</ele>
        <time>2022-12-07T13:19:01Z</time>
      </trkpt>
      <trkpt lat="49.83242" lon="2.5172">
        <ele>67.1</ele>
        <time>2022-12-07T13:19:02Z</time>
      </trkpt>
      <trkpt lat="49.83244" lon="2.5172">
        <ele>67.1</ele>
        <time>2022-12-07T13:19:03Z</time>
      </trkpt>
      <trkpt lat="49.83245" lon="2.51719">
        <ele>67.1</ele>
        <time>2022-12-07T13:19:04Z</time>
      </trkpt>
      <trkpt lat="49.83247" lon="2.51718">
        <ele>67</ele>
        <time>2022-12-07T13:19:05Z</time>
      </trkpt>
      <trkpt lat="49.83248" lon="2.51717">
        <ele>67</ele>
        <time>2022-12-07T13:19:06Z</time>
      </trkpt>
      <trkpt lat="49.83249" lon="2.51717">
        <ele>67</ele>
        <time>2022-12-07T13:19:07Z</time>
      </trkpt>
      <trkpt lat="49.83251" lon="2.51716">
        <ele>66.9</ele>
        <time>2022-12-07T13:19:08Z</time>
      </trkpt>
      <trkpt lat="49.83252" lon="2.51715">
        <ele>66.9</ele>
        <time>2022-12-07T13:19:09Z</time>
      </trkpt>
      <trkpt lat="49.83253" lon="2.51715">
        <ele>66.9</ele>
        <time>2022-12-07T13:19:10Z</time>
      </trkpt>
      <trkpt lat="49.83255" lon="2.51713">
        <ele>66.9</ele>
        <time>2022-12-07T13:19:11Z</time>
      </trkpt>
      <trkpt lat="49.83256" lon="2.51712">
        <ele>66.9</ele>
        <time>2022-12-07T13:19:12Z</time>
      </trkpt>
      <trkpt lat="49.83256" lon="2.51712">
        <ele>66.9</ele>
        <time>2022-12-07T13:19:13Z</time>
      </trkpt>
      <trkpt lat="49.83258" lon="2.51711">
        <ele>66.8</ele>
        <time>2022-12-07T13:19:14Z</time>
      </trkpt>
      <trkpt lat="49.83259" lon="2.5171">
        <ele>66.8</ele>
        <time>2022-12-07T13:19:15Z</time>
      </trkpt>
      <trkpt lat="49.8326" lon="2.51709">
        <ele>66.8</ele>
        <time>2022-12-07T13:19:16Z</time>
      </trkpt>
      <trkpt lat="49.83261" lon="2.51708">
        <ele>66.8</ele>
        <time>2022-12-07T13:19:17Z</time>
      </trkpt>
      <trkpt lat="49.83262" lon="2.51706">
        <ele>66.8</ele>
        <time>2022-12-07T13:19:18Z</time>
      </trkpt>
      <trkpt lat="49.83263" lon="2.51705">
        <ele>66.8</ele>
        <time>2022-12-07T13:19:19Z</time>
      </trkpt>
      <trkpt lat="49.83263" lon="2.51704">
        <ele>66.8</ele>
        <time>2022-12-07T13:19:20Z</time>
      </trkpt>
      <trkpt lat="49.83264" lon="2.51703">
        <ele>66.8</ele>
        <time>2022-12-07T13:19:21Z</time>
      </trkpt>
      <trkpt lat="49.83265" lon="2.51702">
        <ele>66.8</ele>
        <time>2022-12-07T13:19:22Z</time>
      </trkpt>
      <trkpt lat="49.83265" lon="2.51701">
        <ele>66.8</ele>
        <time>2022-12-07T13:19:23Z</time>
      </trkpt>
      <trkpt lat="49.83266" lon="2.51699">
        <ele>66.8</ele>
        <time>2022-12-07T13:19:24Z</time>
      </trkpt>
      <trkpt lat="49.83267" lon="2.51698">
        <ele>66.8</ele>
        <time>2022-12-07T13:19:25Z</time>
      </trkpt>
      <trkpt lat="49.83268" lon="2.51697">
        <ele>66.8</ele>
        <time>2022-12-07T13:19:26Z</time>
      </trkpt>
      <trkpt lat="49.83268" lon="2.51695">
        <ele>66.8</ele>
        <time>2022-12-07T13:19:27Z</time>
      </trkpt>
      <trkpt lat="49.83269" lon="2.51693">
        <ele>66.9</ele>
        <time>2022-12-07T13:19:28Z</time>
      </trkpt>
      <trkpt lat="49.8327" lon="2.51692">
        <ele>66.9</ele>
        <time>2022-12-07T13:19:29Z</time>
      </trkpt>
      <trkpt lat="49.8327" lon="2.51691">
        <ele>66.9</ele>
        <time>2022-12-07T13:19:30Z</time>
      </trkpt>
      <trkpt lat="49.83271" lon="2.51689">
        <ele>66.9</ele>
        <time>2022-12-07T13:19:31Z</time>
      </trkpt>
      <trkpt lat="49.83272" lon="2.51688">
        <ele>66.9</ele>
        <time>2022-12-07T13:19:32Z</time>
      </trkpt>
      <trkpt lat="49.83272" lon="2.51686">
        <ele>67</ele>
        <time>2022-12-07T13:19:33Z</time>
      </trkpt>
      <trkpt lat="49.83273" lon="2.51685">
        <ele>67</ele>
        <time>2022-12-07T13:19:34Z</time>
      </trkpt>
      <trkpt lat="49.83273" lon="2.51683">
        <ele>67</ele>
        <time>2022-12-07T13:19:35Z</time>
      </trkpt>
      <trkpt lat="49.83273" lon="2.51682">
        <ele>67.1</ele>
        <time>2022-12-07T13:19:36Z</time>
      </trkpt>
      <trkpt lat="49.83273" lon="2.51681">
        <ele>67.1</ele>
        <time>2022-12-07T13:19:37Z</time>
      </trkpt>
      <trkpt lat="49.83273" lon="2.51679">
        <ele>67.1</ele>
        <time>2022-12-07T13:19:38Z</time>
      </trkpt>
      <trkpt lat="49.83274" lon="2.51677">
        <ele>67.2</ele>
        <time>2022-12-07T13:19:39Z</time>
      </trkpt>
      <trkpt lat="49.83274" lon="2.51675">
        <ele>67.2</ele>
        <time>2022-12-07T13:19:40Z</time>
      </trkpt>
      <trkpt lat="49.83274" lon="2.51674">
        <ele>67.3</ele>
        <time>2022-12-07T13:19:41Z</time>
      </trkpt>
      <trkpt lat="49.83275" lon="2.51672">
        <ele>67.3</ele>
        <time>2022-12-07T13:19:42Z</time>
      </trkpt>
      <trkpt lat="49.83276" lon="2.51671">
        <ele>67.4</ele>
        <time>2022-12-07T13:19:43Z</time>
      </trkpt>
      <trkpt lat="49.83276" lon="2.5167">
        <ele>67.4</ele>
        <time>2022-12-07T13:19:44Z</time>
      </trkpt>
      <trkpt lat="49.83277" lon="2.51668">
        <ele>67.5</ele>
        <time>2022-12-07T13:19:45Z</time>
      </trkpt>
      <trkpt lat="49.83279" lon="2.51666">
        <ele>67.6</ele>
        <time>2022-12-07T13:19:46Z</time>
      </trkpt>
      <trkpt lat="49.83279" lon="2.51665">
        <ele>67.6</ele>
        <time>2022-12-07T13:19:47Z</time>
      </trkpt>
      <trkpt lat="49.8328" lon="2.51664">
        <ele>67.6</ele>
        <time>2022-12-07T13:19:48Z</time>
      </trkpt>
      <trkpt lat="49.83281" lon="2.51663">
        <ele>67.7</ele>
        <time>2022-12-07T13:19:49Z</time>
      </trkpt>
      <trkpt lat="49.83282" lon="2.51662">
        <ele>67.8</ele>
        <time>2022-12-07T13:19:50Z</time>
      </trkpt>
      <trkpt lat="49.83283" lon="2.51661">
        <ele>67.8</ele>
        <time>2022-12-07T13:19:51Z</time>
      </trkpt>
      <trkpt lat="49.83284" lon="2.51659">
        <ele>67.9</ele>
        <time>2022-12-07T13:19:52Z</time>
      </trkpt>
      <trkpt lat="49.83285" lon="2.51658">
        <ele>68</ele>
        <time>2022-12-07T13:19:53Z</time>
      </trkpt>
      <trkpt lat="49.83286" lon="2.51657">
        <ele>68</ele>
        <time>2022-12-07T13:19:54Z</time>
      </trkpt>
      <trkpt lat="49.83288" lon="2.51656">
        <ele>68.2</ele>
        <time>2022-12-07T13:19:55Z</time>
      </trkpt>
      <trkpt lat="49.83289" lon="2.51655">
        <ele>68.3</ele>
        <time>2022-12-07T13:19:56Z</time>
      </trkpt>
      <trkpt lat="49.8329" lon="2.51655">
        <ele>68.3</ele>
        <time>2022-12-07T13:19:57Z</time>
      </trkpt>
      <trkpt lat="49.83291" lon="2.51654">
        <ele>68.4</ele>
        <time>2022-12-07T13:19:58Z</time>
      </trkpt>
      <trkpt lat="49.83292" lon="2.51653">
        <ele>68.5</ele>
        <time>2022-12-07T13:19:59Z</time>
      </trkpt>
      <trkpt lat="49.83294" lon="2.51653">
        <ele>68.6</ele>
        <time>2022-12-07T13:20:00Z</time>
      </trkpt>
      <trkpt lat="49.83295" lon="2.51653">
        <ele>68.7</ele>
        <time>2022-12-07T13:20:01Z</time>
      </trkpt>
      <trkpt lat="49.83296" lon="2.51654">
        <ele>68.8</ele>
        <time>2022-12-07T13:20:02Z</time>
      </trkpt>
      <trkpt lat="49.83297" lon="2.51654">
        <ele>68.9</ele>
        <time>2022-12-07T13:20:03Z</time>
      </trkpt>
      <trkpt lat="49.83298" lon="2.51655">
        <ele>69</ele>
        <time>2022-12-07T13:20:04Z</time>
      </trkpt>
      <trkpt lat="49.83299" lon="2.51655">
        <ele>69.1</ele>
        <time>2022-12-07T13:20:05Z</time>
      </trkpt>
      <trkpt lat="49.833" lon="2.51655">
        <ele>69.2</ele>
        <time>2022-12-07T13:20:06Z</time>
      </trkpt>
      <trkpt lat="49.83301" lon="2.51655">
        <ele>69.3</ele>
        <time>2022-12-07T13:20:07Z</time>
      </trkpt>
      <trkpt lat="49.83302" lon="2.51656">
        <ele>69.3</ele>
        <time>2022-12-07T13:20:08Z</time>
      </trkpt>
      <trkpt lat="49.83303" lon="2.51656">
        <ele>69.4</ele>
        <time>2022-12-07T13:20:09Z</time>
      </trkpt>
      <trkpt lat="49.83304" lon="2.51656">
        <ele>69.5</ele>
        <time>2022-12-07T13:20:10Z</time>
      </trkpt>
      <trkpt lat="49.83305" lon="2.51656">
        <ele>69.5</ele>
        <time>2022-12-07T13:20:11Z</time>
      </trkpt>
      <trkpt lat="49.83306" lon="2.51656">
        <ele>69.6</ele>
        <time>2022-12-07T13:20:12Z</time>
      </trkpt>
      <trkpt lat="49.83307" lon="2.51656">
        <ele>69.7</ele>
        <time>2022-12-07T13:20:13Z</time>
      </trkpt>
      <trkpt lat="49.83308" lon="2.51657">
        <ele>69.8</ele>
        <time>2022-12-07T13:20:14Z</time>
      </trkpt>
      <trkpt lat="49.83309" lon="2.51657">
        <ele>69.8</ele>
        <time>2022-12-07T13:20:15Z</time>
      </trkpt>
      <trkpt lat="49.83309" lon="2.51658">
        <ele>69.9</ele>
        <time>2022-12-07T13:20:16Z</time>
      </trkpt>
      <trkpt lat="49.8331" lon="2.51658">
        <ele>70</ele>
        <time>2022-12-07T13:20:17Z</time>
      </trkpt>
      <trkpt lat="49.83311" lon="2.51659">
        <ele>70.1</ele>
        <time>2022-12-07T13:20:18Z</time>
      </trkpt>
      <trkpt lat="49.83312" lon="2.5166">
        <ele>70.2</ele>
        <time>2022-12-07T13:20:19Z</time>
      </trkpt>
      <trkpt lat="49.83313" lon="2.51661">
        <ele>70.3</ele>
        <time>2022-12-07T13:20:20Z</time>
      </trkpt>
      <trkpt lat="49.83314" lon="2.51662">
        <ele>70.4</ele>
        <time>2022-12-07T13:20:21Z</time>
      </trkpt>
      <trkpt lat="49.83314" lon="2.51663">
        <ele>70.5</ele>
        <time>2022-12-07T13:20:22Z</time>
      </trkpt>
      <trkpt lat="49.83315" lon="2.51664">
        <ele>70.5</ele>
        <time>2022-12-07T13:20:23Z</time>
      </trkpt>
      <trkpt lat="49.83315" lon="2.51665">
        <ele>70.6</ele>
        <time>2022-12-07T13:20:24Z</time>
      </trkpt>
      <trkpt lat="49.83316" lon="2.51667">
        <ele>70.7</ele>
        <time>2022-12-07T13:20:25Z</time>
      </trkpt>
      <trkpt lat="49.83317" lon="2.51668">
        <ele>70.8</ele>
        <time>2022-12-07T13:20:26Z</time>
      </trkpt>
      <trkpt lat="49.83318" lon="2.51668">
        <ele>70.9</ele>
        <time>2022-12-07T13:20:27Z</time>
      </trkpt>
      <trkpt lat="49.83318" lon="2.51669">
        <ele>71</ele>
        <time>2022-12-07T13:20:28Z</time>
      </trkpt>
      <trkpt lat="49.83319" lon="2.5167">
        <ele>71</ele>
        <time>2022-12-07T13:20:29Z</time>
      </trkpt>
      <trkpt lat="49.8332" lon="2.51671">
        <ele>71.1</ele>
        <time>2022-12-07T13:20:30Z</time>
      </trkpt>
      <trkpt lat="49.83321" lon="2.51673">
        <ele>71.3</ele>
        <time>2022-12-07T13:20:31Z</time>
      </trkpt>
      <trkpt lat="49.83321" lon="2.51674">
        <ele>71.3</ele>
        <time>2022-12-07T13:20:32Z</time>
      </trkpt>
      <trkpt lat="49.83322" lon="2.51675">
        <ele>71.4</ele>
        <time>2022-12-07T13:20:33Z</time>
      </trkpt>
      <trkpt lat="49.83322" lon="2.51676">
        <ele>71.5</ele>
        <time>2022-12-07T13:20:34Z</time>
      </trkpt>
      <trkpt lat="49.83323" lon="2.51676">
        <ele>71.5</ele>
        <time>2022-12-07T13:20:35Z</time>
      </trkpt>
      <trkpt lat="49.83323" lon="2.51677">
        <ele>71.6</ele>
        <time>2022-12-07T13:20:36Z</time>
      </trkpt>
      <trkpt lat="49.83324" lon="2.51678">
        <ele>71.7</ele>
        <time>2022-12-07T13:20:37Z</time>
      </trkpt>
      <trkpt lat="49.83325" lon="2.51679">
        <ele>71.8</ele>
        <time>2022-12-07T13:20:38Z</time>
      </trkpt>
      <trkpt lat="49.83326" lon="2.5168">
        <ele>71.8</ele>
        <time>2022-12-07T13:20:39Z</time>
      </trkpt>
      <trkpt lat="49.83327" lon="2.51681">
        <ele>71.9</ele>
        <time>2022-12-07T13:20:40Z</time>
      </trkpt>
      <trkpt lat="49.83327" lon="2.51681">
        <ele>72</ele>
        <time>2022-12-07T13:20:41Z</time>
      </trkpt>
      <trkpt lat="49.83329" lon="2.51683">
        <ele>72.1</ele>
        <time>2022-12-07T13:20:42Z</time>
      </trkpt>
      <trkpt lat="49.83329" lon="2.51683">
        <ele>72.2</ele>
        <time>2022-12-07T13:20:43Z</time>
      </trkpt>
      <trkpt lat="49.8333" lon="2.51684">
        <ele>72.2</ele>
        <time>2022-12-07T13:20:44Z</time>
      </trkpt>
      <trkpt lat="49.8333" lon="2.51685">
        <ele>72.3</ele>
        <time>2022-12-07T13:20:45Z</time>
      </trkpt>
      <trkpt lat="49.83331" lon="2.51686">
        <ele>72.3</ele>
        <time>2022-12-07T13:20:46Z</time>
      </trkpt>
      <trkpt lat="49.83332" lon="2.51686">
        <ele>72.4</ele>
        <time>2022-12-07T13:20:47Z</time>
      </trkpt>
      <trkpt lat="49.83332" lon="2.51687">
        <ele>72.5</ele>
        <time>2022-12-07T13:20:48Z</time>
      </trkpt>
      <trkpt lat="49.83334" lon="2.51689">
        <ele>72.6</ele>
        <time>2022-12-07T13:20:49Z</time>
      </trkpt>
      <trkpt lat="49.83334" lon="2.51689">
        <ele>72.7</ele>
        <time>2022-12-07T13:20:50Z</time>
      </trkpt>
      <trkpt lat="49.83335" lon="2.5169">
        <ele>72.7</ele>
        <time>2022-12-07T13:20:51Z</time>
      </trkpt>
      <trkpt lat="49.83335" lon="2.5169">
        <ele>72.8</ele>
        <time>2022-12-07T13:20:52Z</time>
      </trkpt>
      <trkpt lat="49.83336" lon="2.51691">
        <ele>72.8</ele>
        <time>2022-12-07T13:20:53Z</time>
      </trkpt>
      <trkpt lat="49.83337" lon="2.51692">
        <ele>72.9</ele>
        <time>2022-12-07T13:20:54Z</time>
      </trkpt>
      <trkpt lat="49.83338" lon="2.51692">
        <ele>73</ele>
        <time>2022-12-07T13:20:55Z</time>
      </trkpt>
      <trkpt lat="49.83338" lon="2.51693">
        <ele>73</ele>
        <time>2022-12-07T13:20:56Z</time>
      </trkpt>
      <trkpt lat="49.8334" lon="2.51695">
        <ele>73.2</ele>
        <time>2022-12-07T13:20:57Z</time>
      </trkpt>
      <trkpt lat="49.8334" lon="2.51696">
        <ele>73.2</ele>
        <time>2022-12-07T13:20:58Z</time>
      </trkpt>
      <trkpt lat="49.83341" lon="2.51696">
        <ele>73.3</ele>
        <time>2022-12-07T13:20:59Z</time>
      </trkpt>
      <trkpt lat="49.83341" lon="2.51697">
        <ele>73.3</ele>
        <time>2022-12-07T13:21:00Z</time>
      </trkpt>
      <trkpt lat="49.83342" lon="2.51698">
        <ele>73.4</ele>
        <time>2022-12-07T13:21:01Z</time>
      </trkpt>
      <trkpt lat="49.83343" lon="2.51699">
        <ele>73.4</ele>
        <time>2022-12-07T13:21:02Z</time>
      </trkpt>
      <trkpt lat="49.83343" lon="2.517">
        <ele>73.5</ele>
        <time>2022-12-07T13:21:03Z</time>
      </trkpt>
      <trkpt lat="49.83344" lon="2.51701">
        <ele>73.6</ele>
        <time>2022-12-07T13:21:04Z</time>
      </trkpt>
      <trkpt lat="49.83344" lon="2.51701">
        <ele>73.6</ele>
        <time>2022-12-07T13:21:05Z</time>
      </trkpt>
      <trkpt lat="49.83345" lon="2.51702">
        <ele>73.7</ele>
        <time>2022-12-07T13:21:06Z</time>
      </trkpt>
      <trkpt lat="49.83346" lon="2.51703">
        <ele>73.8</ele>
        <time>2022-12-07T13:21:07Z</time>
      </trkpt>
      <trkpt lat="49.83346" lon="2.51704">
        <ele>73.8</ele>
        <time>2022-12-07T13:21:08Z</time>
      </trkpt>
      <trkpt lat="49.83348" lon="2.51705">
        <ele>73.9</ele>
        <time>2022-12-07T13:21:09Z</time>
      </trkpt>
      <trkpt lat="49.83348" lon="2.51706">
        <ele>74</ele>
        <time>2022-12-07T13:21:10Z</time>
      </trkpt>
      <trkpt lat="49.83349" lon="2.51707">
        <ele>74</ele>
        <time>2022-12-07T13:21:11Z</time>
      </trkpt>
      <trkpt lat="49.83349" lon="2.51707">
        <ele>74.1</ele>
        <time>2022-12-07T13:21:12Z</time>
      </trkpt>
      <trkpt lat="49.83351" lon="2.51709">
        <ele>74.2</ele>
        <time>2022-12-07T13:21:13Z</time>
      </trkpt>
      <trkpt lat="49.83351" lon="2.51709">
        <ele>74.3</ele>
        <time>2022-12-07T13:21:14Z</time>
      </trkpt>
      <trkpt lat="49.83352" lon="2.5171">
        <ele>74.3</ele>
        <time>2022-12-07T13:21:15Z</time>
      </trkpt>
      <trkpt lat="49.83352" lon="2.51711">
        <ele>74.4</ele>
        <time>2022-12-07T13:21:16Z</time>
      </trkpt>
      <trkpt lat="49.83353" lon="2.51712">
        <ele>74.4</ele>
        <time>2022-12-07T13:21:17Z</time>
      </trkpt>
      <trkpt lat="49.83354" lon="2.51712">
        <ele>74.5</ele>
        <time>2022-12-07T13:21:18Z</time>
      </trkpt>
      <trkpt lat="49.83354" lon="2.51713">
        <ele>74.5</ele>
        <time>2022-12-07T13:21:19Z</time>
      </trkpt>
      <trkpt lat="49.83355" lon="2.51714">
        <ele>74.6</ele>
        <time>2022-12-07T13:21:20Z</time>
      </trkpt>
      <trkpt lat="49.83356" lon="2.51715">
        <ele>74.6</ele>
        <time>2022-12-07T13:21:21Z</time>
      </trkpt>
      <trkpt lat="49.83356" lon="2.51716">
        <ele>74.7</ele>
        <time>2022-12-07T13:21:22Z</time>
      </trkpt>
      <trkpt lat="49.83357" lon="2.51716">
        <ele>74.7</ele>
        <time>2022-12-07T13:21:23Z</time>
      </trkpt>
      <trkpt lat="49.83358" lon="2.51717">
        <ele>74.8</ele>
        <time>2022-12-07T13:21:24Z</time>
      </trkpt>
      <trkpt lat="49.83358" lon="2.51718">
        <ele>74.9</ele>
        <time>2022-12-07T13:21:25Z</time>
      </trkpt>
      <trkpt lat="49.83359" lon="2.51719">
        <ele>74.9</ele>
        <time>2022-12-07T13:21:26Z</time>
      </trkpt>
      <trkpt lat="49.8336" lon="2.5172">
        <ele>75</ele>
        <time>2022-12-07T13:21:27Z</time>
      </trkpt>
      <trkpt lat="49.8336" lon="2.51721">
        <ele>75.1</ele>
        <time>2022-12-07T13:21:28Z</time>
      </trkpt>
      <trkpt lat="49.83361" lon="2.51722">
        <ele>75.1</ele>
        <time>2022-12-07T13:21:29Z</time>
      </trkpt>
      <trkpt lat="49.83362" lon="2.51723">
        <ele>75.2</ele>
        <time>2022-12-07T13:21:30Z</time>
      </trkpt>
      <trkpt lat="49.83363" lon="2.51723">
        <ele>75.2</ele>
        <time>2022-12-07T13:21:31Z</time>
      </trkpt>
      <trkpt lat="49.83363" lon="2.51724">
        <ele>75.3</ele>
        <time>2022-12-07T13:21:32Z</time>
      </trkpt>
      <trkpt lat="49.83364" lon="2.51725">
        <ele>75.4</ele>
        <time>2022-12-07T13:21:33Z</time>
      </trkpt>
      <trkpt lat="49.83365" lon="2.51726">
        <ele>75.4</ele>
        <time>2022-12-07T13:21:34Z</time>
      </trkpt>
      <trkpt lat="49.83366" lon="2.51727">
        <ele>75.5</ele>
        <time>2022-12-07T13:21:35Z</time>
      </trkpt>
      <trkpt lat="49.83366" lon="2.51728">
        <ele>75.5</ele>
        <time>2022-12-07T13:21:36Z</time>
      </trkpt>
      <trkpt lat="49.83367" lon="2.5173">
        <ele>75.6</ele>
        <time>2022-12-07T13:21:37Z</time>
      </trkpt>
      <trkpt lat="49.83368" lon="2.5173">
        <ele>75.7</ele>
        <time>2022-12-07T13:21:38Z</time>
      </trkpt>
      <trkpt lat="49.83368" lon="2.51731">
        <ele>75.7</ele>
        <time>2022-12-07T13:21:39Z</time>
      </trkpt>
      <trkpt lat="49.83369" lon="2.51732">
        <ele>75.8</ele>
        <time>2022-12-07T13:21:40Z</time>
      </trkpt>
      <trkpt lat="49.83369" lon="2.51733">
        <ele>75.8</ele>
        <time>2022-12-07T13:21:41Z</time>
      </trkpt>
      <trkpt lat="49.8337" lon="2.51734">
        <ele>75.9</ele>
        <time>2022-12-07T13:21:42Z</time>
      </trkpt>
      <trkpt lat="49.8337" lon="2.51734">
        <ele>75.9</ele>
        <time>2022-12-07T13:21:43Z</time>
      </trkpt>
      <trkpt lat="49.83371" lon="2.51735">
        <ele>76</ele>
        <time>2022-12-07T13:21:44Z</time>
      </trkpt>
      <trkpt lat="49.83371" lon="2.51736">
        <ele>76</ele>
        <time>2022-12-07T13:21:45Z</time>
      </trkpt>
      <trkpt lat="49.83372" lon="2.51737">
        <ele>76</ele>
        <time>2022-12-07T13:21:46Z</time>
      </trkpt>
      <trkpt lat="49.83373" lon="2.51738">
        <ele>76.1</ele>
        <time>2022-12-07T13:21:47Z</time>
      </trkpt>
      <trkpt lat="49.83373" lon="2.51738">
        <ele>76.1</ele>
        <time>2022-12-07T13:21:48Z</time>
      </trkpt>
      <trkpt lat="49.83374" lon="2.51739">
        <ele>76.2</ele>
        <time>2022-12-07T13:21:49Z</time>
      </trkpt>
      <trkpt lat="49.83374" lon="2.5174">
        <ele>76.2</ele>
        <time>2022-12-07T13:21:50Z</time>
      </trkpt>
      <trkpt lat="49.83375" lon="2.51741">
        <ele>76.3</ele>
        <time>2022-12-07T13:21:51Z</time>
      </trkpt>
      <trkpt lat="49.83375" lon="2.51742">
        <ele>76.3</ele>
        <time>2022-12-07T13:21:52Z</time>
      </trkpt>
      <trkpt lat="49.83376" lon="2.51742">
        <ele>76.4</ele>
        <time>2022-12-07T13:21:53Z</time>
      </trkpt>
      <trkpt lat="49.83377" lon="2.51744">
        <ele>76.4</ele>
        <time>2022-12-07T13:21:54Z</time>
      </trkpt>
      <trkpt lat="49.83377" lon="2.51744">
        <ele>76.5</ele>
        <time>2022-12-07T13:21:55Z</time>
      </trkpt>
      <trkpt lat="49.83378" lon="2.51745">
        <ele>76.5</ele>
        <time>2022-12-07T13:21:56Z</time>
      </trkpt>
      <trkpt lat="49.83379" lon="2.51746">
        <ele>76.6</ele>
        <time>2022-12-07T13:21:57Z</time>
      </trkpt>
      <trkpt lat="49.83379" lon="2.51747">
        <ele>76.6</ele>
        <time>2022-12-07T13:21:58Z</time>
      </trkpt>
      <trkpt lat="49.8338" lon="2.51748">
        <ele>76.7</ele>
        <time>2022-12-07T13:21:59Z</time>
      </trkpt>
      <trkpt lat="49.83381" lon="2.51749">
        <ele>76.7</ele>
        <time>2022-12-07T13:22:00Z</time>
      </trkpt>
      <trkpt lat="49.83382" lon="2.5175">
        <ele>76.8</ele>
        <time>2022-12-07T13:22:01Z</time>
      </trkpt>
      <trkpt lat="49.83382" lon="2.51751">
        <ele>76.8</ele>
        <time>2022-12-07T13:22:02Z</time>
      </trkpt>
      <trkpt lat="49.83383" lon="2.51752">
        <ele>76.9</ele>
        <time>2022-12-07T13:22:03Z</time>
      </trkpt>
      <trkpt lat="49.83384" lon="2.51752">
        <ele>76.9</ele>
        <time>2022-12-07T13:22:04Z</time>
      </trkpt>
      <trkpt lat="49.83385" lon="2.51753">
        <ele>77</ele>
        <time>2022-12-07T13:22:05Z</time>
      </trkpt>
      <trkpt lat="49.83386" lon="2.51754">
        <ele>77.1</ele>
        <time>2022-12-07T13:22:06Z</time>
      </trkpt>
      <trkpt lat="49.83387" lon="2.51755">
        <ele>77.1</ele>
        <time>2022-12-07T13:22:07Z</time>
      </trkpt>
      <trkpt lat="49.83388" lon="2.51756">
        <ele>77.2</ele>
        <time>2022-12-07T13:22:08Z</time>
      </trkpt>
      <trkpt lat="49.83389" lon="2.51757">
        <ele>77.2</ele>
        <time>2022-12-07T13:22:09Z</time>
      </trkpt>
      <trkpt lat="49.8339" lon="2.51758">
        <ele>77.3</ele>
        <time>2022-12-07T13:22:10Z</time>
      </trkpt>
      <trkpt lat="49.83391" lon="2.51759">
        <ele>77.3</ele>
        <time>2022-12-07T13:22:11Z</time>
      </trkpt>
      <trkpt lat="49.83392" lon="2.51759">
        <ele>77.4</ele>
        <time>2022-12-07T13:22:12Z</time>
      </trkpt>
      <trkpt lat="49.83393" lon="2.5176">
        <ele>77.5</ele>
        <time>2022-12-07T13:22:13Z</time>
      </trkpt>
      <trkpt lat="49.83394" lon="2.51761">
        <ele>77.5</ele>
        <time>2022-12-07T13:22:14Z</time>
      </trkpt>
      <trkpt lat="49.83395" lon="2.51762">
        <ele>77.6</ele>
        <time>2022-12-07T13:22:15Z</time>
      </trkpt>
      <trkpt lat="49.83396" lon="2.51763">
        <ele>77.6</ele>
        <time>2022-12-07T13:22:16Z</time>
      </trkpt>
      <trkpt lat="49.83397" lon="2.51764">
        <ele>77.7</ele>
        <time>2022-12-07T13:22:17Z</time>
      </trkpt>
      <trkpt lat="49.83398" lon="2.51764">
        <ele>77.7</ele>
        <time>2022-12-07T13:22:18Z</time>
      </trkpt>
      <trkpt lat="49.83398" lon="2.51765">
        <ele>77.7</ele>
        <time>2022-12-07T13:22:19Z</time>
      </trkpt>
      <trkpt lat="49.83399" lon="2.51766">
        <ele>77.8</ele>
        <time>2022-12-07T13:22:20Z</time>
      </trkpt>
      <trkpt lat="49.834" lon="2.51767">
        <ele>77.8</ele>
        <time>2022-12-07T13:22:21Z</time>
      </trkpt>
      <trkpt lat="49.83401" lon="2.51768">
        <ele>77.9</ele>
        <time>2022-12-07T13:22:22Z</time>
      </trkpt>
      <trkpt lat="49.83402" lon="2.51768">
        <ele>77.9</ele>
        <time>2022-12-07T13:22:23Z</time>
      </trkpt>
      <trkpt lat="49.83403" lon="2.51769">
        <ele>78</ele>
        <time>2022-12-07T13:22:24Z</time>
      </trkpt>
      <trkpt lat="49.83404" lon="2.5177">
        <ele>78</ele>
        <time>2022-12-07T13:22:25Z</time>
      </trkpt>
      <trkpt lat="49.83404" lon="2.51771">
        <ele>78.1</ele>
        <time>2022-12-07T13:22:26Z</time>
      </trkpt>
      <trkpt lat="49.83405" lon="2.51772">
        <ele>78.1</ele>
        <time>2022-12-07T13:22:27Z</time>
      </trkpt>
      <trkpt lat="49.83406" lon="2.51773">
        <ele>78.2</ele>
        <time>2022-12-07T13:22:28Z</time>
      </trkpt>
      <trkpt lat="49.83407" lon="2.51774">
        <ele>78.2</ele>
        <time>2022-12-07T13:22:29Z</time>
      </trkpt>
      <trkpt lat="49.83407" lon="2.51774">
        <ele>78.2</ele>
        <time>2022-12-07T13:22:30Z</time>
      </trkpt>
      <trkpt lat="49.83408" lon="2.51775">
        <ele>78.3</ele>
        <time>2022-12-07T13:22:31Z</time>
      </trkpt>
      <trkpt lat="49.83409" lon="2.51776">
        <ele>78.3</ele>
        <time>2022-12-07T13:22:32Z</time>
      </trkpt>
      <trkpt lat="49.8341" lon="2.51776">
        <ele>78.4</ele>
        <time>2022-12-07T13:22:33Z</time>
      </trkpt>
      <trkpt lat="49.83411" lon="2.51777">
        <ele>78.4</ele>
        <time>2022-12-07T13:22:34Z</time>
      </trkpt>
      <trkpt lat="49.83412" lon="2.51778">
        <ele>78.5</ele>
        <time>2022-12-07T13:22:35Z</time>
      </trkpt>
      <trkpt lat="49.83412" lon="2.51779">
        <ele>78.5</ele>
        <time>2022-12-07T13:22:36Z</time>
      </trkpt>
      <trkpt lat="49.83413" lon="2.51779">
        <ele>78.5</ele>
        <time>2022-12-07T13:22:37Z</time>
      </trkpt>
      <trkpt lat="49.83414" lon="2.5178">
        <ele>78.6</ele>
        <time>2022-12-07T13:22:38Z</time>
      </trkpt>
      <trkpt lat="49.83414" lon="2.51781">
        <ele>78.6</ele>
        <time>2022-12-07T13:22:39Z</time>
      </trkpt>
      <trkpt lat="49.83415" lon="2.51782">
        <ele>78.7</ele>
        <time>2022-12-07T13:22:40Z</time>
      </trkpt>
      <trkpt lat="49.83416" lon="2.51783">
        <ele>78.7</ele>
        <time>2022-12-07T13:22:41Z</time>
      </trkpt>
      <trkpt lat="49.83416" lon="2.51783">
        <ele>78.7</ele>
        <time>2022-12-07T13:22:42Z</time>
      </trkpt>
      <trkpt lat="49.83417" lon="2.51784">
        <ele>78.8</ele>
        <time>2022-12-07T13:22:43Z</time>
      </trkpt>
      <trkpt lat="49.83417" lon="2.51785">
        <ele>78.8</ele>
        <time>2022-12-07T13:22:44Z</time>
      </trkpt>
      <trkpt lat="49.83418" lon="2.51786">
        <ele>78.9</ele>
        <time>2022-12-07T13:22:45Z</time>
      </trkpt>
      <trkpt lat="49.83419" lon="2.51787">
        <ele>78.9</ele>
        <time>2022-12-07T13:22:46Z</time>
      </trkpt>
      <trkpt lat="49.83419" lon="2.51788">
        <ele>78.9</ele>
        <time>2022-12-07T13:22:47Z</time>
      </trkpt>
      <trkpt lat="49.8342" lon="2.51789">
        <ele>79</ele>
        <time>2022-12-07T13:22:48Z</time>
      </trkpt>
      <trkpt lat="49.8342" lon="2.5179">
        <ele>79</ele>
        <time>2022-12-07T13:22:49Z</time>
      </trkpt>
      <trkpt lat="49.83421" lon="2.51791">
        <ele>79.1</ele>
        <time>2022-12-07T13:22:50Z</time>
      </trkpt>
      <trkpt lat="49.83422" lon="2.51792">
        <ele>79.1</ele>
        <time>2022-12-07T13:22:51Z</time>
      </trkpt>
      <trkpt lat="49.83423" lon="2.51793">
        <ele>79.2</ele>
        <time>2022-12-07T13:22:52Z</time>
      </trkpt>
      <trkpt lat="49.83423" lon="2.51794">
        <ele>79.2</ele>
        <time>2022-12-07T13:22:53Z</time>
      </trkpt>
      <trkpt lat="49.83424" lon="2.51795">
        <ele>79.3</ele>
        <time>2022-12-07T13:22:54Z</time>
      </trkpt>
      <trkpt lat="49.83425" lon="2.51796">
        <ele>79.3</ele>
        <time>2022-12-07T13:22:55Z</time>
      </trkpt>
      <trkpt lat="49.83425" lon="2.51796">
        <ele>79.3</ele>
        <time>2022-12-07T13:22:56Z</time>
      </trkpt>
      <trkpt lat="49.83426" lon="2.51797">
        <ele>79.4</ele>
        <time>2022-12-07T13:22:57Z</time>
      </trkpt>
      <trkpt lat="49.83427" lon="2.51799">
        <ele>79.4</ele>
        <time>2022-12-07T13:22:58Z</time>
      </trkpt>
      <trkpt lat="49.83427" lon="2.518">
        <ele>79.5</ele>
        <time>2022-12-07T13:22:59Z</time>
      </trkpt>
      <trkpt lat="49.83428" lon="2.51801">
        <ele>79.5</ele>
        <time>2022-12-07T13:23:00Z</time>
      </trkpt>
      <trkpt lat="49.83428" lon="2.51802">
        <ele>79.5</ele>
        <time>2022-12-07T13:23:01Z</time>
      </trkpt>
      <trkpt lat="49.83429" lon="2.51802">
        <ele>79.6</ele>
        <time>2022-12-07T13:23:02Z</time>
      </trkpt>
      <trkpt lat="49.83429" lon="2.51803">
        <ele>79.6</ele>
        <time>2022-12-07T13:23:03Z</time>
      </trkpt>
      <trkpt lat="49.8343" lon="2.51805">
        <ele>79.6</ele>
        <time>2022-12-07T13:23:04Z</time>
      </trkpt>
      <trkpt lat="49.83431" lon="2.51806">
        <ele>79.7</ele>
        <time>2022-12-07T13:23:05Z</time>
      </trkpt>
      <trkpt lat="49.83432" lon="2.51806">
        <ele>79.7</ele>
        <time>2022-12-07T13:23:06Z</time>
      </trkpt>
      <trkpt lat="49.83433" lon="2.51807">
        <ele>79.8</ele>
        <time>2022-12-07T13:23:07Z</time>
      </trkpt>
      <trkpt lat="49.83434" lon="2.51808">
        <ele>79.8</ele>
        <time>2022-12-07T13:23:08Z</time>
      </trkpt>
      <trkpt lat="49.83435" lon="2.51809">
        <ele>79.9</ele>
        <time>2022-12-07T13:23:09Z</time>
      </trkpt>
      <trkpt lat="49.83436" lon="2.5181">
        <ele>79.9</ele>
        <time>2022-12-07T13:23:10Z</time>
      </trkpt>
      <trkpt lat="49.83437" lon="2.51811">
        <ele>80</ele>
        <time>2022-12-07T13:23:11Z</time>
      </trkpt>
      <trkpt lat="49.83437" lon="2.51812">
        <ele>80</ele>
        <time>2022-12-07T13:23:12Z</time>
      </trkpt>
      <trkpt lat="49.83438" lon="2.51813">
        <ele>80</ele>
        <time>2022-12-07T13:23:13Z</time>
      </trkpt>
      <trkpt lat="49.83439" lon="2.51814">
        <ele>80.1</ele>
        <time>2022-12-07T13:23:14Z</time>
      </trkpt>
      <trkpt lat="49.8344" lon="2.51815">
        <ele>80.1</ele>
        <time>2022-12-07T13:23:15Z</time>
      </trkpt>
      <trkpt lat="49.83441" lon="2.51815">
        <ele>80.2</ele>
        <time>2022-12-07T13:23:16Z</time>
      </trkpt>
      <trkpt lat="49.83441" lon="2.51816">
        <ele>80.2</ele>
        <time>2022-12-07T13:23:17Z</time>
      </trkpt>
      <trkpt lat="49.83442" lon="2.51817">
        <ele>80.2</ele>
        <time>2022-12-07T13:23:18Z</time>
      </trkpt>
      <trkpt lat="49.83443" lon="2.51818">
        <ele>80.3</ele>
        <time>2022-12-07T13:23:19Z</time>
      </trkpt>
      <trkpt lat="49.83444" lon="2.51819">
        <ele>80.3</ele>
        <time>2022-12-07T13:23:20Z</time>
      </trkpt>
      <trkpt lat="49.83445" lon="2.51819">
        <ele>80.4</ele>
        <time>2022-12-07T13:23:21Z</time>
      </trkpt>
      <trkpt lat="49.83446" lon="2.5182">
        <ele>80.4</ele>
        <time>2022-12-07T13:23:22Z</time>
      </trkpt>
      <trkpt lat="49.83446" lon="2.5182">
        <ele>80.4</ele>
        <time>2022-12-07T13:23:23Z</time>
      </trkpt>
      <trkpt lat="49.83447" lon="2.51821">
        <ele>80.5</ele>
        <time>2022-12-07T13:23:24Z</time>
      </trkpt>
      <trkpt lat="49.83448" lon="2.51822">
        <ele>80.5</ele>
        <time>2022-12-07T13:23:25Z</time>
      </trkpt>
      <trkpt lat="49.83449" lon="2.51823">
        <ele>80.5</ele>
        <time>2022-12-07T13:23:26Z</time>
      </trkpt>
      <trkpt lat="49.8345" lon="2.51823">
        <ele>80.5</ele>
        <time>2022-12-07T13:23:27Z</time>
      </trkpt>
      <trkpt lat="49.83451" lon="2.51824">
        <ele>80.6</ele>
        <time>2022-12-07T13:23:28Z</time>
      </trkpt>
      <trkpt lat="49.83452" lon="2.51825">
        <ele>80.6</ele>
        <time>2022-12-07T13:23:29Z</time>
      </trkpt>
      <trkpt lat="49.83452" lon="2.51825">
        <ele>80.6</ele>
        <time>2022-12-07T13:23:30Z</time>
      </trkpt>
      <trkpt lat="49.83453" lon="2.51826">
        <ele>80.7</ele>
        <time>2022-12-07T13:23:31Z</time>
      </trkpt>
      <trkpt lat="49.83455" lon="2.51827">
        <ele>80.7</ele>
        <time>2022-12-07T13:23:32Z</time>
      </trkpt>
      <trkpt lat="49.83456" lon="2.51827">
        <ele>80.7</ele>
        <time>2022-12-07T13:23:33Z</time>
      </trkpt>
      <trkpt lat="49.83457" lon="2.51828">
        <ele>80.8</ele>
        <time>2022-12-07T13:23:34Z</time>
      </trkpt>
      <trkpt lat="49.83458" lon="2.51828">
        <ele>80.8</ele>
        <time>2022-12-07T13:23:35Z</time>
      </trkpt>
      <trkpt lat="49.83459" lon="2.51829">
        <ele>80.8</ele>
        <time>2022-12-07T13:23:36Z</time>
      </trkpt>
      <trkpt lat="49.8346" lon="2.51829">
        <ele>80.9</ele>
        <time>2022-12-07T13:23:37Z</time>
      </trkpt>
      <trkpt lat="49.83461" lon="2.5183">
        <ele>80.9</ele>
        <time>2022-12-07T13:23:38Z</time>
      </trkpt>
      <trkpt lat="49.83462" lon="2.5183">
        <ele>81</ele>
        <time>2022-12-07T13:23:39Z</time>
      </trkpt>
      <trkpt lat="49.83463" lon="2.51831">
        <ele>81</ele>
        <time>2022-12-07T13:23:40Z</time>
      </trkpt>
      <trkpt lat="49.83464" lon="2.51831">
        <ele>81</ele>
        <time>2022-12-07T13:23:41Z</time>
      </trkpt>
      <trkpt lat="49.83465" lon="2.51832">
        <ele>81.1</ele>
        <time>2022-12-07T13:23:42Z</time>
      </trkpt>
      <trkpt lat="49.83467" lon="2.51833">
        <ele>81.1</ele>
        <time>2022-12-07T13:23:43Z</time>
      </trkpt>
      <trkpt lat="49.83468" lon="2.51833">
        <ele>81.1</ele>
        <time>2022-12-07T13:23:44Z</time>
      </trkpt>
      <trkpt lat="49.83469" lon="2.51834">
        <ele>81.2</ele>
        <time>2022-12-07T13:23:45Z</time>
      </trkpt>
      <trkpt lat="49.8347" lon="2.51834">
        <ele>81.2</ele>
        <time>2022-12-07T13:23:46Z</time>
      </trkpt>
      <trkpt lat="49.83472" lon="2.51835">
        <ele>81.3</ele>
        <time>2022-12-07T13:23:47Z</time>
      </trkpt>
      <trkpt lat="49.83473" lon="2.51836">
        <ele>81.3</ele>
        <time>2022-12-07T13:23:48Z</time>
      </trkpt>
      <trkpt lat="49.83474" lon="2.51836">
        <ele>81.4</ele>
        <time>2022-12-07T13:23:49Z</time>
      </trkpt>
      <trkpt lat="49.83476" lon="2.51837">
        <ele>81.4</ele>
        <time>2022-12-07T13:23:50Z</time>
      </trkpt>
      <trkpt lat="49.83476" lon="2.51837">
        <ele>81.5</ele>
        <time>2022-12-07T13:23:51Z</time>
      </trkpt>
      <trkpt lat="49.83477" lon="2.51837">
        <ele>81.5</ele>
        <time>2022-12-07T13:23:52Z</time>
      </trkpt>
      <trkpt lat="49.83478" lon="2.51838">
        <ele>81.5</ele>
        <time>2022-12-07T13:23:53Z</time>
      </trkpt>
      <trkpt lat="49.83479" lon="2.51838">
        <ele>81.6</ele>
        <time>2022-12-07T13:23:54Z</time>
      </trkpt>
      <trkpt lat="49.8348" lon="2.51839">
        <ele>81.6</ele>
        <time>2022-12-07T13:23:55Z</time>
      </trkpt>
      <trkpt lat="49.83481" lon="2.51839">
        <ele>81.6</ele>
        <time>2022-12-07T13:23:56Z</time>
      </trkpt>
      <trkpt lat="49.83482" lon="2.5184">
        <ele>81.7</ele>
        <time>2022-12-07T13:23:57Z</time>
      </trkpt>
      <trkpt lat="49.83483" lon="2.5184">
        <ele>81.7</ele>
        <time>2022-12-07T13:23:58Z</time>
      </trkpt>
      <trkpt lat="49.83484" lon="2.51841">
        <ele>81.8</ele>
        <time>2022-12-07T13:23:59Z</time>
      </trkpt>
      <trkpt lat="49.83485" lon="2.51842">
        <ele>81.8</ele>
        <time>2022-12-07T13:24:00Z</time>
      </trkpt>
      <trkpt lat="49.83486" lon="2.51842">
        <ele>81.8</ele>
        <time>2022-12-07T13:24:01Z</time>
      </trkpt>
      <trkpt lat="49.83486" lon="2.51842">
        <ele>81.9</ele>
        <time>2022-12-07T13:24:02Z</time>
      </trkpt>
      <trkpt lat="49.83487" lon="2.51843">
        <ele>81.9</ele>
        <time>2022-12-07T13:24:03Z</time>
      </trkpt>
      <trkpt lat="49.83488" lon="2.51844">
        <ele>81.9</ele>
        <time>2022-12-07T13:24:04Z</time>
      </trkpt>
      <trkpt lat="49.83489" lon="2.51844">
        <ele>82</ele>
        <time>2022-12-07T13:24:05Z</time>
      </trkpt>
      <trkpt lat="49.83491" lon="2.51845">
        <ele>82</ele>
        <time>2022-12-07T13:24:06Z</time>
      </trkpt>
      <trkpt lat="49.83492" lon="2.51845">
        <ele>82.1</ele>
        <time>2022-12-07T13:24:07Z</time>
      </trkpt>
      <trkpt lat="49.83492" lon="2.51845">
        <ele>82.1</ele>
        <time>2022-12-07T13:24:08Z</time>
      </trkpt>
      <trkpt lat="49.83493" lon="2.51845">
        <ele>82.1</ele>
        <time>2022-12-07T13:24:09Z</time>
      </trkpt>
      <trkpt lat="49.83494" lon="2.51846">
        <ele>82.2</ele>
        <time>2022-12-07T13:24:10Z</time>
      </trkpt>
      <trkpt lat="49.83495" lon="2.51846">
        <ele>82.2</ele>
        <time>2022-12-07T13:24:11Z</time>
      </trkpt>
      <trkpt lat="49.83496" lon="2.51846">
        <ele>82.2</ele>
        <time>2022-12-07T13:24:12Z</time>
      </trkpt>
      <trkpt lat="49.83497" lon="2.51846">
        <ele>82.3</ele>
        <time>2022-12-07T13:24:13Z</time>
      </trkpt>
      <trkpt lat="49.83498" lon="2.51847">
        <ele>82.3</ele>
        <time>2022-12-07T13:24:14Z</time>
      </trkpt>
      <trkpt lat="49.835" lon="2.51848">
        <ele>82.4</ele>
        <time>2022-12-07T13:24:16Z</time>
      </trkpt>
      <trkpt lat="49.83501" lon="2.51849">
        <ele>82.4</ele>
        <time>2022-12-07T13:24:17Z</time>
      </trkpt>
      <trkpt lat="49.83502" lon="2.51849">
        <ele>82.5</ele>
        <time>2022-12-07T13:24:18Z</time>
      </trkpt>
      <trkpt lat="49.83503" lon="2.5185">
        <ele>82.5</ele>
        <time>2022-12-07T13:24:19Z</time>
      </trkpt>
      <trkpt lat="49.83504" lon="2.5185">
        <ele>82.5</ele>
        <time>2022-12-07T13:24:20Z</time>
      </trkpt>
      <trkpt lat="49.83504" lon="2.5185">
        <ele>82.6</ele>
        <time>2022-12-07T13:24:21Z</time>
      </trkpt>
      <trkpt lat="49.83505" lon="2.51851">
        <ele>82.6</ele>
        <time>2022-12-07T13:24:22Z</time>
      </trkpt>
      <trkpt lat="49.83506" lon="2.51851">
        <ele>82.6</ele>
        <time>2022-12-07T13:24:23Z</time>
      </trkpt>
      <trkpt lat="49.83507" lon="2.51851">
        <ele>82.7</ele>
        <time>2022-12-07T13:24:24Z</time>
      </trkpt>
      <trkpt lat="49.83508" lon="2.51851">
        <ele>82.7</ele>
        <time>2022-12-07T13:24:25Z</time>
      </trkpt>
      <trkpt lat="49.83509" lon="2.51851">
        <ele>82.7</ele>
        <time>2022-12-07T13:24:26Z</time>
      </trkpt>
      <trkpt lat="49.83511" lon="2.51851">
        <ele>82.8</ele>
        <time>2022-12-07T13:24:27Z</time>
      </trkpt>
      <trkpt lat="49.83512" lon="2.51851">
        <ele>82.8</ele>
        <time>2022-12-07T13:24:28Z</time>
      </trkpt>
      <trkpt lat="49.83513" lon="2.51852">
        <ele>82.8</ele>
        <time>2022-12-07T13:24:29Z</time>
      </trkpt>
      <trkpt lat="49.83513" lon="2.51852">
        <ele>82.8</ele>
        <time>2022-12-07T13:24:30Z</time>
      </trkpt>
      <trkpt lat="49.83514" lon="2.51852">
        <ele>82.9</ele>
        <time>2022-12-07T13:24:31Z</time>
      </trkpt>
      <trkpt lat="49.83515" lon="2.51852">
        <ele>82.9</ele>
        <time>2022-12-07T13:24:32Z</time>
      </trkpt>
      <trkpt lat="49.83516" lon="2.51852">
        <ele>82.9</ele>
        <time>2022-12-07T13:24:33Z</time>
      </trkpt>
      <trkpt lat="49.83517" lon="2.51853">
        <ele>82.9</ele>
        <time>2022-12-07T13:24:34Z</time>
      </trkpt>
      <trkpt lat="49.83518" lon="2.51853">
        <ele>82.9</ele>
        <time>2022-12-07T13:24:35Z</time>
      </trkpt>
      <trkpt lat="49.83519" lon="2.51853">
        <ele>83</ele>
        <time>2022-12-07T13:24:36Z</time>
      </trkpt>
      <trkpt lat="49.8352" lon="2.51853">
        <ele>83</ele>
        <time>2022-12-07T13:24:37Z</time>
      </trkpt>
      <trkpt lat="49.83521" lon="2.51853">
        <ele>83</ele>
        <time>2022-12-07T13:24:38Z</time>
      </trkpt>
      <trkpt lat="49.83522" lon="2.51854">
        <ele>83.1</ele>
        <time>2022-12-07T13:24:39Z</time>
      </trkpt>
      <trkpt lat="49.83523" lon="2.51854">
        <ele>83.1</ele>
        <time>2022-12-07T13:24:40Z</time>
      </trkpt>
      <trkpt lat="49.83524" lon="2.51855">
        <ele>83.1</ele>
        <time>2022-12-07T13:24:41Z</time>
      </trkpt>
      <trkpt lat="49.83525" lon="2.51855">
        <ele>83.1</ele>
        <time>2022-12-07T13:24:42Z</time>
      </trkpt>
      <trkpt lat="49.83526" lon="2.51855">
        <ele>83.2</ele>
        <time>2022-12-07T13:24:43Z</time>
      </trkpt>
      <trkpt lat="49.83527" lon="2.51856">
        <ele>83.2</ele>
        <time>2022-12-07T13:24:44Z</time>
      </trkpt>
      <trkpt lat="49.83528" lon="2.51856">
        <ele>83.2</ele>
        <time>2022-12-07T13:24:45Z</time>
      </trkpt>
      <trkpt lat="49.83529" lon="2.51857">
        <ele>83.2</ele>
        <time>2022-12-07T13:24:46Z</time>
      </trkpt>
      <trkpt lat="49.8353" lon="2.51857">
        <ele>83.3</ele>
        <time>2022-12-07T13:24:47Z</time>
      </trkpt>
      <trkpt lat="49.83531" lon="2.51857">
        <ele>83.3</ele>
        <time>2022-12-07T13:24:48Z</time>
      </trkpt>
      <trkpt lat="49.83532" lon="2.51858">
        <ele>83.3</ele>
        <time>2022-12-07T13:24:49Z</time>
      </trkpt>
      <trkpt lat="49.83533" lon="2.51858">
        <ele>83.4</ele>
        <time>2022-12-07T13:24:50Z</time>
      </trkpt>
      <trkpt lat="49.83534" lon="2.51858">
        <ele>83.4</ele>
        <time>2022-12-07T13:24:51Z</time>
      </trkpt>
      <trkpt lat="49.83536" lon="2.51859">
        <ele>83.4</ele>
        <time>2022-12-07T13:24:52Z</time>
      </trkpt>
      <trkpt lat="49.83537" lon="2.51859">
        <ele>83.4</ele>
        <time>2022-12-07T13:24:53Z</time>
      </trkpt>
      <trkpt lat="49.83538" lon="2.5186">
        <ele>83.5</ele>
        <time>2022-12-07T13:24:54Z</time>
      </trkpt>
      <trkpt lat="49.83539" lon="2.5186">
        <ele>83.5</ele>
        <time>2022-12-07T13:24:55Z</time>
      </trkpt>
      <trkpt lat="49.8354" lon="2.51861">
        <ele>83.5</ele>
        <time>2022-12-07T13:24:56Z</time>
      </trkpt>
      <trkpt lat="49.83541" lon="2.51861">
        <ele>83.6</ele>
        <time>2022-12-07T13:24:57Z</time>
      </trkpt>
      <trkpt lat="49.83542" lon="2.51862">
        <ele>83.6</ele>
        <time>2022-12-07T13:24:58Z</time>
      </trkpt>
      <trkpt lat="49.83544" lon="2.51863">
        <ele>83.7</ele>
        <time>2022-12-07T13:24:59Z</time>
      </trkpt>
      <trkpt lat="49.83545" lon="2.51863">
        <ele>83.7</ele>
        <time>2022-12-07T13:25:00Z</time>
      </trkpt>
      <trkpt lat="49.83546" lon="2.51863">
        <ele>83.7</ele>
        <time>2022-12-07T13:25:01Z</time>
      </trkpt>
      <trkpt lat="49.83547" lon="2.51864">
        <ele>83.7</ele>
        <time>2022-12-07T13:25:02Z</time>
      </trkpt>
      <trkpt lat="49.83548" lon="2.51865">
        <ele>83.8</ele>
        <time>2022-12-07T13:25:03Z</time>
      </trkpt>
      <trkpt lat="49.83549" lon="2.51865">
        <ele>83.8</ele>
        <time>2022-12-07T13:25:04Z</time>
      </trkpt>
      <trkpt lat="49.8355" lon="2.51866">
        <ele>83.8</ele>
        <time>2022-12-07T13:25:05Z</time>
      </trkpt>
      <trkpt lat="49.83551" lon="2.51867">
        <ele>83.8</ele>
        <time>2022-12-07T13:25:06Z</time>
      </trkpt>
      <trkpt lat="49.83552" lon="2.51868">
        <ele>83.9</ele>
        <time>2022-12-07T13:25:07Z</time>
      </trkpt>
      <trkpt lat="49.83553" lon="2.51869">
        <ele>83.9</ele>
        <time>2022-12-07T13:25:08Z</time>
      </trkpt>
      <trkpt lat="49.83554" lon="2.51869">
        <ele>83.9</ele>
        <time>2022-12-07T13:25:09Z</time>
      </trkpt>
      <trkpt lat="49.83555" lon="2.5187">
        <ele>83.9</ele>
        <time>2022-12-07T13:25:10Z</time>
      </trkpt>
      <trkpt lat="49.83556" lon="2.5187">
        <ele>83.9</ele>
        <time>2022-12-07T13:25:11Z</time>
      </trkpt>
      <trkpt lat="49.83557" lon="2.51871">
        <ele>84</ele>
        <time>2022-12-07T13:25:12Z</time>
      </trkpt>
      <trkpt lat="49.83558" lon="2.51871">
        <ele>84</ele>
        <time>2022-12-07T13:25:13Z</time>
      </trkpt>
      <trkpt lat="49.83559" lon="2.51872">
        <ele>84</ele>
        <time>2022-12-07T13:25:14Z</time>
      </trkpt>
      <trkpt lat="49.8356" lon="2.51872">
        <ele>84</ele>
        <time>2022-12-07T13:25:15Z</time>
      </trkpt>
      <trkpt lat="49.83561" lon="2.51873">
        <ele>84</ele>
        <time>2022-12-07T13:25:16Z</time>
      </trkpt>
      <trkpt lat="49.83562" lon="2.51873">
        <ele>84</ele>
        <time>2022-12-07T13:25:17Z</time>
      </trkpt>
      <trkpt lat="49.83563" lon="2.51874">
        <ele>84.1</ele>
        <time>2022-12-07T13:25:18Z</time>
      </trkpt>
      <trkpt lat="49.83564" lon="2.51875">
        <ele>84.1</ele>
        <time>2022-12-07T13:25:19Z</time>
      </trkpt>
      <trkpt lat="49.83565" lon="2.51875">
        <ele>84.1</ele>
        <time>2022-12-07T13:25:20Z</time>
      </trkpt>
      <trkpt lat="49.83566" lon="2.51875">
        <ele>84.1</ele>
        <time>2022-12-07T13:25:21Z</time>
      </trkpt>
      <trkpt lat="49.83567" lon="2.51876">
        <ele>84.1</ele>
        <time>2022-12-07T13:25:22Z</time>
      </trkpt>
      <trkpt lat="49.83568" lon="2.51876">
        <ele>84.1</ele>
        <time>2022-12-07T13:25:23Z</time>
      </trkpt>
      <trkpt lat="49.83569" lon="2.51876">
        <ele>84.1</ele>
        <time>2022-12-07T13:25:24Z</time>
      </trkpt>
      <trkpt lat="49.8357" lon="2.51877">
        <ele>84.1</ele>
        <time>2022-12-07T13:25:25Z</time>
      </trkpt>
      <trkpt lat="49.83571" lon="2.51877">
        <ele>84.1</ele>
        <time>2022-12-07T13:25:26Z</time>
      </trkpt>
      <trkpt lat="49.83572" lon="2.51877">
        <ele>84.1</ele>
        <time>2022-12-07T13:25:27Z</time>
      </trkpt>
      <trkpt lat="49.83573" lon="2.51877">
        <ele>84.2</ele>
        <time>2022-12-07T13:25:28Z</time>
      </trkpt>
      <trkpt lat="49.83574" lon="2.51877">
        <ele>84.2</ele>
        <time>2022-12-07T13:25:29Z</time>
      </trkpt>
      <trkpt lat="49.83575" lon="2.51877">
        <ele>84.2</ele>
        <time>2022-12-07T13:25:30Z</time>
      </trkpt>
      <trkpt lat="49.83576" lon="2.51877">
        <ele>84.2</ele>
        <time>2022-12-07T13:25:31Z</time>
      </trkpt>
      <trkpt lat="49.83577" lon="2.51877">
        <ele>84.2</ele>
        <time>2022-12-07T13:25:32Z</time>
      </trkpt>
      <trkpt lat="49.83578" lon="2.51876">
        <ele>84.2</ele>
        <time>2022-12-07T13:25:33Z</time>
      </trkpt>
      <trkpt lat="49.83579" lon="2.51877">
        <ele>84.2</ele>
        <time>2022-12-07T13:25:34Z</time>
      </trkpt>
      <trkpt lat="49.8358" lon="2.51877">
        <ele>84.2</ele>
        <time>2022-12-07T13:25:35Z</time>
      </trkpt>
      <trkpt lat="49.83581" lon="2.51877">
        <ele>84.2</ele>
        <time>2022-12-07T13:25:36Z</time>
      </trkpt>
      <trkpt lat="49.83582" lon="2.51877">
        <ele>84.2</ele>
        <time>2022-12-07T13:25:37Z</time>
      </trkpt>
      <trkpt lat="49.83583" lon="2.51877">
        <ele>84.2</ele>
        <time>2022-12-07T13:25:38Z</time>
      </trkpt>
      <trkpt lat="49.83584" lon="2.51877">
        <ele>84.3</ele>
        <time>2022-12-07T13:25:39Z</time>
      </trkpt>
      <trkpt lat="49.83585" lon="2.51877">
        <ele>84.3</ele>
        <time>2022-12-07T13:25:40Z</time>
      </trkpt>
      <trkpt lat="49.83586" lon="2.51877">
        <ele>84.3</ele>
        <time>2022-12-07T13:25:41Z</time>
      </trkpt>
      <trkpt lat="49.83587" lon="2.51877">
        <ele>84.3</ele>
        <time>2022-12-07T13:25:42Z</time>
      </trkpt>
      <trkpt lat="49.83589" lon="2.51877">
        <ele>84.3</ele>
        <time>2022-12-07T13:25:43Z</time>
      </trkpt>
      <trkpt lat="49.8359" lon="2.51877">
        <ele>84.3</ele>
        <time>2022-12-07T13:25:44Z</time>
      </trkpt>
      <trkpt lat="49.83591" lon="2.51877">
        <ele>84.3</ele>
        <time>2022-12-07T13:25:45Z</time>
      </trkpt>
      <trkpt lat="49.83591" lon="2.51877">
        <ele>84.3</ele>
        <time>2022-12-07T13:25:46Z</time>
      </trkpt>
      <trkpt lat="49.83592" lon="2.51878">
        <ele>84.3</ele>
        <time>2022-12-07T13:25:47Z</time>
      </trkpt>
      <trkpt lat="49.83594" lon="2.51878">
        <ele>84.3</ele>
        <time>2022-12-07T13:25:48Z</time>
      </trkpt>
      <trkpt lat="49.83595" lon="2.51878">
        <ele>84.3</ele>
        <time>2022-12-07T13:25:49Z</time>
      </trkpt>
      <trkpt lat="49.83596" lon="2.51878">
        <ele>84.4</ele>
        <time>2022-12-07T13:25:50Z</time>
      </trkpt>
      <trkpt lat="49.83597" lon="2.51879">
        <ele>84.4</ele>
        <time>2022-12-07T13:25:51Z</time>
      </trkpt>
      <trkpt lat="49.83598" lon="2.51879">
        <ele>84.4</ele>
        <time>2022-12-07T13:25:52Z</time>
      </trkpt>
      <trkpt lat="49.83599" lon="2.5188">
        <ele>84.4</ele>
        <time>2022-12-07T13:25:53Z</time>
      </trkpt>
      <trkpt lat="49.836" lon="2.5188">
        <ele>84.4</ele>
        <time>2022-12-07T13:25:54Z</time>
      </trkpt>
      <trkpt lat="49.83601" lon="2.5188">
        <ele>84.4</ele>
        <time>2022-12-07T13:25:55Z</time>
      </trkpt>
      <trkpt lat="49.83602" lon="2.51881">
        <ele>84.4</ele>
        <time>2022-12-07T13:25:56Z</time>
      </trkpt>
      <trkpt lat="49.83603" lon="2.51881">
        <ele>84.4</ele>
        <time>2022-12-07T13:25:57Z</time>
      </trkpt>
      <trkpt lat="49.83604" lon="2.51881">
        <ele>84.4</ele>
        <time>2022-12-07T13:25:58Z</time>
      </trkpt>
      <trkpt lat="49.83605" lon="2.51882">
        <ele>84.4</ele>
        <time>2022-12-07T13:25:59Z</time>
      </trkpt>
      <trkpt lat="49.83606" lon="2.51882">
        <ele>84.4</ele>
        <time>2022-12-07T13:26:00Z</time>
      </trkpt>
      <trkpt lat="49.83607" lon="2.51882">
        <ele>84.5</ele>
        <time>2022-12-07T13:26:01Z</time>
      </trkpt>
      <trkpt lat="49.83608" lon="2.51882">
        <ele>84.5</ele>
        <time>2022-12-07T13:26:02Z</time>
      </trkpt>
      <trkpt lat="49.83609" lon="2.51883">
        <ele>84.5</ele>
        <time>2022-12-07T13:26:03Z</time>
      </trkpt>
      <trkpt lat="49.8361" lon="2.51883">
        <ele>84.5</ele>
        <time>2022-12-07T13:26:04Z</time>
      </trkpt>
      <trkpt lat="49.83611" lon="2.51883">
        <ele>84.5</ele>
        <time>2022-12-07T13:26:05Z</time>
      </trkpt>
      <trkpt lat="49.83611" lon="2.51883">
        <ele>84.5</ele>
        <time>2022-12-07T13:26:06Z</time>
      </trkpt>
      <trkpt lat="49.83612" lon="2.51883">
        <ele>84.5</ele>
        <time>2022-12-07T13:26:07Z</time>
      </trkpt>
      <trkpt lat="49.83613" lon="2.51883">
        <ele>84.5</ele>
        <time>2022-12-07T13:26:08Z</time>
      </trkpt>
      <trkpt lat="49.83613" lon="2.51883">
        <ele>84.5</ele>
        <time>2022-12-07T13:26:09Z</time>
      </trkpt>
      <trkpt lat="49.83614" lon="2.51883">
        <ele>84.5</ele>
        <time>2022-12-07T13:26:10Z</time>
      </trkpt>
      <trkpt lat="49.83615" lon="2.51883">
        <ele>84.5</ele>
        <time>2022-12-07T13:26:11Z</time>
      </trkpt>
      <trkpt lat="49.83616" lon="2.51883">
        <ele>84.5</ele>
        <time>2022-12-07T13:26:12Z</time>
      </trkpt>
      <trkpt lat="49.83617" lon="2.51884">
        <ele>84.5</ele>
        <time>2022-12-07T13:26:13Z</time>
      </trkpt>
      <trkpt lat="49.83617" lon="2.51884">
        <ele>84.5</ele>
        <time>2022-12-07T13:26:14Z</time>
      </trkpt>
      <trkpt lat="49.83618" lon="2.51885">
        <ele>84.5</ele>
        <time>2022-12-07T13:26:15Z</time>
      </trkpt>
      <trkpt lat="49.83619" lon="2.51886">
        <ele>84.5</ele>
        <time>2022-12-07T13:26:16Z</time>
      </trkpt>
      <trkpt lat="49.8362" lon="2.51887">
        <ele>84.5</ele>
        <time>2022-12-07T13:26:17Z</time>
      </trkpt>
      <trkpt lat="49.83621" lon="2.51887">
        <ele>84.5</ele>
        <time>2022-12-07T13:26:18Z</time>
      </trkpt>
      <trkpt lat="49.83621" lon="2.51888">
        <ele>84.5</ele>
        <time>2022-12-07T13:26:19Z</time>
      </trkpt>
      <trkpt lat="49.83622" lon="2.51888">
        <ele>84.5</ele>
        <time>2022-12-07T13:26:20Z</time>
      </trkpt>
      <trkpt lat="49.83623" lon="2.51889">
        <ele>84.5</ele>
        <time>2022-12-07T13:26:21Z</time>
      </trkpt>
      <trkpt lat="49.83624" lon="2.51889">
        <ele>84.5</ele>
        <time>2022-12-07T13:26:22Z</time>
      </trkpt>
      <trkpt lat="49.83625" lon="2.51889">
        <ele>84.5</ele>
        <time>2022-12-07T13:26:23Z</time>
      </trkpt>
      <trkpt lat="49.83626" lon="2.51889">
        <ele>84.5</ele>
        <time>2022-12-07T13:26:24Z</time>
      </trkpt>
      <trkpt lat="49.83627" lon="2.51889">
        <ele>84.5</ele>
        <time>2022-12-07T13:26:25Z</time>
      </trkpt>
      <trkpt lat="49.83628" lon="2.51889">
        <ele>84.5</ele>
        <time>2022-12-07T13:26:26Z</time>
      </trkpt>
      <trkpt lat="49.83629" lon="2.5189">
        <ele>84.5</ele>
        <time>2022-12-07T13:26:27Z</time>
      </trkpt>
      <trkpt lat="49.8363" lon="2.5189">
        <ele>84.5</ele>
        <time>2022-12-07T13:26:28Z</time>
      </trkpt>
      <trkpt lat="49.83632" lon="2.5189">
        <ele>84.5</ele>
        <time>2022-12-07T13:26:29Z</time>
      </trkpt>
      <trkpt lat="49.83633" lon="2.5189">
        <ele>84.5</ele>
        <time>2022-12-07T13:26:30Z</time>
      </trkpt>
      <trkpt lat="49.83634" lon="2.5189">
        <ele>84.5</ele>
        <time>2022-12-07T13:26:31Z</time>
      </trkpt>
      <trkpt lat="49.83635" lon="2.51891">
        <ele>84.5</ele>
        <time>2022-12-07T13:26:32Z</time>
      </trkpt>
      <trkpt lat="49.83635" lon="2.51891">
        <ele>84.5</ele>
        <time>2022-12-07T13:26:33Z</time>
      </trkpt>
      <trkpt lat="49.83636" lon="2.51891">
        <ele>84.5</ele>
        <time>2022-12-07T13:26:34Z</time>
      </trkpt>
      <trkpt lat="49.83637" lon="2.51891">
        <ele>84.5</ele>
        <time>2022-12-07T13:26:35Z</time>
      </trkpt>
      <trkpt lat="49.83638" lon="2.51891">
        <ele>84.5</ele>
        <time>2022-12-07T13:26:36Z</time>
      </trkpt>
      <trkpt lat="49.83638" lon="2.51891">
        <ele>84.5</ele>
        <time>2022-12-07T13:26:37Z</time>
      </trkpt>
      <trkpt lat="49.83639" lon="2.51891">
        <ele>84.5</ele>
        <time>2022-12-07T13:26:38Z</time>
      </trkpt>
      <trkpt lat="49.83639" lon="2.51892">
        <ele>84.5</ele>
        <time>2022-12-07T13:26:39Z</time>
      </trkpt>
      <trkpt lat="49.8364" lon="2.51892">
        <ele>84.5</ele>
        <time>2022-12-07T13:26:40Z</time>
      </trkpt>
      <trkpt lat="49.83641" lon="2.51892">
        <ele>84.5</ele>
        <time>2022-12-07T13:26:41Z</time>
      </trkpt>
      <trkpt lat="49.83641" lon="2.51892">
        <ele>84.5</ele>
        <time>2022-12-07T13:26:42Z</time>
      </trkpt>
      <trkpt lat="49.83642" lon="2.51892">
        <ele>84.5</ele>
        <time>2022-12-07T13:26:43Z</time>
      </trkpt>
      <trkpt lat="49.83643" lon="2.51893">
        <ele>84.4</ele>
        <time>2022-12-07T13:26:44Z</time>
      </trkpt>
      <trkpt lat="49.83643" lon="2.51893">
        <ele>84.4</ele>
        <time>2022-12-07T13:26:45Z</time>
      </trkpt>
      <trkpt lat="49.83644" lon="2.51894">
        <ele>84.4</ele>
        <time>2022-12-07T13:26:46Z</time>
      </trkpt>
      <trkpt lat="49.83645" lon="2.51894">
        <ele>84.4</ele>
        <time>2022-12-07T13:26:47Z</time>
      </trkpt>
      <trkpt lat="49.83646" lon="2.51895">
        <ele>84.4</ele>
        <time>2022-12-07T13:26:48Z</time>
      </trkpt>
      <trkpt lat="49.83647" lon="2.51895">
        <ele>84.4</ele>
        <time>2022-12-07T13:26:49Z</time>
      </trkpt>
      <trkpt lat="49.83648" lon="2.51895">
        <ele>84.4</ele>
        <time>2022-12-07T13:26:50Z</time>
      </trkpt>
      <trkpt lat="49.83649" lon="2.51895">
        <ele>84.3</ele>
        <time>2022-12-07T13:26:51Z</time>
      </trkpt>
      <trkpt lat="49.83651" lon="2.51896">
        <ele>84.3</ele>
        <time>2022-12-07T13:26:52Z</time>
      </trkpt>
      <trkpt lat="49.83652" lon="2.51896">
        <ele>84.3</ele>
        <time>2022-12-07T13:26:53Z</time>
      </trkpt>
      <trkpt lat="49.83653" lon="2.51896">
        <ele>84.2</ele>
        <time>2022-12-07T13:26:54Z</time>
      </trkpt>
      <trkpt lat="49.83655" lon="2.51897">
        <ele>84.2</ele>
        <time>2022-12-07T13:26:55Z</time>
      </trkpt>
      <trkpt lat="49.83656" lon="2.51897">
        <ele>84.1</ele>
        <time>2022-12-07T13:26:56Z</time>
      </trkpt>
      <trkpt lat="49.83657" lon="2.51897">
        <ele>84.1</ele>
        <time>2022-12-07T13:26:57Z</time>
      </trkpt>
      <trkpt lat="49.83658" lon="2.51897">
        <ele>84.1</ele>
        <time>2022-12-07T13:26:58Z</time>
      </trkpt>
      <trkpt lat="49.83659" lon="2.51897">
        <ele>84</ele>
        <time>2022-12-07T13:26:59Z</time>
      </trkpt>
      <trkpt lat="49.8366" lon="2.51897">
        <ele>84</ele>
        <time>2022-12-07T13:27:00Z</time>
      </trkpt>
      <trkpt lat="49.83661" lon="2.51897">
        <ele>84</ele>
        <time>2022-12-07T13:27:01Z</time>
      </trkpt>
      <trkpt lat="49.83662" lon="2.51898">
        <ele>83.9</ele>
        <time>2022-12-07T13:27:02Z</time>
      </trkpt>
      <trkpt lat="49.83663" lon="2.51898">
        <ele>83.9</ele>
        <time>2022-12-07T13:27:03Z</time>
      </trkpt>
      <trkpt lat="49.83664" lon="2.51898">
        <ele>83.8</ele>
        <time>2022-12-07T13:27:04Z</time>
      </trkpt>
      <trkpt lat="49.83665" lon="2.51898">
        <ele>83.8</ele>
        <time>2022-12-07T13:27:05Z</time>
      </trkpt>
      <trkpt lat="49.83666" lon="2.51899">
        <ele>83.7</ele>
        <time>2022-12-07T13:27:06Z</time>
      </trkpt>
      <trkpt lat="49.83667" lon="2.51899">
        <ele>83.7</ele>
        <time>2022-12-07T13:27:07Z</time>
      </trkpt>
      <trkpt lat="49.83668" lon="2.519">
        <ele>83.6</ele>
        <time>2022-12-07T13:27:08Z</time>
      </trkpt>
      <trkpt lat="49.83669" lon="2.519">
        <ele>83.6</ele>
        <time>2022-12-07T13:27:09Z</time>
      </trkpt>
      <trkpt lat="49.8367" lon="2.519">
        <ele>83.5</ele>
        <time>2022-12-07T13:27:10Z</time>
      </trkpt>
      <trkpt lat="49.8367" lon="2.519">
        <ele>83.5</ele>
        <time>2022-12-07T13:27:11Z</time>
      </trkpt>
      <trkpt lat="49.83671" lon="2.51901">
        <ele>83.5</ele>
        <time>2022-12-07T13:27:12Z</time>
      </trkpt>
      <trkpt lat="49.83672" lon="2.51901">
        <ele>83.4</ele>
        <time>2022-12-07T13:27:13Z</time>
      </trkpt>
      <trkpt lat="49.83673" lon="2.51901">
        <ele>83.3</ele>
        <time>2022-12-07T13:27:14Z</time>
      </trkpt>
      <trkpt lat="49.83674" lon="2.51901">
        <ele>83.3</ele>
        <time>2022-12-07T13:27:15Z</time>
      </trkpt>
      <trkpt lat="49.83675" lon="2.51902">
        <ele>83.2</ele>
        <time>2022-12-07T13:27:16Z</time>
      </trkpt>
      <trkpt lat="49.83676" lon="2.51902">
        <ele>83.2</ele>
        <time>2022-12-07T13:27:17Z</time>
      </trkpt>
      <trkpt lat="49.83677" lon="2.51902">
        <ele>83.1</ele>
        <time>2022-12-07T13:27:18Z</time>
      </trkpt>
      <trkpt lat="49.83678" lon="2.51903">
        <ele>83</ele>
        <time>2022-12-07T13:27:19Z</time>
      </trkpt>
      <trkpt lat="49.83679" lon="2.51903">
        <ele>82.9</ele>
        <time>2022-12-07T13:27:20Z</time>
      </trkpt>
      <trkpt lat="49.8368" lon="2.51903">
        <ele>82.9</ele>
        <time>2022-12-07T13:27:21Z</time>
      </trkpt>
      <trkpt lat="49.83681" lon="2.51904">
        <ele>82.8</ele>
        <time>2022-12-07T13:27:22Z</time>
      </trkpt>
      <trkpt lat="49.83682" lon="2.51904">
        <ele>82.7</ele>
        <time>2022-12-07T13:27:23Z</time>
      </trkpt>
      <trkpt lat="49.83683" lon="2.51905">
        <ele>82.6</ele>
        <time>2022-12-07T13:27:24Z</time>
      </trkpt>
      <trkpt lat="49.83684" lon="2.51905">
        <ele>82.5</ele>
        <time>2022-12-07T13:27:25Z</time>
      </trkpt>
      <trkpt lat="49.83685" lon="2.51905">
        <ele>82.5</ele>
        <time>2022-12-07T13:27:26Z</time>
      </trkpt>
      <trkpt lat="49.83686" lon="2.51905">
        <ele>82.4</ele>
        <time>2022-12-07T13:27:27Z</time>
      </trkpt>
      <trkpt lat="49.83687" lon="2.51906">
        <ele>82.3</ele>
        <time>2022-12-07T13:27:28Z</time>
      </trkpt>
      <trkpt lat="49.83688" lon="2.51906">
        <ele>82.2</ele>
        <time>2022-12-07T13:27:29Z</time>
      </trkpt>
      <trkpt lat="49.83689" lon="2.51906">
        <ele>82.2</ele>
        <time>2022-12-07T13:27:30Z</time>
      </trkpt>
      <trkpt lat="49.83689" lon="2.51906">
        <ele>82.1</ele>
        <time>2022-12-07T13:27:31Z</time>
      </trkpt>
      <trkpt lat="49.8369" lon="2.51906">
        <ele>82</ele>
        <time>2022-12-07T13:27:32Z</time>
      </trkpt>
      <trkpt lat="49.83691" lon="2.51906">
        <ele>82</ele>
        <time>2022-12-07T13:27:33Z</time>
      </trkpt>
      <trkpt lat="49.83691" lon="2.51907">
        <ele>81.9</ele>
        <time>2022-12-07T13:27:34Z</time>
      </trkpt>
      <trkpt lat="49.83692" lon="2.51907">
        <ele>81.8</ele>
        <time>2022-12-07T13:27:35Z</time>
      </trkpt>
      <trkpt lat="49.83693" lon="2.51907">
        <ele>81.7</ele>
        <time>2022-12-07T13:27:36Z</time>
      </trkpt>
      <trkpt lat="49.83693" lon="2.51908">
        <ele>81.7</ele>
        <time>2022-12-07T13:27:37Z</time>
      </trkpt>
      <trkpt lat="49.83694" lon="2.51908">
        <ele>81.6</ele>
        <time>2022-12-07T13:27:38Z</time>
      </trkpt>
      <trkpt lat="49.83695" lon="2.51909">
        <ele>81.5</ele>
        <time>2022-12-07T13:27:39Z</time>
      </trkpt>
      <trkpt lat="49.83696" lon="2.51909">
        <ele>81.4</ele>
        <time>2022-12-07T13:27:40Z</time>
      </trkpt>
      <trkpt lat="49.83697" lon="2.5191">
        <ele>81.3</ele>
        <time>2022-12-07T13:27:41Z</time>
      </trkpt>
      <trkpt lat="49.83697" lon="2.5191">
        <ele>81.2</ele>
        <time>2022-12-07T13:27:42Z</time>
      </trkpt>
      <trkpt lat="49.83699" lon="2.51911">
        <ele>81.1</ele>
        <time>2022-12-07T13:27:43Z</time>
      </trkpt>
      <trkpt lat="49.83701" lon="2.51912">
        <ele>80.8</ele>
        <time>2022-12-07T13:27:44Z</time>
      </trkpt>
      <trkpt lat="49.83701" lon="2.51912">
        <ele>80.7</ele>
        <time>2022-12-07T13:27:45Z</time>
      </trkpt>
      <trkpt lat="49.83702" lon="2.51913">
        <ele>80.6</ele>
        <time>2022-12-07T13:27:46Z</time>
      </trkpt>
      <trkpt lat="49.83704" lon="2.51915">
        <ele>80.4</ele>
        <time>2022-12-07T13:27:47Z</time>
      </trkpt>
      <trkpt lat="49.83705" lon="2.51915">
        <ele>80.3</ele>
        <time>2022-12-07T13:27:48Z</time>
      </trkpt>
      <trkpt lat="49.83706" lon="2.51916">
        <ele>80.1</ele>
        <time>2022-12-07T13:27:49Z</time>
      </trkpt>
      <trkpt lat="49.83707" lon="2.51917">
        <ele>80</ele>
        <time>2022-12-07T13:27:50Z</time>
      </trkpt>
      <trkpt lat="49.83708" lon="2.51919">
        <ele>79.8</ele>
        <time>2022-12-07T13:27:51Z</time>
      </trkpt>
      <trkpt lat="49.8371" lon="2.5192">
        <ele>79.5</ele>
        <time>2022-12-07T13:27:52Z</time>
      </trkpt>
      <trkpt lat="49.8371" lon="2.51921">
        <ele>79.4</ele>
        <time>2022-12-07T13:27:53Z</time>
      </trkpt>
      <trkpt lat="49.83711" lon="2.51922">
        <ele>79.3</ele>
        <time>2022-12-07T13:27:54Z</time>
      </trkpt>
      <trkpt lat="49.83713" lon="2.51924">
        <ele>79</ele>
        <time>2022-12-07T13:27:55Z</time>
      </trkpt>
      <trkpt lat="49.83714" lon="2.51925">
        <ele>78.9</ele>
        <time>2022-12-07T13:27:56Z</time>
      </trkpt>
      <trkpt lat="49.83714" lon="2.51925">
        <ele>78.8</ele>
        <time>2022-12-07T13:27:57Z</time>
      </trkpt>
      <trkpt lat="49.83716" lon="2.51927">
        <ele>78.5</ele>
        <time>2022-12-07T13:27:58Z</time>
      </trkpt>
      <trkpt lat="49.83717" lon="2.51928">
        <ele>78.4</ele>
        <time>2022-12-07T13:27:59Z</time>
      </trkpt>
      <trkpt lat="49.83718" lon="2.51928">
        <ele>78.2</ele>
        <time>2022-12-07T13:28:00Z</time>
      </trkpt>
      <trkpt lat="49.83719" lon="2.51929">
        <ele>78.1</ele>
        <time>2022-12-07T13:28:01Z</time>
      </trkpt>
      <trkpt lat="49.8372" lon="2.5193">
        <ele>77.9</ele>
        <time>2022-12-07T13:28:02Z</time>
      </trkpt>
      <trkpt lat="49.83721" lon="2.5193">
        <ele>77.8</ele>
        <time>2022-12-07T13:28:03Z</time>
      </trkpt>
      <trkpt lat="49.83722" lon="2.5193">
        <ele>77.6</ele>
        <time>2022-12-07T13:28:04Z</time>
      </trkpt>
      <trkpt lat="49.83723" lon="2.5193">
        <ele>77.4</ele>
        <time>2022-12-07T13:28:05Z</time>
      </trkpt>
      <trkpt lat="49.83724" lon="2.5193">
        <ele>77.3</ele>
        <time>2022-12-07T13:28:06Z</time>
      </trkpt>
      <trkpt lat="49.83725" lon="2.5193">
        <ele>77.2</ele>
        <time>2022-12-07T13:28:07Z</time>
      </trkpt>
      <trkpt lat="49.83726" lon="2.5193">
        <ele>77.1</ele>
        <time>2022-12-07T13:28:08Z</time>
      </trkpt>
      <trkpt lat="49.83727" lon="2.5193">
        <ele>76.9</ele>
        <time>2022-12-07T13:28:09Z</time>
      </trkpt>
      <trkpt lat="49.83728" lon="2.5193">
        <ele>76.7</ele>
        <time>2022-12-07T13:28:10Z</time>
      </trkpt>
      <trkpt lat="49.83729" lon="2.5193">
        <ele>76.6</ele>
        <time>2022-12-07T13:28:11Z</time>
      </trkpt>
      <trkpt lat="49.8373" lon="2.51931">
        <ele>76.5</ele>
        <time>2022-12-07T13:28:12Z</time>
      </trkpt>
      <trkpt lat="49.83731" lon="2.51931">
        <ele>76.4</ele>
        <time>2022-12-07T13:28:13Z</time>
      </trkpt>
      <trkpt lat="49.83732" lon="2.51931">
        <ele>76.3</ele>
        <time>2022-12-07T13:28:14Z</time>
      </trkpt>
      <trkpt lat="49.83732" lon="2.51932">
        <ele>76.2</ele>
        <time>2022-12-07T13:28:15Z</time>
      </trkpt>
      <trkpt lat="49.83733" lon="2.51932">
        <ele>76.1</ele>
        <time>2022-12-07T13:28:16Z</time>
      </trkpt>
      <trkpt lat="49.83734" lon="2.51932">
        <ele>76</ele>
        <time>2022-12-07T13:28:17Z</time>
      </trkpt>
      <trkpt lat="49.83734" lon="2.51932">
        <ele>75.9</ele>
        <time>2022-12-07T13:28:18Z</time>
      </trkpt>
      <trkpt lat="49.83735" lon="2.51932">
        <ele>75.8</ele>
        <time>2022-12-07T13:28:19Z</time>
      </trkpt>
      <trkpt lat="49.83736" lon="2.51933">
        <ele>75.7</ele>
        <time>2022-12-07T13:28:20Z</time>
      </trkpt>
      <trkpt lat="49.83737" lon="2.51933">
        <ele>75.6</ele>
        <time>2022-12-07T13:28:21Z</time>
      </trkpt>
      <trkpt lat="49.83737" lon="2.51934">
        <ele>75.5</ele>
        <time>2022-12-07T13:28:22Z</time>
      </trkpt>
      <trkpt lat="49.83738" lon="2.51934">
        <ele>75.4</ele>
        <time>2022-12-07T13:28:23Z</time>
      </trkpt>
      <trkpt lat="49.83738" lon="2.51935">
        <ele>75.3</ele>
        <time>2022-12-07T13:28:24Z</time>
      </trkpt>
      <trkpt lat="49.8374" lon="2.51937">
        <ele>75.1</ele>
        <time>2022-12-07T13:28:25Z</time>
      </trkpt>
      <trkpt lat="49.83741" lon="2.51938">
        <ele>75</ele>
        <time>2022-12-07T13:28:26Z</time>
      </trkpt>
      <trkpt lat="49.83741" lon="2.51939">
        <ele>74.9</ele>
        <time>2022-12-07T13:28:27Z</time>
      </trkpt>
      <trkpt lat="49.83744" lon="2.51941">
        <ele>74.6</ele>
        <time>2022-12-07T13:28:28Z</time>
      </trkpt>
      <trkpt lat="49.83745" lon="2.51942">
        <ele>74.5</ele>
        <time>2022-12-07T13:28:29Z</time>
      </trkpt>
      <trkpt lat="49.83748" lon="2.51944">
        <ele>74.2</ele>
        <time>2022-12-07T13:28:30Z</time>
      </trkpt>
      <trkpt lat="49.83751" lon="2.51946">
        <ele>74</ele>
        <time>2022-12-07T13:28:31Z</time>
      </trkpt>
      <trkpt lat="49.83752" lon="2.51947">
        <ele>73.9</ele>
        <time>2022-12-07T13:28:32Z</time>
      </trkpt>
      <trkpt lat="49.83754" lon="2.51949">
        <ele>73.7</ele>
        <time>2022-12-07T13:28:33Z</time>
      </trkpt>
      <trkpt lat="49.83755" lon="2.5195">
        <ele>73.6</ele>
        <time>2022-12-07T13:28:34Z</time>
      </trkpt>
      <trkpt lat="49.83758" lon="2.51952">
        <ele>73.5</ele>
        <time>2022-12-07T13:28:35Z</time>
      </trkpt>
      <trkpt lat="49.83759" lon="2.51953">
        <ele>73.4</ele>
        <time>2022-12-07T13:28:36Z</time>
      </trkpt>
      <trkpt lat="49.8376" lon="2.51954">
        <ele>73.4</ele>
        <time>2022-12-07T13:28:37Z</time>
      </trkpt>
      <trkpt lat="49.83762" lon="2.51954">
        <ele>73.3</ele>
        <time>2022-12-07T13:28:38Z</time>
      </trkpt>
      <trkpt lat="49.83763" lon="2.51955">
        <ele>73.3</ele>
        <time>2022-12-07T13:28:39Z</time>
      </trkpt>
      <trkpt lat="49.83765" lon="2.51956">
        <ele>73.2</ele>
        <time>2022-12-07T13:28:40Z</time>
      </trkpt>
      <trkpt lat="49.83766" lon="2.51957">
        <ele>73.2</ele>
        <time>2022-12-07T13:28:41Z</time>
      </trkpt>
      <trkpt lat="49.83767" lon="2.51957">
        <ele>73.1</ele>
        <time>2022-12-07T13:28:42Z</time>
      </trkpt>
      <trkpt lat="49.83768" lon="2.51958">
        <ele>73.1</ele>
        <time>2022-12-07T13:28:43Z</time>
      </trkpt>
      <trkpt lat="49.8377" lon="2.51959">
        <ele>73.1</ele>
        <time>2022-12-07T13:28:44Z</time>
      </trkpt>
      <trkpt lat="49.8377" lon="2.51959">
        <ele>73.1</ele>
        <time>2022-12-07T13:28:45Z</time>
      </trkpt>
      <trkpt lat="49.83772" lon="2.5196">
        <ele>73</ele>
        <time>2022-12-07T13:28:46Z</time>
      </trkpt>
      <trkpt lat="49.83773" lon="2.51961">
        <ele>73</ele>
        <time>2022-12-07T13:28:47Z</time>
      </trkpt>
      <trkpt lat="49.83774" lon="2.51961">
        <ele>73</ele>
        <time>2022-12-07T13:28:48Z</time>
      </trkpt>
      <trkpt lat="49.83776" lon="2.51962">
        <ele>73</ele>
        <time>2022-12-07T13:28:49Z</time>
      </trkpt>
      <trkpt lat="49.83777" lon="2.51963">
        <ele>73</ele>
        <time>2022-12-07T13:28:50Z</time>
      </trkpt>
      <trkpt lat="49.83777" lon="2.51963">
        <ele>73</ele>
        <time>2022-12-07T13:28:51Z</time>
      </trkpt>
      <trkpt lat="49.83779" lon="2.51964">
        <ele>73.1</ele>
        <time>2022-12-07T13:28:52Z</time>
      </trkpt>
      <trkpt lat="49.8378" lon="2.51965">
        <ele>73.1</ele>
        <time>2022-12-07T13:28:53Z</time>
      </trkpt>
      <trkpt lat="49.83781" lon="2.51965">
        <ele>73.1</ele>
        <time>2022-12-07T13:28:54Z</time>
      </trkpt>
      <trkpt lat="49.83782" lon="2.51966">
        <ele>73.1</ele>
        <time>2022-12-07T13:28:55Z</time>
      </trkpt>
      <trkpt lat="49.83782" lon="2.51967">
        <ele>73.1</ele>
        <time>2022-12-07T13:28:56Z</time>
      </trkpt>
      <trkpt lat="49.83783" lon="2.51967">
        <ele>73.1</ele>
        <time>2022-12-07T13:28:57Z</time>
      </trkpt>
      <trkpt lat="49.83784" lon="2.51968">
        <ele>73.2</ele>
        <time>2022-12-07T13:28:58Z</time>
      </trkpt>
      <trkpt lat="49.83785" lon="2.51969">
        <ele>73.2</ele>
        <time>2022-12-07T13:28:59Z</time>
      </trkpt>
      <trkpt lat="49.83786" lon="2.51969">
        <ele>73.2</ele>
        <time>2022-12-07T13:29:00Z</time>
      </trkpt>
      <trkpt lat="49.83787" lon="2.5197">
        <ele>73.3</ele>
        <time>2022-12-07T13:29:01Z</time>
      </trkpt>
      <trkpt lat="49.83789" lon="2.5197">
        <ele>73.3</ele>
        <time>2022-12-07T13:29:02Z</time>
      </trkpt>
      <trkpt lat="49.83789" lon="2.51971">
        <ele>73.3</ele>
        <time>2022-12-07T13:29:03Z</time>
      </trkpt>
      <trkpt lat="49.83791" lon="2.51971">
        <ele>73.4</ele>
        <time>2022-12-07T13:29:04Z</time>
      </trkpt>
      <trkpt lat="49.83792" lon="2.51972">
        <ele>73.4</ele>
        <time>2022-12-07T13:29:05Z</time>
      </trkpt>
      <trkpt lat="49.83793" lon="2.51972">
        <ele>73.5</ele>
        <time>2022-12-07T13:29:06Z</time>
      </trkpt>
      <trkpt lat="49.83794" lon="2.51972">
        <ele>73.5</ele>
        <time>2022-12-07T13:29:07Z</time>
      </trkpt>
      <trkpt lat="49.83795" lon="2.51972">
        <ele>73.6</ele>
        <time>2022-12-07T13:29:08Z</time>
      </trkpt>
      <trkpt lat="49.83796" lon="2.51973">
        <ele>73.6</ele>
        <time>2022-12-07T13:29:09Z</time>
      </trkpt>
      <trkpt lat="49.83797" lon="2.51973">
        <ele>73.6</ele>
        <time>2022-12-07T13:29:10Z</time>
      </trkpt>
      <trkpt lat="49.83798" lon="2.51973">
        <ele>73.7</ele>
        <time>2022-12-07T13:29:11Z</time>
      </trkpt>
      <trkpt lat="49.83799" lon="2.51973">
        <ele>73.7</ele>
        <time>2022-12-07T13:29:12Z</time>
      </trkpt>
      <trkpt lat="49.838" lon="2.51974">
        <ele>73.8</ele>
        <time>2022-12-07T13:29:13Z</time>
      </trkpt>
      <trkpt lat="49.83801" lon="2.51974">
        <ele>73.8</ele>
        <time>2022-12-07T13:29:14Z</time>
      </trkpt>
      <trkpt lat="49.83802" lon="2.51974">
        <ele>73.9</ele>
        <time>2022-12-07T13:29:15Z</time>
      </trkpt>
      <trkpt lat="49.83803" lon="2.51974">
        <ele>73.9</ele>
        <time>2022-12-07T13:29:16Z</time>
      </trkpt>
      <trkpt lat="49.83804" lon="2.51975">
        <ele>74</ele>
        <time>2022-12-07T13:29:17Z</time>
      </trkpt>
      <trkpt lat="49.83805" lon="2.51975">
        <ele>74</ele>
        <time>2022-12-07T13:29:18Z</time>
      </trkpt>
      <trkpt lat="49.83806" lon="2.51975">
        <ele>74.1</ele>
        <time>2022-12-07T13:29:19Z</time>
      </trkpt>
      <trkpt lat="49.83807" lon="2.51975">
        <ele>74.2</ele>
        <time>2022-12-07T13:29:20Z</time>
      </trkpt>
      <trkpt lat="49.83808" lon="2.51975">
        <ele>74.3</ele>
        <time>2022-12-07T13:29:21Z</time>
      </trkpt>
      <trkpt lat="49.83808" lon="2.51975">
        <ele>74.3</ele>
        <time>2022-12-07T13:29:22Z</time>
      </trkpt>
      <trkpt lat="49.83809" lon="2.51975">
        <ele>74.4</ele>
        <time>2022-12-07T13:29:23Z</time>
      </trkpt>
      <trkpt lat="49.8381" lon="2.51975">
        <ele>74.5</ele>
        <time>2022-12-07T13:29:24Z</time>
      </trkpt>
      <trkpt lat="49.83811" lon="2.51976">
        <ele>74.6</ele>
        <time>2022-12-07T13:29:25Z</time>
      </trkpt>
      <trkpt lat="49.83812" lon="2.51976">
        <ele>74.6</ele>
        <time>2022-12-07T13:29:26Z</time>
      </trkpt>
      <trkpt lat="49.83813" lon="2.51976">
        <ele>74.7</ele>
        <time>2022-12-07T13:29:27Z</time>
      </trkpt>
      <trkpt lat="49.83814" lon="2.51975">
        <ele>74.8</ele>
        <time>2022-12-07T13:29:28Z</time>
      </trkpt>
      <trkpt lat="49.83814" lon="2.51975">
        <ele>74.9</ele>
        <time>2022-12-07T13:29:29Z</time>
      </trkpt>
      <trkpt lat="49.83815" lon="2.51975">
        <ele>74.9</ele>
        <time>2022-12-07T13:29:30Z</time>
      </trkpt>
      <trkpt lat="49.83816" lon="2.51975">
        <ele>75</ele>
        <time>2022-12-07T13:29:31Z</time>
      </trkpt>
      <trkpt lat="49.83817" lon="2.51975">
        <ele>75.1</ele>
        <time>2022-12-07T13:29:32Z</time>
      </trkpt>
      <trkpt lat="49.83818" lon="2.51975">
        <ele>75.2</ele>
        <time>2022-12-07T13:29:33Z</time>
      </trkpt>
      <trkpt lat="49.83819" lon="2.51975">
        <ele>75.3</ele>
        <time>2022-12-07T13:29:34Z</time>
      </trkpt>
      <trkpt lat="49.8382" lon="2.51975">
        <ele>75.4</ele>
        <time>2022-12-07T13:29:35Z</time>
      </trkpt>
      <trkpt lat="49.83821" lon="2.51975">
        <ele>75.5</ele>
        <time>2022-12-07T13:29:36Z</time>
      </trkpt>
      <trkpt lat="49.83822" lon="2.51974">
        <ele>75.6</ele>
        <time>2022-12-07T13:29:37Z</time>
      </trkpt>
      <trkpt lat="49.83824" lon="2.51974">
        <ele>75.7</ele>
        <time>2022-12-07T13:29:38Z</time>
      </trkpt>
      <trkpt lat="49.83824" lon="2.51974">
        <ele>75.8</ele>
        <time>2022-12-07T13:29:39Z</time>
      </trkpt>
      <trkpt lat="49.83825" lon="2.51975">
        <ele>75.9</ele>
        <time>2022-12-07T13:29:40Z</time>
      </trkpt>
      <trkpt lat="49.83827" lon="2.51975">
        <ele>76</ele>
        <time>2022-12-07T13:29:41Z</time>
      </trkpt>
      <trkpt lat="49.83828" lon="2.51976">
        <ele>76.1</ele>
        <time>2022-12-07T13:29:42Z</time>
      </trkpt>
      <trkpt lat="49.83829" lon="2.51976">
        <ele>76.2</ele>
        <time>2022-12-07T13:29:43Z</time>
      </trkpt>
      <trkpt lat="49.8383" lon="2.51977">
        <ele>76.4</ele>
        <time>2022-12-07T13:29:44Z</time>
      </trkpt>
      <trkpt lat="49.83831" lon="2.51978">
        <ele>76.5</ele>
        <time>2022-12-07T13:29:45Z</time>
      </trkpt>
      <trkpt lat="49.83831" lon="2.51978">
        <ele>76.6</ele>
        <time>2022-12-07T13:29:46Z</time>
      </trkpt>
      <trkpt lat="49.83832" lon="2.51979">
        <ele>76.7</ele>
        <time>2022-12-07T13:29:47Z</time>
      </trkpt>
      <trkpt lat="49.83833" lon="2.5198">
        <ele>76.8</ele>
        <time>2022-12-07T13:29:48Z</time>
      </trkpt>
      <trkpt lat="49.83834" lon="2.51981">
        <ele>76.9</ele>
        <time>2022-12-07T13:29:49Z</time>
      </trkpt>
      <trkpt lat="49.83835" lon="2.51981">
        <ele>77</ele>
        <time>2022-12-07T13:29:50Z</time>
      </trkpt>
      <trkpt lat="49.83836" lon="2.51982">
        <ele>77.1</ele>
        <time>2022-12-07T13:29:51Z</time>
      </trkpt>
      <trkpt lat="49.83837" lon="2.51983">
        <ele>77.2</ele>
        <time>2022-12-07T13:29:52Z</time>
      </trkpt>
      <trkpt lat="49.83838" lon="2.51983">
        <ele>77.3</ele>
        <time>2022-12-07T13:29:53Z</time>
      </trkpt>
      <trkpt lat="49.83838" lon="2.51984">
        <ele>77.4</ele>
        <time>2022-12-07T13:29:54Z</time>
      </trkpt>
      <trkpt lat="49.83839" lon="2.51984">
        <ele>77.5</ele>
        <time>2022-12-07T13:29:55Z</time>
      </trkpt>
      <trkpt lat="49.8384" lon="2.51985">
        <ele>77.6</ele>
        <time>2022-12-07T13:29:56Z</time>
      </trkpt>
      <trkpt lat="49.8384" lon="2.51985">
        <ele>77.7</ele>
        <time>2022-12-07T13:29:57Z</time>
      </trkpt>
      <trkpt lat="49.83841" lon="2.51986">
        <ele>77.8</ele>
        <time>2022-12-07T13:29:58Z</time>
      </trkpt>
      <trkpt lat="49.83842" lon="2.51987">
        <ele>77.9</ele>
        <time>2022-12-07T13:29:59Z</time>
      </trkpt>
      <trkpt lat="49.83842" lon="2.51988">
        <ele>78</ele>
        <time>2022-12-07T13:30:00Z</time>
      </trkpt>
      <trkpt lat="49.83843" lon="2.51988">
        <ele>78</ele>
        <time>2022-12-07T13:30:01Z</time>
      </trkpt>
      <trkpt lat="49.83843" lon="2.51989">
        <ele>78.1</ele>
        <time>2022-12-07T13:30:02Z</time>
      </trkpt>
      <trkpt lat="49.83844" lon="2.5199">
        <ele>78.2</ele>
        <time>2022-12-07T13:30:03Z</time>
      </trkpt>
      <trkpt lat="49.83844" lon="2.5199">
        <ele>78.3</ele>
        <time>2022-12-07T13:30:04Z</time>
      </trkpt>
      <trkpt lat="49.83845" lon="2.51991">
        <ele>78.3</ele>
        <time>2022-12-07T13:30:05Z</time>
      </trkpt>
      <trkpt lat="49.83846" lon="2.51992">
        <ele>78.4</ele>
        <time>2022-12-07T13:30:06Z</time>
      </trkpt>
      <trkpt lat="49.83846" lon="2.51992">
        <ele>78.5</ele>
        <time>2022-12-07T13:30:07Z</time>
      </trkpt>
      <trkpt lat="49.83847" lon="2.51993">
        <ele>78.5</ele>
        <time>2022-12-07T13:30:08Z</time>
      </trkpt>
      <trkpt lat="49.83847" lon="2.51993">
        <ele>78.6</ele>
        <time>2022-12-07T13:30:09Z</time>
      </trkpt>
      <trkpt lat="49.83847" lon="2.51994">
        <ele>78.7</ele>
        <time>2022-12-07T13:30:10Z</time>
      </trkpt>
      <trkpt lat="49.83848" lon="2.51994">
        <ele>78.7</ele>
        <time>2022-12-07T13:30:11Z</time>
      </trkpt>
      <trkpt lat="49.83849" lon="2.51995">
        <ele>78.8</ele>
        <time>2022-12-07T13:30:12Z</time>
      </trkpt>
      <trkpt lat="49.83849" lon="2.51995">
        <ele>78.9</ele>
        <time>2022-12-07T13:30:13Z</time>
      </trkpt>
      <trkpt lat="49.8385" lon="2.51996">
        <ele>78.9</ele>
        <time>2022-12-07T13:30:14Z</time>
      </trkpt>
      <trkpt lat="49.8385" lon="2.51996">
        <ele>79</ele>
        <time>2022-12-07T13:30:15Z</time>
      </trkpt>
      <trkpt lat="49.8385" lon="2.51997">
        <ele>79</ele>
        <time>2022-12-07T13:30:16Z</time>
      </trkpt>
      <trkpt lat="49.83851" lon="2.51998">
        <ele>79.1</ele>
        <time>2022-12-07T13:30:17Z</time>
      </trkpt>
      <trkpt lat="49.83851" lon="2.51999">
        <ele>79.2</ele>
        <time>2022-12-07T13:30:18Z</time>
      </trkpt>
      <trkpt lat="49.83852" lon="2.52">
        <ele>79.3</ele>
        <time>2022-12-07T13:30:19Z</time>
      </trkpt>
      <trkpt lat="49.83852" lon="2.52001">
        <ele>79.4</ele>
        <time>2022-12-07T13:30:20Z</time>
      </trkpt>
      <trkpt lat="49.83852" lon="2.52003">
        <ele>79.5</ele>
        <time>2022-12-07T13:30:21Z</time>
      </trkpt>
      <trkpt lat="49.83852" lon="2.52004">
        <ele>79.6</ele>
        <time>2022-12-07T13:30:22Z</time>
      </trkpt>
      <trkpt lat="49.83853" lon="2.52005">
        <ele>79.7</ele>
        <time>2022-12-07T13:30:23Z</time>
      </trkpt>
      <trkpt lat="49.83853" lon="2.52007">
        <ele>79.8</ele>
        <time>2022-12-07T13:30:24Z</time>
      </trkpt>
      <trkpt lat="49.83854" lon="2.52008">
        <ele>79.8</ele>
        <time>2022-12-07T13:30:25Z</time>
      </trkpt>
      <trkpt lat="49.83854" lon="2.52009">
        <ele>79.9</ele>
        <time>2022-12-07T13:30:26Z</time>
      </trkpt>
      <trkpt lat="49.83855" lon="2.5201">
        <ele>80</ele>
        <time>2022-12-07T13:30:27Z</time>
      </trkpt>
      <trkpt lat="49.83855" lon="2.52011">
        <ele>80.1</ele>
        <time>2022-12-07T13:30:28Z</time>
      </trkpt>
      <trkpt lat="49.83856" lon="2.52013">
        <ele>80.2</ele>
        <time>2022-12-07T13:30:29Z</time>
      </trkpt>
      <trkpt lat="49.83856" lon="2.52014">
        <ele>80.3</ele>
        <time>2022-12-07T13:30:30Z</time>
      </trkpt>
      <trkpt lat="49.83857" lon="2.52015">
        <ele>80.4</ele>
        <time>2022-12-07T13:30:31Z</time>
      </trkpt>
      <trkpt lat="49.83857" lon="2.52016">
        <ele>80.4</ele>
        <time>2022-12-07T13:30:32Z</time>
      </trkpt>
      <trkpt lat="49.83858" lon="2.52017">
        <ele>80.5</ele>
        <time>2022-12-07T13:30:33Z</time>
      </trkpt>
      <trkpt lat="49.83858" lon="2.52018">
        <ele>80.6</ele>
        <time>2022-12-07T13:30:34Z</time>
      </trkpt>
      <trkpt lat="49.83859" lon="2.52019">
        <ele>80.7</ele>
        <time>2022-12-07T13:30:35Z</time>
      </trkpt>
      <trkpt lat="49.83859" lon="2.5202">
        <ele>80.7</ele>
        <time>2022-12-07T13:30:36Z</time>
      </trkpt>
      <trkpt lat="49.83859" lon="2.52021">
        <ele>80.8</ele>
        <time>2022-12-07T13:30:37Z</time>
      </trkpt>
      <trkpt lat="49.8386" lon="2.52023">
        <ele>80.9</ele>
        <time>2022-12-07T13:30:38Z</time>
      </trkpt>
      <trkpt lat="49.8386" lon="2.52023">
        <ele>80.9</ele>
        <time>2022-12-07T13:30:39Z</time>
      </trkpt>
      <trkpt lat="49.83861" lon="2.52024">
        <ele>81</ele>
        <time>2022-12-07T13:30:40Z</time>
      </trkpt>
      <trkpt lat="49.83861" lon="2.52026">
        <ele>81.1</ele>
        <time>2022-12-07T13:30:41Z</time>
      </trkpt>
      <trkpt lat="49.83861" lon="2.52027">
        <ele>81.1</ele>
        <time>2022-12-07T13:30:42Z</time>
      </trkpt>
      <trkpt lat="49.83862" lon="2.52028">
        <ele>81.2</ele>
        <time>2022-12-07T13:30:43Z</time>
      </trkpt>
      <trkpt lat="49.83862" lon="2.5203">
        <ele>81.3</ele>
        <time>2022-12-07T13:30:44Z</time>
      </trkpt>
      <trkpt lat="49.83862" lon="2.52031">
        <ele>81.4</ele>
        <time>2022-12-07T13:30:45Z</time>
      </trkpt>
      <trkpt lat="49.83863" lon="2.52032">
        <ele>81.4</ele>
        <time>2022-12-07T13:30:46Z</time>
      </trkpt>
      <trkpt lat="49.83863" lon="2.52033">
        <ele>81.5</ele>
        <time>2022-12-07T13:30:47Z</time>
      </trkpt>
      <trkpt lat="49.83864" lon="2.52035">
        <ele>81.6</ele>
        <time>2022-12-07T13:30:48Z</time>
      </trkpt>
      <trkpt lat="49.83864" lon="2.52036">
        <ele>81.6</ele>
        <time>2022-12-07T13:30:49Z</time>
      </trkpt>
      <trkpt lat="49.83864" lon="2.52037">
        <ele>81.7</ele>
        <time>2022-12-07T13:30:50Z</time>
      </trkpt>
      <trkpt lat="49.83865" lon="2.52038">
        <ele>81.7</ele>
        <time>2022-12-07T13:30:51Z</time>
      </trkpt>
      <trkpt lat="49.83865" lon="2.52039">
        <ele>81.8</ele>
        <time>2022-12-07T13:30:52Z</time>
      </trkpt>
      <trkpt lat="49.83866" lon="2.5204">
        <ele>81.9</ele>
        <time>2022-12-07T13:30:53Z</time>
      </trkpt>
      <trkpt lat="49.83866" lon="2.52042">
        <ele>81.9</ele>
        <time>2022-12-07T13:30:54Z</time>
      </trkpt>
      <trkpt lat="49.83867" lon="2.52043">
        <ele>82</ele>
        <time>2022-12-07T13:30:55Z</time>
      </trkpt>
      <trkpt lat="49.83868" lon="2.52044">
        <ele>82</ele>
        <time>2022-12-07T13:30:56Z</time>
      </trkpt>
      <trkpt lat="49.83868" lon="2.52046">
        <ele>82.1</ele>
        <time>2022-12-07T13:30:57Z</time>
      </trkpt>
      <trkpt lat="49.83869" lon="2.52047">
        <ele>82.2</ele>
        <time>2022-12-07T13:30:58Z</time>
      </trkpt>
      <trkpt lat="49.83869" lon="2.52048">
        <ele>82.2</ele>
        <time>2022-12-07T13:30:59Z</time>
      </trkpt>
      <trkpt lat="49.83869" lon="2.52049">
        <ele>82.2</ele>
        <time>2022-12-07T13:31:00Z</time>
      </trkpt>
      <trkpt lat="49.8387" lon="2.5205">
        <ele>82.3</ele>
        <time>2022-12-07T13:31:01Z</time>
      </trkpt>
      <trkpt lat="49.8387" lon="2.52051">
        <ele>82.3</ele>
        <time>2022-12-07T13:31:02Z</time>
      </trkpt>
      <trkpt lat="49.83871" lon="2.52053">
        <ele>82.4</ele>
        <time>2022-12-07T13:31:03Z</time>
      </trkpt>
      <trkpt lat="49.83871" lon="2.52054">
        <ele>82.4</ele>
        <time>2022-12-07T13:31:04Z</time>
      </trkpt>
      <trkpt lat="49.83871" lon="2.52055">
        <ele>82.4</ele>
        <time>2022-12-07T13:31:05Z</time>
      </trkpt>
      <trkpt lat="49.83872" lon="2.52056">
        <ele>82.5</ele>
        <time>2022-12-07T13:31:06Z</time>
      </trkpt>
      <trkpt lat="49.83872" lon="2.52058">
        <ele>82.5</ele>
        <time>2022-12-07T13:31:07Z</time>
      </trkpt>
      <trkpt lat="49.83872" lon="2.52059">
        <ele>82.5</ele>
        <time>2022-12-07T13:31:08Z</time>
      </trkpt>
      <trkpt lat="49.83873" lon="2.5206">
        <ele>82.6</ele>
        <time>2022-12-07T13:31:09Z</time>
      </trkpt>
      <trkpt lat="49.83873" lon="2.52062">
        <ele>82.6</ele>
        <time>2022-12-07T13:31:10Z</time>
      </trkpt>
      <trkpt lat="49.83873" lon="2.52063">
        <ele>82.6</ele>
        <time>2022-12-07T13:31:11Z</time>
      </trkpt>
      <trkpt lat="49.83873" lon="2.52064">
        <ele>82.7</ele>
        <time>2022-12-07T13:31:12Z</time>
      </trkpt>
      <trkpt lat="49.83874" lon="2.52066">
        <ele>82.7</ele>
        <time>2022-12-07T13:31:13Z</time>
      </trkpt>
      <trkpt lat="49.83874" lon="2.52068">
        <ele>82.7</ele>
        <time>2022-12-07T13:31:14Z</time>
      </trkpt>
      <trkpt lat="49.83874" lon="2.52069">
        <ele>82.8</ele>
        <time>2022-12-07T13:31:15Z</time>
      </trkpt>
      <trkpt lat="49.83875" lon="2.5207">
        <ele>82.8</ele>
        <time>2022-12-07T13:31:16Z</time>
      </trkpt>
      <trkpt lat="49.83875" lon="2.52072">
        <ele>82.8</ele>
        <time>2022-12-07T13:31:17Z</time>
      </trkpt>
      <trkpt lat="49.83875" lon="2.52073">
        <ele>82.9</ele>
        <time>2022-12-07T13:31:18Z</time>
      </trkpt>
      <trkpt lat="49.83876" lon="2.52075">
        <ele>82.9</ele>
        <time>2022-12-07T13:31:19Z</time>
      </trkpt>
      <trkpt lat="49.83876" lon="2.52076">
        <ele>82.9</ele>
        <time>2022-12-07T13:31:20Z</time>
      </trkpt>
      <trkpt lat="49.83876" lon="2.52078">
        <ele>83</ele>
        <time>2022-12-07T13:31:21Z</time>
      </trkpt>
      <trkpt lat="49.83876" lon="2.52079">
        <ele>83</ele>
        <time>2022-12-07T13:31:22Z</time>
      </trkpt>
      <trkpt lat="49.83877" lon="2.5208">
        <ele>83</ele>
        <time>2022-12-07T13:31:23Z</time>
      </trkpt>
      <trkpt lat="49.83877" lon="2.52082">
        <ele>83.1</ele>
        <time>2022-12-07T13:31:24Z</time>
      </trkpt>
      <trkpt lat="49.83877" lon="2.52083">
        <ele>83.1</ele>
        <time>2022-12-07T13:31:25Z</time>
      </trkpt>
      <trkpt lat="49.83878" lon="2.52084">
        <ele>83.1</ele>
        <time>2022-12-07T13:31:26Z</time>
      </trkpt>
      <trkpt lat="49.83878" lon="2.52086">
        <ele>83.2</ele>
        <time>2022-12-07T13:31:27Z</time>
      </trkpt>
      <trkpt lat="49.83879" lon="2.52087">
        <ele>83.2</ele>
        <time>2022-12-07T13:31:28Z</time>
      </trkpt>
      <trkpt lat="49.83879" lon="2.52089">
        <ele>83.2</ele>
        <time>2022-12-07T13:31:29Z</time>
      </trkpt>
      <trkpt lat="49.8388" lon="2.52091">
        <ele>83.3</ele>
        <time>2022-12-07T13:31:30Z</time>
      </trkpt>
      <trkpt lat="49.8388" lon="2.52092">
        <ele>83.3</ele>
        <time>2022-12-07T13:31:31Z</time>
      </trkpt>
      <trkpt lat="49.8388" lon="2.52093">
        <ele>83.3</ele>
        <time>2022-12-07T13:31:32Z</time>
      </trkpt>
      <trkpt lat="49.83881" lon="2.52095">
        <ele>83.4</ele>
        <time>2022-12-07T13:31:33Z</time>
      </trkpt>
      <trkpt lat="49.83881" lon="2.52096">
        <ele>83.4</ele>
        <time>2022-12-07T13:31:34Z</time>
      </trkpt>
      <trkpt lat="49.83881" lon="2.52098">
        <ele>83.4</ele>
        <time>2022-12-07T13:31:35Z</time>
      </trkpt>
      <trkpt lat="49.83882" lon="2.52099">
        <ele>83.5</ele>
        <time>2022-12-07T13:31:36Z</time>
      </trkpt>
      <trkpt lat="49.83882" lon="2.52101">
        <ele>83.5</ele>
        <time>2022-12-07T13:31:37Z</time>
      </trkpt>
      <trkpt lat="49.83882" lon="2.52102">
        <ele>83.5</ele>
        <time>2022-12-07T13:31:38Z</time>
      </trkpt>
      <trkpt lat="49.83883" lon="2.52103">
        <ele>83.6</ele>
        <time>2022-12-07T13:31:39Z</time>
      </trkpt>
      <trkpt lat="49.83883" lon="2.52105">
        <ele>83.6</ele>
        <time>2022-12-07T13:31:40Z</time>
      </trkpt>
      <trkpt lat="49.83884" lon="2.52107">
        <ele>83.6</ele>
        <time>2022-12-07T13:31:41Z</time>
      </trkpt>
      <trkpt lat="49.83884" lon="2.52108">
        <ele>83.6</ele>
        <time>2022-12-07T13:31:42Z</time>
      </trkpt>
      <trkpt lat="49.83885" lon="2.5211">
        <ele>83.7</ele>
        <time>2022-12-07T13:31:43Z</time>
      </trkpt>
      <trkpt lat="49.83885" lon="2.52111">
        <ele>83.7</ele>
        <time>2022-12-07T13:31:44Z</time>
      </trkpt>
      <trkpt lat="49.83886" lon="2.52113">
        <ele>83.8</ele>
        <time>2022-12-07T13:31:45Z</time>
      </trkpt>
      <trkpt lat="49.83887" lon="2.52114">
        <ele>83.8</ele>
        <time>2022-12-07T13:31:46Z</time>
      </trkpt>
      <trkpt lat="49.83887" lon="2.52115">
        <ele>83.8</ele>
        <time>2022-12-07T13:31:47Z</time>
      </trkpt>
      <trkpt lat="49.83887" lon="2.52116">
        <ele>83.8</ele>
        <time>2022-12-07T13:31:48Z</time>
      </trkpt>
      <trkpt lat="49.83888" lon="2.52117">
        <ele>83.8</ele>
        <time>2022-12-07T13:31:49Z</time>
      </trkpt>
      <trkpt lat="49.83888" lon="2.52119">
        <ele>83.9</ele>
        <time>2022-12-07T13:31:50Z</time>
      </trkpt>
      <trkpt lat="49.83889" lon="2.5212">
        <ele>83.9</ele>
        <time>2022-12-07T13:31:51Z</time>
      </trkpt>
      <trkpt lat="49.83889" lon="2.52122">
        <ele>83.9</ele>
        <time>2022-12-07T13:31:52Z</time>
      </trkpt>
      <trkpt lat="49.83889" lon="2.52124">
        <ele>83.9</ele>
        <time>2022-12-07T13:31:53Z</time>
      </trkpt>
      <trkpt lat="49.8389" lon="2.52125">
        <ele>83.9</ele>
        <time>2022-12-07T13:31:54Z</time>
      </trkpt>
      <trkpt lat="49.8389" lon="2.52126">
        <ele>84</ele>
        <time>2022-12-07T13:31:55Z</time>
      </trkpt>
      <trkpt lat="49.83891" lon="2.52128">
        <ele>84</ele>
        <time>2022-12-07T13:31:56Z</time>
      </trkpt>
      <trkpt lat="49.83891" lon="2.5213">
        <ele>84</ele>
        <time>2022-12-07T13:31:57Z</time>
      </trkpt>
      <trkpt lat="49.83892" lon="2.52131">
        <ele>84</ele>
        <time>2022-12-07T13:31:58Z</time>
      </trkpt>
      <trkpt lat="49.83893" lon="2.52132">
        <ele>84</ele>
        <time>2022-12-07T13:31:59Z</time>
      </trkpt>
      <trkpt lat="49.83893" lon="2.52134">
        <ele>84</ele>
        <time>2022-12-07T13:32:00Z</time>
      </trkpt>
      <trkpt lat="49.83894" lon="2.52135">
        <ele>84.1</ele>
        <time>2022-12-07T13:32:01Z</time>
      </trkpt>
      <trkpt lat="49.83894" lon="2.52136">
        <ele>84.1</ele>
        <time>2022-12-07T13:32:02Z</time>
      </trkpt>
      <trkpt lat="49.83895" lon="2.52138">
        <ele>84.1</ele>
        <time>2022-12-07T13:32:03Z</time>
      </trkpt>
      <trkpt lat="49.83896" lon="2.52139">
        <ele>84.1</ele>
        <time>2022-12-07T13:32:04Z</time>
      </trkpt>
      <trkpt lat="49.83897" lon="2.5214">
        <ele>84.1</ele>
        <time>2022-12-07T13:32:05Z</time>
      </trkpt>
      <trkpt lat="49.83897" lon="2.52142">
        <ele>84.1</ele>
        <time>2022-12-07T13:32:06Z</time>
      </trkpt>
      <trkpt lat="49.83898" lon="2.52143">
        <ele>84.1</ele>
        <time>2022-12-07T13:32:07Z</time>
      </trkpt>
      <trkpt lat="49.83899" lon="2.52145">
        <ele>84.1</ele>
        <time>2022-12-07T13:32:08Z</time>
      </trkpt>
      <trkpt lat="49.83899" lon="2.52146">
        <ele>84.1</ele>
        <time>2022-12-07T13:32:09Z</time>
      </trkpt>
      <trkpt lat="49.839" lon="2.52148">
        <ele>84.2</ele>
        <time>2022-12-07T13:32:10Z</time>
      </trkpt>
      <trkpt lat="49.83901" lon="2.52149">
        <ele>84.2</ele>
        <time>2022-12-07T13:32:11Z</time>
      </trkpt>
      <trkpt lat="49.83901" lon="2.5215">
        <ele>84.2</ele>
        <time>2022-12-07T13:32:12Z</time>
      </trkpt>
      <trkpt lat="49.83902" lon="2.52152">
        <ele>84.2</ele>
        <time>2022-12-07T13:32:13Z</time>
      </trkpt>
      <trkpt lat="49.83902" lon="2.52153">
        <ele>84.2</ele>
        <time>2022-12-07T13:32:14Z</time>
      </trkpt>
      <trkpt lat="49.83903" lon="2.52155">
        <ele>84.2</ele>
        <time>2022-12-07T13:32:15Z</time>
      </trkpt>
      <trkpt lat="49.83904" lon="2.52156">
        <ele>84.2</ele>
        <time>2022-12-07T13:32:16Z</time>
      </trkpt>
      <trkpt lat="49.83904" lon="2.52157">
        <ele>84.2</ele>
        <time>2022-12-07T13:32:17Z</time>
      </trkpt>
      <trkpt lat="49.83904" lon="2.52158">
        <ele>84.2</ele>
        <time>2022-12-07T13:32:18Z</time>
      </trkpt>
      <trkpt lat="49.83905" lon="2.5216">
        <ele>84.2</ele>
        <time>2022-12-07T13:32:19Z</time>
      </trkpt>
      <trkpt lat="49.83905" lon="2.52161">
        <ele>84.2</ele>
        <time>2022-12-07T13:32:20Z</time>
      </trkpt>
      <trkpt lat="49.83906" lon="2.52163">
        <ele>84.3</ele>
        <time>2022-12-07T13:32:21Z</time>
      </trkpt>
      <trkpt lat="49.83906" lon="2.52164">
        <ele>84.3</ele>
        <time>2022-12-07T13:32:22Z</time>
      </trkpt>
      <trkpt lat="49.83907" lon="2.52166">
        <ele>84.3</ele>
        <time>2022-12-07T13:32:23Z</time>
      </trkpt>
      <trkpt lat="49.83907" lon="2.52167">
        <ele>84.3</ele>
        <time>2022-12-07T13:32:24Z</time>
      </trkpt>
      <trkpt lat="49.83907" lon="2.52168">
        <ele>84.3</ele>
        <time>2022-12-07T13:32:25Z</time>
      </trkpt>
      <trkpt lat="49.83907" lon="2.5217">
        <ele>84.3</ele>
        <time>2022-12-07T13:32:26Z</time>
      </trkpt>
      <trkpt lat="49.83908" lon="2.52171">
        <ele>84.3</ele>
        <time>2022-12-07T13:32:27Z</time>
      </trkpt>
      <trkpt lat="49.83909" lon="2.52173">
        <ele>84.3</ele>
        <time>2022-12-07T13:32:28Z</time>
      </trkpt>
      <trkpt lat="49.83909" lon="2.52174">
        <ele>84.3</ele>
        <time>2022-12-07T13:32:29Z</time>
      </trkpt>
      <trkpt lat="49.83909" lon="2.52176">
        <ele>84.3</ele>
        <time>2022-12-07T13:32:30Z</time>
      </trkpt>
      <trkpt lat="49.8391" lon="2.52177">
        <ele>84.3</ele>
        <time>2022-12-07T13:32:31Z</time>
      </trkpt>
      <trkpt lat="49.8391" lon="2.52179">
        <ele>84.3</ele>
        <time>2022-12-07T13:32:32Z</time>
      </trkpt>
      <trkpt lat="49.83911" lon="2.5218">
        <ele>84.3</ele>
        <time>2022-12-07T13:32:33Z</time>
      </trkpt>
      <trkpt lat="49.83911" lon="2.52182">
        <ele>84.3</ele>
        <time>2022-12-07T13:32:34Z</time>
      </trkpt>
      <trkpt lat="49.83912" lon="2.52183">
        <ele>84.3</ele>
        <time>2022-12-07T13:32:35Z</time>
      </trkpt>
      <trkpt lat="49.83912" lon="2.52185">
        <ele>84.4</ele>
        <time>2022-12-07T13:32:36Z</time>
      </trkpt>
      <trkpt lat="49.83913" lon="2.52186">
        <ele>84.4</ele>
        <time>2022-12-07T13:32:37Z</time>
      </trkpt>
      <trkpt lat="49.83913" lon="2.52187">
        <ele>84.4</ele>
        <time>2022-12-07T13:32:38Z</time>
      </trkpt>
      <trkpt lat="49.83914" lon="2.52189">
        <ele>84.4</ele>
        <time>2022-12-07T13:32:39Z</time>
      </trkpt>
      <trkpt lat="49.83915" lon="2.5219">
        <ele>84.4</ele>
        <time>2022-12-07T13:32:40Z</time>
      </trkpt>
      <trkpt lat="49.83915" lon="2.52192">
        <ele>84.4</ele>
        <time>2022-12-07T13:32:41Z</time>
      </trkpt>
      <trkpt lat="49.83916" lon="2.52194">
        <ele>84.4</ele>
        <time>2022-12-07T13:32:42Z</time>
      </trkpt>
      <trkpt lat="49.83916" lon="2.52195">
        <ele>84.4</ele>
        <time>2022-12-07T13:32:43Z</time>
      </trkpt>
      <trkpt lat="49.83917" lon="2.52196">
        <ele>84.4</ele>
        <time>2022-12-07T13:32:44Z</time>
      </trkpt>
      <trkpt lat="49.83917" lon="2.52198">
        <ele>84.4</ele>
        <time>2022-12-07T13:32:45Z</time>
      </trkpt>
      <trkpt lat="49.83918" lon="2.52199">
        <ele>84.4</ele>
        <time>2022-12-07T13:32:46Z</time>
      </trkpt>
      <trkpt lat="49.83918" lon="2.52201">
        <ele>84.4</ele>
        <time>2022-12-07T13:32:47Z</time>
      </trkpt>
      <trkpt lat="49.83919" lon="2.52202">
        <ele>84.4</ele>
        <time>2022-12-07T13:32:48Z</time>
      </trkpt>
      <trkpt lat="49.83919" lon="2.52203">
        <ele>84.4</ele>
        <time>2022-12-07T13:32:49Z</time>
      </trkpt>
      <trkpt lat="49.8392" lon="2.52205">
        <ele>84.4</ele>
        <time>2022-12-07T13:32:50Z</time>
      </trkpt>
      <trkpt lat="49.83921" lon="2.52206">
        <ele>84.4</ele>
        <time>2022-12-07T13:32:51Z</time>
      </trkpt>
      <trkpt lat="49.83921" lon="2.52208">
        <ele>84.4</ele>
        <time>2022-12-07T13:32:52Z</time>
      </trkpt>
      <trkpt lat="49.83922" lon="2.52209">
        <ele>84.4</ele>
        <time>2022-12-07T13:32:53Z</time>
      </trkpt>
      <trkpt lat="49.83922" lon="2.5221">
        <ele>84.4</ele>
        <time>2022-12-07T13:32:54Z</time>
      </trkpt>
      <trkpt lat="49.83922" lon="2.52211">
        <ele>84.4</ele>
        <time>2022-12-07T13:32:55Z</time>
      </trkpt>
      <trkpt lat="49.83923" lon="2.52212">
        <ele>84.4</ele>
        <time>2022-12-07T13:32:56Z</time>
      </trkpt>
      <trkpt lat="49.83923" lon="2.52214">
        <ele>84.4</ele>
        <time>2022-12-07T13:32:57Z</time>
      </trkpt>
      <trkpt lat="49.83924" lon="2.52215">
        <ele>84.4</ele>
        <time>2022-12-07T13:32:58Z</time>
      </trkpt>
      <trkpt lat="49.83924" lon="2.52217">
        <ele>84.4</ele>
        <time>2022-12-07T13:32:59Z</time>
      </trkpt>
      <trkpt lat="49.83925" lon="2.52218">
        <ele>84.4</ele>
        <time>2022-12-07T13:33:00Z</time>
      </trkpt>
      <trkpt lat="49.83925" lon="2.52219">
        <ele>84.4</ele>
        <time>2022-12-07T13:33:01Z</time>
      </trkpt>
      <trkpt lat="49.83926" lon="2.5222">
        <ele>84.4</ele>
        <time>2022-12-07T13:33:02Z</time>
      </trkpt>
      <trkpt lat="49.83926" lon="2.52222">
        <ele>84.4</ele>
        <time>2022-12-07T13:33:03Z</time>
      </trkpt>
      <trkpt lat="49.83927" lon="2.52223">
        <ele>84.4</ele>
        <time>2022-12-07T13:33:04Z</time>
      </trkpt>
      <trkpt lat="49.83927" lon="2.52225">
        <ele>84.3</ele>
        <time>2022-12-07T13:33:05Z</time>
      </trkpt>
      <trkpt lat="49.83928" lon="2.52227">
        <ele>84.3</ele>
        <time>2022-12-07T13:33:06Z</time>
      </trkpt>
      <trkpt lat="49.83928" lon="2.52228">
        <ele>84.3</ele>
        <time>2022-12-07T13:33:07Z</time>
      </trkpt>
      <trkpt lat="49.83928" lon="2.5223">
        <ele>84.3</ele>
        <time>2022-12-07T13:33:08Z</time>
      </trkpt>
      <trkpt lat="49.83929" lon="2.52231">
        <ele>84.3</ele>
        <time>2022-12-07T13:33:09Z</time>
      </trkpt>
      <trkpt lat="49.83929" lon="2.52233">
        <ele>84.3</ele>
        <time>2022-12-07T13:33:10Z</time>
      </trkpt>
      <trkpt lat="49.8393" lon="2.52234">
        <ele>84.3</ele>
        <time>2022-12-07T13:33:11Z</time>
      </trkpt>
      <trkpt lat="49.83931" lon="2.52235">
        <ele>84.3</ele>
        <time>2022-12-07T13:33:12Z</time>
      </trkpt>
      <trkpt lat="49.83931" lon="2.52237">
        <ele>84.3</ele>
        <time>2022-12-07T13:33:13Z</time>
      </trkpt>
      <trkpt lat="49.83932" lon="2.5224">
        <ele>84.2</ele>
        <time>2022-12-07T13:33:14Z</time>
      </trkpt>
      <trkpt lat="49.83932" lon="2.52241">
        <ele>84.2</ele>
        <time>2022-12-07T13:33:15Z</time>
      </trkpt>
      <trkpt lat="49.83933" lon="2.52242">
        <ele>84.2</ele>
        <time>2022-12-07T13:33:16Z</time>
      </trkpt>
      <trkpt lat="49.83934" lon="2.52245">
        <ele>84.2</ele>
        <time>2022-12-07T13:33:17Z</time>
      </trkpt>
      <trkpt lat="49.83934" lon="2.52246">
        <ele>84.2</ele>
        <time>2022-12-07T13:33:18Z</time>
      </trkpt>
      <trkpt lat="49.83934" lon="2.52247">
        <ele>84.2</ele>
        <time>2022-12-07T13:33:19Z</time>
      </trkpt>
      <trkpt lat="49.83935" lon="2.52249">
        <ele>84.2</ele>
        <time>2022-12-07T13:33:20Z</time>
      </trkpt>
      <trkpt lat="49.83936" lon="2.5225">
        <ele>84.2</ele>
        <time>2022-12-07T13:33:21Z</time>
      </trkpt>
      <trkpt lat="49.83936" lon="2.52252">
        <ele>84.1</ele>
        <time>2022-12-07T13:33:22Z</time>
      </trkpt>
      <trkpt lat="49.83937" lon="2.52253">
        <ele>84.1</ele>
        <time>2022-12-07T13:33:23Z</time>
      </trkpt>
      <trkpt lat="49.83937" lon="2.52254">
        <ele>84.1</ele>
        <time>2022-12-07T13:33:24Z</time>
      </trkpt>
      <trkpt lat="49.83938" lon="2.52256">
        <ele>84.1</ele>
        <time>2022-12-07T13:33:25Z</time>
      </trkpt>
      <trkpt lat="49.83939" lon="2.52257">
        <ele>84.1</ele>
        <time>2022-12-07T13:33:26Z</time>
      </trkpt>
      <trkpt lat="49.8394" lon="2.52259">
        <ele>84.1</ele>
        <time>2022-12-07T13:33:27Z</time>
      </trkpt>
      <trkpt lat="49.8394" lon="2.5226">
        <ele>84.1</ele>
        <time>2022-12-07T13:33:28Z</time>
      </trkpt>
      <trkpt lat="49.8394" lon="2.52261">
        <ele>84</ele>
        <time>2022-12-07T13:33:29Z</time>
      </trkpt>
      <trkpt lat="49.83941" lon="2.52263">
        <ele>84</ele>
        <time>2022-12-07T13:33:30Z</time>
      </trkpt>
      <trkpt lat="49.83941" lon="2.52264">
        <ele>84</ele>
        <time>2022-12-07T13:33:31Z</time>
      </trkpt>
      <trkpt lat="49.83942" lon="2.52265">
        <ele>84</ele>
        <time>2022-12-07T13:33:32Z</time>
      </trkpt>
      <trkpt lat="49.83942" lon="2.52266">
        <ele>84</ele>
        <time>2022-12-07T13:33:33Z</time>
      </trkpt>
      <trkpt lat="49.83943" lon="2.52268">
        <ele>84</ele>
        <time>2022-12-07T13:33:34Z</time>
      </trkpt>
      <trkpt lat="49.83943" lon="2.5227">
        <ele>84</ele>
        <time>2022-12-07T13:33:35Z</time>
      </trkpt>
      <trkpt lat="49.83943" lon="2.52272">
        <ele>83.9</ele>
        <time>2022-12-07T13:33:36Z</time>
      </trkpt>
      <trkpt lat="49.83944" lon="2.52273">
        <ele>83.9</ele>
        <time>2022-12-07T13:33:37Z</time>
      </trkpt>
      <trkpt lat="49.83944" lon="2.52276">
        <ele>83.9</ele>
        <time>2022-12-07T13:33:38Z</time>
      </trkpt>
      <trkpt lat="49.83945" lon="2.52277">
        <ele>83.9</ele>
        <time>2022-12-07T13:33:39Z</time>
      </trkpt>
      <trkpt lat="49.83945" lon="2.52278">
        <ele>83.9</ele>
        <time>2022-12-07T13:33:40Z</time>
      </trkpt>
      <trkpt lat="49.83946" lon="2.52279">
        <ele>83.9</ele>
        <time>2022-12-07T13:33:41Z</time>
      </trkpt>
      <trkpt lat="49.83946" lon="2.52281">
        <ele>83.8</ele>
        <time>2022-12-07T13:33:42Z</time>
      </trkpt>
      <trkpt lat="49.83947" lon="2.52283">
        <ele>83.8</ele>
        <time>2022-12-07T13:33:43Z</time>
      </trkpt>
      <trkpt lat="49.83947" lon="2.52284">
        <ele>83.8</ele>
        <time>2022-12-07T13:33:44Z</time>
      </trkpt>
      <trkpt lat="49.83948" lon="2.52285">
        <ele>83.8</ele>
        <time>2022-12-07T13:33:45Z</time>
      </trkpt>
      <trkpt lat="49.83948" lon="2.52287">
        <ele>83.8</ele>
        <time>2022-12-07T13:33:46Z</time>
      </trkpt>
      <trkpt lat="49.83949" lon="2.52289">
        <ele>83.7</ele>
        <time>2022-12-07T13:33:47Z</time>
      </trkpt>
      <trkpt lat="49.8395" lon="2.52291">
        <ele>83.7</ele>
        <time>2022-12-07T13:33:48Z</time>
      </trkpt>
      <trkpt lat="49.8395" lon="2.52292">
        <ele>83.7</ele>
        <time>2022-12-07T13:33:49Z</time>
      </trkpt>
      <trkpt lat="49.83951" lon="2.52294">
        <ele>83.7</ele>
        <time>2022-12-07T13:33:50Z</time>
      </trkpt>
      <trkpt lat="49.83951" lon="2.52295">
        <ele>83.7</ele>
        <time>2022-12-07T13:33:51Z</time>
      </trkpt>
      <trkpt lat="49.83952" lon="2.52297">
        <ele>83.7</ele>
        <time>2022-12-07T13:33:52Z</time>
      </trkpt>
      <trkpt lat="49.83952" lon="2.52298">
        <ele>83.6</ele>
        <time>2022-12-07T13:33:53Z</time>
      </trkpt>
      <trkpt lat="49.83952" lon="2.52299">
        <ele>83.6</ele>
        <time>2022-12-07T13:33:54Z</time>
      </trkpt>
      <trkpt lat="49.83953" lon="2.52301">
        <ele>83.6</ele>
        <time>2022-12-07T13:33:55Z</time>
      </trkpt>
      <trkpt lat="49.83953" lon="2.52303">
        <ele>83.6</ele>
        <time>2022-12-07T13:33:56Z</time>
      </trkpt>
      <trkpt lat="49.83954" lon="2.52304">
        <ele>83.6</ele>
        <time>2022-12-07T13:33:57Z</time>
      </trkpt>
      <trkpt lat="49.83954" lon="2.52306">
        <ele>83.6</ele>
        <time>2022-12-07T13:33:58Z</time>
      </trkpt>
      <trkpt lat="49.83955" lon="2.52307">
        <ele>83.5</ele>
        <time>2022-12-07T13:33:59Z</time>
      </trkpt>
      <trkpt lat="49.83956" lon="2.52309">
        <ele>83.5</ele>
        <time>2022-12-07T13:34:00Z</time>
      </trkpt>
      <trkpt lat="49.83956" lon="2.52311">
        <ele>83.5</ele>
        <time>2022-12-07T13:34:01Z</time>
      </trkpt>
      <trkpt lat="49.83957" lon="2.52312">
        <ele>83.5</ele>
        <time>2022-12-07T13:34:02Z</time>
      </trkpt>
      <trkpt lat="49.83957" lon="2.52314">
        <ele>83.5</ele>
        <time>2022-12-07T13:34:03Z</time>
      </trkpt>
      <trkpt lat="49.83958" lon="2.52315">
        <ele>83.5</ele>
        <time>2022-12-07T13:34:04Z</time>
      </trkpt>
      <trkpt lat="49.83959" lon="2.52317">
        <ele>83.4</ele>
        <time>2022-12-07T13:34:05Z</time>
      </trkpt>
      <trkpt lat="49.83959" lon="2.52318">
        <ele>83.4</ele>
        <time>2022-12-07T13:34:06Z</time>
      </trkpt>
      <trkpt lat="49.8396" lon="2.52319">
        <ele>83.4</ele>
        <time>2022-12-07T13:34:07Z</time>
      </trkpt>
      <trkpt lat="49.83961" lon="2.52321">
        <ele>83.4</ele>
        <time>2022-12-07T13:34:08Z</time>
      </trkpt>
      <trkpt lat="49.83961" lon="2.52322">
        <ele>83.4</ele>
        <time>2022-12-07T13:34:09Z</time>
      </trkpt>
      <trkpt lat="49.83962" lon="2.52324">
        <ele>83.3</ele>
        <time>2022-12-07T13:34:10Z</time>
      </trkpt>
      <trkpt lat="49.83963" lon="2.52325">
        <ele>83.3</ele>
        <time>2022-12-07T13:34:11Z</time>
      </trkpt>
      <trkpt lat="49.83963" lon="2.52327">
        <ele>83.3</ele>
        <time>2022-12-07T13:34:12Z</time>
      </trkpt>
      <trkpt lat="49.83964" lon="2.52328">
        <ele>83.3</ele>
        <time>2022-12-07T13:34:13Z</time>
      </trkpt>
      <trkpt lat="49.83964" lon="2.52329">
        <ele>83.3</ele>
        <time>2022-12-07T13:34:14Z</time>
      </trkpt>
      <trkpt lat="49.83965" lon="2.52331">
        <ele>83.2</ele>
        <time>2022-12-07T13:34:15Z</time>
      </trkpt>
      <trkpt lat="49.83966" lon="2.52332">
        <ele>83.2</ele>
        <time>2022-12-07T13:34:16Z</time>
      </trkpt>
      <trkpt lat="49.83966" lon="2.52334">
        <ele>83.2</ele>
        <time>2022-12-07T13:34:17Z</time>
      </trkpt>
      <trkpt lat="49.83967" lon="2.52335">
        <ele>83.2</ele>
        <time>2022-12-07T13:34:18Z</time>
      </trkpt>
      <trkpt lat="49.83967" lon="2.52337">
        <ele>83.1</ele>
        <time>2022-12-07T13:34:19Z</time>
      </trkpt>
      <trkpt lat="49.83968" lon="2.52338">
        <ele>83.1</ele>
        <time>2022-12-07T13:34:20Z</time>
      </trkpt>
      <trkpt lat="49.83968" lon="2.5234">
        <ele>83.1</ele>
        <time>2022-12-07T13:34:21Z</time>
      </trkpt>
      <trkpt lat="49.83969" lon="2.52342">
        <ele>83.1</ele>
        <time>2022-12-07T13:34:22Z</time>
      </trkpt>
      <trkpt lat="49.83969" lon="2.52343">
        <ele>83.1</ele>
        <time>2022-12-07T13:34:23Z</time>
      </trkpt>
      <trkpt lat="49.8397" lon="2.52345">
        <ele>83</ele>
        <time>2022-12-07T13:34:24Z</time>
      </trkpt>
      <trkpt lat="49.8397" lon="2.52346">
        <ele>83</ele>
        <time>2022-12-07T13:34:25Z</time>
      </trkpt>
      <trkpt lat="49.83971" lon="2.52348">
        <ele>83</ele>
        <time>2022-12-07T13:34:26Z</time>
      </trkpt>
      <trkpt lat="49.83972" lon="2.52349">
        <ele>83</ele>
        <time>2022-12-07T13:34:27Z</time>
      </trkpt>
      <trkpt lat="49.83973" lon="2.52352">
        <ele>82.9</ele>
        <time>2022-12-07T13:34:28Z</time>
      </trkpt>
      <trkpt lat="49.83973" lon="2.52353">
        <ele>82.9</ele>
        <time>2022-12-07T13:34:29Z</time>
      </trkpt>
      <trkpt lat="49.83974" lon="2.52354">
        <ele>82.9</ele>
        <time>2022-12-07T13:34:30Z</time>
      </trkpt>
      <trkpt lat="49.83975" lon="2.52356">
        <ele>82.9</ele>
        <time>2022-12-07T13:34:31Z</time>
      </trkpt>
      <trkpt lat="49.83975" lon="2.52357">
        <ele>82.9</ele>
        <time>2022-12-07T13:34:32Z</time>
      </trkpt>
      <trkpt lat="49.83976" lon="2.52358">
        <ele>82.8</ele>
        <time>2022-12-07T13:34:33Z</time>
      </trkpt>
      <trkpt lat="49.83977" lon="2.5236">
        <ele>82.8</ele>
        <time>2022-12-07T13:34:34Z</time>
      </trkpt>
      <trkpt lat="49.83977" lon="2.52361">
        <ele>82.8</ele>
        <time>2022-12-07T13:34:35Z</time>
      </trkpt>
      <trkpt lat="49.83978" lon="2.52362">
        <ele>82.8</ele>
        <time>2022-12-07T13:34:36Z</time>
      </trkpt>
      <trkpt lat="49.83978" lon="2.52364">
        <ele>82.8</ele>
        <time>2022-12-07T13:34:37Z</time>
      </trkpt>
      <trkpt lat="49.83979" lon="2.52365">
        <ele>82.8</ele>
        <time>2022-12-07T13:34:38Z</time>
      </trkpt>
      <trkpt lat="49.8398" lon="2.52366">
        <ele>82.7</ele>
        <time>2022-12-07T13:34:39Z</time>
      </trkpt>
      <trkpt lat="49.8398" lon="2.52368">
        <ele>82.7</ele>
        <time>2022-12-07T13:34:40Z</time>
      </trkpt>
      <trkpt lat="49.83981" lon="2.52369">
        <ele>82.7</ele>
        <time>2022-12-07T13:34:41Z</time>
      </trkpt>
      <trkpt lat="49.83981" lon="2.52371">
        <ele>82.7</ele>
        <time>2022-12-07T13:34:42Z</time>
      </trkpt>
      <trkpt lat="49.83982" lon="2.52372">
        <ele>82.7</ele>
        <time>2022-12-07T13:34:43Z</time>
      </trkpt>
      <trkpt lat="49.83982" lon="2.52373">
        <ele>82.7</ele>
        <time>2022-12-07T13:34:44Z</time>
      </trkpt>
      <trkpt lat="49.83983" lon="2.52375">
        <ele>82.7</ele>
        <time>2022-12-07T13:34:45Z</time>
      </trkpt>
      <trkpt lat="49.83983" lon="2.52376">
        <ele>82.7</ele>
        <time>2022-12-07T13:34:46Z</time>
      </trkpt>
      <trkpt lat="49.83984" lon="2.52377">
        <ele>82.7</ele>
        <time>2022-12-07T13:34:47Z</time>
      </trkpt>
      <trkpt lat="49.83985" lon="2.52378">
        <ele>82.7</ele>
        <time>2022-12-07T13:34:48Z</time>
      </trkpt>
      <trkpt lat="49.83985" lon="2.52379">
        <ele>82.7</ele>
        <time>2022-12-07T13:34:49Z</time>
      </trkpt>
      <trkpt lat="49.83986" lon="2.5238">
        <ele>82.7</ele>
        <time>2022-12-07T13:34:50Z</time>
      </trkpt>
      <trkpt lat="49.83986" lon="2.52382">
        <ele>82.7</ele>
        <time>2022-12-07T13:34:51Z</time>
      </trkpt>
      <trkpt lat="49.83987" lon="2.52383">
        <ele>82.7</ele>
        <time>2022-12-07T13:34:52Z</time>
      </trkpt>
      <trkpt lat="49.83987" lon="2.52384">
        <ele>82.7</ele>
        <time>2022-12-07T13:34:53Z</time>
      </trkpt>
      <trkpt lat="49.83988" lon="2.52385">
        <ele>82.7</ele>
        <time>2022-12-07T13:34:54Z</time>
      </trkpt>
      <trkpt lat="49.83988" lon="2.52386">
        <ele>82.7</ele>
        <time>2022-12-07T13:34:55Z</time>
      </trkpt>
      <trkpt lat="49.83989" lon="2.52387">
        <ele>82.7</ele>
        <time>2022-12-07T13:34:56Z</time>
      </trkpt>
      <trkpt lat="49.8399" lon="2.52389">
        <ele>82.7</ele>
        <time>2022-12-07T13:34:57Z</time>
      </trkpt>
      <trkpt lat="49.8399" lon="2.5239">
        <ele>82.7</ele>
        <time>2022-12-07T13:34:58Z</time>
      </trkpt>
      <trkpt lat="49.83991" lon="2.52392">
        <ele>82.7</ele>
        <time>2022-12-07T13:34:59Z</time>
      </trkpt>
      <trkpt lat="49.83991" lon="2.52393">
        <ele>82.7</ele>
        <time>2022-12-07T13:35:00Z</time>
      </trkpt>
      <trkpt lat="49.83992" lon="2.52394">
        <ele>82.7</ele>
        <time>2022-12-07T13:35:01Z</time>
      </trkpt>
      <trkpt lat="49.83992" lon="2.52396">
        <ele>82.7</ele>
        <time>2022-12-07T13:35:02Z</time>
      </trkpt>
      <trkpt lat="49.83993" lon="2.52397">
        <ele>82.7</ele>
        <time>2022-12-07T13:35:03Z</time>
      </trkpt>
      <trkpt lat="49.83993" lon="2.52399">
        <ele>82.7</ele>
        <time>2022-12-07T13:35:04Z</time>
      </trkpt>
      <trkpt lat="49.83994" lon="2.524">
        <ele>82.7</ele>
        <time>2022-12-07T13:35:05Z</time>
      </trkpt>
      <trkpt lat="49.83995" lon="2.52402">
        <ele>82.7</ele>
        <time>2022-12-07T13:35:06Z</time>
      </trkpt>
      <trkpt lat="49.83995" lon="2.52403">
        <ele>82.7</ele>
        <time>2022-12-07T13:35:07Z</time>
      </trkpt>
      <trkpt lat="49.83996" lon="2.52404">
        <ele>82.8</ele>
        <time>2022-12-07T13:35:08Z</time>
      </trkpt>
      <trkpt lat="49.83996" lon="2.52406">
        <ele>82.8</ele>
        <time>2022-12-07T13:35:09Z</time>
      </trkpt>
      <trkpt lat="49.83997" lon="2.52407">
        <ele>82.8</ele>
        <time>2022-12-07T13:35:10Z</time>
      </trkpt>
      <trkpt lat="49.83997" lon="2.52408">
        <ele>82.8</ele>
        <time>2022-12-07T13:35:11Z</time>
      </trkpt>
      <trkpt lat="49.83998" lon="2.52409">
        <ele>82.8</ele>
        <time>2022-12-07T13:35:12Z</time>
      </trkpt>
      <trkpt lat="49.83998" lon="2.52411">
        <ele>82.8</ele>
        <time>2022-12-07T13:35:13Z</time>
      </trkpt>
      <trkpt lat="49.83999" lon="2.52412">
        <ele>82.8</ele>
        <time>2022-12-07T13:35:14Z</time>
      </trkpt>
      <trkpt lat="49.83999" lon="2.52414">
        <ele>82.8</ele>
        <time>2022-12-07T13:35:15Z</time>
      </trkpt>
      <trkpt lat="49.84" lon="2.52416">
        <ele>82.8</ele>
        <time>2022-12-07T13:35:16Z</time>
      </trkpt>
      <trkpt lat="49.84" lon="2.52417">
        <ele>82.9</ele>
        <time>2022-12-07T13:35:17Z</time>
      </trkpt>
      <trkpt lat="49.84001" lon="2.52418">
        <ele>82.9</ele>
        <time>2022-12-07T13:35:18Z</time>
      </trkpt>
      <trkpt lat="49.84001" lon="2.5242">
        <ele>82.9</ele>
        <time>2022-12-07T13:35:19Z</time>
      </trkpt>
      <trkpt lat="49.84001" lon="2.52421">
        <ele>82.9</ele>
        <time>2022-12-07T13:35:20Z</time>
      </trkpt>
      <trkpt lat="49.84002" lon="2.52423">
        <ele>82.9</ele>
        <time>2022-12-07T13:35:21Z</time>
      </trkpt>
      <trkpt lat="49.84002" lon="2.52424">
        <ele>82.9</ele>
        <time>2022-12-07T13:35:22Z</time>
      </trkpt>
      <trkpt lat="49.84002" lon="2.52426">
        <ele>82.9</ele>
        <time>2022-12-07T13:35:23Z</time>
      </trkpt>
      <trkpt lat="49.84003" lon="2.52427">
        <ele>83</ele>
        <time>2022-12-07T13:35:24Z</time>
      </trkpt>
      <trkpt lat="49.84003" lon="2.52429">
        <ele>83</ele>
        <time>2022-12-07T13:35:25Z</time>
      </trkpt>
      <trkpt lat="49.84004" lon="2.5243">
        <ele>83</ele>
        <time>2022-12-07T13:35:26Z</time>
      </trkpt>
      <trkpt lat="49.84004" lon="2.52432">
        <ele>83</ele>
        <time>2022-12-07T13:35:27Z</time>
      </trkpt>
      <trkpt lat="49.84005" lon="2.52433">
        <ele>83</ele>
        <time>2022-12-07T13:35:28Z</time>
      </trkpt>
      <trkpt lat="49.84005" lon="2.52435">
        <ele>83</ele>
        <time>2022-12-07T13:35:29Z</time>
      </trkpt>
      <trkpt lat="49.84006" lon="2.52436">
        <ele>83.1</ele>
        <time>2022-12-07T13:35:30Z</time>
      </trkpt>
      <trkpt lat="49.84006" lon="2.52437">
        <ele>83.1</ele>
        <time>2022-12-07T13:35:31Z</time>
      </trkpt>
      <trkpt lat="49.84007" lon="2.52439">
        <ele>83.1</ele>
        <time>2022-12-07T13:35:32Z</time>
      </trkpt>
      <trkpt lat="49.84007" lon="2.5244">
        <ele>83.1</ele>
        <time>2022-12-07T13:35:33Z</time>
      </trkpt>
      <trkpt lat="49.84008" lon="2.52441">
        <ele>83.1</ele>
        <time>2022-12-07T13:35:34Z</time>
      </trkpt>
      <trkpt lat="49.84008" lon="2.52443">
        <ele>83.1</ele>
        <time>2022-12-07T13:35:35Z</time>
      </trkpt>
      <trkpt lat="49.84009" lon="2.52444">
        <ele>83.1</ele>
        <time>2022-12-07T13:35:36Z</time>
      </trkpt>
      <trkpt lat="49.8401" lon="2.52445">
        <ele>83.2</ele>
        <time>2022-12-07T13:35:37Z</time>
      </trkpt>
      <trkpt lat="49.84011" lon="2.52448">
        <ele>83.2</ele>
        <time>2022-12-07T13:35:38Z</time>
      </trkpt>
      <trkpt lat="49.84011" lon="2.52449">
        <ele>83.2</ele>
        <time>2022-12-07T13:35:39Z</time>
      </trkpt>
      <trkpt lat="49.84012" lon="2.5245">
        <ele>83.2</ele>
        <time>2022-12-07T13:35:40Z</time>
      </trkpt>
      <trkpt lat="49.84012" lon="2.52452">
        <ele>83.2</ele>
        <time>2022-12-07T13:35:41Z</time>
      </trkpt>
      <trkpt lat="49.84012" lon="2.52453">
        <ele>83.3</ele>
        <time>2022-12-07T13:35:42Z</time>
      </trkpt>
      <trkpt lat="49.84013" lon="2.52454">
        <ele>83.3</ele>
        <time>2022-12-07T13:35:43Z</time>
      </trkpt>
      <trkpt lat="49.84013" lon="2.52456">
        <ele>83.3</ele>
        <time>2022-12-07T13:35:44Z</time>
      </trkpt>
      <trkpt lat="49.84014" lon="2.52458">
        <ele>83.3</ele>
        <time>2022-12-07T13:35:45Z</time>
      </trkpt>
      <trkpt lat="49.84015" lon="2.52459">
        <ele>83.3</ele>
        <time>2022-12-07T13:35:46Z</time>
      </trkpt>
      <trkpt lat="49.84015" lon="2.52461">
        <ele>83.3</ele>
        <time>2022-12-07T13:35:47Z</time>
      </trkpt>
      <trkpt lat="49.84016" lon="2.52462">
        <ele>83.4</ele>
        <time>2022-12-07T13:35:48Z</time>
      </trkpt>
      <trkpt lat="49.84016" lon="2.52464">
        <ele>83.4</ele>
        <time>2022-12-07T13:35:49Z</time>
      </trkpt>
      <trkpt lat="49.84017" lon="2.52466">
        <ele>83.4</ele>
        <time>2022-12-07T13:35:50Z</time>
      </trkpt>
      <trkpt lat="49.84017" lon="2.52467">
        <ele>83.4</ele>
        <time>2022-12-07T13:35:51Z</time>
      </trkpt>
      <trkpt lat="49.84018" lon="2.52468">
        <ele>83.4</ele>
        <time>2022-12-07T13:35:52Z</time>
      </trkpt>
      <trkpt lat="49.84018" lon="2.5247">
        <ele>83.5</ele>
        <time>2022-12-07T13:35:53Z</time>
      </trkpt>
      <trkpt lat="49.84019" lon="2.52472">
        <ele>83.5</ele>
        <time>2022-12-07T13:35:54Z</time>
      </trkpt>
      <trkpt lat="49.84019" lon="2.52473">
        <ele>83.5</ele>
        <time>2022-12-07T13:35:55Z</time>
      </trkpt>
      <trkpt lat="49.8402" lon="2.52475">
        <ele>83.5</ele>
        <time>2022-12-07T13:35:56Z</time>
      </trkpt>
      <trkpt lat="49.8402" lon="2.52476">
        <ele>83.5</ele>
        <time>2022-12-07T13:35:57Z</time>
      </trkpt>
      <trkpt lat="49.84021" lon="2.52478">
        <ele>83.6</ele>
        <time>2022-12-07T13:35:58Z</time>
      </trkpt>
      <trkpt lat="49.84021" lon="2.5248">
        <ele>83.6</ele>
        <time>2022-12-07T13:35:59Z</time>
      </trkpt>
      <trkpt lat="49.84022" lon="2.52481">
        <ele>83.6</ele>
        <time>2022-12-07T13:36:00Z</time>
      </trkpt>
      <trkpt lat="49.84022" lon="2.52482">
        <ele>83.6</ele>
        <time>2022-12-07T13:36:01Z</time>
      </trkpt>
      <trkpt lat="49.84023" lon="2.52484">
        <ele>83.6</ele>
        <time>2022-12-07T13:36:02Z</time>
      </trkpt>
      <trkpt lat="49.84024" lon="2.52485">
        <ele>83.7</ele>
        <time>2022-12-07T13:36:03Z</time>
      </trkpt>
      <trkpt lat="49.84024" lon="2.52486">
        <ele>83.7</ele>
        <time>2022-12-07T13:36:04Z</time>
      </trkpt>
      <trkpt lat="49.84025" lon="2.52488">
        <ele>83.7</ele>
        <time>2022-12-07T13:36:05Z</time>
      </trkpt>
      <trkpt lat="49.84026" lon="2.52489">
        <ele>83.7</ele>
        <time>2022-12-07T13:36:06Z</time>
      </trkpt>
      <trkpt lat="49.84026" lon="2.52491">
        <ele>83.7</ele>
        <time>2022-12-07T13:36:07Z</time>
      </trkpt>
      <trkpt lat="49.84027" lon="2.52492">
        <ele>83.8</ele>
        <time>2022-12-07T13:36:08Z</time>
      </trkpt>
      <trkpt lat="49.84027" lon="2.52494">
        <ele>83.8</ele>
        <time>2022-12-07T13:36:09Z</time>
      </trkpt>
      <trkpt lat="49.84028" lon="2.52495">
        <ele>83.8</ele>
        <time>2022-12-07T13:36:10Z</time>
      </trkpt>
      <trkpt lat="49.84028" lon="2.52496">
        <ele>83.8</ele>
        <time>2022-12-07T13:36:11Z</time>
      </trkpt>
      <trkpt lat="49.84029" lon="2.52498">
        <ele>83.8</ele>
        <time>2022-12-07T13:36:12Z</time>
      </trkpt>
      <trkpt lat="49.8403" lon="2.52499">
        <ele>83.9</ele>
        <time>2022-12-07T13:36:13Z</time>
      </trkpt>
      <trkpt lat="49.8403" lon="2.525">
        <ele>83.9</ele>
        <time>2022-12-07T13:36:14Z</time>
      </trkpt>
      <trkpt lat="49.84031" lon="2.52502">
        <ele>83.9</ele>
        <time>2022-12-07T13:36:15Z</time>
      </trkpt>
      <trkpt lat="49.84032" lon="2.52504">
        <ele>83.9</ele>
        <time>2022-12-07T13:36:16Z</time>
      </trkpt>
      <trkpt lat="49.84032" lon="2.52506">
        <ele>83.9</ele>
        <time>2022-12-07T13:36:17Z</time>
      </trkpt>
      <trkpt lat="49.84033" lon="2.52507">
        <ele>84</ele>
        <time>2022-12-07T13:36:18Z</time>
      </trkpt>
      <trkpt lat="49.84034" lon="2.52508">
        <ele>84</ele>
        <time>2022-12-07T13:36:19Z</time>
      </trkpt>
      <trkpt lat="49.84034" lon="2.52509">
        <ele>84</ele>
        <time>2022-12-07T13:36:20Z</time>
      </trkpt>
      <trkpt lat="49.84035" lon="2.52511">
        <ele>84</ele>
        <time>2022-12-07T13:36:21Z</time>
      </trkpt>
      <trkpt lat="49.84035" lon="2.52513">
        <ele>84</ele>
        <time>2022-12-07T13:36:22Z</time>
      </trkpt>
      <trkpt lat="49.84036" lon="2.52514">
        <ele>84.1</ele>
        <time>2022-12-07T13:36:23Z</time>
      </trkpt>
      <trkpt lat="49.84036" lon="2.52516">
        <ele>84.1</ele>
        <time>2022-12-07T13:36:24Z</time>
      </trkpt>
      <trkpt lat="49.84037" lon="2.52517">
        <ele>84.1</ele>
        <time>2022-12-07T13:36:25Z</time>
      </trkpt>
      <trkpt lat="49.84037" lon="2.52518">
        <ele>84.1</ele>
        <time>2022-12-07T13:36:26Z</time>
      </trkpt>
      <trkpt lat="49.84037" lon="2.5252">
        <ele>84.1</ele>
        <time>2022-12-07T13:36:27Z</time>
      </trkpt>
      <trkpt lat="49.84038" lon="2.52521">
        <ele>84.2</ele>
        <time>2022-12-07T13:36:28Z</time>
      </trkpt>
      <trkpt lat="49.84038" lon="2.52523">
        <ele>84.2</ele>
        <time>2022-12-07T13:36:29Z</time>
      </trkpt>
      <trkpt lat="49.84038" lon="2.52524">
        <ele>84.2</ele>
        <time>2022-12-07T13:36:30Z</time>
      </trkpt>
      <trkpt lat="49.84039" lon="2.52526">
        <ele>84.2</ele>
        <time>2022-12-07T13:36:31Z</time>
      </trkpt>
      <trkpt lat="49.84039" lon="2.52527">
        <ele>84.2</ele>
        <time>2022-12-07T13:36:32Z</time>
      </trkpt>
      <trkpt lat="49.8404" lon="2.52528">
        <ele>84.3</ele>
        <time>2022-12-07T13:36:33Z</time>
      </trkpt>
      <trkpt lat="49.8404" lon="2.5253">
        <ele>84.3</ele>
        <time>2022-12-07T13:36:34Z</time>
      </trkpt>
      <trkpt lat="49.8404" lon="2.52531">
        <ele>84.3</ele>
        <time>2022-12-07T13:36:35Z</time>
      </trkpt>
      <trkpt lat="49.84041" lon="2.52532">
        <ele>84.3</ele>
        <time>2022-12-07T13:36:36Z</time>
      </trkpt>
      <trkpt lat="49.84041" lon="2.52534">
        <ele>84.4</ele>
        <time>2022-12-07T13:36:37Z</time>
      </trkpt>
      <trkpt lat="49.84041" lon="2.52535">
        <ele>84.4</ele>
        <time>2022-12-07T13:36:38Z</time>
      </trkpt>
      <trkpt lat="49.84041" lon="2.52536">
        <ele>84.4</ele>
        <time>2022-12-07T13:36:39Z</time>
      </trkpt>
      <trkpt lat="49.84042" lon="2.52538">
        <ele>84.4</ele>
        <time>2022-12-07T13:36:40Z</time>
      </trkpt>
      <trkpt lat="49.84042" lon="2.52539">
        <ele>84.5</ele>
        <time>2022-12-07T13:36:41Z</time>
      </trkpt>
      <trkpt lat="49.84043" lon="2.52541">
        <ele>84.5</ele>
        <time>2022-12-07T13:36:42Z</time>
      </trkpt>
      <trkpt lat="49.84043" lon="2.52542">
        <ele>84.5</ele>
        <time>2022-12-07T13:36:43Z</time>
      </trkpt>
      <trkpt lat="49.84043" lon="2.52543">
        <ele>84.5</ele>
        <time>2022-12-07T13:36:44Z</time>
      </trkpt>
      <trkpt lat="49.84044" lon="2.52545">
        <ele>84.6</ele>
        <time>2022-12-07T13:36:45Z</time>
      </trkpt>
      <trkpt lat="49.84044" lon="2.52546">
        <ele>84.6</ele>
        <time>2022-12-07T13:36:46Z</time>
      </trkpt>
      <trkpt lat="49.84044" lon="2.52547">
        <ele>84.6</ele>
        <time>2022-12-07T13:36:47Z</time>
      </trkpt>
      <trkpt lat="49.84045" lon="2.52548">
        <ele>84.6</ele>
        <time>2022-12-07T13:36:48Z</time>
      </trkpt>
      <trkpt lat="49.84045" lon="2.5255">
        <ele>84.7</ele>
        <time>2022-12-07T13:36:49Z</time>
      </trkpt>
      <trkpt lat="49.84046" lon="2.52551">
        <ele>84.7</ele>
        <time>2022-12-07T13:36:50Z</time>
      </trkpt>
      <trkpt lat="49.84046" lon="2.52552">
        <ele>84.7</ele>
        <time>2022-12-07T13:36:51Z</time>
      </trkpt>
      <trkpt lat="49.84046" lon="2.52554">
        <ele>84.7</ele>
        <time>2022-12-07T13:36:52Z</time>
      </trkpt>
      <trkpt lat="49.84047" lon="2.52555">
        <ele>84.8</ele>
        <time>2022-12-07T13:36:53Z</time>
      </trkpt>
      <trkpt lat="49.84047" lon="2.52556">
        <ele>84.8</ele>
        <time>2022-12-07T13:36:54Z</time>
      </trkpt>
      <trkpt lat="49.84048" lon="2.52557">
        <ele>84.8</ele>
        <time>2022-12-07T13:36:55Z</time>
      </trkpt>
      <trkpt lat="49.84048" lon="2.52559">
        <ele>84.8</ele>
        <time>2022-12-07T13:36:56Z</time>
      </trkpt>
      <trkpt lat="49.84049" lon="2.5256">
        <ele>84.8</ele>
        <time>2022-12-07T13:36:57Z</time>
      </trkpt>
      <trkpt lat="49.84049" lon="2.52561">
        <ele>84.9</ele>
        <time>2022-12-07T13:36:58Z</time>
      </trkpt>
      <trkpt lat="49.8405" lon="2.52562">
        <ele>84.9</ele>
        <time>2022-12-07T13:36:59Z</time>
      </trkpt>
      <trkpt lat="49.8405" lon="2.52563">
        <ele>84.9</ele>
        <time>2022-12-07T13:37:00Z</time>
      </trkpt>
      <trkpt lat="49.84051" lon="2.52565">
        <ele>84.9</ele>
        <time>2022-12-07T13:37:01Z</time>
      </trkpt>
      <trkpt lat="49.84052" lon="2.52566">
        <ele>85</ele>
        <time>2022-12-07T13:37:02Z</time>
      </trkpt>
      <trkpt lat="49.84052" lon="2.52567">
        <ele>85</ele>
        <time>2022-12-07T13:37:03Z</time>
      </trkpt>
      <trkpt lat="49.84053" lon="2.52568">
        <ele>85</ele>
        <time>2022-12-07T13:37:04Z</time>
      </trkpt>
      <trkpt lat="49.84054" lon="2.52569">
        <ele>85</ele>
        <time>2022-12-07T13:37:05Z</time>
      </trkpt>
      <trkpt lat="49.84054" lon="2.5257">
        <ele>85</ele>
        <time>2022-12-07T13:37:06Z</time>
      </trkpt>
      <trkpt lat="49.84055" lon="2.52571">
        <ele>85</ele>
        <time>2022-12-07T13:37:07Z</time>
      </trkpt>
      <trkpt lat="49.84055" lon="2.52572">
        <ele>85</ele>
        <time>2022-12-07T13:37:08Z</time>
      </trkpt>
      <trkpt lat="49.84056" lon="2.52573">
        <ele>85</ele>
        <time>2022-12-07T13:37:09Z</time>
      </trkpt>
      <trkpt lat="49.84056" lon="2.52575">
        <ele>85</ele>
        <time>2022-12-07T13:37:10Z</time>
      </trkpt>
      <trkpt lat="49.84055" lon="2.52575">
        <ele>85.1</ele>
        <time>2022-12-07T13:37:11Z</time>
      </trkpt>
      <trkpt lat="49.84055" lon="2.52576">
        <ele>85.1</ele>
        <time>2022-12-07T13:37:12Z</time>
      </trkpt>
      <trkpt lat="49.84055" lon="2.52576">
        <ele>85.1</ele>
        <time>2022-12-07T13:37:13Z</time>
      </trkpt>
      <trkpt lat="49.84054" lon="2.52576">
        <ele>85.1</ele>
        <time>2022-12-07T13:37:14Z</time>
      </trkpt>
      <trkpt lat="49.84054" lon="2.52575">
        <ele>85.1</ele>
        <time>2022-12-07T13:37:15Z</time>
      </trkpt>
      <trkpt lat="49.84054" lon="2.52575">
        <ele>85.1</ele>
        <time>2022-12-07T13:37:16Z</time>
      </trkpt>
      <trkpt lat="49.84054" lon="2.52575">
        <ele>85.1</ele>
        <time>2022-12-07T13:37:17Z</time>
      </trkpt>
      <trkpt lat="49.84054" lon="2.52575">
        <ele>85.1</ele>
        <time>2022-12-07T13:37:18Z</time>
      </trkpt>
      <trkpt lat="49.84054" lon="2.52575">
        <ele>85.1</ele>
        <time>2022-12-07T13:37:19Z</time>
      </trkpt>
      <trkpt lat="49.84054" lon="2.52575">
        <ele>85.1</ele>
        <time>2022-12-07T13:37:20Z</time>
      </trkpt>
      <trkpt lat="49.84054" lon="2.52575">
        <ele>85.1</ele>
        <time>2022-12-07T13:37:21Z</time>
      </trkpt>
      <trkpt lat="49.84054" lon="2.52575">
        <ele>85.1</ele>
        <time>2022-12-07T13:37:22Z</time>
      </trkpt>
      <trkpt lat="49.84054" lon="2.52575">
        <ele>85.1</ele>
        <time>2022-12-07T13:37:23Z</time>
      </trkpt>
      <trkpt lat="49.84054" lon="2.52575">
        <ele>85.1</ele>
        <time>2022-12-07T13:37:24Z</time>
      </trkpt>
      <trkpt lat="49.84054" lon="2.52575">
        <ele>85.1</ele>
        <time>2022-12-07T13:37:25Z</time>
      </trkpt>
      <trkpt lat="49.84054" lon="2.52575">
        <ele>85.1</ele>
        <time>2022-12-07T13:37:26Z</time>
      </trkpt>
      <trkpt lat="49.84054" lon="2.52575">
        <ele>85.1</ele>
        <time>2022-12-07T13:37:27Z</time>
      </trkpt>
      <trkpt lat="49.84054" lon="2.52575">
        <ele>85.1</ele>
        <time>2022-12-07T13:37:28Z</time>
      </trkpt>
      <trkpt lat="49.84054" lon="2.52574">
        <ele>85.1</ele>
        <time>2022-12-07T13:37:29Z</time>
      </trkpt>
      <trkpt lat="49.84054" lon="2.52574">
        <ele>85.1</ele>
        <time>2022-12-07T13:37:30Z</time>
      </trkpt>
      <trkpt lat="49.84054" lon="2.52574">
        <ele>85.1</ele>
        <time>2022-12-07T13:37:31Z</time>
      </trkpt>
      <trkpt lat="49.84054" lon="2.52574">
        <ele>85.1</ele>
        <time>2022-12-07T13:37:32Z</time>
      </trkpt>
      <trkpt lat="49.84054" lon="2.52574">
        <ele>85.1</ele>
        <time>2022-12-07T13:37:33Z</time>
      </trkpt>
      <trkpt lat="49.84054" lon="2.52574">
        <ele>85.1</ele>
        <time>2022-12-07T13:37:34Z</time>
      </trkpt>
      <trkpt lat="49.84054" lon="2.52574">
        <ele>85.1</ele>
        <time>2022-12-07T13:37:35Z</time>
      </trkpt>
      <trkpt lat="49.84054" lon="2.52574">
        <ele>85.1</ele>
        <time>2022-12-07T13:37:36Z</time>
      </trkpt>
      <trkpt lat="49.84054" lon="2.52574">
        <ele>85.1</ele>
        <time>2022-12-07T13:37:37Z</time>
      </trkpt>
      <trkpt lat="49.84054" lon="2.52574">
        <ele>85.1</ele>
        <time>2022-12-07T13:37:38Z</time>
      </trkpt>
      <trkpt lat="49.84054" lon="2.52574">
        <ele>85.1</ele>
        <time>2022-12-07T13:37:39Z</time>
      </trkpt>
      <trkpt lat="49.84054" lon="2.52574">
        <ele>85.1</ele>
        <time>2022-12-07T13:37:40Z</time>
      </trkpt>
      <trkpt lat="49.84054" lon="2.52574">
        <ele>85.1</ele>
        <time>2022-12-07T13:37:41Z</time>
      </trkpt>
      <trkpt lat="49.84054" lon="2.52574">
        <ele>85.1</ele>
        <time>2022-12-07T13:37:42Z</time>
      </trkpt>
      <trkpt lat="49.84054" lon="2.52574">
        <ele>85.1</ele>
        <time>2022-12-07T13:37:43Z</time>
      </trkpt>
      <trkpt lat="49.84054" lon="2.52574">
        <ele>85.1</ele>
        <time>2022-12-07T13:37:44Z</time>
      </trkpt>
      <trkpt lat="49.84054" lon="2.52574">
        <ele>85.1</ele>
        <time>2022-12-07T13:37:45Z</time>
      </trkpt>
      <trkpt lat="49.84054" lon="2.52574">
        <ele>85.1</ele>
        <time>2022-12-07T13:37:46Z</time>
      </trkpt>
      <trkpt lat="49.84054" lon="2.52574">
        <ele>85.1</ele>
        <time>2022-12-07T13:37:47Z</time>
      </trkpt>
      <trkpt lat="49.84054" lon="2.52574">
        <ele>85.1</ele>
        <time>2022-12-07T13:37:48Z</time>
      </trkpt>
      <trkpt lat="49.84054" lon="2.52574">
        <ele>85.1</ele>
        <time>2022-12-07T13:37:49Z</time>
      </trkpt>
      <trkpt lat="49.84054" lon="2.52574">
        <ele>85.1</ele>
        <time>2022-12-07T13:37:50Z</time>
      </trkpt>
      <trkpt lat="49.84054" lon="2.52574">
        <ele>85.1</ele>
        <time>2022-12-07T13:37:51Z</time>
      </trkpt>
      <trkpt lat="49.84054" lon="2.52574">
        <ele>85.1</ele>
        <time>2022-12-07T13:37:52Z</time>
      </trkpt>
      <trkpt lat="49.84054" lon="2.52574">
        <ele>85.1</ele>
        <time>2022-12-07T13:37:53Z</time>
      </trkpt>
      <trkpt lat="49.84054" lon="2.52574">
        <ele>85.1</ele>
        <time>2022-12-07T13:37:54Z</time>
      </trkpt>
      <trkpt lat="49.84054" lon="2.52574">
        <ele>85.1</ele>
        <time>2022-12-07T13:37:55Z</time>
      </trkpt>
      <trkpt lat="49.84054" lon="2.52574">
        <ele>85.1</ele>
        <time>2022-12-07T13:37:56Z</time>
      </trkpt>
      <trkpt lat="49.84054" lon="2.52574">
        <ele>85.1</ele>
        <time>2022-12-07T13:37:57Z</time>
      </trkpt>
      <trkpt lat="49.84054" lon="2.52574">
        <ele>85.1</ele>
        <time>2022-12-07T13:37:58Z</time>
      </trkpt>
      <trkpt lat="49.84054" lon="2.52574">
        <ele>85.1</ele>
        <time>2022-12-07T13:37:59Z</time>
      </trkpt>
      <trkpt lat="49.84054" lon="2.52574">
        <ele>85.1</ele>
        <time>2022-12-07T13:38:00Z</time>
      </trkpt>
      <trkpt lat="49.84054" lon="2.52574">
        <ele>85.1</ele>
        <time>2022-12-07T13:38:01Z</time>
      </trkpt>
      <trkpt lat="49.84054" lon="2.52574">
        <ele>85.1</ele>
        <time>2022-12-07T13:38:02Z</time>
      </trkpt>
      <trkpt lat="49.84054" lon="2.52574">
        <ele>85.1</ele>
        <time>2022-12-07T13:38:03Z</time>
      </trkpt>
      <trkpt lat="49.84054" lon="2.52574">
        <ele>85.1</ele>
        <time>2022-12-07T13:38:04Z</time>
      </trkpt>
      <trkpt lat="49.84054" lon="2.52574">
        <ele>85.1</ele>
        <time>2022-12-07T13:38:05Z</time>
      </trkpt>
      <trkpt lat="49.84054" lon="2.52574">
        <ele>85.1</ele>
        <time>2022-12-07T13:38:06Z</time>
      </trkpt>
      <trkpt lat="49.84054" lon="2.52574">
        <ele>85.1</ele>
        <time>2022-12-07T13:38:07Z</time>
      </trkpt>
      <trkpt lat="49.84054" lon="2.52574">
        <ele>85.1</ele>
        <time>2022-12-07T13:38:08Z</time>
      </trkpt>
      <trkpt lat="49.84054" lon="2.52574">
        <ele>85.1</ele>
        <time>2022-12-07T13:38:09Z</time>
      </trkpt>
      <trkpt lat="49.84054" lon="2.52574">
        <ele>85.1</ele>
        <time>2022-12-07T13:38:10Z</time>
      </trkpt>
      <trkpt lat="49.84054" lon="2.52574">
        <ele>85.1</ele>
        <time>2022-12-07T13:38:11Z</time>
      </trkpt>
      <trkpt lat="49.84054" lon="2.52574">
        <ele>85.1</ele>
        <time>2022-12-07T13:38:12Z</time>
      </trkpt>
      <trkpt lat="49.84054" lon="2.52574">
        <ele>85.1</ele>
        <time>2022-12-07T13:38:13Z</time>
      </trkpt>
      <trkpt lat="49.84054" lon="2.52574">
        <ele>85.1</ele>
        <time>2022-12-07T13:38:14Z</time>
      </trkpt>
      <trkpt lat="49.84054" lon="2.52574">
        <ele>85.1</ele>
        <time>2022-12-07T13:38:15Z</time>
      </trkpt>
      <trkpt lat="49.84054" lon="2.52574">
        <ele>85.1</ele>
        <time>2022-12-07T13:38:16Z</time>
      </trkpt>
      <trkpt lat="49.84054" lon="2.52574">
        <ele>85.1</ele>
        <time>2022-12-07T13:38:17Z</time>
      </trkpt>
      <trkpt lat="49.84054" lon="2.52574">
        <ele>85.1</ele>
        <time>2022-12-07T13:38:18Z</time>
      </trkpt>
      <trkpt lat="49.84054" lon="2.52574">
        <ele>85.1</ele>
        <time>2022-12-07T13:38:19Z</time>
      </trkpt>
      <trkpt lat="49.84054" lon="2.52574">
        <ele>85.1</ele>
        <time>2022-12-07T13:38:20Z</time>
      </trkpt>
      <trkpt lat="49.84054" lon="2.52574">
        <ele>85.1</ele>
        <time>2022-12-07T13:38:21Z</time>
      </trkpt>
      <trkpt lat="49.84054" lon="2.52574">
        <ele>85.1</ele>
        <time>2022-12-07T13:38:22Z</time>
      </trkpt>
      <trkpt lat="49.84054" lon="2.52574">
        <ele>85.1</ele>
        <time>2022-12-07T13:38:23Z</time>
      </trkpt>
      <trkpt lat="49.84054" lon="2.52574">
        <ele>85.1</ele>
        <time>2022-12-07T13:38:24Z</time>
      </trkpt>
      <trkpt lat="49.84054" lon="2.52574">
        <ele>85.1</ele>
        <time>2022-12-07T13:38:25Z</time>
      </trkpt>
      <trkpt lat="49.84054" lon="2.52574">
        <ele>85.1</ele>
        <time>2022-12-07T13:38:26Z</time>
      </trkpt>
      <trkpt lat="49.84054" lon="2.52574">
        <ele>85.1</ele>
        <time>2022-12-07T13:38:27Z</time>
      </trkpt>
      <trkpt lat="49.84053" lon="2.52572">
        <ele>85.1</ele>
        <time>2022-12-07T13:38:28Z</time>
      </trkpt>
      <trkpt lat="49.84053" lon="2.52571">
        <ele>85.1</ele>
        <time>2022-12-07T13:38:29Z</time>
      </trkpt>
      <trkpt lat="49.84053" lon="2.52572">
        <ele>85.1</ele>
        <time>2022-12-07T13:38:30Z</time>
      </trkpt>
      <trkpt lat="49.84053" lon="2.52572">
        <ele>85.1</ele>
        <time>2022-12-07T13:38:31Z</time>
      </trkpt>
      <trkpt lat="49.84053" lon="2.52573">
        <ele>85.1</ele>
        <time>2022-12-07T13:38:32Z</time>
      </trkpt>
      <trkpt lat="49.84052" lon="2.52573">
        <ele>85.1</ele>
        <time>2022-12-07T13:38:33Z</time>
      </trkpt>
      <trkpt lat="49.84052" lon="2.52574">
        <ele>85.1</ele>
        <time>2022-12-07T13:38:34Z</time>
      </trkpt>
      <trkpt lat="49.84052" lon="2.52575">
        <ele>85.1</ele>
        <time>2022-12-07T13:38:35Z</time>
      </trkpt>
      <trkpt lat="49.84051" lon="2.52575">
        <ele>85.1</ele>
        <time>2022-12-07T13:38:36Z</time>
      </trkpt>
      <trkpt lat="49.84051" lon="2.52576">
        <ele>85.1</ele>
        <time>2022-12-07T13:38:37Z</time>
      </trkpt>
      <trkpt lat="49.84051" lon="2.52576">
        <ele>84.8</ele>
        <time>2022-12-07T13:38:38Z</time>
      </trkpt>
      <trkpt lat="49.84051" lon="2.52577">
        <ele>84.8</ele>
        <time>2022-12-07T13:38:39Z</time>
      </trkpt>
      <trkpt lat="49.8405" lon="2.52578">
        <ele>84.7</ele>
        <time>2022-12-07T13:38:40Z</time>
      </trkpt>
      <trkpt lat="49.8405" lon="2.52578">
        <ele>84.7</ele>
        <time>2022-12-07T13:38:41Z</time>
      </trkpt>
      <trkpt lat="49.84049" lon="2.52578">
        <ele>84.7</ele>
        <time>2022-12-07T13:38:42Z</time>
      </trkpt>
      <trkpt lat="49.84049" lon="2.52578">
        <ele>84.6</ele>
        <time>2022-12-07T13:38:43Z</time>
      </trkpt>
      <trkpt lat="49.84048" lon="2.52579">
        <ele>84.6</ele>
        <time>2022-12-07T13:38:44Z</time>
      </trkpt>
      <trkpt lat="49.84047" lon="2.52579">
        <ele>84.6</ele>
        <time>2022-12-07T13:38:45Z</time>
      </trkpt>
      <trkpt lat="49.84047" lon="2.52579">
        <ele>84.5</ele>
        <time>2022-12-07T13:38:46Z</time>
      </trkpt>
      <trkpt lat="49.84046" lon="2.52579">
        <ele>84.5</ele>
        <time>2022-12-07T13:38:47Z</time>
      </trkpt>
      <trkpt lat="49.84046" lon="2.52578">
        <ele>84.4</ele>
        <time>2022-12-07T13:38:48Z</time>
      </trkpt>
      <trkpt lat="49.84045" lon="2.52577">
        <ele>84.4</ele>
        <time>2022-12-07T13:38:49Z</time>
      </trkpt>
      <trkpt lat="49.84044" lon="2.52577">
        <ele>84.3</ele>
        <time>2022-12-07T13:38:50Z</time>
      </trkpt>
      <trkpt lat="49.84044" lon="2.52576">
        <ele>84.3</ele>
        <time>2022-12-07T13:38:51Z</time>
      </trkpt>
      <trkpt lat="49.84043" lon="2.52575">
        <ele>84.3</ele>
        <time>2022-12-07T13:38:52Z</time>
      </trkpt>
      <trkpt lat="49.84042" lon="2.52575">
        <ele>84.2</ele>
        <time>2022-12-07T13:38:53Z</time>
      </trkpt>
      <trkpt lat="49.84041" lon="2.52575">
        <ele>84.2</ele>
        <time>2022-12-07T13:38:54Z</time>
      </trkpt>
      <trkpt lat="49.84041" lon="2.52574">
        <ele>84.1</ele>
        <time>2022-12-07T13:38:55Z</time>
      </trkpt>
      <trkpt lat="49.8404" lon="2.52574">
        <ele>84.1</ele>
        <time>2022-12-07T13:38:56Z</time>
      </trkpt>
      <trkpt lat="49.84039" lon="2.52574">
        <ele>84</ele>
        <time>2022-12-07T13:38:57Z</time>
      </trkpt>
      <trkpt lat="49.84038" lon="2.52573">
        <ele>84</ele>
        <time>2022-12-07T13:38:58Z</time>
      </trkpt>
      <trkpt lat="49.84037" lon="2.52572">
        <ele>83.9</ele>
        <time>2022-12-07T13:38:59Z</time>
      </trkpt>
      <trkpt lat="49.84036" lon="2.52571">
        <ele>83.8</ele>
        <time>2022-12-07T13:39:00Z</time>
      </trkpt>
      <trkpt lat="49.84035" lon="2.52571">
        <ele>83.8</ele>
        <time>2022-12-07T13:39:01Z</time>
      </trkpt>
      <trkpt lat="49.84033" lon="2.52569">
        <ele>83.6</ele>
        <time>2022-12-07T13:39:02Z</time>
      </trkpt>
      <trkpt lat="49.84033" lon="2.52569">
        <ele>83.6</ele>
        <time>2022-12-07T13:39:03Z</time>
      </trkpt>
      <trkpt lat="49.84032" lon="2.52569">
        <ele>83.5</ele>
        <time>2022-12-07T13:39:04Z</time>
      </trkpt>
      <trkpt lat="49.8403" lon="2.52567">
        <ele>83.4</ele>
        <time>2022-12-07T13:39:05Z</time>
      </trkpt>
      <trkpt lat="49.84029" lon="2.52567">
        <ele>83.3</ele>
        <time>2022-12-07T13:39:06Z</time>
      </trkpt>
      <trkpt lat="49.84028" lon="2.52566">
        <ele>83.3</ele>
        <time>2022-12-07T13:39:07Z</time>
      </trkpt>
      <trkpt lat="49.84026" lon="2.52565">
        <ele>83.2</ele>
        <time>2022-12-07T13:39:08Z</time>
      </trkpt>
      <trkpt lat="49.84025" lon="2.52565">
        <ele>83.1</ele>
        <time>2022-12-07T13:39:09Z</time>
      </trkpt>
      <trkpt lat="49.84024" lon="2.52564">
        <ele>83.1</ele>
        <time>2022-12-07T13:39:10Z</time>
      </trkpt>
      <trkpt lat="49.84023" lon="2.52564">
        <ele>83</ele>
        <time>2022-12-07T13:39:11Z</time>
      </trkpt>
      <trkpt lat="49.84022" lon="2.52563">
        <ele>82.9</ele>
        <time>2022-12-07T13:39:12Z</time>
      </trkpt>
      <trkpt lat="49.8402" lon="2.52562">
        <ele>82.8</ele>
        <time>2022-12-07T13:39:13Z</time>
      </trkpt>
      <trkpt lat="49.84019" lon="2.52561">
        <ele>82.7</ele>
        <time>2022-12-07T13:39:14Z</time>
      </trkpt>
      <trkpt lat="49.84018" lon="2.52561">
        <ele>82.7</ele>
        <time>2022-12-07T13:39:15Z</time>
      </trkpt>
      <trkpt lat="49.84016" lon="2.5256">
        <ele>82.5</ele>
        <time>2022-12-07T13:39:16Z</time>
      </trkpt>
      <trkpt lat="49.84015" lon="2.52559">
        <ele>82.5</ele>
        <time>2022-12-07T13:39:17Z</time>
      </trkpt>
      <trkpt lat="49.84014" lon="2.52559">
        <ele>82.4</ele>
        <time>2022-12-07T13:39:18Z</time>
      </trkpt>
      <trkpt lat="49.84013" lon="2.52558">
        <ele>82.3</ele>
        <time>2022-12-07T13:39:19Z</time>
      </trkpt>
      <trkpt lat="49.84012" lon="2.52557">
        <ele>82.3</ele>
        <time>2022-12-07T13:39:20Z</time>
      </trkpt>
      <trkpt lat="49.8401" lon="2.52557">
        <ele>82.2</ele>
        <time>2022-12-07T13:39:21Z</time>
      </trkpt>
      <trkpt lat="49.84009" lon="2.52556">
        <ele>82.1</ele>
        <time>2022-12-07T13:39:22Z</time>
      </trkpt>
      <trkpt lat="49.84008" lon="2.52555">
        <ele>82.1</ele>
        <time>2022-12-07T13:39:23Z</time>
      </trkpt>
      <trkpt lat="49.84007" lon="2.52555">
        <ele>82</ele>
        <time>2022-12-07T13:39:24Z</time>
      </trkpt>
      <trkpt lat="49.84006" lon="2.52555">
        <ele>81.9</ele>
        <time>2022-12-07T13:39:25Z</time>
      </trkpt>
      <trkpt lat="49.84005" lon="2.52554">
        <ele>81.9</ele>
        <time>2022-12-07T13:39:26Z</time>
      </trkpt>
      <trkpt lat="49.84004" lon="2.52554">
        <ele>81.8</ele>
        <time>2022-12-07T13:39:27Z</time>
      </trkpt>
      <trkpt lat="49.84003" lon="2.52553">
        <ele>81.7</ele>
        <time>2022-12-07T13:39:28Z</time>
      </trkpt>
      <trkpt lat="49.84002" lon="2.52553">
        <ele>81.6</ele>
        <time>2022-12-07T13:39:29Z</time>
      </trkpt>
      <trkpt lat="49.84" lon="2.52553">
        <ele>81.6</ele>
        <time>2022-12-07T13:39:30Z</time>
      </trkpt>
      <trkpt lat="49.83999" lon="2.52553">
        <ele>81.5</ele>
        <time>2022-12-07T13:39:31Z</time>
      </trkpt>
      <trkpt lat="49.83998" lon="2.52552">
        <ele>81.4</ele>
        <time>2022-12-07T13:39:32Z</time>
      </trkpt>
      <trkpt lat="49.83997" lon="2.52552">
        <ele>81.3</ele>
        <time>2022-12-07T13:39:33Z</time>
      </trkpt>
      <trkpt lat="49.83996" lon="2.52552">
        <ele>81.3</ele>
        <time>2022-12-07T13:39:34Z</time>
      </trkpt>
      <trkpt lat="49.83995" lon="2.52551">
        <ele>81.2</ele>
        <time>2022-12-07T13:39:35Z</time>
      </trkpt>
      <trkpt lat="49.83994" lon="2.52551">
        <ele>81.1</ele>
        <time>2022-12-07T13:39:36Z</time>
      </trkpt>
      <trkpt lat="49.83993" lon="2.52551">
        <ele>81.1</ele>
        <time>2022-12-07T13:39:37Z</time>
      </trkpt>
      <trkpt lat="49.83992" lon="2.5255">
        <ele>81</ele>
        <time>2022-12-07T13:39:38Z</time>
      </trkpt>
      <trkpt lat="49.83991" lon="2.5255">
        <ele>80.9</ele>
        <time>2022-12-07T13:39:39Z</time>
      </trkpt>
      <trkpt lat="49.8399" lon="2.5255">
        <ele>80.9</ele>
        <time>2022-12-07T13:39:40Z</time>
      </trkpt>
      <trkpt lat="49.83989" lon="2.5255">
        <ele>80.8</ele>
        <time>2022-12-07T13:39:41Z</time>
      </trkpt>
      <trkpt lat="49.83988" lon="2.5255">
        <ele>80.8</ele>
        <time>2022-12-07T13:39:42Z</time>
      </trkpt>
      <trkpt lat="49.83987" lon="2.52549">
        <ele>80.7</ele>
        <time>2022-12-07T13:39:43Z</time>
      </trkpt>
      <trkpt lat="49.83986" lon="2.5255">
        <ele>80.7</ele>
        <time>2022-12-07T13:39:44Z</time>
      </trkpt>
      <trkpt lat="49.83985" lon="2.5255">
        <ele>80.6</ele>
        <time>2022-12-07T13:39:45Z</time>
      </trkpt>
      <trkpt lat="49.83984" lon="2.5255">
        <ele>80.5</ele>
        <time>2022-12-07T13:39:46Z</time>
      </trkpt>
      <trkpt lat="49.83983" lon="2.5255">
        <ele>80.5</ele>
        <time>2022-12-07T13:39:47Z</time>
      </trkpt>
      <trkpt lat="49.83982" lon="2.52551">
        <ele>80.4</ele>
        <time>2022-12-07T13:39:48Z</time>
      </trkpt>
      <trkpt lat="49.83981" lon="2.52551">
        <ele>80.3</ele>
        <time>2022-12-07T13:39:49Z</time>
      </trkpt>
      <trkpt lat="49.8398" lon="2.52552">
        <ele>80.3</ele>
        <time>2022-12-07T13:39:50Z</time>
      </trkpt>
      <trkpt lat="49.83979" lon="2.52552">
        <ele>80.2</ele>
        <time>2022-12-07T13:39:51Z</time>
      </trkpt>
      <trkpt lat="49.83978" lon="2.52552">
        <ele>80.1</ele>
        <time>2022-12-07T13:39:52Z</time>
      </trkpt>
      <trkpt lat="49.83977" lon="2.52551">
        <ele>80.1</ele>
        <time>2022-12-07T13:39:53Z</time>
      </trkpt>
      <trkpt lat="49.83975" lon="2.52551">
        <ele>80</ele>
        <time>2022-12-07T13:39:54Z</time>
      </trkpt>
      <trkpt lat="49.83974" lon="2.5255">
        <ele>79.9</ele>
        <time>2022-12-07T13:39:55Z</time>
      </trkpt>
      <trkpt lat="49.83973" lon="2.5255">
        <ele>79.8</ele>
        <time>2022-12-07T13:39:56Z</time>
      </trkpt>
      <trkpt lat="49.83971" lon="2.52548">
        <ele>79.7</ele>
        <time>2022-12-07T13:39:57Z</time>
      </trkpt>
      <trkpt lat="49.83971" lon="2.52548">
        <ele>79.7</ele>
        <time>2022-12-07T13:39:58Z</time>
      </trkpt>
      <trkpt lat="49.8397" lon="2.52547">
        <ele>79.6</ele>
        <time>2022-12-07T13:39:59Z</time>
      </trkpt>
      <trkpt lat="49.83968" lon="2.52546">
        <ele>79.5</ele>
        <time>2022-12-07T13:40:00Z</time>
      </trkpt>
      <trkpt lat="49.83967" lon="2.52545">
        <ele>79.4</ele>
        <time>2022-12-07T13:40:01Z</time>
      </trkpt>
      <trkpt lat="49.83967" lon="2.52544">
        <ele>79.4</ele>
        <time>2022-12-07T13:40:02Z</time>
      </trkpt>
      <trkpt lat="49.83966" lon="2.52544">
        <ele>79.3</ele>
        <time>2022-12-07T13:40:03Z</time>
      </trkpt>
      <trkpt lat="49.83964" lon="2.52543">
        <ele>79.2</ele>
        <time>2022-12-07T13:40:04Z</time>
      </trkpt>
      <trkpt lat="49.83963" lon="2.52542">
        <ele>79.1</ele>
        <time>2022-12-07T13:40:05Z</time>
      </trkpt>
      <trkpt lat="49.83962" lon="2.52541">
        <ele>79.1</ele>
        <time>2022-12-07T13:40:06Z</time>
      </trkpt>
      <trkpt lat="49.83961" lon="2.52541">
        <ele>79</ele>
        <time>2022-12-07T13:40:07Z</time>
      </trkpt>
      <trkpt lat="49.8396" lon="2.5254">
        <ele>78.9</ele>
        <time>2022-12-07T13:40:08Z</time>
      </trkpt>
      <trkpt lat="49.83959" lon="2.52539">
        <ele>78.9</ele>
        <time>2022-12-07T13:40:09Z</time>
      </trkpt>
      <trkpt lat="49.83958" lon="2.52539">
        <ele>78.8</ele>
        <time>2022-12-07T13:40:10Z</time>
      </trkpt>
      <trkpt lat="49.83957" lon="2.52538">
        <ele>78.8</ele>
        <time>2022-12-07T13:40:11Z</time>
      </trkpt>
      <trkpt lat="49.83956" lon="2.52537">
        <ele>78.7</ele>
        <time>2022-12-07T13:40:12Z</time>
      </trkpt>
      <trkpt lat="49.83955" lon="2.52536">
        <ele>78.6</ele>
        <time>2022-12-07T13:40:13Z</time>
      </trkpt>
      <trkpt lat="49.83953" lon="2.52535">
        <ele>78.5</ele>
        <time>2022-12-07T13:40:14Z</time>
      </trkpt>
      <trkpt lat="49.83952" lon="2.52535">
        <ele>78.4</ele>
        <time>2022-12-07T13:40:15Z</time>
      </trkpt>
      <trkpt lat="49.83951" lon="2.52534">
        <ele>78.4</ele>
        <time>2022-12-07T13:40:16Z</time>
      </trkpt>
      <trkpt lat="49.83949" lon="2.52533">
        <ele>78.3</ele>
        <time>2022-12-07T13:40:17Z</time>
      </trkpt>
      <trkpt lat="49.83948" lon="2.52533">
        <ele>78.2</ele>
        <time>2022-12-07T13:40:18Z</time>
      </trkpt>
      <trkpt lat="49.83947" lon="2.52532">
        <ele>78.2</ele>
        <time>2022-12-07T13:40:19Z</time>
      </trkpt>
      <trkpt lat="49.83946" lon="2.52531">
        <ele>78.1</ele>
        <time>2022-12-07T13:40:20Z</time>
      </trkpt>
      <trkpt lat="49.83945" lon="2.5253">
        <ele>78</ele>
        <time>2022-12-07T13:40:21Z</time>
      </trkpt>
      <trkpt lat="49.83944" lon="2.5253">
        <ele>78</ele>
        <time>2022-12-07T13:40:22Z</time>
      </trkpt>
      <trkpt lat="49.83942" lon="2.52528">
        <ele>77.9</ele>
        <time>2022-12-07T13:40:23Z</time>
      </trkpt>
      <trkpt lat="49.83941" lon="2.52528">
        <ele>77.8</ele>
        <time>2022-12-07T13:40:24Z</time>
      </trkpt>
      <trkpt lat="49.8394" lon="2.52527">
        <ele>77.8</ele>
        <time>2022-12-07T13:40:25Z</time>
      </trkpt>
      <trkpt lat="49.83939" lon="2.52526">
        <ele>77.7</ele>
        <time>2022-12-07T13:40:26Z</time>
      </trkpt>
      <trkpt lat="49.83938" lon="2.52525">
        <ele>77.7</ele>
        <time>2022-12-07T13:40:27Z</time>
      </trkpt>
      <trkpt lat="49.83936" lon="2.52524">
        <ele>77.6</ele>
        <time>2022-12-07T13:40:28Z</time>
      </trkpt>
      <trkpt lat="49.83935" lon="2.52524">
        <ele>77.5</ele>
        <time>2022-12-07T13:40:29Z</time>
      </trkpt>
      <trkpt lat="49.83934" lon="2.52523">
        <ele>77.4</ele>
        <time>2022-12-07T13:40:30Z</time>
      </trkpt>
      <trkpt lat="49.83932" lon="2.52522">
        <ele>77.4</ele>
        <time>2022-12-07T13:40:31Z</time>
      </trkpt>
      <trkpt lat="49.83931" lon="2.52522">
        <ele>77.3</ele>
        <time>2022-12-07T13:40:32Z</time>
      </trkpt>
      <trkpt lat="49.8393" lon="2.52521">
        <ele>77.3</ele>
        <time>2022-12-07T13:40:33Z</time>
      </trkpt>
      <trkpt lat="49.83929" lon="2.5252">
        <ele>77.2</ele>
        <time>2022-12-07T13:40:34Z</time>
      </trkpt>
      <trkpt lat="49.83927" lon="2.52519">
        <ele>77.1</ele>
        <time>2022-12-07T13:40:35Z</time>
      </trkpt>
      <trkpt lat="49.83926" lon="2.52519">
        <ele>77.1</ele>
        <time>2022-12-07T13:40:36Z</time>
      </trkpt>
      <trkpt lat="49.83926" lon="2.52519">
        <ele>77</ele>
        <time>2022-12-07T13:40:37Z</time>
      </trkpt>
      <trkpt lat="49.83925" lon="2.52518">
        <ele>77</ele>
        <time>2022-12-07T13:40:38Z</time>
      </trkpt>
      <trkpt lat="49.83923" lon="2.52518">
        <ele>76.9</ele>
        <time>2022-12-07T13:40:39Z</time>
      </trkpt>
      <trkpt lat="49.83922" lon="2.52517">
        <ele>76.9</ele>
        <time>2022-12-07T13:40:40Z</time>
      </trkpt>
      <trkpt lat="49.83921" lon="2.52517">
        <ele>76.8</ele>
        <time>2022-12-07T13:40:41Z</time>
      </trkpt>
      <trkpt lat="49.8392" lon="2.52517">
        <ele>76.8</ele>
        <time>2022-12-07T13:40:42Z</time>
      </trkpt>
      <trkpt lat="49.83919" lon="2.52517">
        <ele>76.7</ele>
        <time>2022-12-07T13:40:43Z</time>
      </trkpt>
      <trkpt lat="49.83918" lon="2.52517">
        <ele>76.7</ele>
        <time>2022-12-07T13:40:44Z</time>
      </trkpt>
      <trkpt lat="49.83916" lon="2.52517">
        <ele>76.6</ele>
        <time>2022-12-07T13:40:45Z</time>
      </trkpt>
      <trkpt lat="49.83916" lon="2.52517">
        <ele>76.6</ele>
        <time>2022-12-07T13:40:46Z</time>
      </trkpt>
      <trkpt lat="49.83915" lon="2.52517">
        <ele>76.5</ele>
        <time>2022-12-07T13:40:47Z</time>
      </trkpt>
      <trkpt lat="49.83914" lon="2.52518">
        <ele>76.5</ele>
        <time>2022-12-07T13:40:48Z</time>
      </trkpt>
      <trkpt lat="49.83912" lon="2.52518">
        <ele>76.5</ele>
        <time>2022-12-07T13:40:49Z</time>
      </trkpt>
      <trkpt lat="49.83911" lon="2.52518">
        <ele>76.4</ele>
        <time>2022-12-07T13:40:50Z</time>
      </trkpt>
      <trkpt lat="49.8391" lon="2.52517">
        <ele>76.4</ele>
        <time>2022-12-07T13:40:51Z</time>
      </trkpt>
      <trkpt lat="49.83909" lon="2.52517">
        <ele>76.3</ele>
        <time>2022-12-07T13:40:52Z</time>
      </trkpt>
      <trkpt lat="49.83908" lon="2.52517">
        <ele>76.3</ele>
        <time>2022-12-07T13:40:53Z</time>
      </trkpt>
      <trkpt lat="49.83907" lon="2.52517">
        <ele>76.2</ele>
        <time>2022-12-07T13:40:54Z</time>
      </trkpt>
      <trkpt lat="49.83906" lon="2.52517">
        <ele>76.2</ele>
        <time>2022-12-07T13:40:55Z</time>
      </trkpt>
      <trkpt lat="49.83905" lon="2.52517">
        <ele>76.2</ele>
        <time>2022-12-07T13:40:56Z</time>
      </trkpt>
      <trkpt lat="49.83905" lon="2.52517">
        <ele>76.1</ele>
        <time>2022-12-07T13:40:57Z</time>
      </trkpt>
      <trkpt lat="49.83904" lon="2.52517">
        <ele>76.1</ele>
        <time>2022-12-07T13:40:58Z</time>
      </trkpt>
      <trkpt lat="49.83903" lon="2.52517">
        <ele>76.1</ele>
        <time>2022-12-07T13:40:59Z</time>
      </trkpt>
      <trkpt lat="49.83902" lon="2.52516">
        <ele>76</ele>
        <time>2022-12-07T13:41:00Z</time>
      </trkpt>
      <trkpt lat="49.83901" lon="2.52516">
        <ele>76</ele>
        <time>2022-12-07T13:41:01Z</time>
      </trkpt>
      <trkpt lat="49.839" lon="2.52516">
        <ele>76</ele>
        <time>2022-12-07T13:41:02Z</time>
      </trkpt>
      <trkpt lat="49.83899" lon="2.52516">
        <ele>75.9</ele>
        <time>2022-12-07T13:41:03Z</time>
      </trkpt>
      <trkpt lat="49.83898" lon="2.52516">
        <ele>75.9</ele>
        <time>2022-12-07T13:41:04Z</time>
      </trkpt>
      <trkpt lat="49.83897" lon="2.52516">
        <ele>75.8</ele>
        <time>2022-12-07T13:41:05Z</time>
      </trkpt>
      <trkpt lat="49.83896" lon="2.52516">
        <ele>75.8</ele>
        <time>2022-12-07T13:41:06Z</time>
      </trkpt>
      <trkpt lat="49.83895" lon="2.52516">
        <ele>75.8</ele>
        <time>2022-12-07T13:41:07Z</time>
      </trkpt>
      <trkpt lat="49.83894" lon="2.52516">
        <ele>75.7</ele>
        <time>2022-12-07T13:41:08Z</time>
      </trkpt>
      <trkpt lat="49.83893" lon="2.52516">
        <ele>75.7</ele>
        <time>2022-12-07T13:41:09Z</time>
      </trkpt>
      <trkpt lat="49.83892" lon="2.52516">
        <ele>75.7</ele>
        <time>2022-12-07T13:41:10Z</time>
      </trkpt>
      <trkpt lat="49.83891" lon="2.52516">
        <ele>75.6</ele>
        <time>2022-12-07T13:41:11Z</time>
      </trkpt>
      <trkpt lat="49.83889" lon="2.52515">
        <ele>75.5</ele>
        <time>2022-12-07T13:41:12Z</time>
      </trkpt>
      <trkpt lat="49.83888" lon="2.52515">
        <ele>75.5</ele>
        <time>2022-12-07T13:41:13Z</time>
      </trkpt>
      <trkpt lat="49.83887" lon="2.52515">
        <ele>75.5</ele>
        <time>2022-12-07T13:41:14Z</time>
      </trkpt>
      <trkpt lat="49.83886" lon="2.52515">
        <ele>75.4</ele>
        <time>2022-12-07T13:41:15Z</time>
      </trkpt>
      <trkpt lat="49.83885" lon="2.52515">
        <ele>75.4</ele>
        <time>2022-12-07T13:41:16Z</time>
      </trkpt>
      <trkpt lat="49.83883" lon="2.52515">
        <ele>75.3</ele>
        <time>2022-12-07T13:41:17Z</time>
      </trkpt>
      <trkpt lat="49.83882" lon="2.52514">
        <ele>75.2</ele>
        <time>2022-12-07T13:41:18Z</time>
      </trkpt>
      <trkpt lat="49.83881" lon="2.52514">
        <ele>75</ele>
        <time>2022-12-07T13:41:19Z</time>
      </trkpt>
      <trkpt lat="49.8388" lon="2.52513">
        <ele>74.9</ele>
        <time>2022-12-07T13:41:20Z</time>
      </trkpt>
      <trkpt lat="49.83878" lon="2.52511">
        <ele>74.5</ele>
        <time>2022-12-07T13:41:21Z</time>
      </trkpt>
      <trkpt lat="49.83878" lon="2.52511">
        <ele>74.4</ele>
        <time>2022-12-07T13:41:22Z</time>
      </trkpt>
      <trkpt lat="49.83877" lon="2.5251">
        <ele>74.3</ele>
        <time>2022-12-07T13:41:23Z</time>
      </trkpt>
      <trkpt lat="49.83876" lon="2.52509">
        <ele>74</ele>
        <time>2022-12-07T13:41:24Z</time>
      </trkpt>
      <trkpt lat="49.83875" lon="2.52507">
        <ele>73.8</ele>
        <time>2022-12-07T13:41:25Z</time>
      </trkpt>
      <trkpt lat="49.83873" lon="2.52505">
        <ele>73.5</ele>
        <time>2022-12-07T13:41:26Z</time>
      </trkpt>
      <trkpt lat="49.83872" lon="2.52505">
        <ele>73.4</ele>
        <time>2022-12-07T13:41:27Z</time>
      </trkpt>
      <trkpt lat="49.83871" lon="2.52504">
        <ele>73.2</ele>
        <time>2022-12-07T13:41:28Z</time>
      </trkpt>
      <trkpt lat="49.83869" lon="2.52502">
        <ele>72.9</ele>
        <time>2022-12-07T13:41:29Z</time>
      </trkpt>
      <trkpt lat="49.83869" lon="2.52501">
        <ele>72.8</ele>
        <time>2022-12-07T13:41:30Z</time>
      </trkpt>
      <trkpt lat="49.83868" lon="2.525">
        <ele>72.7</ele>
        <time>2022-12-07T13:41:31Z</time>
      </trkpt>
      <trkpt lat="49.83867" lon="2.52499">
        <ele>72.5</ele>
        <time>2022-12-07T13:41:32Z</time>
      </trkpt>
      <trkpt lat="49.83865" lon="2.52498">
        <ele>72.3</ele>
        <time>2022-12-07T13:41:33Z</time>
      </trkpt>
      <trkpt lat="49.83864" lon="2.52497">
        <ele>72.2</ele>
        <time>2022-12-07T13:41:34Z</time>
      </trkpt>
      <trkpt lat="49.83864" lon="2.52496">
        <ele>72.1</ele>
        <time>2022-12-07T13:41:35Z</time>
      </trkpt>
      <trkpt lat="49.83862" lon="2.52495">
        <ele>71.9</ele>
        <time>2022-12-07T13:41:36Z</time>
      </trkpt>
      <trkpt lat="49.83861" lon="2.52494">
        <ele>71.8</ele>
        <time>2022-12-07T13:41:37Z</time>
      </trkpt>
      <trkpt lat="49.83861" lon="2.52493">
        <ele>71.7</ele>
        <time>2022-12-07T13:41:38Z</time>
      </trkpt>
      <trkpt lat="49.8386" lon="2.52492">
        <ele>71.5</ele>
        <time>2022-12-07T13:41:39Z</time>
      </trkpt>
      <trkpt lat="49.83859" lon="2.52491">
        <ele>71.4</ele>
        <time>2022-12-07T13:41:40Z</time>
      </trkpt>
      <trkpt lat="49.83858" lon="2.5249">
        <ele>71.3</ele>
        <time>2022-12-07T13:41:41Z</time>
      </trkpt>
      <trkpt lat="49.83857" lon="2.52489">
        <ele>71.2</ele>
        <time>2022-12-07T13:41:42Z</time>
      </trkpt>
      <trkpt lat="49.83856" lon="2.52488">
        <ele>71.1</ele>
        <time>2022-12-07T13:41:43Z</time>
      </trkpt>
      <trkpt lat="49.83855" lon="2.52487">
        <ele>71</ele>
        <time>2022-12-07T13:41:44Z</time>
      </trkpt>
      <trkpt lat="49.83854" lon="2.52486">
        <ele>70.9</ele>
        <time>2022-12-07T13:41:45Z</time>
      </trkpt>
      <trkpt lat="49.83854" lon="2.52485">
        <ele>70.8</ele>
        <time>2022-12-07T13:41:46Z</time>
      </trkpt>
      <trkpt lat="49.83853" lon="2.52484">
        <ele>70.7</ele>
        <time>2022-12-07T13:41:47Z</time>
      </trkpt>
      <trkpt lat="49.83852" lon="2.52483">
        <ele>70.6</ele>
        <time>2022-12-07T13:41:48Z</time>
      </trkpt>
      <trkpt lat="49.83851" lon="2.52483">
        <ele>70.5</ele>
        <time>2022-12-07T13:41:49Z</time>
      </trkpt>
      <trkpt lat="49.8385" lon="2.52482">
        <ele>70.4</ele>
        <time>2022-12-07T13:41:50Z</time>
      </trkpt>
      <trkpt lat="49.83849" lon="2.52482">
        <ele>70.3</ele>
        <time>2022-12-07T13:41:51Z</time>
      </trkpt>
      <trkpt lat="49.83848" lon="2.52481">
        <ele>70.2</ele>
        <time>2022-12-07T13:41:52Z</time>
      </trkpt>
      <trkpt lat="49.83847" lon="2.52481">
        <ele>70.2</ele>
        <time>2022-12-07T13:41:53Z</time>
      </trkpt>
      <trkpt lat="49.83846" lon="2.5248">
        <ele>70.1</ele>
        <time>2022-12-07T13:41:54Z</time>
      </trkpt>
      <trkpt lat="49.83845" lon="2.5248">
        <ele>70</ele>
        <time>2022-12-07T13:41:55Z</time>
      </trkpt>
      <trkpt lat="49.83844" lon="2.5248">
        <ele>69.9</ele>
        <time>2022-12-07T13:41:56Z</time>
      </trkpt>
      <trkpt lat="49.83843" lon="2.52479">
        <ele>69.8</ele>
        <time>2022-12-07T13:41:57Z</time>
      </trkpt>
      <trkpt lat="49.83842" lon="2.52479">
        <ele>69.7</ele>
        <time>2022-12-07T13:41:58Z</time>
      </trkpt>
      <trkpt lat="49.8384" lon="2.52479">
        <ele>69.6</ele>
        <time>2022-12-07T13:41:59Z</time>
      </trkpt>
      <trkpt lat="49.83839" lon="2.52479">
        <ele>69.6</ele>
        <time>2022-12-07T13:42:00Z</time>
      </trkpt>
      <trkpt lat="49.83838" lon="2.52478">
        <ele>69.5</ele>
        <time>2022-12-07T13:42:01Z</time>
      </trkpt>
      <trkpt lat="49.83837" lon="2.52478">
        <ele>69.4</ele>
        <time>2022-12-07T13:42:02Z</time>
      </trkpt>
      <trkpt lat="49.83836" lon="2.52478">
        <ele>69.4</ele>
        <time>2022-12-07T13:42:03Z</time>
      </trkpt>
      <trkpt lat="49.83834" lon="2.52478">
        <ele>69.2</ele>
        <time>2022-12-07T13:42:04Z</time>
      </trkpt>
      <trkpt lat="49.83834" lon="2.52478">
        <ele>69.2</ele>
        <time>2022-12-07T13:42:05Z</time>
      </trkpt>
      <trkpt lat="49.83833" lon="2.52478">
        <ele>69.1</ele>
        <time>2022-12-07T13:42:06Z</time>
      </trkpt>
      <trkpt lat="49.83831" lon="2.52478">
        <ele>69</ele>
        <time>2022-12-07T13:42:07Z</time>
      </trkpt>
      <trkpt lat="49.8383" lon="2.52478">
        <ele>68.9</ele>
        <time>2022-12-07T13:42:08Z</time>
      </trkpt>
      <trkpt lat="49.83829" lon="2.52477">
        <ele>68.9</ele>
        <time>2022-12-07T13:42:09Z</time>
      </trkpt>
      <trkpt lat="49.83827" lon="2.52477">
        <ele>68.8</ele>
        <time>2022-12-07T13:42:10Z</time>
      </trkpt>
      <trkpt lat="49.83826" lon="2.52477">
        <ele>68.7</ele>
        <time>2022-12-07T13:42:11Z</time>
      </trkpt>
      <trkpt lat="49.83825" lon="2.52477">
        <ele>68.7</ele>
        <time>2022-12-07T13:42:12Z</time>
      </trkpt>
      <trkpt lat="49.83824" lon="2.52477">
        <ele>68.6</ele>
        <time>2022-12-07T13:42:13Z</time>
      </trkpt>
      <trkpt lat="49.83823" lon="2.52477">
        <ele>68.5</ele>
        <time>2022-12-07T13:42:14Z</time>
      </trkpt>
      <trkpt lat="49.83821" lon="2.52476">
        <ele>68.4</ele>
        <time>2022-12-07T13:42:15Z</time>
      </trkpt>
      <trkpt lat="49.8382" lon="2.52476">
        <ele>68.4</ele>
        <time>2022-12-07T13:42:16Z</time>
      </trkpt>
      <trkpt lat="49.83819" lon="2.52476">
        <ele>68.3</ele>
        <time>2022-12-07T13:42:17Z</time>
      </trkpt>
      <trkpt lat="49.83818" lon="2.52476">
        <ele>68.3</ele>
        <time>2022-12-07T13:42:18Z</time>
      </trkpt>
      <trkpt lat="49.83817" lon="2.52476">
        <ele>68.2</ele>
        <time>2022-12-07T13:42:19Z</time>
      </trkpt>
      <trkpt lat="49.83815" lon="2.52476">
        <ele>68.2</ele>
        <time>2022-12-07T13:42:20Z</time>
      </trkpt>
      <trkpt lat="49.83814" lon="2.52476">
        <ele>68.1</ele>
        <time>2022-12-07T13:42:21Z</time>
      </trkpt>
      <trkpt lat="49.83814" lon="2.52477">
        <ele>68.1</ele>
        <time>2022-12-07T13:42:22Z</time>
      </trkpt>
      <trkpt lat="49.83812" lon="2.52477">
        <ele>68</ele>
        <time>2022-12-07T13:42:23Z</time>
      </trkpt>
      <trkpt lat="49.83811" lon="2.52477">
        <ele>68</ele>
        <time>2022-12-07T13:42:24Z</time>
      </trkpt>
      <trkpt lat="49.8381" lon="2.52477">
        <ele>67.9</ele>
        <time>2022-12-07T13:42:25Z</time>
      </trkpt>
      <trkpt lat="49.83809" lon="2.52477">
        <ele>67.9</ele>
        <time>2022-12-07T13:42:26Z</time>
      </trkpt>
      <trkpt lat="49.83808" lon="2.52478">
        <ele>67.8</ele>
        <time>2022-12-07T13:42:27Z</time>
      </trkpt>
      <trkpt lat="49.83807" lon="2.52478">
        <ele>67.7</ele>
        <time>2022-12-07T13:42:28Z</time>
      </trkpt>
      <trkpt lat="49.83805" lon="2.52478">
        <ele>67.7</ele>
        <time>2022-12-07T13:42:29Z</time>
      </trkpt>
      <trkpt lat="49.83803" lon="2.52479">
        <ele>67.6</ele>
        <time>2022-12-07T13:42:30Z</time>
      </trkpt>
      <trkpt lat="49.83803" lon="2.52479">
        <ele>67.6</ele>
        <time>2022-12-07T13:42:31Z</time>
      </trkpt>
      <trkpt lat="49.83802" lon="2.52479">
        <ele>67.5</ele>
        <time>2022-12-07T13:42:32Z</time>
      </trkpt>
      <trkpt lat="49.838" lon="2.5248">
        <ele>67.5</ele>
        <time>2022-12-07T13:42:33Z</time>
      </trkpt>
      <trkpt lat="49.83799" lon="2.5248">
        <ele>67.4</ele>
        <time>2022-12-07T13:42:34Z</time>
      </trkpt>
      <trkpt lat="49.83798" lon="2.5248">
        <ele>67.4</ele>
        <time>2022-12-07T13:42:35Z</time>
      </trkpt>
      <trkpt lat="49.83797" lon="2.5248">
        <ele>67.3</ele>
        <time>2022-12-07T13:42:36Z</time>
      </trkpt>
      <trkpt lat="49.83795" lon="2.52481">
        <ele>67.3</ele>
        <time>2022-12-07T13:42:37Z</time>
      </trkpt>
      <trkpt lat="49.83794" lon="2.52481">
        <ele>67.2</ele>
        <time>2022-12-07T13:42:38Z</time>
      </trkpt>
      <trkpt lat="49.83793" lon="2.52481">
        <ele>67.2</ele>
        <time>2022-12-07T13:42:39Z</time>
      </trkpt>
      <trkpt lat="49.83792" lon="2.52482">
        <ele>67.1</ele>
        <time>2022-12-07T13:42:40Z</time>
      </trkpt>
      <trkpt lat="49.83791" lon="2.52482">
        <ele>67.1</ele>
        <time>2022-12-07T13:42:41Z</time>
      </trkpt>
      <trkpt lat="49.8379" lon="2.52483">
        <ele>67</ele>
        <time>2022-12-07T13:42:42Z</time>
      </trkpt>
      <trkpt lat="49.83789" lon="2.52483">
        <ele>67</ele>
        <time>2022-12-07T13:42:43Z</time>
      </trkpt>
      <trkpt lat="49.83788" lon="2.52483">
        <ele>67</ele>
        <time>2022-12-07T13:42:44Z</time>
      </trkpt>
      <trkpt lat="49.83786" lon="2.52483">
        <ele>66.9</ele>
        <time>2022-12-07T13:42:45Z</time>
      </trkpt>
      <trkpt lat="49.83785" lon="2.52483">
        <ele>66.9</ele>
        <time>2022-12-07T13:42:46Z</time>
      </trkpt>
      <trkpt lat="49.83784" lon="2.52483">
        <ele>66.8</ele>
        <time>2022-12-07T13:42:47Z</time>
      </trkpt>
      <trkpt lat="49.83783" lon="2.52483">
        <ele>66.8</ele>
        <time>2022-12-07T13:42:48Z</time>
      </trkpt>
      <trkpt lat="49.83782" lon="2.52484">
        <ele>66.8</ele>
        <time>2022-12-07T13:42:49Z</time>
      </trkpt>
      <trkpt lat="49.8378" lon="2.52484">
        <ele>66.7</ele>
        <time>2022-12-07T13:42:50Z</time>
      </trkpt>
      <trkpt lat="49.83779" lon="2.52484">
        <ele>66.7</ele>
        <time>2022-12-07T13:42:51Z</time>
      </trkpt>
      <trkpt lat="49.83777" lon="2.52484">
        <ele>66.6</ele>
        <time>2022-12-07T13:42:52Z</time>
      </trkpt>
      <trkpt lat="49.83776" lon="2.52485">
        <ele>66.6</ele>
        <time>2022-12-07T13:42:53Z</time>
      </trkpt>
      <trkpt lat="49.83775" lon="2.52485">
        <ele>66.6</ele>
        <time>2022-12-07T13:42:54Z</time>
      </trkpt>
      <trkpt lat="49.83773" lon="2.52486">
        <ele>66.5</ele>
        <time>2022-12-07T13:42:55Z</time>
      </trkpt>
      <trkpt lat="49.83772" lon="2.52486">
        <ele>66.5</ele>
        <time>2022-12-07T13:42:56Z</time>
      </trkpt>
      <trkpt lat="49.8377" lon="2.52487">
        <ele>66.4</ele>
        <time>2022-12-07T13:42:57Z</time>
      </trkpt>
      <trkpt lat="49.83769" lon="2.52488">
        <ele>66.4</ele>
        <time>2022-12-07T13:42:58Z</time>
      </trkpt>
      <trkpt lat="49.83768" lon="2.52488">
        <ele>66.4</ele>
        <time>2022-12-07T13:42:59Z</time>
      </trkpt>
      <trkpt lat="49.83767" lon="2.52489">
        <ele>66.4</ele>
        <time>2022-12-07T13:43:00Z</time>
      </trkpt>
      <trkpt lat="49.83765" lon="2.52489">
        <ele>66.4</ele>
        <time>2022-12-07T13:43:01Z</time>
      </trkpt>
      <trkpt lat="49.83764" lon="2.52489">
        <ele>66.3</ele>
        <time>2022-12-07T13:43:02Z</time>
      </trkpt>
      <trkpt lat="49.83763" lon="2.5249">
        <ele>66.3</ele>
        <time>2022-12-07T13:43:03Z</time>
      </trkpt>
      <trkpt lat="49.83762" lon="2.5249">
        <ele>66.3</ele>
        <time>2022-12-07T13:43:04Z</time>
      </trkpt>
      <trkpt lat="49.83761" lon="2.52491">
        <ele>66.3</ele>
        <time>2022-12-07T13:43:05Z</time>
      </trkpt>
      <trkpt lat="49.8376" lon="2.52491">
        <ele>66.3</ele>
        <time>2022-12-07T13:43:06Z</time>
      </trkpt>
      <trkpt lat="49.83759" lon="2.52491">
        <ele>66.3</ele>
        <time>2022-12-07T13:43:07Z</time>
      </trkpt>
      <trkpt lat="49.83758" lon="2.52492">
        <ele>66.3</ele>
        <time>2022-12-07T13:43:08Z</time>
      </trkpt>
      <trkpt lat="49.83757" lon="2.52493">
        <ele>66.2</ele>
        <time>2022-12-07T13:43:09Z</time>
      </trkpt>
      <trkpt lat="49.83755" lon="2.52493">
        <ele>66.2</ele>
        <time>2022-12-07T13:43:10Z</time>
      </trkpt>
      <trkpt lat="49.83753" lon="2.52494">
        <ele>66.2</ele>
        <time>2022-12-07T13:43:11Z</time>
      </trkpt>
      <trkpt lat="49.83753" lon="2.52494">
        <ele>66.2</ele>
        <time>2022-12-07T13:43:12Z</time>
      </trkpt>
      <trkpt lat="49.83752" lon="2.52495">
        <ele>66.2</ele>
        <time>2022-12-07T13:43:13Z</time>
      </trkpt>
      <trkpt lat="49.8375" lon="2.52496">
        <ele>66.2</ele>
        <time>2022-12-07T13:43:14Z</time>
      </trkpt>
      <trkpt lat="49.83749" lon="2.52496">
        <ele>66.2</ele>
        <time>2022-12-07T13:43:15Z</time>
      </trkpt>
      <trkpt lat="49.83748" lon="2.52497">
        <ele>66.2</ele>
        <time>2022-12-07T13:43:16Z</time>
      </trkpt>
      <trkpt lat="49.83746" lon="2.52498">
        <ele>66.2</ele>
        <time>2022-12-07T13:43:17Z</time>
      </trkpt>
      <trkpt lat="49.83745" lon="2.52498">
        <ele>66.2</ele>
        <time>2022-12-07T13:43:18Z</time>
      </trkpt>
      <trkpt lat="49.83745" lon="2.52499">
        <ele>66.2</ele>
        <time>2022-12-07T13:43:19Z</time>
      </trkpt>
      <trkpt lat="49.83743" lon="2.525">
        <ele>66.2</ele>
        <time>2022-12-07T13:43:20Z</time>
      </trkpt>
      <trkpt lat="49.83742" lon="2.525">
        <ele>66.1</ele>
        <time>2022-12-07T13:43:21Z</time>
      </trkpt>
      <trkpt lat="49.83741" lon="2.525">
        <ele>66.1</ele>
        <time>2022-12-07T13:43:22Z</time>
      </trkpt>
      <trkpt lat="49.8374" lon="2.52501">
        <ele>66.1</ele>
        <time>2022-12-07T13:43:23Z</time>
      </trkpt>
      <trkpt lat="49.83739" lon="2.52501">
        <ele>66.1</ele>
        <time>2022-12-07T13:43:24Z</time>
      </trkpt>
      <trkpt lat="49.83738" lon="2.52502">
        <ele>66.1</ele>
        <time>2022-12-07T13:43:25Z</time>
      </trkpt>
      <trkpt lat="49.83736" lon="2.52503">
        <ele>66.1</ele>
        <time>2022-12-07T13:43:26Z</time>
      </trkpt>
      <trkpt lat="49.83735" lon="2.52503">
        <ele>66.1</ele>
        <time>2022-12-07T13:43:27Z</time>
      </trkpt>
      <trkpt lat="49.83735" lon="2.52504">
        <ele>66.1</ele>
        <time>2022-12-07T13:43:28Z</time>
      </trkpt>
      <trkpt lat="49.83734" lon="2.52504">
        <ele>66.1</ele>
        <time>2022-12-07T13:43:29Z</time>
      </trkpt>
      <trkpt lat="49.83733" lon="2.52505">
        <ele>66.1</ele>
        <time>2022-12-07T13:43:30Z</time>
      </trkpt>
      <trkpt lat="49.83731" lon="2.52506">
        <ele>66.1</ele>
        <time>2022-12-07T13:43:31Z</time>
      </trkpt>
      <trkpt lat="49.8373" lon="2.52506">
        <ele>66.1</ele>
        <time>2022-12-07T13:43:32Z</time>
      </trkpt>
      <trkpt lat="49.83729" lon="2.52507">
        <ele>66.1</ele>
        <time>2022-12-07T13:43:33Z</time>
      </trkpt>
      <trkpt lat="49.83728" lon="2.52507">
        <ele>66.1</ele>
        <time>2022-12-07T13:43:34Z</time>
      </trkpt>
      <trkpt lat="49.83727" lon="2.52507">
        <ele>66.1</ele>
        <time>2022-12-07T13:43:35Z</time>
      </trkpt>
      <trkpt lat="49.83726" lon="2.52508">
        <ele>66.1</ele>
        <time>2022-12-07T13:43:36Z</time>
      </trkpt>
      <trkpt lat="49.83726" lon="2.52508">
        <ele>66.1</ele>
        <time>2022-12-07T13:43:37Z</time>
      </trkpt>
      <trkpt lat="49.83725" lon="2.52509">
        <ele>66.1</ele>
        <time>2022-12-07T13:43:38Z</time>
      </trkpt>
      <trkpt lat="49.83724" lon="2.52509">
        <ele>66.1</ele>
        <time>2022-12-07T13:43:39Z</time>
      </trkpt>
      <trkpt lat="49.83723" lon="2.52509">
        <ele>66.1</ele>
        <time>2022-12-07T13:43:40Z</time>
      </trkpt>
      <trkpt lat="49.83722" lon="2.52509">
        <ele>66</ele>
        <time>2022-12-07T13:43:41Z</time>
      </trkpt>
      <trkpt lat="49.83721" lon="2.52509">
        <ele>66</ele>
        <time>2022-12-07T13:43:42Z</time>
      </trkpt>
      <trkpt lat="49.8372" lon="2.52509">
        <ele>66</ele>
        <time>2022-12-07T13:43:43Z</time>
      </trkpt>
      <trkpt lat="49.83719" lon="2.52508">
        <ele>66</ele>
        <time>2022-12-07T13:43:44Z</time>
      </trkpt>
      <trkpt lat="49.83718" lon="2.52508">
        <ele>66</ele>
        <time>2022-12-07T13:43:45Z</time>
      </trkpt>
      <trkpt lat="49.83717" lon="2.52508">
        <ele>66</ele>
        <time>2022-12-07T13:43:46Z</time>
      </trkpt>
      <trkpt lat="49.83717" lon="2.52508">
        <ele>66</ele>
        <time>2022-12-07T13:43:47Z</time>
      </trkpt>
      <trkpt lat="49.83716" lon="2.52508">
        <ele>66</ele>
        <time>2022-12-07T13:43:48Z</time>
      </trkpt>
      <trkpt lat="49.83715" lon="2.52508">
        <ele>65.9</ele>
        <time>2022-12-07T13:43:49Z</time>
      </trkpt>
      <trkpt lat="49.83714" lon="2.52508">
        <ele>65.9</ele>
        <time>2022-12-07T13:43:50Z</time>
      </trkpt>
      <trkpt lat="49.83713" lon="2.52509">
        <ele>65.9</ele>
        <time>2022-12-07T13:43:51Z</time>
      </trkpt>
      <trkpt lat="49.83712" lon="2.52509">
        <ele>65.9</ele>
        <time>2022-12-07T13:43:52Z</time>
      </trkpt>
      <trkpt lat="49.83711" lon="2.5251">
        <ele>65.8</ele>
        <time>2022-12-07T13:43:53Z</time>
      </trkpt>
      <trkpt lat="49.8371" lon="2.5251">
        <ele>65.8</ele>
        <time>2022-12-07T13:43:54Z</time>
      </trkpt>
      <trkpt lat="49.83709" lon="2.52511">
        <ele>65.8</ele>
        <time>2022-12-07T13:43:55Z</time>
      </trkpt>
      <trkpt lat="49.83709" lon="2.52511">
        <ele>65.8</ele>
        <time>2022-12-07T13:43:56Z</time>
      </trkpt>
      <trkpt lat="49.83708" lon="2.52512">
        <ele>65.7</ele>
        <time>2022-12-07T13:43:57Z</time>
      </trkpt>
      <trkpt lat="49.83707" lon="2.52512">
        <ele>65.7</ele>
        <time>2022-12-07T13:43:58Z</time>
      </trkpt>
      <trkpt lat="49.83706" lon="2.52512">
        <ele>65.7</ele>
        <time>2022-12-07T13:43:59Z</time>
      </trkpt>
      <trkpt lat="49.83705" lon="2.52512">
        <ele>65.6</ele>
        <time>2022-12-07T13:44:00Z</time>
      </trkpt>
      <trkpt lat="49.83704" lon="2.52513">
        <ele>65.6</ele>
        <time>2022-12-07T13:44:01Z</time>
      </trkpt>
      <trkpt lat="49.83704" lon="2.52513">
        <ele>65.6</ele>
        <time>2022-12-07T13:44:02Z</time>
      </trkpt>
      <trkpt lat="49.83703" lon="2.52513">
        <ele>65.5</ele>
        <time>2022-12-07T13:44:03Z</time>
      </trkpt>
      <trkpt lat="49.83702" lon="2.52513">
        <ele>65.5</ele>
        <time>2022-12-07T13:44:04Z</time>
      </trkpt>
      <trkpt lat="49.83701" lon="2.52514">
        <ele>65.5</ele>
        <time>2022-12-07T13:44:05Z</time>
      </trkpt>
      <trkpt lat="49.837" lon="2.52514">
        <ele>65.5</ele>
        <time>2022-12-07T13:44:06Z</time>
      </trkpt>
      <trkpt lat="49.83699" lon="2.52514">
        <ele>65.4</ele>
        <time>2022-12-07T13:44:07Z</time>
      </trkpt>
      <trkpt lat="49.83699" lon="2.52514">
        <ele>65.4</ele>
        <time>2022-12-07T13:44:08Z</time>
      </trkpt>
      <trkpt lat="49.83698" lon="2.52513">
        <ele>65.4</ele>
        <time>2022-12-07T13:44:09Z</time>
      </trkpt>
      <trkpt lat="49.83698" lon="2.52512">
        <ele>65.4</ele>
        <time>2022-12-07T13:44:10Z</time>
      </trkpt>
      <trkpt lat="49.83698" lon="2.52511">
        <ele>65.4</ele>
        <time>2022-12-07T13:44:11Z</time>
      </trkpt>
      <trkpt lat="49.83698" lon="2.52511">
        <ele>65.3</ele>
        <time>2022-12-07T13:44:12Z</time>
      </trkpt>
      <trkpt lat="49.83698" lon="2.5251">
        <ele>65.3</ele>
        <time>2022-12-07T13:44:13Z</time>
      </trkpt>
      <trkpt lat="49.83698" lon="2.5251">
        <ele>65.3</ele>
        <time>2022-12-07T13:44:14Z</time>
      </trkpt>
      <trkpt lat="49.83698" lon="2.52509">
        <ele>65.3</ele>
        <time>2022-12-07T13:44:15Z</time>
      </trkpt>
      <trkpt lat="49.83698" lon="2.52509">
        <ele>65.3</ele>
        <time>2022-12-07T13:44:16Z</time>
      </trkpt>
      <trkpt lat="49.83698" lon="2.52509">
        <ele>65.3</ele>
        <time>2022-12-07T13:44:17Z</time>
      </trkpt>
      <trkpt lat="49.83698" lon="2.52508">
        <ele>65.3</ele>
        <time>2022-12-07T13:44:18Z</time>
      </trkpt>
      <trkpt lat="49.83697" lon="2.52508">
        <ele>65.3</ele>
        <time>2022-12-07T13:44:19Z</time>
      </trkpt>
      <trkpt lat="49.83697" lon="2.52507">
        <ele>65.3</ele>
        <time>2022-12-07T13:44:20Z</time>
      </trkpt>
      <trkpt lat="49.83696" lon="2.52507">
        <ele>65.2</ele>
        <time>2022-12-07T13:44:21Z</time>
      </trkpt>
      <trkpt lat="49.83696" lon="2.52506">
        <ele>65.2</ele>
        <time>2022-12-07T13:44:22Z</time>
      </trkpt>
      <trkpt lat="49.83695" lon="2.52506">
        <ele>65.2</ele>
        <time>2022-12-07T13:44:23Z</time>
      </trkpt>
      <trkpt lat="49.83694" lon="2.52505">
        <ele>65.1</ele>
        <time>2022-12-07T13:44:24Z</time>
      </trkpt>
      <trkpt lat="49.83693" lon="2.52505">
        <ele>65.1</ele>
        <time>2022-12-07T13:44:25Z</time>
      </trkpt>
      <trkpt lat="49.83692" lon="2.52504">
        <ele>65</ele>
        <time>2022-12-07T13:44:26Z</time>
      </trkpt>
      <trkpt lat="49.83691" lon="2.52503">
        <ele>65</ele>
        <time>2022-12-07T13:44:27Z</time>
      </trkpt>
      <trkpt lat="49.8369" lon="2.52503">
        <ele>64.9</ele>
        <time>2022-12-07T13:44:28Z</time>
      </trkpt>
      <trkpt lat="49.83689" lon="2.52503">
        <ele>64.9</ele>
        <time>2022-12-07T13:44:29Z</time>
      </trkpt>
      <trkpt lat="49.83688" lon="2.52503">
        <ele>64.8</ele>
        <time>2022-12-07T13:44:30Z</time>
      </trkpt>
      <trkpt lat="49.83687" lon="2.52502">
        <ele>64.8</ele>
        <time>2022-12-07T13:44:31Z</time>
      </trkpt>
      <trkpt lat="49.83686" lon="2.52502">
        <ele>64.7</ele>
        <time>2022-12-07T13:44:32Z</time>
      </trkpt>
      <trkpt lat="49.83685" lon="2.52501">
        <ele>64.7</ele>
        <time>2022-12-07T13:44:33Z</time>
      </trkpt>
      <trkpt lat="49.83684" lon="2.52501">
        <ele>64.6</ele>
        <time>2022-12-07T13:44:34Z</time>
      </trkpt>
      <trkpt lat="49.83683" lon="2.525">
        <ele>64.5</ele>
        <time>2022-12-07T13:44:35Z</time>
      </trkpt>
      <trkpt lat="49.83682" lon="2.52499">
        <ele>64.5</ele>
        <time>2022-12-07T13:44:36Z</time>
      </trkpt>
      <trkpt lat="49.83681" lon="2.52499">
        <ele>64.4</ele>
        <time>2022-12-07T13:44:37Z</time>
      </trkpt>
      <trkpt lat="49.8368" lon="2.52498">
        <ele>64.4</ele>
        <time>2022-12-07T13:44:38Z</time>
      </trkpt>
      <trkpt lat="49.83678" lon="2.52498">
        <ele>64.3</ele>
        <time>2022-12-07T13:44:39Z</time>
      </trkpt>
      <trkpt lat="49.83678" lon="2.52497">
        <ele>64.3</ele>
        <time>2022-12-07T13:44:40Z</time>
      </trkpt>
      <trkpt lat="49.83676" lon="2.52497">
        <ele>64.2</ele>
        <time>2022-12-07T13:44:41Z</time>
      </trkpt>
      <trkpt lat="49.83675" lon="2.52497">
        <ele>64.2</ele>
        <time>2022-12-07T13:44:42Z</time>
      </trkpt>
      <trkpt lat="49.83674" lon="2.52497">
        <ele>64.1</ele>
        <time>2022-12-07T13:44:43Z</time>
      </trkpt>
      <trkpt lat="49.83673" lon="2.52496">
        <ele>64.1</ele>
        <time>2022-12-07T13:44:44Z</time>
      </trkpt>
      <trkpt lat="49.83672" lon="2.52496">
        <ele>64</ele>
        <time>2022-12-07T13:44:45Z</time>
      </trkpt>
      <trkpt lat="49.83671" lon="2.52495">
        <ele>64</ele>
        <time>2022-12-07T13:44:46Z</time>
      </trkpt>
      <trkpt lat="49.8367" lon="2.52495">
        <ele>63.9</ele>
        <time>2022-12-07T13:44:47Z</time>
      </trkpt>
      <trkpt lat="49.83669" lon="2.52494">
        <ele>63.9</ele>
        <time>2022-12-07T13:44:48Z</time>
      </trkpt>
      <trkpt lat="49.83668" lon="2.52494">
        <ele>63.8</ele>
        <time>2022-12-07T13:44:49Z</time>
      </trkpt>
      <trkpt lat="49.83667" lon="2.52493">
        <ele>63.8</ele>
        <time>2022-12-07T13:44:50Z</time>
      </trkpt>
      <trkpt lat="49.83666" lon="2.52493">
        <ele>63.7</ele>
        <time>2022-12-07T13:44:51Z</time>
      </trkpt>
      <trkpt lat="49.83665" lon="2.52493">
        <ele>63.6</ele>
        <time>2022-12-07T13:44:52Z</time>
      </trkpt>
      <trkpt lat="49.83663" lon="2.52492">
        <ele>63.6</ele>
        <time>2022-12-07T13:44:53Z</time>
      </trkpt>
      <trkpt lat="49.83661" lon="2.52491">
        <ele>63.4</ele>
        <time>2022-12-07T13:44:54Z</time>
      </trkpt>
      <trkpt lat="49.83661" lon="2.5249">
        <ele>63.4</ele>
        <time>2022-12-07T13:44:55Z</time>
      </trkpt>
      <trkpt lat="49.8366" lon="2.5249">
        <ele>63.4</ele>
        <time>2022-12-07T13:44:56Z</time>
      </trkpt>
      <trkpt lat="49.83658" lon="2.52489">
        <ele>63.2</ele>
        <time>2022-12-07T13:44:57Z</time>
      </trkpt>
      <trkpt lat="49.83657" lon="2.52488">
        <ele>63.2</ele>
        <time>2022-12-07T13:44:58Z</time>
      </trkpt>
      <trkpt lat="49.83656" lon="2.52488">
        <ele>63.1</ele>
        <time>2022-12-07T13:44:59Z</time>
      </trkpt>
      <trkpt lat="49.83654" lon="2.52487">
        <ele>63</ele>
        <time>2022-12-07T13:45:00Z</time>
      </trkpt>
      <trkpt lat="49.83654" lon="2.52487">
        <ele>62.9</ele>
        <time>2022-12-07T13:45:01Z</time>
      </trkpt>
      <trkpt lat="49.83653" lon="2.52487">
        <ele>62.8</ele>
        <time>2022-12-07T13:45:02Z</time>
      </trkpt>
      <trkpt lat="49.83652" lon="2.52486">
        <ele>62.8</ele>
        <time>2022-12-07T13:45:03Z</time>
      </trkpt>
      <trkpt lat="49.83651" lon="2.52486">
        <ele>62.7</ele>
        <time>2022-12-07T13:45:04Z</time>
      </trkpt>
      <trkpt lat="49.8365" lon="2.52485">
        <ele>62.6</ele>
        <time>2022-12-07T13:45:05Z</time>
      </trkpt>
      <trkpt lat="49.83648" lon="2.52484">
        <ele>62.4</ele>
        <time>2022-12-07T13:45:06Z</time>
      </trkpt>
      <trkpt lat="49.83647" lon="2.52483">
        <ele>62.3</ele>
        <time>2022-12-07T13:45:07Z</time>
      </trkpt>
      <trkpt lat="49.83646" lon="2.52483">
        <ele>62.3</ele>
        <time>2022-12-07T13:45:08Z</time>
      </trkpt>
      <trkpt lat="49.83645" lon="2.52481">
        <ele>62.1</ele>
        <time>2022-12-07T13:45:09Z</time>
      </trkpt>
      <trkpt lat="49.83644" lon="2.5248">
        <ele>62</ele>
        <time>2022-12-07T13:45:10Z</time>
      </trkpt>
      <trkpt lat="49.83643" lon="2.5248">
        <ele>61.9</ele>
        <time>2022-12-07T13:45:11Z</time>
      </trkpt>
      <trkpt lat="49.83641" lon="2.52478">
        <ele>61.7</ele>
        <time>2022-12-07T13:45:12Z</time>
      </trkpt>
      <trkpt lat="49.83641" lon="2.52478">
        <ele>61.6</ele>
        <time>2022-12-07T13:45:13Z</time>
      </trkpt>
      <trkpt lat="49.8364" lon="2.52477">
        <ele>61.6</ele>
        <time>2022-12-07T13:45:14Z</time>
      </trkpt>
      <trkpt lat="49.83639" lon="2.52477">
        <ele>61.5</ele>
        <time>2022-12-07T13:45:15Z</time>
      </trkpt>
      <trkpt lat="49.83637" lon="2.52476">
        <ele>61.3</ele>
        <time>2022-12-07T13:45:16Z</time>
      </trkpt>
      <trkpt lat="49.83636" lon="2.52476">
        <ele>61.2</ele>
        <time>2022-12-07T13:45:17Z</time>
      </trkpt>
      <trkpt lat="49.83635" lon="2.52476">
        <ele>61.1</ele>
        <time>2022-12-07T13:45:18Z</time>
      </trkpt>
      <trkpt lat="49.83634" lon="2.52475">
        <ele>61</ele>
        <time>2022-12-07T13:45:19Z</time>
      </trkpt>
      <trkpt lat="49.83633" lon="2.52475">
        <ele>61</ele>
        <time>2022-12-07T13:45:20Z</time>
      </trkpt>
      <trkpt lat="49.83632" lon="2.52475">
        <ele>60.9</ele>
        <time>2022-12-07T13:45:21Z</time>
      </trkpt>
      <trkpt lat="49.83632" lon="2.52475">
        <ele>60.8</ele>
        <time>2022-12-07T13:45:22Z</time>
      </trkpt>
      <trkpt lat="49.83631" lon="2.52475">
        <ele>60.7</ele>
        <time>2022-12-07T13:45:23Z</time>
      </trkpt>
      <trkpt lat="49.8363" lon="2.52475">
        <ele>60.7</ele>
        <time>2022-12-07T13:45:24Z</time>
      </trkpt>
      <trkpt lat="49.83629" lon="2.52475">
        <ele>60.6</ele>
        <time>2022-12-07T13:45:25Z</time>
      </trkpt>
      <trkpt lat="49.83628" lon="2.52475">
        <ele>60.5</ele>
        <time>2022-12-07T13:45:26Z</time>
      </trkpt>
      <trkpt lat="49.83627" lon="2.52475">
        <ele>60.4</ele>
        <time>2022-12-07T13:45:27Z</time>
      </trkpt>
      <trkpt lat="49.83626" lon="2.52474">
        <ele>60.4</ele>
        <time>2022-12-07T13:45:28Z</time>
      </trkpt>
      <trkpt lat="49.83626" lon="2.52474">
        <ele>60.3</ele>
        <time>2022-12-07T13:45:29Z</time>
      </trkpt>
      <trkpt lat="49.83625" lon="2.52473">
        <ele>60.2</ele>
        <time>2022-12-07T13:45:30Z</time>
      </trkpt>
      <trkpt lat="49.83624" lon="2.52473">
        <ele>60.1</ele>
        <time>2022-12-07T13:45:31Z</time>
      </trkpt>
      <trkpt lat="49.83623" lon="2.52472">
        <ele>60</ele>
        <time>2022-12-07T13:45:32Z</time>
      </trkpt>
      <trkpt lat="49.83622" lon="2.52472">
        <ele>60</ele>
        <time>2022-12-07T13:45:33Z</time>
      </trkpt>
      <trkpt lat="49.83621" lon="2.52471">
        <ele>59.9</ele>
        <time>2022-12-07T13:45:34Z</time>
      </trkpt>
      <trkpt lat="49.83621" lon="2.52471">
        <ele>59.8</ele>
        <time>2022-12-07T13:45:35Z</time>
      </trkpt>
      <trkpt lat="49.8362" lon="2.52471">
        <ele>59.8</ele>
        <time>2022-12-07T13:45:36Z</time>
      </trkpt>
      <trkpt lat="49.83619" lon="2.5247">
        <ele>59.7</ele>
        <time>2022-12-07T13:45:37Z</time>
      </trkpt>
      <trkpt lat="49.83619" lon="2.5247">
        <ele>59.7</ele>
        <time>2022-12-07T13:45:38Z</time>
      </trkpt>
      <trkpt lat="49.83618" lon="2.52469">
        <ele>59.6</ele>
        <time>2022-12-07T13:45:39Z</time>
      </trkpt>
      <trkpt lat="49.83617" lon="2.52469">
        <ele>59.6</ele>
        <time>2022-12-07T13:45:40Z</time>
      </trkpt>
      <trkpt lat="49.83616" lon="2.52469">
        <ele>59.5</ele>
        <time>2022-12-07T13:45:41Z</time>
      </trkpt>
      <trkpt lat="49.83616" lon="2.52469">
        <ele>59.4</ele>
        <time>2022-12-07T13:45:42Z</time>
      </trkpt>
      <trkpt lat="49.83615" lon="2.52468">
        <ele>59.4</ele>
        <time>2022-12-07T13:45:43Z</time>
      </trkpt>
      <trkpt lat="49.83614" lon="2.52467">
        <ele>59.3</ele>
        <time>2022-12-07T13:45:44Z</time>
      </trkpt>
      <trkpt lat="49.83614" lon="2.52467">
        <ele>59.3</ele>
        <time>2022-12-07T13:45:45Z</time>
      </trkpt>
      <trkpt lat="49.83613" lon="2.52466">
        <ele>59.2</ele>
        <time>2022-12-07T13:45:46Z</time>
      </trkpt>
      <trkpt lat="49.83612" lon="2.52465">
        <ele>59.2</ele>
        <time>2022-12-07T13:45:47Z</time>
      </trkpt>
      <trkpt lat="49.83611" lon="2.52465">
        <ele>59.1</ele>
        <time>2022-12-07T13:45:48Z</time>
      </trkpt>
      <trkpt lat="49.8361" lon="2.52464">
        <ele>59</ele>
        <time>2022-12-07T13:45:49Z</time>
      </trkpt>
      <trkpt lat="49.83609" lon="2.52463">
        <ele>58.9</ele>
        <time>2022-12-07T13:45:50Z</time>
      </trkpt>
      <trkpt lat="49.83608" lon="2.52463">
        <ele>58.9</ele>
        <time>2022-12-07T13:45:51Z</time>
      </trkpt>
      <trkpt lat="49.83607" lon="2.52462">
        <ele>58.9</ele>
        <time>2022-12-07T13:45:52Z</time>
      </trkpt>
      <trkpt lat="49.83607" lon="2.52462">
        <ele>58.8</ele>
        <time>2022-12-07T13:45:53Z</time>
      </trkpt>
      <trkpt lat="49.83606" lon="2.52462">
        <ele>58.8</ele>
        <time>2022-12-07T13:45:54Z</time>
      </trkpt>
      <trkpt lat="49.83605" lon="2.52461">
        <ele>58.7</ele>
        <time>2022-12-07T13:45:55Z</time>
      </trkpt>
      <trkpt lat="49.83604" lon="2.52461">
        <ele>58.7</ele>
        <time>2022-12-07T13:45:56Z</time>
      </trkpt>
      <trkpt lat="49.83603" lon="2.5246">
        <ele>58.7</ele>
        <time>2022-12-07T13:45:57Z</time>
      </trkpt>
      <trkpt lat="49.83603" lon="2.52459">
        <ele>58.6</ele>
        <time>2022-12-07T13:45:58Z</time>
      </trkpt>
      <trkpt lat="49.83602" lon="2.52458">
        <ele>58.6</ele>
        <time>2022-12-07T13:45:59Z</time>
      </trkpt>
      <trkpt lat="49.83601" lon="2.52458">
        <ele>58.6</ele>
        <time>2022-12-07T13:46:00Z</time>
      </trkpt>
      <trkpt lat="49.83601" lon="2.52457">
        <ele>58.5</ele>
        <time>2022-12-07T13:46:01Z</time>
      </trkpt>
      <trkpt lat="49.836" lon="2.52456">
        <ele>58.5</ele>
        <time>2022-12-07T13:46:02Z</time>
      </trkpt>
      <trkpt lat="49.836" lon="2.52455">
        <ele>58.5</ele>
        <time>2022-12-07T13:46:03Z</time>
      </trkpt>
      <trkpt lat="49.836" lon="2.52454">
        <ele>58.5</ele>
        <time>2022-12-07T13:46:04Z</time>
      </trkpt>
      <trkpt lat="49.83599" lon="2.52453">
        <ele>58.5</ele>
        <time>2022-12-07T13:46:05Z</time>
      </trkpt>
      <trkpt lat="49.83599" lon="2.52453">
        <ele>58.5</ele>
        <time>2022-12-07T13:46:06Z</time>
      </trkpt>
      <trkpt lat="49.83598" lon="2.52452">
        <ele>58.4</ele>
        <time>2022-12-07T13:46:07Z</time>
      </trkpt>
      <trkpt lat="49.83597" lon="2.52452">
        <ele>58.4</ele>
        <time>2022-12-07T13:46:08Z</time>
      </trkpt>
      <trkpt lat="49.83596" lon="2.52451">
        <ele>58.4</ele>
        <time>2022-12-07T13:46:09Z</time>
      </trkpt>
      <trkpt lat="49.83595" lon="2.52451">
        <ele>58.4</ele>
        <time>2022-12-07T13:46:10Z</time>
      </trkpt>
      <trkpt lat="49.83593" lon="2.5245">
        <ele>58.4</ele>
        <time>2022-12-07T13:46:11Z</time>
      </trkpt>
      <trkpt lat="49.83593" lon="2.52449">
        <ele>58.4</ele>
        <time>2022-12-07T13:46:12Z</time>
      </trkpt>
      <trkpt lat="49.83592" lon="2.52449">
        <ele>58.4</ele>
        <time>2022-12-07T13:46:13Z</time>
      </trkpt>
      <trkpt lat="49.83591" lon="2.52448">
        <ele>58.4</ele>
        <time>2022-12-07T13:46:14Z</time>
      </trkpt>
      <trkpt lat="49.8359" lon="2.52447">
        <ele>58.5</ele>
        <time>2022-12-07T13:46:15Z</time>
      </trkpt>
      <trkpt lat="49.83589" lon="2.52447">
        <ele>58.5</ele>
        <time>2022-12-07T13:46:16Z</time>
      </trkpt>
      <trkpt lat="49.83587" lon="2.52446">
        <ele>58.5</ele>
        <time>2022-12-07T13:46:17Z</time>
      </trkpt>
      <trkpt lat="49.83586" lon="2.52445">
        <ele>58.5</ele>
        <time>2022-12-07T13:46:18Z</time>
      </trkpt>
      <trkpt lat="49.83586" lon="2.52444">
        <ele>58.5</ele>
        <time>2022-12-07T13:46:19Z</time>
      </trkpt>
      <trkpt lat="49.83584" lon="2.52442">
        <ele>58.6</ele>
        <time>2022-12-07T13:46:20Z</time>
      </trkpt>
      <trkpt lat="49.83583" lon="2.52442">
        <ele>58.6</ele>
        <time>2022-12-07T13:46:21Z</time>
      </trkpt>
      <trkpt lat="49.83582" lon="2.52441">
        <ele>58.6</ele>
        <time>2022-12-07T13:46:22Z</time>
      </trkpt>
      <trkpt lat="49.83581" lon="2.5244">
        <ele>58.6</ele>
        <time>2022-12-07T13:46:23Z</time>
      </trkpt>
      <trkpt lat="49.8358" lon="2.52439">
        <ele>58.6</ele>
        <time>2022-12-07T13:46:24Z</time>
      </trkpt>
      <trkpt lat="49.83578" lon="2.52437">
        <ele>58.7</ele>
        <time>2022-12-07T13:46:25Z</time>
      </trkpt>
      <trkpt lat="49.83577" lon="2.52437">
        <ele>58.7</ele>
        <time>2022-12-07T13:46:26Z</time>
      </trkpt>
      <trkpt lat="49.83576" lon="2.52436">
        <ele>58.7</ele>
        <time>2022-12-07T13:46:27Z</time>
      </trkpt>
      <trkpt lat="49.83574" lon="2.52435">
        <ele>58.7</ele>
        <time>2022-12-07T13:46:28Z</time>
      </trkpt>
      <trkpt lat="49.83573" lon="2.52434">
        <ele>58.7</ele>
        <time>2022-12-07T13:46:29Z</time>
      </trkpt>
      <trkpt lat="49.83573" lon="2.52434">
        <ele>58.7</ele>
        <time>2022-12-07T13:46:30Z</time>
      </trkpt>
      <trkpt lat="49.83572" lon="2.52433">
        <ele>58.7</ele>
        <time>2022-12-07T13:46:31Z</time>
      </trkpt>
      <trkpt lat="49.83571" lon="2.52432">
        <ele>58.7</ele>
        <time>2022-12-07T13:46:32Z</time>
      </trkpt>
      <trkpt lat="49.8357" lon="2.52431">
        <ele>58.6</ele>
        <time>2022-12-07T13:46:33Z</time>
      </trkpt>
      <trkpt lat="49.83569" lon="2.5243">
        <ele>58.6</ele>
        <time>2022-12-07T13:46:34Z</time>
      </trkpt>
      <trkpt lat="49.83568" lon="2.52429">
        <ele>58.6</ele>
        <time>2022-12-07T13:46:35Z</time>
      </trkpt>
      <trkpt lat="49.83567" lon="2.52428">
        <ele>58.6</ele>
        <time>2022-12-07T13:46:36Z</time>
      </trkpt>
      <trkpt lat="49.83566" lon="2.52427">
        <ele>58.6</ele>
        <time>2022-12-07T13:46:37Z</time>
      </trkpt>
      <trkpt lat="49.83565" lon="2.52426">
        <ele>58.6</ele>
        <time>2022-12-07T13:46:38Z</time>
      </trkpt>
      <trkpt lat="49.83564" lon="2.52425">
        <ele>58.5</ele>
        <time>2022-12-07T13:46:39Z</time>
      </trkpt>
      <trkpt lat="49.83563" lon="2.52424">
        <ele>58.5</ele>
        <time>2022-12-07T13:46:40Z</time>
      </trkpt>
      <trkpt lat="49.83562" lon="2.52423">
        <ele>58.5</ele>
        <time>2022-12-07T13:46:41Z</time>
      </trkpt>
      <trkpt lat="49.83561" lon="2.52423">
        <ele>58.5</ele>
        <time>2022-12-07T13:46:42Z</time>
      </trkpt>
      <trkpt lat="49.83561" lon="2.52422">
        <ele>58.5</ele>
        <time>2022-12-07T13:46:43Z</time>
      </trkpt>
      <trkpt lat="49.8356" lon="2.52421">
        <ele>58.5</ele>
        <time>2022-12-07T13:46:44Z</time>
      </trkpt>
      <trkpt lat="49.83559" lon="2.5242">
        <ele>58.4</ele>
        <time>2022-12-07T13:46:45Z</time>
      </trkpt>
      <trkpt lat="49.83558" lon="2.52419">
        <ele>58.4</ele>
        <time>2022-12-07T13:46:46Z</time>
      </trkpt>
      <trkpt lat="49.83557" lon="2.52418">
        <ele>58.4</ele>
        <time>2022-12-07T13:46:47Z</time>
      </trkpt>
      <trkpt lat="49.83556" lon="2.52417">
        <ele>58.4</ele>
        <time>2022-12-07T13:46:48Z</time>
      </trkpt>
      <trkpt lat="49.83555" lon="2.52415">
        <ele>58.3</ele>
        <time>2022-12-07T13:46:49Z</time>
      </trkpt>
      <trkpt lat="49.83554" lon="2.52414">
        <ele>58.3</ele>
        <time>2022-12-07T13:46:50Z</time>
      </trkpt>
      <trkpt lat="49.83553" lon="2.52413">
        <ele>58.3</ele>
        <time>2022-12-07T13:46:51Z</time>
      </trkpt>
      <trkpt lat="49.83553" lon="2.52412">
        <ele>58.3</ele>
        <time>2022-12-07T13:46:52Z</time>
      </trkpt>
      <trkpt lat="49.83552" lon="2.52411">
        <ele>58.3</ele>
        <time>2022-12-07T13:46:53Z</time>
      </trkpt>
      <trkpt lat="49.83551" lon="2.52409">
        <ele>58.3</ele>
        <time>2022-12-07T13:46:54Z</time>
      </trkpt>
      <trkpt lat="49.83549" lon="2.52407">
        <ele>58.3</ele>
        <time>2022-12-07T13:46:55Z</time>
      </trkpt>
      <trkpt lat="49.83548" lon="2.52407">
        <ele>58.2</ele>
        <time>2022-12-07T13:46:56Z</time>
      </trkpt>
      <trkpt lat="49.83548" lon="2.52406">
        <ele>58.2</ele>
        <time>2022-12-07T13:46:57Z</time>
      </trkpt>
      <trkpt lat="49.83546" lon="2.52405">
        <ele>58.2</ele>
        <time>2022-12-07T13:46:58Z</time>
      </trkpt>
      <trkpt lat="49.83545" lon="2.52403">
        <ele>58.2</ele>
        <time>2022-12-07T13:46:59Z</time>
      </trkpt>
      <trkpt lat="49.83544" lon="2.52401">
        <ele>58.2</ele>
        <time>2022-12-07T13:47:00Z</time>
      </trkpt>
      <trkpt lat="49.83543" lon="2.524">
        <ele>58.2</ele>
        <time>2022-12-07T13:47:01Z</time>
      </trkpt>
      <trkpt lat="49.83542" lon="2.524">
        <ele>58.2</ele>
        <time>2022-12-07T13:47:02Z</time>
      </trkpt>
      <trkpt lat="49.83541" lon="2.52398">
        <ele>58.2</ele>
        <time>2022-12-07T13:47:03Z</time>
      </trkpt>
      <trkpt lat="49.8354" lon="2.52396">
        <ele>58.1</ele>
        <time>2022-12-07T13:47:04Z</time>
      </trkpt>
      <trkpt lat="49.83538" lon="2.52395">
        <ele>58.1</ele>
        <time>2022-12-07T13:47:05Z</time>
      </trkpt>
      <trkpt lat="49.83537" lon="2.52393">
        <ele>58.1</ele>
        <time>2022-12-07T13:47:06Z</time>
      </trkpt>
      <trkpt lat="49.83536" lon="2.52391">
        <ele>58.1</ele>
        <time>2022-12-07T13:47:07Z</time>
      </trkpt>
      <trkpt lat="49.83535" lon="2.5239">
        <ele>58.1</ele>
        <time>2022-12-07T13:47:08Z</time>
      </trkpt>
      <trkpt lat="49.83534" lon="2.52388">
        <ele>58.1</ele>
        <time>2022-12-07T13:47:09Z</time>
      </trkpt>
      <trkpt lat="49.83533" lon="2.52387">
        <ele>58.1</ele>
        <time>2022-12-07T13:47:10Z</time>
      </trkpt>
      <trkpt lat="49.83531" lon="2.52384">
        <ele>58.1</ele>
        <time>2022-12-07T13:47:11Z</time>
      </trkpt>
      <trkpt lat="49.83531" lon="2.52383">
        <ele>58</ele>
        <time>2022-12-07T13:47:12Z</time>
      </trkpt>
      <trkpt lat="49.8353" lon="2.52383">
        <ele>58</ele>
        <time>2022-12-07T13:47:13Z</time>
      </trkpt>
      <trkpt lat="49.83528" lon="2.5238">
        <ele>58</ele>
        <time>2022-12-07T13:47:14Z</time>
      </trkpt>
      <trkpt lat="49.83528" lon="2.5238">
        <ele>58</ele>
        <time>2022-12-07T13:47:15Z</time>
      </trkpt>
      <trkpt lat="49.83527" lon="2.52379">
        <ele>58</ele>
        <time>2022-12-07T13:47:16Z</time>
      </trkpt>
      <trkpt lat="49.83526" lon="2.52377">
        <ele>58</ele>
        <time>2022-12-07T13:47:17Z</time>
      </trkpt>
      <trkpt lat="49.83525" lon="2.52376">
        <ele>58</ele>
        <time>2022-12-07T13:47:18Z</time>
      </trkpt>
      <trkpt lat="49.83525" lon="2.52375">
        <ele>58</ele>
        <time>2022-12-07T13:47:19Z</time>
      </trkpt>
      <trkpt lat="49.83524" lon="2.52373">
        <ele>58</ele>
        <time>2022-12-07T13:47:20Z</time>
      </trkpt>
      <trkpt lat="49.83523" lon="2.52372">
        <ele>58</ele>
        <time>2022-12-07T13:47:21Z</time>
      </trkpt>
      <trkpt lat="49.83523" lon="2.5237">
        <ele>58</ele>
        <time>2022-12-07T13:47:22Z</time>
      </trkpt>
      <trkpt lat="49.83522" lon="2.52369">
        <ele>58</ele>
        <time>2022-12-07T13:47:23Z</time>
      </trkpt>
      <trkpt lat="49.83522" lon="2.52368">
        <ele>58</ele>
        <time>2022-12-07T13:47:24Z</time>
      </trkpt>
      <trkpt lat="49.83521" lon="2.52367">
        <ele>58</ele>
        <time>2022-12-07T13:47:25Z</time>
      </trkpt>
      <trkpt lat="49.83521" lon="2.52366">
        <ele>57.9</ele>
        <time>2022-12-07T13:47:26Z</time>
      </trkpt>
      <trkpt lat="49.8352" lon="2.52364">
        <ele>57.9</ele>
        <time>2022-12-07T13:47:27Z</time>
      </trkpt>
      <trkpt lat="49.83519" lon="2.52363">
        <ele>57.9</ele>
        <time>2022-12-07T13:47:28Z</time>
      </trkpt>
      <trkpt lat="49.83519" lon="2.52362">
        <ele>57.9</ele>
        <time>2022-12-07T13:47:29Z</time>
      </trkpt>
      <trkpt lat="49.83518" lon="2.5236">
        <ele>57.9</ele>
        <time>2022-12-07T13:47:30Z</time>
      </trkpt>
      <trkpt lat="49.83518" lon="2.52359">
        <ele>57.9</ele>
        <time>2022-12-07T13:47:31Z</time>
      </trkpt>
      <trkpt lat="49.83518" lon="2.52357">
        <ele>57.9</ele>
        <time>2022-12-07T13:47:32Z</time>
      </trkpt>
      <trkpt lat="49.83517" lon="2.52356">
        <ele>57.9</ele>
        <time>2022-12-07T13:47:33Z</time>
      </trkpt>
      <trkpt lat="49.83516" lon="2.52354">
        <ele>57.9</ele>
        <time>2022-12-07T13:47:34Z</time>
      </trkpt>
      <trkpt lat="49.83516" lon="2.52353">
        <ele>57.9</ele>
        <time>2022-12-07T13:47:35Z</time>
      </trkpt>
      <trkpt lat="49.83515" lon="2.52351">
        <ele>57.9</ele>
        <time>2022-12-07T13:47:36Z</time>
      </trkpt>
      <trkpt lat="49.83515" lon="2.5235">
        <ele>57.9</ele>
        <time>2022-12-07T13:47:37Z</time>
      </trkpt>
      <trkpt lat="49.83515" lon="2.52349">
        <ele>57.9</ele>
        <time>2022-12-07T13:47:38Z</time>
      </trkpt>
      <trkpt lat="49.83515" lon="2.52348">
        <ele>57.8</ele>
        <time>2022-12-07T13:47:39Z</time>
      </trkpt>
      <trkpt lat="49.83515" lon="2.52347">
        <ele>57.8</ele>
        <time>2022-12-07T13:47:40Z</time>
      </trkpt>
      <trkpt lat="49.83515" lon="2.52345">
        <ele>57.8</ele>
        <time>2022-12-07T13:47:41Z</time>
      </trkpt>
      <trkpt lat="49.83515" lon="2.52344">
        <ele>57.8</ele>
        <time>2022-12-07T13:47:42Z</time>
      </trkpt>
      <trkpt lat="49.83514" lon="2.52343">
        <ele>57.8</ele>
        <time>2022-12-07T13:47:43Z</time>
      </trkpt>
      <trkpt lat="49.83514" lon="2.52342">
        <ele>57.8</ele>
        <time>2022-12-07T13:47:44Z</time>
      </trkpt>
      <trkpt lat="49.83514" lon="2.52341">
        <ele>57.8</ele>
        <time>2022-12-07T13:47:45Z</time>
      </trkpt>
      <trkpt lat="49.83513" lon="2.52339">
        <ele>57.8</ele>
        <time>2022-12-07T13:47:46Z</time>
      </trkpt>
      <trkpt lat="49.83513" lon="2.52338">
        <ele>57.8</ele>
        <time>2022-12-07T13:47:47Z</time>
      </trkpt>
      <trkpt lat="49.83512" lon="2.52336">
        <ele>57.8</ele>
        <time>2022-12-07T13:47:48Z</time>
      </trkpt>
      <trkpt lat="49.83512" lon="2.52335">
        <ele>57.8</ele>
        <time>2022-12-07T13:47:49Z</time>
      </trkpt>
      <trkpt lat="49.83512" lon="2.52333">
        <ele>57.7</ele>
        <time>2022-12-07T13:47:50Z</time>
      </trkpt>
      <trkpt lat="49.83511" lon="2.52332">
        <ele>57.7</ele>
        <time>2022-12-07T13:47:51Z</time>
      </trkpt>
      <trkpt lat="49.83511" lon="2.5233">
        <ele>57.7</ele>
        <time>2022-12-07T13:47:52Z</time>
      </trkpt>
      <trkpt lat="49.83511" lon="2.52329">
        <ele>57.7</ele>
        <time>2022-12-07T13:47:53Z</time>
      </trkpt>
      <trkpt lat="49.8351" lon="2.52327">
        <ele>57.7</ele>
        <time>2022-12-07T13:47:54Z</time>
      </trkpt>
      <trkpt lat="49.8351" lon="2.52326">
        <ele>57.7</ele>
        <time>2022-12-07T13:47:55Z</time>
      </trkpt>
      <trkpt lat="49.83509" lon="2.52324">
        <ele>57.7</ele>
        <time>2022-12-07T13:47:56Z</time>
      </trkpt>
      <trkpt lat="49.83509" lon="2.52322">
        <ele>57.6</ele>
        <time>2022-12-07T13:47:57Z</time>
      </trkpt>
      <trkpt lat="49.83508" lon="2.52321">
        <ele>57.6</ele>
        <time>2022-12-07T13:47:58Z</time>
      </trkpt>
      <trkpt lat="49.83508" lon="2.52319">
        <ele>57.6</ele>
        <time>2022-12-07T13:47:59Z</time>
      </trkpt>
      <trkpt lat="49.83507" lon="2.52318">
        <ele>57.6</ele>
        <time>2022-12-07T13:48:00Z</time>
      </trkpt>
      <trkpt lat="49.83507" lon="2.52316">
        <ele>57.6</ele>
        <time>2022-12-07T13:48:01Z</time>
      </trkpt>
      <trkpt lat="49.83506" lon="2.52314">
        <ele>57.6</ele>
        <time>2022-12-07T13:48:02Z</time>
      </trkpt>
      <trkpt lat="49.83506" lon="2.52313">
        <ele>57.5</ele>
        <time>2022-12-07T13:48:03Z</time>
      </trkpt>
      <trkpt lat="49.83505" lon="2.52311">
        <ele>57.5</ele>
        <time>2022-12-07T13:48:04Z</time>
      </trkpt>
      <trkpt lat="49.83505" lon="2.5231">
        <ele>57.5</ele>
        <time>2022-12-07T13:48:05Z</time>
      </trkpt>
      <trkpt lat="49.83504" lon="2.52309">
        <ele>57.5</ele>
        <time>2022-12-07T13:48:06Z</time>
      </trkpt>
      <trkpt lat="49.83504" lon="2.52307">
        <ele>57.5</ele>
        <time>2022-12-07T13:48:07Z</time>
      </trkpt>
      <trkpt lat="49.83503" lon="2.52305">
        <ele>57.5</ele>
        <time>2022-12-07T13:48:08Z</time>
      </trkpt>
      <trkpt lat="49.83503" lon="2.52304">
        <ele>57.5</ele>
        <time>2022-12-07T13:48:09Z</time>
      </trkpt>
      <trkpt lat="49.83503" lon="2.52302">
        <ele>57.5</ele>
        <time>2022-12-07T13:48:10Z</time>
      </trkpt>
      <trkpt lat="49.83502" lon="2.523">
        <ele>57.5</ele>
        <time>2022-12-07T13:48:11Z</time>
      </trkpt>
      <trkpt lat="49.83502" lon="2.52298">
        <ele>57.5</ele>
        <time>2022-12-07T13:48:12Z</time>
      </trkpt>
      <trkpt lat="49.83502" lon="2.52297">
        <ele>57.5</ele>
        <time>2022-12-07T13:48:13Z</time>
      </trkpt>
      <trkpt lat="49.83501" lon="2.52295">
        <ele>57.5</ele>
        <time>2022-12-07T13:48:14Z</time>
      </trkpt>
      <trkpt lat="49.83501" lon="2.52293">
        <ele>57.5</ele>
        <time>2022-12-07T13:48:15Z</time>
      </trkpt>
      <trkpt lat="49.83501" lon="2.52292">
        <ele>57.5</ele>
        <time>2022-12-07T13:48:16Z</time>
      </trkpt>
      <trkpt lat="49.835" lon="2.5229">
        <ele>57.5</ele>
        <time>2022-12-07T13:48:17Z</time>
      </trkpt>
      <trkpt lat="49.835" lon="2.52289">
        <ele>57.5</ele>
        <time>2022-12-07T13:48:18Z</time>
      </trkpt>
      <trkpt lat="49.835" lon="2.52287">
        <ele>57.5</ele>
        <time>2022-12-07T13:48:19Z</time>
      </trkpt>
      <trkpt lat="49.83499" lon="2.52285">
        <ele>57.5</ele>
        <time>2022-12-07T13:48:20Z</time>
      </trkpt>
      <trkpt lat="49.83499" lon="2.52284">
        <ele>57.4</ele>
        <time>2022-12-07T13:48:21Z</time>
      </trkpt>
      <trkpt lat="49.83499" lon="2.52282">
        <ele>57.4</ele>
        <time>2022-12-07T13:48:22Z</time>
      </trkpt>
      <trkpt lat="49.83498" lon="2.52281">
        <ele>57.4</ele>
        <time>2022-12-07T13:48:23Z</time>
      </trkpt>
      <trkpt lat="49.83498" lon="2.52279">
        <ele>57.4</ele>
        <time>2022-12-07T13:48:24Z</time>
      </trkpt>
      <trkpt lat="49.83498" lon="2.52277">
        <ele>57.4</ele>
        <time>2022-12-07T13:48:25Z</time>
      </trkpt>
      <trkpt lat="49.83497" lon="2.52276">
        <ele>57.4</ele>
        <time>2022-12-07T13:48:26Z</time>
      </trkpt>
      <trkpt lat="49.83497" lon="2.52275">
        <ele>57.4</ele>
        <time>2022-12-07T13:48:27Z</time>
      </trkpt>
      <trkpt lat="49.83496" lon="2.52273">
        <ele>57.4</ele>
        <time>2022-12-07T13:48:28Z</time>
      </trkpt>
      <trkpt lat="49.83495" lon="2.52272">
        <ele>57.4</ele>
        <time>2022-12-07T13:48:29Z</time>
      </trkpt>
      <trkpt lat="49.83494" lon="2.52269">
        <ele>57.4</ele>
        <time>2022-12-07T13:48:30Z</time>
      </trkpt>
      <trkpt lat="49.83494" lon="2.52268">
        <ele>57.4</ele>
        <time>2022-12-07T13:48:31Z</time>
      </trkpt>
      <trkpt lat="49.83493" lon="2.52267">
        <ele>57.4</ele>
        <time>2022-12-07T13:48:32Z</time>
      </trkpt>
      <trkpt lat="49.83493" lon="2.52265">
        <ele>57.4</ele>
        <time>2022-12-07T13:48:33Z</time>
      </trkpt>
      <trkpt lat="49.83492" lon="2.52264">
        <ele>57.4</ele>
        <time>2022-12-07T13:48:34Z</time>
      </trkpt>
      <trkpt lat="49.83492" lon="2.52262">
        <ele>57.4</ele>
        <time>2022-12-07T13:48:35Z</time>
      </trkpt>
      <trkpt lat="49.83491" lon="2.52261">
        <ele>57.4</ele>
        <time>2022-12-07T13:48:36Z</time>
      </trkpt>
      <trkpt lat="49.83491" lon="2.5226">
        <ele>57.4</ele>
        <time>2022-12-07T13:48:37Z</time>
      </trkpt>
      <trkpt lat="49.8349" lon="2.52259">
        <ele>57.4</ele>
        <time>2022-12-07T13:48:38Z</time>
      </trkpt>
      <trkpt lat="49.8349" lon="2.52258">
        <ele>57.4</ele>
        <time>2022-12-07T13:48:39Z</time>
      </trkpt>
      <trkpt lat="49.83489" lon="2.52257">
        <ele>57.4</ele>
        <time>2022-12-07T13:48:40Z</time>
      </trkpt>
      <trkpt lat="49.83489" lon="2.52256">
        <ele>57.3</ele>
        <time>2022-12-07T13:48:41Z</time>
      </trkpt>
      <trkpt lat="49.83488" lon="2.52255">
        <ele>57.3</ele>
        <time>2022-12-07T13:48:42Z</time>
      </trkpt>
      <trkpt lat="49.83487" lon="2.52253">
        <ele>57.3</ele>
        <time>2022-12-07T13:48:43Z</time>
      </trkpt>
      <trkpt lat="49.83487" lon="2.52252">
        <ele>57.3</ele>
        <time>2022-12-07T13:48:44Z</time>
      </trkpt>
      <trkpt lat="49.83486" lon="2.52251">
        <ele>57.3</ele>
        <time>2022-12-07T13:48:45Z</time>
      </trkpt>
      <trkpt lat="49.83486" lon="2.5225">
        <ele>57.3</ele>
        <time>2022-12-07T13:48:46Z</time>
      </trkpt>
      <trkpt lat="49.83485" lon="2.52249">
        <ele>57.3</ele>
        <time>2022-12-07T13:48:47Z</time>
      </trkpt>
      <trkpt lat="49.83484" lon="2.52248">
        <ele>57.3</ele>
        <time>2022-12-07T13:48:48Z</time>
      </trkpt>
      <trkpt lat="49.83483" lon="2.52247">
        <ele>57.3</ele>
        <time>2022-12-07T13:48:49Z</time>
      </trkpt>
      <trkpt lat="49.83483" lon="2.52246">
        <ele>57.3</ele>
        <time>2022-12-07T13:48:50Z</time>
      </trkpt>
      <trkpt lat="49.83482" lon="2.52245">
        <ele>57.2</ele>
        <time>2022-12-07T13:48:51Z</time>
      </trkpt>
      <trkpt lat="49.83481" lon="2.52244">
        <ele>57.2</ele>
        <time>2022-12-07T13:48:52Z</time>
      </trkpt>
      <trkpt lat="49.8348" lon="2.52243">
        <ele>57.2</ele>
        <time>2022-12-07T13:48:53Z</time>
      </trkpt>
      <trkpt lat="49.83479" lon="2.52242">
        <ele>57.2</ele>
        <time>2022-12-07T13:48:54Z</time>
      </trkpt>
      <trkpt lat="49.83478" lon="2.52241">
        <ele>57.2</ele>
        <time>2022-12-07T13:48:55Z</time>
      </trkpt>
      <trkpt lat="49.83477" lon="2.5224">
        <ele>57.2</ele>
        <time>2022-12-07T13:48:56Z</time>
      </trkpt>
      <trkpt lat="49.83476" lon="2.5224">
        <ele>57.2</ele>
        <time>2022-12-07T13:48:57Z</time>
      </trkpt>
      <trkpt lat="49.83475" lon="2.52239">
        <ele>57.2</ele>
        <time>2022-12-07T13:48:58Z</time>
      </trkpt>
      <trkpt lat="49.83474" lon="2.52238">
        <ele>57.1</ele>
        <time>2022-12-07T13:48:59Z</time>
      </trkpt>
      <trkpt lat="49.83473" lon="2.52238">
        <ele>57.1</ele>
        <time>2022-12-07T13:49:00Z</time>
      </trkpt>
      <trkpt lat="49.83472" lon="2.52237">
        <ele>57.1</ele>
        <time>2022-12-07T13:49:01Z</time>
      </trkpt>
      <trkpt lat="49.83471" lon="2.52236">
        <ele>57.1</ele>
        <time>2022-12-07T13:49:02Z</time>
      </trkpt>
      <trkpt lat="49.83471" lon="2.52236">
        <ele>57.1</ele>
        <time>2022-12-07T13:49:03Z</time>
      </trkpt>
      <trkpt lat="49.83469" lon="2.52234">
        <ele>57.1</ele>
        <time>2022-12-07T13:49:04Z</time>
      </trkpt>
      <trkpt lat="49.83468" lon="2.52234">
        <ele>57.1</ele>
        <time>2022-12-07T13:49:05Z</time>
      </trkpt>
      <trkpt lat="49.83467" lon="2.52233">
        <ele>57</ele>
        <time>2022-12-07T13:49:06Z</time>
      </trkpt>
      <trkpt lat="49.83465" lon="2.52232">
        <ele>57</ele>
        <time>2022-12-07T13:49:07Z</time>
      </trkpt>
      <trkpt lat="49.83465" lon="2.52231">
        <ele>57</ele>
        <time>2022-12-07T13:49:08Z</time>
      </trkpt>
      <trkpt lat="49.83464" lon="2.52231">
        <ele>57</ele>
        <time>2022-12-07T13:49:09Z</time>
      </trkpt>
      <trkpt lat="49.83462" lon="2.52229">
        <ele>57</ele>
        <time>2022-12-07T13:49:10Z</time>
      </trkpt>
      <trkpt lat="49.83461" lon="2.52228">
        <ele>56.9</ele>
        <time>2022-12-07T13:49:11Z</time>
      </trkpt>
      <trkpt lat="49.83461" lon="2.52227">
        <ele>56.9</ele>
        <time>2022-12-07T13:49:12Z</time>
      </trkpt>
      <trkpt lat="49.83459" lon="2.52226">
        <ele>56.9</ele>
        <time>2022-12-07T13:49:13Z</time>
      </trkpt>
      <trkpt lat="49.83458" lon="2.52225">
        <ele>56.9</ele>
        <time>2022-12-07T13:49:14Z</time>
      </trkpt>
      <trkpt lat="49.83457" lon="2.52225">
        <ele>56.9</ele>
        <time>2022-12-07T13:49:15Z</time>
      </trkpt>
      <trkpt lat="49.83456" lon="2.52224">
        <ele>56.9</ele>
        <time>2022-12-07T13:49:16Z</time>
      </trkpt>
      <trkpt lat="49.83455" lon="2.52223">
        <ele>56.8</ele>
        <time>2022-12-07T13:49:17Z</time>
      </trkpt>
      <trkpt lat="49.83454" lon="2.52222">
        <ele>56.8</ele>
        <time>2022-12-07T13:49:18Z</time>
      </trkpt>
      <trkpt lat="49.83452" lon="2.52221">
        <ele>56.8</ele>
        <time>2022-12-07T13:49:19Z</time>
      </trkpt>
      <trkpt lat="49.83451" lon="2.52221">
        <ele>56.8</ele>
        <time>2022-12-07T13:49:20Z</time>
      </trkpt>
      <trkpt lat="49.8345" lon="2.52221">
        <ele>56.8</ele>
        <time>2022-12-07T13:49:21Z</time>
      </trkpt>
      <trkpt lat="49.83449" lon="2.5222">
        <ele>56.8</ele>
        <time>2022-12-07T13:49:22Z</time>
      </trkpt>
      <trkpt lat="49.83448" lon="2.52219">
        <ele>56.7</ele>
        <time>2022-12-07T13:49:23Z</time>
      </trkpt>
      <trkpt lat="49.83447" lon="2.52219">
        <ele>56.7</ele>
        <time>2022-12-07T13:49:24Z</time>
      </trkpt>
      <trkpt lat="49.83445" lon="2.52218">
        <ele>56.7</ele>
        <time>2022-12-07T13:49:25Z</time>
      </trkpt>
      <trkpt lat="49.83444" lon="2.52218">
        <ele>56.7</ele>
        <time>2022-12-07T13:49:26Z</time>
      </trkpt>
      <trkpt lat="49.83443" lon="2.52218">
        <ele>56.7</ele>
        <time>2022-12-07T13:49:27Z</time>
      </trkpt>
      <trkpt lat="49.83441" lon="2.52217">
        <ele>56.7</ele>
        <time>2022-12-07T13:49:28Z</time>
      </trkpt>
      <trkpt lat="49.83441" lon="2.52217">
        <ele>56.7</ele>
        <time>2022-12-07T13:49:29Z</time>
      </trkpt>
      <trkpt lat="49.8344" lon="2.52217">
        <ele>56.6</ele>
        <time>2022-12-07T13:49:30Z</time>
      </trkpt>
      <trkpt lat="49.83438" lon="2.52216">
        <ele>56.6</ele>
        <time>2022-12-07T13:49:31Z</time>
      </trkpt>
      <trkpt lat="49.83437" lon="2.52216">
        <ele>56.6</ele>
        <time>2022-12-07T13:49:32Z</time>
      </trkpt>
      <trkpt lat="49.83436" lon="2.52216">
        <ele>56.6</ele>
        <time>2022-12-07T13:49:33Z</time>
      </trkpt>
      <trkpt lat="49.83435" lon="2.52215">
        <ele>56.6</ele>
        <time>2022-12-07T13:49:34Z</time>
      </trkpt>
      <trkpt lat="49.83434" lon="2.52215">
        <ele>56.6</ele>
        <time>2022-12-07T13:49:35Z</time>
      </trkpt>
      <trkpt lat="49.83433" lon="2.52215">
        <ele>56.6</ele>
        <time>2022-12-07T13:49:36Z</time>
      </trkpt>
      <trkpt lat="49.83432" lon="2.52215">
        <ele>56.6</ele>
        <time>2022-12-07T13:49:37Z</time>
      </trkpt>
      <trkpt lat="49.83431" lon="2.52215">
        <ele>56.5</ele>
        <time>2022-12-07T13:49:38Z</time>
      </trkpt>
      <trkpt lat="49.8343" lon="2.52215">
        <ele>56.5</ele>
        <time>2022-12-07T13:49:39Z</time>
      </trkpt>
      <trkpt lat="49.83429" lon="2.52215">
        <ele>56.5</ele>
        <time>2022-12-07T13:49:40Z</time>
      </trkpt>
      <trkpt lat="49.83428" lon="2.52215">
        <ele>56.5</ele>
        <time>2022-12-07T13:49:41Z</time>
      </trkpt>
      <trkpt lat="49.83427" lon="2.52215">
        <ele>56.5</ele>
        <time>2022-12-07T13:49:42Z</time>
      </trkpt>
      <trkpt lat="49.83425" lon="2.52215">
        <ele>56.5</ele>
        <time>2022-12-07T13:49:43Z</time>
      </trkpt>
      <trkpt lat="49.83424" lon="2.52215">
        <ele>56.5</ele>
        <time>2022-12-07T13:49:44Z</time>
      </trkpt>
      <trkpt lat="49.83424" lon="2.52215">
        <ele>56.5</ele>
        <time>2022-12-07T13:49:45Z</time>
      </trkpt>
      <trkpt lat="49.83423" lon="2.52215">
        <ele>56.5</ele>
        <time>2022-12-07T13:49:46Z</time>
      </trkpt>
      <trkpt lat="49.83422" lon="2.52215">
        <ele>56.4</ele>
        <time>2022-12-07T13:49:47Z</time>
      </trkpt>
      <trkpt lat="49.83421" lon="2.52215">
        <ele>56.4</ele>
        <time>2022-12-07T13:49:48Z</time>
      </trkpt>
      <trkpt lat="49.8342" lon="2.52215">
        <ele>56.4</ele>
        <time>2022-12-07T13:49:49Z</time>
      </trkpt>
      <trkpt lat="49.83419" lon="2.52215">
        <ele>56.4</ele>
        <time>2022-12-07T13:49:50Z</time>
      </trkpt>
      <trkpt lat="49.83418" lon="2.52215">
        <ele>56.4</ele>
        <time>2022-12-07T13:49:51Z</time>
      </trkpt>
      <trkpt lat="49.83417" lon="2.52215">
        <ele>56.4</ele>
        <time>2022-12-07T13:49:52Z</time>
      </trkpt>
      <trkpt lat="49.83416" lon="2.52215">
        <ele>56.4</ele>
        <time>2022-12-07T13:49:53Z</time>
      </trkpt>
      <trkpt lat="49.83415" lon="2.52215">
        <ele>56.4</ele>
        <time>2022-12-07T13:49:54Z</time>
      </trkpt>
      <trkpt lat="49.83414" lon="2.52215">
        <ele>56.4</ele>
        <time>2022-12-07T13:49:55Z</time>
      </trkpt>
      <trkpt lat="49.83413" lon="2.52215">
        <ele>56.3</ele>
        <time>2022-12-07T13:49:56Z</time>
      </trkpt>
      <trkpt lat="49.83412" lon="2.52216">
        <ele>56.3</ele>
        <time>2022-12-07T13:49:57Z</time>
      </trkpt>
      <trkpt lat="49.83412" lon="2.52216">
        <ele>56.3</ele>
        <time>2022-12-07T13:49:58Z</time>
      </trkpt>
      <trkpt lat="49.83411" lon="2.52216">
        <ele>56.3</ele>
        <time>2022-12-07T13:49:59Z</time>
      </trkpt>
      <trkpt lat="49.83409" lon="2.52216">
        <ele>56.3</ele>
        <time>2022-12-07T13:50:00Z</time>
      </trkpt>
      <trkpt lat="49.83408" lon="2.52217">
        <ele>56.3</ele>
        <time>2022-12-07T13:50:01Z</time>
      </trkpt>
      <trkpt lat="49.83407" lon="2.52217">
        <ele>56.3</ele>
        <time>2022-12-07T13:50:02Z</time>
      </trkpt>
      <trkpt lat="49.83406" lon="2.52218">
        <ele>56.3</ele>
        <time>2022-12-07T13:50:03Z</time>
      </trkpt>
      <trkpt lat="49.83405" lon="2.52218">
        <ele>56.3</ele>
        <time>2022-12-07T13:50:04Z</time>
      </trkpt>
      <trkpt lat="49.83404" lon="2.52219">
        <ele>56.3</ele>
        <time>2022-12-07T13:50:05Z</time>
      </trkpt>
      <trkpt lat="49.83403" lon="2.52219">
        <ele>56.3</ele>
        <time>2022-12-07T13:50:06Z</time>
      </trkpt>
      <trkpt lat="49.83402" lon="2.52219">
        <ele>56.3</ele>
        <time>2022-12-07T13:50:07Z</time>
      </trkpt>
      <trkpt lat="49.83401" lon="2.5222">
        <ele>56.3</ele>
        <time>2022-12-07T13:50:08Z</time>
      </trkpt>
      <trkpt lat="49.834" lon="2.5222">
        <ele>56.3</ele>
        <time>2022-12-07T13:50:09Z</time>
      </trkpt>
      <trkpt lat="49.83399" lon="2.52221">
        <ele>56.3</ele>
        <time>2022-12-07T13:50:10Z</time>
      </trkpt>
      <trkpt lat="49.83398" lon="2.52221">
        <ele>56.3</ele>
        <time>2022-12-07T13:50:11Z</time>
      </trkpt>
      <trkpt lat="49.83397" lon="2.52222">
        <ele>56.3</ele>
        <time>2022-12-07T13:50:12Z</time>
      </trkpt>
      <trkpt lat="49.83396" lon="2.52222">
        <ele>56.3</ele>
        <time>2022-12-07T13:50:13Z</time>
      </trkpt>
      <trkpt lat="49.83395" lon="2.52223">
        <ele>56.3</ele>
        <time>2022-12-07T13:50:14Z</time>
      </trkpt>
      <trkpt lat="49.83394" lon="2.52224">
        <ele>56.3</ele>
        <time>2022-12-07T13:50:15Z</time>
      </trkpt>
      <trkpt lat="49.83393" lon="2.52224">
        <ele>56.3</ele>
        <time>2022-12-07T13:50:16Z</time>
      </trkpt>
      <trkpt lat="49.83392" lon="2.52225">
        <ele>56.3</ele>
        <time>2022-12-07T13:50:17Z</time>
      </trkpt>
      <trkpt lat="49.83391" lon="2.52225">
        <ele>56.3</ele>
        <time>2022-12-07T13:50:18Z</time>
      </trkpt>
      <trkpt lat="49.8339" lon="2.52226">
        <ele>56.3</ele>
        <time>2022-12-07T13:50:19Z</time>
      </trkpt>
      <trkpt lat="49.83389" lon="2.52226">
        <ele>56.3</ele>
        <time>2022-12-07T13:50:20Z</time>
      </trkpt>
      <trkpt lat="49.83388" lon="2.52227">
        <ele>56.3</ele>
        <time>2022-12-07T13:50:21Z</time>
      </trkpt>
      <trkpt lat="49.83387" lon="2.52227">
        <ele>56.3</ele>
        <time>2022-12-07T13:50:22Z</time>
      </trkpt>
      <trkpt lat="49.83386" lon="2.52228">
        <ele>56.3</ele>
        <time>2022-12-07T13:50:23Z</time>
      </trkpt>
      <trkpt lat="49.83385" lon="2.52228">
        <ele>56.3</ele>
        <time>2022-12-07T13:50:24Z</time>
      </trkpt>
      <trkpt lat="49.83384" lon="2.52229">
        <ele>56.3</ele>
        <time>2022-12-07T13:50:25Z</time>
      </trkpt>
      <trkpt lat="49.83383" lon="2.52229">
        <ele>56.3</ele>
        <time>2022-12-07T13:50:26Z</time>
      </trkpt>
      <trkpt lat="49.83382" lon="2.5223">
        <ele>56.3</ele>
        <time>2022-12-07T13:50:27Z</time>
      </trkpt>
      <trkpt lat="49.83381" lon="2.5223">
        <ele>56.3</ele>
        <time>2022-12-07T13:50:28Z</time>
      </trkpt>
      <trkpt lat="49.8338" lon="2.52231">
        <ele>56.3</ele>
        <time>2022-12-07T13:50:29Z</time>
      </trkpt>
      <trkpt lat="49.83379" lon="2.52231">
        <ele>56.3</ele>
        <time>2022-12-07T13:50:30Z</time>
      </trkpt>
      <trkpt lat="49.83378" lon="2.52231">
        <ele>56.3</ele>
        <time>2022-12-07T13:50:31Z</time>
      </trkpt>
      <trkpt lat="49.83377" lon="2.52232">
        <ele>56.3</ele>
        <time>2022-12-07T13:50:32Z</time>
      </trkpt>
      <trkpt lat="49.83376" lon="2.52233">
        <ele>56.4</ele>
        <time>2022-12-07T13:50:33Z</time>
      </trkpt>
      <trkpt lat="49.83376" lon="2.52233">
        <ele>56.4</ele>
        <time>2022-12-07T13:50:34Z</time>
      </trkpt>
      <trkpt lat="49.83376" lon="2.52233">
        <ele>56.4</ele>
        <time>2022-12-07T13:50:35Z</time>
      </trkpt>
      <trkpt lat="49.83375" lon="2.52234">
        <ele>56.4</ele>
        <time>2022-12-07T13:50:36Z</time>
      </trkpt>
      <trkpt lat="49.83375" lon="2.52234">
        <ele>56.4</ele>
        <time>2022-12-07T13:50:37Z</time>
      </trkpt>
      <trkpt lat="49.83375" lon="2.52234">
        <ele>56.4</ele>
        <time>2022-12-07T13:50:38Z</time>
      </trkpt>
      <trkpt lat="49.83375" lon="2.52234">
        <ele>56.4</ele>
        <time>2022-12-07T13:50:39Z</time>
      </trkpt>
      <trkpt lat="49.83375" lon="2.52234">
        <ele>56.4</ele>
        <time>2022-12-07T13:50:40Z</time>
      </trkpt>
      <trkpt lat="49.83375" lon="2.52234">
        <ele>56.4</ele>
        <time>2022-12-07T13:50:41Z</time>
      </trkpt>
      <trkpt lat="49.83375" lon="2.52234">
        <ele>56.4</ele>
        <time>2022-12-07T13:50:42Z</time>
      </trkpt>
      <trkpt lat="49.83374" lon="2.52234">
        <ele>56.4</ele>
        <time>2022-12-07T13:50:43Z</time>
      </trkpt>
      <trkpt lat="49.83374" lon="2.52234">
        <ele>56.4</ele>
        <time>2022-12-07T13:50:44Z</time>
      </trkpt>
      <trkpt lat="49.83374" lon="2.52234">
        <ele>56.4</ele>
        <time>2022-12-07T13:50:45Z</time>
      </trkpt>
      <trkpt lat="49.83373" lon="2.52234">
        <ele>56.4</ele>
        <time>2022-12-07T13:50:46Z</time>
      </trkpt>
      <trkpt lat="49.83373" lon="2.52233">
        <ele>56.4</ele>
        <time>2022-12-07T13:50:47Z</time>
      </trkpt>
      <trkpt lat="49.83373" lon="2.52233">
        <ele>56.4</ele>
        <time>2022-12-07T13:50:48Z</time>
      </trkpt>
      <trkpt lat="49.83373" lon="2.52233">
        <ele>56.4</ele>
        <time>2022-12-07T13:50:49Z</time>
      </trkpt>
      <trkpt lat="49.83373" lon="2.52233">
        <ele>56.4</ele>
        <time>2022-12-07T13:50:50Z</time>
      </trkpt>
      <trkpt lat="49.83373" lon="2.52232">
        <ele>56.4</ele>
        <time>2022-12-07T13:50:51Z</time>
      </trkpt>
      <trkpt lat="49.83373" lon="2.52232">
        <ele>56.4</ele>
        <time>2022-12-07T13:50:52Z</time>
      </trkpt>
      <trkpt lat="49.83373" lon="2.52232">
        <ele>56.4</ele>
        <time>2022-12-07T13:50:53Z</time>
      </trkpt>
      <trkpt lat="49.83372" lon="2.52232">
        <ele>56.4</ele>
        <time>2022-12-07T13:50:54Z</time>
      </trkpt>
      <trkpt lat="49.83372" lon="2.52232">
        <ele>56.4</ele>
        <time>2022-12-07T13:50:55Z</time>
      </trkpt>
      <trkpt lat="49.83371" lon="2.52232">
        <ele>56.4</ele>
        <time>2022-12-07T13:50:56Z</time>
      </trkpt>
      <trkpt lat="49.83371" lon="2.52232">
        <ele>56.4</ele>
        <time>2022-12-07T13:50:57Z</time>
      </trkpt>
      <trkpt lat="49.8337" lon="2.52233">
        <ele>56.4</ele>
        <time>2022-12-07T13:50:58Z</time>
      </trkpt>
      <trkpt lat="49.8337" lon="2.52233">
        <ele>56.4</ele>
        <time>2022-12-07T13:50:59Z</time>
      </trkpt>
      <trkpt lat="49.83369" lon="2.52234">
        <ele>56.4</ele>
        <time>2022-12-07T13:51:00Z</time>
      </trkpt>
      <trkpt lat="49.83369" lon="2.52235">
        <ele>56.4</ele>
        <time>2022-12-07T13:51:01Z</time>
      </trkpt>
      <trkpt lat="49.83368" lon="2.52236">
        <ele>56.4</ele>
        <time>2022-12-07T13:51:02Z</time>
      </trkpt>
      <trkpt lat="49.83367" lon="2.52237">
        <ele>56.4</ele>
        <time>2022-12-07T13:51:03Z</time>
      </trkpt>
      <trkpt lat="49.83367" lon="2.52238">
        <ele>56.4</ele>
        <time>2022-12-07T13:51:04Z</time>
      </trkpt>
      <trkpt lat="49.83367" lon="2.52238">
        <ele>56.4</ele>
        <time>2022-12-07T13:51:05Z</time>
      </trkpt>
      <trkpt lat="49.83367" lon="2.52239">
        <ele>56.4</ele>
        <time>2022-12-07T13:51:06Z</time>
      </trkpt>
      <trkpt lat="49.83366" lon="2.5224">
        <ele>56.4</ele>
        <time>2022-12-07T13:51:07Z</time>
      </trkpt>
      <trkpt lat="49.83366" lon="2.52241">
        <ele>56.4</ele>
        <time>2022-12-07T13:51:08Z</time>
      </trkpt>
      <trkpt lat="49.83365" lon="2.52243">
        <ele>56.4</ele>
        <time>2022-12-07T13:51:09Z</time>
      </trkpt>
      <trkpt lat="49.83364" lon="2.52244">
        <ele>56.4</ele>
        <time>2022-12-07T13:51:10Z</time>
      </trkpt>
      <trkpt lat="49.83363" lon="2.52245">
        <ele>56.4</ele>
        <time>2022-12-07T13:51:11Z</time>
      </trkpt>
      <trkpt lat="49.83362" lon="2.52246">
        <ele>56.4</ele>
        <time>2022-12-07T13:51:12Z</time>
      </trkpt>
      <trkpt lat="49.8336" lon="2.52248">
        <ele>56.4</ele>
        <time>2022-12-07T13:51:13Z</time>
      </trkpt>
      <trkpt lat="49.83359" lon="2.52249">
        <ele>56.4</ele>
        <time>2022-12-07T13:51:14Z</time>
      </trkpt>
      <trkpt lat="49.83358" lon="2.5225">
        <ele>56.4</ele>
        <time>2022-12-07T13:51:15Z</time>
      </trkpt>
      <trkpt lat="49.83356" lon="2.52252">
        <ele>56.4</ele>
        <time>2022-12-07T13:51:16Z</time>
      </trkpt>
      <trkpt lat="49.83355" lon="2.52252">
        <ele>56.4</ele>
        <time>2022-12-07T13:51:17Z</time>
      </trkpt>
      <trkpt lat="49.83355" lon="2.52252">
        <ele>56.4</ele>
        <time>2022-12-07T13:51:18Z</time>
      </trkpt>
      <trkpt lat="49.83354" lon="2.52253">
        <ele>56.4</ele>
        <time>2022-12-07T13:51:19Z</time>
      </trkpt>
      <trkpt lat="49.83353" lon="2.52254">
        <ele>56.4</ele>
        <time>2022-12-07T13:51:20Z</time>
      </trkpt>
      <trkpt lat="49.83352" lon="2.52254">
        <ele>56.4</ele>
        <time>2022-12-07T13:51:21Z</time>
      </trkpt>
      <trkpt lat="49.83351" lon="2.52255">
        <ele>56.4</ele>
        <time>2022-12-07T13:51:22Z</time>
      </trkpt>
      <trkpt lat="49.8335" lon="2.52256">
        <ele>56.4</ele>
        <time>2022-12-07T13:51:23Z</time>
      </trkpt>
      <trkpt lat="49.83349" lon="2.52257">
        <ele>56.4</ele>
        <time>2022-12-07T13:51:24Z</time>
      </trkpt>
      <trkpt lat="49.83348" lon="2.52257">
        <ele>56.4</ele>
        <time>2022-12-07T13:51:25Z</time>
      </trkpt>
      <trkpt lat="49.83347" lon="2.52258">
        <ele>56.4</ele>
        <time>2022-12-07T13:51:26Z</time>
      </trkpt>
      <trkpt lat="49.83347" lon="2.52258">
        <ele>56.4</ele>
        <time>2022-12-07T13:51:27Z</time>
      </trkpt>
      <trkpt lat="49.83346" lon="2.52258">
        <ele>56.4</ele>
        <time>2022-12-07T13:51:28Z</time>
      </trkpt>
      <trkpt lat="49.83345" lon="2.52259">
        <ele>56.4</ele>
        <time>2022-12-07T13:51:29Z</time>
      </trkpt>
      <trkpt lat="49.83344" lon="2.52259">
        <ele>56.4</ele>
        <time>2022-12-07T13:51:30Z</time>
      </trkpt>
      <trkpt lat="49.83343" lon="2.52259">
        <ele>56.4</ele>
        <time>2022-12-07T13:51:31Z</time>
      </trkpt>
      <trkpt lat="49.83342" lon="2.52259">
        <ele>56.4</ele>
        <time>2022-12-07T13:51:32Z</time>
      </trkpt>
      <trkpt lat="49.8334" lon="2.5226">
        <ele>56.4</ele>
        <time>2022-12-07T13:51:33Z</time>
      </trkpt>
      <trkpt lat="49.83339" lon="2.5226">
        <ele>56.4</ele>
        <time>2022-12-07T13:51:34Z</time>
      </trkpt>
      <trkpt lat="49.83338" lon="2.5226">
        <ele>56.4</ele>
        <time>2022-12-07T13:51:35Z</time>
      </trkpt>
      <trkpt lat="49.83336" lon="2.52261">
        <ele>56.4</ele>
        <time>2022-12-07T13:51:36Z</time>
      </trkpt>
      <trkpt lat="49.83335" lon="2.52261">
        <ele>56.4</ele>
        <time>2022-12-07T13:51:37Z</time>
      </trkpt>
      <trkpt lat="49.83333" lon="2.52261">
        <ele>56.5</ele>
        <time>2022-12-07T13:51:38Z</time>
      </trkpt>
      <trkpt lat="49.83331" lon="2.52262">
        <ele>56.5</ele>
        <time>2022-12-07T13:51:39Z</time>
      </trkpt>
      <trkpt lat="49.83329" lon="2.52262">
        <ele>56.5</ele>
        <time>2022-12-07T13:51:40Z</time>
      </trkpt>
      <trkpt lat="49.83329" lon="2.52262">
        <ele>56.5</ele>
        <time>2022-12-07T13:51:41Z</time>
      </trkpt>
      <trkpt lat="49.83328" lon="2.52262">
        <ele>56.5</ele>
        <time>2022-12-07T13:51:42Z</time>
      </trkpt>
      <trkpt lat="49.83326" lon="2.52262">
        <ele>56.5</ele>
        <time>2022-12-07T13:51:43Z</time>
      </trkpt>
      <trkpt lat="49.83325" lon="2.52262">
        <ele>56.5</ele>
        <time>2022-12-07T13:51:44Z</time>
      </trkpt>
      <trkpt lat="49.83324" lon="2.52262">
        <ele>56.5</ele>
        <time>2022-12-07T13:51:45Z</time>
      </trkpt>
      <trkpt lat="49.83323" lon="2.52262">
        <ele>56.5</ele>
        <time>2022-12-07T13:51:46Z</time>
      </trkpt>
      <trkpt lat="49.83321" lon="2.52263">
        <ele>56.5</ele>
        <time>2022-12-07T13:51:47Z</time>
      </trkpt>
      <trkpt lat="49.83319" lon="2.52263">
        <ele>56.5</ele>
        <time>2022-12-07T13:51:48Z</time>
      </trkpt>
      <trkpt lat="49.83318" lon="2.52263">
        <ele>56.5</ele>
        <time>2022-12-07T13:51:49Z</time>
      </trkpt>
      <trkpt lat="49.83317" lon="2.52263">
        <ele>56.5</ele>
        <time>2022-12-07T13:51:50Z</time>
      </trkpt>
      <trkpt lat="49.83316" lon="2.52264">
        <ele>56.5</ele>
        <time>2022-12-07T13:51:51Z</time>
      </trkpt>
      <trkpt lat="49.83315" lon="2.52264">
        <ele>56.5</ele>
        <time>2022-12-07T13:51:52Z</time>
      </trkpt>
      <trkpt lat="49.83314" lon="2.52264">
        <ele>56.5</ele>
        <time>2022-12-07T13:51:53Z</time>
      </trkpt>
      <trkpt lat="49.83313" lon="2.52265">
        <ele>56.5</ele>
        <time>2022-12-07T13:51:54Z</time>
      </trkpt>
      <trkpt lat="49.83312" lon="2.52265">
        <ele>56.5</ele>
        <time>2022-12-07T13:51:55Z</time>
      </trkpt>
      <trkpt lat="49.83311" lon="2.52265">
        <ele>56.5</ele>
        <time>2022-12-07T13:51:56Z</time>
      </trkpt>
      <trkpt lat="49.8331" lon="2.52266">
        <ele>56.5</ele>
        <time>2022-12-07T13:51:57Z</time>
      </trkpt>
      <trkpt lat="49.83309" lon="2.52266">
        <ele>56.5</ele>
        <time>2022-12-07T13:51:58Z</time>
      </trkpt>
      <trkpt lat="49.83308" lon="2.52266">
        <ele>56.5</ele>
        <time>2022-12-07T13:51:59Z</time>
      </trkpt>
      <trkpt lat="49.83306" lon="2.52267">
        <ele>56.5</ele>
        <time>2022-12-07T13:52:00Z</time>
      </trkpt>
      <trkpt lat="49.83306" lon="2.52267">
        <ele>56.5</ele>
        <time>2022-12-07T13:52:01Z</time>
      </trkpt>
      <trkpt lat="49.83305" lon="2.52267">
        <ele>56.5</ele>
        <time>2022-12-07T13:52:02Z</time>
      </trkpt>
      <trkpt lat="49.83304" lon="2.52267">
        <ele>56.5</ele>
        <time>2022-12-07T13:52:03Z</time>
      </trkpt>
      <trkpt lat="49.83303" lon="2.52268">
        <ele>56.5</ele>
        <time>2022-12-07T13:52:04Z</time>
      </trkpt>
      <trkpt lat="49.83302" lon="2.52268">
        <ele>56.5</ele>
        <time>2022-12-07T13:52:05Z</time>
      </trkpt>
      <trkpt lat="49.83301" lon="2.52269">
        <ele>56.5</ele>
        <time>2022-12-07T13:52:06Z</time>
      </trkpt>
      <trkpt lat="49.833" lon="2.52269">
        <ele>56.5</ele>
        <time>2022-12-07T13:52:07Z</time>
      </trkpt>
      <trkpt lat="49.83299" lon="2.5227">
        <ele>56.5</ele>
        <time>2022-12-07T13:52:08Z</time>
      </trkpt>
      <trkpt lat="49.83298" lon="2.5227">
        <ele>56.5</ele>
        <time>2022-12-07T13:52:09Z</time>
      </trkpt>
      <trkpt lat="49.83297" lon="2.52271">
        <ele>56.5</ele>
        <time>2022-12-07T13:52:10Z</time>
      </trkpt>
      <trkpt lat="49.83296" lon="2.52271">
        <ele>56.5</ele>
        <time>2022-12-07T13:52:11Z</time>
      </trkpt>
      <trkpt lat="49.83295" lon="2.52271">
        <ele>56.5</ele>
        <time>2022-12-07T13:52:12Z</time>
      </trkpt>
      <trkpt lat="49.83293" lon="2.52272">
        <ele>56.5</ele>
        <time>2022-12-07T13:52:13Z</time>
      </trkpt>
      <trkpt lat="49.83292" lon="2.52272">
        <ele>56.5</ele>
        <time>2022-12-07T13:52:14Z</time>
      </trkpt>
      <trkpt lat="49.83291" lon="2.52272">
        <ele>56.5</ele>
        <time>2022-12-07T13:52:15Z</time>
      </trkpt>
      <trkpt lat="49.83289" lon="2.52273">
        <ele>56.5</ele>
        <time>2022-12-07T13:52:16Z</time>
      </trkpt>
      <trkpt lat="49.83288" lon="2.52273">
        <ele>56.5</ele>
        <time>2022-12-07T13:52:17Z</time>
      </trkpt>
      <trkpt lat="49.83287" lon="2.52273">
        <ele>56.5</ele>
        <time>2022-12-07T13:52:18Z</time>
      </trkpt>
      <trkpt lat="49.83285" lon="2.52272">
        <ele>56.5</ele>
        <time>2022-12-07T13:52:19Z</time>
      </trkpt>
      <trkpt lat="49.83284" lon="2.52272">
        <ele>56.5</ele>
        <time>2022-12-07T13:52:20Z</time>
      </trkpt>
      <trkpt lat="49.83283" lon="2.52272">
        <ele>56.5</ele>
        <time>2022-12-07T13:52:21Z</time>
      </trkpt>
      <trkpt lat="49.83281" lon="2.52272">
        <ele>56.5</ele>
        <time>2022-12-07T13:52:22Z</time>
      </trkpt>
      <trkpt lat="49.8328" lon="2.52272">
        <ele>56.5</ele>
        <time>2022-12-07T13:52:23Z</time>
      </trkpt>
      <trkpt lat="49.83279" lon="2.52272">
        <ele>56.5</ele>
        <time>2022-12-07T13:52:24Z</time>
      </trkpt>
      <trkpt lat="49.83277" lon="2.52272">
        <ele>56.4</ele>
        <time>2022-12-07T13:52:25Z</time>
      </trkpt>
      <trkpt lat="49.83276" lon="2.52272">
        <ele>56.4</ele>
        <time>2022-12-07T13:52:26Z</time>
      </trkpt>
      <trkpt lat="49.83276" lon="2.52271">
        <ele>56.4</ele>
        <time>2022-12-07T13:52:27Z</time>
      </trkpt>
      <trkpt lat="49.83274" lon="2.52271">
        <ele>56.4</ele>
        <time>2022-12-07T13:52:28Z</time>
      </trkpt>
      <trkpt lat="49.83273" lon="2.52271">
        <ele>56.4</ele>
        <time>2022-12-07T13:52:29Z</time>
      </trkpt>
      <trkpt lat="49.83271" lon="2.52271">
        <ele>56.4</ele>
        <time>2022-12-07T13:52:30Z</time>
      </trkpt>
      <trkpt lat="49.8327" lon="2.5227">
        <ele>56.4</ele>
        <time>2022-12-07T13:52:31Z</time>
      </trkpt>
      <trkpt lat="49.83269" lon="2.5227">
        <ele>56.4</ele>
        <time>2022-12-07T13:52:32Z</time>
      </trkpt>
      <trkpt lat="49.83267" lon="2.5227">
        <ele>56.4</ele>
        <time>2022-12-07T13:52:33Z</time>
      </trkpt>
      <trkpt lat="49.83266" lon="2.5227">
        <ele>56.4</ele>
        <time>2022-12-07T13:52:34Z</time>
      </trkpt>
      <trkpt lat="49.83265" lon="2.5227">
        <ele>56.4</ele>
        <time>2022-12-07T13:52:35Z</time>
      </trkpt>
      <trkpt lat="49.83264" lon="2.52269">
        <ele>56.4</ele>
        <time>2022-12-07T13:52:36Z</time>
      </trkpt>
      <trkpt lat="49.83263" lon="2.52269">
        <ele>56.4</ele>
        <time>2022-12-07T13:52:37Z</time>
      </trkpt>
      <trkpt lat="49.83262" lon="2.52269">
        <ele>56.4</ele>
        <time>2022-12-07T13:52:38Z</time>
      </trkpt>
      <trkpt lat="49.83261" lon="2.52269">
        <ele>56.4</ele>
        <time>2022-12-07T13:52:39Z</time>
      </trkpt>
      <trkpt lat="49.83259" lon="2.52269">
        <ele>56.4</ele>
        <time>2022-12-07T13:52:40Z</time>
      </trkpt>
      <trkpt lat="49.83259" lon="2.52269">
        <ele>56.4</ele>
        <time>2022-12-07T13:52:41Z</time>
      </trkpt>
      <trkpt lat="49.83257" lon="2.52268">
        <ele>56.4</ele>
        <time>2022-12-07T13:52:42Z</time>
      </trkpt>
      <trkpt lat="49.83256" lon="2.52268">
        <ele>56.4</ele>
        <time>2022-12-07T13:52:43Z</time>
      </trkpt>
      <trkpt lat="49.83255" lon="2.52268">
        <ele>56.4</ele>
        <time>2022-12-07T13:52:44Z</time>
      </trkpt>
      <trkpt lat="49.83254" lon="2.52268">
        <ele>56.4</ele>
        <time>2022-12-07T13:52:45Z</time>
      </trkpt>
      <trkpt lat="49.83253" lon="2.52267">
        <ele>56.4</ele>
        <time>2022-12-07T13:52:46Z</time>
      </trkpt>
      <trkpt lat="49.83252" lon="2.52266">
        <ele>56.4</ele>
        <time>2022-12-07T13:52:47Z</time>
      </trkpt>
      <trkpt lat="49.83251" lon="2.52266">
        <ele>56.4</ele>
        <time>2022-12-07T13:52:48Z</time>
      </trkpt>
      <trkpt lat="49.8325" lon="2.52265">
        <ele>56.5</ele>
        <time>2022-12-07T13:52:49Z</time>
      </trkpt>
      <trkpt lat="49.83249" lon="2.52265">
        <ele>56.5</ele>
        <time>2022-12-07T13:52:50Z</time>
      </trkpt>
      <trkpt lat="49.83247" lon="2.52264">
        <ele>56.5</ele>
        <time>2022-12-07T13:52:51Z</time>
      </trkpt>
      <trkpt lat="49.83246" lon="2.52263">
        <ele>56.5</ele>
        <time>2022-12-07T13:52:52Z</time>
      </trkpt>
      <trkpt lat="49.83246" lon="2.52263">
        <ele>56.5</ele>
        <time>2022-12-07T13:52:53Z</time>
      </trkpt>
      <trkpt lat="49.83244" lon="2.52263">
        <ele>56.5</ele>
        <time>2022-12-07T13:52:54Z</time>
      </trkpt>
      <trkpt lat="49.83243" lon="2.52262">
        <ele>56.5</ele>
        <time>2022-12-07T13:52:55Z</time>
      </trkpt>
      <trkpt lat="49.83242" lon="2.52262">
        <ele>56.5</ele>
        <time>2022-12-07T13:52:56Z</time>
      </trkpt>
      <trkpt lat="49.8324" lon="2.52261">
        <ele>56.5</ele>
        <time>2022-12-07T13:52:57Z</time>
      </trkpt>
      <trkpt lat="49.83239" lon="2.5226">
        <ele>56.5</ele>
        <time>2022-12-07T13:52:58Z</time>
      </trkpt>
      <trkpt lat="49.83239" lon="2.5226">
        <ele>56.5</ele>
        <time>2022-12-07T13:52:59Z</time>
      </trkpt>
      <trkpt lat="49.83238" lon="2.52259">
        <ele>56.6</ele>
        <time>2022-12-07T13:53:00Z</time>
      </trkpt>
      <trkpt lat="49.83237" lon="2.52259">
        <ele>56.6</ele>
        <time>2022-12-07T13:53:01Z</time>
      </trkpt>
      <trkpt lat="49.83236" lon="2.52258">
        <ele>56.6</ele>
        <time>2022-12-07T13:53:02Z</time>
      </trkpt>
      <trkpt lat="49.83235" lon="2.52257">
        <ele>56.6</ele>
        <time>2022-12-07T13:53:03Z</time>
      </trkpt>
      <trkpt lat="49.83234" lon="2.52256">
        <ele>56.6</ele>
        <time>2022-12-07T13:53:04Z</time>
      </trkpt>
      <trkpt lat="49.83233" lon="2.52256">
        <ele>56.6</ele>
        <time>2022-12-07T13:53:05Z</time>
      </trkpt>
      <trkpt lat="49.83232" lon="2.52255">
        <ele>56.6</ele>
        <time>2022-12-07T13:53:06Z</time>
      </trkpt>
      <trkpt lat="49.83231" lon="2.52254">
        <ele>56.6</ele>
        <time>2022-12-07T13:53:07Z</time>
      </trkpt>
      <trkpt lat="49.8323" lon="2.52254">
        <ele>56.6</ele>
        <time>2022-12-07T13:53:08Z</time>
      </trkpt>
      <trkpt lat="49.83229" lon="2.52253">
        <ele>56.6</ele>
        <time>2022-12-07T13:53:09Z</time>
      </trkpt>
      <trkpt lat="49.83228" lon="2.52253">
        <ele>56.6</ele>
        <time>2022-12-07T13:53:10Z</time>
      </trkpt>
      <trkpt lat="49.83227" lon="2.52253">
        <ele>56.7</ele>
        <time>2022-12-07T13:53:11Z</time>
      </trkpt>
      <trkpt lat="49.83226" lon="2.52252">
        <ele>56.7</ele>
        <time>2022-12-07T13:53:12Z</time>
      </trkpt>
      <trkpt lat="49.83225" lon="2.52251">
        <ele>56.7</ele>
        <time>2022-12-07T13:53:13Z</time>
      </trkpt>
      <trkpt lat="49.83224" lon="2.52251">
        <ele>56.7</ele>
        <time>2022-12-07T13:53:14Z</time>
      </trkpt>
      <trkpt lat="49.83223" lon="2.5225">
        <ele>56.7</ele>
        <time>2022-12-07T13:53:15Z</time>
      </trkpt>
      <trkpt lat="49.83222" lon="2.52249">
        <ele>56.7</ele>
        <time>2022-12-07T13:53:16Z</time>
      </trkpt>
      <trkpt lat="49.83221" lon="2.52249">
        <ele>56.7</ele>
        <time>2022-12-07T13:53:17Z</time>
      </trkpt>
      <trkpt lat="49.83219" lon="2.52248">
        <ele>56.7</ele>
        <time>2022-12-07T13:53:18Z</time>
      </trkpt>
      <trkpt lat="49.83218" lon="2.52247">
        <ele>56.7</ele>
        <time>2022-12-07T13:53:19Z</time>
      </trkpt>
      <trkpt lat="49.83217" lon="2.52247">
        <ele>56.7</ele>
        <time>2022-12-07T13:53:20Z</time>
      </trkpt>
      <trkpt lat="49.83216" lon="2.52246">
        <ele>56.7</ele>
        <time>2022-12-07T13:53:21Z</time>
      </trkpt>
      <trkpt lat="49.83215" lon="2.52245">
        <ele>56.7</ele>
        <time>2022-12-07T13:53:22Z</time>
      </trkpt>
      <trkpt lat="49.83214" lon="2.52245">
        <ele>56.7</ele>
        <time>2022-12-07T13:53:23Z</time>
      </trkpt>
      <trkpt lat="49.83213" lon="2.52244">
        <ele>56.7</ele>
        <time>2022-12-07T13:53:24Z</time>
      </trkpt>
      <trkpt lat="49.83212" lon="2.52243">
        <ele>56.7</ele>
        <time>2022-12-07T13:53:25Z</time>
      </trkpt>
      <trkpt lat="49.83211" lon="2.52242">
        <ele>56.7</ele>
        <time>2022-12-07T13:53:26Z</time>
      </trkpt>
      <trkpt lat="49.83209" lon="2.52241">
        <ele>56.7</ele>
        <time>2022-12-07T13:53:27Z</time>
      </trkpt>
      <trkpt lat="49.83208" lon="2.5224">
        <ele>56.7</ele>
        <time>2022-12-07T13:53:28Z</time>
      </trkpt>
      <trkpt lat="49.83207" lon="2.52239">
        <ele>56.7</ele>
        <time>2022-12-07T13:53:29Z</time>
      </trkpt>
      <trkpt lat="49.83206" lon="2.52238">
        <ele>56.7</ele>
        <time>2022-12-07T13:53:30Z</time>
      </trkpt>
      <trkpt lat="49.83206" lon="2.52238">
        <ele>56.7</ele>
        <time>2022-12-07T13:53:31Z</time>
      </trkpt>
      <trkpt lat="49.83205" lon="2.52237">
        <ele>56.7</ele>
        <time>2022-12-07T13:53:32Z</time>
      </trkpt>
      <trkpt lat="49.83204" lon="2.52236">
        <ele>56.7</ele>
        <time>2022-12-07T13:53:33Z</time>
      </trkpt>
      <trkpt lat="49.83203" lon="2.52235">
        <ele>56.7</ele>
        <time>2022-12-07T13:53:34Z</time>
      </trkpt>
      <trkpt lat="49.83202" lon="2.52234">
        <ele>56.7</ele>
        <time>2022-12-07T13:53:35Z</time>
      </trkpt>
      <trkpt lat="49.832" lon="2.52233">
        <ele>56.7</ele>
        <time>2022-12-07T13:53:36Z</time>
      </trkpt>
      <trkpt lat="49.83199" lon="2.52233">
        <ele>56.7</ele>
        <time>2022-12-07T13:53:37Z</time>
      </trkpt>
      <trkpt lat="49.83198" lon="2.52232">
        <ele>56.7</ele>
        <time>2022-12-07T13:53:38Z</time>
      </trkpt>
      <trkpt lat="49.83196" lon="2.52231">
        <ele>56.7</ele>
        <time>2022-12-07T13:53:39Z</time>
      </trkpt>
      <trkpt lat="49.83196" lon="2.52231">
        <ele>56.7</ele>
        <time>2022-12-07T13:53:40Z</time>
      </trkpt>
      <trkpt lat="49.83195" lon="2.5223">
        <ele>56.7</ele>
        <time>2022-12-07T13:53:41Z</time>
      </trkpt>
      <trkpt lat="49.83193" lon="2.5223">
        <ele>56.7</ele>
        <time>2022-12-07T13:53:42Z</time>
      </trkpt>
      <trkpt lat="49.83193" lon="2.5223">
        <ele>56.7</ele>
        <time>2022-12-07T13:53:43Z</time>
      </trkpt>
      <trkpt lat="49.83191" lon="2.52229">
        <ele>56.7</ele>
        <time>2022-12-07T13:53:44Z</time>
      </trkpt>
      <trkpt lat="49.8319" lon="2.52229">
        <ele>56.7</ele>
        <time>2022-12-07T13:53:45Z</time>
      </trkpt>
      <trkpt lat="49.83189" lon="2.52229">
        <ele>56.7</ele>
        <time>2022-12-07T13:53:46Z</time>
      </trkpt>
      <trkpt lat="49.83188" lon="2.52228">
        <ele>56.7</ele>
        <time>2022-12-07T13:53:47Z</time>
      </trkpt>
      <trkpt lat="49.83187" lon="2.52228">
        <ele>56.7</ele>
        <time>2022-12-07T13:53:48Z</time>
      </trkpt>
      <trkpt lat="49.83186" lon="2.52228">
        <ele>56.7</ele>
        <time>2022-12-07T13:53:49Z</time>
      </trkpt>
      <trkpt lat="49.83185" lon="2.52227">
        <ele>56.7</ele>
        <time>2022-12-07T13:53:50Z</time>
      </trkpt>
      <trkpt lat="49.83184" lon="2.52227">
        <ele>56.7</ele>
        <time>2022-12-07T13:53:51Z</time>
      </trkpt>
      <trkpt lat="49.83183" lon="2.52226">
        <ele>56.7</ele>
        <time>2022-12-07T13:53:52Z</time>
      </trkpt>
      <trkpt lat="49.83182" lon="2.52226">
        <ele>56.7</ele>
        <time>2022-12-07T13:53:53Z</time>
      </trkpt>
      <trkpt lat="49.83181" lon="2.52225">
        <ele>56.7</ele>
        <time>2022-12-07T13:53:54Z</time>
      </trkpt>
      <trkpt lat="49.8318" lon="2.52225">
        <ele>56.7</ele>
        <time>2022-12-07T13:53:55Z</time>
      </trkpt>
      <trkpt lat="49.83179" lon="2.52224">
        <ele>56.7</ele>
        <time>2022-12-07T13:53:56Z</time>
      </trkpt>
      <trkpt lat="49.83179" lon="2.52223">
        <ele>56.7</ele>
        <time>2022-12-07T13:53:57Z</time>
      </trkpt>
      <trkpt lat="49.83178" lon="2.52223">
        <ele>56.7</ele>
        <time>2022-12-07T13:53:58Z</time>
      </trkpt>
      <trkpt lat="49.83177" lon="2.52222">
        <ele>56.7</ele>
        <time>2022-12-07T13:53:59Z</time>
      </trkpt>
      <trkpt lat="49.83176" lon="2.52221">
        <ele>56.7</ele>
        <time>2022-12-07T13:54:00Z</time>
      </trkpt>
      <trkpt lat="49.83175" lon="2.52221">
        <ele>56.7</ele>
        <time>2022-12-07T13:54:01Z</time>
      </trkpt>
      <trkpt lat="49.83175" lon="2.5222">
        <ele>56.7</ele>
        <time>2022-12-07T13:54:02Z</time>
      </trkpt>
      <trkpt lat="49.83173" lon="2.5222">
        <ele>56.7</ele>
        <time>2022-12-07T13:54:03Z</time>
      </trkpt>
      <trkpt lat="49.83172" lon="2.52219">
        <ele>56.7</ele>
        <time>2022-12-07T13:54:04Z</time>
      </trkpt>
      <trkpt lat="49.83171" lon="2.52219">
        <ele>56.7</ele>
        <time>2022-12-07T13:54:05Z</time>
      </trkpt>
      <trkpt lat="49.83169" lon="2.5222">
        <ele>56.7</ele>
        <time>2022-12-07T13:54:06Z</time>
      </trkpt>
      <trkpt lat="49.83168" lon="2.5222">
        <ele>56.7</ele>
        <time>2022-12-07T13:54:07Z</time>
      </trkpt>
      <trkpt lat="49.83167" lon="2.5222">
        <ele>56.7</ele>
        <time>2022-12-07T13:54:08Z</time>
      </trkpt>
      <trkpt lat="49.83166" lon="2.5222">
        <ele>56.7</ele>
        <time>2022-12-07T13:54:09Z</time>
      </trkpt>
      <trkpt lat="49.83165" lon="2.52221">
        <ele>56.7</ele>
        <time>2022-12-07T13:54:10Z</time>
      </trkpt>
      <trkpt lat="49.83164" lon="2.52221">
        <ele>56.7</ele>
        <time>2022-12-07T13:54:11Z</time>
      </trkpt>
      <trkpt lat="49.83162" lon="2.52221">
        <ele>56.7</ele>
        <time>2022-12-07T13:54:12Z</time>
      </trkpt>
      <trkpt lat="49.83161" lon="2.52221">
        <ele>56.7</ele>
        <time>2022-12-07T13:54:13Z</time>
      </trkpt>
      <trkpt lat="49.8316" lon="2.52221">
        <ele>56.7</ele>
        <time>2022-12-07T13:54:14Z</time>
      </trkpt>
      <trkpt lat="49.83159" lon="2.52221">
        <ele>56.7</ele>
        <time>2022-12-07T13:54:15Z</time>
      </trkpt>
      <trkpt lat="49.83158" lon="2.52221">
        <ele>56.7</ele>
        <time>2022-12-07T13:54:16Z</time>
      </trkpt>
      <trkpt lat="49.83157" lon="2.52222">
        <ele>56.7</ele>
        <time>2022-12-07T13:54:17Z</time>
      </trkpt>
      <trkpt lat="49.83156" lon="2.52222">
        <ele>56.7</ele>
        <time>2022-12-07T13:54:18Z</time>
      </trkpt>
      <trkpt lat="49.83155" lon="2.52222">
        <ele>56.7</ele>
        <time>2022-12-07T13:54:19Z</time>
      </trkpt>
      <trkpt lat="49.83154" lon="2.52222">
        <ele>56.7</ele>
        <time>2022-12-07T13:54:20Z</time>
      </trkpt>
      <trkpt lat="49.83153" lon="2.52223">
        <ele>56.7</ele>
        <time>2022-12-07T13:54:21Z</time>
      </trkpt>
      <trkpt lat="49.83152" lon="2.52223">
        <ele>56.7</ele>
        <time>2022-12-07T13:54:22Z</time>
      </trkpt>
      <trkpt lat="49.83151" lon="2.52223">
        <ele>56.7</ele>
        <time>2022-12-07T13:54:23Z</time>
      </trkpt>
      <trkpt lat="49.83149" lon="2.52224">
        <ele>56.7</ele>
        <time>2022-12-07T13:54:24Z</time>
      </trkpt>
      <trkpt lat="49.83148" lon="2.52224">
        <ele>56.7</ele>
        <time>2022-12-07T13:54:25Z</time>
      </trkpt>
      <trkpt lat="49.83147" lon="2.52224">
        <ele>56.7</ele>
        <time>2022-12-07T13:54:26Z</time>
      </trkpt>
      <trkpt lat="49.83146" lon="2.52225">
        <ele>56.7</ele>
        <time>2022-12-07T13:54:27Z</time>
      </trkpt>
      <trkpt lat="49.83145" lon="2.52225">
        <ele>56.7</ele>
        <time>2022-12-07T13:54:28Z</time>
      </trkpt>
      <trkpt lat="49.83144" lon="2.52226">
        <ele>56.8</ele>
        <time>2022-12-07T13:54:29Z</time>
      </trkpt>
      <trkpt lat="49.83142" lon="2.52227">
        <ele>56.8</ele>
        <time>2022-12-07T13:54:30Z</time>
      </trkpt>
      <trkpt lat="49.83141" lon="2.52227">
        <ele>56.8</ele>
        <time>2022-12-07T13:54:31Z</time>
      </trkpt>
      <trkpt lat="49.8314" lon="2.52228">
        <ele>56.8</ele>
        <time>2022-12-07T13:54:32Z</time>
      </trkpt>
      <trkpt lat="49.83139" lon="2.52229">
        <ele>56.8</ele>
        <time>2022-12-07T13:54:33Z</time>
      </trkpt>
      <trkpt lat="49.83138" lon="2.5223">
        <ele>56.8</ele>
        <time>2022-12-07T13:54:34Z</time>
      </trkpt>
      <trkpt lat="49.83137" lon="2.5223">
        <ele>56.8</ele>
        <time>2022-12-07T13:54:35Z</time>
      </trkpt>
      <trkpt lat="49.83136" lon="2.52231">
        <ele>56.8</ele>
        <time>2022-12-07T13:54:36Z</time>
      </trkpt>
      <trkpt lat="49.83136" lon="2.52231">
        <ele>56.8</ele>
        <time>2022-12-07T13:54:37Z</time>
      </trkpt>
      <trkpt lat="49.83135" lon="2.52232">
        <ele>56.8</ele>
        <time>2022-12-07T13:54:38Z</time>
      </trkpt>
      <trkpt lat="49.83134" lon="2.52233">
        <ele>56.9</ele>
        <time>2022-12-07T13:54:39Z</time>
      </trkpt>
      <trkpt lat="49.83134" lon="2.52233">
        <ele>56.9</ele>
        <time>2022-12-07T13:54:40Z</time>
      </trkpt>
      <trkpt lat="49.83133" lon="2.52234">
        <ele>56.9</ele>
        <time>2022-12-07T13:54:41Z</time>
      </trkpt>
      <trkpt lat="49.83133" lon="2.52235">
        <ele>56.9</ele>
        <time>2022-12-07T13:54:42Z</time>
      </trkpt>
      <trkpt lat="49.83132" lon="2.52236">
        <ele>56.9</ele>
        <time>2022-12-07T13:54:43Z</time>
      </trkpt>
      <trkpt lat="49.83131" lon="2.52237">
        <ele>56.9</ele>
        <time>2022-12-07T13:54:44Z</time>
      </trkpt>
      <trkpt lat="49.83131" lon="2.52237">
        <ele>56.9</ele>
        <time>2022-12-07T13:54:45Z</time>
      </trkpt>
      <trkpt lat="49.8313" lon="2.52238">
        <ele>56.9</ele>
        <time>2022-12-07T13:54:46Z</time>
      </trkpt>
      <trkpt lat="49.83129" lon="2.52239">
        <ele>56.9</ele>
        <time>2022-12-07T13:54:47Z</time>
      </trkpt>
      <trkpt lat="49.83128" lon="2.5224">
        <ele>56.9</ele>
        <time>2022-12-07T13:54:48Z</time>
      </trkpt>
      <trkpt lat="49.83127" lon="2.5224">
        <ele>56.9</ele>
        <time>2022-12-07T13:54:49Z</time>
      </trkpt>
      <trkpt lat="49.83126" lon="2.52241">
        <ele>56.9</ele>
        <time>2022-12-07T13:54:50Z</time>
      </trkpt>
      <trkpt lat="49.83125" lon="2.52241">
        <ele>56.9</ele>
        <time>2022-12-07T13:54:51Z</time>
      </trkpt>
      <trkpt lat="49.83124" lon="2.52242">
        <ele>56.9</ele>
        <time>2022-12-07T13:54:52Z</time>
      </trkpt>
      <trkpt lat="49.83124" lon="2.52243">
        <ele>56.9</ele>
        <time>2022-12-07T13:54:53Z</time>
      </trkpt>
      <trkpt lat="49.83123" lon="2.52244">
        <ele>56.9</ele>
        <time>2022-12-07T13:54:54Z</time>
      </trkpt>
      <trkpt lat="49.83122" lon="2.52245">
        <ele>56.9</ele>
        <time>2022-12-07T13:54:55Z</time>
      </trkpt>
      <trkpt lat="49.83121" lon="2.52246">
        <ele>56.9</ele>
        <time>2022-12-07T13:54:56Z</time>
      </trkpt>
      <trkpt lat="49.8312" lon="2.52246">
        <ele>56.9</ele>
        <time>2022-12-07T13:54:57Z</time>
      </trkpt>
      <trkpt lat="49.83119" lon="2.52247">
        <ele>56.9</ele>
        <time>2022-12-07T13:54:58Z</time>
      </trkpt>
      <trkpt lat="49.83118" lon="2.52248">
        <ele>56.9</ele>
        <time>2022-12-07T13:54:59Z</time>
      </trkpt>
      <trkpt lat="49.83118" lon="2.52248">
        <ele>56.9</ele>
        <time>2022-12-07T13:55:00Z</time>
      </trkpt>
      <trkpt lat="49.83117" lon="2.52249">
        <ele>56.9</ele>
        <time>2022-12-07T13:55:01Z</time>
      </trkpt>
      <trkpt lat="49.83116" lon="2.5225">
        <ele>56.9</ele>
        <time>2022-12-07T13:55:02Z</time>
      </trkpt>
      <trkpt lat="49.83115" lon="2.5225">
        <ele>56.9</ele>
        <time>2022-12-07T13:55:03Z</time>
      </trkpt>
      <trkpt lat="49.83114" lon="2.52251">
        <ele>56.9</ele>
        <time>2022-12-07T13:55:04Z</time>
      </trkpt>
      <trkpt lat="49.83113" lon="2.52252">
        <ele>56.9</ele>
        <time>2022-12-07T13:55:05Z</time>
      </trkpt>
      <trkpt lat="49.83112" lon="2.52253">
        <ele>56.9</ele>
        <time>2022-12-07T13:55:06Z</time>
      </trkpt>
      <trkpt lat="49.83111" lon="2.52253">
        <ele>56.9</ele>
        <time>2022-12-07T13:55:07Z</time>
      </trkpt>
      <trkpt lat="49.8311" lon="2.52254">
        <ele>56.9</ele>
        <time>2022-12-07T13:55:08Z</time>
      </trkpt>
      <trkpt lat="49.83109" lon="2.52255">
        <ele>56.9</ele>
        <time>2022-12-07T13:55:09Z</time>
      </trkpt>
      <trkpt lat="49.83108" lon="2.52256">
        <ele>56.9</ele>
        <time>2022-12-07T13:55:10Z</time>
      </trkpt>
      <trkpt lat="49.83107" lon="2.52257">
        <ele>56.9</ele>
        <time>2022-12-07T13:55:11Z</time>
      </trkpt>
      <trkpt lat="49.83107" lon="2.52258">
        <ele>56.9</ele>
        <time>2022-12-07T13:55:12Z</time>
      </trkpt>
      <trkpt lat="49.83106" lon="2.52259">
        <ele>56.9</ele>
        <time>2022-12-07T13:55:13Z</time>
      </trkpt>
      <trkpt lat="49.83105" lon="2.5226">
        <ele>56.9</ele>
        <time>2022-12-07T13:55:14Z</time>
      </trkpt>
      <trkpt lat="49.83104" lon="2.52261">
        <ele>56.9</ele>
        <time>2022-12-07T13:55:15Z</time>
      </trkpt>
      <trkpt lat="49.83103" lon="2.52262">
        <ele>57</ele>
        <time>2022-12-07T13:55:16Z</time>
      </trkpt>
      <trkpt lat="49.83102" lon="2.52263">
        <ele>57</ele>
        <time>2022-12-07T13:55:17Z</time>
      </trkpt>
      <trkpt lat="49.83101" lon="2.52264">
        <ele>57</ele>
        <time>2022-12-07T13:55:18Z</time>
      </trkpt>
      <trkpt lat="49.831" lon="2.52265">
        <ele>57</ele>
        <time>2022-12-07T13:55:19Z</time>
      </trkpt>
      <trkpt lat="49.83099" lon="2.52266">
        <ele>57</ele>
        <time>2022-12-07T13:55:20Z</time>
      </trkpt>
      <trkpt lat="49.83099" lon="2.52267">
        <ele>57</ele>
        <time>2022-12-07T13:55:21Z</time>
      </trkpt>
      <trkpt lat="49.83098" lon="2.52268">
        <ele>57</ele>
        <time>2022-12-07T13:55:22Z</time>
      </trkpt>
      <trkpt lat="49.83097" lon="2.52268">
        <ele>57</ele>
        <time>2022-12-07T13:55:23Z</time>
      </trkpt>
      <trkpt lat="49.83096" lon="2.52269">
        <ele>57</ele>
        <time>2022-12-07T13:55:24Z</time>
      </trkpt>
      <trkpt lat="49.83095" lon="2.5227">
        <ele>57</ele>
        <time>2022-12-07T13:55:25Z</time>
      </trkpt>
      <trkpt lat="49.83094" lon="2.52271">
        <ele>57</ele>
        <time>2022-12-07T13:55:26Z</time>
      </trkpt>
      <trkpt lat="49.83093" lon="2.52271">
        <ele>57</ele>
        <time>2022-12-07T13:55:27Z</time>
      </trkpt>
      <trkpt lat="49.83092" lon="2.52272">
        <ele>57</ele>
        <time>2022-12-07T13:55:28Z</time>
      </trkpt>
      <trkpt lat="49.83091" lon="2.52272">
        <ele>57</ele>
        <time>2022-12-07T13:55:29Z</time>
      </trkpt>
      <trkpt lat="49.8309" lon="2.52273">
        <ele>57</ele>
        <time>2022-12-07T13:55:30Z</time>
      </trkpt>
      <trkpt lat="49.83089" lon="2.52273">
        <ele>57</ele>
        <time>2022-12-07T13:55:31Z</time>
      </trkpt>
      <trkpt lat="49.83088" lon="2.52274">
        <ele>57</ele>
        <time>2022-12-07T13:55:32Z</time>
      </trkpt>
      <trkpt lat="49.83087" lon="2.52274">
        <ele>57</ele>
        <time>2022-12-07T13:55:33Z</time>
      </trkpt>
      <trkpt lat="49.83086" lon="2.52275">
        <ele>57</ele>
        <time>2022-12-07T13:55:34Z</time>
      </trkpt>
      <trkpt lat="49.83085" lon="2.52275">
        <ele>57</ele>
        <time>2022-12-07T13:55:35Z</time>
      </trkpt>
      <trkpt lat="49.83084" lon="2.52276">
        <ele>57</ele>
        <time>2022-12-07T13:55:36Z</time>
      </trkpt>
      <trkpt lat="49.83083" lon="2.52276">
        <ele>57</ele>
        <time>2022-12-07T13:55:37Z</time>
      </trkpt>
      <trkpt lat="49.83082" lon="2.52276">
        <ele>57</ele>
        <time>2022-12-07T13:55:38Z</time>
      </trkpt>
      <trkpt lat="49.83081" lon="2.52276">
        <ele>57</ele>
        <time>2022-12-07T13:55:39Z</time>
      </trkpt>
      <trkpt lat="49.8308" lon="2.52277">
        <ele>57</ele>
        <time>2022-12-07T13:55:40Z</time>
      </trkpt>
      <trkpt lat="49.83079" lon="2.52277">
        <ele>57</ele>
        <time>2022-12-07T13:55:41Z</time>
      </trkpt>
      <trkpt lat="49.83077" lon="2.52278">
        <ele>57</ele>
        <time>2022-12-07T13:55:42Z</time>
      </trkpt>
      <trkpt lat="49.83076" lon="2.52279">
        <ele>57</ele>
        <time>2022-12-07T13:55:43Z</time>
      </trkpt>
      <trkpt lat="49.83075" lon="2.52279">
        <ele>57</ele>
        <time>2022-12-07T13:55:44Z</time>
      </trkpt>
      <trkpt lat="49.83074" lon="2.5228">
        <ele>57</ele>
        <time>2022-12-07T13:55:45Z</time>
      </trkpt>
      <trkpt lat="49.83073" lon="2.52281">
        <ele>57</ele>
        <time>2022-12-07T13:55:46Z</time>
      </trkpt>
      <trkpt lat="49.83072" lon="2.52281">
        <ele>57</ele>
        <time>2022-12-07T13:55:47Z</time>
      </trkpt>
      <trkpt lat="49.83071" lon="2.52282">
        <ele>57</ele>
        <time>2022-12-07T13:55:48Z</time>
      </trkpt>
      <trkpt lat="49.8307" lon="2.52283">
        <ele>57</ele>
        <time>2022-12-07T13:55:49Z</time>
      </trkpt>
      <trkpt lat="49.8307" lon="2.52284">
        <ele>57</ele>
        <time>2022-12-07T13:55:50Z</time>
      </trkpt>
      <trkpt lat="49.83069" lon="2.52284">
        <ele>57</ele>
        <time>2022-12-07T13:55:51Z</time>
      </trkpt>
      <trkpt lat="49.83068" lon="2.52284">
        <ele>57</ele>
        <time>2022-12-07T13:55:52Z</time>
      </trkpt>
      <trkpt lat="49.83067" lon="2.52285">
        <ele>57</ele>
        <time>2022-12-07T13:55:53Z</time>
      </trkpt>
      <trkpt lat="49.83066" lon="2.52286">
        <ele>57</ele>
        <time>2022-12-07T13:55:54Z</time>
      </trkpt>
      <trkpt lat="49.83065" lon="2.52286">
        <ele>57</ele>
        <time>2022-12-07T13:55:55Z</time>
      </trkpt>
      <trkpt lat="49.83064" lon="2.52287">
        <ele>57</ele>
        <time>2022-12-07T13:55:56Z</time>
      </trkpt>
      <trkpt lat="49.83063" lon="2.52287">
        <ele>57</ele>
        <time>2022-12-07T13:55:57Z</time>
      </trkpt>
      <trkpt lat="49.83062" lon="2.52288">
        <ele>57</ele>
        <time>2022-12-07T13:55:58Z</time>
      </trkpt>
      <trkpt lat="49.83061" lon="2.52289">
        <ele>57</ele>
        <time>2022-12-07T13:55:59Z</time>
      </trkpt>
      <trkpt lat="49.8306" lon="2.5229">
        <ele>57</ele>
        <time>2022-12-07T13:56:00Z</time>
      </trkpt>
      <trkpt lat="49.83059" lon="2.5229">
        <ele>57</ele>
        <time>2022-12-07T13:56:01Z</time>
      </trkpt>
      <trkpt lat="49.83059" lon="2.52291">
        <ele>57</ele>
        <time>2022-12-07T13:56:02Z</time>
      </trkpt>
      <trkpt lat="49.83058" lon="2.52291">
        <ele>57</ele>
        <time>2022-12-07T13:56:03Z</time>
      </trkpt>
      <trkpt lat="49.83057" lon="2.52292">
        <ele>57</ele>
        <time>2022-12-07T13:56:04Z</time>
      </trkpt>
      <trkpt lat="49.83057" lon="2.52293">
        <ele>57</ele>
        <time>2022-12-07T13:56:05Z</time>
      </trkpt>
      <trkpt lat="49.83056" lon="2.52293">
        <ele>57</ele>
        <time>2022-12-07T13:56:06Z</time>
      </trkpt>
      <trkpt lat="49.83055" lon="2.52294">
        <ele>57</ele>
        <time>2022-12-07T13:56:07Z</time>
      </trkpt>
      <trkpt lat="49.83054" lon="2.52294">
        <ele>57</ele>
        <time>2022-12-07T13:56:08Z</time>
      </trkpt>
      <trkpt lat="49.83053" lon="2.52295">
        <ele>57</ele>
        <time>2022-12-07T13:56:09Z</time>
      </trkpt>
      <trkpt lat="49.83052" lon="2.52295">
        <ele>57</ele>
        <time>2022-12-07T13:56:10Z</time>
      </trkpt>
      <trkpt lat="49.83051" lon="2.52296">
        <ele>57</ele>
        <time>2022-12-07T13:56:11Z</time>
      </trkpt>
      <trkpt lat="49.83051" lon="2.52296">
        <ele>57</ele>
        <time>2022-12-07T13:56:12Z</time>
      </trkpt>
      <trkpt lat="49.8305" lon="2.52297">
        <ele>57.1</ele>
        <time>2022-12-07T13:56:13Z</time>
      </trkpt>
      <trkpt lat="49.83048" lon="2.52297">
        <ele>57.1</ele>
        <time>2022-12-07T13:56:14Z</time>
      </trkpt>
      <trkpt lat="49.83047" lon="2.52298">
        <ele>57.1</ele>
        <time>2022-12-07T13:56:15Z</time>
      </trkpt>
      <trkpt lat="49.83047" lon="2.52298">
        <ele>57.1</ele>
        <time>2022-12-07T13:56:16Z</time>
      </trkpt>
      <trkpt lat="49.83046" lon="2.52299">
        <ele>57.1</ele>
        <time>2022-12-07T13:56:17Z</time>
      </trkpt>
      <trkpt lat="49.83045" lon="2.52299">
        <ele>57.1</ele>
        <time>2022-12-07T13:56:18Z</time>
      </trkpt>
      <trkpt lat="49.83044" lon="2.523">
        <ele>57.2</ele>
        <time>2022-12-07T13:56:19Z</time>
      </trkpt>
      <trkpt lat="49.83043" lon="2.523">
        <ele>57.2</ele>
        <time>2022-12-07T13:56:20Z</time>
      </trkpt>
      <trkpt lat="49.83042" lon="2.52301">
        <ele>57.2</ele>
        <time>2022-12-07T13:56:21Z</time>
      </trkpt>
      <trkpt lat="49.83041" lon="2.52302">
        <ele>57.2</ele>
        <time>2022-12-07T13:56:22Z</time>
      </trkpt>
      <trkpt lat="49.8304" lon="2.52302">
        <ele>57.3</ele>
        <time>2022-12-07T13:56:23Z</time>
      </trkpt>
      <trkpt lat="49.83039" lon="2.52303">
        <ele>57.3</ele>
        <time>2022-12-07T13:56:24Z</time>
      </trkpt>
      <trkpt lat="49.83038" lon="2.52304">
        <ele>57.3</ele>
        <time>2022-12-07T13:56:25Z</time>
      </trkpt>
      <trkpt lat="49.83037" lon="2.52305">
        <ele>57.4</ele>
        <time>2022-12-07T13:56:26Z</time>
      </trkpt>
      <trkpt lat="49.83036" lon="2.52305">
        <ele>57.4</ele>
        <time>2022-12-07T13:56:27Z</time>
      </trkpt>
      <trkpt lat="49.83035" lon="2.52306">
        <ele>57.4</ele>
        <time>2022-12-07T13:56:28Z</time>
      </trkpt>
      <trkpt lat="49.83034" lon="2.52306">
        <ele>57.4</ele>
        <time>2022-12-07T13:56:29Z</time>
      </trkpt>
      <trkpt lat="49.83033" lon="2.52307">
        <ele>57.5</ele>
        <time>2022-12-07T13:56:30Z</time>
      </trkpt>
      <trkpt lat="49.83032" lon="2.52307">
        <ele>57.5</ele>
        <time>2022-12-07T13:56:31Z</time>
      </trkpt>
      <trkpt lat="49.83031" lon="2.52308">
        <ele>57.5</ele>
        <time>2022-12-07T13:56:32Z</time>
      </trkpt>
      <trkpt lat="49.83029" lon="2.52308">
        <ele>57.5</ele>
        <time>2022-12-07T13:56:33Z</time>
      </trkpt>
      <trkpt lat="49.83029" lon="2.52309">
        <ele>57.5</ele>
        <time>2022-12-07T13:56:34Z</time>
      </trkpt>
      <trkpt lat="49.83028" lon="2.52309">
        <ele>57.5</ele>
        <time>2022-12-07T13:56:35Z</time>
      </trkpt>
      <trkpt lat="49.83027" lon="2.52309">
        <ele>57.5</ele>
        <time>2022-12-07T13:56:36Z</time>
      </trkpt>
      <trkpt lat="49.83026" lon="2.5231">
        <ele>57.6</ele>
        <time>2022-12-07T13:56:37Z</time>
      </trkpt>
      <trkpt lat="49.83025" lon="2.5231">
        <ele>57.6</ele>
        <time>2022-12-07T13:56:38Z</time>
      </trkpt>
      <trkpt lat="49.83024" lon="2.5231">
        <ele>57.6</ele>
        <time>2022-12-07T13:56:39Z</time>
      </trkpt>
      <trkpt lat="49.83023" lon="2.52311">
        <ele>57.6</ele>
        <time>2022-12-07T13:56:40Z</time>
      </trkpt>
      <trkpt lat="49.83022" lon="2.52311">
        <ele>57.6</ele>
        <time>2022-12-07T13:56:41Z</time>
      </trkpt>
      <trkpt lat="49.83021" lon="2.52312">
        <ele>57.6</ele>
        <time>2022-12-07T13:56:42Z</time>
      </trkpt>
      <trkpt lat="49.8302" lon="2.52312">
        <ele>57.6</ele>
        <time>2022-12-07T13:56:43Z</time>
      </trkpt>
      <trkpt lat="49.83019" lon="2.52313">
        <ele>57.6</ele>
        <time>2022-12-07T13:56:44Z</time>
      </trkpt>
      <trkpt lat="49.83018" lon="2.52313">
        <ele>57.6</ele>
        <time>2022-12-07T13:56:45Z</time>
      </trkpt>
      <trkpt lat="49.83017" lon="2.52314">
        <ele>57.6</ele>
        <time>2022-12-07T13:56:46Z</time>
      </trkpt>
      <trkpt lat="49.83016" lon="2.52315">
        <ele>57.6</ele>
        <time>2022-12-07T13:56:47Z</time>
      </trkpt>
      <trkpt lat="49.83015" lon="2.52315">
        <ele>57.6</ele>
        <time>2022-12-07T13:56:48Z</time>
      </trkpt>
      <trkpt lat="49.83014" lon="2.52316">
        <ele>57.6</ele>
        <time>2022-12-07T13:56:49Z</time>
      </trkpt>
      <trkpt lat="49.83013" lon="2.52317">
        <ele>57.6</ele>
        <time>2022-12-07T13:56:50Z</time>
      </trkpt>
      <trkpt lat="49.83012" lon="2.52317">
        <ele>57.6</ele>
        <time>2022-12-07T13:56:51Z</time>
      </trkpt>
      <trkpt lat="49.83011" lon="2.52318">
        <ele>57.6</ele>
        <time>2022-12-07T13:56:52Z</time>
      </trkpt>
      <trkpt lat="49.8301" lon="2.52318">
        <ele>57.6</ele>
        <time>2022-12-07T13:56:53Z</time>
      </trkpt>
      <trkpt lat="49.83009" lon="2.52319">
        <ele>57.6</ele>
        <time>2022-12-07T13:56:54Z</time>
      </trkpt>
      <trkpt lat="49.83008" lon="2.5232">
        <ele>57.6</ele>
        <time>2022-12-07T13:56:55Z</time>
      </trkpt>
      <trkpt lat="49.83007" lon="2.5232">
        <ele>57.6</ele>
        <time>2022-12-07T13:56:56Z</time>
      </trkpt>
      <trkpt lat="49.83006" lon="2.5232">
        <ele>57.6</ele>
        <time>2022-12-07T13:56:57Z</time>
      </trkpt>
      <trkpt lat="49.83005" lon="2.52321">
        <ele>57.6</ele>
        <time>2022-12-07T13:56:58Z</time>
      </trkpt>
      <trkpt lat="49.83004" lon="2.52321">
        <ele>57.6</ele>
        <time>2022-12-07T13:56:59Z</time>
      </trkpt>
      <trkpt lat="49.83003" lon="2.52322">
        <ele>57.6</ele>
        <time>2022-12-07T13:57:00Z</time>
      </trkpt>
      <trkpt lat="49.83002" lon="2.52322">
        <ele>57.6</ele>
        <time>2022-12-07T13:57:01Z</time>
      </trkpt>
      <trkpt lat="49.83001" lon="2.52322">
        <ele>57.6</ele>
        <time>2022-12-07T13:57:02Z</time>
      </trkpt>
      <trkpt lat="49.83" lon="2.52322">
        <ele>57.6</ele>
        <time>2022-12-07T13:57:03Z</time>
      </trkpt>
      <trkpt lat="49.82999" lon="2.52322">
        <ele>57.6</ele>
        <time>2022-12-07T13:57:04Z</time>
      </trkpt>
      <trkpt lat="49.82998" lon="2.52323">
        <ele>57.6</ele>
        <time>2022-12-07T13:57:05Z</time>
      </trkpt>
      <trkpt lat="49.82996" lon="2.52323">
        <ele>57.6</ele>
        <time>2022-12-07T13:57:06Z</time>
      </trkpt>
      <trkpt lat="49.82995" lon="2.52323">
        <ele>57.6</ele>
        <time>2022-12-07T13:57:07Z</time>
      </trkpt>
      <trkpt lat="49.82995" lon="2.52324">
        <ele>57.6</ele>
        <time>2022-12-07T13:57:08Z</time>
      </trkpt>
      <trkpt lat="49.82994" lon="2.52324">
        <ele>57.7</ele>
        <time>2022-12-07T13:57:09Z</time>
      </trkpt>
      <trkpt lat="49.82993" lon="2.52324">
        <ele>57.7</ele>
        <time>2022-12-07T13:57:10Z</time>
      </trkpt>
      <trkpt lat="49.82992" lon="2.52325">
        <ele>57.7</ele>
        <time>2022-12-07T13:57:11Z</time>
      </trkpt>
      <trkpt lat="49.82991" lon="2.52326">
        <ele>57.7</ele>
        <time>2022-12-07T13:57:12Z</time>
      </trkpt>
      <trkpt lat="49.8299" lon="2.52326">
        <ele>57.7</ele>
        <time>2022-12-07T13:57:13Z</time>
      </trkpt>
      <trkpt lat="49.82989" lon="2.52327">
        <ele>57.7</ele>
        <time>2022-12-07T13:57:14Z</time>
      </trkpt>
      <trkpt lat="49.82988" lon="2.52327">
        <ele>57.7</ele>
        <time>2022-12-07T13:57:15Z</time>
      </trkpt>
      <trkpt lat="49.82987" lon="2.52328">
        <ele>57.7</ele>
        <time>2022-12-07T13:57:16Z</time>
      </trkpt>
      <trkpt lat="49.82986" lon="2.52328">
        <ele>57.7</ele>
        <time>2022-12-07T13:57:17Z</time>
      </trkpt>
      <trkpt lat="49.82985" lon="2.52329">
        <ele>57.7</ele>
        <time>2022-12-07T13:57:18Z</time>
      </trkpt>
      <trkpt lat="49.82984" lon="2.52329">
        <ele>57.7</ele>
        <time>2022-12-07T13:57:19Z</time>
      </trkpt>
      <trkpt lat="49.82983" lon="2.5233">
        <ele>57.7</ele>
        <time>2022-12-07T13:57:20Z</time>
      </trkpt>
      <trkpt lat="49.82982" lon="2.52331">
        <ele>57.7</ele>
        <time>2022-12-07T13:57:21Z</time>
      </trkpt>
      <trkpt lat="49.8298" lon="2.52332">
        <ele>57.7</ele>
        <time>2022-12-07T13:57:22Z</time>
      </trkpt>
      <trkpt lat="49.82979" lon="2.52332">
        <ele>57.7</ele>
        <time>2022-12-07T13:57:23Z</time>
      </trkpt>
      <trkpt lat="49.82978" lon="2.52333">
        <ele>57.7</ele>
        <time>2022-12-07T13:57:24Z</time>
      </trkpt>
      <trkpt lat="49.82977" lon="2.52333">
        <ele>57.7</ele>
        <time>2022-12-07T13:57:25Z</time>
      </trkpt>
      <trkpt lat="49.82976" lon="2.52334">
        <ele>57.7</ele>
        <time>2022-12-07T13:57:26Z</time>
      </trkpt>
      <trkpt lat="49.82975" lon="2.52334">
        <ele>57.7</ele>
        <time>2022-12-07T13:57:27Z</time>
      </trkpt>
      <trkpt lat="49.82975" lon="2.52335">
        <ele>57.7</ele>
        <time>2022-12-07T13:57:28Z</time>
      </trkpt>
      <trkpt lat="49.82974" lon="2.52335">
        <ele>57.7</ele>
        <time>2022-12-07T13:57:29Z</time>
      </trkpt>
      <trkpt lat="49.82973" lon="2.52336">
        <ele>57.7</ele>
        <time>2022-12-07T13:57:30Z</time>
      </trkpt>
      <trkpt lat="49.82972" lon="2.52336">
        <ele>57.7</ele>
        <time>2022-12-07T13:57:31Z</time>
      </trkpt>
      <trkpt lat="49.82971" lon="2.52337">
        <ele>57.7</ele>
        <time>2022-12-07T13:57:32Z</time>
      </trkpt>
      <trkpt lat="49.8297" lon="2.52337">
        <ele>57.7</ele>
        <time>2022-12-07T13:57:33Z</time>
      </trkpt>
      <trkpt lat="49.8297" lon="2.52338">
        <ele>57.7</ele>
        <time>2022-12-07T13:57:34Z</time>
      </trkpt>
      <trkpt lat="49.82969" lon="2.52338">
        <ele>57.7</ele>
        <time>2022-12-07T13:57:35Z</time>
      </trkpt>
      <trkpt lat="49.82968" lon="2.52339">
        <ele>57.7</ele>
        <time>2022-12-07T13:57:36Z</time>
      </trkpt>
      <trkpt lat="49.82967" lon="2.52339">
        <ele>57.7</ele>
        <time>2022-12-07T13:57:37Z</time>
      </trkpt>
      <trkpt lat="49.82966" lon="2.5234">
        <ele>57.6</ele>
        <time>2022-12-07T13:57:38Z</time>
      </trkpt>
      <trkpt lat="49.82965" lon="2.52341">
        <ele>57.6</ele>
        <time>2022-12-07T13:57:39Z</time>
      </trkpt>
      <trkpt lat="49.82964" lon="2.52341">
        <ele>57.6</ele>
        <time>2022-12-07T13:57:40Z</time>
      </trkpt>
      <trkpt lat="49.82963" lon="2.52342">
        <ele>57.6</ele>
        <time>2022-12-07T13:57:41Z</time>
      </trkpt>
      <trkpt lat="49.82962" lon="2.52342">
        <ele>57.6</ele>
        <time>2022-12-07T13:57:42Z</time>
      </trkpt>
      <trkpt lat="49.82961" lon="2.52343">
        <ele>57.6</ele>
        <time>2022-12-07T13:57:43Z</time>
      </trkpt>
      <trkpt lat="49.8296" lon="2.52343">
        <ele>57.6</ele>
        <time>2022-12-07T13:57:44Z</time>
      </trkpt>
      <trkpt lat="49.82959" lon="2.52344">
        <ele>57.6</ele>
        <time>2022-12-07T13:57:45Z</time>
      </trkpt>
      <trkpt lat="49.82958" lon="2.52345">
        <ele>57.5</ele>
        <time>2022-12-07T13:57:46Z</time>
      </trkpt>
      <trkpt lat="49.82956" lon="2.52346">
        <ele>57.5</ele>
        <time>2022-12-07T13:57:47Z</time>
      </trkpt>
      <trkpt lat="49.82955" lon="2.52346">
        <ele>57.5</ele>
        <time>2022-12-07T13:57:48Z</time>
      </trkpt>
      <trkpt lat="49.82954" lon="2.52347">
        <ele>57.5</ele>
        <time>2022-12-07T13:57:49Z</time>
      </trkpt>
      <trkpt lat="49.82953" lon="2.52348">
        <ele>57.5</ele>
        <time>2022-12-07T13:57:50Z</time>
      </trkpt>
      <trkpt lat="49.82952" lon="2.52349">
        <ele>57.4</ele>
        <time>2022-12-07T13:57:51Z</time>
      </trkpt>
      <trkpt lat="49.82951" lon="2.52349">
        <ele>57.4</ele>
        <time>2022-12-07T13:57:52Z</time>
      </trkpt>
      <trkpt lat="49.82949" lon="2.52351">
        <ele>57.4</ele>
        <time>2022-12-07T13:57:53Z</time>
      </trkpt>
      <trkpt lat="49.82949" lon="2.52352">
        <ele>57.4</ele>
        <time>2022-12-07T13:57:54Z</time>
      </trkpt>
      <trkpt lat="49.82948" lon="2.52352">
        <ele>57.4</ele>
        <time>2022-12-07T13:57:55Z</time>
      </trkpt>
      <trkpt lat="49.82947" lon="2.52353">
        <ele>57.4</ele>
        <time>2022-12-07T13:57:56Z</time>
      </trkpt>
      <trkpt lat="49.82946" lon="2.52354">
        <ele>57.4</ele>
        <time>2022-12-07T13:57:57Z</time>
      </trkpt>
      <trkpt lat="49.82945" lon="2.52355">
        <ele>57.3</ele>
        <time>2022-12-07T13:57:58Z</time>
      </trkpt>
      <trkpt lat="49.82944" lon="2.52356">
        <ele>57.3</ele>
        <time>2022-12-07T13:57:59Z</time>
      </trkpt>
      <trkpt lat="49.82943" lon="2.52357">
        <ele>57.3</ele>
        <time>2022-12-07T13:58:00Z</time>
      </trkpt>
      <trkpt lat="49.82942" lon="2.52358">
        <ele>57.3</ele>
        <time>2022-12-07T13:58:01Z</time>
      </trkpt>
      <trkpt lat="49.82941" lon="2.52359">
        <ele>57.3</ele>
        <time>2022-12-07T13:58:02Z</time>
      </trkpt>
      <trkpt lat="49.8294" lon="2.5236">
        <ele>57.3</ele>
        <time>2022-12-07T13:58:03Z</time>
      </trkpt>
      <trkpt lat="49.82939" lon="2.52361">
        <ele>57.2</ele>
        <time>2022-12-07T13:58:04Z</time>
      </trkpt>
      <trkpt lat="49.82938" lon="2.52363">
        <ele>57.2</ele>
        <time>2022-12-07T13:58:05Z</time>
      </trkpt>
      <trkpt lat="49.82937" lon="2.52363">
        <ele>57.2</ele>
        <time>2022-12-07T13:58:06Z</time>
      </trkpt>
      <trkpt lat="49.82936" lon="2.52364">
        <ele>57.2</ele>
        <time>2022-12-07T13:58:07Z</time>
      </trkpt>
      <trkpt lat="49.82935" lon="2.52366">
        <ele>57.2</ele>
        <time>2022-12-07T13:58:08Z</time>
      </trkpt>
      <trkpt lat="49.82934" lon="2.52367">
        <ele>57.1</ele>
        <time>2022-12-07T13:58:09Z</time>
      </trkpt>
      <trkpt lat="49.82933" lon="2.52368">
        <ele>57.1</ele>
        <time>2022-12-07T13:58:10Z</time>
      </trkpt>
      <trkpt lat="49.82933" lon="2.52368">
        <ele>57.1</ele>
        <time>2022-12-07T13:58:11Z</time>
      </trkpt>
      <trkpt lat="49.82932" lon="2.52369">
        <ele>57.1</ele>
        <time>2022-12-07T13:58:12Z</time>
      </trkpt>
      <trkpt lat="49.82931" lon="2.5237">
        <ele>57.1</ele>
        <time>2022-12-07T13:58:13Z</time>
      </trkpt>
      <trkpt lat="49.8293" lon="2.52371">
        <ele>57.1</ele>
        <time>2022-12-07T13:58:14Z</time>
      </trkpt>
      <trkpt lat="49.82929" lon="2.52371">
        <ele>57.1</ele>
        <time>2022-12-07T13:58:15Z</time>
      </trkpt>
      <trkpt lat="49.82928" lon="2.52372">
        <ele>57.1</ele>
        <time>2022-12-07T13:58:16Z</time>
      </trkpt>
      <trkpt lat="49.82927" lon="2.52373">
        <ele>57.1</ele>
        <time>2022-12-07T13:58:17Z</time>
      </trkpt>
      <trkpt lat="49.82926" lon="2.52374">
        <ele>57</ele>
        <time>2022-12-07T13:58:18Z</time>
      </trkpt>
      <trkpt lat="49.82925" lon="2.52375">
        <ele>57</ele>
        <time>2022-12-07T13:58:19Z</time>
      </trkpt>
      <trkpt lat="49.82924" lon="2.52376">
        <ele>57</ele>
        <time>2022-12-07T13:58:20Z</time>
      </trkpt>
      <trkpt lat="49.82923" lon="2.52377">
        <ele>56.9</ele>
        <time>2022-12-07T13:58:21Z</time>
      </trkpt>
      <trkpt lat="49.82922" lon="2.52378">
        <ele>56.9</ele>
        <time>2022-12-07T13:58:22Z</time>
      </trkpt>
      <trkpt lat="49.82922" lon="2.52379">
        <ele>56.8</ele>
        <time>2022-12-07T13:58:23Z</time>
      </trkpt>
      <trkpt lat="49.82921" lon="2.5238">
        <ele>56.8</ele>
        <time>2022-12-07T13:58:24Z</time>
      </trkpt>
      <trkpt lat="49.8292" lon="2.52381">
        <ele>56.7</ele>
        <time>2022-12-07T13:58:25Z</time>
      </trkpt>
      <trkpt lat="49.82919" lon="2.52383">
        <ele>56.7</ele>
        <time>2022-12-07T13:58:26Z</time>
      </trkpt>
      <trkpt lat="49.82918" lon="2.52384">
        <ele>56.6</ele>
        <time>2022-12-07T13:58:27Z</time>
      </trkpt>
      <trkpt lat="49.82917" lon="2.52385">
        <ele>56.6</ele>
        <time>2022-12-07T13:58:28Z</time>
      </trkpt>
      <trkpt lat="49.82916" lon="2.52387">
        <ele>56.5</ele>
        <time>2022-12-07T13:58:29Z</time>
      </trkpt>
      <trkpt lat="49.82915" lon="2.52388">
        <ele>56.4</ele>
        <time>2022-12-07T13:58:30Z</time>
      </trkpt>
      <trkpt lat="49.82913" lon="2.5239">
        <ele>56.3</ele>
        <time>2022-12-07T13:58:31Z</time>
      </trkpt>
      <trkpt lat="49.82913" lon="2.52391">
        <ele>56.3</ele>
        <time>2022-12-07T13:58:32Z</time>
      </trkpt>
      <trkpt lat="49.82912" lon="2.52392">
        <ele>56.2</ele>
        <time>2022-12-07T13:58:33Z</time>
      </trkpt>
      <trkpt lat="49.8291" lon="2.52394">
        <ele>56.1</ele>
        <time>2022-12-07T13:58:34Z</time>
      </trkpt>
      <trkpt lat="49.8291" lon="2.52395">
        <ele>56.1</ele>
        <time>2022-12-07T13:58:35Z</time>
      </trkpt>
      <trkpt lat="49.82909" lon="2.52396">
        <ele>56.1</ele>
        <time>2022-12-07T13:58:36Z</time>
      </trkpt>
      <trkpt lat="49.82908" lon="2.52398">
        <ele>56</ele>
        <time>2022-12-07T13:58:37Z</time>
      </trkpt>
      <trkpt lat="49.82907" lon="2.52399">
        <ele>55.9</ele>
        <time>2022-12-07T13:58:38Z</time>
      </trkpt>
      <trkpt lat="49.82906" lon="2.524">
        <ele>55.9</ele>
        <time>2022-12-07T13:58:39Z</time>
      </trkpt>
      <trkpt lat="49.82906" lon="2.52401">
        <ele>55.8</ele>
        <time>2022-12-07T13:58:40Z</time>
      </trkpt>
      <trkpt lat="49.82905" lon="2.52402">
        <ele>55.8</ele>
        <time>2022-12-07T13:58:41Z</time>
      </trkpt>
      <trkpt lat="49.82904" lon="2.52403">
        <ele>55.7</ele>
        <time>2022-12-07T13:58:42Z</time>
      </trkpt>
      <trkpt lat="49.82903" lon="2.52404">
        <ele>55.6</ele>
        <time>2022-12-07T13:58:43Z</time>
      </trkpt>
      <trkpt lat="49.82902" lon="2.52405">
        <ele>55.6</ele>
        <time>2022-12-07T13:58:44Z</time>
      </trkpt>
      <trkpt lat="49.82901" lon="2.52406">
        <ele>55.5</ele>
        <time>2022-12-07T13:58:45Z</time>
      </trkpt>
      <trkpt lat="49.829" lon="2.52408">
        <ele>55.5</ele>
        <time>2022-12-07T13:58:46Z</time>
      </trkpt>
      <trkpt lat="49.829" lon="2.52409">
        <ele>55.4</ele>
        <time>2022-12-07T13:58:47Z</time>
      </trkpt>
      <trkpt lat="49.82899" lon="2.5241">
        <ele>55.3</ele>
        <time>2022-12-07T13:58:48Z</time>
      </trkpt>
      <trkpt lat="49.82898" lon="2.52412">
        <ele>55.3</ele>
        <time>2022-12-07T13:58:49Z</time>
      </trkpt>
      <trkpt lat="49.82897" lon="2.52412">
        <ele>55.2</ele>
        <time>2022-12-07T13:58:50Z</time>
      </trkpt>
      <trkpt lat="49.82896" lon="2.52413">
        <ele>55.2</ele>
        <time>2022-12-07T13:58:51Z</time>
      </trkpt>
      <trkpt lat="49.82895" lon="2.52415">
        <ele>55.1</ele>
        <time>2022-12-07T13:58:52Z</time>
      </trkpt>
      <trkpt lat="49.82894" lon="2.52416">
        <ele>55</ele>
        <time>2022-12-07T13:58:53Z</time>
      </trkpt>
      <trkpt lat="49.82894" lon="2.52417">
        <ele>55</ele>
        <time>2022-12-07T13:58:54Z</time>
      </trkpt>
      <trkpt lat="49.82893" lon="2.52418">
        <ele>55</ele>
        <time>2022-12-07T13:58:55Z</time>
      </trkpt>
      <trkpt lat="49.82892" lon="2.52419">
        <ele>54.9</ele>
        <time>2022-12-07T13:58:56Z</time>
      </trkpt>
      <trkpt lat="49.82891" lon="2.5242">
        <ele>54.8</ele>
        <time>2022-12-07T13:58:57Z</time>
      </trkpt>
      <trkpt lat="49.82891" lon="2.52421">
        <ele>54.8</ele>
        <time>2022-12-07T13:58:58Z</time>
      </trkpt>
      <trkpt lat="49.8289" lon="2.52423">
        <ele>54.7</ele>
        <time>2022-12-07T13:58:59Z</time>
      </trkpt>
      <trkpt lat="49.82889" lon="2.52424">
        <ele>54.6</ele>
        <time>2022-12-07T13:59:00Z</time>
      </trkpt>
      <trkpt lat="49.82887" lon="2.52426">
        <ele>54.5</ele>
        <time>2022-12-07T13:59:01Z</time>
      </trkpt>
      <trkpt lat="49.82887" lon="2.52427">
        <ele>54.5</ele>
        <time>2022-12-07T13:59:02Z</time>
      </trkpt>
      <trkpt lat="49.82886" lon="2.52428">
        <ele>54.4</ele>
        <time>2022-12-07T13:59:03Z</time>
      </trkpt>
      <trkpt lat="49.82885" lon="2.52431">
        <ele>54.3</ele>
        <time>2022-12-07T13:59:04Z</time>
      </trkpt>
      <trkpt lat="49.82884" lon="2.52432">
        <ele>54.3</ele>
        <time>2022-12-07T13:59:05Z</time>
      </trkpt>
      <trkpt lat="49.82884" lon="2.52433">
        <ele>54.2</ele>
        <time>2022-12-07T13:59:06Z</time>
      </trkpt>
      <trkpt lat="49.82883" lon="2.52435">
        <ele>54.2</ele>
        <time>2022-12-07T13:59:07Z</time>
      </trkpt>
      <trkpt lat="49.82882" lon="2.52436">
        <ele>54.1</ele>
        <time>2022-12-07T13:59:08Z</time>
      </trkpt>
      <trkpt lat="49.82881" lon="2.52438">
        <ele>54</ele>
        <time>2022-12-07T13:59:09Z</time>
      </trkpt>
      <trkpt lat="49.8288" lon="2.52439">
        <ele>54</ele>
        <time>2022-12-07T13:59:10Z</time>
      </trkpt>
      <trkpt lat="49.8288" lon="2.5244">
        <ele>53.9</ele>
        <time>2022-12-07T13:59:11Z</time>
      </trkpt>
      <trkpt lat="49.82879" lon="2.52441">
        <ele>53.8</ele>
        <time>2022-12-07T13:59:12Z</time>
      </trkpt>
      <trkpt lat="49.82878" lon="2.52442">
        <ele>53.8</ele>
        <time>2022-12-07T13:59:13Z</time>
      </trkpt>
      <trkpt lat="49.82877" lon="2.52443">
        <ele>53.7</ele>
        <time>2022-12-07T13:59:14Z</time>
      </trkpt>
      <trkpt lat="49.82876" lon="2.52445">
        <ele>53.6</ele>
        <time>2022-12-07T13:59:15Z</time>
      </trkpt>
      <trkpt lat="49.82875" lon="2.52446">
        <ele>53.6</ele>
        <time>2022-12-07T13:59:16Z</time>
      </trkpt>
      <trkpt lat="49.82874" lon="2.52447">
        <ele>53.5</ele>
        <time>2022-12-07T13:59:17Z</time>
      </trkpt>
      <trkpt lat="49.82873" lon="2.52448">
        <ele>53.4</ele>
        <time>2022-12-07T13:59:18Z</time>
      </trkpt>
      <trkpt lat="49.82872" lon="2.52449">
        <ele>53.4</ele>
        <time>2022-12-07T13:59:19Z</time>
      </trkpt>
      <trkpt lat="49.82872" lon="2.5245">
        <ele>53.3</ele>
        <time>2022-12-07T13:59:20Z</time>
      </trkpt>
      <trkpt lat="49.82871" lon="2.52451">
        <ele>53.3</ele>
        <time>2022-12-07T13:59:21Z</time>
      </trkpt>
      <trkpt lat="49.8287" lon="2.52452">
        <ele>53.2</ele>
        <time>2022-12-07T13:59:22Z</time>
      </trkpt>
      <trkpt lat="49.82869" lon="2.52453">
        <ele>53.2</ele>
        <time>2022-12-07T13:59:23Z</time>
      </trkpt>
      <trkpt lat="49.82869" lon="2.52454">
        <ele>53.1</ele>
        <time>2022-12-07T13:59:24Z</time>
      </trkpt>
      <trkpt lat="49.82868" lon="2.52455">
        <ele>53</ele>
        <time>2022-12-07T13:59:25Z</time>
      </trkpt>
      <trkpt lat="49.82867" lon="2.52456">
        <ele>53</ele>
        <time>2022-12-07T13:59:26Z</time>
      </trkpt>
      <trkpt lat="49.82866" lon="2.52457">
        <ele>52.9</ele>
        <time>2022-12-07T13:59:27Z</time>
      </trkpt>
      <trkpt lat="49.82865" lon="2.52457">
        <ele>52.9</ele>
        <time>2022-12-07T13:59:28Z</time>
      </trkpt>
      <trkpt lat="49.82864" lon="2.52458">
        <ele>52.8</ele>
        <time>2022-12-07T13:59:29Z</time>
      </trkpt>
      <trkpt lat="49.82863" lon="2.52459">
        <ele>52.7</ele>
        <time>2022-12-07T13:59:30Z</time>
      </trkpt>
      <trkpt lat="49.82862" lon="2.5246">
        <ele>52.7</ele>
        <time>2022-12-07T13:59:31Z</time>
      </trkpt>
      <trkpt lat="49.82862" lon="2.52461">
        <ele>52.6</ele>
        <time>2022-12-07T13:59:32Z</time>
      </trkpt>
      <trkpt lat="49.82861" lon="2.52462">
        <ele>52.6</ele>
        <time>2022-12-07T13:59:33Z</time>
      </trkpt>
      <trkpt lat="49.8286" lon="2.52463">
        <ele>52.5</ele>
        <time>2022-12-07T13:59:34Z</time>
      </trkpt>
      <trkpt lat="49.82859" lon="2.52464">
        <ele>52.5</ele>
        <time>2022-12-07T13:59:35Z</time>
      </trkpt>
      <trkpt lat="49.82859" lon="2.52464">
        <ele>52.5</ele>
        <time>2022-12-07T13:59:36Z</time>
      </trkpt>
      <trkpt lat="49.82858" lon="2.52465">
        <ele>52.4</ele>
        <time>2022-12-07T13:59:37Z</time>
      </trkpt>
      <trkpt lat="49.82858" lon="2.52466">
        <ele>52.4</ele>
        <time>2022-12-07T13:59:38Z</time>
      </trkpt>
      <trkpt lat="49.82857" lon="2.52467">
        <ele>52.3</ele>
        <time>2022-12-07T13:59:39Z</time>
      </trkpt>
      <trkpt lat="49.82856" lon="2.52467">
        <ele>52.3</ele>
        <time>2022-12-07T13:59:40Z</time>
      </trkpt>
      <trkpt lat="49.82855" lon="2.52468">
        <ele>52.2</ele>
        <time>2022-12-07T13:59:41Z</time>
      </trkpt>
      <trkpt lat="49.82855" lon="2.52468">
        <ele>52.2</ele>
        <time>2022-12-07T13:59:42Z</time>
      </trkpt>
      <trkpt lat="49.82854" lon="2.52469">
        <ele>52.2</ele>
        <time>2022-12-07T13:59:43Z</time>
      </trkpt>
      <trkpt lat="49.82853" lon="2.52469">
        <ele>52.1</ele>
        <time>2022-12-07T13:59:44Z</time>
      </trkpt>
      <trkpt lat="49.82853" lon="2.5247">
        <ele>52.1</ele>
        <time>2022-12-07T13:59:45Z</time>
      </trkpt>
      <trkpt lat="49.82852" lon="2.52471">
        <ele>52.1</ele>
        <time>2022-12-07T13:59:46Z</time>
      </trkpt>
      <trkpt lat="49.82852" lon="2.52472">
        <ele>52</ele>
        <time>2022-12-07T13:59:47Z</time>
      </trkpt>
      <trkpt lat="49.82851" lon="2.52472">
        <ele>52</ele>
        <time>2022-12-07T13:59:48Z</time>
      </trkpt>
      <trkpt lat="49.8285" lon="2.52473">
        <ele>52</ele>
        <time>2022-12-07T13:59:49Z</time>
      </trkpt>
      <trkpt lat="49.82849" lon="2.52473">
        <ele>51.9</ele>
        <time>2022-12-07T13:59:50Z</time>
      </trkpt>
      <trkpt lat="49.82848" lon="2.52473">
        <ele>51.9</ele>
        <time>2022-12-07T13:59:51Z</time>
      </trkpt>
      <trkpt lat="49.82847" lon="2.52474">
        <ele>51.8</ele>
        <time>2022-12-07T13:59:52Z</time>
      </trkpt>
      <trkpt lat="49.82847" lon="2.52474">
        <ele>51.7</ele>
        <time>2022-12-07T13:59:53Z</time>
      </trkpt>
      <trkpt lat="49.82846" lon="2.52474">
        <ele>51.7</ele>
        <time>2022-12-07T13:59:54Z</time>
      </trkpt>
      <trkpt lat="49.82845" lon="2.52473">
        <ele>51.7</ele>
        <time>2022-12-07T13:59:55Z</time>
      </trkpt>
      <trkpt lat="49.82845" lon="2.52472">
        <ele>51.7</ele>
        <time>2022-12-07T13:59:56Z</time>
      </trkpt>
      <trkpt lat="49.82845" lon="2.52471">
        <ele>51.7</ele>
        <time>2022-12-07T13:59:57Z</time>
      </trkpt>
      <trkpt lat="49.82845" lon="2.52469">
        <ele>51.7</ele>
        <time>2022-12-07T13:59:58Z</time>
      </trkpt>
      <trkpt lat="49.82845" lon="2.52469">
        <ele>51.7</ele>
        <time>2022-12-07T13:59:59Z</time>
      </trkpt>
      <trkpt lat="49.82845" lon="2.52469">
        <ele>51.7</ele>
        <time>2022-12-07T14:00:00Z</time>
      </trkpt>
      <trkpt lat="49.82845" lon="2.52468">
        <ele>51.7</ele>
        <time>2022-12-07T14:00:01Z</time>
      </trkpt>
      <trkpt lat="49.82845" lon="2.52468">
        <ele>51.7</ele>
        <time>2022-12-07T14:00:02Z</time>
      </trkpt>
      <trkpt lat="49.82845" lon="2.52468">
        <ele>51.7</ele>
        <time>2022-12-07T14:00:03Z</time>
      </trkpt>
      <trkpt lat="49.82845" lon="2.52468">
        <ele>51.7</ele>
        <time>2022-12-07T14:00:04Z</time>
      </trkpt>
      <trkpt lat="49.82845" lon="2.52468">
        <ele>51.7</ele>
        <time>2022-12-07T14:00:05Z</time>
      </trkpt>
      <trkpt lat="49.82845" lon="2.52468">
        <ele>51.7</ele>
        <time>2022-12-07T14:00:06Z</time>
      </trkpt>
      <trkpt lat="49.82845" lon="2.52468">
        <ele>51.7</ele>
        <time>2022-12-07T14:00:07Z</time>
      </trkpt>
      <trkpt lat="49.82845" lon="2.52467">
        <ele>51.7</ele>
        <time>2022-12-07T14:00:08Z</time>
      </trkpt>
      <trkpt lat="49.82845" lon="2.52467">
        <ele>51.6</ele>
        <time>2022-12-07T14:00:09Z</time>
      </trkpt>
      <trkpt lat="49.82845" lon="2.52466">
        <ele>51.6</ele>
        <time>2022-12-07T14:00:10Z</time>
      </trkpt>
      <trkpt lat="49.82845" lon="2.52466">
        <ele>51.6</ele>
        <time>2022-12-07T14:00:11Z</time>
      </trkpt>
      <trkpt lat="49.82845" lon="2.52466">
        <ele>51.6</ele>
        <time>2022-12-07T14:00:12Z</time>
      </trkpt>
      <trkpt lat="49.82846" lon="2.52467">
        <ele>51.6</ele>
        <time>2022-12-07T14:00:13Z</time>
      </trkpt>
      <trkpt lat="49.82846" lon="2.52467">
        <ele>51.6</ele>
        <time>2022-12-07T14:00:14Z</time>
      </trkpt>
      <trkpt lat="49.82846" lon="2.52467">
        <ele>51.6</ele>
        <time>2022-12-07T14:00:15Z</time>
      </trkpt>
      <trkpt lat="49.82846" lon="2.52467">
        <ele>51.6</ele>
        <time>2022-12-07T14:00:16Z</time>
      </trkpt>
      <trkpt lat="49.82846" lon="2.52467">
        <ele>51.6</ele>
        <time>2022-12-07T14:00:17Z</time>
      </trkpt>
      <trkpt lat="49.82846" lon="2.52467">
        <ele>51.6</ele>
        <time>2022-12-07T14:00:18Z</time>
      </trkpt>
      <trkpt lat="49.82846" lon="2.52467">
        <ele>51.6</ele>
        <time>2022-12-07T14:00:19Z</time>
      </trkpt>
      <trkpt lat="49.82846" lon="2.52467">
        <ele>51.6</ele>
        <time>2022-12-07T14:00:20Z</time>
      </trkpt>
      <trkpt lat="49.82846" lon="2.52467">
        <ele>51.6</ele>
        <time>2022-12-07T14:00:21Z</time>
      </trkpt>
      <trkpt lat="49.82846" lon="2.52467">
        <ele>51.6</ele>
        <time>2022-12-07T14:00:22Z</time>
      </trkpt>
      <trkpt lat="49.82846" lon="2.52467">
        <ele>51.6</ele>
        <time>2022-12-07T14:00:23Z</time>
      </trkpt>
      <trkpt lat="49.82846" lon="2.52467">
        <ele>51.6</ele>
        <time>2022-12-07T14:00:24Z</time>
      </trkpt>
      <trkpt lat="49.82846" lon="2.52467">
        <ele>51.6</ele>
        <time>2022-12-07T14:00:25Z</time>
      </trkpt>
      <trkpt lat="49.82846" lon="2.52467">
        <ele>51.6</ele>
        <time>2022-12-07T14:00:26Z</time>
      </trkpt>
      <trkpt lat="49.82847" lon="2.52468">
        <ele>51.6</ele>
        <time>2022-12-07T14:00:27Z</time>
      </trkpt>
      <trkpt lat="49.82847" lon="2.52468">
        <ele>51.6</ele>
        <time>2022-12-07T14:00:28Z</time>
      </trkpt>
      <trkpt lat="49.82847" lon="2.52468">
        <ele>51.6</ele>
        <time>2022-12-07T14:00:29Z</time>
      </trkpt>
      <trkpt lat="49.82847" lon="2.52468">
        <ele>51.6</ele>
        <time>2022-12-07T14:00:30Z</time>
      </trkpt>
      <trkpt lat="49.82847" lon="2.52468">
        <ele>51.6</ele>
        <time>2022-12-07T14:00:31Z</time>
      </trkpt>
      <trkpt lat="49.82847" lon="2.52468">
        <ele>51.6</ele>
        <time>2022-12-07T14:00:32Z</time>
      </trkpt>
      <trkpt lat="49.82847" lon="2.52468">
        <ele>51.6</ele>
        <time>2022-12-07T14:00:33Z</time>
      </trkpt>
      <trkpt lat="49.82847" lon="2.52468">
        <ele>51.6</ele>
        <time>2022-12-07T14:00:34Z</time>
      </trkpt>
      <trkpt lat="49.82847" lon="2.52468">
        <ele>51.6</ele>
        <time>2022-12-07T14:00:35Z</time>
      </trkpt>
      <trkpt lat="49.82847" lon="2.52468">
        <ele>51.6</ele>
        <time>2022-12-07T14:00:36Z</time>
      </trkpt>
      <trkpt lat="49.82847" lon="2.52468">
        <ele>51.6</ele>
        <time>2022-12-07T14:00:37Z</time>
      </trkpt>
      <trkpt lat="49.82847" lon="2.52468">
        <ele>51.6</ele>
        <time>2022-12-07T14:00:38Z</time>
      </trkpt>
      <trkpt lat="49.82847" lon="2.52468">
        <ele>51.6</ele>
        <time>2022-12-07T14:00:39Z</time>
      </trkpt>
      <trkpt lat="49.82847" lon="2.52468">
        <ele>51.6</ele>
        <time>2022-12-07T14:00:40Z</time>
      </trkpt>
      <trkpt lat="49.82847" lon="2.52468">
        <ele>51.6</ele>
        <time>2022-12-07T14:00:41Z</time>
      </trkpt>
      <trkpt lat="49.82847" lon="2.52468">
        <ele>51.6</ele>
        <time>2022-12-07T14:00:42Z</time>
      </trkpt>
      <trkpt lat="49.82847" lon="2.52468">
        <ele>51.6</ele>
        <time>2022-12-07T14:00:43Z</time>
      </trkpt>
      <trkpt lat="49.82847" lon="2.52468">
        <ele>51.6</ele>
        <time>2022-12-07T14:00:44Z</time>
      </trkpt>
      <trkpt lat="49.82847" lon="2.52468">
        <ele>51.6</ele>
        <time>2022-12-07T14:00:45Z</time>
      </trkpt>
      <trkpt lat="49.82847" lon="2.52468">
        <ele>51.6</ele>
        <time>2022-12-07T14:00:46Z</time>
      </trkpt>
      <trkpt lat="49.82847" lon="2.52468">
        <ele>51.6</ele>
        <time>2022-12-07T14:00:47Z</time>
      </trkpt>
      <trkpt lat="49.82847" lon="2.52468">
        <ele>51.6</ele>
        <time>2022-12-07T14:00:48Z</time>
      </trkpt>
      <trkpt lat="49.82847" lon="2.52468">
        <ele>51.6</ele>
        <time>2022-12-07T14:00:49Z</time>
      </trkpt>
      <trkpt lat="49.82847" lon="2.52468">
        <ele>51.6</ele>
        <time>2022-12-07T14:00:50Z</time>
      </trkpt>
      <trkpt lat="49.82847" lon="2.52468">
        <ele>51.6</ele>
        <time>2022-12-07T14:00:51Z</time>
      </trkpt>
      <trkpt lat="49.82847" lon="2.52468">
        <ele>51.6</ele>
        <time>2022-12-07T14:00:52Z</time>
      </trkpt>
      <trkpt lat="49.82847" lon="2.52468">
        <ele>51.6</ele>
        <time>2022-12-07T14:00:53Z</time>
      </trkpt>
      <trkpt lat="49.82847" lon="2.52468">
        <ele>51.6</ele>
        <time>2022-12-07T14:00:54Z</time>
      </trkpt>
      <trkpt lat="49.82847" lon="2.52468">
        <ele>51.6</ele>
        <time>2022-12-07T14:00:55Z</time>
      </trkpt>
      <trkpt lat="49.82847" lon="2.52468">
        <ele>51.6</ele>
        <time>2022-12-07T14:00:56Z</time>
      </trkpt>
      <trkpt lat="49.82847" lon="2.52468">
        <ele>51.6</ele>
        <time>2022-12-07T14:00:57Z</time>
      </trkpt>
      <trkpt lat="49.82847" lon="2.52468">
        <ele>51.6</ele>
        <time>2022-12-07T14:00:58Z</time>
      </trkpt>
      <trkpt lat="49.82847" lon="2.52468">
        <ele>51.6</ele>
        <time>2022-12-07T14:00:59Z</time>
      </trkpt>
      <trkpt lat="49.82847" lon="2.52468">
        <ele>51.6</ele>
        <time>2022-12-07T14:01:00Z</time>
      </trkpt>
      <trkpt lat="49.82847" lon="2.52468">
        <ele>51.6</ele>
        <time>2022-12-07T14:01:01Z</time>
      </trkpt>
      <trkpt lat="49.82847" lon="2.52468">
        <ele>51.6</ele>
        <time>2022-12-07T14:01:02Z</time>
      </trkpt>
      <trkpt lat="49.82847" lon="2.52468">
        <ele>51.6</ele>
        <time>2022-12-07T14:01:03Z</time>
      </trkpt>
      <trkpt lat="49.82847" lon="2.52468">
        <ele>51.6</ele>
        <time>2022-12-07T14:01:04Z</time>
      </trkpt>
      <trkpt lat="49.82847" lon="2.52468">
        <ele>51.6</ele>
        <time>2022-12-07T14:01:05Z</time>
      </trkpt>
      <trkpt lat="49.82847" lon="2.52468">
        <ele>51.6</ele>
        <time>2022-12-07T14:01:06Z</time>
      </trkpt>
      <trkpt lat="49.82847" lon="2.52468">
        <ele>51.6</ele>
        <time>2022-12-07T14:01:07Z</time>
      </trkpt>
      <trkpt lat="49.82847" lon="2.52468">
        <ele>51.6</ele>
        <time>2022-12-07T14:01:08Z</time>
      </trkpt>
      <trkpt lat="49.82847" lon="2.52468">
        <ele>51.6</ele>
        <time>2022-12-07T14:01:09Z</time>
      </trkpt>
      <trkpt lat="49.82847" lon="2.52468">
        <ele>51.6</ele>
        <time>2022-12-07T14:01:10Z</time>
      </trkpt>
      <trkpt lat="49.82847" lon="2.52468">
        <ele>51.6</ele>
        <time>2022-12-07T14:01:11Z</time>
      </trkpt>
      <trkpt lat="49.82847" lon="2.52468">
        <ele>51.6</ele>
        <time>2022-12-07T14:01:12Z</time>
      </trkpt>
      <trkpt lat="49.82847" lon="2.52468">
        <ele>51.6</ele>
        <time>2022-12-07T14:01:13Z</time>
      </trkpt>
      <trkpt lat="49.82847" lon="2.52468">
        <ele>51.6</ele>
        <time>2022-12-07T14:01:14Z</time>
      </trkpt>
      <trkpt lat="49.82847" lon="2.52468">
        <ele>51.6</ele>
        <time>2022-12-07T14:01:15Z</time>
      </trkpt>
      <trkpt lat="49.82847" lon="2.52468">
        <ele>51.6</ele>
        <time>2022-12-07T14:01:16Z</time>
      </trkpt>
      <trkpt lat="49.82847" lon="2.52468">
        <ele>51.6</ele>
        <time>2022-12-07T14:01:17Z</time>
      </trkpt>
      <trkpt lat="49.82847" lon="2.52468">
        <ele>51.6</ele>
        <time>2022-12-07T14:01:18Z</time>
      </trkpt>
      <trkpt lat="49.82847" lon="2.52468">
        <ele>51.6</ele>
        <time>2022-12-07T14:01:19Z</time>
      </trkpt>
      <trkpt lat="49.82847" lon="2.52468">
        <ele>51.6</ele>
        <time>2022-12-07T14:01:20Z</time>
      </trkpt>
      <trkpt lat="49.82847" lon="2.52468">
        <ele>51.6</ele>
        <time>2022-12-07T14:01:21Z</time>
      </trkpt>
      <trkpt lat="49.82847" lon="2.52468">
        <ele>51.6</ele>
        <time>2022-12-07T14:01:22Z</time>
      </trkpt>
      <trkpt lat="49.82848" lon="2.52469">
        <ele>51.6</ele>
        <time>2022-12-07T14:01:23Z</time>
      </trkpt>
      <trkpt lat="49.82848" lon="2.52469">
        <ele>51.6</ele>
        <time>2022-12-07T14:01:24Z</time>
      </trkpt>
      <trkpt lat="49.82848" lon="2.52469">
        <ele>51.6</ele>
        <time>2022-12-07T14:01:25Z</time>
      </trkpt>
      <trkpt lat="49.82848" lon="2.52469">
        <ele>51.6</ele>
        <time>2022-12-07T14:01:26Z</time>
      </trkpt>
      <trkpt lat="49.82848" lon="2.52469">
        <ele>51.6</ele>
        <time>2022-12-07T14:01:27Z</time>
      </trkpt>
      <trkpt lat="49.82848" lon="2.52469">
        <ele>51.6</ele>
        <time>2022-12-07T14:01:28Z</time>
      </trkpt>
      <trkpt lat="49.82848" lon="2.5247">
        <ele>51.6</ele>
        <time>2022-12-07T14:01:29Z</time>
      </trkpt>
      <trkpt lat="49.82848" lon="2.5247">
        <ele>51.6</ele>
        <time>2022-12-07T14:01:30Z</time>
      </trkpt>
      <trkpt lat="49.82848" lon="2.5247">
        <ele>51.6</ele>
        <time>2022-12-07T14:01:31Z</time>
      </trkpt>
      <trkpt lat="49.82848" lon="2.5247">
        <ele>51.6</ele>
        <time>2022-12-07T14:01:32Z</time>
      </trkpt>
      <trkpt lat="49.82848" lon="2.5247">
        <ele>51.6</ele>
        <time>2022-12-07T14:01:33Z</time>
      </trkpt>
      <trkpt lat="49.82848" lon="2.5247">
        <ele>51.6</ele>
        <time>2022-12-07T14:01:34Z</time>
      </trkpt>
      <trkpt lat="49.82849" lon="2.5247">
        <ele>51.6</ele>
        <time>2022-12-07T14:01:35Z</time>
      </trkpt>
      <trkpt lat="49.82849" lon="2.5247">
        <ele>51.6</ele>
        <time>2022-12-07T14:01:36Z</time>
      </trkpt>
      <trkpt lat="49.82849" lon="2.52469">
        <ele>51.6</ele>
        <time>2022-12-07T14:01:37Z</time>
      </trkpt>
      <trkpt lat="49.82849" lon="2.52469">
        <ele>51.6</ele>
        <time>2022-12-07T14:01:38Z</time>
      </trkpt>
      <trkpt lat="49.82849" lon="2.52469">
        <ele>51.6</ele>
        <time>2022-12-07T14:01:39Z</time>
      </trkpt>
      <trkpt lat="49.82849" lon="2.52468">
        <ele>51.6</ele>
        <time>2022-12-07T14:01:40Z</time>
      </trkpt>
      <trkpt lat="49.82849" lon="2.52468">
        <ele>51.6</ele>
        <time>2022-12-07T14:01:41Z</time>
      </trkpt>
      <trkpt lat="49.82849" lon="2.52468">
        <ele>51.6</ele>
        <time>2022-12-07T14:01:42Z</time>
      </trkpt>
      <trkpt lat="49.82849" lon="2.52468">
        <ele>51.5</ele>
        <time>2022-12-07T14:01:43Z</time>
      </trkpt>
      <trkpt lat="49.82849" lon="2.52469">
        <ele>51.5</ele>
        <time>2022-12-07T14:01:44Z</time>
      </trkpt>
      <trkpt lat="49.82849" lon="2.52469">
        <ele>51.5</ele>
        <time>2022-12-07T14:01:45Z</time>
      </trkpt>
      <trkpt lat="49.82849" lon="2.52469">
        <ele>51.5</ele>
        <time>2022-12-07T14:01:46Z</time>
      </trkpt>
      <trkpt lat="49.82849" lon="2.52469">
        <ele>51.5</ele>
        <time>2022-12-07T14:01:47Z</time>
      </trkpt>
      <trkpt lat="49.82849" lon="2.52469">
        <ele>51.5</ele>
        <time>2022-12-07T14:01:48Z</time>
      </trkpt>
      <trkpt lat="49.82849" lon="2.52469">
        <ele>51.5</ele>
        <time>2022-12-07T14:01:49Z</time>
      </trkpt>
      <trkpt lat="49.82849" lon="2.52469">
        <ele>51.5</ele>
        <time>2022-12-07T14:01:50Z</time>
      </trkpt>
      <trkpt lat="49.82849" lon="2.52469">
        <ele>51.5</ele>
        <time>2022-12-07T14:01:51Z</time>
      </trkpt>
      <trkpt lat="49.82849" lon="2.52469">
        <ele>51.5</ele>
        <time>2022-12-07T14:01:52Z</time>
      </trkpt>
      <trkpt lat="49.82849" lon="2.52469">
        <ele>51.5</ele>
        <time>2022-12-07T14:01:53Z</time>
      </trkpt>
      <trkpt lat="49.82849" lon="2.52469">
        <ele>51.5</ele>
        <time>2022-12-07T14:01:54Z</time>
      </trkpt>
      <trkpt lat="49.82849" lon="2.52469">
        <ele>51.5</ele>
        <time>2022-12-07T14:01:55Z</time>
      </trkpt>
      <trkpt lat="49.82849" lon="2.52469">
        <ele>51.5</ele>
        <time>2022-12-07T14:01:56Z</time>
      </trkpt>
      <trkpt lat="49.82849" lon="2.52469">
        <ele>51.5</ele>
        <time>2022-12-07T14:01:57Z</time>
      </trkpt>
      <trkpt lat="49.82849" lon="2.52469">
        <ele>51.5</ele>
        <time>2022-12-07T14:01:58Z</time>
      </trkpt>
      <trkpt lat="49.82849" lon="2.52469">
        <ele>51.5</ele>
        <time>2022-12-07T14:01:59Z</time>
      </trkpt>
      <trkpt lat="49.82849" lon="2.52469">
        <ele>51.5</ele>
        <time>2022-12-07T14:02:00Z</time>
      </trkpt>
      <trkpt lat="49.82849" lon="2.52469">
        <ele>51.5</ele>
        <time>2022-12-07T14:02:01Z</time>
      </trkpt>
      <trkpt lat="49.82849" lon="2.52469">
        <ele>51.5</ele>
        <time>2022-12-07T14:02:02Z</time>
      </trkpt>
      <trkpt lat="49.82849" lon="2.52469">
        <ele>51.5</ele>
        <time>2022-12-07T14:02:03Z</time>
      </trkpt>
      <trkpt lat="49.82849" lon="2.52469">
        <ele>51.5</ele>
        <time>2022-12-07T14:02:04Z</time>
      </trkpt>
      <trkpt lat="49.82849" lon="2.52469">
        <ele>51.5</ele>
        <time>2022-12-07T14:02:05Z</time>
      </trkpt>
      <trkpt lat="49.82849" lon="2.52469">
        <ele>51.5</ele>
        <time>2022-12-07T14:02:06Z</time>
      </trkpt>
      <trkpt lat="49.82849" lon="2.5247">
        <ele>51.5</ele>
        <time>2022-12-07T14:02:07Z</time>
      </trkpt>
      <trkpt lat="49.82848" lon="2.5247">
        <ele>51.5</ele>
        <time>2022-12-07T14:02:08Z</time>
      </trkpt>
      <trkpt lat="49.82848" lon="2.5247">
        <ele>51.5</ele>
        <time>2022-12-07T14:02:09Z</time>
      </trkpt>
      <trkpt lat="49.82848" lon="2.52471">
        <ele>51.5</ele>
        <time>2022-12-07T14:02:10Z</time>
      </trkpt>
      <trkpt lat="49.82848" lon="2.52471">
        <ele>51.5</ele>
        <time>2022-12-07T14:02:11Z</time>
      </trkpt>
      <trkpt lat="49.82847" lon="2.52472">
        <ele>51.5</ele>
        <time>2022-12-07T14:02:12Z</time>
      </trkpt>
      <trkpt lat="49.82846" lon="2.52473">
        <ele>51.5</ele>
        <time>2022-12-07T14:02:13Z</time>
      </trkpt>
      <trkpt lat="49.82846" lon="2.52474">
        <ele>51.5</ele>
        <time>2022-12-07T14:02:14Z</time>
      </trkpt>
      <trkpt lat="49.82845" lon="2.52476">
        <ele>51.4</ele>
        <time>2022-12-07T14:02:15Z</time>
      </trkpt>
      <trkpt lat="49.82844" lon="2.52477">
        <ele>51.4</ele>
        <time>2022-12-07T14:02:16Z</time>
      </trkpt>
      <trkpt lat="49.82843" lon="2.52478">
        <ele>51.4</ele>
        <time>2022-12-07T14:02:17Z</time>
      </trkpt>
      <trkpt lat="49.82843" lon="2.52479">
        <ele>51.4</ele>
        <time>2022-12-07T14:02:18Z</time>
      </trkpt>
      <trkpt lat="49.82842" lon="2.5248">
        <ele>51.4</ele>
        <time>2022-12-07T14:02:19Z</time>
      </trkpt>
      <trkpt lat="49.82842" lon="2.52481">
        <ele>51.4</ele>
        <time>2022-12-07T14:02:20Z</time>
      </trkpt>
      <trkpt lat="49.82841" lon="2.52483">
        <ele>51.4</ele>
        <time>2022-12-07T14:02:21Z</time>
      </trkpt>
      <trkpt lat="49.82841" lon="2.52484">
        <ele>51.4</ele>
        <time>2022-12-07T14:02:22Z</time>
      </trkpt>
      <trkpt lat="49.82841" lon="2.52484">
        <ele>51.3</ele>
        <time>2022-12-07T14:02:23Z</time>
      </trkpt>
      <trkpt lat="49.82841" lon="2.52485">
        <ele>51.3</ele>
        <time>2022-12-07T14:02:24Z</time>
      </trkpt>
      <trkpt lat="49.82841" lon="2.52486">
        <ele>51.3</ele>
        <time>2022-12-07T14:02:25Z</time>
      </trkpt>
      <trkpt lat="49.82841" lon="2.52487">
        <ele>51.3</ele>
        <time>2022-12-07T14:02:26Z</time>
      </trkpt>
      <trkpt lat="49.82841" lon="2.52488">
        <ele>51.3</ele>
        <time>2022-12-07T14:02:27Z</time>
      </trkpt>
      <trkpt lat="49.82842" lon="2.52488">
        <ele>51.3</ele>
        <time>2022-12-07T14:02:28Z</time>
      </trkpt>
      <trkpt lat="49.82842" lon="2.5249">
        <ele>51.3</ele>
        <time>2022-12-07T14:02:29Z</time>
      </trkpt>
      <trkpt lat="49.82842" lon="2.52492">
        <ele>51.3</ele>
        <time>2022-12-07T14:02:30Z</time>
      </trkpt>
      <trkpt lat="49.82842" lon="2.52494">
        <ele>51.3</ele>
        <time>2022-12-07T14:02:31Z</time>
      </trkpt>
      <trkpt lat="49.82842" lon="2.52495">
        <ele>51.3</ele>
        <time>2022-12-07T14:02:32Z</time>
      </trkpt>
      <trkpt lat="49.82842" lon="2.52497">
        <ele>51.2</ele>
        <time>2022-12-07T14:02:33Z</time>
      </trkpt>
      <trkpt lat="49.82842" lon="2.52498">
        <ele>51.2</ele>
        <time>2022-12-07T14:02:34Z</time>
      </trkpt>
      <trkpt lat="49.82842" lon="2.52499">
        <ele>51.2</ele>
        <time>2022-12-07T14:02:35Z</time>
      </trkpt>
      <trkpt lat="49.82842" lon="2.525">
        <ele>51.2</ele>
        <time>2022-12-07T14:02:36Z</time>
      </trkpt>
      <trkpt lat="49.82842" lon="2.52502">
        <ele>51.2</ele>
        <time>2022-12-07T14:02:37Z</time>
      </trkpt>
      <trkpt lat="49.82842" lon="2.52503">
        <ele>51.2</ele>
        <time>2022-12-07T14:02:38Z</time>
      </trkpt>
      <trkpt lat="49.82842" lon="2.52506">
        <ele>51.2</ele>
        <time>2022-12-07T14:02:39Z</time>
      </trkpt>
      <trkpt lat="49.82842" lon="2.52508">
        <ele>51.2</ele>
        <time>2022-12-07T14:02:40Z</time>
      </trkpt>
      <trkpt lat="49.82842" lon="2.52511">
        <ele>51.2</ele>
        <time>2022-12-07T14:02:41Z</time>
      </trkpt>
      <trkpt lat="49.82842" lon="2.52513">
        <ele>51.2</ele>
        <time>2022-12-07T14:02:42Z</time>
      </trkpt>
      <trkpt lat="49.82842" lon="2.52516">
        <ele>51.1</ele>
        <time>2022-12-07T14:02:43Z</time>
      </trkpt>
      <trkpt lat="49.82842" lon="2.52518">
        <ele>51.1</ele>
        <time>2022-12-07T14:02:44Z</time>
      </trkpt>
      <trkpt lat="49.82842" lon="2.52519">
        <ele>51.1</ele>
        <time>2022-12-07T14:02:45Z</time>
      </trkpt>
      <trkpt lat="49.82843" lon="2.52521">
        <ele>51.1</ele>
        <time>2022-12-07T14:02:46Z</time>
      </trkpt>
      <trkpt lat="49.82843" lon="2.52522">
        <ele>51.1</ele>
        <time>2022-12-07T14:02:47Z</time>
      </trkpt>
      <trkpt lat="49.82843" lon="2.52524">
        <ele>51.1</ele>
        <time>2022-12-07T14:02:48Z</time>
      </trkpt>
      <trkpt lat="49.82843" lon="2.52526">
        <ele>51.1</ele>
        <time>2022-12-07T14:02:49Z</time>
      </trkpt>
      <trkpt lat="49.82843" lon="2.52528">
        <ele>51.1</ele>
        <time>2022-12-07T14:02:50Z</time>
      </trkpt>
      <trkpt lat="49.82843" lon="2.52529">
        <ele>51.1</ele>
        <time>2022-12-07T14:02:51Z</time>
      </trkpt>
      <trkpt lat="49.82842" lon="2.52532">
        <ele>51.1</ele>
        <time>2022-12-07T14:02:52Z</time>
      </trkpt>
      <trkpt lat="49.82842" lon="2.52534">
        <ele>51.1</ele>
        <time>2022-12-07T14:02:53Z</time>
      </trkpt>
      <trkpt lat="49.82842" lon="2.52535">
        <ele>51.1</ele>
        <time>2022-12-07T14:02:54Z</time>
      </trkpt>
      <trkpt lat="49.82842" lon="2.52537">
        <ele>51.1</ele>
        <time>2022-12-07T14:02:55Z</time>
      </trkpt>
      <trkpt lat="49.82842" lon="2.52539">
        <ele>51.1</ele>
        <time>2022-12-07T14:02:56Z</time>
      </trkpt>
      <trkpt lat="49.82841" lon="2.52542">
        <ele>51.1</ele>
        <time>2022-12-07T14:02:57Z</time>
      </trkpt>
      <trkpt lat="49.82841" lon="2.52543">
        <ele>51.1</ele>
        <time>2022-12-07T14:02:58Z</time>
      </trkpt>
      <trkpt lat="49.82841" lon="2.52545">
        <ele>51.1</ele>
        <time>2022-12-07T14:02:59Z</time>
      </trkpt>
      <trkpt lat="49.82841" lon="2.52546">
        <ele>51.1</ele>
        <time>2022-12-07T14:03:00Z</time>
      </trkpt>
      <trkpt lat="49.82841" lon="2.52548">
        <ele>51.1</ele>
        <time>2022-12-07T14:03:01Z</time>
      </trkpt>
      <trkpt lat="49.82841" lon="2.5255">
        <ele>51.1</ele>
        <time>2022-12-07T14:03:02Z</time>
      </trkpt>
      <trkpt lat="49.82841" lon="2.52553">
        <ele>51.1</ele>
        <time>2022-12-07T14:03:03Z</time>
      </trkpt>
      <trkpt lat="49.82841" lon="2.52555">
        <ele>51.1</ele>
        <time>2022-12-07T14:03:04Z</time>
      </trkpt>
      <trkpt lat="49.82841" lon="2.52556">
        <ele>51.1</ele>
        <time>2022-12-07T14:03:05Z</time>
      </trkpt>
      <trkpt lat="49.8284" lon="2.52559">
        <ele>51</ele>
        <time>2022-12-07T14:03:06Z</time>
      </trkpt>
      <trkpt lat="49.8284" lon="2.5256">
        <ele>51</ele>
        <time>2022-12-07T14:03:07Z</time>
      </trkpt>
      <trkpt lat="49.8284" lon="2.52562">
        <ele>51</ele>
        <time>2022-12-07T14:03:08Z</time>
      </trkpt>
      <trkpt lat="49.8284" lon="2.52565">
        <ele>51</ele>
        <time>2022-12-07T14:03:09Z</time>
      </trkpt>
      <trkpt lat="49.82839" lon="2.52566">
        <ele>51</ele>
        <time>2022-12-07T14:03:10Z</time>
      </trkpt>
      <trkpt lat="49.82839" lon="2.52567">
        <ele>51</ele>
        <time>2022-12-07T14:03:11Z</time>
      </trkpt>
      <trkpt lat="49.82839" lon="2.52571">
        <ele>51</ele>
        <time>2022-12-07T14:03:12Z</time>
      </trkpt>
      <trkpt lat="49.82839" lon="2.52572">
        <ele>51</ele>
        <time>2022-12-07T14:03:13Z</time>
      </trkpt>
      <trkpt lat="49.82839" lon="2.52573">
        <ele>51</ele>
        <time>2022-12-07T14:03:14Z</time>
      </trkpt>
      <trkpt lat="49.82839" lon="2.52575">
        <ele>51</ele>
        <time>2022-12-07T14:03:15Z</time>
      </trkpt>
      <trkpt lat="49.82839" lon="2.52577">
        <ele>51</ele>
        <time>2022-12-07T14:03:16Z</time>
      </trkpt>
      <trkpt lat="49.82839" lon="2.52579">
        <ele>51</ele>
        <time>2022-12-07T14:03:17Z</time>
      </trkpt>
      <trkpt lat="49.82839" lon="2.52581">
        <ele>51</ele>
        <time>2022-12-07T14:03:18Z</time>
      </trkpt>
      <trkpt lat="49.82839" lon="2.52583">
        <ele>51</ele>
        <time>2022-12-07T14:03:19Z</time>
      </trkpt>
      <trkpt lat="49.82839" lon="2.52585">
        <ele>51</ele>
        <time>2022-12-07T14:03:20Z</time>
      </trkpt>
      <trkpt lat="49.82838" lon="2.52586">
        <ele>51</ele>
        <time>2022-12-07T14:03:21Z</time>
      </trkpt>
      <trkpt lat="49.82838" lon="2.52587">
        <ele>51</ele>
        <time>2022-12-07T14:03:22Z</time>
      </trkpt>
      <trkpt lat="49.82838" lon="2.52589">
        <ele>51</ele>
        <time>2022-12-07T14:03:23Z</time>
      </trkpt>
      <trkpt lat="49.82838" lon="2.52591">
        <ele>51</ele>
        <time>2022-12-07T14:03:24Z</time>
      </trkpt>
      <trkpt lat="49.82838" lon="2.52592">
        <ele>51</ele>
        <time>2022-12-07T14:03:25Z</time>
      </trkpt>
      <trkpt lat="49.82838" lon="2.52594">
        <ele>51</ele>
        <time>2022-12-07T14:03:26Z</time>
      </trkpt>
      <trkpt lat="49.82838" lon="2.52595">
        <ele>51</ele>
        <time>2022-12-07T14:03:27Z</time>
      </trkpt>
      <trkpt lat="49.82838" lon="2.52597">
        <ele>51</ele>
        <time>2022-12-07T14:03:28Z</time>
      </trkpt>
      <trkpt lat="49.82838" lon="2.526">
        <ele>51</ele>
        <time>2022-12-07T14:03:29Z</time>
      </trkpt>
      <trkpt lat="49.82838" lon="2.52601">
        <ele>51</ele>
        <time>2022-12-07T14:03:30Z</time>
      </trkpt>
      <trkpt lat="49.82838" lon="2.52602">
        <ele>51</ele>
        <time>2022-12-07T14:03:31Z</time>
      </trkpt>
      <trkpt lat="49.82838" lon="2.52603">
        <ele>51</ele>
        <time>2022-12-07T14:03:32Z</time>
      </trkpt>
      <trkpt lat="49.82838" lon="2.52604">
        <ele>51</ele>
        <time>2022-12-07T14:03:33Z</time>
      </trkpt>
      <trkpt lat="49.82838" lon="2.52606">
        <ele>51</ele>
        <time>2022-12-07T14:03:34Z</time>
      </trkpt>
      <trkpt lat="49.82838" lon="2.52608">
        <ele>51</ele>
        <time>2022-12-07T14:03:35Z</time>
      </trkpt>
      <trkpt lat="49.82838" lon="2.52609">
        <ele>51</ele>
        <time>2022-12-07T14:03:36Z</time>
      </trkpt>
      <trkpt lat="49.82838" lon="2.52611">
        <ele>51</ele>
        <time>2022-12-07T14:03:37Z</time>
      </trkpt>
      <trkpt lat="49.82838" lon="2.52613">
        <ele>51</ele>
        <time>2022-12-07T14:03:38Z</time>
      </trkpt>
      <trkpt lat="49.82839" lon="2.52614">
        <ele>51</ele>
        <time>2022-12-07T14:03:39Z</time>
      </trkpt>
      <trkpt lat="49.82839" lon="2.52616">
        <ele>51</ele>
        <time>2022-12-07T14:03:40Z</time>
      </trkpt>
      <trkpt lat="49.82839" lon="2.52618">
        <ele>51</ele>
        <time>2022-12-07T14:03:41Z</time>
      </trkpt>
      <trkpt lat="49.82839" lon="2.52621">
        <ele>51</ele>
        <time>2022-12-07T14:03:42Z</time>
      </trkpt>
      <trkpt lat="49.82839" lon="2.52622">
        <ele>51</ele>
        <time>2022-12-07T14:03:43Z</time>
      </trkpt>
      <trkpt lat="49.82839" lon="2.52623">
        <ele>51.1</ele>
        <time>2022-12-07T14:03:44Z</time>
      </trkpt>
      <trkpt lat="49.82839" lon="2.52624">
        <ele>51.1</ele>
        <time>2022-12-07T14:03:45Z</time>
      </trkpt>
      <trkpt lat="49.82839" lon="2.52625">
        <ele>51.1</ele>
        <time>2022-12-07T14:03:46Z</time>
      </trkpt>
      <trkpt lat="49.82839" lon="2.52627">
        <ele>51.1</ele>
        <time>2022-12-07T14:03:47Z</time>
      </trkpt>
      <trkpt lat="49.82839" lon="2.52629">
        <ele>51.1</ele>
        <time>2022-12-07T14:03:48Z</time>
      </trkpt>
      <trkpt lat="49.82839" lon="2.52632">
        <ele>51.1</ele>
        <time>2022-12-07T14:03:49Z</time>
      </trkpt>
      <trkpt lat="49.82839" lon="2.52633">
        <ele>51.1</ele>
        <time>2022-12-07T14:03:50Z</time>
      </trkpt>
      <trkpt lat="49.8284" lon="2.52634">
        <ele>51.1</ele>
        <time>2022-12-07T14:03:51Z</time>
      </trkpt>
      <trkpt lat="49.8284" lon="2.52636">
        <ele>51.1</ele>
        <time>2022-12-07T14:03:52Z</time>
      </trkpt>
      <trkpt lat="49.8284" lon="2.52638">
        <ele>51.1</ele>
        <time>2022-12-07T14:03:53Z</time>
      </trkpt>
      <trkpt lat="49.8284" lon="2.52639">
        <ele>51.1</ele>
        <time>2022-12-07T14:03:54Z</time>
      </trkpt>
      <trkpt lat="49.8284" lon="2.52641">
        <ele>51.1</ele>
        <time>2022-12-07T14:03:55Z</time>
      </trkpt>
      <trkpt lat="49.8284" lon="2.52643">
        <ele>51.1</ele>
        <time>2022-12-07T14:03:56Z</time>
      </trkpt>
      <trkpt lat="49.8284" lon="2.52645">
        <ele>51.1</ele>
        <time>2022-12-07T14:03:57Z</time>
      </trkpt>
      <trkpt lat="49.8284" lon="2.52648">
        <ele>51.2</ele>
        <time>2022-12-07T14:03:58Z</time>
      </trkpt>
      <trkpt lat="49.8284" lon="2.52649">
        <ele>51.2</ele>
        <time>2022-12-07T14:03:59Z</time>
      </trkpt>
      <trkpt lat="49.8284" lon="2.5265">
        <ele>51.2</ele>
        <time>2022-12-07T14:04:00Z</time>
      </trkpt>
      <trkpt lat="49.82839" lon="2.52654">
        <ele>51.2</ele>
        <time>2022-12-07T14:04:01Z</time>
      </trkpt>
      <trkpt lat="49.82839" lon="2.52655">
        <ele>51.2</ele>
        <time>2022-12-07T14:04:02Z</time>
      </trkpt>
      <trkpt lat="49.82839" lon="2.52656">
        <ele>51.3</ele>
        <time>2022-12-07T14:04:03Z</time>
      </trkpt>
      <trkpt lat="49.82839" lon="2.52658">
        <ele>51.3</ele>
        <time>2022-12-07T14:04:04Z</time>
      </trkpt>
      <trkpt lat="49.82839" lon="2.5266">
        <ele>51.3</ele>
        <time>2022-12-07T14:04:05Z</time>
      </trkpt>
      <trkpt lat="49.82838" lon="2.52661">
        <ele>51.3</ele>
        <time>2022-12-07T14:04:06Z</time>
      </trkpt>
      <trkpt lat="49.82838" lon="2.52663">
        <ele>51.3</ele>
        <time>2022-12-07T14:04:07Z</time>
      </trkpt>
      <trkpt lat="49.82838" lon="2.52664">
        <ele>51.3</ele>
        <time>2022-12-07T14:04:08Z</time>
      </trkpt>
      <trkpt lat="49.82838" lon="2.52666">
        <ele>51.4</ele>
        <time>2022-12-07T14:04:09Z</time>
      </trkpt>
      <trkpt lat="49.82837" lon="2.52669">
        <ele>51.4</ele>
        <time>2022-12-07T14:04:10Z</time>
      </trkpt>
      <trkpt lat="49.82837" lon="2.52671">
        <ele>51.4</ele>
        <time>2022-12-07T14:04:11Z</time>
      </trkpt>
      <trkpt lat="49.82837" lon="2.52672">
        <ele>51.5</ele>
        <time>2022-12-07T14:04:12Z</time>
      </trkpt>
      <trkpt lat="49.82837" lon="2.52673">
        <ele>51.5</ele>
        <time>2022-12-07T14:04:13Z</time>
      </trkpt>
      <trkpt lat="49.82837" lon="2.52675">
        <ele>51.5</ele>
        <time>2022-12-07T14:04:14Z</time>
      </trkpt>
      <trkpt lat="49.82837" lon="2.52677">
        <ele>51.5</ele>
        <time>2022-12-07T14:04:15Z</time>
      </trkpt>
      <trkpt lat="49.82837" lon="2.52678">
        <ele>51.6</ele>
        <time>2022-12-07T14:04:16Z</time>
      </trkpt>
      <trkpt lat="49.82837" lon="2.5268">
        <ele>51.6</ele>
        <time>2022-12-07T14:04:17Z</time>
      </trkpt>
      <trkpt lat="49.82837" lon="2.52681">
        <ele>51.6</ele>
        <time>2022-12-07T14:04:18Z</time>
      </trkpt>
      <trkpt lat="49.82836" lon="2.52683">
        <ele>51.6</ele>
        <time>2022-12-07T14:04:19Z</time>
      </trkpt>
      <trkpt lat="49.82836" lon="2.52685">
        <ele>51.7</ele>
        <time>2022-12-07T14:04:20Z</time>
      </trkpt>
      <trkpt lat="49.82836" lon="2.52686">
        <ele>51.7</ele>
        <time>2022-12-07T14:04:21Z</time>
      </trkpt>
      <trkpt lat="49.82836" lon="2.52688">
        <ele>51.7</ele>
        <time>2022-12-07T14:04:22Z</time>
      </trkpt>
      <trkpt lat="49.82836" lon="2.5269">
        <ele>51.7</ele>
        <time>2022-12-07T14:04:23Z</time>
      </trkpt>
      <trkpt lat="49.82835" lon="2.52691">
        <ele>51.7</ele>
        <time>2022-12-07T14:04:24Z</time>
      </trkpt>
      <trkpt lat="49.82835" lon="2.52695">
        <ele>51.7</ele>
        <time>2022-12-07T14:04:25Z</time>
      </trkpt>
      <trkpt lat="49.82835" lon="2.52696">
        <ele>51.7</ele>
        <time>2022-12-07T14:04:26Z</time>
      </trkpt>
      <trkpt lat="49.82834" lon="2.52697">
        <ele>51.8</ele>
        <time>2022-12-07T14:04:27Z</time>
      </trkpt>
      <trkpt lat="49.82834" lon="2.52699">
        <ele>51.8</ele>
        <time>2022-12-07T14:04:28Z</time>
      </trkpt>
      <trkpt lat="49.82833" lon="2.527">
        <ele>51.8</ele>
        <time>2022-12-07T14:04:29Z</time>
      </trkpt>
      <trkpt lat="49.82833" lon="2.52701">
        <ele>51.8</ele>
        <time>2022-12-07T14:04:30Z</time>
      </trkpt>
      <trkpt lat="49.82832" lon="2.52702">
        <ele>51.8</ele>
        <time>2022-12-07T14:04:31Z</time>
      </trkpt>
      <trkpt lat="49.82832" lon="2.52703">
        <ele>51.8</ele>
        <time>2022-12-07T14:04:32Z</time>
      </trkpt>
      <trkpt lat="49.82831" lon="2.52705">
        <ele>51.8</ele>
        <time>2022-12-07T14:04:33Z</time>
      </trkpt>
      <trkpt lat="49.8283" lon="2.52706">
        <ele>51.9</ele>
        <time>2022-12-07T14:04:34Z</time>
      </trkpt>
      <trkpt lat="49.8283" lon="2.52708">
        <ele>51.9</ele>
        <time>2022-12-07T14:04:35Z</time>
      </trkpt>
      <trkpt lat="49.82829" lon="2.52709">
        <ele>51.9</ele>
        <time>2022-12-07T14:04:36Z</time>
      </trkpt>
      <trkpt lat="49.82829" lon="2.5271">
        <ele>51.9</ele>
        <time>2022-12-07T14:04:37Z</time>
      </trkpt>
      <trkpt lat="49.82828" lon="2.52712">
        <ele>51.9</ele>
        <time>2022-12-07T14:04:38Z</time>
      </trkpt>
      <trkpt lat="49.82827" lon="2.52713">
        <ele>51.9</ele>
        <time>2022-12-07T14:04:39Z</time>
      </trkpt>
      <trkpt lat="49.82827" lon="2.52715">
        <ele>52</ele>
        <time>2022-12-07T14:04:40Z</time>
      </trkpt>
      <trkpt lat="49.82826" lon="2.52716">
        <ele>52</ele>
        <time>2022-12-07T14:04:41Z</time>
      </trkpt>
      <trkpt lat="49.82826" lon="2.52717">
        <ele>52</ele>
        <time>2022-12-07T14:04:42Z</time>
      </trkpt>
      <trkpt lat="49.82825" lon="2.52719">
        <ele>52</ele>
        <time>2022-12-07T14:04:43Z</time>
      </trkpt>
      <trkpt lat="49.82824" lon="2.52721">
        <ele>52</ele>
        <time>2022-12-07T14:04:44Z</time>
      </trkpt>
      <trkpt lat="49.82824" lon="2.52722">
        <ele>52</ele>
        <time>2022-12-07T14:04:45Z</time>
      </trkpt>
      <trkpt lat="49.82823" lon="2.52723">
        <ele>52.1</ele>
        <time>2022-12-07T14:04:46Z</time>
      </trkpt>
      <trkpt lat="49.82823" lon="2.52725">
        <ele>52.1</ele>
        <time>2022-12-07T14:04:47Z</time>
      </trkpt>
      <trkpt lat="49.82822" lon="2.52727">
        <ele>52.1</ele>
        <time>2022-12-07T14:04:48Z</time>
      </trkpt>
      <trkpt lat="49.82822" lon="2.52729">
        <ele>52.1</ele>
        <time>2022-12-07T14:04:49Z</time>
      </trkpt>
      <trkpt lat="49.82822" lon="2.5273">
        <ele>52.2</ele>
        <time>2022-12-07T14:04:50Z</time>
      </trkpt>
      <trkpt lat="49.82821" lon="2.52732">
        <ele>52.2</ele>
        <time>2022-12-07T14:04:51Z</time>
      </trkpt>
      <trkpt lat="49.82821" lon="2.52733">
        <ele>52.2</ele>
        <time>2022-12-07T14:04:52Z</time>
      </trkpt>
      <trkpt lat="49.82821" lon="2.52735">
        <ele>52.2</ele>
        <time>2022-12-07T14:04:53Z</time>
      </trkpt>
      <trkpt lat="49.8282" lon="2.52737">
        <ele>52.3</ele>
        <time>2022-12-07T14:04:54Z</time>
      </trkpt>
      <trkpt lat="49.8282" lon="2.52738">
        <ele>52.3</ele>
        <time>2022-12-07T14:04:55Z</time>
      </trkpt>
      <trkpt lat="49.8282" lon="2.5274">
        <ele>52.3</ele>
        <time>2022-12-07T14:04:56Z</time>
      </trkpt>
      <trkpt lat="49.82819" lon="2.52741">
        <ele>52.3</ele>
        <time>2022-12-07T14:04:57Z</time>
      </trkpt>
      <trkpt lat="49.82819" lon="2.52744">
        <ele>52.4</ele>
        <time>2022-12-07T14:04:58Z</time>
      </trkpt>
      <trkpt lat="49.82819" lon="2.52745">
        <ele>52.4</ele>
        <time>2022-12-07T14:04:59Z</time>
      </trkpt>
      <trkpt lat="49.82818" lon="2.52746">
        <ele>52.4</ele>
        <time>2022-12-07T14:05:00Z</time>
      </trkpt>
      <trkpt lat="49.82818" lon="2.52747">
        <ele>52.4</ele>
        <time>2022-12-07T14:05:01Z</time>
      </trkpt>
      <trkpt lat="49.82818" lon="2.52748">
        <ele>52.4</ele>
        <time>2022-12-07T14:05:02Z</time>
      </trkpt>
      <trkpt lat="49.82818" lon="2.5275">
        <ele>52.4</ele>
        <time>2022-12-07T14:05:03Z</time>
      </trkpt>
      <trkpt lat="49.82817" lon="2.52751">
        <ele>52.5</ele>
        <time>2022-12-07T14:05:04Z</time>
      </trkpt>
      <trkpt lat="49.82817" lon="2.52752">
        <ele>52.5</ele>
        <time>2022-12-07T14:05:05Z</time>
      </trkpt>
      <trkpt lat="49.82817" lon="2.52754">
        <ele>52.5</ele>
        <time>2022-12-07T14:05:06Z</time>
      </trkpt>
      <trkpt lat="49.82816" lon="2.52756">
        <ele>52.5</ele>
        <time>2022-12-07T14:05:07Z</time>
      </trkpt>
      <trkpt lat="49.82816" lon="2.52757">
        <ele>52.6</ele>
        <time>2022-12-07T14:05:08Z</time>
      </trkpt>
      <trkpt lat="49.82816" lon="2.52758">
        <ele>52.6</ele>
        <time>2022-12-07T14:05:09Z</time>
      </trkpt>
      <trkpt lat="49.82815" lon="2.5276">
        <ele>52.6</ele>
        <time>2022-12-07T14:05:10Z</time>
      </trkpt>
      <trkpt lat="49.82815" lon="2.52761">
        <ele>52.6</ele>
        <time>2022-12-07T14:05:11Z</time>
      </trkpt>
      <trkpt lat="49.82814" lon="2.52763">
        <ele>52.7</ele>
        <time>2022-12-07T14:05:12Z</time>
      </trkpt>
      <trkpt lat="49.82814" lon="2.52764">
        <ele>52.7</ele>
        <time>2022-12-07T14:05:13Z</time>
      </trkpt>
      <trkpt lat="49.82813" lon="2.52765">
        <ele>52.7</ele>
        <time>2022-12-07T14:05:14Z</time>
      </trkpt>
      <trkpt lat="49.82813" lon="2.52767">
        <ele>52.7</ele>
        <time>2022-12-07T14:05:15Z</time>
      </trkpt>
      <trkpt lat="49.82812" lon="2.52769">
        <ele>52.8</ele>
        <time>2022-12-07T14:05:16Z</time>
      </trkpt>
      <trkpt lat="49.82811" lon="2.52771">
        <ele>52.8</ele>
        <time>2022-12-07T14:05:17Z</time>
      </trkpt>
      <trkpt lat="49.82811" lon="2.52772">
        <ele>52.8</ele>
        <time>2022-12-07T14:05:18Z</time>
      </trkpt>
      <trkpt lat="49.82811" lon="2.52773">
        <ele>52.8</ele>
        <time>2022-12-07T14:05:19Z</time>
      </trkpt>
      <trkpt lat="49.82811" lon="2.52774">
        <ele>52.8</ele>
        <time>2022-12-07T14:05:20Z</time>
      </trkpt>
      <trkpt lat="49.8281" lon="2.52775">
        <ele>52.9</ele>
        <time>2022-12-07T14:05:21Z</time>
      </trkpt>
      <trkpt lat="49.8281" lon="2.52777">
        <ele>52.9</ele>
        <time>2022-12-07T14:05:22Z</time>
      </trkpt>
      <trkpt lat="49.82809" lon="2.52778">
        <ele>52.9</ele>
        <time>2022-12-07T14:05:23Z</time>
      </trkpt>
      <trkpt lat="49.82809" lon="2.5278">
        <ele>52.9</ele>
        <time>2022-12-07T14:05:24Z</time>
      </trkpt>
      <trkpt lat="49.82808" lon="2.52782">
        <ele>53</ele>
        <time>2022-12-07T14:05:25Z</time>
      </trkpt>
      <trkpt lat="49.82808" lon="2.52783">
        <ele>53</ele>
        <time>2022-12-07T14:05:26Z</time>
      </trkpt>
      <trkpt lat="49.82808" lon="2.52785">
        <ele>53</ele>
        <time>2022-12-07T14:05:27Z</time>
      </trkpt>
      <trkpt lat="49.82808" lon="2.52787">
        <ele>53</ele>
        <time>2022-12-07T14:05:28Z</time>
      </trkpt>
      <trkpt lat="49.82807" lon="2.52788">
        <ele>53</ele>
        <time>2022-12-07T14:05:29Z</time>
      </trkpt>
      <trkpt lat="49.82807" lon="2.5279">
        <ele>53.1</ele>
        <time>2022-12-07T14:05:30Z</time>
      </trkpt>
      <trkpt lat="49.82807" lon="2.52792">
        <ele>53.1</ele>
        <time>2022-12-07T14:05:31Z</time>
      </trkpt>
      <trkpt lat="49.82806" lon="2.52793">
        <ele>53.1</ele>
        <time>2022-12-07T14:05:32Z</time>
      </trkpt>
      <trkpt lat="49.82806" lon="2.52795">
        <ele>53.1</ele>
        <time>2022-12-07T14:05:33Z</time>
      </trkpt>
      <trkpt lat="49.82805" lon="2.52797">
        <ele>53.1</ele>
        <time>2022-12-07T14:05:34Z</time>
      </trkpt>
      <trkpt lat="49.82805" lon="2.52798">
        <ele>53.2</ele>
        <time>2022-12-07T14:05:35Z</time>
      </trkpt>
      <trkpt lat="49.82805" lon="2.528">
        <ele>53.2</ele>
        <time>2022-12-07T14:05:36Z</time>
      </trkpt>
      <trkpt lat="49.82804" lon="2.52802">
        <ele>53.2</ele>
        <time>2022-12-07T14:05:37Z</time>
      </trkpt>
      <trkpt lat="49.82804" lon="2.52803">
        <ele>53.2</ele>
        <time>2022-12-07T14:05:38Z</time>
      </trkpt>
      <trkpt lat="49.82803" lon="2.52804">
        <ele>53.2</ele>
        <time>2022-12-07T14:05:39Z</time>
      </trkpt>
      <trkpt lat="49.82803" lon="2.52806">
        <ele>53.2</ele>
        <time>2022-12-07T14:05:40Z</time>
      </trkpt>
      <trkpt lat="49.82803" lon="2.52808">
        <ele>53.2</ele>
        <time>2022-12-07T14:05:41Z</time>
      </trkpt>
      <trkpt lat="49.82802" lon="2.52809">
        <ele>53.2</ele>
        <time>2022-12-07T14:05:42Z</time>
      </trkpt>
      <trkpt lat="49.82802" lon="2.52811">
        <ele>53.2</ele>
        <time>2022-12-07T14:05:43Z</time>
      </trkpt>
      <trkpt lat="49.82802" lon="2.52813">
        <ele>53.2</ele>
        <time>2022-12-07T14:05:44Z</time>
      </trkpt>
      <trkpt lat="49.82801" lon="2.52814">
        <ele>53.3</ele>
        <time>2022-12-07T14:05:45Z</time>
      </trkpt>
      <trkpt lat="49.82801" lon="2.52816">
        <ele>53.3</ele>
        <time>2022-12-07T14:05:46Z</time>
      </trkpt>
      <trkpt lat="49.828" lon="2.52817">
        <ele>53.3</ele>
        <time>2022-12-07T14:05:47Z</time>
      </trkpt>
      <trkpt lat="49.828" lon="2.52819">
        <ele>53.3</ele>
        <time>2022-12-07T14:05:48Z</time>
      </trkpt>
      <trkpt lat="49.82799" lon="2.5282">
        <ele>53.3</ele>
        <time>2022-12-07T14:05:49Z</time>
      </trkpt>
      <trkpt lat="49.82799" lon="2.52822">
        <ele>53.3</ele>
        <time>2022-12-07T14:05:50Z</time>
      </trkpt>
      <trkpt lat="49.82799" lon="2.52823">
        <ele>53.3</ele>
        <time>2022-12-07T14:05:51Z</time>
      </trkpt>
      <trkpt lat="49.82798" lon="2.52824">
        <ele>53.3</ele>
        <time>2022-12-07T14:05:52Z</time>
      </trkpt>
      <trkpt lat="49.82798" lon="2.52826">
        <ele>53.3</ele>
        <time>2022-12-07T14:05:53Z</time>
      </trkpt>
      <trkpt lat="49.82797" lon="2.52827">
        <ele>53.3</ele>
        <time>2022-12-07T14:05:54Z</time>
      </trkpt>
      <trkpt lat="49.82797" lon="2.52829">
        <ele>53.3</ele>
        <time>2022-12-07T14:05:55Z</time>
      </trkpt>
      <trkpt lat="49.82796" lon="2.5283">
        <ele>53.3</ele>
        <time>2022-12-07T14:05:56Z</time>
      </trkpt>
      <trkpt lat="49.82795" lon="2.52831">
        <ele>53.3</ele>
        <time>2022-12-07T14:05:57Z</time>
      </trkpt>
      <trkpt lat="49.82795" lon="2.52833">
        <ele>53.3</ele>
        <time>2022-12-07T14:05:58Z</time>
      </trkpt>
      <trkpt lat="49.82794" lon="2.52834">
        <ele>53.3</ele>
        <time>2022-12-07T14:05:59Z</time>
      </trkpt>
      <trkpt lat="49.82794" lon="2.52835">
        <ele>53.3</ele>
        <time>2022-12-07T14:06:00Z</time>
      </trkpt>
      <trkpt lat="49.82793" lon="2.52837">
        <ele>53.3</ele>
        <time>2022-12-07T14:06:01Z</time>
      </trkpt>
      <trkpt lat="49.82793" lon="2.52839">
        <ele>53.3</ele>
        <time>2022-12-07T14:06:02Z</time>
      </trkpt>
      <trkpt lat="49.82792" lon="2.52841">
        <ele>53.3</ele>
        <time>2022-12-07T14:06:03Z</time>
      </trkpt>
      <trkpt lat="49.82792" lon="2.52842">
        <ele>53.3</ele>
        <time>2022-12-07T14:06:04Z</time>
      </trkpt>
      <trkpt lat="49.82792" lon="2.52843">
        <ele>53.3</ele>
        <time>2022-12-07T14:06:05Z</time>
      </trkpt>
      <trkpt lat="49.82791" lon="2.52845">
        <ele>53.3</ele>
        <time>2022-12-07T14:06:06Z</time>
      </trkpt>
      <trkpt lat="49.82791" lon="2.52846">
        <ele>53.3</ele>
        <time>2022-12-07T14:06:07Z</time>
      </trkpt>
      <trkpt lat="49.8279" lon="2.52847">
        <ele>53.3</ele>
        <time>2022-12-07T14:06:08Z</time>
      </trkpt>
      <trkpt lat="49.8279" lon="2.52849">
        <ele>53.3</ele>
        <time>2022-12-07T14:06:09Z</time>
      </trkpt>
      <trkpt lat="49.8279" lon="2.5285">
        <ele>53.3</ele>
        <time>2022-12-07T14:06:10Z</time>
      </trkpt>
      <trkpt lat="49.82789" lon="2.52852">
        <ele>53.3</ele>
        <time>2022-12-07T14:06:11Z</time>
      </trkpt>
      <trkpt lat="49.82789" lon="2.52853">
        <ele>53.3</ele>
        <time>2022-12-07T14:06:12Z</time>
      </trkpt>
      <trkpt lat="49.82788" lon="2.52855">
        <ele>53.3</ele>
        <time>2022-12-07T14:06:13Z</time>
      </trkpt>
      <trkpt lat="49.82788" lon="2.52856">
        <ele>53.3</ele>
        <time>2022-12-07T14:06:14Z</time>
      </trkpt>
      <trkpt lat="49.82788" lon="2.52857">
        <ele>53.3</ele>
        <time>2022-12-07T14:06:15Z</time>
      </trkpt>
      <trkpt lat="49.82787" lon="2.52859">
        <ele>53.3</ele>
        <time>2022-12-07T14:06:16Z</time>
      </trkpt>
      <trkpt lat="49.82787" lon="2.5286">
        <ele>53.3</ele>
        <time>2022-12-07T14:06:17Z</time>
      </trkpt>
      <trkpt lat="49.82786" lon="2.52862">
        <ele>53.3</ele>
        <time>2022-12-07T14:06:18Z</time>
      </trkpt>
      <trkpt lat="49.82786" lon="2.52863">
        <ele>53.3</ele>
        <time>2022-12-07T14:06:19Z</time>
      </trkpt>
      <trkpt lat="49.82786" lon="2.52864">
        <ele>53.2</ele>
        <time>2022-12-07T14:06:20Z</time>
      </trkpt>
      <trkpt lat="49.82785" lon="2.52865">
        <ele>53.2</ele>
        <time>2022-12-07T14:06:21Z</time>
      </trkpt>
      <trkpt lat="49.82784" lon="2.52868">
        <ele>53.2</ele>
        <time>2022-12-07T14:06:22Z</time>
      </trkpt>
      <trkpt lat="49.82784" lon="2.52869">
        <ele>53.2</ele>
        <time>2022-12-07T14:06:23Z</time>
      </trkpt>
      <trkpt lat="49.82783" lon="2.5287">
        <ele>53.2</ele>
        <time>2022-12-07T14:06:24Z</time>
      </trkpt>
      <trkpt lat="49.82783" lon="2.52872">
        <ele>53.2</ele>
        <time>2022-12-07T14:06:25Z</time>
      </trkpt>
      <trkpt lat="49.82782" lon="2.52873">
        <ele>53.1</ele>
        <time>2022-12-07T14:06:26Z</time>
      </trkpt>
      <trkpt lat="49.82782" lon="2.52875">
        <ele>53.1</ele>
        <time>2022-12-07T14:06:27Z</time>
      </trkpt>
      <trkpt lat="49.82781" lon="2.52878">
        <ele>53.1</ele>
        <time>2022-12-07T14:06:28Z</time>
      </trkpt>
      <trkpt lat="49.82781" lon="2.52879">
        <ele>53</ele>
        <time>2022-12-07T14:06:29Z</time>
      </trkpt>
      <trkpt lat="49.82781" lon="2.5288">
        <ele>53</ele>
        <time>2022-12-07T14:06:30Z</time>
      </trkpt>
      <trkpt lat="49.8278" lon="2.52882">
        <ele>53</ele>
        <time>2022-12-07T14:06:31Z</time>
      </trkpt>
      <trkpt lat="49.8278" lon="2.52884">
        <ele>52.9</ele>
        <time>2022-12-07T14:06:32Z</time>
      </trkpt>
      <trkpt lat="49.8278" lon="2.52885">
        <ele>52.9</ele>
        <time>2022-12-07T14:06:33Z</time>
      </trkpt>
      <trkpt lat="49.8278" lon="2.52888">
        <ele>52.9</ele>
        <time>2022-12-07T14:06:34Z</time>
      </trkpt>
      <trkpt lat="49.82779" lon="2.52889">
        <ele>52.8</ele>
        <time>2022-12-07T14:06:35Z</time>
      </trkpt>
      <trkpt lat="49.82779" lon="2.52891">
        <ele>52.8</ele>
        <time>2022-12-07T14:06:36Z</time>
      </trkpt>
      <trkpt lat="49.82779" lon="2.52893">
        <ele>52.8</ele>
        <time>2022-12-07T14:06:37Z</time>
      </trkpt>
      <trkpt lat="49.82779" lon="2.52895">
        <ele>52.7</ele>
        <time>2022-12-07T14:06:38Z</time>
      </trkpt>
      <trkpt lat="49.82778" lon="2.52898">
        <ele>52.6</ele>
        <time>2022-12-07T14:06:39Z</time>
      </trkpt>
      <trkpt lat="49.82778" lon="2.52899">
        <ele>52.6</ele>
        <time>2022-12-07T14:06:40Z</time>
      </trkpt>
      <trkpt lat="49.82778" lon="2.52901">
        <ele>52.6</ele>
        <time>2022-12-07T14:06:41Z</time>
      </trkpt>
      <trkpt lat="49.82777" lon="2.52904">
        <ele>52.5</ele>
        <time>2022-12-07T14:06:42Z</time>
      </trkpt>
      <trkpt lat="49.82777" lon="2.52905">
        <ele>52.5</ele>
        <time>2022-12-07T14:06:43Z</time>
      </trkpt>
      <trkpt lat="49.82777" lon="2.52906">
        <ele>52.4</ele>
        <time>2022-12-07T14:06:44Z</time>
      </trkpt>
      <trkpt lat="49.82776" lon="2.5291">
        <ele>52.3</ele>
        <time>2022-12-07T14:06:45Z</time>
      </trkpt>
      <trkpt lat="49.82776" lon="2.52911">
        <ele>52.3</ele>
        <time>2022-12-07T14:06:46Z</time>
      </trkpt>
      <trkpt lat="49.82776" lon="2.52912">
        <ele>52.2</ele>
        <time>2022-12-07T14:06:47Z</time>
      </trkpt>
      <trkpt lat="49.82775" lon="2.52915">
        <ele>52.2</ele>
        <time>2022-12-07T14:06:48Z</time>
      </trkpt>
      <trkpt lat="49.82775" lon="2.52916">
        <ele>52.1</ele>
        <time>2022-12-07T14:06:49Z</time>
      </trkpt>
      <trkpt lat="49.82775" lon="2.52917">
        <ele>52.1</ele>
        <time>2022-12-07T14:06:50Z</time>
      </trkpt>
      <trkpt lat="49.82774" lon="2.52921">
        <ele>52</ele>
        <time>2022-12-07T14:06:51Z</time>
      </trkpt>
      <trkpt lat="49.82774" lon="2.52922">
        <ele>51.9</ele>
        <time>2022-12-07T14:06:52Z</time>
      </trkpt>
      <trkpt lat="49.82774" lon="2.52923">
        <ele>51.9</ele>
        <time>2022-12-07T14:06:53Z</time>
      </trkpt>
      <trkpt lat="49.82773" lon="2.52927">
        <ele>51.8</ele>
        <time>2022-12-07T14:06:54Z</time>
      </trkpt>
      <trkpt lat="49.82773" lon="2.52928">
        <ele>51.8</ele>
        <time>2022-12-07T14:06:55Z</time>
      </trkpt>
      <trkpt lat="49.82773" lon="2.52929">
        <ele>51.7</ele>
        <time>2022-12-07T14:06:56Z</time>
      </trkpt>
      <trkpt lat="49.82773" lon="2.52931">
        <ele>51.7</ele>
        <time>2022-12-07T14:06:57Z</time>
      </trkpt>
      <trkpt lat="49.82773" lon="2.52933">
        <ele>51.6</ele>
        <time>2022-12-07T14:06:58Z</time>
      </trkpt>
      <trkpt lat="49.82773" lon="2.52937">
        <ele>51.5</ele>
        <time>2022-12-07T14:06:59Z</time>
      </trkpt>
      <trkpt lat="49.82772" lon="2.52938">
        <ele>51.5</ele>
        <time>2022-12-07T14:07:00Z</time>
      </trkpt>
      <trkpt lat="49.82772" lon="2.52939">
        <ele>51.4</ele>
        <time>2022-12-07T14:07:01Z</time>
      </trkpt>
      <trkpt lat="49.82772" lon="2.52942">
        <ele>51.3</ele>
        <time>2022-12-07T14:07:02Z</time>
      </trkpt>
      <trkpt lat="49.82772" lon="2.52944">
        <ele>51.3</ele>
        <time>2022-12-07T14:07:03Z</time>
      </trkpt>
      <trkpt lat="49.82772" lon="2.52945">
        <ele>51.3</ele>
        <time>2022-12-07T14:07:04Z</time>
      </trkpt>
      <trkpt lat="49.82772" lon="2.52947">
        <ele>51.2</ele>
        <time>2022-12-07T14:07:05Z</time>
      </trkpt>
      <trkpt lat="49.82772" lon="2.52949">
        <ele>51.2</ele>
        <time>2022-12-07T14:07:06Z</time>
      </trkpt>
      <trkpt lat="49.82772" lon="2.5295">
        <ele>51.1</ele>
        <time>2022-12-07T14:07:07Z</time>
      </trkpt>
      <trkpt lat="49.82772" lon="2.52952">
        <ele>51.1</ele>
        <time>2022-12-07T14:07:08Z</time>
      </trkpt>
      <trkpt lat="49.82772" lon="2.52954">
        <ele>51</ele>
        <time>2022-12-07T14:07:09Z</time>
      </trkpt>
      <trkpt lat="49.82772" lon="2.52956">
        <ele>51</ele>
        <time>2022-12-07T14:07:10Z</time>
      </trkpt>
      <trkpt lat="49.82772" lon="2.52957">
        <ele>51</ele>
        <time>2022-12-07T14:07:11Z</time>
      </trkpt>
      <trkpt lat="49.82772" lon="2.52959">
        <ele>50.9</ele>
        <time>2022-12-07T14:07:12Z</time>
      </trkpt>
      <trkpt lat="49.82772" lon="2.52961">
        <ele>50.9</ele>
        <time>2022-12-07T14:07:13Z</time>
      </trkpt>
      <trkpt lat="49.82772" lon="2.52964">
        <ele>50.8</ele>
        <time>2022-12-07T14:07:14Z</time>
      </trkpt>
      <trkpt lat="49.82772" lon="2.52965">
        <ele>50.8</ele>
        <time>2022-12-07T14:07:15Z</time>
      </trkpt>
      <trkpt lat="49.82772" lon="2.52966">
        <ele>50.8</ele>
        <time>2022-12-07T14:07:16Z</time>
      </trkpt>
      <trkpt lat="49.82773" lon="2.52968">
        <ele>50.7</ele>
        <time>2022-12-07T14:07:17Z</time>
      </trkpt>
      <trkpt lat="49.82773" lon="2.5297">
        <ele>50.7</ele>
        <time>2022-12-07T14:07:18Z</time>
      </trkpt>
      <trkpt lat="49.82773" lon="2.52972">
        <ele>50.7</ele>
        <time>2022-12-07T14:07:19Z</time>
      </trkpt>
      <trkpt lat="49.82773" lon="2.52975">
        <ele>50.6</ele>
        <time>2022-12-07T14:07:20Z</time>
      </trkpt>
      <trkpt lat="49.82773" lon="2.52976">
        <ele>50.6</ele>
        <time>2022-12-07T14:07:21Z</time>
      </trkpt>
      <trkpt lat="49.82773" lon="2.52977">
        <ele>50.5</ele>
        <time>2022-12-07T14:07:22Z</time>
      </trkpt>
      <trkpt lat="49.82773" lon="2.52979">
        <ele>50.5</ele>
        <time>2022-12-07T14:07:23Z</time>
      </trkpt>
      <trkpt lat="49.82774" lon="2.52981">
        <ele>50.5</ele>
        <time>2022-12-07T14:07:24Z</time>
      </trkpt>
      <trkpt lat="49.82774" lon="2.52983">
        <ele>50.4</ele>
        <time>2022-12-07T14:07:25Z</time>
      </trkpt>
      <trkpt lat="49.82774" lon="2.52984">
        <ele>50.4</ele>
        <time>2022-12-07T14:07:26Z</time>
      </trkpt>
      <trkpt lat="49.82774" lon="2.52986">
        <ele>50.4</ele>
        <time>2022-12-07T14:07:27Z</time>
      </trkpt>
      <trkpt lat="49.82774" lon="2.52988">
        <ele>50.3</ele>
        <time>2022-12-07T14:07:28Z</time>
      </trkpt>
      <trkpt lat="49.82774" lon="2.5299">
        <ele>50.3</ele>
        <time>2022-12-07T14:07:29Z</time>
      </trkpt>
      <trkpt lat="49.82774" lon="2.52991">
        <ele>50.3</ele>
        <time>2022-12-07T14:07:30Z</time>
      </trkpt>
      <trkpt lat="49.82774" lon="2.52993">
        <ele>50.2</ele>
        <time>2022-12-07T14:07:31Z</time>
      </trkpt>
      <trkpt lat="49.82774" lon="2.52995">
        <ele>50.2</ele>
        <time>2022-12-07T14:07:32Z</time>
      </trkpt>
      <trkpt lat="49.82774" lon="2.52997">
        <ele>50.2</ele>
        <time>2022-12-07T14:07:33Z</time>
      </trkpt>
      <trkpt lat="49.82774" lon="2.52998">
        <ele>50.1</ele>
        <time>2022-12-07T14:07:34Z</time>
      </trkpt>
      <trkpt lat="49.82773" lon="2.53">
        <ele>50.1</ele>
        <time>2022-12-07T14:07:35Z</time>
      </trkpt>
      <trkpt lat="49.82773" lon="2.53001">
        <ele>50.1</ele>
        <time>2022-12-07T14:07:36Z</time>
      </trkpt>
      <trkpt lat="49.82773" lon="2.53003">
        <ele>50.1</ele>
        <time>2022-12-07T14:07:37Z</time>
      </trkpt>
      <trkpt lat="49.82773" lon="2.53005">
        <ele>50</ele>
        <time>2022-12-07T14:07:38Z</time>
      </trkpt>
      <trkpt lat="49.82774" lon="2.53007">
        <ele>50</ele>
        <time>2022-12-07T14:07:39Z</time>
      </trkpt>
      <trkpt lat="49.82774" lon="2.53008">
        <ele>50</ele>
        <time>2022-12-07T14:07:40Z</time>
      </trkpt>
      <trkpt lat="49.82774" lon="2.5301">
        <ele>49.9</ele>
        <time>2022-12-07T14:07:41Z</time>
      </trkpt>
      <trkpt lat="49.82773" lon="2.53011">
        <ele>49.9</ele>
        <time>2022-12-07T14:07:42Z</time>
      </trkpt>
      <trkpt lat="49.82773" lon="2.53013">
        <ele>49.9</ele>
        <time>2022-12-07T14:07:43Z</time>
      </trkpt>
      <trkpt lat="49.82773" lon="2.53015">
        <ele>49.9</ele>
        <time>2022-12-07T14:07:44Z</time>
      </trkpt>
      <trkpt lat="49.82773" lon="2.53017">
        <ele>49.8</ele>
        <time>2022-12-07T14:07:45Z</time>
      </trkpt>
      <trkpt lat="49.82773" lon="2.53019">
        <ele>49.8</ele>
        <time>2022-12-07T14:07:46Z</time>
      </trkpt>
      <trkpt lat="49.82773" lon="2.5302">
        <ele>49.8</ele>
        <time>2022-12-07T14:07:47Z</time>
      </trkpt>
      <trkpt lat="49.82773" lon="2.53022">
        <ele>49.8</ele>
        <time>2022-12-07T14:07:48Z</time>
      </trkpt>
      <trkpt lat="49.82773" lon="2.53024">
        <ele>49.7</ele>
        <time>2022-12-07T14:07:49Z</time>
      </trkpt>
      <trkpt lat="49.82773" lon="2.53026">
        <ele>49.7</ele>
        <time>2022-12-07T14:07:50Z</time>
      </trkpt>
      <trkpt lat="49.82773" lon="2.53027">
        <ele>49.7</ele>
        <time>2022-12-07T14:07:51Z</time>
      </trkpt>
      <trkpt lat="49.82773" lon="2.53029">
        <ele>49.7</ele>
        <time>2022-12-07T14:07:52Z</time>
      </trkpt>
      <trkpt lat="49.82773" lon="2.53031">
        <ele>49.7</ele>
        <time>2022-12-07T14:07:53Z</time>
      </trkpt>
      <trkpt lat="49.82773" lon="2.53032">
        <ele>49.7</ele>
        <time>2022-12-07T14:07:54Z</time>
      </trkpt>
      <trkpt lat="49.82773" lon="2.53034">
        <ele>49.6</ele>
        <time>2022-12-07T14:07:55Z</time>
      </trkpt>
      <trkpt lat="49.82773" lon="2.53036">
        <ele>49.6</ele>
        <time>2022-12-07T14:07:56Z</time>
      </trkpt>
      <trkpt lat="49.82773" lon="2.53038">
        <ele>49.6</ele>
        <time>2022-12-07T14:07:57Z</time>
      </trkpt>
      <trkpt lat="49.82774" lon="2.5304">
        <ele>49.6</ele>
        <time>2022-12-07T14:07:58Z</time>
      </trkpt>
      <trkpt lat="49.82774" lon="2.53041">
        <ele>49.6</ele>
        <time>2022-12-07T14:07:59Z</time>
      </trkpt>
      <trkpt lat="49.82774" lon="2.53043">
        <ele>49.6</ele>
        <time>2022-12-07T14:08:00Z</time>
      </trkpt>
      <trkpt lat="49.82774" lon="2.53045">
        <ele>49.6</ele>
        <time>2022-12-07T14:08:01Z</time>
      </trkpt>
      <trkpt lat="49.82774" lon="2.53046">
        <ele>49.5</ele>
        <time>2022-12-07T14:08:02Z</time>
      </trkpt>
      <trkpt lat="49.82774" lon="2.53048">
        <ele>49.5</ele>
        <time>2022-12-07T14:08:03Z</time>
      </trkpt>
      <trkpt lat="49.82774" lon="2.5305">
        <ele>49.5</ele>
        <time>2022-12-07T14:08:04Z</time>
      </trkpt>
      <trkpt lat="49.82774" lon="2.53051">
        <ele>49.5</ele>
        <time>2022-12-07T14:08:05Z</time>
      </trkpt>
      <trkpt lat="49.82774" lon="2.53053">
        <ele>49.5</ele>
        <time>2022-12-07T14:08:06Z</time>
      </trkpt>
      <trkpt lat="49.82774" lon="2.53054">
        <ele>49.5</ele>
        <time>2022-12-07T14:08:07Z</time>
      </trkpt>
      <trkpt lat="49.82774" lon="2.53056">
        <ele>49.5</ele>
        <time>2022-12-07T14:08:08Z</time>
      </trkpt>
      <trkpt lat="49.82775" lon="2.53058">
        <ele>49.5</ele>
        <time>2022-12-07T14:08:09Z</time>
      </trkpt>
      <trkpt lat="49.82775" lon="2.53059">
        <ele>49.4</ele>
        <time>2022-12-07T14:08:10Z</time>
      </trkpt>
      <trkpt lat="49.82775" lon="2.53061">
        <ele>49.4</ele>
        <time>2022-12-07T14:08:11Z</time>
      </trkpt>
      <trkpt lat="49.82775" lon="2.53063">
        <ele>49.4</ele>
        <time>2022-12-07T14:08:12Z</time>
      </trkpt>
      <trkpt lat="49.82775" lon="2.53064">
        <ele>49.4</ele>
        <time>2022-12-07T14:08:13Z</time>
      </trkpt>
      <trkpt lat="49.82775" lon="2.53066">
        <ele>49.4</ele>
        <time>2022-12-07T14:08:14Z</time>
      </trkpt>
      <trkpt lat="49.82775" lon="2.53067">
        <ele>49.4</ele>
        <time>2022-12-07T14:08:15Z</time>
      </trkpt>
      <trkpt lat="49.82775" lon="2.53069">
        <ele>49.4</ele>
        <time>2022-12-07T14:08:16Z</time>
      </trkpt>
      <trkpt lat="49.82775" lon="2.53071">
        <ele>49.4</ele>
        <time>2022-12-07T14:08:17Z</time>
      </trkpt>
      <trkpt lat="49.82775" lon="2.53072">
        <ele>49.3</ele>
        <time>2022-12-07T14:08:18Z</time>
      </trkpt>
      <trkpt lat="49.82774" lon="2.53074">
        <ele>49.3</ele>
        <time>2022-12-07T14:08:19Z</time>
      </trkpt>
      <trkpt lat="49.82774" lon="2.53075">
        <ele>49.3</ele>
        <time>2022-12-07T14:08:20Z</time>
      </trkpt>
      <trkpt lat="49.82774" lon="2.53077">
        <ele>49.3</ele>
        <time>2022-12-07T14:08:21Z</time>
      </trkpt>
      <trkpt lat="49.82774" lon="2.53079">
        <ele>49.3</ele>
        <time>2022-12-07T14:08:22Z</time>
      </trkpt>
      <trkpt lat="49.82773" lon="2.5308">
        <ele>49.3</ele>
        <time>2022-12-07T14:08:23Z</time>
      </trkpt>
      <trkpt lat="49.82773" lon="2.53082">
        <ele>49.3</ele>
        <time>2022-12-07T14:08:24Z</time>
      </trkpt>
      <trkpt lat="49.82773" lon="2.53083">
        <ele>49.3</ele>
        <time>2022-12-07T14:08:25Z</time>
      </trkpt>
      <trkpt lat="49.82772" lon="2.53085">
        <ele>49.2</ele>
        <time>2022-12-07T14:08:26Z</time>
      </trkpt>
      <trkpt lat="49.82772" lon="2.53086">
        <ele>49.2</ele>
        <time>2022-12-07T14:08:27Z</time>
      </trkpt>
      <trkpt lat="49.82772" lon="2.53088">
        <ele>49.2</ele>
        <time>2022-12-07T14:08:28Z</time>
      </trkpt>
      <trkpt lat="49.82772" lon="2.53089">
        <ele>49.2</ele>
        <time>2022-12-07T14:08:29Z</time>
      </trkpt>
      <trkpt lat="49.82771" lon="2.53091">
        <ele>49.2</ele>
        <time>2022-12-07T14:08:30Z</time>
      </trkpt>
      <trkpt lat="49.82771" lon="2.53092">
        <ele>49.2</ele>
        <time>2022-12-07T14:08:31Z</time>
      </trkpt>
      <trkpt lat="49.82771" lon="2.53093">
        <ele>49.2</ele>
        <time>2022-12-07T14:08:32Z</time>
      </trkpt>
      <trkpt lat="49.82771" lon="2.53095">
        <ele>49.2</ele>
        <time>2022-12-07T14:08:33Z</time>
      </trkpt>
      <trkpt lat="49.8277" lon="2.53096">
        <ele>49.1</ele>
        <time>2022-12-07T14:08:34Z</time>
      </trkpt>
      <trkpt lat="49.8277" lon="2.53098">
        <ele>49.1</ele>
        <time>2022-12-07T14:08:35Z</time>
      </trkpt>
      <trkpt lat="49.82769" lon="2.53099">
        <ele>49.1</ele>
        <time>2022-12-07T14:08:36Z</time>
      </trkpt>
      <trkpt lat="49.82769" lon="2.53101">
        <ele>49.1</ele>
        <time>2022-12-07T14:08:37Z</time>
      </trkpt>
      <trkpt lat="49.82768" lon="2.53102">
        <ele>49.1</ele>
        <time>2022-12-07T14:08:38Z</time>
      </trkpt>
      <trkpt lat="49.82768" lon="2.53104">
        <ele>49.1</ele>
        <time>2022-12-07T14:08:39Z</time>
      </trkpt>
      <trkpt lat="49.82768" lon="2.53105">
        <ele>49.1</ele>
        <time>2022-12-07T14:08:40Z</time>
      </trkpt>
      <trkpt lat="49.82767" lon="2.53107">
        <ele>49</ele>
        <time>2022-12-07T14:08:41Z</time>
      </trkpt>
      <trkpt lat="49.82767" lon="2.53109">
        <ele>49</ele>
        <time>2022-12-07T14:08:42Z</time>
      </trkpt>
      <trkpt lat="49.82767" lon="2.5311">
        <ele>49</ele>
        <time>2022-12-07T14:08:43Z</time>
      </trkpt>
      <trkpt lat="49.82766" lon="2.53112">
        <ele>49</ele>
        <time>2022-12-07T14:08:44Z</time>
      </trkpt>
      <trkpt lat="49.82766" lon="2.53114">
        <ele>49</ele>
        <time>2022-12-07T14:08:45Z</time>
      </trkpt>
      <trkpt lat="49.82766" lon="2.53115">
        <ele>48.9</ele>
        <time>2022-12-07T14:08:46Z</time>
      </trkpt>
      <trkpt lat="49.82765" lon="2.53117">
        <ele>48.9</ele>
        <time>2022-12-07T14:08:47Z</time>
      </trkpt>
      <trkpt lat="49.82765" lon="2.53119">
        <ele>48.9</ele>
        <time>2022-12-07T14:08:48Z</time>
      </trkpt>
      <trkpt lat="49.82765" lon="2.5312">
        <ele>48.9</ele>
        <time>2022-12-07T14:08:49Z</time>
      </trkpt>
      <trkpt lat="49.82764" lon="2.53122">
        <ele>48.9</ele>
        <time>2022-12-07T14:08:50Z</time>
      </trkpt>
      <trkpt lat="49.82764" lon="2.53124">
        <ele>48.9</ele>
        <time>2022-12-07T14:08:51Z</time>
      </trkpt>
      <trkpt lat="49.82764" lon="2.53125">
        <ele>48.8</ele>
        <time>2022-12-07T14:08:52Z</time>
      </trkpt>
      <trkpt lat="49.82764" lon="2.53127">
        <ele>48.8</ele>
        <time>2022-12-07T14:08:53Z</time>
      </trkpt>
      <trkpt lat="49.82763" lon="2.53129">
        <ele>48.8</ele>
        <time>2022-12-07T14:08:54Z</time>
      </trkpt>
      <trkpt lat="49.82763" lon="2.53131">
        <ele>48.8</ele>
        <time>2022-12-07T14:08:55Z</time>
      </trkpt>
      <trkpt lat="49.82763" lon="2.53132">
        <ele>48.8</ele>
        <time>2022-12-07T14:08:56Z</time>
      </trkpt>
      <trkpt lat="49.82763" lon="2.53134">
        <ele>48.7</ele>
        <time>2022-12-07T14:08:57Z</time>
      </trkpt>
      <trkpt lat="49.82762" lon="2.53135">
        <ele>48.7</ele>
        <time>2022-12-07T14:08:58Z</time>
      </trkpt>
      <trkpt lat="49.82762" lon="2.53137">
        <ele>48.7</ele>
        <time>2022-12-07T14:08:59Z</time>
      </trkpt>
      <trkpt lat="49.82762" lon="2.53138">
        <ele>48.7</ele>
        <time>2022-12-07T14:09:00Z</time>
      </trkpt>
      <trkpt lat="49.82761" lon="2.5314">
        <ele>48.7</ele>
        <time>2022-12-07T14:09:01Z</time>
      </trkpt>
      <trkpt lat="49.82761" lon="2.53142">
        <ele>48.7</ele>
        <time>2022-12-07T14:09:02Z</time>
      </trkpt>
      <trkpt lat="49.82761" lon="2.53143">
        <ele>48.6</ele>
        <time>2022-12-07T14:09:03Z</time>
      </trkpt>
      <trkpt lat="49.82761" lon="2.53145">
        <ele>48.6</ele>
        <time>2022-12-07T14:09:04Z</time>
      </trkpt>
      <trkpt lat="49.8276" lon="2.53147">
        <ele>48.6</ele>
        <time>2022-12-07T14:09:05Z</time>
      </trkpt>
      <trkpt lat="49.8276" lon="2.53149">
        <ele>48.6</ele>
        <time>2022-12-07T14:09:06Z</time>
      </trkpt>
      <trkpt lat="49.8276" lon="2.53151">
        <ele>48.6</ele>
        <time>2022-12-07T14:09:07Z</time>
      </trkpt>
      <trkpt lat="49.82759" lon="2.53152">
        <ele>48.5</ele>
        <time>2022-12-07T14:09:08Z</time>
      </trkpt>
      <trkpt lat="49.82759" lon="2.53154">
        <ele>48.5</ele>
        <time>2022-12-07T14:09:09Z</time>
      </trkpt>
      <trkpt lat="49.82759" lon="2.53156">
        <ele>48.5</ele>
        <time>2022-12-07T14:09:10Z</time>
      </trkpt>
      <trkpt lat="49.82758" lon="2.53157">
        <ele>48.5</ele>
        <time>2022-12-07T14:09:11Z</time>
      </trkpt>
      <trkpt lat="49.82758" lon="2.53159">
        <ele>48.5</ele>
        <time>2022-12-07T14:09:12Z</time>
      </trkpt>
      <trkpt lat="49.82758" lon="2.53161">
        <ele>48.5</ele>
        <time>2022-12-07T14:09:13Z</time>
      </trkpt>
      <trkpt lat="49.82757" lon="2.53162">
        <ele>48.4</ele>
        <time>2022-12-07T14:09:14Z</time>
      </trkpt>
      <trkpt lat="49.82757" lon="2.53163">
        <ele>48.4</ele>
        <time>2022-12-07T14:09:15Z</time>
      </trkpt>
      <trkpt lat="49.82756" lon="2.53165">
        <ele>48.4</ele>
        <time>2022-12-07T14:09:16Z</time>
      </trkpt>
      <trkpt lat="49.82756" lon="2.53167">
        <ele>48.4</ele>
        <time>2022-12-07T14:09:17Z</time>
      </trkpt>
      <trkpt lat="49.82756" lon="2.53169">
        <ele>48.4</ele>
        <time>2022-12-07T14:09:18Z</time>
      </trkpt>
      <trkpt lat="49.82755" lon="2.5317">
        <ele>48.3</ele>
        <time>2022-12-07T14:09:19Z</time>
      </trkpt>
      <trkpt lat="49.82754" lon="2.53172">
        <ele>48.3</ele>
        <time>2022-12-07T14:09:20Z</time>
      </trkpt>
      <trkpt lat="49.82754" lon="2.53173">
        <ele>48.3</ele>
        <time>2022-12-07T14:09:21Z</time>
      </trkpt>
      <trkpt lat="49.82753" lon="2.53174">
        <ele>48.3</ele>
        <time>2022-12-07T14:09:22Z</time>
      </trkpt>
      <trkpt lat="49.82753" lon="2.53175">
        <ele>48.3</ele>
        <time>2022-12-07T14:09:23Z</time>
      </trkpt>
      <trkpt lat="49.82752" lon="2.53177">
        <ele>48.3</ele>
        <time>2022-12-07T14:09:24Z</time>
      </trkpt>
      <trkpt lat="49.82751" lon="2.53178">
        <ele>48.3</ele>
        <time>2022-12-07T14:09:25Z</time>
      </trkpt>
      <trkpt lat="49.82751" lon="2.53179">
        <ele>48.2</ele>
        <time>2022-12-07T14:09:26Z</time>
      </trkpt>
      <trkpt lat="49.8275" lon="2.53181">
        <ele>48.2</ele>
        <time>2022-12-07T14:09:27Z</time>
      </trkpt>
      <trkpt lat="49.8275" lon="2.53183">
        <ele>48.2</ele>
        <time>2022-12-07T14:09:28Z</time>
      </trkpt>
      <trkpt lat="49.82749" lon="2.53186">
        <ele>48.2</ele>
        <time>2022-12-07T14:09:29Z</time>
      </trkpt>
      <trkpt lat="49.82748" lon="2.53187">
        <ele>48.2</ele>
        <time>2022-12-07T14:09:30Z</time>
      </trkpt>
      <trkpt lat="49.82748" lon="2.53188">
        <ele>48.2</ele>
        <time>2022-12-07T14:09:31Z</time>
      </trkpt>
      <trkpt lat="49.82747" lon="2.53191">
        <ele>48.1</ele>
        <time>2022-12-07T14:09:32Z</time>
      </trkpt>
      <trkpt lat="49.82747" lon="2.53192">
        <ele>48.1</ele>
        <time>2022-12-07T14:09:33Z</time>
      </trkpt>
      <trkpt lat="49.82746" lon="2.53193">
        <ele>48.1</ele>
        <time>2022-12-07T14:09:34Z</time>
      </trkpt>
      <trkpt lat="49.82746" lon="2.53194">
        <ele>48.1</ele>
        <time>2022-12-07T14:09:35Z</time>
      </trkpt>
      <trkpt lat="49.82745" lon="2.53196">
        <ele>48.1</ele>
        <time>2022-12-07T14:09:36Z</time>
      </trkpt>
      <trkpt lat="49.82745" lon="2.53197">
        <ele>48.1</ele>
        <time>2022-12-07T14:09:37Z</time>
      </trkpt>
      <trkpt lat="49.82744" lon="2.53199">
        <ele>48.1</ele>
        <time>2022-12-07T14:09:38Z</time>
      </trkpt>
      <trkpt lat="49.82744" lon="2.532">
        <ele>48.1</ele>
        <time>2022-12-07T14:09:39Z</time>
      </trkpt>
      <trkpt lat="49.82744" lon="2.53201">
        <ele>48</ele>
        <time>2022-12-07T14:09:40Z</time>
      </trkpt>
      <trkpt lat="49.82743" lon="2.53203">
        <ele>48</ele>
        <time>2022-12-07T14:09:41Z</time>
      </trkpt>
      <trkpt lat="49.82743" lon="2.53205">
        <ele>48</ele>
        <time>2022-12-07T14:09:42Z</time>
      </trkpt>
      <trkpt lat="49.82742" lon="2.53206">
        <ele>48</ele>
        <time>2022-12-07T14:09:43Z</time>
      </trkpt>
      <trkpt lat="49.82742" lon="2.53207">
        <ele>48</ele>
        <time>2022-12-07T14:09:44Z</time>
      </trkpt>
      <trkpt lat="49.82742" lon="2.53209">
        <ele>48</ele>
        <time>2022-12-07T14:09:45Z</time>
      </trkpt>
      <trkpt lat="49.82741" lon="2.5321">
        <ele>48</ele>
        <time>2022-12-07T14:09:46Z</time>
      </trkpt>
      <trkpt lat="49.82741" lon="2.53212">
        <ele>47.9</ele>
        <time>2022-12-07T14:09:47Z</time>
      </trkpt>
      <trkpt lat="49.8274" lon="2.53213">
        <ele>47.9</ele>
        <time>2022-12-07T14:09:48Z</time>
      </trkpt>
      <trkpt lat="49.8274" lon="2.53215">
        <ele>47.9</ele>
        <time>2022-12-07T14:09:49Z</time>
      </trkpt>
      <trkpt lat="49.82739" lon="2.53216">
        <ele>47.9</ele>
        <time>2022-12-07T14:09:50Z</time>
      </trkpt>
      <trkpt lat="49.82739" lon="2.53217">
        <ele>47.9</ele>
        <time>2022-12-07T14:09:51Z</time>
      </trkpt>
      <trkpt lat="49.82738" lon="2.53219">
        <ele>47.9</ele>
        <time>2022-12-07T14:09:52Z</time>
      </trkpt>
      <trkpt lat="49.82738" lon="2.5322">
        <ele>47.9</ele>
        <time>2022-12-07T14:09:53Z</time>
      </trkpt>
      <trkpt lat="49.82737" lon="2.53222">
        <ele>47.9</ele>
        <time>2022-12-07T14:09:54Z</time>
      </trkpt>
      <trkpt lat="49.82737" lon="2.53223">
        <ele>47.8</ele>
        <time>2022-12-07T14:09:55Z</time>
      </trkpt>
      <trkpt lat="49.82737" lon="2.53224">
        <ele>47.8</ele>
        <time>2022-12-07T14:09:56Z</time>
      </trkpt>
      <trkpt lat="49.82737" lon="2.53226">
        <ele>47.8</ele>
        <time>2022-12-07T14:09:57Z</time>
      </trkpt>
      <trkpt lat="49.82736" lon="2.53227">
        <ele>47.8</ele>
        <time>2022-12-07T14:09:58Z</time>
      </trkpt>
      <trkpt lat="49.82735" lon="2.5323">
        <ele>47.8</ele>
        <time>2022-12-07T14:09:59Z</time>
      </trkpt>
      <trkpt lat="49.82735" lon="2.53231">
        <ele>47.8</ele>
        <time>2022-12-07T14:10:00Z</time>
      </trkpt>
      <trkpt lat="49.82735" lon="2.53233">
        <ele>47.8</ele>
        <time>2022-12-07T14:10:01Z</time>
      </trkpt>
      <trkpt lat="49.82734" lon="2.53234">
        <ele>47.7</ele>
        <time>2022-12-07T14:10:02Z</time>
      </trkpt>
      <trkpt lat="49.82734" lon="2.53235">
        <ele>47.7</ele>
        <time>2022-12-07T14:10:03Z</time>
      </trkpt>
      <trkpt lat="49.82734" lon="2.53237">
        <ele>47.7</ele>
        <time>2022-12-07T14:10:04Z</time>
      </trkpt>
      <trkpt lat="49.82733" lon="2.53238">
        <ele>47.7</ele>
        <time>2022-12-07T14:10:05Z</time>
      </trkpt>
      <trkpt lat="49.82733" lon="2.5324">
        <ele>47.7</ele>
        <time>2022-12-07T14:10:06Z</time>
      </trkpt>
      <trkpt lat="49.82732" lon="2.53241">
        <ele>47.7</ele>
        <time>2022-12-07T14:10:07Z</time>
      </trkpt>
      <trkpt lat="49.82732" lon="2.53242">
        <ele>47.7</ele>
        <time>2022-12-07T14:10:08Z</time>
      </trkpt>
      <trkpt lat="49.82732" lon="2.53244">
        <ele>47.7</ele>
        <time>2022-12-07T14:10:09Z</time>
      </trkpt>
      <trkpt lat="49.82731" lon="2.53245">
        <ele>47.6</ele>
        <time>2022-12-07T14:10:10Z</time>
      </trkpt>
      <trkpt lat="49.82731" lon="2.53247">
        <ele>47.6</ele>
        <time>2022-12-07T14:10:11Z</time>
      </trkpt>
      <trkpt lat="49.8273" lon="2.53249">
        <ele>47.6</ele>
        <time>2022-12-07T14:10:12Z</time>
      </trkpt>
      <trkpt lat="49.8273" lon="2.5325">
        <ele>47.6</ele>
        <time>2022-12-07T14:10:13Z</time>
      </trkpt>
      <trkpt lat="49.8273" lon="2.53252">
        <ele>47.6</ele>
        <time>2022-12-07T14:10:14Z</time>
      </trkpt>
      <trkpt lat="49.8273" lon="2.53253">
        <ele>47.6</ele>
        <time>2022-12-07T14:10:15Z</time>
      </trkpt>
      <trkpt lat="49.82729" lon="2.53255">
        <ele>47.6</ele>
        <time>2022-12-07T14:10:16Z</time>
      </trkpt>
      <trkpt lat="49.82729" lon="2.53256">
        <ele>47.6</ele>
        <time>2022-12-07T14:10:17Z</time>
      </trkpt>
      <trkpt lat="49.82729" lon="2.53258">
        <ele>47.5</ele>
        <time>2022-12-07T14:10:18Z</time>
      </trkpt>
      <trkpt lat="49.82728" lon="2.5326">
        <ele>47.5</ele>
        <time>2022-12-07T14:10:19Z</time>
      </trkpt>
      <trkpt lat="49.82728" lon="2.53261">
        <ele>47.5</ele>
        <time>2022-12-07T14:10:20Z</time>
      </trkpt>
      <trkpt lat="49.82727" lon="2.53262">
        <ele>47.5</ele>
        <time>2022-12-07T14:10:21Z</time>
      </trkpt>
      <trkpt lat="49.82727" lon="2.53264">
        <ele>47.5</ele>
        <time>2022-12-07T14:10:22Z</time>
      </trkpt>
      <trkpt lat="49.82727" lon="2.53266">
        <ele>47.5</ele>
        <time>2022-12-07T14:10:23Z</time>
      </trkpt>
      <trkpt lat="49.82726" lon="2.53267">
        <ele>47.5</ele>
        <time>2022-12-07T14:10:24Z</time>
      </trkpt>
      <trkpt lat="49.82726" lon="2.53269">
        <ele>47.5</ele>
        <time>2022-12-07T14:10:25Z</time>
      </trkpt>
      <trkpt lat="49.82725" lon="2.5327">
        <ele>47.4</ele>
        <time>2022-12-07T14:10:26Z</time>
      </trkpt>
      <trkpt lat="49.82725" lon="2.53272">
        <ele>47.4</ele>
        <time>2022-12-07T14:10:27Z</time>
      </trkpt>
      <trkpt lat="49.82725" lon="2.53273">
        <ele>47.4</ele>
        <time>2022-12-07T14:10:28Z</time>
      </trkpt>
      <trkpt lat="49.82724" lon="2.53275">
        <ele>47.4</ele>
        <time>2022-12-07T14:10:29Z</time>
      </trkpt>
      <trkpt lat="49.82724" lon="2.53276">
        <ele>47.4</ele>
        <time>2022-12-07T14:10:30Z</time>
      </trkpt>
      <trkpt lat="49.82723" lon="2.53277">
        <ele>47.4</ele>
        <time>2022-12-07T14:10:31Z</time>
      </trkpt>
      <trkpt lat="49.82723" lon="2.53279">
        <ele>47.4</ele>
        <time>2022-12-07T14:10:32Z</time>
      </trkpt>
      <trkpt lat="49.82722" lon="2.5328">
        <ele>47.4</ele>
        <time>2022-12-07T14:10:33Z</time>
      </trkpt>
      <trkpt lat="49.82722" lon="2.53282">
        <ele>47.4</ele>
        <time>2022-12-07T14:10:34Z</time>
      </trkpt>
      <trkpt lat="49.82721" lon="2.53283">
        <ele>47.4</ele>
        <time>2022-12-07T14:10:35Z</time>
      </trkpt>
      <trkpt lat="49.82721" lon="2.53284">
        <ele>47.4</ele>
        <time>2022-12-07T14:10:36Z</time>
      </trkpt>
      <trkpt lat="49.8272" lon="2.53286">
        <ele>47.4</ele>
        <time>2022-12-07T14:10:37Z</time>
      </trkpt>
      <trkpt lat="49.8272" lon="2.53287">
        <ele>47.4</ele>
        <time>2022-12-07T14:10:38Z</time>
      </trkpt>
      <trkpt lat="49.82719" lon="2.53288">
        <ele>47.4</ele>
        <time>2022-12-07T14:10:39Z</time>
      </trkpt>
      <trkpt lat="49.82719" lon="2.5329">
        <ele>47.4</ele>
        <time>2022-12-07T14:10:40Z</time>
      </trkpt>
      <trkpt lat="49.82718" lon="2.53291">
        <ele>47.3</ele>
        <time>2022-12-07T14:10:41Z</time>
      </trkpt>
      <trkpt lat="49.82718" lon="2.53293">
        <ele>47.3</ele>
        <time>2022-12-07T14:10:42Z</time>
      </trkpt>
      <trkpt lat="49.82717" lon="2.53294">
        <ele>47.3</ele>
        <time>2022-12-07T14:10:43Z</time>
      </trkpt>
      <trkpt lat="49.82716" lon="2.53296">
        <ele>47.3</ele>
        <time>2022-12-07T14:10:44Z</time>
      </trkpt>
      <trkpt lat="49.82716" lon="2.53297">
        <ele>47.3</ele>
        <time>2022-12-07T14:10:45Z</time>
      </trkpt>
      <trkpt lat="49.82715" lon="2.53298">
        <ele>47.3</ele>
        <time>2022-12-07T14:10:46Z</time>
      </trkpt>
      <trkpt lat="49.82715" lon="2.53299">
        <ele>47.3</ele>
        <time>2022-12-07T14:10:47Z</time>
      </trkpt>
      <trkpt lat="49.82714" lon="2.53301">
        <ele>47.3</ele>
        <time>2022-12-07T14:10:48Z</time>
      </trkpt>
      <trkpt lat="49.82713" lon="2.53302">
        <ele>47.3</ele>
        <time>2022-12-07T14:10:49Z</time>
      </trkpt>
      <trkpt lat="49.82713" lon="2.53303">
        <ele>47.3</ele>
        <time>2022-12-07T14:10:50Z</time>
      </trkpt>
      <trkpt lat="49.82712" lon="2.53305">
        <ele>47.3</ele>
        <time>2022-12-07T14:10:51Z</time>
      </trkpt>
      <trkpt lat="49.82712" lon="2.53306">
        <ele>47.3</ele>
        <time>2022-12-07T14:10:52Z</time>
      </trkpt>
      <trkpt lat="49.82711" lon="2.53308">
        <ele>47.3</ele>
        <time>2022-12-07T14:10:53Z</time>
      </trkpt>
      <trkpt lat="49.8271" lon="2.53309">
        <ele>47.3</ele>
        <time>2022-12-07T14:10:54Z</time>
      </trkpt>
      <trkpt lat="49.8271" lon="2.53311">
        <ele>47.3</ele>
        <time>2022-12-07T14:10:55Z</time>
      </trkpt>
      <trkpt lat="49.8271" lon="2.53312">
        <ele>47.3</ele>
        <time>2022-12-07T14:10:56Z</time>
      </trkpt>
      <trkpt lat="49.82709" lon="2.53313">
        <ele>47.3</ele>
        <time>2022-12-07T14:10:57Z</time>
      </trkpt>
      <trkpt lat="49.82709" lon="2.53315">
        <ele>47.3</ele>
        <time>2022-12-07T14:10:58Z</time>
      </trkpt>
      <trkpt lat="49.82709" lon="2.53316">
        <ele>47.3</ele>
        <time>2022-12-07T14:10:59Z</time>
      </trkpt>
      <trkpt lat="49.82708" lon="2.53318">
        <ele>47.3</ele>
        <time>2022-12-07T14:11:00Z</time>
      </trkpt>
      <trkpt lat="49.82708" lon="2.53319">
        <ele>47.4</ele>
        <time>2022-12-07T14:11:01Z</time>
      </trkpt>
      <trkpt lat="49.82707" lon="2.5332">
        <ele>47.4</ele>
        <time>2022-12-07T14:11:02Z</time>
      </trkpt>
      <trkpt lat="49.82707" lon="2.53321">
        <ele>47.4</ele>
        <time>2022-12-07T14:11:03Z</time>
      </trkpt>
      <trkpt lat="49.82706" lon="2.53323">
        <ele>47.4</ele>
        <time>2022-12-07T14:11:04Z</time>
      </trkpt>
      <trkpt lat="49.82705" lon="2.53324">
        <ele>47.4</ele>
        <time>2022-12-07T14:11:05Z</time>
      </trkpt>
      <trkpt lat="49.82705" lon="2.53326">
        <ele>47.4</ele>
        <time>2022-12-07T14:11:06Z</time>
      </trkpt>
      <trkpt lat="49.82704" lon="2.53327">
        <ele>47.4</ele>
        <time>2022-12-07T14:11:07Z</time>
      </trkpt>
      <trkpt lat="49.82704" lon="2.53329">
        <ele>47.4</ele>
        <time>2022-12-07T14:11:08Z</time>
      </trkpt>
      <trkpt lat="49.82703" lon="2.5333">
        <ele>47.4</ele>
        <time>2022-12-07T14:11:09Z</time>
      </trkpt>
      <trkpt lat="49.82702" lon="2.53332">
        <ele>47.4</ele>
        <time>2022-12-07T14:11:10Z</time>
      </trkpt>
      <trkpt lat="49.82702" lon="2.53333">
        <ele>47.4</ele>
        <time>2022-12-07T14:11:11Z</time>
      </trkpt>
      <trkpt lat="49.82701" lon="2.53335">
        <ele>47.5</ele>
        <time>2022-12-07T14:11:12Z</time>
      </trkpt>
      <trkpt lat="49.827" lon="2.53336">
        <ele>47.5</ele>
        <time>2022-12-07T14:11:13Z</time>
      </trkpt>
      <trkpt lat="49.827" lon="2.53338">
        <ele>47.5</ele>
        <time>2022-12-07T14:11:14Z</time>
      </trkpt>
      <trkpt lat="49.82699" lon="2.5334">
        <ele>47.5</ele>
        <time>2022-12-07T14:11:15Z</time>
      </trkpt>
      <trkpt lat="49.82698" lon="2.53343">
        <ele>47.5</ele>
        <time>2022-12-07T14:11:16Z</time>
      </trkpt>
      <trkpt lat="49.82697" lon="2.53344">
        <ele>47.6</ele>
        <time>2022-12-07T14:11:17Z</time>
      </trkpt>
      <trkpt lat="49.82697" lon="2.53345">
        <ele>47.6</ele>
        <time>2022-12-07T14:11:18Z</time>
      </trkpt>
      <trkpt lat="49.82696" lon="2.53348">
        <ele>47.6</ele>
        <time>2022-12-07T14:11:19Z</time>
      </trkpt>
      <trkpt lat="49.82695" lon="2.5335">
        <ele>47.6</ele>
        <time>2022-12-07T14:11:20Z</time>
      </trkpt>
      <trkpt lat="49.82694" lon="2.53353">
        <ele>47.6</ele>
        <time>2022-12-07T14:11:21Z</time>
      </trkpt>
      <trkpt lat="49.82694" lon="2.53354">
        <ele>47.7</ele>
        <time>2022-12-07T14:11:22Z</time>
      </trkpt>
      <trkpt lat="49.82693" lon="2.53355">
        <ele>47.7</ele>
        <time>2022-12-07T14:11:23Z</time>
      </trkpt>
      <trkpt lat="49.82692" lon="2.53358">
        <ele>47.7</ele>
        <time>2022-12-07T14:11:24Z</time>
      </trkpt>
      <trkpt lat="49.82692" lon="2.53359">
        <ele>47.7</ele>
        <time>2022-12-07T14:11:25Z</time>
      </trkpt>
      <trkpt lat="49.82691" lon="2.53362">
        <ele>47.7</ele>
        <time>2022-12-07T14:11:26Z</time>
      </trkpt>
      <trkpt lat="49.8269" lon="2.53363">
        <ele>47.8</ele>
        <time>2022-12-07T14:11:27Z</time>
      </trkpt>
      <trkpt lat="49.8269" lon="2.53365">
        <ele>47.8</ele>
        <time>2022-12-07T14:11:28Z</time>
      </trkpt>
      <trkpt lat="49.82689" lon="2.53367">
        <ele>47.8</ele>
        <time>2022-12-07T14:11:29Z</time>
      </trkpt>
      <trkpt lat="49.82689" lon="2.53369">
        <ele>47.8</ele>
        <time>2022-12-07T14:11:30Z</time>
      </trkpt>
      <trkpt lat="49.82688" lon="2.5337">
        <ele>47.8</ele>
        <time>2022-12-07T14:11:31Z</time>
      </trkpt>
      <trkpt lat="49.82688" lon="2.53371">
        <ele>47.8</ele>
        <time>2022-12-07T14:11:32Z</time>
      </trkpt>
      <trkpt lat="49.82687" lon="2.53372">
        <ele>47.8</ele>
        <time>2022-12-07T14:11:33Z</time>
      </trkpt>
      <trkpt lat="49.82687" lon="2.53374">
        <ele>47.9</ele>
        <time>2022-12-07T14:11:34Z</time>
      </trkpt>
      <trkpt lat="49.82686" lon="2.53375">
        <ele>47.9</ele>
        <time>2022-12-07T14:11:35Z</time>
      </trkpt>
      <trkpt lat="49.82686" lon="2.53377">
        <ele>47.9</ele>
        <time>2022-12-07T14:11:36Z</time>
      </trkpt>
      <trkpt lat="49.82685" lon="2.53378">
        <ele>47.9</ele>
        <time>2022-12-07T14:11:37Z</time>
      </trkpt>
      <trkpt lat="49.82685" lon="2.5338">
        <ele>47.9</ele>
        <time>2022-12-07T14:11:38Z</time>
      </trkpt>
      <trkpt lat="49.82684" lon="2.53381">
        <ele>47.9</ele>
        <time>2022-12-07T14:11:39Z</time>
      </trkpt>
      <trkpt lat="49.82684" lon="2.53383">
        <ele>47.9</ele>
        <time>2022-12-07T14:11:40Z</time>
      </trkpt>
      <trkpt lat="49.82683" lon="2.53384">
        <ele>47.9</ele>
        <time>2022-12-07T14:11:41Z</time>
      </trkpt>
      <trkpt lat="49.82683" lon="2.53386">
        <ele>48</ele>
        <time>2022-12-07T14:11:42Z</time>
      </trkpt>
      <trkpt lat="49.82682" lon="2.53387">
        <ele>48</ele>
        <time>2022-12-07T14:11:43Z</time>
      </trkpt>
      <trkpt lat="49.82681" lon="2.53389">
        <ele>48</ele>
        <time>2022-12-07T14:11:44Z</time>
      </trkpt>
      <trkpt lat="49.82681" lon="2.5339">
        <ele>48</ele>
        <time>2022-12-07T14:11:45Z</time>
      </trkpt>
      <trkpt lat="49.8268" lon="2.53392">
        <ele>48</ele>
        <time>2022-12-07T14:11:46Z</time>
      </trkpt>
      <trkpt lat="49.82679" lon="2.53393">
        <ele>48</ele>
        <time>2022-12-07T14:11:47Z</time>
      </trkpt>
      <trkpt lat="49.82679" lon="2.53394">
        <ele>48</ele>
        <time>2022-12-07T14:11:48Z</time>
      </trkpt>
      <trkpt lat="49.82678" lon="2.53396">
        <ele>48</ele>
        <time>2022-12-07T14:11:49Z</time>
      </trkpt>
      <trkpt lat="49.82678" lon="2.53397">
        <ele>48</ele>
        <time>2022-12-07T14:11:50Z</time>
      </trkpt>
      <trkpt lat="49.82677" lon="2.53399">
        <ele>48.1</ele>
        <time>2022-12-07T14:11:51Z</time>
      </trkpt>
      <trkpt lat="49.82677" lon="2.534">
        <ele>48.1</ele>
        <time>2022-12-07T14:11:52Z</time>
      </trkpt>
      <trkpt lat="49.82676" lon="2.53401">
        <ele>48.1</ele>
        <time>2022-12-07T14:11:53Z</time>
      </trkpt>
      <trkpt lat="49.82676" lon="2.53403">
        <ele>48.1</ele>
        <time>2022-12-07T14:11:54Z</time>
      </trkpt>
      <trkpt lat="49.82675" lon="2.53404">
        <ele>48.1</ele>
        <time>2022-12-07T14:11:55Z</time>
      </trkpt>
      <trkpt lat="49.82674" lon="2.53405">
        <ele>48.1</ele>
        <time>2022-12-07T14:11:56Z</time>
      </trkpt>
      <trkpt lat="49.82673" lon="2.53406">
        <ele>48.1</ele>
        <time>2022-12-07T14:11:57Z</time>
      </trkpt>
      <trkpt lat="49.82673" lon="2.53406">
        <ele>48.1</ele>
        <time>2022-12-07T14:11:58Z</time>
      </trkpt>
      <trkpt lat="49.82672" lon="2.53407">
        <ele>48.1</ele>
        <time>2022-12-07T14:11:59Z</time>
      </trkpt>
      <trkpt lat="49.82671" lon="2.53408">
        <ele>48.1</ele>
        <time>2022-12-07T14:12:00Z</time>
      </trkpt>
      <trkpt lat="49.82671" lon="2.53409">
        <ele>48.1</ele>
        <time>2022-12-07T14:12:01Z</time>
      </trkpt>
      <trkpt lat="49.8267" lon="2.5341">
        <ele>48.1</ele>
        <time>2022-12-07T14:12:02Z</time>
      </trkpt>
      <trkpt lat="49.82669" lon="2.5341">
        <ele>48.1</ele>
        <time>2022-12-07T14:12:03Z</time>
      </trkpt>
      <trkpt lat="49.82669" lon="2.5341">
        <ele>48.1</ele>
        <time>2022-12-07T14:12:04Z</time>
      </trkpt>
      <trkpt lat="49.82668" lon="2.53411">
        <ele>48.1</ele>
        <time>2022-12-07T14:12:05Z</time>
      </trkpt>
      <trkpt lat="49.82668" lon="2.53411">
        <ele>48.1</ele>
        <time>2022-12-07T14:12:06Z</time>
      </trkpt>
      <trkpt lat="49.82667" lon="2.53411">
        <ele>48.2</ele>
        <time>2022-12-07T14:12:07Z</time>
      </trkpt>
      <trkpt lat="49.82666" lon="2.53412">
        <ele>48.2</ele>
        <time>2022-12-07T14:12:08Z</time>
      </trkpt>
      <trkpt lat="49.82666" lon="2.53412">
        <ele>48.2</ele>
        <time>2022-12-07T14:12:09Z</time>
      </trkpt>
      <trkpt lat="49.82666" lon="2.53413">
        <ele>48.2</ele>
        <time>2022-12-07T14:12:10Z</time>
      </trkpt>
      <trkpt lat="49.82665" lon="2.53413">
        <ele>48.2</ele>
        <time>2022-12-07T14:12:11Z</time>
      </trkpt>
      <trkpt lat="49.82664" lon="2.53414">
        <ele>48.2</ele>
        <time>2022-12-07T14:12:12Z</time>
      </trkpt>
      <trkpt lat="49.82664" lon="2.53415">
        <ele>48.2</ele>
        <time>2022-12-07T14:12:13Z</time>
      </trkpt>
      <trkpt lat="49.82663" lon="2.53416">
        <ele>48.2</ele>
        <time>2022-12-07T14:12:14Z</time>
      </trkpt>
      <trkpt lat="49.82663" lon="2.53417">
        <ele>48.2</ele>
        <time>2022-12-07T14:12:15Z</time>
      </trkpt>
      <trkpt lat="49.82662" lon="2.53418">
        <ele>48.2</ele>
        <time>2022-12-07T14:12:16Z</time>
      </trkpt>
      <trkpt lat="49.82661" lon="2.53419">
        <ele>48.2</ele>
        <time>2022-12-07T14:12:17Z</time>
      </trkpt>
      <trkpt lat="49.8266" lon="2.5342">
        <ele>48.2</ele>
        <time>2022-12-07T14:12:18Z</time>
      </trkpt>
      <trkpt lat="49.82659" lon="2.53422">
        <ele>48.2</ele>
        <time>2022-12-07T14:12:19Z</time>
      </trkpt>
      <trkpt lat="49.82659" lon="2.53423">
        <ele>48.2</ele>
        <time>2022-12-07T14:12:20Z</time>
      </trkpt>
      <trkpt lat="49.82658" lon="2.53424">
        <ele>48.3</ele>
        <time>2022-12-07T14:12:21Z</time>
      </trkpt>
      <trkpt lat="49.82658" lon="2.53426">
        <ele>48.3</ele>
        <time>2022-12-07T14:12:22Z</time>
      </trkpt>
      <trkpt lat="49.82657" lon="2.53427">
        <ele>48.3</ele>
        <time>2022-12-07T14:12:23Z</time>
      </trkpt>
      <trkpt lat="49.82656" lon="2.53428">
        <ele>48.3</ele>
        <time>2022-12-07T14:12:24Z</time>
      </trkpt>
      <trkpt lat="49.82655" lon="2.5343">
        <ele>48.3</ele>
        <time>2022-12-07T14:12:25Z</time>
      </trkpt>
      <trkpt lat="49.82654" lon="2.53432">
        <ele>48.3</ele>
        <time>2022-12-07T14:12:26Z</time>
      </trkpt>
      <trkpt lat="49.82653" lon="2.53433">
        <ele>48.3</ele>
        <time>2022-12-07T14:12:27Z</time>
      </trkpt>
      <trkpt lat="49.82653" lon="2.53434">
        <ele>48.3</ele>
        <time>2022-12-07T14:12:28Z</time>
      </trkpt>
      <trkpt lat="49.82652" lon="2.53435">
        <ele>48.4</ele>
        <time>2022-12-07T14:12:29Z</time>
      </trkpt>
      <trkpt lat="49.82651" lon="2.53436">
        <ele>48.4</ele>
        <time>2022-12-07T14:12:30Z</time>
      </trkpt>
      <trkpt lat="49.8265" lon="2.53437">
        <ele>48.4</ele>
        <time>2022-12-07T14:12:31Z</time>
      </trkpt>
      <trkpt lat="49.82649" lon="2.53439">
        <ele>48.4</ele>
        <time>2022-12-07T14:12:32Z</time>
      </trkpt>
      <trkpt lat="49.82648" lon="2.5344">
        <ele>48.4</ele>
        <time>2022-12-07T14:12:33Z</time>
      </trkpt>
      <trkpt lat="49.82647" lon="2.53441">
        <ele>48.4</ele>
        <time>2022-12-07T14:12:34Z</time>
      </trkpt>
      <trkpt lat="49.82646" lon="2.53443">
        <ele>48.5</ele>
        <time>2022-12-07T14:12:35Z</time>
      </trkpt>
      <trkpt lat="49.82645" lon="2.53444">
        <ele>48.5</ele>
        <time>2022-12-07T14:12:36Z</time>
      </trkpt>
      <trkpt lat="49.82645" lon="2.53445">
        <ele>48.5</ele>
        <time>2022-12-07T14:12:37Z</time>
      </trkpt>
      <trkpt lat="49.82643" lon="2.53447">
        <ele>48.6</ele>
        <time>2022-12-07T14:12:38Z</time>
      </trkpt>
      <trkpt lat="49.82642" lon="2.53448">
        <ele>48.6</ele>
        <time>2022-12-07T14:12:39Z</time>
      </trkpt>
      <trkpt lat="49.82642" lon="2.53449">
        <ele>48.6</ele>
        <time>2022-12-07T14:12:40Z</time>
      </trkpt>
      <trkpt lat="49.8264" lon="2.53451">
        <ele>48.6</ele>
        <time>2022-12-07T14:12:41Z</time>
      </trkpt>
      <trkpt lat="49.8264" lon="2.53452">
        <ele>48.6</ele>
        <time>2022-12-07T14:12:42Z</time>
      </trkpt>
      <trkpt lat="49.82639" lon="2.53453">
        <ele>48.7</ele>
        <time>2022-12-07T14:12:43Z</time>
      </trkpt>
      <trkpt lat="49.82637" lon="2.53455">
        <ele>48.7</ele>
        <time>2022-12-07T14:12:44Z</time>
      </trkpt>
      <trkpt lat="49.82637" lon="2.53456">
        <ele>48.7</ele>
        <time>2022-12-07T14:12:45Z</time>
      </trkpt>
      <trkpt lat="49.82636" lon="2.53457">
        <ele>48.7</ele>
        <time>2022-12-07T14:12:46Z</time>
      </trkpt>
      <trkpt lat="49.82634" lon="2.53458">
        <ele>48.8</ele>
        <time>2022-12-07T14:12:47Z</time>
      </trkpt>
      <trkpt lat="49.82633" lon="2.53459">
        <ele>48.8</ele>
        <time>2022-12-07T14:12:48Z</time>
      </trkpt>
      <trkpt lat="49.82633" lon="2.53459">
        <ele>48.8</ele>
        <time>2022-12-07T14:12:49Z</time>
      </trkpt>
      <trkpt lat="49.82632" lon="2.5346">
        <ele>48.8</ele>
        <time>2022-12-07T14:12:50Z</time>
      </trkpt>
      <trkpt lat="49.82631" lon="2.53461">
        <ele>48.8</ele>
        <time>2022-12-07T14:12:51Z</time>
      </trkpt>
      <trkpt lat="49.8263" lon="2.53461">
        <ele>48.8</ele>
        <time>2022-12-07T14:12:52Z</time>
      </trkpt>
      <trkpt lat="49.82629" lon="2.53462">
        <ele>48.8</ele>
        <time>2022-12-07T14:12:53Z</time>
      </trkpt>
      <trkpt lat="49.82628" lon="2.53463">
        <ele>48.8</ele>
        <time>2022-12-07T14:12:54Z</time>
      </trkpt>
      <trkpt lat="49.82627" lon="2.53464">
        <ele>48.9</ele>
        <time>2022-12-07T14:12:55Z</time>
      </trkpt>
      <trkpt lat="49.82626" lon="2.53465">
        <ele>48.9</ele>
        <time>2022-12-07T14:12:56Z</time>
      </trkpt>
      <trkpt lat="49.82626" lon="2.53466">
        <ele>48.9</ele>
        <time>2022-12-07T14:12:57Z</time>
      </trkpt>
      <trkpt lat="49.82625" lon="2.53467">
        <ele>48.9</ele>
        <time>2022-12-07T14:12:58Z</time>
      </trkpt>
      <trkpt lat="49.82624" lon="2.53468">
        <ele>48.9</ele>
        <time>2022-12-07T14:12:59Z</time>
      </trkpt>
      <trkpt lat="49.82623" lon="2.53469">
        <ele>48.9</ele>
        <time>2022-12-07T14:13:00Z</time>
      </trkpt>
      <trkpt lat="49.82622" lon="2.5347">
        <ele>48.9</ele>
        <time>2022-12-07T14:13:01Z</time>
      </trkpt>
      <trkpt lat="49.82621" lon="2.53471">
        <ele>48.9</ele>
        <time>2022-12-07T14:13:02Z</time>
      </trkpt>
      <trkpt lat="49.8262" lon="2.53472">
        <ele>49</ele>
        <time>2022-12-07T14:13:03Z</time>
      </trkpt>
      <trkpt lat="49.82619" lon="2.53473">
        <ele>49</ele>
        <time>2022-12-07T14:13:04Z</time>
      </trkpt>
      <trkpt lat="49.82618" lon="2.53474">
        <ele>49</ele>
        <time>2022-12-07T14:13:05Z</time>
      </trkpt>
      <trkpt lat="49.82617" lon="2.53475">
        <ele>49</ele>
        <time>2022-12-07T14:13:06Z</time>
      </trkpt>
      <trkpt lat="49.82616" lon="2.53476">
        <ele>49</ele>
        <time>2022-12-07T14:13:07Z</time>
      </trkpt>
      <trkpt lat="49.82616" lon="2.53477">
        <ele>49</ele>
        <time>2022-12-07T14:13:08Z</time>
      </trkpt>
      <trkpt lat="49.82615" lon="2.53477">
        <ele>49</ele>
        <time>2022-12-07T14:13:09Z</time>
      </trkpt>
      <trkpt lat="49.82614" lon="2.53478">
        <ele>49</ele>
        <time>2022-12-07T14:13:10Z</time>
      </trkpt>
      <trkpt lat="49.82613" lon="2.53478">
        <ele>49</ele>
        <time>2022-12-07T14:13:11Z</time>
      </trkpt>
      <trkpt lat="49.82612" lon="2.53479">
        <ele>49</ele>
        <time>2022-12-07T14:13:12Z</time>
      </trkpt>
      <trkpt lat="49.82611" lon="2.53479">
        <ele>49</ele>
        <time>2022-12-07T14:13:13Z</time>
      </trkpt>
      <trkpt lat="49.82611" lon="2.5348">
        <ele>49</ele>
        <time>2022-12-07T14:13:14Z</time>
      </trkpt>
      <trkpt lat="49.8261" lon="2.5348">
        <ele>49.1</ele>
        <time>2022-12-07T14:13:15Z</time>
      </trkpt>
      <trkpt lat="49.82609" lon="2.53481">
        <ele>49.1</ele>
        <time>2022-12-07T14:13:16Z</time>
      </trkpt>
      <trkpt lat="49.82608" lon="2.53482">
        <ele>49.1</ele>
        <time>2022-12-07T14:13:17Z</time>
      </trkpt>
      <trkpt lat="49.82608" lon="2.53483">
        <ele>49.1</ele>
        <time>2022-12-07T14:13:18Z</time>
      </trkpt>
      <trkpt lat="49.82607" lon="2.53483">
        <ele>49.1</ele>
        <time>2022-12-07T14:13:19Z</time>
      </trkpt>
      <trkpt lat="49.82606" lon="2.53484">
        <ele>49.1</ele>
        <time>2022-12-07T14:13:20Z</time>
      </trkpt>
      <trkpt lat="49.82605" lon="2.53484">
        <ele>49.1</ele>
        <time>2022-12-07T14:13:21Z</time>
      </trkpt>
      <trkpt lat="49.82604" lon="2.53485">
        <ele>49.1</ele>
        <time>2022-12-07T14:13:22Z</time>
      </trkpt>
      <trkpt lat="49.82604" lon="2.53486">
        <ele>49.1</ele>
        <time>2022-12-07T14:13:23Z</time>
      </trkpt>
      <trkpt lat="49.82603" lon="2.53486">
        <ele>49.1</ele>
        <time>2022-12-07T14:13:24Z</time>
      </trkpt>
      <trkpt lat="49.82602" lon="2.53487">
        <ele>49.1</ele>
        <time>2022-12-07T14:13:25Z</time>
      </trkpt>
      <trkpt lat="49.82601" lon="2.53487">
        <ele>49.1</ele>
        <time>2022-12-07T14:13:26Z</time>
      </trkpt>
      <trkpt lat="49.82601" lon="2.53488">
        <ele>49.1</ele>
        <time>2022-12-07T14:13:27Z</time>
      </trkpt>
      <trkpt lat="49.826" lon="2.53488">
        <ele>49.1</ele>
        <time>2022-12-07T14:13:28Z</time>
      </trkpt>
      <trkpt lat="49.826" lon="2.53488">
        <ele>49.1</ele>
        <time>2022-12-07T14:13:29Z</time>
      </trkpt>
      <trkpt lat="49.82599" lon="2.53488">
        <ele>49.1</ele>
        <time>2022-12-07T14:13:30Z</time>
      </trkpt>
      <trkpt lat="49.82598" lon="2.53488">
        <ele>49.1</ele>
        <time>2022-12-07T14:13:31Z</time>
      </trkpt>
      <trkpt lat="49.82597" lon="2.53489">
        <ele>49.1</ele>
        <time>2022-12-07T14:13:32Z</time>
      </trkpt>
      <trkpt lat="49.82596" lon="2.53489">
        <ele>49.1</ele>
        <time>2022-12-07T14:13:33Z</time>
      </trkpt>
      <trkpt lat="49.82595" lon="2.5349">
        <ele>49.1</ele>
        <time>2022-12-07T14:13:34Z</time>
      </trkpt>
      <trkpt lat="49.82594" lon="2.5349">
        <ele>49.1</ele>
        <time>2022-12-07T14:13:35Z</time>
      </trkpt>
      <trkpt lat="49.82594" lon="2.53491">
        <ele>49.1</ele>
        <time>2022-12-07T14:13:36Z</time>
      </trkpt>
      <trkpt lat="49.82593" lon="2.53491">
        <ele>49.1</ele>
        <time>2022-12-07T14:13:37Z</time>
      </trkpt>
      <trkpt lat="49.82593" lon="2.53491">
        <ele>49.1</ele>
        <time>2022-12-07T14:13:38Z</time>
      </trkpt>
      <trkpt lat="49.82592" lon="2.53492">
        <ele>49.1</ele>
        <time>2022-12-07T14:13:39Z</time>
      </trkpt>
      <trkpt lat="49.82591" lon="2.53492">
        <ele>49.1</ele>
        <time>2022-12-07T14:13:40Z</time>
      </trkpt>
      <trkpt lat="49.82591" lon="2.53492">
        <ele>49.1</ele>
        <time>2022-12-07T14:13:41Z</time>
      </trkpt>
      <trkpt lat="49.8259" lon="2.53493">
        <ele>49</ele>
        <time>2022-12-07T14:13:42Z</time>
      </trkpt>
      <trkpt lat="49.82589" lon="2.53493">
        <ele>49</ele>
        <time>2022-12-07T14:13:43Z</time>
      </trkpt>
      <trkpt lat="49.82589" lon="2.53494">
        <ele>49</ele>
        <time>2022-12-07T14:13:44Z</time>
      </trkpt>
      <trkpt lat="49.82588" lon="2.53494">
        <ele>49</ele>
        <time>2022-12-07T14:13:45Z</time>
      </trkpt>
      <trkpt lat="49.82588" lon="2.53495">
        <ele>49</ele>
        <time>2022-12-07T14:13:46Z</time>
      </trkpt>
      <trkpt lat="49.82587" lon="2.53495">
        <ele>49</ele>
        <time>2022-12-07T14:13:47Z</time>
      </trkpt>
      <trkpt lat="49.82586" lon="2.53496">
        <ele>49</ele>
        <time>2022-12-07T14:13:48Z</time>
      </trkpt>
      <trkpt lat="49.82585" lon="2.53497">
        <ele>49</ele>
        <time>2022-12-07T14:13:49Z</time>
      </trkpt>
      <trkpt lat="49.82584" lon="2.53497">
        <ele>49</ele>
        <time>2022-12-07T14:13:50Z</time>
      </trkpt>
      <trkpt lat="49.82583" lon="2.53498">
        <ele>49</ele>
        <time>2022-12-07T14:13:51Z</time>
      </trkpt>
      <trkpt lat="49.82582" lon="2.53499">
        <ele>48.9</ele>
        <time>2022-12-07T14:13:52Z</time>
      </trkpt>
      <trkpt lat="49.82581" lon="2.53499">
        <ele>48.9</ele>
        <time>2022-12-07T14:13:53Z</time>
      </trkpt>
      <trkpt lat="49.8258" lon="2.535">
        <ele>48.9</ele>
        <time>2022-12-07T14:13:54Z</time>
      </trkpt>
      <trkpt lat="49.82579" lon="2.535">
        <ele>48.9</ele>
        <time>2022-12-07T14:13:55Z</time>
      </trkpt>
      <trkpt lat="49.82578" lon="2.53501">
        <ele>48.9</ele>
        <time>2022-12-07T14:13:56Z</time>
      </trkpt>
      <trkpt lat="49.82577" lon="2.53502">
        <ele>48.8</ele>
        <time>2022-12-07T14:13:57Z</time>
      </trkpt>
      <trkpt lat="49.82576" lon="2.53502">
        <ele>48.8</ele>
        <time>2022-12-07T14:13:58Z</time>
      </trkpt>
      <trkpt lat="49.82575" lon="2.53503">
        <ele>48.8</ele>
        <time>2022-12-07T14:13:59Z</time>
      </trkpt>
      <trkpt lat="49.82574" lon="2.53503">
        <ele>48.8</ele>
        <time>2022-12-07T14:14:00Z</time>
      </trkpt>
      <trkpt lat="49.82573" lon="2.53503">
        <ele>48.8</ele>
        <time>2022-12-07T14:14:01Z</time>
      </trkpt>
      <trkpt lat="49.82573" lon="2.53504">
        <ele>48.7</ele>
        <time>2022-12-07T14:14:02Z</time>
      </trkpt>
      <trkpt lat="49.82572" lon="2.53504">
        <ele>48.7</ele>
        <time>2022-12-07T14:14:03Z</time>
      </trkpt>
      <trkpt lat="49.82572" lon="2.53504">
        <ele>48.7</ele>
        <time>2022-12-07T14:14:04Z</time>
      </trkpt>
      <trkpt lat="49.82572" lon="2.53504">
        <ele>48.7</ele>
        <time>2022-12-07T14:14:05Z</time>
      </trkpt>
      <trkpt lat="49.82572" lon="2.53504">
        <ele>48.7</ele>
        <time>2022-12-07T14:14:06Z</time>
      </trkpt>
      <trkpt lat="49.82572" lon="2.53504">
        <ele>48.7</ele>
        <time>2022-12-07T14:14:07Z</time>
      </trkpt>
      <trkpt lat="49.82572" lon="2.53504">
        <ele>48.7</ele>
        <time>2022-12-07T14:14:08Z</time>
      </trkpt>
      <trkpt lat="49.82572" lon="2.53504">
        <ele>48.7</ele>
        <time>2022-12-07T14:14:09Z</time>
      </trkpt>
      <trkpt lat="49.82572" lon="2.53504">
        <ele>48.7</ele>
        <time>2022-12-07T14:14:10Z</time>
      </trkpt>
      <trkpt lat="49.82572" lon="2.53504">
        <ele>48.7</ele>
        <time>2022-12-07T14:14:11Z</time>
      </trkpt>
      <trkpt lat="49.82572" lon="2.53504">
        <ele>48.7</ele>
        <time>2022-12-07T14:14:12Z</time>
      </trkpt>
      <trkpt lat="49.82572" lon="2.53504">
        <ele>48.7</ele>
        <time>2022-12-07T14:14:13Z</time>
      </trkpt>
      <trkpt lat="49.82572" lon="2.53504">
        <ele>48.7</ele>
        <time>2022-12-07T14:14:14Z</time>
      </trkpt>
      <trkpt lat="49.82572" lon="2.53504">
        <ele>48.7</ele>
        <time>2022-12-07T14:14:15Z</time>
      </trkpt>
      <trkpt lat="49.82572" lon="2.53504">
        <ele>48.7</ele>
        <time>2022-12-07T14:14:16Z</time>
      </trkpt>
      <trkpt lat="49.82572" lon="2.53504">
        <ele>48.7</ele>
        <time>2022-12-07T14:14:17Z</time>
      </trkpt>
      <trkpt lat="49.82572" lon="2.53504">
        <ele>48.7</ele>
        <time>2022-12-07T14:14:18Z</time>
      </trkpt>
      <trkpt lat="49.82572" lon="2.53504">
        <ele>48.7</ele>
        <time>2022-12-07T14:14:19Z</time>
      </trkpt>
      <trkpt lat="49.82572" lon="2.53504">
        <ele>48.7</ele>
        <time>2022-12-07T14:14:20Z</time>
      </trkpt>
      <trkpt lat="49.82572" lon="2.53504">
        <ele>48.7</ele>
        <time>2022-12-07T14:14:21Z</time>
      </trkpt>
      <trkpt lat="49.82572" lon="2.53504">
        <ele>48.7</ele>
        <time>2022-12-07T14:14:22Z</time>
      </trkpt>
      <trkpt lat="49.82572" lon="2.53504">
        <ele>48.7</ele>
        <time>2022-12-07T14:14:23Z</time>
      </trkpt>
      <trkpt lat="49.82572" lon="2.53504">
        <ele>48.7</ele>
        <time>2022-12-07T14:14:24Z</time>
      </trkpt>
      <trkpt lat="49.82572" lon="2.53504">
        <ele>48.7</ele>
        <time>2022-12-07T14:14:25Z</time>
      </trkpt>
      <trkpt lat="49.82572" lon="2.53504">
        <ele>48.7</ele>
        <time>2022-12-07T14:14:26Z</time>
      </trkpt>
      <trkpt lat="49.82573" lon="2.53504">
        <ele>48.7</ele>
        <time>2022-12-07T14:14:27Z</time>
      </trkpt>
      <trkpt lat="49.82573" lon="2.53504">
        <ele>48.7</ele>
        <time>2022-12-07T14:14:28Z</time>
      </trkpt>
      <trkpt lat="49.82572" lon="2.53504">
        <ele>48.7</ele>
        <time>2022-12-07T14:14:29Z</time>
      </trkpt>
      <trkpt lat="49.82572" lon="2.53503">
        <ele>48.7</ele>
        <time>2022-12-07T14:14:30Z</time>
      </trkpt>
      <trkpt lat="49.82572" lon="2.53503">
        <ele>48.7</ele>
        <time>2022-12-07T14:14:31Z</time>
      </trkpt>
      <trkpt lat="49.82572" lon="2.53503">
        <ele>48.7</ele>
        <time>2022-12-07T14:14:32Z</time>
      </trkpt>
      <trkpt lat="49.82572" lon="2.53503">
        <ele>48.7</ele>
        <time>2022-12-07T14:14:33Z</time>
      </trkpt>
      <trkpt lat="49.82572" lon="2.53503">
        <ele>48.7</ele>
        <time>2022-12-07T14:14:34Z</time>
      </trkpt>
      <trkpt lat="49.82572" lon="2.53503">
        <ele>48.7</ele>
        <time>2022-12-07T14:14:35Z</time>
      </trkpt>
      <trkpt lat="49.82572" lon="2.53503">
        <ele>48.7</ele>
        <time>2022-12-07T14:14:36Z</time>
      </trkpt>
      <trkpt lat="49.82572" lon="2.53503">
        <ele>48.7</ele>
        <time>2022-12-07T14:14:37Z</time>
      </trkpt>
      <trkpt lat="49.82572" lon="2.53503">
        <ele>48.7</ele>
        <time>2022-12-07T14:14:38Z</time>
      </trkpt>
      <trkpt lat="49.82572" lon="2.53503">
        <ele>48.7</ele>
        <time>2022-12-07T14:14:39Z</time>
      </trkpt>
      <trkpt lat="49.82572" lon="2.53503">
        <ele>48.7</ele>
        <time>2022-12-07T14:14:40Z</time>
      </trkpt>
      <trkpt lat="49.82572" lon="2.53503">
        <ele>48.7</ele>
        <time>2022-12-07T14:14:41Z</time>
      </trkpt>
      <trkpt lat="49.82572" lon="2.53503">
        <ele>48.7</ele>
        <time>2022-12-07T14:14:42Z</time>
      </trkpt>
      <trkpt lat="49.82572" lon="2.53503">
        <ele>48.7</ele>
        <time>2022-12-07T14:14:43Z</time>
      </trkpt>
      <trkpt lat="49.82572" lon="2.53503">
        <ele>48.7</ele>
        <time>2022-12-07T14:14:44Z</time>
      </trkpt>
      <trkpt lat="49.82572" lon="2.53503">
        <ele>48.7</ele>
        <time>2022-12-07T14:14:45Z</time>
      </trkpt>
      <trkpt lat="49.82572" lon="2.53503">
        <ele>48.7</ele>
        <time>2022-12-07T14:14:46Z</time>
      </trkpt>
      <trkpt lat="49.82572" lon="2.53503">
        <ele>48.7</ele>
        <time>2022-12-07T14:14:47Z</time>
      </trkpt>
      <trkpt lat="49.82572" lon="2.53503">
        <ele>48.7</ele>
        <time>2022-12-07T14:14:48Z</time>
      </trkpt>
      <trkpt lat="49.82572" lon="2.53503">
        <ele>48.7</ele>
        <time>2022-12-07T14:14:49Z</time>
      </trkpt>
      <trkpt lat="49.82572" lon="2.53503">
        <ele>48.7</ele>
        <time>2022-12-07T14:14:50Z</time>
      </trkpt>
      <trkpt lat="49.82572" lon="2.53503">
        <ele>48.7</ele>
        <time>2022-12-07T14:14:51Z</time>
      </trkpt>
      <trkpt lat="49.82572" lon="2.53503">
        <ele>48.7</ele>
        <time>2022-12-07T14:14:52Z</time>
      </trkpt>
      <trkpt lat="49.82572" lon="2.53503">
        <ele>48.7</ele>
        <time>2022-12-07T14:14:53Z</time>
      </trkpt>
      <trkpt lat="49.82572" lon="2.53503">
        <ele>48.7</ele>
        <time>2022-12-07T14:14:54Z</time>
      </trkpt>
      <trkpt lat="49.82572" lon="2.53503">
        <ele>48.7</ele>
        <time>2022-12-07T14:14:55Z</time>
      </trkpt>
      <trkpt lat="49.82572" lon="2.53503">
        <ele>48.7</ele>
        <time>2022-12-07T14:14:56Z</time>
      </trkpt>
      <trkpt lat="49.82572" lon="2.53503">
        <ele>48.7</ele>
        <time>2022-12-07T14:14:57Z</time>
      </trkpt>
      <trkpt lat="49.82572" lon="2.53503">
        <ele>48.7</ele>
        <time>2022-12-07T14:14:58Z</time>
      </trkpt>
      <trkpt lat="49.82572" lon="2.53503">
        <ele>48.7</ele>
        <time>2022-12-07T14:14:59Z</time>
      </trkpt>
      <trkpt lat="49.82572" lon="2.53503">
        <ele>48.7</ele>
        <time>2022-12-07T14:15:00Z</time>
      </trkpt>
      <trkpt lat="49.82572" lon="2.53503">
        <ele>48.7</ele>
        <time>2022-12-07T14:15:01Z</time>
      </trkpt>
      <trkpt lat="49.82572" lon="2.53503">
        <ele>48.7</ele>
        <time>2022-12-07T14:15:02Z</time>
      </trkpt>
      <trkpt lat="49.82572" lon="2.53503">
        <ele>48.7</ele>
        <time>2022-12-07T14:15:03Z</time>
      </trkpt>
      <trkpt lat="49.82572" lon="2.53503">
        <ele>48.7</ele>
        <time>2022-12-07T14:15:04Z</time>
      </trkpt>
      <trkpt lat="49.82572" lon="2.53503">
        <ele>48.7</ele>
        <time>2022-12-07T14:15:05Z</time>
      </trkpt>
      <trkpt lat="49.82572" lon="2.53503">
        <ele>48.7</ele>
        <time>2022-12-07T14:15:06Z</time>
      </trkpt>
      <trkpt lat="49.82572" lon="2.53503">
        <ele>48.7</ele>
        <time>2022-12-07T14:15:07Z</time>
      </trkpt>
      <trkpt lat="49.82572" lon="2.53503">
        <ele>48.7</ele>
        <time>2022-12-07T14:15:08Z</time>
      </trkpt>
      <trkpt lat="49.82572" lon="2.53503">
        <ele>48.7</ele>
        <time>2022-12-07T14:15:09Z</time>
      </trkpt>
      <trkpt lat="49.82572" lon="2.53503">
        <ele>48.7</ele>
        <time>2022-12-07T14:15:10Z</time>
      </trkpt>
      <trkpt lat="49.82572" lon="2.53503">
        <ele>48.7</ele>
        <time>2022-12-07T14:15:11Z</time>
      </trkpt>
      <trkpt lat="49.82572" lon="2.53503">
        <ele>48.7</ele>
        <time>2022-12-07T14:15:12Z</time>
      </trkpt>
      <trkpt lat="49.82572" lon="2.53503">
        <ele>48.7</ele>
        <time>2022-12-07T14:15:13Z</time>
      </trkpt>
      <trkpt lat="49.82572" lon="2.53503">
        <ele>48.7</ele>
        <time>2022-12-07T14:15:14Z</time>
      </trkpt>
      <trkpt lat="49.82572" lon="2.53503">
        <ele>48.7</ele>
        <time>2022-12-07T14:15:15Z</time>
      </trkpt>
      <trkpt lat="49.82572" lon="2.53503">
        <ele>48.7</ele>
        <time>2022-12-07T14:15:16Z</time>
      </trkpt>
      <trkpt lat="49.82572" lon="2.53503">
        <ele>48.7</ele>
        <time>2022-12-07T14:15:17Z</time>
      </trkpt>
      <trkpt lat="49.82572" lon="2.53503">
        <ele>48.7</ele>
        <time>2022-12-07T14:15:18Z</time>
      </trkpt>
      <trkpt lat="49.82572" lon="2.53503">
        <ele>48.7</ele>
        <time>2022-12-07T14:15:19Z</time>
      </trkpt>
      <trkpt lat="49.82572" lon="2.53503">
        <ele>48.7</ele>
        <time>2022-12-07T14:15:20Z</time>
      </trkpt>
      <trkpt lat="49.82572" lon="2.53503">
        <ele>48.7</ele>
        <time>2022-12-07T14:15:21Z</time>
      </trkpt>
      <trkpt lat="49.82572" lon="2.53503">
        <ele>48.7</ele>
        <time>2022-12-07T14:15:22Z</time>
      </trkpt>
      <trkpt lat="49.82572" lon="2.53503">
        <ele>48.7</ele>
        <time>2022-12-07T14:15:23Z</time>
      </trkpt>
      <trkpt lat="49.82572" lon="2.53503">
        <ele>48.7</ele>
        <time>2022-12-07T14:15:24Z</time>
      </trkpt>
      <trkpt lat="49.82572" lon="2.53503">
        <ele>48.7</ele>
        <time>2022-12-07T14:15:25Z</time>
      </trkpt>
      <trkpt lat="49.82572" lon="2.53503">
        <ele>48.7</ele>
        <time>2022-12-07T14:15:26Z</time>
      </trkpt>
      <trkpt lat="49.82572" lon="2.53503">
        <ele>48.7</ele>
        <time>2022-12-07T14:15:27Z</time>
      </trkpt>
      <trkpt lat="49.82572" lon="2.53503">
        <ele>48.7</ele>
        <time>2022-12-07T14:15:28Z</time>
      </trkpt>
      <trkpt lat="49.82572" lon="2.53503">
        <ele>48.7</ele>
        <time>2022-12-07T14:15:29Z</time>
      </trkpt>
      <trkpt lat="49.82572" lon="2.53503">
        <ele>48.7</ele>
        <time>2022-12-07T14:15:30Z</time>
      </trkpt>
      <trkpt lat="49.82572" lon="2.53503">
        <ele>48.7</ele>
        <time>2022-12-07T14:15:31Z</time>
      </trkpt>
      <trkpt lat="49.82572" lon="2.53503">
        <ele>48.7</ele>
        <time>2022-12-07T14:15:32Z</time>
      </trkpt>
      <trkpt lat="49.82572" lon="2.53503">
        <ele>48.7</ele>
        <time>2022-12-07T14:15:33Z</time>
      </trkpt>
      <trkpt lat="49.82572" lon="2.53503">
        <ele>48.7</ele>
        <time>2022-12-07T14:15:34Z</time>
      </trkpt>
      <trkpt lat="49.82572" lon="2.53503">
        <ele>48.7</ele>
        <time>2022-12-07T14:15:35Z</time>
      </trkpt>
      <trkpt lat="49.82572" lon="2.53503">
        <ele>48.7</ele>
        <time>2022-12-07T14:15:36Z</time>
      </trkpt>
      <trkpt lat="49.82572" lon="2.53503">
        <ele>48.7</ele>
        <time>2022-12-07T14:15:37Z</time>
      </trkpt>
      <trkpt lat="49.82572" lon="2.53503">
        <ele>48.7</ele>
        <time>2022-12-07T14:15:38Z</time>
      </trkpt>
      <trkpt lat="49.82572" lon="2.53503">
        <ele>48.7</ele>
        <time>2022-12-07T14:15:39Z</time>
      </trkpt>
      <trkpt lat="49.82572" lon="2.53503">
        <ele>48.7</ele>
        <time>2022-12-07T14:15:40Z</time>
      </trkpt>
      <trkpt lat="49.82572" lon="2.53503">
        <ele>48.7</ele>
        <time>2022-12-07T14:15:41Z</time>
      </trkpt>
      <trkpt lat="49.82572" lon="2.53503">
        <ele>48.6</ele>
        <time>2022-12-07T14:15:42Z</time>
      </trkpt>
      <trkpt lat="49.82572" lon="2.53503">
        <ele>48.6</ele>
        <time>2022-12-07T14:15:43Z</time>
      </trkpt>
      <trkpt lat="49.82572" lon="2.53503">
        <ele>48.6</ele>
        <time>2022-12-07T14:15:44Z</time>
      </trkpt>
      <trkpt lat="49.82571" lon="2.53503">
        <ele>48.6</ele>
        <time>2022-12-07T14:15:45Z</time>
      </trkpt>
      <trkpt lat="49.82571" lon="2.53504">
        <ele>48.6</ele>
        <time>2022-12-07T14:15:46Z</time>
      </trkpt>
      <trkpt lat="49.82571" lon="2.53505">
        <ele>48.5</ele>
        <time>2022-12-07T14:15:47Z</time>
      </trkpt>
      <trkpt lat="49.8257" lon="2.53505">
        <ele>48.5</ele>
        <time>2022-12-07T14:15:48Z</time>
      </trkpt>
      <trkpt lat="49.8257" lon="2.53505">
        <ele>48.5</ele>
        <time>2022-12-07T14:15:49Z</time>
      </trkpt>
      <trkpt lat="49.82569" lon="2.53506">
        <ele>48.5</ele>
        <time>2022-12-07T14:15:50Z</time>
      </trkpt>
      <trkpt lat="49.82567" lon="2.53507">
        <ele>48.4</ele>
        <time>2022-12-07T14:15:51Z</time>
      </trkpt>
      <trkpt lat="49.82566" lon="2.53507">
        <ele>48.4</ele>
        <time>2022-12-07T14:15:52Z</time>
      </trkpt>
      <trkpt lat="49.82566" lon="2.53508">
        <ele>48.4</ele>
        <time>2022-12-07T14:15:53Z</time>
      </trkpt>
      <trkpt lat="49.82565" lon="2.53508">
        <ele>48.3</ele>
        <time>2022-12-07T14:15:54Z</time>
      </trkpt>
      <trkpt lat="49.82564" lon="2.53509">
        <ele>48.3</ele>
        <time>2022-12-07T14:15:55Z</time>
      </trkpt>
      <trkpt lat="49.82563" lon="2.53509">
        <ele>48.2</ele>
        <time>2022-12-07T14:15:56Z</time>
      </trkpt>
      <trkpt lat="49.82562" lon="2.53508">
        <ele>48.2</ele>
        <time>2022-12-07T14:15:57Z</time>
      </trkpt>
      <trkpt lat="49.82561" lon="2.53508">
        <ele>48.2</ele>
        <time>2022-12-07T14:15:58Z</time>
      </trkpt>
      <trkpt lat="49.8256" lon="2.53507">
        <ele>48.1</ele>
        <time>2022-12-07T14:15:59Z</time>
      </trkpt>
      <trkpt lat="49.82559" lon="2.53506">
        <ele>48.1</ele>
        <time>2022-12-07T14:16:00Z</time>
      </trkpt>
      <trkpt lat="49.82559" lon="2.53504">
        <ele>48</ele>
        <time>2022-12-07T14:16:01Z</time>
      </trkpt>
      <trkpt lat="49.82558" lon="2.53503">
        <ele>48</ele>
        <time>2022-12-07T14:16:02Z</time>
      </trkpt>
      <trkpt lat="49.82557" lon="2.53501">
        <ele>48</ele>
        <time>2022-12-07T14:16:03Z</time>
      </trkpt>
      <trkpt lat="49.82556" lon="2.535">
        <ele>47.9</ele>
        <time>2022-12-07T14:16:04Z</time>
      </trkpt>
      <trkpt lat="49.82555" lon="2.53498">
        <ele>47.8</ele>
        <time>2022-12-07T14:16:05Z</time>
      </trkpt>
      <trkpt lat="49.82555" lon="2.53495">
        <ele>47.8</ele>
        <time>2022-12-07T14:16:06Z</time>
      </trkpt>
      <trkpt lat="49.82554" lon="2.53494">
        <ele>47.7</ele>
        <time>2022-12-07T14:16:07Z</time>
      </trkpt>
      <trkpt lat="49.82554" lon="2.53492">
        <ele>47.7</ele>
        <time>2022-12-07T14:16:08Z</time>
      </trkpt>
      <trkpt lat="49.82554" lon="2.53489">
        <ele>47.6</ele>
        <time>2022-12-07T14:16:09Z</time>
      </trkpt>
      <trkpt lat="49.82554" lon="2.53487">
        <ele>47.6</ele>
        <time>2022-12-07T14:16:10Z</time>
      </trkpt>
      <trkpt lat="49.82554" lon="2.53485">
        <ele>47.5</ele>
        <time>2022-12-07T14:16:11Z</time>
      </trkpt>
      <trkpt lat="49.82554" lon="2.53483">
        <ele>47.5</ele>
        <time>2022-12-07T14:16:12Z</time>
      </trkpt>
      <trkpt lat="49.82553" lon="2.53481">
        <ele>47.4</ele>
        <time>2022-12-07T14:16:13Z</time>
      </trkpt>
      <trkpt lat="49.82553" lon="2.5348">
        <ele>47.4</ele>
        <time>2022-12-07T14:16:14Z</time>
      </trkpt>
      <trkpt lat="49.82553" lon="2.53479">
        <ele>47.4</ele>
        <time>2022-12-07T14:16:15Z</time>
      </trkpt>
      <trkpt lat="49.82552" lon="2.53478">
        <ele>47.4</ele>
        <time>2022-12-07T14:16:16Z</time>
      </trkpt>
      <trkpt lat="49.82551" lon="2.53478">
        <ele>47.3</ele>
        <time>2022-12-07T14:16:17Z</time>
      </trkpt>
      <trkpt lat="49.8255" lon="2.53478">
        <ele>47.3</ele>
        <time>2022-12-07T14:16:18Z</time>
      </trkpt>
      <trkpt lat="49.82549" lon="2.53478">
        <ele>47.3</ele>
        <time>2022-12-07T14:16:19Z</time>
      </trkpt>
      <trkpt lat="49.82548" lon="2.53479">
        <ele>47.2</ele>
        <time>2022-12-07T14:16:20Z</time>
      </trkpt>
      <trkpt lat="49.82547" lon="2.53482">
        <ele>47.1</ele>
        <time>2022-12-07T14:16:21Z</time>
      </trkpt>
      <trkpt lat="49.82546" lon="2.53483">
        <ele>47.1</ele>
        <time>2022-12-07T14:16:22Z</time>
      </trkpt>
      <trkpt lat="49.82546" lon="2.53484">
        <ele>47.1</ele>
        <time>2022-12-07T14:16:23Z</time>
      </trkpt>
      <trkpt lat="49.82545" lon="2.53486">
        <ele>47</ele>
        <time>2022-12-07T14:16:24Z</time>
      </trkpt>
      <trkpt lat="49.82545" lon="2.53488">
        <ele>47</ele>
        <time>2022-12-07T14:16:25Z</time>
      </trkpt>
      <trkpt lat="49.82544" lon="2.53489">
        <ele>47</ele>
        <time>2022-12-07T14:16:26Z</time>
      </trkpt>
      <trkpt lat="49.82544" lon="2.53491">
        <ele>47</ele>
        <time>2022-12-07T14:16:27Z</time>
      </trkpt>
      <trkpt lat="49.82543" lon="2.53493">
        <ele>46.9</ele>
        <time>2022-12-07T14:16:28Z</time>
      </trkpt>
      <trkpt lat="49.82542" lon="2.53494">
        <ele>46.9</ele>
        <time>2022-12-07T14:16:29Z</time>
      </trkpt>
      <trkpt lat="49.82542" lon="2.53495">
        <ele>46.9</ele>
        <time>2022-12-07T14:16:30Z</time>
      </trkpt>
      <trkpt lat="49.82541" lon="2.53496">
        <ele>46.9</ele>
        <time>2022-12-07T14:16:31Z</time>
      </trkpt>
      <trkpt lat="49.8254" lon="2.53498">
        <ele>46.9</ele>
        <time>2022-12-07T14:16:32Z</time>
      </trkpt>
      <trkpt lat="49.8254" lon="2.53499">
        <ele>46.8</ele>
        <time>2022-12-07T14:16:33Z</time>
      </trkpt>
      <trkpt lat="49.82539" lon="2.53501">
        <ele>46.8</ele>
        <time>2022-12-07T14:16:34Z</time>
      </trkpt>
      <trkpt lat="49.82538" lon="2.53502">
        <ele>46.8</ele>
        <time>2022-12-07T14:16:35Z</time>
      </trkpt>
      <trkpt lat="49.82538" lon="2.53503">
        <ele>46.8</ele>
        <time>2022-12-07T14:16:36Z</time>
      </trkpt>
      <trkpt lat="49.82537" lon="2.53505">
        <ele>46.9</ele>
        <time>2022-12-07T14:16:37Z</time>
      </trkpt>
      <trkpt lat="49.82537" lon="2.53506">
        <ele>46.9</ele>
        <time>2022-12-07T14:16:38Z</time>
      </trkpt>
      <trkpt lat="49.82536" lon="2.53507">
        <ele>46.9</ele>
        <time>2022-12-07T14:16:39Z</time>
      </trkpt>
      <trkpt lat="49.82536" lon="2.53508">
        <ele>46.9</ele>
        <time>2022-12-07T14:16:40Z</time>
      </trkpt>
      <trkpt lat="49.82535" lon="2.5351">
        <ele>46.9</ele>
        <time>2022-12-07T14:16:41Z</time>
      </trkpt>
      <trkpt lat="49.82534" lon="2.53511">
        <ele>47</ele>
        <time>2022-12-07T14:16:42Z</time>
      </trkpt>
      <trkpt lat="49.82534" lon="2.53512">
        <ele>47</ele>
        <time>2022-12-07T14:16:43Z</time>
      </trkpt>
      <trkpt lat="49.82533" lon="2.53514">
        <ele>47</ele>
        <time>2022-12-07T14:16:44Z</time>
      </trkpt>
      <trkpt lat="49.82533" lon="2.53515">
        <ele>47</ele>
        <time>2022-12-07T14:16:45Z</time>
      </trkpt>
      <trkpt lat="49.82532" lon="2.53516">
        <ele>47</ele>
        <time>2022-12-07T14:16:46Z</time>
      </trkpt>
      <trkpt lat="49.82532" lon="2.53517">
        <ele>47</ele>
        <time>2022-12-07T14:16:47Z</time>
      </trkpt>
      <trkpt lat="49.82531" lon="2.53517">
        <ele>47.1</ele>
        <time>2022-12-07T14:16:48Z</time>
      </trkpt>
      <trkpt lat="49.82531" lon="2.53518">
        <ele>47.1</ele>
        <time>2022-12-07T14:16:49Z</time>
      </trkpt>
      <trkpt lat="49.8253" lon="2.53519">
        <ele>47.1</ele>
        <time>2022-12-07T14:16:50Z</time>
      </trkpt>
      <trkpt lat="49.82529" lon="2.5352">
        <ele>47.1</ele>
        <time>2022-12-07T14:16:51Z</time>
      </trkpt>
      <trkpt lat="49.82528" lon="2.53521">
        <ele>47.1</ele>
        <time>2022-12-07T14:16:52Z</time>
      </trkpt>
      <trkpt lat="49.82527" lon="2.53522">
        <ele>47.2</ele>
        <time>2022-12-07T14:16:53Z</time>
      </trkpt>
      <trkpt lat="49.82526" lon="2.53523">
        <ele>47.2</ele>
        <time>2022-12-07T14:16:54Z</time>
      </trkpt>
      <trkpt lat="49.82525" lon="2.53524">
        <ele>47.2</ele>
        <time>2022-12-07T14:16:55Z</time>
      </trkpt>
      <trkpt lat="49.82525" lon="2.53525">
        <ele>47.2</ele>
        <time>2022-12-07T14:16:56Z</time>
      </trkpt>
      <trkpt lat="49.82524" lon="2.53525">
        <ele>47.2</ele>
        <time>2022-12-07T14:16:57Z</time>
      </trkpt>
      <trkpt lat="49.82523" lon="2.53527">
        <ele>47.3</ele>
        <time>2022-12-07T14:16:58Z</time>
      </trkpt>
      <trkpt lat="49.82522" lon="2.53528">
        <ele>47.3</ele>
        <time>2022-12-07T14:16:59Z</time>
      </trkpt>
      <trkpt lat="49.82522" lon="2.53528">
        <ele>47.3</ele>
        <time>2022-12-07T14:17:00Z</time>
      </trkpt>
      <trkpt lat="49.82521" lon="2.53529">
        <ele>47.3</ele>
        <time>2022-12-07T14:17:01Z</time>
      </trkpt>
      <trkpt lat="49.8252" lon="2.5353">
        <ele>47.3</ele>
        <time>2022-12-07T14:17:02Z</time>
      </trkpt>
      <trkpt lat="49.82519" lon="2.53531">
        <ele>47.4</ele>
        <time>2022-12-07T14:17:03Z</time>
      </trkpt>
      <trkpt lat="49.82519" lon="2.53531">
        <ele>47.4</ele>
        <time>2022-12-07T14:17:04Z</time>
      </trkpt>
      <trkpt lat="49.82518" lon="2.53532">
        <ele>47.4</ele>
        <time>2022-12-07T14:17:05Z</time>
      </trkpt>
      <trkpt lat="49.82517" lon="2.53533">
        <ele>47.4</ele>
        <time>2022-12-07T14:17:06Z</time>
      </trkpt>
      <trkpt lat="49.82516" lon="2.53533">
        <ele>47.4</ele>
        <time>2022-12-07T14:17:07Z</time>
      </trkpt>
      <trkpt lat="49.82516" lon="2.53534">
        <ele>47.5</ele>
        <time>2022-12-07T14:17:08Z</time>
      </trkpt>
      <trkpt lat="49.82514" lon="2.53536">
        <ele>47.5</ele>
        <time>2022-12-07T14:17:09Z</time>
      </trkpt>
      <trkpt lat="49.82514" lon="2.53537">
        <ele>47.5</ele>
        <time>2022-12-07T14:17:10Z</time>
      </trkpt>
      <trkpt lat="49.82513" lon="2.53537">
        <ele>47.6</ele>
        <time>2022-12-07T14:17:11Z</time>
      </trkpt>
      <trkpt lat="49.82513" lon="2.53538">
        <ele>47.6</ele>
        <time>2022-12-07T14:17:12Z</time>
      </trkpt>
      <trkpt lat="49.82512" lon="2.5354">
        <ele>47.6</ele>
        <time>2022-12-07T14:17:13Z</time>
      </trkpt>
      <trkpt lat="49.82512" lon="2.53541">
        <ele>47.6</ele>
        <time>2022-12-07T14:17:14Z</time>
      </trkpt>
      <trkpt lat="49.82511" lon="2.53542">
        <ele>47.6</ele>
        <time>2022-12-07T14:17:15Z</time>
      </trkpt>
      <trkpt lat="49.82511" lon="2.53543">
        <ele>47.7</ele>
        <time>2022-12-07T14:17:16Z</time>
      </trkpt>
      <trkpt lat="49.8251" lon="2.53545">
        <ele>47.7</ele>
        <time>2022-12-07T14:17:17Z</time>
      </trkpt>
      <trkpt lat="49.8251" lon="2.53546">
        <ele>47.7</ele>
        <time>2022-12-07T14:17:18Z</time>
      </trkpt>
      <trkpt lat="49.82509" lon="2.53548">
        <ele>47.8</ele>
        <time>2022-12-07T14:17:19Z</time>
      </trkpt>
      <trkpt lat="49.82509" lon="2.53549">
        <ele>47.8</ele>
        <time>2022-12-07T14:17:20Z</time>
      </trkpt>
      <trkpt lat="49.82508" lon="2.53551">
        <ele>47.8</ele>
        <time>2022-12-07T14:17:21Z</time>
      </trkpt>
      <trkpt lat="49.82508" lon="2.53553">
        <ele>47.9</ele>
        <time>2022-12-07T14:17:22Z</time>
      </trkpt>
      <trkpt lat="49.82507" lon="2.53554">
        <ele>47.9</ele>
        <time>2022-12-07T14:17:23Z</time>
      </trkpt>
      <trkpt lat="49.82506" lon="2.53556">
        <ele>47.9</ele>
        <time>2022-12-07T14:17:24Z</time>
      </trkpt>
      <trkpt lat="49.82506" lon="2.53557">
        <ele>48</ele>
        <time>2022-12-07T14:17:25Z</time>
      </trkpt>
      <trkpt lat="49.82505" lon="2.53559">
        <ele>48</ele>
        <time>2022-12-07T14:17:26Z</time>
      </trkpt>
      <trkpt lat="49.82505" lon="2.5356">
        <ele>48.1</ele>
        <time>2022-12-07T14:17:27Z</time>
      </trkpt>
      <trkpt lat="49.82504" lon="2.53562">
        <ele>48.1</ele>
        <time>2022-12-07T14:17:28Z</time>
      </trkpt>
      <trkpt lat="49.82504" lon="2.53563">
        <ele>48.1</ele>
        <time>2022-12-07T14:17:29Z</time>
      </trkpt>
      <trkpt lat="49.82503" lon="2.53565">
        <ele>48.2</ele>
        <time>2022-12-07T14:17:30Z</time>
      </trkpt>
      <trkpt lat="49.82503" lon="2.53566">
        <ele>48.2</ele>
        <time>2022-12-07T14:17:31Z</time>
      </trkpt>
      <trkpt lat="49.82502" lon="2.53567">
        <ele>48.3</ele>
        <time>2022-12-07T14:17:32Z</time>
      </trkpt>
      <trkpt lat="49.82501" lon="2.53569">
        <ele>48.3</ele>
        <time>2022-12-07T14:17:33Z</time>
      </trkpt>
      <trkpt lat="49.82501" lon="2.5357">
        <ele>48.3</ele>
        <time>2022-12-07T14:17:34Z</time>
      </trkpt>
      <trkpt lat="49.82501" lon="2.53572">
        <ele>48.4</ele>
        <time>2022-12-07T14:17:35Z</time>
      </trkpt>
      <trkpt lat="49.825" lon="2.53573">
        <ele>48.4</ele>
        <time>2022-12-07T14:17:36Z</time>
      </trkpt>
      <trkpt lat="49.825" lon="2.53575">
        <ele>48.5</ele>
        <time>2022-12-07T14:17:37Z</time>
      </trkpt>
      <trkpt lat="49.82499" lon="2.53576">
        <ele>48.5</ele>
        <time>2022-12-07T14:17:38Z</time>
      </trkpt>
      <trkpt lat="49.82499" lon="2.53578">
        <ele>48.5</ele>
        <time>2022-12-07T14:17:39Z</time>
      </trkpt>
      <trkpt lat="49.82498" lon="2.53579">
        <ele>48.6</ele>
        <time>2022-12-07T14:17:40Z</time>
      </trkpt>
      <trkpt lat="49.82498" lon="2.53581">
        <ele>48.6</ele>
        <time>2022-12-07T14:17:41Z</time>
      </trkpt>
      <trkpt lat="49.82497" lon="2.53582">
        <ele>48.7</ele>
        <time>2022-12-07T14:17:42Z</time>
      </trkpt>
      <trkpt lat="49.82497" lon="2.53583">
        <ele>48.7</ele>
        <time>2022-12-07T14:17:43Z</time>
      </trkpt>
      <trkpt lat="49.82496" lon="2.53585">
        <ele>48.7</ele>
        <time>2022-12-07T14:17:44Z</time>
      </trkpt>
      <trkpt lat="49.82496" lon="2.53586">
        <ele>48.8</ele>
        <time>2022-12-07T14:17:45Z</time>
      </trkpt>
      <trkpt lat="49.82495" lon="2.53589">
        <ele>48.9</ele>
        <time>2022-12-07T14:17:46Z</time>
      </trkpt>
      <trkpt lat="49.82494" lon="2.5359">
        <ele>48.9</ele>
        <time>2022-12-07T14:17:47Z</time>
      </trkpt>
      <trkpt lat="49.82494" lon="2.53591">
        <ele>48.9</ele>
        <time>2022-12-07T14:17:48Z</time>
      </trkpt>
      <trkpt lat="49.82493" lon="2.53594">
        <ele>49</ele>
        <time>2022-12-07T14:17:49Z</time>
      </trkpt>
      <trkpt lat="49.82492" lon="2.53595">
        <ele>49.1</ele>
        <time>2022-12-07T14:17:50Z</time>
      </trkpt>
      <trkpt lat="49.82492" lon="2.53596">
        <ele>49.1</ele>
        <time>2022-12-07T14:17:51Z</time>
      </trkpt>
      <trkpt lat="49.82491" lon="2.53598">
        <ele>49.1</ele>
        <time>2022-12-07T14:17:52Z</time>
      </trkpt>
      <trkpt lat="49.8249" lon="2.53599">
        <ele>49.2</ele>
        <time>2022-12-07T14:17:53Z</time>
      </trkpt>
      <trkpt lat="49.82489" lon="2.536">
        <ele>49.2</ele>
        <time>2022-12-07T14:17:54Z</time>
      </trkpt>
      <trkpt lat="49.82489" lon="2.53601">
        <ele>49.4</ele>
        <time>2022-12-07T14:17:55Z</time>
      </trkpt>
      <trkpt lat="49.82488" lon="2.53602">
        <ele>49.3</ele>
        <time>2022-12-07T14:17:56Z</time>
      </trkpt>
      <trkpt lat="49.82487" lon="2.53604">
        <ele>49.3</ele>
        <time>2022-12-07T14:17:57Z</time>
      </trkpt>
      <trkpt lat="49.82486" lon="2.53605">
        <ele>49.2</ele>
        <time>2022-12-07T14:17:58Z</time>
      </trkpt>
      <trkpt lat="49.82485" lon="2.53605">
        <ele>49.2</ele>
        <time>2022-12-07T14:17:59Z</time>
      </trkpt>
      <trkpt lat="49.82484" lon="2.53606">
        <ele>49.1</ele>
        <time>2022-12-07T14:18:00Z</time>
      </trkpt>
      <trkpt lat="49.82483" lon="2.53607">
        <ele>49.1</ele>
        <time>2022-12-07T14:18:01Z</time>
      </trkpt>
      <trkpt lat="49.82482" lon="2.53607">
        <ele>49.1</ele>
        <time>2022-12-07T14:18:02Z</time>
      </trkpt>
      <trkpt lat="49.82481" lon="2.53608">
        <ele>49</ele>
        <time>2022-12-07T14:18:03Z</time>
      </trkpt>
      <trkpt lat="49.8248" lon="2.53608">
        <ele>49</ele>
        <time>2022-12-07T14:18:04Z</time>
      </trkpt>
      <trkpt lat="49.82479" lon="2.53609">
        <ele>48.9</ele>
        <time>2022-12-07T14:18:05Z</time>
      </trkpt>
      <trkpt lat="49.82478" lon="2.53609">
        <ele>48.9</ele>
        <time>2022-12-07T14:18:06Z</time>
      </trkpt>
      <trkpt lat="49.82477" lon="2.53609">
        <ele>48.8</ele>
        <time>2022-12-07T14:18:07Z</time>
      </trkpt>
      <trkpt lat="49.82476" lon="2.53609">
        <ele>48.8</ele>
        <time>2022-12-07T14:18:08Z</time>
      </trkpt>
      <trkpt lat="49.82475" lon="2.53609">
        <ele>48.7</ele>
        <time>2022-12-07T14:18:09Z</time>
      </trkpt>
      <trkpt lat="49.82474" lon="2.53609">
        <ele>48.7</ele>
        <time>2022-12-07T14:18:10Z</time>
      </trkpt>
      <trkpt lat="49.82473" lon="2.53609">
        <ele>48.7</ele>
        <time>2022-12-07T14:18:11Z</time>
      </trkpt>
      <trkpt lat="49.82473" lon="2.53608">
        <ele>48.7</ele>
        <time>2022-12-07T14:18:12Z</time>
      </trkpt>
      <trkpt lat="49.82472" lon="2.53608">
        <ele>48.6</ele>
        <time>2022-12-07T14:18:13Z</time>
      </trkpt>
      <trkpt lat="49.82472" lon="2.53608">
        <ele>48.6</ele>
        <time>2022-12-07T14:18:14Z</time>
      </trkpt>
      <trkpt lat="49.82472" lon="2.53608">
        <ele>48.6</ele>
        <time>2022-12-07T14:18:15Z</time>
      </trkpt>
      <trkpt lat="49.82472" lon="2.53608">
        <ele>48.6</ele>
        <time>2022-12-07T14:18:16Z</time>
      </trkpt>
      <trkpt lat="49.82472" lon="2.53608">
        <ele>48.6</ele>
        <time>2022-12-07T14:18:17Z</time>
      </trkpt>
      <trkpt lat="49.82472" lon="2.53608">
        <ele>48.6</ele>
        <time>2022-12-07T14:18:18Z</time>
      </trkpt>
      <trkpt lat="49.82472" lon="2.53608">
        <ele>48.6</ele>
        <time>2022-12-07T14:18:19Z</time>
      </trkpt>
      <trkpt lat="49.82471" lon="2.53608">
        <ele>48.6</ele>
        <time>2022-12-07T14:18:20Z</time>
      </trkpt>
      <trkpt lat="49.82471" lon="2.53608">
        <ele>48.6</ele>
        <time>2022-12-07T14:18:21Z</time>
      </trkpt>
      <trkpt lat="49.8247" lon="2.53607">
        <ele>48.5</ele>
        <time>2022-12-07T14:18:22Z</time>
      </trkpt>
      <trkpt lat="49.8247" lon="2.53607">
        <ele>47.8</ele>
        <time>2022-12-07T14:18:23Z</time>
      </trkpt>
      <trkpt lat="49.82469" lon="2.53607">
        <ele>47.8</ele>
        <time>2022-12-07T14:18:24Z</time>
      </trkpt>
      <trkpt lat="49.82468" lon="2.53607">
        <ele>47.8</ele>
        <time>2022-12-07T14:18:25Z</time>
      </trkpt>
      <trkpt lat="49.82468" lon="2.53606">
        <ele>47.7</ele>
        <time>2022-12-07T14:18:26Z</time>
      </trkpt>
      <trkpt lat="49.82467" lon="2.53606">
        <ele>47.7</ele>
        <time>2022-12-07T14:18:27Z</time>
      </trkpt>
      <trkpt lat="49.82466" lon="2.53606">
        <ele>47.7</ele>
        <time>2022-12-07T14:18:28Z</time>
      </trkpt>
      <trkpt lat="49.82466" lon="2.53606">
        <ele>47.7</ele>
        <time>2022-12-07T14:18:29Z</time>
      </trkpt>
      <trkpt lat="49.82465" lon="2.53606">
        <ele>47.7</ele>
        <time>2022-12-07T14:18:30Z</time>
      </trkpt>
      <trkpt lat="49.82465" lon="2.53605">
        <ele>47.7</ele>
        <time>2022-12-07T14:18:31Z</time>
      </trkpt>
      <trkpt lat="49.82464" lon="2.53605">
        <ele>47.7</ele>
        <time>2022-12-07T14:18:32Z</time>
      </trkpt>
      <trkpt lat="49.82464" lon="2.53605">
        <ele>47.6</ele>
        <time>2022-12-07T14:18:33Z</time>
      </trkpt>
      <trkpt lat="49.82463" lon="2.53604">
        <ele>47.6</ele>
        <time>2022-12-07T14:18:34Z</time>
      </trkpt>
      <trkpt lat="49.82463" lon="2.53603">
        <ele>47.6</ele>
        <time>2022-12-07T14:18:35Z</time>
      </trkpt>
      <trkpt lat="49.82463" lon="2.53601">
        <ele>47.6</ele>
        <time>2022-12-07T14:18:36Z</time>
      </trkpt>
      <trkpt lat="49.82462" lon="2.536">
        <ele>47.6</ele>
        <time>2022-12-07T14:18:37Z</time>
      </trkpt>
      <trkpt lat="49.82462" lon="2.53599">
        <ele>47.5</ele>
        <time>2022-12-07T14:18:38Z</time>
      </trkpt>
      <trkpt lat="49.82462" lon="2.53597">
        <ele>47.5</ele>
        <time>2022-12-07T14:18:39Z</time>
      </trkpt>
      <trkpt lat="49.82462" lon="2.53596">
        <ele>47.5</ele>
        <time>2022-12-07T14:18:40Z</time>
      </trkpt>
      <trkpt lat="49.82462" lon="2.53594">
        <ele>47.5</ele>
        <time>2022-12-07T14:18:41Z</time>
      </trkpt>
      <trkpt lat="49.82462" lon="2.53592">
        <ele>47.4</ele>
        <time>2022-12-07T14:18:42Z</time>
      </trkpt>
      <trkpt lat="49.82462" lon="2.53591">
        <ele>47.4</ele>
        <time>2022-12-07T14:18:43Z</time>
      </trkpt>
      <trkpt lat="49.82462" lon="2.5359">
        <ele>47.4</ele>
        <time>2022-12-07T14:18:44Z</time>
      </trkpt>
      <trkpt lat="49.82461" lon="2.53588">
        <ele>47.4</ele>
        <time>2022-12-07T14:18:45Z</time>
      </trkpt>
      <trkpt lat="49.82461" lon="2.53586">
        <ele>47.3</ele>
        <time>2022-12-07T14:18:46Z</time>
      </trkpt>
      <trkpt lat="49.82461" lon="2.53585">
        <ele>47.3</ele>
        <time>2022-12-07T14:18:47Z</time>
      </trkpt>
      <trkpt lat="49.82461" lon="2.53583">
        <ele>47.3</ele>
        <time>2022-12-07T14:18:48Z</time>
      </trkpt>
      <trkpt lat="49.8246" lon="2.53582">
        <ele>47.3</ele>
        <time>2022-12-07T14:18:49Z</time>
      </trkpt>
      <trkpt lat="49.8246" lon="2.5358">
        <ele>47.2</ele>
        <time>2022-12-07T14:18:50Z</time>
      </trkpt>
      <trkpt lat="49.8246" lon="2.53579">
        <ele>47.2</ele>
        <time>2022-12-07T14:18:51Z</time>
      </trkpt>
      <trkpt lat="49.82459" lon="2.53578">
        <ele>47.2</ele>
        <time>2022-12-07T14:18:52Z</time>
      </trkpt>
      <trkpt lat="49.82459" lon="2.53576">
        <ele>47.2</ele>
        <time>2022-12-07T14:18:53Z</time>
      </trkpt>
      <trkpt lat="49.82459" lon="2.53575">
        <ele>47.1</ele>
        <time>2022-12-07T14:18:54Z</time>
      </trkpt>
      <trkpt lat="49.82458" lon="2.53573">
        <ele>47.1</ele>
        <time>2022-12-07T14:18:55Z</time>
      </trkpt>
      <trkpt lat="49.82458" lon="2.53571">
        <ele>47.1</ele>
        <time>2022-12-07T14:18:56Z</time>
      </trkpt>
      <trkpt lat="49.82458" lon="2.5357">
        <ele>47.1</ele>
        <time>2022-12-07T14:18:57Z</time>
      </trkpt>
      <trkpt lat="49.82457" lon="2.53569">
        <ele>47</ele>
        <time>2022-12-07T14:18:58Z</time>
      </trkpt>
      <trkpt lat="49.82457" lon="2.53567">
        <ele>47</ele>
        <time>2022-12-07T14:18:59Z</time>
      </trkpt>
      <trkpt lat="49.82456" lon="2.53566">
        <ele>47</ele>
        <time>2022-12-07T14:19:00Z</time>
      </trkpt>
      <trkpt lat="49.82456" lon="2.53564">
        <ele>47</ele>
        <time>2022-12-07T14:19:01Z</time>
      </trkpt>
      <trkpt lat="49.82455" lon="2.53563">
        <ele>46.9</ele>
        <time>2022-12-07T14:19:02Z</time>
      </trkpt>
      <trkpt lat="49.82455" lon="2.53561">
        <ele>46.9</ele>
        <time>2022-12-07T14:19:03Z</time>
      </trkpt>
      <trkpt lat="49.82455" lon="2.5356">
        <ele>46.9</ele>
        <time>2022-12-07T14:19:04Z</time>
      </trkpt>
      <trkpt lat="49.82454" lon="2.53559">
        <ele>46.9</ele>
        <time>2022-12-07T14:19:05Z</time>
      </trkpt>
      <trkpt lat="49.82454" lon="2.53557">
        <ele>46.8</ele>
        <time>2022-12-07T14:19:06Z</time>
      </trkpt>
      <trkpt lat="49.82454" lon="2.53556">
        <ele>46.8</ele>
        <time>2022-12-07T14:19:07Z</time>
      </trkpt>
      <trkpt lat="49.82453" lon="2.53555">
        <ele>46.8</ele>
        <time>2022-12-07T14:19:08Z</time>
      </trkpt>
      <trkpt lat="49.82453" lon="2.53554">
        <ele>46.8</ele>
        <time>2022-12-07T14:19:09Z</time>
      </trkpt>
      <trkpt lat="49.82453" lon="2.53552">
        <ele>46.8</ele>
        <time>2022-12-07T14:19:10Z</time>
      </trkpt>
      <trkpt lat="49.82453" lon="2.53551">
        <ele>46.8</ele>
        <time>2022-12-07T14:19:11Z</time>
      </trkpt>
      <trkpt lat="49.82453" lon="2.5355">
        <ele>46.7</ele>
        <time>2022-12-07T14:19:12Z</time>
      </trkpt>
      <trkpt lat="49.82453" lon="2.53549">
        <ele>46.7</ele>
        <time>2022-12-07T14:19:13Z</time>
      </trkpt>
      <trkpt lat="49.82453" lon="2.53547">
        <ele>46.7</ele>
        <time>2022-12-07T14:19:14Z</time>
      </trkpt>
      <trkpt lat="49.82453" lon="2.53546">
        <ele>46.7</ele>
        <time>2022-12-07T14:19:15Z</time>
      </trkpt>
      <trkpt lat="49.82453" lon="2.53545">
        <ele>46.7</ele>
        <time>2022-12-07T14:19:16Z</time>
      </trkpt>
      <trkpt lat="49.82453" lon="2.53543">
        <ele>46.7</ele>
        <time>2022-12-07T14:19:17Z</time>
      </trkpt>
      <trkpt lat="49.82453" lon="2.53542">
        <ele>46.7</ele>
        <time>2022-12-07T14:19:18Z</time>
      </trkpt>
      <trkpt lat="49.82453" lon="2.53541">
        <ele>46.6</ele>
        <time>2022-12-07T14:19:19Z</time>
      </trkpt>
      <trkpt lat="49.82453" lon="2.5354">
        <ele>46.6</ele>
        <time>2022-12-07T14:19:20Z</time>
      </trkpt>
      <trkpt lat="49.82453" lon="2.53538">
        <ele>46.6</ele>
        <time>2022-12-07T14:19:21Z</time>
      </trkpt>
      <trkpt lat="49.82453" lon="2.53537">
        <ele>46.6</ele>
        <time>2022-12-07T14:19:22Z</time>
      </trkpt>
      <trkpt lat="49.82453" lon="2.53535">
        <ele>46.6</ele>
        <time>2022-12-07T14:19:23Z</time>
      </trkpt>
      <trkpt lat="49.82453" lon="2.53533">
        <ele>46.6</ele>
        <time>2022-12-07T14:19:24Z</time>
      </trkpt>
      <trkpt lat="49.82452" lon="2.53532">
        <ele>46.5</ele>
        <time>2022-12-07T14:19:25Z</time>
      </trkpt>
      <trkpt lat="49.82452" lon="2.53531">
        <ele>46.5</ele>
        <time>2022-12-07T14:19:26Z</time>
      </trkpt>
      <trkpt lat="49.82452" lon="2.5353">
        <ele>46.5</ele>
        <time>2022-12-07T14:19:27Z</time>
      </trkpt>
      <trkpt lat="49.82451" lon="2.53529">
        <ele>46.5</ele>
        <time>2022-12-07T14:19:28Z</time>
      </trkpt>
      <trkpt lat="49.82451" lon="2.53528">
        <ele>46.5</ele>
        <time>2022-12-07T14:19:29Z</time>
      </trkpt>
      <trkpt lat="49.8245" lon="2.53527">
        <ele>46.5</ele>
        <time>2022-12-07T14:19:30Z</time>
      </trkpt>
      <trkpt lat="49.8245" lon="2.53526">
        <ele>46.5</ele>
        <time>2022-12-07T14:19:31Z</time>
      </trkpt>
      <trkpt lat="49.82449" lon="2.53525">
        <ele>46.4</ele>
        <time>2022-12-07T14:19:32Z</time>
      </trkpt>
      <trkpt lat="49.82448" lon="2.53524">
        <ele>46.4</ele>
        <time>2022-12-07T14:19:33Z</time>
      </trkpt>
      <trkpt lat="49.82447" lon="2.53524">
        <ele>46.4</ele>
        <time>2022-12-07T14:19:34Z</time>
      </trkpt>
      <trkpt lat="49.82447" lon="2.53523">
        <ele>46.4</ele>
        <time>2022-12-07T14:19:35Z</time>
      </trkpt>
      <trkpt lat="49.82446" lon="2.53523">
        <ele>46.4</ele>
        <time>2022-12-07T14:19:36Z</time>
      </trkpt>
      <trkpt lat="49.82445" lon="2.53522">
        <ele>46.4</ele>
        <time>2022-12-07T14:19:37Z</time>
      </trkpt>
      <trkpt lat="49.82444" lon="2.53521">
        <ele>46.4</ele>
        <time>2022-12-07T14:19:38Z</time>
      </trkpt>
      <trkpt lat="49.82444" lon="2.5352">
        <ele>46.4</ele>
        <time>2022-12-07T14:19:39Z</time>
      </trkpt>
      <trkpt lat="49.82443" lon="2.5352">
        <ele>46.4</ele>
        <time>2022-12-07T14:19:40Z</time>
      </trkpt>
      <trkpt lat="49.82442" lon="2.53519">
        <ele>46.3</ele>
        <time>2022-12-07T14:19:41Z</time>
      </trkpt>
      <trkpt lat="49.82442" lon="2.53518">
        <ele>46.3</ele>
        <time>2022-12-07T14:19:42Z</time>
      </trkpt>
      <trkpt lat="49.82441" lon="2.53518">
        <ele>46.3</ele>
        <time>2022-12-07T14:19:43Z</time>
      </trkpt>
      <trkpt lat="49.8244" lon="2.53517">
        <ele>46.3</ele>
        <time>2022-12-07T14:19:44Z</time>
      </trkpt>
      <trkpt lat="49.8244" lon="2.53516">
        <ele>46.3</ele>
        <time>2022-12-07T14:19:45Z</time>
      </trkpt>
      <trkpt lat="49.82439" lon="2.53515">
        <ele>46.3</ele>
        <time>2022-12-07T14:19:46Z</time>
      </trkpt>
      <trkpt lat="49.82438" lon="2.53514">
        <ele>46.3</ele>
        <time>2022-12-07T14:19:47Z</time>
      </trkpt>
      <trkpt lat="49.82437" lon="2.53513">
        <ele>46.3</ele>
        <time>2022-12-07T14:19:48Z</time>
      </trkpt>
      <trkpt lat="49.82436" lon="2.53512">
        <ele>46.3</ele>
        <time>2022-12-07T14:19:49Z</time>
      </trkpt>
      <trkpt lat="49.82435" lon="2.53511">
        <ele>46.3</ele>
        <time>2022-12-07T14:19:50Z</time>
      </trkpt>
      <trkpt lat="49.82434" lon="2.5351">
        <ele>46.2</ele>
        <time>2022-12-07T14:19:51Z</time>
      </trkpt>
      <trkpt lat="49.82433" lon="2.53508">
        <ele>46.3</ele>
        <time>2022-12-07T14:19:52Z</time>
      </trkpt>
      <trkpt lat="49.82431" lon="2.53507">
        <ele>46.2</ele>
        <time>2022-12-07T14:19:53Z</time>
      </trkpt>
      <trkpt lat="49.8243" lon="2.53505">
        <ele>46.3</ele>
        <time>2022-12-07T14:19:54Z</time>
      </trkpt>
      <trkpt lat="49.82429" lon="2.53504">
        <ele>46.3</ele>
        <time>2022-12-07T14:19:55Z</time>
      </trkpt>
      <trkpt lat="49.82427" lon="2.53502">
        <ele>46.3</ele>
        <time>2022-12-07T14:19:56Z</time>
      </trkpt>
      <trkpt lat="49.82426" lon="2.53501">
        <ele>46.3</ele>
        <time>2022-12-07T14:19:57Z</time>
      </trkpt>
      <trkpt lat="49.82424" lon="2.535">
        <ele>46.4</ele>
        <time>2022-12-07T14:19:58Z</time>
      </trkpt>
      <trkpt lat="49.82423" lon="2.535">
        <ele>46.3</ele>
        <time>2022-12-07T14:19:59Z</time>
      </trkpt>
      <trkpt lat="49.82422" lon="2.53499">
        <ele>46.4</ele>
        <time>2022-12-07T14:20:00Z</time>
      </trkpt>
      <trkpt lat="49.8242" lon="2.53498">
        <ele>46.4</ele>
        <time>2022-12-07T14:20:01Z</time>
      </trkpt>
      <trkpt lat="49.8242" lon="2.53498">
        <ele>46.4</ele>
        <time>2022-12-07T14:20:02Z</time>
      </trkpt>
      <trkpt lat="49.82419" lon="2.53498">
        <ele>46.4</ele>
        <time>2022-12-07T14:20:03Z</time>
      </trkpt>
      <trkpt lat="49.82418" lon="2.53497">
        <ele>46.4</ele>
        <time>2022-12-07T14:20:04Z</time>
      </trkpt>
      <trkpt lat="49.82417" lon="2.53496">
        <ele>46.5</ele>
        <time>2022-12-07T14:20:05Z</time>
      </trkpt>
      <trkpt lat="49.82416" lon="2.53496">
        <ele>46.5</ele>
        <time>2022-12-07T14:20:06Z</time>
      </trkpt>
      <trkpt lat="49.82415" lon="2.53495">
        <ele>46.4</ele>
        <time>2022-12-07T14:20:07Z</time>
      </trkpt>
      <trkpt lat="49.82414" lon="2.53494">
        <ele>46.5</ele>
        <time>2022-12-07T14:20:08Z</time>
      </trkpt>
      <trkpt lat="49.82413" lon="2.53493">
        <ele>46.5</ele>
        <time>2022-12-07T14:20:09Z</time>
      </trkpt>
      <trkpt lat="49.82412" lon="2.53493">
        <ele>46.4</ele>
        <time>2022-12-07T14:20:10Z</time>
      </trkpt>
      <trkpt lat="49.82411" lon="2.53492">
        <ele>46.5</ele>
        <time>2022-12-07T14:20:11Z</time>
      </trkpt>
      <trkpt lat="49.82411" lon="2.53492">
        <ele>46.5</ele>
        <time>2022-12-07T14:20:12Z</time>
      </trkpt>
      <trkpt lat="49.82409" lon="2.5349">
        <ele>46.5</ele>
        <time>2022-12-07T14:20:13Z</time>
      </trkpt>
      <trkpt lat="49.82409" lon="2.5349">
        <ele>46.6</ele>
        <time>2022-12-07T14:20:14Z</time>
      </trkpt>
      <trkpt lat="49.82408" lon="2.53489">
        <ele>46.6</ele>
        <time>2022-12-07T14:20:15Z</time>
      </trkpt>
      <trkpt lat="49.82407" lon="2.53488">
        <ele>46.5</ele>
        <time>2022-12-07T14:20:16Z</time>
      </trkpt>
      <trkpt lat="49.82407" lon="2.53488">
        <ele>46.6</ele>
        <time>2022-12-07T14:20:17Z</time>
      </trkpt>
      <trkpt lat="49.82406" lon="2.53487">
        <ele>46.6</ele>
        <time>2022-12-07T14:20:18Z</time>
      </trkpt>
      <trkpt lat="49.82405" lon="2.53487">
        <ele>46.6</ele>
        <time>2022-12-07T14:20:19Z</time>
      </trkpt>
      <trkpt lat="49.82404" lon="2.53487">
        <ele>46.6</ele>
        <time>2022-12-07T14:20:20Z</time>
      </trkpt>
      <trkpt lat="49.82403" lon="2.53487">
        <ele>46.5</ele>
        <time>2022-12-07T14:20:21Z</time>
      </trkpt>
      <trkpt lat="49.82402" lon="2.53487">
        <ele>46.6</ele>
        <time>2022-12-07T14:20:22Z</time>
      </trkpt>
      <trkpt lat="49.82402" lon="2.53486">
        <ele>46.6</ele>
        <time>2022-12-07T14:20:23Z</time>
      </trkpt>
      <trkpt lat="49.82401" lon="2.53486">
        <ele>46.5</ele>
        <time>2022-12-07T14:20:24Z</time>
      </trkpt>
      <trkpt lat="49.824" lon="2.53485">
        <ele>46.5</ele>
        <time>2022-12-07T14:20:25Z</time>
      </trkpt>
      <trkpt lat="49.824" lon="2.53484">
        <ele>46.6</ele>
        <time>2022-12-07T14:20:26Z</time>
      </trkpt>
      <trkpt lat="49.82399" lon="2.53484">
        <ele>46.6</ele>
        <time>2022-12-07T14:20:27Z</time>
      </trkpt>
      <trkpt lat="49.82399" lon="2.53483">
        <ele>46.6</ele>
        <time>2022-12-07T14:20:28Z</time>
      </trkpt>
      <trkpt lat="49.82399" lon="2.53482">
        <ele>46.5</ele>
        <time>2022-12-07T14:20:29Z</time>
      </trkpt>
      <trkpt lat="49.82398" lon="2.53482">
        <ele>46.5</ele>
        <time>2022-12-07T14:20:30Z</time>
      </trkpt>
      <trkpt lat="49.82398" lon="2.53481">
        <ele>46.5</ele>
        <time>2022-12-07T14:20:31Z</time>
      </trkpt>
      <trkpt lat="49.82397" lon="2.53481">
        <ele>46.6</ele>
        <time>2022-12-07T14:20:32Z</time>
      </trkpt>
      <trkpt lat="49.82397" lon="2.53481">
        <ele>46.5</ele>
        <time>2022-12-07T14:20:33Z</time>
      </trkpt>
      <trkpt lat="49.82396" lon="2.53481">
        <ele>46.5</ele>
        <time>2022-12-07T14:20:34Z</time>
      </trkpt>
      <trkpt lat="49.82395" lon="2.5348">
        <ele>46.5</ele>
        <time>2022-12-07T14:20:35Z</time>
      </trkpt>
      <trkpt lat="49.82395" lon="2.5348">
        <ele>46.5</ele>
        <time>2022-12-07T14:20:36Z</time>
      </trkpt>
      <trkpt lat="49.82394" lon="2.53479">
        <ele>46.6</ele>
        <time>2022-12-07T14:20:37Z</time>
      </trkpt>
      <trkpt lat="49.82393" lon="2.53478">
        <ele>46.5</ele>
        <time>2022-12-07T14:20:38Z</time>
      </trkpt>
      <trkpt lat="49.82392" lon="2.53477">
        <ele>46.6</ele>
        <time>2022-12-07T14:20:39Z</time>
      </trkpt>
      <trkpt lat="49.82391" lon="2.53477">
        <ele>46.6</ele>
        <time>2022-12-07T14:20:40Z</time>
      </trkpt>
      <trkpt lat="49.82389" lon="2.53475">
        <ele>46.7</ele>
        <time>2022-12-07T14:20:41Z</time>
      </trkpt>
      <trkpt lat="49.82388" lon="2.53474">
        <ele>46.7</ele>
        <time>2022-12-07T14:20:42Z</time>
      </trkpt>
      <trkpt lat="49.82388" lon="2.53474">
        <ele>46.7</ele>
        <time>2022-12-07T14:20:43Z</time>
      </trkpt>
      <trkpt lat="49.82386" lon="2.53472">
        <ele>46.7</ele>
        <time>2022-12-07T14:20:44Z</time>
      </trkpt>
      <trkpt lat="49.82385" lon="2.53471">
        <ele>46.7</ele>
        <time>2022-12-07T14:20:45Z</time>
      </trkpt>
      <trkpt lat="49.82383" lon="2.5347">
        <ele>46.8</ele>
        <time>2022-12-07T14:20:46Z</time>
      </trkpt>
      <trkpt lat="49.82382" lon="2.53469">
        <ele>46.8</ele>
        <time>2022-12-07T14:20:47Z</time>
      </trkpt>
      <trkpt lat="49.8238" lon="2.53467">
        <ele>46.9</ele>
        <time>2022-12-07T14:20:48Z</time>
      </trkpt>
      <trkpt lat="49.82379" lon="2.53466">
        <ele>46.9</ele>
        <time>2022-12-07T14:20:49Z</time>
      </trkpt>
      <trkpt lat="49.82378" lon="2.53465">
        <ele>47</ele>
        <time>2022-12-07T14:20:50Z</time>
      </trkpt>
      <trkpt lat="49.82376" lon="2.53464">
        <ele>47</ele>
        <time>2022-12-07T14:20:51Z</time>
      </trkpt>
      <trkpt lat="49.82375" lon="2.53463">
        <ele>47</ele>
        <time>2022-12-07T14:20:52Z</time>
      </trkpt>
      <trkpt lat="49.82374" lon="2.53462">
        <ele>47</ele>
        <time>2022-12-07T14:20:53Z</time>
      </trkpt>
      <trkpt lat="49.82372" lon="2.53461">
        <ele>47.1</ele>
        <time>2022-12-07T14:20:54Z</time>
      </trkpt>
      <trkpt lat="49.82371" lon="2.53461">
        <ele>47.1</ele>
        <time>2022-12-07T14:20:55Z</time>
      </trkpt>
      <trkpt lat="49.8237" lon="2.5346">
        <ele>47</ele>
        <time>2022-12-07T14:20:56Z</time>
      </trkpt>
      <trkpt lat="49.82369" lon="2.53459">
        <ele>47.1</ele>
        <time>2022-12-07T14:20:57Z</time>
      </trkpt>
      <trkpt lat="49.82368" lon="2.53458">
        <ele>47.1</ele>
        <time>2022-12-07T14:20:58Z</time>
      </trkpt>
      <trkpt lat="49.82368" lon="2.53458">
        <ele>47.1</ele>
        <time>2022-12-07T14:20:59Z</time>
      </trkpt>
      <trkpt lat="49.82366" lon="2.53457">
        <ele>47.1</ele>
        <time>2022-12-07T14:21:00Z</time>
      </trkpt>
      <trkpt lat="49.82365" lon="2.53456">
        <ele>47.1</ele>
        <time>2022-12-07T14:21:01Z</time>
      </trkpt>
      <trkpt lat="49.82365" lon="2.53456">
        <ele>47.1</ele>
        <time>2022-12-07T14:21:02Z</time>
      </trkpt>
      <trkpt lat="49.82364" lon="2.53455">
        <ele>47.2</ele>
        <time>2022-12-07T14:21:03Z</time>
      </trkpt>
      <trkpt lat="49.82363" lon="2.53455">
        <ele>47.1</ele>
        <time>2022-12-07T14:21:04Z</time>
      </trkpt>
      <trkpt lat="49.82362" lon="2.53454">
        <ele>47.1</ele>
        <time>2022-12-07T14:21:05Z</time>
      </trkpt>
      <trkpt lat="49.82362" lon="2.53454">
        <ele>47.1</ele>
        <time>2022-12-07T14:21:06Z</time>
      </trkpt>
      <trkpt lat="49.82361" lon="2.53453">
        <ele>47.1</ele>
        <time>2022-12-07T14:21:07Z</time>
      </trkpt>
      <trkpt lat="49.8236" lon="2.53452">
        <ele>47.1</ele>
        <time>2022-12-07T14:21:08Z</time>
      </trkpt>
      <trkpt lat="49.82359" lon="2.53452">
        <ele>47.1</ele>
        <time>2022-12-07T14:21:09Z</time>
      </trkpt>
      <trkpt lat="49.82359" lon="2.53451">
        <ele>47.1</ele>
        <time>2022-12-07T14:21:10Z</time>
      </trkpt>
      <trkpt lat="49.82358" lon="2.53451">
        <ele>47.1</ele>
        <time>2022-12-07T14:21:11Z</time>
      </trkpt>
      <trkpt lat="49.82357" lon="2.53451">
        <ele>47.1</ele>
        <time>2022-12-07T14:21:12Z</time>
      </trkpt>
      <trkpt lat="49.82356" lon="2.5345">
        <ele>47.1</ele>
        <time>2022-12-07T14:21:13Z</time>
      </trkpt>
      <trkpt lat="49.82355" lon="2.5345">
        <ele>47.1</ele>
        <time>2022-12-07T14:21:14Z</time>
      </trkpt>
      <trkpt lat="49.82354" lon="2.53449">
        <ele>47.1</ele>
        <time>2022-12-07T14:21:15Z</time>
      </trkpt>
      <trkpt lat="49.82353" lon="2.53448">
        <ele>47.1</ele>
        <time>2022-12-07T14:21:16Z</time>
      </trkpt>
      <trkpt lat="49.82353" lon="2.53448">
        <ele>47.1</ele>
        <time>2022-12-07T14:21:17Z</time>
      </trkpt>
      <trkpt lat="49.82352" lon="2.53447">
        <ele>47.1</ele>
        <time>2022-12-07T14:21:18Z</time>
      </trkpt>
      <trkpt lat="49.82351" lon="2.53446">
        <ele>47</ele>
        <time>2022-12-07T14:21:19Z</time>
      </trkpt>
      <trkpt lat="49.8235" lon="2.53445">
        <ele>47.1</ele>
        <time>2022-12-07T14:21:20Z</time>
      </trkpt>
      <trkpt lat="49.82349" lon="2.53444">
        <ele>47.1</ele>
        <time>2022-12-07T14:21:21Z</time>
      </trkpt>
      <trkpt lat="49.82348" lon="2.53443">
        <ele>47</ele>
        <time>2022-12-07T14:21:22Z</time>
      </trkpt>
      <trkpt lat="49.82347" lon="2.53442">
        <ele>47.1</ele>
        <time>2022-12-07T14:21:23Z</time>
      </trkpt>
      <trkpt lat="49.82346" lon="2.53442">
        <ele>47.1</ele>
        <time>2022-12-07T14:21:24Z</time>
      </trkpt>
      <trkpt lat="49.82345" lon="2.53441">
        <ele>47</ele>
        <time>2022-12-07T14:21:25Z</time>
      </trkpt>
      <trkpt lat="49.82344" lon="2.5344">
        <ele>47.1</ele>
        <time>2022-12-07T14:21:26Z</time>
      </trkpt>
      <trkpt lat="49.82343" lon="2.53438">
        <ele>47</ele>
        <time>2022-12-07T14:21:27Z</time>
      </trkpt>
      <trkpt lat="49.82342" lon="2.53437">
        <ele>47.1</ele>
        <time>2022-12-07T14:21:28Z</time>
      </trkpt>
      <trkpt lat="49.82341" lon="2.53436">
        <ele>47.1</ele>
        <time>2022-12-07T14:21:29Z</time>
      </trkpt>
      <trkpt lat="49.82339" lon="2.53435">
        <ele>47</ele>
        <time>2022-12-07T14:21:30Z</time>
      </trkpt>
      <trkpt lat="49.82339" lon="2.53435">
        <ele>47.1</ele>
        <time>2022-12-07T14:21:31Z</time>
      </trkpt>
      <trkpt lat="49.82338" lon="2.53434">
        <ele>47.1</ele>
        <time>2022-12-07T14:21:32Z</time>
      </trkpt>
      <trkpt lat="49.82337" lon="2.53433">
        <ele>47.1</ele>
        <time>2022-12-07T14:21:33Z</time>
      </trkpt>
      <trkpt lat="49.82335" lon="2.53433">
        <ele>47.1</ele>
        <time>2022-12-07T14:21:34Z</time>
      </trkpt>
      <trkpt lat="49.82333" lon="2.53431">
        <ele>47.1</ele>
        <time>2022-12-07T14:21:35Z</time>
      </trkpt>
      <trkpt lat="49.82333" lon="2.53431">
        <ele>47.1</ele>
        <time>2022-12-07T14:21:36Z</time>
      </trkpt>
      <trkpt lat="49.82332" lon="2.5343">
        <ele>47.1</ele>
        <time>2022-12-07T14:21:37Z</time>
      </trkpt>
      <trkpt lat="49.82331" lon="2.53429">
        <ele>47.1</ele>
        <time>2022-12-07T14:21:38Z</time>
      </trkpt>
      <trkpt lat="49.82329" lon="2.53429">
        <ele>47</ele>
        <time>2022-12-07T14:21:39Z</time>
      </trkpt>
      <trkpt lat="49.82328" lon="2.53428">
        <ele>47.1</ele>
        <time>2022-12-07T14:21:40Z</time>
      </trkpt>
      <trkpt lat="49.82326" lon="2.53427">
        <ele>47</ele>
        <time>2022-12-07T14:21:41Z</time>
      </trkpt>
      <trkpt lat="49.82325" lon="2.53426">
        <ele>47.1</ele>
        <time>2022-12-07T14:21:42Z</time>
      </trkpt>
      <trkpt lat="49.82324" lon="2.53425">
        <ele>47</ele>
        <time>2022-12-07T14:21:43Z</time>
      </trkpt>
      <trkpt lat="49.82322" lon="2.53423">
        <ele>47</ele>
        <time>2022-12-07T14:21:44Z</time>
      </trkpt>
      <trkpt lat="49.82321" lon="2.53422">
        <ele>47</ele>
        <time>2022-12-07T14:21:45Z</time>
      </trkpt>
      <trkpt lat="49.82321" lon="2.53421">
        <ele>47</ele>
        <time>2022-12-07T14:21:46Z</time>
      </trkpt>
      <trkpt lat="49.8232" lon="2.5342">
        <ele>47</ele>
        <time>2022-12-07T14:21:47Z</time>
      </trkpt>
      <trkpt lat="49.82318" lon="2.53418">
        <ele>47</ele>
        <time>2022-12-07T14:21:48Z</time>
      </trkpt>
      <trkpt lat="49.82317" lon="2.53417">
        <ele>47</ele>
        <time>2022-12-07T14:21:49Z</time>
      </trkpt>
      <trkpt lat="49.82316" lon="2.53416">
        <ele>46.9</ele>
        <time>2022-12-07T14:21:50Z</time>
      </trkpt>
      <trkpt lat="49.82315" lon="2.53415">
        <ele>46.9</ele>
        <time>2022-12-07T14:21:51Z</time>
      </trkpt>
      <trkpt lat="49.82314" lon="2.53415">
        <ele>46.9</ele>
        <time>2022-12-07T14:21:52Z</time>
      </trkpt>
      <trkpt lat="49.82313" lon="2.53414">
        <ele>46.9</ele>
        <time>2022-12-07T14:21:53Z</time>
      </trkpt>
      <trkpt lat="49.82312" lon="2.53413">
        <ele>46.9</ele>
        <time>2022-12-07T14:21:54Z</time>
      </trkpt>
      <trkpt lat="49.82311" lon="2.53412">
        <ele>46.9</ele>
        <time>2022-12-07T14:21:55Z</time>
      </trkpt>
      <trkpt lat="49.8231" lon="2.53412">
        <ele>46.9</ele>
        <time>2022-12-07T14:21:56Z</time>
      </trkpt>
      <trkpt lat="49.82309" lon="2.53411">
        <ele>46.9</ele>
        <time>2022-12-07T14:21:57Z</time>
      </trkpt>
      <trkpt lat="49.82308" lon="2.5341">
        <ele>46.9</ele>
        <time>2022-12-07T14:21:58Z</time>
      </trkpt>
      <trkpt lat="49.82307" lon="2.5341">
        <ele>46.8</ele>
        <time>2022-12-07T14:21:59Z</time>
      </trkpt>
      <trkpt lat="49.82306" lon="2.53409">
        <ele>46.8</ele>
        <time>2022-12-07T14:22:00Z</time>
      </trkpt>
      <trkpt lat="49.82305" lon="2.53408">
        <ele>46.8</ele>
        <time>2022-12-07T14:22:01Z</time>
      </trkpt>
      <trkpt lat="49.82304" lon="2.53408">
        <ele>46.8</ele>
        <time>2022-12-07T14:22:02Z</time>
      </trkpt>
      <trkpt lat="49.82303" lon="2.53407">
        <ele>46.8</ele>
        <time>2022-12-07T14:22:03Z</time>
      </trkpt>
      <trkpt lat="49.82303" lon="2.53406">
        <ele>46.8</ele>
        <time>2022-12-07T14:22:04Z</time>
      </trkpt>
      <trkpt lat="49.82302" lon="2.53406">
        <ele>46.7</ele>
        <time>2022-12-07T14:22:05Z</time>
      </trkpt>
      <trkpt lat="49.823" lon="2.53405">
        <ele>46.7</ele>
        <time>2022-12-07T14:22:06Z</time>
      </trkpt>
      <trkpt lat="49.82299" lon="2.53404">
        <ele>46.7</ele>
        <time>2022-12-07T14:22:07Z</time>
      </trkpt>
      <trkpt lat="49.82298" lon="2.53404">
        <ele>46.7</ele>
        <time>2022-12-07T14:22:08Z</time>
      </trkpt>
      <trkpt lat="49.82297" lon="2.53403">
        <ele>46.7</ele>
        <time>2022-12-07T14:22:09Z</time>
      </trkpt>
      <trkpt lat="49.82297" lon="2.53402">
        <ele>46.6</ele>
        <time>2022-12-07T14:22:10Z</time>
      </trkpt>
      <trkpt lat="49.82296" lon="2.53401">
        <ele>46.6</ele>
        <time>2022-12-07T14:22:11Z</time>
      </trkpt>
      <trkpt lat="49.82295" lon="2.534">
        <ele>46.6</ele>
        <time>2022-12-07T14:22:12Z</time>
      </trkpt>
      <trkpt lat="49.82294" lon="2.534">
        <ele>46.5</ele>
        <time>2022-12-07T14:22:13Z</time>
      </trkpt>
      <trkpt lat="49.82293" lon="2.53399">
        <ele>46.5</ele>
        <time>2022-12-07T14:22:14Z</time>
      </trkpt>
      <trkpt lat="49.82292" lon="2.53398">
        <ele>46.4</ele>
        <time>2022-12-07T14:22:15Z</time>
      </trkpt>
      <trkpt lat="49.82291" lon="2.53398">
        <ele>46.4</ele>
        <time>2022-12-07T14:22:16Z</time>
      </trkpt>
      <trkpt lat="49.8229" lon="2.53397">
        <ele>46.3</ele>
        <time>2022-12-07T14:22:17Z</time>
      </trkpt>
      <trkpt lat="49.82289" lon="2.53397">
        <ele>46.3</ele>
        <time>2022-12-07T14:22:18Z</time>
      </trkpt>
      <trkpt lat="49.82289" lon="2.53396">
        <ele>46.3</ele>
        <time>2022-12-07T14:22:19Z</time>
      </trkpt>
      <trkpt lat="49.82288" lon="2.53395">
        <ele>46.2</ele>
        <time>2022-12-07T14:22:20Z</time>
      </trkpt>
      <trkpt lat="49.82287" lon="2.53395">
        <ele>46.2</ele>
        <time>2022-12-07T14:22:21Z</time>
      </trkpt>
      <trkpt lat="49.82286" lon="2.53394">
        <ele>46.1</ele>
        <time>2022-12-07T14:22:22Z</time>
      </trkpt>
      <trkpt lat="49.82285" lon="2.53394">
        <ele>46.1</ele>
        <time>2022-12-07T14:22:23Z</time>
      </trkpt>
      <trkpt lat="49.82285" lon="2.53393">
        <ele>46</ele>
        <time>2022-12-07T14:22:24Z</time>
      </trkpt>
      <trkpt lat="49.82284" lon="2.53393">
        <ele>45.9</ele>
        <time>2022-12-07T14:22:25Z</time>
      </trkpt>
      <trkpt lat="49.82283" lon="2.53392">
        <ele>45.9</ele>
        <time>2022-12-07T14:22:26Z</time>
      </trkpt>
      <trkpt lat="49.82283" lon="2.53392">
        <ele>45.9</ele>
        <time>2022-12-07T14:22:27Z</time>
      </trkpt>
      <trkpt lat="49.82282" lon="2.53392">
        <ele>45.8</ele>
        <time>2022-12-07T14:22:28Z</time>
      </trkpt>
      <trkpt lat="49.82281" lon="2.53391">
        <ele>45.8</ele>
        <time>2022-12-07T14:22:29Z</time>
      </trkpt>
      <trkpt lat="49.8228" lon="2.53391">
        <ele>45.7</ele>
        <time>2022-12-07T14:22:30Z</time>
      </trkpt>
      <trkpt lat="49.82279" lon="2.53391">
        <ele>45.7</ele>
        <time>2022-12-07T14:22:31Z</time>
      </trkpt>
      <trkpt lat="49.82278" lon="2.53391">
        <ele>45.6</ele>
        <time>2022-12-07T14:22:32Z</time>
      </trkpt>
      <trkpt lat="49.82277" lon="2.53391">
        <ele>45.6</ele>
        <time>2022-12-07T14:22:33Z</time>
      </trkpt>
      <trkpt lat="49.82276" lon="2.53391">
        <ele>45.6</ele>
        <time>2022-12-07T14:22:34Z</time>
      </trkpt>
      <trkpt lat="49.82275" lon="2.53391">
        <ele>45.5</ele>
        <time>2022-12-07T14:22:35Z</time>
      </trkpt>
      <trkpt lat="49.82275" lon="2.53391">
        <ele>45.5</ele>
        <time>2022-12-07T14:22:36Z</time>
      </trkpt>
      <trkpt lat="49.82274" lon="2.53391">
        <ele>45.4</ele>
        <time>2022-12-07T14:22:37Z</time>
      </trkpt>
      <trkpt lat="49.82273" lon="2.53391">
        <ele>45.4</ele>
        <time>2022-12-07T14:22:38Z</time>
      </trkpt>
      <trkpt lat="49.82273" lon="2.53391">
        <ele>45.3</ele>
        <time>2022-12-07T14:22:39Z</time>
      </trkpt>
      <trkpt lat="49.82272" lon="2.53391">
        <ele>45.3</ele>
        <time>2022-12-07T14:22:40Z</time>
      </trkpt>
      <trkpt lat="49.82272" lon="2.53391">
        <ele>45.3</ele>
        <time>2022-12-07T14:22:41Z</time>
      </trkpt>
      <trkpt lat="49.82271" lon="2.53391">
        <ele>45.2</ele>
        <time>2022-12-07T14:22:42Z</time>
      </trkpt>
      <trkpt lat="49.82271" lon="2.53391">
        <ele>45.2</ele>
        <time>2022-12-07T14:22:43Z</time>
      </trkpt>
      <trkpt lat="49.8227" lon="2.53391">
        <ele>45.2</ele>
        <time>2022-12-07T14:22:44Z</time>
      </trkpt>
      <trkpt lat="49.8227" lon="2.5339">
        <ele>45.1</ele>
        <time>2022-12-07T14:22:45Z</time>
      </trkpt>
      <trkpt lat="49.82269" lon="2.5339">
        <ele>45.1</ele>
        <time>2022-12-07T14:22:46Z</time>
      </trkpt>
      <trkpt lat="49.82268" lon="2.5339">
        <ele>45</ele>
        <time>2022-12-07T14:22:47Z</time>
      </trkpt>
      <trkpt lat="49.82268" lon="2.53389">
        <ele>45</ele>
        <time>2022-12-07T14:22:48Z</time>
      </trkpt>
      <trkpt lat="49.82267" lon="2.53389">
        <ele>44.9</ele>
        <time>2022-12-07T14:22:49Z</time>
      </trkpt>
      <trkpt lat="49.82267" lon="2.53389">
        <ele>44.8</ele>
        <time>2022-12-07T14:22:50Z</time>
      </trkpt>
      <trkpt lat="49.82266" lon="2.53388">
        <ele>44.8</ele>
        <time>2022-12-07T14:22:51Z</time>
      </trkpt>
      <trkpt lat="49.82265" lon="2.53387">
        <ele>44.8</ele>
        <time>2022-12-07T14:22:52Z</time>
      </trkpt>
      <trkpt lat="49.82265" lon="2.53387">
        <ele>44.7</ele>
        <time>2022-12-07T14:22:53Z</time>
      </trkpt>
      <trkpt lat="49.82264" lon="2.53386">
        <ele>44.7</ele>
        <time>2022-12-07T14:22:54Z</time>
      </trkpt>
      <trkpt lat="49.82263" lon="2.53385">
        <ele>44.6</ele>
        <time>2022-12-07T14:22:55Z</time>
      </trkpt>
      <trkpt lat="49.82262" lon="2.53384">
        <ele>44.5</ele>
        <time>2022-12-07T14:22:56Z</time>
      </trkpt>
      <trkpt lat="49.82261" lon="2.53384">
        <ele>44.5</ele>
        <time>2022-12-07T14:22:57Z</time>
      </trkpt>
      <trkpt lat="49.82261" lon="2.53383">
        <ele>44.4</ele>
        <time>2022-12-07T14:22:58Z</time>
      </trkpt>
      <trkpt lat="49.8226" lon="2.53382">
        <ele>44.4</ele>
        <time>2022-12-07T14:22:59Z</time>
      </trkpt>
      <trkpt lat="49.82259" lon="2.53382">
        <ele>44.3</ele>
        <time>2022-12-07T14:23:00Z</time>
      </trkpt>
      <trkpt lat="49.82258" lon="2.53381">
        <ele>44.2</ele>
        <time>2022-12-07T14:23:01Z</time>
      </trkpt>
      <trkpt lat="49.82256" lon="2.53379">
        <ele>44.1</ele>
        <time>2022-12-07T14:23:02Z</time>
      </trkpt>
      <trkpt lat="49.82255" lon="2.53378">
        <ele>44.1</ele>
        <time>2022-12-07T14:23:03Z</time>
      </trkpt>
      <trkpt lat="49.82254" lon="2.53377">
        <ele>44.1</ele>
        <time>2022-12-07T14:23:04Z</time>
      </trkpt>
      <trkpt lat="49.82253" lon="2.53376">
        <ele>44.1</ele>
        <time>2022-12-07T14:23:05Z</time>
      </trkpt>
      <trkpt lat="49.82252" lon="2.53374">
        <ele>44.1</ele>
        <time>2022-12-07T14:23:06Z</time>
      </trkpt>
      <trkpt lat="49.82251" lon="2.53371">
        <ele>44.1</ele>
        <time>2022-12-07T14:23:07Z</time>
      </trkpt>
      <trkpt lat="49.8225" lon="2.5337">
        <ele>44.1</ele>
        <time>2022-12-07T14:23:08Z</time>
      </trkpt>
      <trkpt lat="49.8225" lon="2.53369">
        <ele>44.1</ele>
        <time>2022-12-07T14:23:09Z</time>
      </trkpt>
      <trkpt lat="49.82249" lon="2.53367">
        <ele>44.1</ele>
        <time>2022-12-07T14:23:10Z</time>
      </trkpt>
      <trkpt lat="49.82248" lon="2.53365">
        <ele>44.1</ele>
        <time>2022-12-07T14:23:11Z</time>
      </trkpt>
      <trkpt lat="49.82247" lon="2.53364">
        <ele>44.1</ele>
        <time>2022-12-07T14:23:12Z</time>
      </trkpt>
      <trkpt lat="49.82245" lon="2.53362">
        <ele>44.1</ele>
        <time>2022-12-07T14:23:13Z</time>
      </trkpt>
      <trkpt lat="49.82244" lon="2.5336">
        <ele>44.1</ele>
        <time>2022-12-07T14:23:14Z</time>
      </trkpt>
      <trkpt lat="49.82243" lon="2.5336">
        <ele>44.1</ele>
        <time>2022-12-07T14:23:15Z</time>
      </trkpt>
      <trkpt lat="49.82242" lon="2.53359">
        <ele>44.1</ele>
        <time>2022-12-07T14:23:16Z</time>
      </trkpt>
      <trkpt lat="49.82241" lon="2.53358">
        <ele>44.1</ele>
        <time>2022-12-07T14:23:17Z</time>
      </trkpt>
      <trkpt lat="49.8224" lon="2.53357">
        <ele>44.1</ele>
        <time>2022-12-07T14:23:18Z</time>
      </trkpt>
      <trkpt lat="49.82239" lon="2.53356">
        <ele>44.1</ele>
        <time>2022-12-07T14:23:19Z</time>
      </trkpt>
      <trkpt lat="49.82238" lon="2.53353">
        <ele>44.1</ele>
        <time>2022-12-07T14:23:20Z</time>
      </trkpt>
      <trkpt lat="49.82237" lon="2.53353">
        <ele>44.1</ele>
        <time>2022-12-07T14:23:21Z</time>
      </trkpt>
      <trkpt lat="49.82236" lon="2.53352">
        <ele>44.1</ele>
        <time>2022-12-07T14:23:22Z</time>
      </trkpt>
      <trkpt lat="49.82236" lon="2.53351">
        <ele>44.1</ele>
        <time>2022-12-07T14:23:23Z</time>
      </trkpt>
      <trkpt lat="49.82235" lon="2.5335">
        <ele>44.1</ele>
        <time>2022-12-07T14:23:24Z</time>
      </trkpt>
      <trkpt lat="49.82234" lon="2.53348">
        <ele>44.1</ele>
        <time>2022-12-07T14:23:25Z</time>
      </trkpt>
      <trkpt lat="49.82232" lon="2.53347">
        <ele>44.1</ele>
        <time>2022-12-07T14:23:26Z</time>
      </trkpt>
      <trkpt lat="49.82231" lon="2.53346">
        <ele>44.1</ele>
        <time>2022-12-07T14:23:27Z</time>
      </trkpt>
      <trkpt lat="49.82231" lon="2.53345">
        <ele>44.1</ele>
        <time>2022-12-07T14:23:28Z</time>
      </trkpt>
      <trkpt lat="49.8223" lon="2.53345">
        <ele>44.1</ele>
        <time>2022-12-07T14:23:29Z</time>
      </trkpt>
      <trkpt lat="49.82229" lon="2.53344">
        <ele>44.1</ele>
        <time>2022-12-07T14:23:30Z</time>
      </trkpt>
      <trkpt lat="49.82228" lon="2.53343">
        <ele>44.1</ele>
        <time>2022-12-07T14:23:31Z</time>
      </trkpt>
      <trkpt lat="49.82227" lon="2.53342">
        <ele>44.1</ele>
        <time>2022-12-07T14:23:32Z</time>
      </trkpt>
      <trkpt lat="49.82227" lon="2.53341">
        <ele>44.1</ele>
        <time>2022-12-07T14:23:33Z</time>
      </trkpt>
      <trkpt lat="49.82226" lon="2.5334">
        <ele>44.2</ele>
        <time>2022-12-07T14:23:34Z</time>
      </trkpt>
      <trkpt lat="49.82225" lon="2.5334">
        <ele>44.2</ele>
        <time>2022-12-07T14:23:35Z</time>
      </trkpt>
      <trkpt lat="49.82224" lon="2.53339">
        <ele>44.2</ele>
        <time>2022-12-07T14:23:36Z</time>
      </trkpt>
      <trkpt lat="49.82224" lon="2.53338">
        <ele>44.2</ele>
        <time>2022-12-07T14:23:37Z</time>
      </trkpt>
      <trkpt lat="49.82223" lon="2.53337">
        <ele>44.2</ele>
        <time>2022-12-07T14:23:38Z</time>
      </trkpt>
      <trkpt lat="49.82222" lon="2.53336">
        <ele>44.3</ele>
        <time>2022-12-07T14:23:39Z</time>
      </trkpt>
      <trkpt lat="49.82221" lon="2.53336">
        <ele>44.3</ele>
        <time>2022-12-07T14:23:40Z</time>
      </trkpt>
      <trkpt lat="49.8222" lon="2.53335">
        <ele>44.3</ele>
        <time>2022-12-07T14:23:41Z</time>
      </trkpt>
      <trkpt lat="49.82219" lon="2.53334">
        <ele>44.3</ele>
        <time>2022-12-07T14:23:42Z</time>
      </trkpt>
      <trkpt lat="49.82218" lon="2.53333">
        <ele>44.4</ele>
        <time>2022-12-07T14:23:43Z</time>
      </trkpt>
      <trkpt lat="49.82216" lon="2.53332">
        <ele>44.4</ele>
        <time>2022-12-07T14:23:44Z</time>
      </trkpt>
      <trkpt lat="49.82215" lon="2.53331">
        <ele>44.4</ele>
        <time>2022-12-07T14:23:45Z</time>
      </trkpt>
      <trkpt lat="49.82214" lon="2.53331">
        <ele>44.4</ele>
        <time>2022-12-07T14:23:46Z</time>
      </trkpt>
      <trkpt lat="49.82212" lon="2.53329">
        <ele>44.5</ele>
        <time>2022-12-07T14:23:47Z</time>
      </trkpt>
      <trkpt lat="49.82212" lon="2.53328">
        <ele>44.5</ele>
        <time>2022-12-07T14:23:48Z</time>
      </trkpt>
      <trkpt lat="49.82211" lon="2.53327">
        <ele>44.5</ele>
        <time>2022-12-07T14:23:49Z</time>
      </trkpt>
      <trkpt lat="49.8221" lon="2.53326">
        <ele>44.5</ele>
        <time>2022-12-07T14:23:50Z</time>
      </trkpt>
      <trkpt lat="49.82209" lon="2.53325">
        <ele>44.6</ele>
        <time>2022-12-07T14:23:51Z</time>
      </trkpt>
      <trkpt lat="49.82208" lon="2.53323">
        <ele>44.6</ele>
        <time>2022-12-07T14:23:52Z</time>
      </trkpt>
      <trkpt lat="49.82207" lon="2.53322">
        <ele>44.6</ele>
        <time>2022-12-07T14:23:53Z</time>
      </trkpt>
      <trkpt lat="49.82205" lon="2.5332">
        <ele>44.6</ele>
        <time>2022-12-07T14:23:54Z</time>
      </trkpt>
      <trkpt lat="49.82205" lon="2.53319">
        <ele>44.6</ele>
        <time>2022-12-07T14:23:55Z</time>
      </trkpt>
      <trkpt lat="49.82204" lon="2.53318">
        <ele>44.7</ele>
        <time>2022-12-07T14:23:56Z</time>
      </trkpt>
      <trkpt lat="49.82202" lon="2.53316">
        <ele>44.7</ele>
        <time>2022-12-07T14:23:57Z</time>
      </trkpt>
      <trkpt lat="49.82202" lon="2.53315">
        <ele>44.7</ele>
        <time>2022-12-07T14:23:58Z</time>
      </trkpt>
      <trkpt lat="49.82201" lon="2.53314">
        <ele>44.7</ele>
        <time>2022-12-07T14:23:59Z</time>
      </trkpt>
      <trkpt lat="49.82199" lon="2.53312">
        <ele>44.7</ele>
        <time>2022-12-07T14:24:00Z</time>
      </trkpt>
      <trkpt lat="49.82199" lon="2.53312">
        <ele>44.8</ele>
        <time>2022-12-07T14:24:01Z</time>
      </trkpt>
      <trkpt lat="49.82198" lon="2.53311">
        <ele>44.8</ele>
        <time>2022-12-07T14:24:02Z</time>
      </trkpt>
      <trkpt lat="49.82197" lon="2.5331">
        <ele>44.8</ele>
        <time>2022-12-07T14:24:03Z</time>
      </trkpt>
      <trkpt lat="49.82196" lon="2.53309">
        <ele>44.8</ele>
        <time>2022-12-07T14:24:04Z</time>
      </trkpt>
      <trkpt lat="49.82195" lon="2.53308">
        <ele>44.8</ele>
        <time>2022-12-07T14:24:05Z</time>
      </trkpt>
      <trkpt lat="49.82194" lon="2.53307">
        <ele>44.8</ele>
        <time>2022-12-07T14:24:06Z</time>
      </trkpt>
      <trkpt lat="49.82193" lon="2.53306">
        <ele>44.9</ele>
        <time>2022-12-07T14:24:07Z</time>
      </trkpt>
      <trkpt lat="49.82192" lon="2.53305">
        <ele>44.9</ele>
        <time>2022-12-07T14:24:08Z</time>
      </trkpt>
      <trkpt lat="49.82192" lon="2.53304">
        <ele>44.9</ele>
        <time>2022-12-07T14:24:09Z</time>
      </trkpt>
      <trkpt lat="49.82191" lon="2.53303">
        <ele>44.9</ele>
        <time>2022-12-07T14:24:10Z</time>
      </trkpt>
      <trkpt lat="49.8219" lon="2.53301">
        <ele>44.9</ele>
        <time>2022-12-07T14:24:11Z</time>
      </trkpt>
      <trkpt lat="49.82189" lon="2.533">
        <ele>45</ele>
        <time>2022-12-07T14:24:12Z</time>
      </trkpt>
      <trkpt lat="49.82189" lon="2.53299">
        <ele>45</ele>
        <time>2022-12-07T14:24:13Z</time>
      </trkpt>
      <trkpt lat="49.82188" lon="2.53298">
        <ele>45</ele>
        <time>2022-12-07T14:24:14Z</time>
      </trkpt>
      <trkpt lat="49.82187" lon="2.53297">
        <ele>45</ele>
        <time>2022-12-07T14:24:15Z</time>
      </trkpt>
      <trkpt lat="49.82186" lon="2.53296">
        <ele>45</ele>
        <time>2022-12-07T14:24:16Z</time>
      </trkpt>
      <trkpt lat="49.82186" lon="2.53295">
        <ele>45</ele>
        <time>2022-12-07T14:24:17Z</time>
      </trkpt>
      <trkpt lat="49.82185" lon="2.53294">
        <ele>45</ele>
        <time>2022-12-07T14:24:18Z</time>
      </trkpt>
      <trkpt lat="49.82184" lon="2.53292">
        <ele>45</ele>
        <time>2022-12-07T14:24:19Z</time>
      </trkpt>
      <trkpt lat="49.82183" lon="2.53291">
        <ele>45</ele>
        <time>2022-12-07T14:24:20Z</time>
      </trkpt>
      <trkpt lat="49.82182" lon="2.5329">
        <ele>45</ele>
        <time>2022-12-07T14:24:21Z</time>
      </trkpt>
      <trkpt lat="49.82181" lon="2.53289">
        <ele>45</ele>
        <time>2022-12-07T14:24:22Z</time>
      </trkpt>
      <trkpt lat="49.82181" lon="2.53288">
        <ele>45</ele>
        <time>2022-12-07T14:24:23Z</time>
      </trkpt>
      <trkpt lat="49.8218" lon="2.53287">
        <ele>45</ele>
        <time>2022-12-07T14:24:24Z</time>
      </trkpt>
      <trkpt lat="49.82179" lon="2.53286">
        <ele>45</ele>
        <time>2022-12-07T14:24:25Z</time>
      </trkpt>
      <trkpt lat="49.82178" lon="2.53285">
        <ele>45</ele>
        <time>2022-12-07T14:24:26Z</time>
      </trkpt>
      <trkpt lat="49.82177" lon="2.53284">
        <ele>45</ele>
        <time>2022-12-07T14:24:27Z</time>
      </trkpt>
      <trkpt lat="49.82177" lon="2.53283">
        <ele>45</ele>
        <time>2022-12-07T14:24:28Z</time>
      </trkpt>
      <trkpt lat="49.82176" lon="2.53282">
        <ele>45</ele>
        <time>2022-12-07T14:24:29Z</time>
      </trkpt>
      <trkpt lat="49.82175" lon="2.53281">
        <ele>45</ele>
        <time>2022-12-07T14:24:30Z</time>
      </trkpt>
      <trkpt lat="49.82174" lon="2.5328">
        <ele>45</ele>
        <time>2022-12-07T14:24:31Z</time>
      </trkpt>
      <trkpt lat="49.82173" lon="2.53278">
        <ele>44.9</ele>
        <time>2022-12-07T14:24:32Z</time>
      </trkpt>
      <trkpt lat="49.82172" lon="2.53277">
        <ele>44.9</ele>
        <time>2022-12-07T14:24:33Z</time>
      </trkpt>
      <trkpt lat="49.82172" lon="2.53276">
        <ele>44.9</ele>
        <time>2022-12-07T14:24:34Z</time>
      </trkpt>
      <trkpt lat="49.82171" lon="2.53275">
        <ele>44.9</ele>
        <time>2022-12-07T14:24:35Z</time>
      </trkpt>
      <trkpt lat="49.8217" lon="2.53274">
        <ele>44.9</ele>
        <time>2022-12-07T14:24:36Z</time>
      </trkpt>
      <trkpt lat="49.82169" lon="2.53273">
        <ele>44.9</ele>
        <time>2022-12-07T14:24:37Z</time>
      </trkpt>
      <trkpt lat="49.82168" lon="2.53272">
        <ele>44.9</ele>
        <time>2022-12-07T14:24:38Z</time>
      </trkpt>
      <trkpt lat="49.82168" lon="2.53272">
        <ele>44.9</ele>
        <time>2022-12-07T14:24:39Z</time>
      </trkpt>
      <trkpt lat="49.82167" lon="2.53271">
        <ele>44.9</ele>
        <time>2022-12-07T14:24:40Z</time>
      </trkpt>
      <trkpt lat="49.82166" lon="2.5327">
        <ele>44.9</ele>
        <time>2022-12-07T14:24:41Z</time>
      </trkpt>
      <trkpt lat="49.82165" lon="2.53269">
        <ele>44.9</ele>
        <time>2022-12-07T14:24:42Z</time>
      </trkpt>
      <trkpt lat="49.82164" lon="2.53268">
        <ele>44.9</ele>
        <time>2022-12-07T14:24:43Z</time>
      </trkpt>
      <trkpt lat="49.82163" lon="2.53267">
        <ele>44.9</ele>
        <time>2022-12-07T14:24:44Z</time>
      </trkpt>
      <trkpt lat="49.82162" lon="2.53266">
        <ele>44.9</ele>
        <time>2022-12-07T14:24:45Z</time>
      </trkpt>
      <trkpt lat="49.82162" lon="2.53266">
        <ele>44.9</ele>
        <time>2022-12-07T14:24:46Z</time>
      </trkpt>
      <trkpt lat="49.8216" lon="2.53265">
        <ele>44.9</ele>
        <time>2022-12-07T14:24:47Z</time>
      </trkpt>
      <trkpt lat="49.82159" lon="2.53264">
        <ele>44.9</ele>
        <time>2022-12-07T14:24:48Z</time>
      </trkpt>
      <trkpt lat="49.82158" lon="2.53263">
        <ele>44.9</ele>
        <time>2022-12-07T14:24:49Z</time>
      </trkpt>
      <trkpt lat="49.82157" lon="2.53262">
        <ele>44.9</ele>
        <time>2022-12-07T14:24:50Z</time>
      </trkpt>
      <trkpt lat="49.82156" lon="2.53261">
        <ele>44.9</ele>
        <time>2022-12-07T14:24:51Z</time>
      </trkpt>
      <trkpt lat="49.82155" lon="2.5326">
        <ele>44.9</ele>
        <time>2022-12-07T14:24:52Z</time>
      </trkpt>
      <trkpt lat="49.82154" lon="2.5326">
        <ele>44.9</ele>
        <time>2022-12-07T14:24:53Z</time>
      </trkpt>
      <trkpt lat="49.82153" lon="2.53259">
        <ele>45</ele>
        <time>2022-12-07T14:24:54Z</time>
      </trkpt>
      <trkpt lat="49.82152" lon="2.53258">
        <ele>45</ele>
        <time>2022-12-07T14:24:55Z</time>
      </trkpt>
      <trkpt lat="49.82151" lon="2.53257">
        <ele>45</ele>
        <time>2022-12-07T14:24:56Z</time>
      </trkpt>
      <trkpt lat="49.8215" lon="2.53255">
        <ele>45</ele>
        <time>2022-12-07T14:24:57Z</time>
      </trkpt>
      <trkpt lat="49.82149" lon="2.53255">
        <ele>45</ele>
        <time>2022-12-07T14:24:58Z</time>
      </trkpt>
      <trkpt lat="49.82148" lon="2.53254">
        <ele>45</ele>
        <time>2022-12-07T14:24:59Z</time>
      </trkpt>
      <trkpt lat="49.82146" lon="2.53252">
        <ele>45.1</ele>
        <time>2022-12-07T14:25:00Z</time>
      </trkpt>
      <trkpt lat="49.82146" lon="2.53251">
        <ele>45.1</ele>
        <time>2022-12-07T14:25:01Z</time>
      </trkpt>
      <trkpt lat="49.82145" lon="2.5325">
        <ele>45.1</ele>
        <time>2022-12-07T14:25:02Z</time>
      </trkpt>
      <trkpt lat="49.82144" lon="2.5325">
        <ele>45.1</ele>
        <time>2022-12-07T14:25:03Z</time>
      </trkpt>
      <trkpt lat="49.82143" lon="2.53248">
        <ele>45.2</ele>
        <time>2022-12-07T14:25:04Z</time>
      </trkpt>
      <trkpt lat="49.82142" lon="2.53247">
        <ele>45.2</ele>
        <time>2022-12-07T14:25:05Z</time>
      </trkpt>
      <trkpt lat="49.82141" lon="2.53246">
        <ele>45.2</ele>
        <time>2022-12-07T14:25:06Z</time>
      </trkpt>
      <trkpt lat="49.8214" lon="2.53245">
        <ele>45.2</ele>
        <time>2022-12-07T14:25:07Z</time>
      </trkpt>
      <trkpt lat="49.8214" lon="2.53244">
        <ele>45.2</ele>
        <time>2022-12-07T14:25:08Z</time>
      </trkpt>
      <trkpt lat="49.82139" lon="2.53243">
        <ele>45.2</ele>
        <time>2022-12-07T14:25:09Z</time>
      </trkpt>
      <trkpt lat="49.82138" lon="2.53242">
        <ele>45.3</ele>
        <time>2022-12-07T14:25:10Z</time>
      </trkpt>
      <trkpt lat="49.82137" lon="2.53241">
        <ele>45.3</ele>
        <time>2022-12-07T14:25:11Z</time>
      </trkpt>
      <trkpt lat="49.82136" lon="2.5324">
        <ele>45.3</ele>
        <time>2022-12-07T14:25:12Z</time>
      </trkpt>
      <trkpt lat="49.82135" lon="2.53239">
        <ele>45.3</ele>
        <time>2022-12-07T14:25:13Z</time>
      </trkpt>
      <trkpt lat="49.82134" lon="2.53238">
        <ele>45.3</ele>
        <time>2022-12-07T14:25:14Z</time>
      </trkpt>
      <trkpt lat="49.82133" lon="2.53238">
        <ele>45.3</ele>
        <time>2022-12-07T14:25:15Z</time>
      </trkpt>
      <trkpt lat="49.82132" lon="2.53237">
        <ele>45.3</ele>
        <time>2022-12-07T14:25:16Z</time>
      </trkpt>
      <trkpt lat="49.82131" lon="2.53236">
        <ele>45.3</ele>
        <time>2022-12-07T14:25:17Z</time>
      </trkpt>
      <trkpt lat="49.8213" lon="2.53235">
        <ele>45.3</ele>
        <time>2022-12-07T14:25:18Z</time>
      </trkpt>
      <trkpt lat="49.82129" lon="2.53234">
        <ele>45.3</ele>
        <time>2022-12-07T14:25:19Z</time>
      </trkpt>
      <trkpt lat="49.82128" lon="2.53234">
        <ele>45.3</ele>
        <time>2022-12-07T14:25:20Z</time>
      </trkpt>
      <trkpt lat="49.82127" lon="2.53233">
        <ele>45.3</ele>
        <time>2022-12-07T14:25:21Z</time>
      </trkpt>
      <trkpt lat="49.82126" lon="2.53232">
        <ele>45.3</ele>
        <time>2022-12-07T14:25:22Z</time>
      </trkpt>
      <trkpt lat="49.82125" lon="2.53231">
        <ele>45.3</ele>
        <time>2022-12-07T14:25:23Z</time>
      </trkpt>
      <trkpt lat="49.82124" lon="2.5323">
        <ele>45.3</ele>
        <time>2022-12-07T14:25:24Z</time>
      </trkpt>
      <trkpt lat="49.82123" lon="2.53229">
        <ele>45.3</ele>
        <time>2022-12-07T14:25:25Z</time>
      </trkpt>
      <trkpt lat="49.82123" lon="2.53228">
        <ele>45.4</ele>
        <time>2022-12-07T14:25:26Z</time>
      </trkpt>
      <trkpt lat="49.82122" lon="2.53228">
        <ele>45.4</ele>
        <time>2022-12-07T14:25:27Z</time>
      </trkpt>
      <trkpt lat="49.82121" lon="2.53227">
        <ele>45.4</ele>
        <time>2022-12-07T14:25:28Z</time>
      </trkpt>
      <trkpt lat="49.8212" lon="2.53226">
        <ele>45.4</ele>
        <time>2022-12-07T14:25:29Z</time>
      </trkpt>
      <trkpt lat="49.82119" lon="2.53225">
        <ele>45.5</ele>
        <time>2022-12-07T14:25:30Z</time>
      </trkpt>
      <trkpt lat="49.82118" lon="2.53224">
        <ele>45.5</ele>
        <time>2022-12-07T14:25:31Z</time>
      </trkpt>
      <trkpt lat="49.82118" lon="2.53223">
        <ele>45.5</ele>
        <time>2022-12-07T14:25:32Z</time>
      </trkpt>
      <trkpt lat="49.82117" lon="2.53223">
        <ele>45.5</ele>
        <time>2022-12-07T14:25:33Z</time>
      </trkpt>
      <trkpt lat="49.82116" lon="2.53222">
        <ele>45.6</ele>
        <time>2022-12-07T14:25:34Z</time>
      </trkpt>
      <trkpt lat="49.82116" lon="2.53221">
        <ele>45.6</ele>
        <time>2022-12-07T14:25:35Z</time>
      </trkpt>
      <trkpt lat="49.82115" lon="2.53221">
        <ele>45.6</ele>
        <time>2022-12-07T14:25:36Z</time>
      </trkpt>
      <trkpt lat="49.82114" lon="2.5322">
        <ele>45.6</ele>
        <time>2022-12-07T14:25:37Z</time>
      </trkpt>
      <trkpt lat="49.82113" lon="2.53219">
        <ele>45.7</ele>
        <time>2022-12-07T14:25:38Z</time>
      </trkpt>
      <trkpt lat="49.82112" lon="2.53218">
        <ele>45.7</ele>
        <time>2022-12-07T14:25:39Z</time>
      </trkpt>
      <trkpt lat="49.82111" lon="2.53218">
        <ele>45.7</ele>
        <time>2022-12-07T14:25:40Z</time>
      </trkpt>
      <trkpt lat="49.82111" lon="2.53217">
        <ele>45.7</ele>
        <time>2022-12-07T14:25:41Z</time>
      </trkpt>
      <trkpt lat="49.8211" lon="2.53216">
        <ele>45.8</ele>
        <time>2022-12-07T14:25:42Z</time>
      </trkpt>
      <trkpt lat="49.8211" lon="2.53216">
        <ele>45.8</ele>
        <time>2022-12-07T14:25:43Z</time>
      </trkpt>
      <trkpt lat="49.82109" lon="2.53214">
        <ele>45.8</ele>
        <time>2022-12-07T14:25:44Z</time>
      </trkpt>
      <trkpt lat="49.82108" lon="2.53213">
        <ele>45.8</ele>
        <time>2022-12-07T14:25:45Z</time>
      </trkpt>
      <trkpt lat="49.82107" lon="2.53212">
        <ele>45.8</ele>
        <time>2022-12-07T14:25:46Z</time>
      </trkpt>
      <trkpt lat="49.82107" lon="2.53211">
        <ele>45.8</ele>
        <time>2022-12-07T14:25:47Z</time>
      </trkpt>
      <trkpt lat="49.82106" lon="2.53211">
        <ele>45.8</ele>
        <time>2022-12-07T14:25:48Z</time>
      </trkpt>
      <trkpt lat="49.82105" lon="2.5321">
        <ele>45.8</ele>
        <time>2022-12-07T14:25:49Z</time>
      </trkpt>
      <trkpt lat="49.82104" lon="2.53209">
        <ele>45.8</ele>
        <time>2022-12-07T14:25:50Z</time>
      </trkpt>
      <trkpt lat="49.82103" lon="2.53208">
        <ele>45.8</ele>
        <time>2022-12-07T14:25:51Z</time>
      </trkpt>
      <trkpt lat="49.82102" lon="2.53207">
        <ele>45.8</ele>
        <time>2022-12-07T14:25:52Z</time>
      </trkpt>
      <trkpt lat="49.82101" lon="2.53206">
        <ele>45.7</ele>
        <time>2022-12-07T14:25:53Z</time>
      </trkpt>
      <trkpt lat="49.821" lon="2.53205">
        <ele>45.7</ele>
        <time>2022-12-07T14:25:54Z</time>
      </trkpt>
      <trkpt lat="49.82099" lon="2.53204">
        <ele>45.7</ele>
        <time>2022-12-07T14:25:55Z</time>
      </trkpt>
      <trkpt lat="49.82099" lon="2.53204">
        <ele>45.7</ele>
        <time>2022-12-07T14:25:56Z</time>
      </trkpt>
      <trkpt lat="49.82098" lon="2.53204">
        <ele>45.7</ele>
        <time>2022-12-07T14:25:57Z</time>
      </trkpt>
      <trkpt lat="49.82097" lon="2.53203">
        <ele>45.6</ele>
        <time>2022-12-07T14:25:58Z</time>
      </trkpt>
      <trkpt lat="49.82096" lon="2.53203">
        <ele>45.6</ele>
        <time>2022-12-07T14:25:59Z</time>
      </trkpt>
      <trkpt lat="49.82095" lon="2.53203">
        <ele>45.6</ele>
        <time>2022-12-07T14:26:00Z</time>
      </trkpt>
      <trkpt lat="49.82094" lon="2.53202">
        <ele>45.5</ele>
        <time>2022-12-07T14:26:01Z</time>
      </trkpt>
      <trkpt lat="49.82093" lon="2.53201">
        <ele>45.5</ele>
        <time>2022-12-07T14:26:02Z</time>
      </trkpt>
      <trkpt lat="49.82092" lon="2.53201">
        <ele>45.5</ele>
        <time>2022-12-07T14:26:03Z</time>
      </trkpt>
      <trkpt lat="49.82091" lon="2.532">
        <ele>45.5</ele>
        <time>2022-12-07T14:26:04Z</time>
      </trkpt>
      <trkpt lat="49.82091" lon="2.53199">
        <ele>45.4</ele>
        <time>2022-12-07T14:26:05Z</time>
      </trkpt>
      <trkpt lat="49.8209" lon="2.53198">
        <ele>45.4</ele>
        <time>2022-12-07T14:26:06Z</time>
      </trkpt>
      <trkpt lat="49.82088" lon="2.53197">
        <ele>45.3</ele>
        <time>2022-12-07T14:26:07Z</time>
      </trkpt>
      <trkpt lat="49.82087" lon="2.53196">
        <ele>45.3</ele>
        <time>2022-12-07T14:26:08Z</time>
      </trkpt>
      <trkpt lat="49.82086" lon="2.53195">
        <ele>45.3</ele>
        <time>2022-12-07T14:26:09Z</time>
      </trkpt>
      <trkpt lat="49.82085" lon="2.53193">
        <ele>45.2</ele>
        <time>2022-12-07T14:26:10Z</time>
      </trkpt>
      <trkpt lat="49.82084" lon="2.53193">
        <ele>45.2</ele>
        <time>2022-12-07T14:26:11Z</time>
      </trkpt>
      <trkpt lat="49.82083" lon="2.53192">
        <ele>45.1</ele>
        <time>2022-12-07T14:26:12Z</time>
      </trkpt>
      <trkpt lat="49.82082" lon="2.53191">
        <ele>45.1</ele>
        <time>2022-12-07T14:26:13Z</time>
      </trkpt>
      <trkpt lat="49.82081" lon="2.53191">
        <ele>45</ele>
        <time>2022-12-07T14:26:14Z</time>
      </trkpt>
      <trkpt lat="49.8208" lon="2.53191">
        <ele>45</ele>
        <time>2022-12-07T14:26:15Z</time>
      </trkpt>
      <trkpt lat="49.82079" lon="2.5319">
        <ele>45</ele>
        <time>2022-12-07T14:26:16Z</time>
      </trkpt>
      <trkpt lat="49.82078" lon="2.5319">
        <ele>45</ele>
        <time>2022-12-07T14:26:17Z</time>
      </trkpt>
      <trkpt lat="49.82077" lon="2.53189">
        <ele>45</ele>
        <time>2022-12-07T14:26:18Z</time>
      </trkpt>
      <trkpt lat="49.82077" lon="2.53188">
        <ele>44.9</ele>
        <time>2022-12-07T14:26:19Z</time>
      </trkpt>
      <trkpt lat="49.82076" lon="2.53187">
        <ele>44.9</ele>
        <time>2022-12-07T14:26:20Z</time>
      </trkpt>
      <trkpt lat="49.82075" lon="2.53186">
        <ele>44.9</ele>
        <time>2022-12-07T14:26:21Z</time>
      </trkpt>
      <trkpt lat="49.82074" lon="2.53186">
        <ele>44.9</ele>
        <time>2022-12-07T14:26:22Z</time>
      </trkpt>
      <trkpt lat="49.82073" lon="2.53185">
        <ele>44.9</ele>
        <time>2022-12-07T14:26:23Z</time>
      </trkpt>
      <trkpt lat="49.82072" lon="2.53184">
        <ele>44.9</ele>
        <time>2022-12-07T14:26:24Z</time>
      </trkpt>
      <trkpt lat="49.82071" lon="2.53184">
        <ele>44.8</ele>
        <time>2022-12-07T14:26:25Z</time>
      </trkpt>
      <trkpt lat="49.8207" lon="2.53183">
        <ele>44.8</ele>
        <time>2022-12-07T14:26:26Z</time>
      </trkpt>
      <trkpt lat="49.82069" lon="2.53182">
        <ele>44.8</ele>
        <time>2022-12-07T14:26:27Z</time>
      </trkpt>
      <trkpt lat="49.82068" lon="2.53181">
        <ele>44.8</ele>
        <time>2022-12-07T14:26:28Z</time>
      </trkpt>
      <trkpt lat="49.82067" lon="2.5318">
        <ele>44.8</ele>
        <time>2022-12-07T14:26:29Z</time>
      </trkpt>
      <trkpt lat="49.82066" lon="2.53179">
        <ele>44.8</ele>
        <time>2022-12-07T14:26:30Z</time>
      </trkpt>
      <trkpt lat="49.82065" lon="2.53178">
        <ele>44.8</ele>
        <time>2022-12-07T14:26:31Z</time>
      </trkpt>
      <trkpt lat="49.82064" lon="2.53177">
        <ele>44.7</ele>
        <time>2022-12-07T14:26:32Z</time>
      </trkpt>
      <trkpt lat="49.82063" lon="2.53176">
        <ele>44.7</ele>
        <time>2022-12-07T14:26:33Z</time>
      </trkpt>
      <trkpt lat="49.82061" lon="2.53175">
        <ele>44.7</ele>
        <time>2022-12-07T14:26:34Z</time>
      </trkpt>
      <trkpt lat="49.8206" lon="2.53175">
        <ele>44.7</ele>
        <time>2022-12-07T14:26:35Z</time>
      </trkpt>
      <trkpt lat="49.8206" lon="2.53174">
        <ele>44.6</ele>
        <time>2022-12-07T14:26:36Z</time>
      </trkpt>
      <trkpt lat="49.82058" lon="2.53173">
        <ele>44.6</ele>
        <time>2022-12-07T14:26:37Z</time>
      </trkpt>
      <trkpt lat="49.82057" lon="2.53173">
        <ele>44.6</ele>
        <time>2022-12-07T14:26:38Z</time>
      </trkpt>
      <trkpt lat="49.82055" lon="2.53171">
        <ele>44.6</ele>
        <time>2022-12-07T14:26:39Z</time>
      </trkpt>
      <trkpt lat="49.82054" lon="2.53171">
        <ele>44.5</ele>
        <time>2022-12-07T14:26:40Z</time>
      </trkpt>
      <trkpt lat="49.82054" lon="2.5317">
        <ele>44.5</ele>
        <time>2022-12-07T14:26:41Z</time>
      </trkpt>
      <trkpt lat="49.82052" lon="2.5317">
        <ele>44.5</ele>
        <time>2022-12-07T14:26:42Z</time>
      </trkpt>
      <trkpt lat="49.82051" lon="2.53169">
        <ele>44.4</ele>
        <time>2022-12-07T14:26:43Z</time>
      </trkpt>
      <trkpt lat="49.8205" lon="2.53168">
        <ele>44.4</ele>
        <time>2022-12-07T14:26:44Z</time>
      </trkpt>
      <trkpt lat="49.82049" lon="2.53167">
        <ele>44.4</ele>
        <time>2022-12-07T14:26:45Z</time>
      </trkpt>
      <trkpt lat="49.82048" lon="2.53167">
        <ele>44.3</ele>
        <time>2022-12-07T14:26:46Z</time>
      </trkpt>
      <trkpt lat="49.82048" lon="2.53166">
        <ele>44.3</ele>
        <time>2022-12-07T14:26:47Z</time>
      </trkpt>
      <trkpt lat="49.82047" lon="2.53166">
        <ele>44.3</ele>
        <time>2022-12-07T14:26:48Z</time>
      </trkpt>
      <trkpt lat="49.82046" lon="2.53165">
        <ele>44.3</ele>
        <time>2022-12-07T14:26:49Z</time>
      </trkpt>
      <trkpt lat="49.82045" lon="2.53164">
        <ele>44.2</ele>
        <time>2022-12-07T14:26:50Z</time>
      </trkpt>
      <trkpt lat="49.82044" lon="2.53164">
        <ele>44.2</ele>
        <time>2022-12-07T14:26:51Z</time>
      </trkpt>
      <trkpt lat="49.82043" lon="2.53163">
        <ele>44.1</ele>
        <time>2022-12-07T14:26:52Z</time>
      </trkpt>
      <trkpt lat="49.82042" lon="2.53163">
        <ele>44.1</ele>
        <time>2022-12-07T14:26:53Z</time>
      </trkpt>
      <trkpt lat="49.8204" lon="2.53162">
        <ele>44.1</ele>
        <time>2022-12-07T14:26:54Z</time>
      </trkpt>
      <trkpt lat="49.82039" lon="2.53161">
        <ele>44</ele>
        <time>2022-12-07T14:26:55Z</time>
      </trkpt>
      <trkpt lat="49.82038" lon="2.53161">
        <ele>44</ele>
        <time>2022-12-07T14:26:56Z</time>
      </trkpt>
      <trkpt lat="49.82037" lon="2.5316">
        <ele>43.9</ele>
        <time>2022-12-07T14:26:57Z</time>
      </trkpt>
      <trkpt lat="49.82036" lon="2.53158">
        <ele>43.9</ele>
        <time>2022-12-07T14:26:58Z</time>
      </trkpt>
      <trkpt lat="49.82035" lon="2.53158">
        <ele>43.9</ele>
        <time>2022-12-07T14:26:59Z</time>
      </trkpt>
      <trkpt lat="49.82034" lon="2.53157">
        <ele>43.8</ele>
        <time>2022-12-07T14:27:00Z</time>
      </trkpt>
      <trkpt lat="49.82033" lon="2.53156">
        <ele>43.8</ele>
        <time>2022-12-07T14:27:01Z</time>
      </trkpt>
      <trkpt lat="49.82032" lon="2.53155">
        <ele>43.7</ele>
        <time>2022-12-07T14:27:02Z</time>
      </trkpt>
      <trkpt lat="49.8203" lon="2.53154">
        <ele>43.7</ele>
        <time>2022-12-07T14:27:03Z</time>
      </trkpt>
      <trkpt lat="49.82029" lon="2.53153">
        <ele>43.7</ele>
        <time>2022-12-07T14:27:04Z</time>
      </trkpt>
      <trkpt lat="49.82029" lon="2.53152">
        <ele>43.6</ele>
        <time>2022-12-07T14:27:05Z</time>
      </trkpt>
      <trkpt lat="49.82027" lon="2.53152">
        <ele>43.6</ele>
        <time>2022-12-07T14:27:06Z</time>
      </trkpt>
      <trkpt lat="49.82026" lon="2.53151">
        <ele>43.5</ele>
        <time>2022-12-07T14:27:07Z</time>
      </trkpt>
      <trkpt lat="49.82026" lon="2.5315">
        <ele>43.5</ele>
        <time>2022-12-07T14:27:08Z</time>
      </trkpt>
      <trkpt lat="49.82025" lon="2.53149">
        <ele>43.4</ele>
        <time>2022-12-07T14:27:09Z</time>
      </trkpt>
      <trkpt lat="49.82023" lon="2.53148">
        <ele>43.4</ele>
        <time>2022-12-07T14:27:10Z</time>
      </trkpt>
      <trkpt lat="49.82022" lon="2.53148">
        <ele>43.4</ele>
        <time>2022-12-07T14:27:11Z</time>
      </trkpt>
      <trkpt lat="49.82022" lon="2.53147">
        <ele>43.3</ele>
        <time>2022-12-07T14:27:12Z</time>
      </trkpt>
      <trkpt lat="49.82021" lon="2.53146">
        <ele>43.2</ele>
        <time>2022-12-07T14:27:13Z</time>
      </trkpt>
      <trkpt lat="49.8202" lon="2.53145">
        <ele>43.2</ele>
        <time>2022-12-07T14:27:14Z</time>
      </trkpt>
      <trkpt lat="49.82019" lon="2.53144">
        <ele>43.2</ele>
        <time>2022-12-07T14:27:15Z</time>
      </trkpt>
      <trkpt lat="49.82018" lon="2.53143">
        <ele>43.1</ele>
        <time>2022-12-07T14:27:16Z</time>
      </trkpt>
      <trkpt lat="49.82017" lon="2.53143">
        <ele>43.1</ele>
        <time>2022-12-07T14:27:17Z</time>
      </trkpt>
      <trkpt lat="49.82016" lon="2.53142">
        <ele>43.1</ele>
        <time>2022-12-07T14:27:18Z</time>
      </trkpt>
      <trkpt lat="49.82015" lon="2.53141">
        <ele>43</ele>
        <time>2022-12-07T14:27:19Z</time>
      </trkpt>
      <trkpt lat="49.82014" lon="2.53141">
        <ele>43</ele>
        <time>2022-12-07T14:27:20Z</time>
      </trkpt>
      <trkpt lat="49.82013" lon="2.5314">
        <ele>43</ele>
        <time>2022-12-07T14:27:21Z</time>
      </trkpt>
      <trkpt lat="49.82012" lon="2.5314">
        <ele>42.9</ele>
        <time>2022-12-07T14:27:22Z</time>
      </trkpt>
      <trkpt lat="49.82011" lon="2.53139">
        <ele>42.9</ele>
        <time>2022-12-07T14:27:23Z</time>
      </trkpt>
      <trkpt lat="49.82009" lon="2.53138">
        <ele>42.8</ele>
        <time>2022-12-07T14:27:24Z</time>
      </trkpt>
      <trkpt lat="49.82008" lon="2.53138">
        <ele>42.8</ele>
        <time>2022-12-07T14:27:25Z</time>
      </trkpt>
      <trkpt lat="49.82007" lon="2.53137">
        <ele>42.7</ele>
        <time>2022-12-07T14:27:26Z</time>
      </trkpt>
      <trkpt lat="49.82006" lon="2.53137">
        <ele>42.7</ele>
        <time>2022-12-07T14:27:27Z</time>
      </trkpt>
      <trkpt lat="49.82005" lon="2.53136">
        <ele>42.7</ele>
        <time>2022-12-07T14:27:28Z</time>
      </trkpt>
      <trkpt lat="49.82004" lon="2.53136">
        <ele>42.7</ele>
        <time>2022-12-07T14:27:29Z</time>
      </trkpt>
      <trkpt lat="49.82002" lon="2.53135">
        <ele>42.7</ele>
        <time>2022-12-07T14:27:30Z</time>
      </trkpt>
      <trkpt lat="49.82001" lon="2.53134">
        <ele>42.6</ele>
        <time>2022-12-07T14:27:31Z</time>
      </trkpt>
      <trkpt lat="49.82" lon="2.53134">
        <ele>42.6</ele>
        <time>2022-12-07T14:27:32Z</time>
      </trkpt>
      <trkpt lat="49.81998" lon="2.53133">
        <ele>42.6</ele>
        <time>2022-12-07T14:27:33Z</time>
      </trkpt>
      <trkpt lat="49.81998" lon="2.53133">
        <ele>42.6</ele>
        <time>2022-12-07T14:27:34Z</time>
      </trkpt>
      <trkpt lat="49.81997" lon="2.53132">
        <ele>42.6</ele>
        <time>2022-12-07T14:27:35Z</time>
      </trkpt>
      <trkpt lat="49.81996" lon="2.53132">
        <ele>42.6</ele>
        <time>2022-12-07T14:27:36Z</time>
      </trkpt>
      <trkpt lat="49.81995" lon="2.53132">
        <ele>42.6</ele>
        <time>2022-12-07T14:27:37Z</time>
      </trkpt>
      <trkpt lat="49.81994" lon="2.53131">
        <ele>42.5</ele>
        <time>2022-12-07T14:27:38Z</time>
      </trkpt>
      <trkpt lat="49.81993" lon="2.53131">
        <ele>42.5</ele>
        <time>2022-12-07T14:27:39Z</time>
      </trkpt>
      <trkpt lat="49.81992" lon="2.53131">
        <ele>42.5</ele>
        <time>2022-12-07T14:27:40Z</time>
      </trkpt>
      <trkpt lat="49.81991" lon="2.5313">
        <ele>42.5</ele>
        <time>2022-12-07T14:27:41Z</time>
      </trkpt>
      <trkpt lat="49.8199" lon="2.5313">
        <ele>42.5</ele>
        <time>2022-12-07T14:27:42Z</time>
      </trkpt>
      <trkpt lat="49.81989" lon="2.5313">
        <ele>42.5</ele>
        <time>2022-12-07T14:27:43Z</time>
      </trkpt>
      <trkpt lat="49.81988" lon="2.53129">
        <ele>42.5</ele>
        <time>2022-12-07T14:27:44Z</time>
      </trkpt>
      <trkpt lat="49.81987" lon="2.53128">
        <ele>42.5</ele>
        <time>2022-12-07T14:27:45Z</time>
      </trkpt>
      <trkpt lat="49.81986" lon="2.53128">
        <ele>42.5</ele>
        <time>2022-12-07T14:27:46Z</time>
      </trkpt>
      <trkpt lat="49.81985" lon="2.53128">
        <ele>42.5</ele>
        <time>2022-12-07T14:27:47Z</time>
      </trkpt>
      <trkpt lat="49.81984" lon="2.53127">
        <ele>42.5</ele>
        <time>2022-12-07T14:27:48Z</time>
      </trkpt>
      <trkpt lat="49.81984" lon="2.53127">
        <ele>42.5</ele>
        <time>2022-12-07T14:27:49Z</time>
      </trkpt>
      <trkpt lat="49.81983" lon="2.53126">
        <ele>42.5</ele>
        <time>2022-12-07T14:27:50Z</time>
      </trkpt>
      <trkpt lat="49.81982" lon="2.53125">
        <ele>42.5</ele>
        <time>2022-12-07T14:27:51Z</time>
      </trkpt>
      <trkpt lat="49.81981" lon="2.53125">
        <ele>42.5</ele>
        <time>2022-12-07T14:27:52Z</time>
      </trkpt>
      <trkpt lat="49.8198" lon="2.53125">
        <ele>42.5</ele>
        <time>2022-12-07T14:27:53Z</time>
      </trkpt>
      <trkpt lat="49.81979" lon="2.53124">
        <ele>42.5</ele>
        <time>2022-12-07T14:27:54Z</time>
      </trkpt>
      <trkpt lat="49.81979" lon="2.53124">
        <ele>42.5</ele>
        <time>2022-12-07T14:27:55Z</time>
      </trkpt>
      <trkpt lat="49.81978" lon="2.53124">
        <ele>42.5</ele>
        <time>2022-12-07T14:27:56Z</time>
      </trkpt>
      <trkpt lat="49.81977" lon="2.53123">
        <ele>42.5</ele>
        <time>2022-12-07T14:27:57Z</time>
      </trkpt>
      <trkpt lat="49.81976" lon="2.53123">
        <ele>42.6</ele>
        <time>2022-12-07T14:27:58Z</time>
      </trkpt>
      <trkpt lat="49.81975" lon="2.53122">
        <ele>42.6</ele>
        <time>2022-12-07T14:27:59Z</time>
      </trkpt>
      <trkpt lat="49.81974" lon="2.53121">
        <ele>42.5</ele>
        <time>2022-12-07T14:28:00Z</time>
      </trkpt>
      <trkpt lat="49.81974" lon="2.53121">
        <ele>42.7</ele>
        <time>2022-12-07T14:28:01Z</time>
      </trkpt>
      <trkpt lat="49.81973" lon="2.53121">
        <ele>42.7</ele>
        <time>2022-12-07T14:28:02Z</time>
      </trkpt>
      <trkpt lat="49.81972" lon="2.5312">
        <ele>42.6</ele>
        <time>2022-12-07T14:28:03Z</time>
      </trkpt>
      <trkpt lat="49.81971" lon="2.5312">
        <ele>42.8</ele>
        <time>2022-12-07T14:28:04Z</time>
      </trkpt>
      <trkpt lat="49.81971" lon="2.53119">
        <ele>42.8</ele>
        <time>2022-12-07T14:28:05Z</time>
      </trkpt>
      <trkpt lat="49.81971" lon="2.53117">
        <ele>42.6</ele>
        <time>2022-12-07T14:28:06Z</time>
      </trkpt>
      <trkpt lat="49.81972" lon="2.53116">
        <ele>42.6</ele>
        <time>2022-12-07T14:28:07Z</time>
      </trkpt>
      <trkpt lat="49.81973" lon="2.53115">
        <ele>42.6</ele>
        <time>2022-12-07T14:28:08Z</time>
      </trkpt>
      <trkpt lat="49.81975" lon="2.53114">
        <ele>42.4</ele>
        <time>2022-12-07T14:28:09Z</time>
      </trkpt>
      <trkpt lat="49.81976" lon="2.53113">
        <ele>42.4</ele>
        <time>2022-12-07T14:28:10Z</time>
      </trkpt>
      <trkpt lat="49.81977" lon="2.53113">
        <ele>42.2</ele>
        <time>2022-12-07T14:28:11Z</time>
      </trkpt>
      <trkpt lat="49.81978" lon="2.53113">
        <ele>42.2</ele>
        <time>2022-12-07T14:28:12Z</time>
      </trkpt>
      <trkpt lat="49.81978" lon="2.53113">
        <ele>42.2</ele>
        <time>2022-12-07T14:28:13Z</time>
      </trkpt>
      <trkpt lat="49.81979" lon="2.53113">
        <ele>42.2</ele>
        <time>2022-12-07T14:28:14Z</time>
      </trkpt>
      <trkpt lat="49.8198" lon="2.53113">
        <ele>42.1</ele>
        <time>2022-12-07T14:28:15Z</time>
      </trkpt>
      <trkpt lat="49.8198" lon="2.53113">
        <ele>42.1</ele>
        <time>2022-12-07T14:28:16Z</time>
      </trkpt>
      <trkpt lat="49.8198" lon="2.53113">
        <ele>42.1</ele>
        <time>2022-12-07T14:28:17Z</time>
      </trkpt>
      <trkpt lat="49.81981" lon="2.53113">
        <ele>42</ele>
        <time>2022-12-07T14:28:18Z</time>
      </trkpt>
      <trkpt lat="49.81981" lon="2.53113">
        <ele>42</ele>
        <time>2022-12-07T14:28:19Z</time>
      </trkpt>
      <trkpt lat="49.81981" lon="2.53113">
        <ele>42</ele>
        <time>2022-12-07T14:28:20Z</time>
      </trkpt>
      <trkpt lat="49.81981" lon="2.53113">
        <ele>42</ele>
        <time>2022-12-07T14:28:21Z</time>
      </trkpt>
      <trkpt lat="49.81981" lon="2.53113">
        <ele>42</ele>
        <time>2022-12-07T14:28:22Z</time>
      </trkpt>
      <trkpt lat="49.81981" lon="2.53113">
        <ele>42</ele>
        <time>2022-12-07T14:28:23Z</time>
      </trkpt>
      <trkpt lat="49.81981" lon="2.53114">
        <ele>41.9</ele>
        <time>2022-12-07T14:28:24Z</time>
      </trkpt>
      <trkpt lat="49.81982" lon="2.53114">
        <ele>41.9</ele>
        <time>2022-12-07T14:28:25Z</time>
      </trkpt>
      <trkpt lat="49.81982" lon="2.53114">
        <ele>41.9</ele>
        <time>2022-12-07T14:28:26Z</time>
      </trkpt>
      <trkpt lat="49.81982" lon="2.53114">
        <ele>41.9</ele>
        <time>2022-12-07T14:28:27Z</time>
      </trkpt>
      <trkpt lat="49.81982" lon="2.53114">
        <ele>41.9</ele>
        <time>2022-12-07T14:28:28Z</time>
      </trkpt>
      <trkpt lat="49.81982" lon="2.53114">
        <ele>41.8</ele>
        <time>2022-12-07T14:28:29Z</time>
      </trkpt>
      <trkpt lat="49.81982" lon="2.53114">
        <ele>41.8</ele>
        <time>2022-12-07T14:28:30Z</time>
      </trkpt>
      <trkpt lat="49.81982" lon="2.53113">
        <ele>41.8</ele>
        <time>2022-12-07T14:28:31Z</time>
      </trkpt>
      <trkpt lat="49.81981" lon="2.53113">
        <ele>41.8</ele>
        <time>2022-12-07T14:28:32Z</time>
      </trkpt>
      <trkpt lat="49.81981" lon="2.53113">
        <ele>41.8</ele>
        <time>2022-12-07T14:28:33Z</time>
      </trkpt>
      <trkpt lat="49.8198" lon="2.53112">
        <ele>41.8</ele>
        <time>2022-12-07T14:28:34Z</time>
      </trkpt>
      <trkpt lat="49.8198" lon="2.53112">
        <ele>41.8</ele>
        <time>2022-12-07T14:28:35Z</time>
      </trkpt>
      <trkpt lat="49.81979" lon="2.53111">
        <ele>41.8</ele>
        <time>2022-12-07T14:28:36Z</time>
      </trkpt>
      <trkpt lat="49.81979" lon="2.53111">
        <ele>41.8</ele>
        <time>2022-12-07T14:28:37Z</time>
      </trkpt>
      <trkpt lat="49.81977" lon="2.53111">
        <ele>41.8</ele>
        <time>2022-12-07T14:28:38Z</time>
      </trkpt>
      <trkpt lat="49.81976" lon="2.53111">
        <ele>41.9</ele>
        <time>2022-12-07T14:28:39Z</time>
      </trkpt>
      <trkpt lat="49.81974" lon="2.53111">
        <ele>42</ele>
        <time>2022-12-07T14:28:40Z</time>
      </trkpt>
      <trkpt lat="49.81972" lon="2.53111">
        <ele>42</ele>
        <time>2022-12-07T14:28:41Z</time>
      </trkpt>
      <trkpt lat="49.8197" lon="2.53111">
        <ele>42.1</ele>
        <time>2022-12-07T14:28:42Z</time>
      </trkpt>
      <trkpt lat="49.81969" lon="2.53111">
        <ele>42.1</ele>
        <time>2022-12-07T14:28:43Z</time>
      </trkpt>
      <trkpt lat="49.81968" lon="2.53111">
        <ele>42.3</ele>
        <time>2022-12-07T14:28:44Z</time>
      </trkpt>
      <trkpt lat="49.81967" lon="2.53111">
        <ele>42.3</ele>
        <time>2022-12-07T14:28:45Z</time>
      </trkpt>
      <trkpt lat="49.81966" lon="2.53111">
        <ele>42.3</ele>
        <time>2022-12-07T14:28:46Z</time>
      </trkpt>
      <trkpt lat="49.81965" lon="2.53111">
        <ele>42.4</ele>
        <time>2022-12-07T14:28:47Z</time>
      </trkpt>
      <trkpt lat="49.81964" lon="2.53111">
        <ele>42.4</ele>
        <time>2022-12-07T14:28:48Z</time>
      </trkpt>
      <trkpt lat="49.81963" lon="2.5311">
        <ele>42.6</ele>
        <time>2022-12-07T14:28:49Z</time>
      </trkpt>
      <trkpt lat="49.81962" lon="2.5311">
        <ele>42.5</ele>
        <time>2022-12-07T14:28:50Z</time>
      </trkpt>
      <trkpt lat="49.81961" lon="2.53109">
        <ele>42.5</ele>
        <time>2022-12-07T14:28:51Z</time>
      </trkpt>
      <trkpt lat="49.8196" lon="2.53108">
        <ele>42.7</ele>
        <time>2022-12-07T14:28:52Z</time>
      </trkpt>
      <trkpt lat="49.81959" lon="2.53108">
        <ele>42.7</ele>
        <time>2022-12-07T14:28:53Z</time>
      </trkpt>
      <trkpt lat="49.81958" lon="2.53107">
        <ele>42.7</ele>
        <time>2022-12-07T14:28:54Z</time>
      </trkpt>
      <trkpt lat="49.81958" lon="2.53106">
        <ele>42.6</ele>
        <time>2022-12-07T14:28:55Z</time>
      </trkpt>
      <trkpt lat="49.81957" lon="2.53105">
        <ele>42.8</ele>
        <time>2022-12-07T14:28:56Z</time>
      </trkpt>
      <trkpt lat="49.81955" lon="2.53103">
        <ele>42.8</ele>
        <time>2022-12-07T14:28:57Z</time>
      </trkpt>
      <trkpt lat="49.81954" lon="2.53102">
        <ele>43.1</ele>
        <time>2022-12-07T14:28:58Z</time>
      </trkpt>
      <trkpt lat="49.81954" lon="2.53101">
        <ele>42.9</ele>
        <time>2022-12-07T14:28:59Z</time>
      </trkpt>
      <trkpt lat="49.81951" lon="2.53098">
        <ele>43.2</ele>
        <time>2022-12-07T14:29:00Z</time>
      </trkpt>
      <trkpt lat="49.8195" lon="2.53097">
        <ele>43.1</ele>
        <time>2022-12-07T14:29:01Z</time>
      </trkpt>
      <trkpt lat="49.81947" lon="2.53095">
        <ele>43.4</ele>
        <time>2022-12-07T14:29:02Z</time>
      </trkpt>
      <trkpt lat="49.81946" lon="2.53094">
        <ele>43.8</ele>
        <time>2022-12-07T14:29:03Z</time>
      </trkpt>
      <trkpt lat="49.81945" lon="2.53093">
        <ele>43.6</ele>
        <time>2022-12-07T14:29:04Z</time>
      </trkpt>
      <trkpt lat="49.81943" lon="2.53092">
        <ele>44</ele>
        <time>2022-12-07T14:29:05Z</time>
      </trkpt>
      <trkpt lat="49.81942" lon="2.53091">
        <ele>44</ele>
        <time>2022-12-07T14:29:06Z</time>
      </trkpt>
      <trkpt lat="49.81941" lon="2.5309">
        <ele>43.9</ele>
        <time>2022-12-07T14:29:07Z</time>
      </trkpt>
      <trkpt lat="49.81939" lon="2.53088">
        <ele>44.2</ele>
        <time>2022-12-07T14:29:08Z</time>
      </trkpt>
      <trkpt lat="49.81938" lon="2.53088">
        <ele>44.6</ele>
        <time>2022-12-07T14:29:09Z</time>
      </trkpt>
      <trkpt lat="49.81937" lon="2.53087">
        <ele>44.6</ele>
        <time>2022-12-07T14:29:10Z</time>
      </trkpt>
      <trkpt lat="49.81936" lon="2.53086">
        <ele>44.6</ele>
        <time>2022-12-07T14:29:11Z</time>
      </trkpt>
      <trkpt lat="49.81935" lon="2.53085">
        <ele>45</ele>
        <time>2022-12-07T14:29:12Z</time>
      </trkpt>
      <trkpt lat="49.81934" lon="2.53085">
        <ele>44.9</ele>
        <time>2022-12-07T14:29:13Z</time>
      </trkpt>
      <trkpt lat="49.81933" lon="2.53084">
        <ele>44.9</ele>
        <time>2022-12-07T14:29:14Z</time>
      </trkpt>
      <trkpt lat="49.81932" lon="2.53083">
        <ele>45.3</ele>
        <time>2022-12-07T14:29:15Z</time>
      </trkpt>
      <trkpt lat="49.8193" lon="2.53082">
        <ele>45.3</ele>
        <time>2022-12-07T14:29:16Z</time>
      </trkpt>
      <trkpt lat="49.8193" lon="2.53082">
        <ele>45.3</ele>
        <time>2022-12-07T14:29:17Z</time>
      </trkpt>
      <trkpt lat="49.81929" lon="2.53081">
        <ele>45.7</ele>
        <time>2022-12-07T14:29:18Z</time>
      </trkpt>
      <trkpt lat="49.81928" lon="2.53081">
        <ele>45.7</ele>
        <time>2022-12-07T14:29:19Z</time>
      </trkpt>
      <trkpt lat="49.81927" lon="2.5308">
        <ele>45.5</ele>
        <time>2022-12-07T14:29:20Z</time>
      </trkpt>
      <trkpt lat="49.81926" lon="2.5308">
        <ele>46</ele>
        <time>2022-12-07T14:29:21Z</time>
      </trkpt>
      <trkpt lat="49.81925" lon="2.53079">
        <ele>46</ele>
        <time>2022-12-07T14:29:22Z</time>
      </trkpt>
      <trkpt lat="49.81924" lon="2.53079">
        <ele>46</ele>
        <time>2022-12-07T14:29:23Z</time>
      </trkpt>
      <trkpt lat="49.81924" lon="2.53079">
        <ele>46.4</ele>
        <time>2022-12-07T14:29:24Z</time>
      </trkpt>
      <trkpt lat="49.81923" lon="2.53078">
        <ele>46.4</ele>
        <time>2022-12-07T14:29:25Z</time>
      </trkpt>
      <trkpt lat="49.81922" lon="2.53078">
        <ele>46.4</ele>
        <time>2022-12-07T14:29:26Z</time>
      </trkpt>
      <trkpt lat="49.81921" lon="2.53078">
        <ele>46.4</ele>
        <time>2022-12-07T14:29:27Z</time>
      </trkpt>
      <trkpt lat="49.81921" lon="2.53078">
        <ele>46.9</ele>
        <time>2022-12-07T14:29:28Z</time>
      </trkpt>
      <trkpt lat="49.8192" lon="2.53077">
        <ele>46.9</ele>
        <time>2022-12-07T14:29:29Z</time>
      </trkpt>
      <trkpt lat="49.8192" lon="2.53077">
        <ele>46.9</ele>
        <time>2022-12-07T14:29:30Z</time>
      </trkpt>
      <trkpt lat="49.8192" lon="2.53076">
        <ele>46.9</ele>
        <time>2022-12-07T14:29:31Z</time>
      </trkpt>
      <trkpt lat="49.8192" lon="2.53076">
        <ele>46.8</ele>
        <time>2022-12-07T14:29:32Z</time>
      </trkpt>
      <trkpt lat="49.81919" lon="2.53076">
        <ele>46.7</ele>
        <time>2022-12-07T14:29:33Z</time>
      </trkpt>
      <trkpt lat="49.81919" lon="2.53076">
        <ele>46.6</ele>
        <time>2022-12-07T14:29:34Z</time>
      </trkpt>
      <trkpt lat="49.81919" lon="2.53076">
        <ele>47.2</ele>
        <time>2022-12-07T14:29:35Z</time>
      </trkpt>
      <trkpt lat="49.81918" lon="2.53076">
        <ele>47.2</ele>
        <time>2022-12-07T14:29:36Z</time>
      </trkpt>
      <trkpt lat="49.81917" lon="2.53076">
        <ele>47.2</ele>
        <time>2022-12-07T14:29:37Z</time>
      </trkpt>
      <trkpt lat="49.81916" lon="2.53076">
        <ele>47.3</ele>
        <time>2022-12-07T14:29:38Z</time>
      </trkpt>
      <trkpt lat="49.81916" lon="2.53077">
        <ele>47.9</ele>
        <time>2022-12-07T14:29:39Z</time>
      </trkpt>
      <trkpt lat="49.81915" lon="2.53077">
        <ele>47.9</ele>
        <time>2022-12-07T14:29:40Z</time>
      </trkpt>
      <trkpt lat="49.81914" lon="2.53077">
        <ele>47.9</ele>
        <time>2022-12-07T14:29:41Z</time>
      </trkpt>
      <trkpt lat="49.81914" lon="2.53077">
        <ele>47.9</ele>
        <time>2022-12-07T14:29:42Z</time>
      </trkpt>
      <trkpt lat="49.81913" lon="2.53078">
        <ele>47.8</ele>
        <time>2022-12-07T14:29:43Z</time>
      </trkpt>
      <trkpt lat="49.81913" lon="2.53079">
        <ele>48.4</ele>
        <time>2022-12-07T14:29:44Z</time>
      </trkpt>
      <trkpt lat="49.81912" lon="2.53079">
        <ele>48.4</ele>
        <time>2022-12-07T14:29:45Z</time>
      </trkpt>
      <trkpt lat="49.81912" lon="2.5308">
        <ele>48.4</ele>
        <time>2022-12-07T14:29:46Z</time>
      </trkpt>
      <trkpt lat="49.81911" lon="2.5308">
        <ele>48.4</ele>
        <time>2022-12-07T14:29:47Z</time>
      </trkpt>
      <trkpt lat="49.8191" lon="2.5308">
        <ele>48.3</ele>
        <time>2022-12-07T14:29:48Z</time>
      </trkpt>
      <trkpt lat="49.8191" lon="2.5308">
        <ele>48.9</ele>
        <time>2022-12-07T14:29:49Z</time>
      </trkpt>
      <trkpt lat="49.81909" lon="2.53081">
        <ele>49</ele>
        <time>2022-12-07T14:29:50Z</time>
      </trkpt>
      <trkpt lat="49.81908" lon="2.53081">
        <ele>49</ele>
        <time>2022-12-07T14:29:51Z</time>
      </trkpt>
      <trkpt lat="49.81908" lon="2.53081">
        <ele>49</ele>
        <time>2022-12-07T14:29:52Z</time>
      </trkpt>
      <trkpt lat="49.81907" lon="2.53081">
        <ele>49.5</ele>
        <time>2022-12-07T14:29:53Z</time>
      </trkpt>
      <trkpt lat="49.81907" lon="2.53082">
        <ele>49.5</ele>
        <time>2022-12-07T14:29:54Z</time>
      </trkpt>
      <trkpt lat="49.81906" lon="2.53082">
        <ele>49.5</ele>
        <time>2022-12-07T14:29:55Z</time>
      </trkpt>
      <trkpt lat="49.81906" lon="2.53083">
        <ele>49.5</ele>
        <time>2022-12-07T14:29:56Z</time>
      </trkpt>
      <trkpt lat="49.81906" lon="2.53083">
        <ele>49.5</ele>
        <time>2022-12-07T14:29:57Z</time>
      </trkpt>
      <trkpt lat="49.81906" lon="2.53084">
        <ele>49.4</ele>
        <time>2022-12-07T14:29:58Z</time>
      </trkpt>
      <trkpt lat="49.81906" lon="2.53084">
        <ele>49.4</ele>
        <time>2022-12-07T14:29:59Z</time>
      </trkpt>
      <trkpt lat="49.81906" lon="2.53084">
        <ele>49.4</ele>
        <time>2022-12-07T14:30:00Z</time>
      </trkpt>
      <trkpt lat="49.81905" lon="2.53084">
        <ele>49.4</ele>
        <time>2022-12-07T14:30:01Z</time>
      </trkpt>
      <trkpt lat="49.81905" lon="2.53084">
        <ele>49.4</ele>
        <time>2022-12-07T14:30:02Z</time>
      </trkpt>
      <trkpt lat="49.81905" lon="2.53083">
        <ele>49.4</ele>
        <time>2022-12-07T14:30:03Z</time>
      </trkpt>
      <trkpt lat="49.81905" lon="2.53083">
        <ele>49.3</ele>
        <time>2022-12-07T14:30:04Z</time>
      </trkpt>
      <trkpt lat="49.81905" lon="2.53083">
        <ele>49.8</ele>
        <time>2022-12-07T14:30:05Z</time>
      </trkpt>
      <trkpt lat="49.81905" lon="2.53083">
        <ele>49.8</ele>
        <time>2022-12-07T14:30:06Z</time>
      </trkpt>
      <trkpt lat="49.81905" lon="2.53083">
        <ele>49.8</ele>
        <time>2022-12-07T14:30:07Z</time>
      </trkpt>
      <trkpt lat="49.81905" lon="2.53083">
        <ele>49.8</ele>
        <time>2022-12-07T14:30:08Z</time>
      </trkpt>
      <trkpt lat="49.81904" lon="2.53083">
        <ele>49.8</ele>
        <time>2022-12-07T14:30:09Z</time>
      </trkpt>
      <trkpt lat="49.81904" lon="2.53084">
        <ele>49.8</ele>
        <time>2022-12-07T14:30:10Z</time>
      </trkpt>
      <trkpt lat="49.81904" lon="2.53085">
        <ele>49.7</ele>
        <time>2022-12-07T14:30:11Z</time>
      </trkpt>
      <trkpt lat="49.81904" lon="2.53086">
        <ele>49.9</ele>
        <time>2022-12-07T14:30:12Z</time>
      </trkpt>
      <trkpt lat="49.81904" lon="2.53087">
        <ele>49.9</ele>
        <time>2022-12-07T14:30:13Z</time>
      </trkpt>
      <trkpt lat="49.81904" lon="2.53089">
        <ele>49.8</ele>
        <time>2022-12-07T14:30:14Z</time>
      </trkpt>
      <trkpt lat="49.81904" lon="2.5309">
        <ele>49.8</ele>
        <time>2022-12-07T14:30:15Z</time>
      </trkpt>
      <trkpt lat="49.81904" lon="2.53092">
        <ele>49.9</ele>
        <time>2022-12-07T14:30:16Z</time>
      </trkpt>
      <trkpt lat="49.81904" lon="2.53093">
        <ele>49.9</ele>
        <time>2022-12-07T14:30:17Z</time>
      </trkpt>
      <trkpt lat="49.81905" lon="2.53094">
        <ele>49.9</ele>
        <time>2022-12-07T14:30:18Z</time>
      </trkpt>
      <trkpt lat="49.81905" lon="2.53095">
        <ele>49.9</ele>
        <time>2022-12-07T14:30:19Z</time>
      </trkpt>
      <trkpt lat="49.81905" lon="2.53096">
        <ele>49.9</ele>
        <time>2022-12-07T14:30:20Z</time>
      </trkpt>
      <trkpt lat="49.81905" lon="2.53097">
        <ele>49.9</ele>
        <time>2022-12-07T14:30:21Z</time>
      </trkpt>
      <trkpt lat="49.81906" lon="2.53098">
        <ele>49.9</ele>
        <time>2022-12-07T14:30:22Z</time>
      </trkpt>
      <trkpt lat="49.81906" lon="2.53099">
        <ele>49.9</ele>
        <time>2022-12-07T14:30:23Z</time>
      </trkpt>
      <trkpt lat="49.81906" lon="2.531">
        <ele>49.9</ele>
        <time>2022-12-07T14:30:24Z</time>
      </trkpt>
      <trkpt lat="49.81906" lon="2.53101">
        <ele>49.9</ele>
        <time>2022-12-07T14:30:25Z</time>
      </trkpt>
      <trkpt lat="49.81906" lon="2.53102">
        <ele>49.9</ele>
        <time>2022-12-07T14:30:26Z</time>
      </trkpt>
      <trkpt lat="49.81905" lon="2.53103">
        <ele>49.9</ele>
        <time>2022-12-07T14:30:27Z</time>
      </trkpt>
      <trkpt lat="49.81905" lon="2.53104">
        <ele>49.9</ele>
        <time>2022-12-07T14:30:28Z</time>
      </trkpt>
      <trkpt lat="49.81905" lon="2.53106">
        <ele>49.9</ele>
        <time>2022-12-07T14:30:29Z</time>
      </trkpt>
      <trkpt lat="49.81905" lon="2.53107">
        <ele>50</ele>
        <time>2022-12-07T14:30:30Z</time>
      </trkpt>
      <trkpt lat="49.81904" lon="2.53108">
        <ele>50</ele>
        <time>2022-12-07T14:30:31Z</time>
      </trkpt>
      <trkpt lat="49.81904" lon="2.53109">
        <ele>50</ele>
        <time>2022-12-07T14:30:32Z</time>
      </trkpt>
      <trkpt lat="49.81904" lon="2.53111">
        <ele>50</ele>
        <time>2022-12-07T14:30:33Z</time>
      </trkpt>
      <trkpt lat="49.81904" lon="2.53112">
        <ele>50</ele>
        <time>2022-12-07T14:30:34Z</time>
      </trkpt>
      <trkpt lat="49.81904" lon="2.53113">
        <ele>50</ele>
        <time>2022-12-07T14:30:35Z</time>
      </trkpt>
      <trkpt lat="49.81904" lon="2.53114">
        <ele>50</ele>
        <time>2022-12-07T14:30:36Z</time>
      </trkpt>
      <trkpt lat="49.81904" lon="2.53116">
        <ele>50</ele>
        <time>2022-12-07T14:30:37Z</time>
      </trkpt>
      <trkpt lat="49.81904" lon="2.53117">
        <ele>50</ele>
        <time>2022-12-07T14:30:38Z</time>
      </trkpt>
      <trkpt lat="49.81904" lon="2.53118">
        <ele>50</ele>
        <time>2022-12-07T14:30:39Z</time>
      </trkpt>
      <trkpt lat="49.81904" lon="2.53119">
        <ele>50</ele>
        <time>2022-12-07T14:30:40Z</time>
      </trkpt>
      <trkpt lat="49.81904" lon="2.53119">
        <ele>50</ele>
        <time>2022-12-07T14:30:41Z</time>
      </trkpt>
      <trkpt lat="49.81905" lon="2.5312">
        <ele>50</ele>
        <time>2022-12-07T14:30:42Z</time>
      </trkpt>
      <trkpt lat="49.81905" lon="2.5312">
        <ele>50.1</ele>
        <time>2022-12-07T14:30:43Z</time>
      </trkpt>
      <trkpt lat="49.81905" lon="2.53121">
        <ele>50.1</ele>
        <time>2022-12-07T14:30:44Z</time>
      </trkpt>
      <trkpt lat="49.81905" lon="2.53121">
        <ele>50.1</ele>
        <time>2022-12-07T14:30:45Z</time>
      </trkpt>
      <trkpt lat="49.81905" lon="2.53122">
        <ele>50.1</ele>
        <time>2022-12-07T14:30:46Z</time>
      </trkpt>
      <trkpt lat="49.81905" lon="2.53122">
        <ele>50.1</ele>
        <time>2022-12-07T14:30:47Z</time>
      </trkpt>
      <trkpt lat="49.81905" lon="2.53121">
        <ele>50.1</ele>
        <time>2022-12-07T14:30:48Z</time>
      </trkpt>
      <trkpt lat="49.81905" lon="2.53121">
        <ele>50.1</ele>
        <time>2022-12-07T14:30:49Z</time>
      </trkpt>
      <trkpt lat="49.81905" lon="2.53121">
        <ele>50.1</ele>
        <time>2022-12-07T14:30:50Z</time>
      </trkpt>
      <trkpt lat="49.81904" lon="2.5312">
        <ele>50.1</ele>
        <time>2022-12-07T14:30:51Z</time>
      </trkpt>
      <trkpt lat="49.81903" lon="2.53121">
        <ele>50.1</ele>
        <time>2022-12-07T14:30:52Z</time>
      </trkpt>
      <trkpt lat="49.81902" lon="2.53122">
        <ele>50.1</ele>
        <time>2022-12-07T14:30:53Z</time>
      </trkpt>
      <trkpt lat="49.81901" lon="2.53124">
        <ele>50.2</ele>
        <time>2022-12-07T14:30:54Z</time>
      </trkpt>
      <trkpt lat="49.81901" lon="2.53125">
        <ele>50.2</ele>
        <time>2022-12-07T14:30:55Z</time>
      </trkpt>
      <trkpt lat="49.81901" lon="2.53127">
        <ele>50.2</ele>
        <time>2022-12-07T14:30:56Z</time>
      </trkpt>
      <trkpt lat="49.81901" lon="2.53132">
        <ele>50.3</ele>
        <time>2022-12-07T14:30:57Z</time>
      </trkpt>
      <trkpt lat="49.81902" lon="2.53134">
        <ele>50.4</ele>
        <time>2022-12-07T14:30:58Z</time>
      </trkpt>
      <trkpt lat="49.81902" lon="2.53139">
        <ele>50.5</ele>
        <time>2022-12-07T14:30:59Z</time>
      </trkpt>
      <trkpt lat="49.81902" lon="2.53144">
        <ele>50.6</ele>
        <time>2022-12-07T14:31:00Z</time>
      </trkpt>
      <trkpt lat="49.81902" lon="2.53149">
        <ele>50.8</ele>
        <time>2022-12-07T14:31:01Z</time>
      </trkpt>
      <trkpt lat="49.81902" lon="2.53154">
        <ele>50.9</ele>
        <time>2022-12-07T14:31:02Z</time>
      </trkpt>
      <trkpt lat="49.81902" lon="2.53158">
        <ele>51.1</ele>
        <time>2022-12-07T14:31:03Z</time>
      </trkpt>
      <trkpt lat="49.81902" lon="2.53163">
        <ele>51.2</ele>
        <time>2022-12-07T14:31:04Z</time>
      </trkpt>
      <trkpt lat="49.81902" lon="2.53164">
        <ele>51.3</ele>
        <time>2022-12-07T14:31:05Z</time>
      </trkpt>
      <trkpt lat="49.81902" lon="2.53167">
        <ele>51.4</ele>
        <time>2022-12-07T14:31:06Z</time>
      </trkpt>
      <trkpt lat="49.81902" lon="2.5317">
        <ele>51.5</ele>
        <time>2022-12-07T14:31:07Z</time>
      </trkpt>
      <trkpt lat="49.81902" lon="2.53173">
        <ele>51.6</ele>
        <time>2022-12-07T14:31:08Z</time>
      </trkpt>
      <trkpt lat="49.81902" lon="2.53175">
        <ele>51.6</ele>
        <time>2022-12-07T14:31:09Z</time>
      </trkpt>
      <trkpt lat="49.81902" lon="2.53176">
        <ele>51.7</ele>
        <time>2022-12-07T14:31:10Z</time>
      </trkpt>
      <trkpt lat="49.81902" lon="2.53178">
        <ele>51.7</ele>
        <time>2022-12-07T14:31:11Z</time>
      </trkpt>
      <trkpt lat="49.81902" lon="2.5318">
        <ele>51.8</ele>
        <time>2022-12-07T14:31:12Z</time>
      </trkpt>
      <trkpt lat="49.81903" lon="2.53183">
        <ele>51.9</ele>
        <time>2022-12-07T14:31:13Z</time>
      </trkpt>
      <trkpt lat="49.81903" lon="2.53186">
        <ele>51.9</ele>
        <time>2022-12-07T14:31:14Z</time>
      </trkpt>
      <trkpt lat="49.81903" lon="2.53189">
        <ele>52</ele>
        <time>2022-12-07T14:31:15Z</time>
      </trkpt>
      <trkpt lat="49.81903" lon="2.5319">
        <ele>52.1</ele>
        <time>2022-12-07T14:31:16Z</time>
      </trkpt>
      <trkpt lat="49.81903" lon="2.53192">
        <ele>52.1</ele>
        <time>2022-12-07T14:31:17Z</time>
      </trkpt>
      <trkpt lat="49.81903" lon="2.53193">
        <ele>52.1</ele>
        <time>2022-12-07T14:31:18Z</time>
      </trkpt>
      <trkpt lat="49.81903" lon="2.53195">
        <ele>52.2</ele>
        <time>2022-12-07T14:31:19Z</time>
      </trkpt>
      <trkpt lat="49.81903" lon="2.53197">
        <ele>52.2</ele>
        <time>2022-12-07T14:31:20Z</time>
      </trkpt>
      <trkpt lat="49.81903" lon="2.53199">
        <ele>52.2</ele>
        <time>2022-12-07T14:31:21Z</time>
      </trkpt>
      <trkpt lat="49.81903" lon="2.532">
        <ele>52.3</ele>
        <time>2022-12-07T14:31:22Z</time>
      </trkpt>
      <trkpt lat="49.81903" lon="2.53202">
        <ele>52.3</ele>
        <time>2022-12-07T14:31:23Z</time>
      </trkpt>
      <trkpt lat="49.81903" lon="2.53203">
        <ele>52.3</ele>
        <time>2022-12-07T14:31:24Z</time>
      </trkpt>
      <trkpt lat="49.81903" lon="2.53205">
        <ele>52.4</ele>
        <time>2022-12-07T14:31:25Z</time>
      </trkpt>
      <trkpt lat="49.81903" lon="2.53206">
        <ele>52.4</ele>
        <time>2022-12-07T14:31:26Z</time>
      </trkpt>
      <trkpt lat="49.81904" lon="2.53208">
        <ele>52.4</ele>
        <time>2022-12-07T14:31:27Z</time>
      </trkpt>
      <trkpt lat="49.81904" lon="2.5321">
        <ele>52.5</ele>
        <time>2022-12-07T14:31:28Z</time>
      </trkpt>
      <trkpt lat="49.81904" lon="2.53212">
        <ele>52.5</ele>
        <time>2022-12-07T14:31:29Z</time>
      </trkpt>
      <trkpt lat="49.81904" lon="2.53213">
        <ele>52.5</ele>
        <time>2022-12-07T14:31:30Z</time>
      </trkpt>
      <trkpt lat="49.81904" lon="2.53215">
        <ele>52.6</ele>
        <time>2022-12-07T14:31:31Z</time>
      </trkpt>
      <trkpt lat="49.81904" lon="2.53216">
        <ele>52.6</ele>
        <time>2022-12-07T14:31:32Z</time>
      </trkpt>
      <trkpt lat="49.81904" lon="2.53218">
        <ele>52.6</ele>
        <time>2022-12-07T14:31:33Z</time>
      </trkpt>
      <trkpt lat="49.81904" lon="2.5322">
        <ele>52.7</ele>
        <time>2022-12-07T14:31:34Z</time>
      </trkpt>
      <trkpt lat="49.81904" lon="2.53222">
        <ele>52.7</ele>
        <time>2022-12-07T14:31:35Z</time>
      </trkpt>
      <trkpt lat="49.81904" lon="2.53224">
        <ele>52.8</ele>
        <time>2022-12-07T14:31:36Z</time>
      </trkpt>
      <trkpt lat="49.81904" lon="2.53226">
        <ele>52.8</ele>
        <time>2022-12-07T14:31:37Z</time>
      </trkpt>
      <trkpt lat="49.81904" lon="2.53229">
        <ele>52.9</ele>
        <time>2022-12-07T14:31:38Z</time>
      </trkpt>
      <trkpt lat="49.81904" lon="2.53231">
        <ele>52.9</ele>
        <time>2022-12-07T14:31:39Z</time>
      </trkpt>
      <trkpt lat="49.81904" lon="2.53233">
        <ele>53</ele>
        <time>2022-12-07T14:31:40Z</time>
      </trkpt>
      <trkpt lat="49.81904" lon="2.53236">
        <ele>53</ele>
        <time>2022-12-07T14:31:41Z</time>
      </trkpt>
      <trkpt lat="49.81903" lon="2.53239">
        <ele>53.1</ele>
        <time>2022-12-07T14:31:42Z</time>
      </trkpt>
      <trkpt lat="49.81903" lon="2.53241">
        <ele>53.2</ele>
        <time>2022-12-07T14:31:43Z</time>
      </trkpt>
      <trkpt lat="49.81903" lon="2.53242">
        <ele>53.2</ele>
        <time>2022-12-07T14:31:44Z</time>
      </trkpt>
      <trkpt lat="49.81903" lon="2.53244">
        <ele>53.3</ele>
        <time>2022-12-07T14:31:45Z</time>
      </trkpt>
      <trkpt lat="49.81903" lon="2.53245">
        <ele>53.3</ele>
        <time>2022-12-07T14:31:46Z</time>
      </trkpt>
      <trkpt lat="49.81903" lon="2.53247">
        <ele>53.4</ele>
        <time>2022-12-07T14:31:47Z</time>
      </trkpt>
      <trkpt lat="49.81903" lon="2.53249">
        <ele>53.4</ele>
        <time>2022-12-07T14:31:48Z</time>
      </trkpt>
      <trkpt lat="49.81903" lon="2.53251">
        <ele>53.5</ele>
        <time>2022-12-07T14:31:49Z</time>
      </trkpt>
      <trkpt lat="49.81904" lon="2.53252">
        <ele>53.6</ele>
        <time>2022-12-07T14:31:50Z</time>
      </trkpt>
      <trkpt lat="49.81904" lon="2.53254">
        <ele>53.6</ele>
        <time>2022-12-07T14:31:51Z</time>
      </trkpt>
      <trkpt lat="49.81904" lon="2.53256">
        <ele>53.7</ele>
        <time>2022-12-07T14:31:52Z</time>
      </trkpt>
      <trkpt lat="49.81904" lon="2.53257">
        <ele>53.8</ele>
        <time>2022-12-07T14:31:53Z</time>
      </trkpt>
      <trkpt lat="49.81905" lon="2.53259">
        <ele>53.8</ele>
        <time>2022-12-07T14:31:54Z</time>
      </trkpt>
      <trkpt lat="49.81905" lon="2.5326">
        <ele>53.9</ele>
        <time>2022-12-07T14:31:55Z</time>
      </trkpt>
      <trkpt lat="49.81905" lon="2.53261">
        <ele>53.9</ele>
        <time>2022-12-07T14:31:56Z</time>
      </trkpt>
      <trkpt lat="49.81906" lon="2.53263">
        <ele>54</ele>
        <time>2022-12-07T14:31:57Z</time>
      </trkpt>
      <trkpt lat="49.81906" lon="2.53264">
        <ele>54.1</ele>
        <time>2022-12-07T14:31:58Z</time>
      </trkpt>
      <trkpt lat="49.81907" lon="2.53265">
        <ele>54.1</ele>
        <time>2022-12-07T14:31:59Z</time>
      </trkpt>
      <trkpt lat="49.81907" lon="2.53266">
        <ele>54.2</ele>
        <time>2022-12-07T14:32:00Z</time>
      </trkpt>
      <trkpt lat="49.81907" lon="2.53268">
        <ele>54.2</ele>
        <time>2022-12-07T14:32:01Z</time>
      </trkpt>
      <trkpt lat="49.81908" lon="2.53269">
        <ele>54.3</ele>
        <time>2022-12-07T14:32:02Z</time>
      </trkpt>
      <trkpt lat="49.81908" lon="2.53271">
        <ele>54.4</ele>
        <time>2022-12-07T14:32:03Z</time>
      </trkpt>
      <trkpt lat="49.81908" lon="2.53272">
        <ele>54.4</ele>
        <time>2022-12-07T14:32:04Z</time>
      </trkpt>
      <trkpt lat="49.81909" lon="2.53274">
        <ele>54.5</ele>
        <time>2022-12-07T14:32:05Z</time>
      </trkpt>
      <trkpt lat="49.81909" lon="2.53275">
        <ele>54.5</ele>
        <time>2022-12-07T14:32:06Z</time>
      </trkpt>
      <trkpt lat="49.81909" lon="2.53277">
        <ele>54.6</ele>
        <time>2022-12-07T14:32:07Z</time>
      </trkpt>
      <trkpt lat="49.81909" lon="2.53278">
        <ele>54.7</ele>
        <time>2022-12-07T14:32:08Z</time>
      </trkpt>
      <trkpt lat="49.81909" lon="2.53281">
        <ele>54.7</ele>
        <time>2022-12-07T14:32:09Z</time>
      </trkpt>
      <trkpt lat="49.81909" lon="2.53282">
        <ele>54.8</ele>
        <time>2022-12-07T14:32:10Z</time>
      </trkpt>
      <trkpt lat="49.81909" lon="2.53283">
        <ele>54.8</ele>
        <time>2022-12-07T14:32:11Z</time>
      </trkpt>
      <trkpt lat="49.81909" lon="2.53284">
        <ele>54.9</ele>
        <time>2022-12-07T14:32:12Z</time>
      </trkpt>
      <trkpt lat="49.81909" lon="2.53286">
        <ele>54.9</ele>
        <time>2022-12-07T14:32:13Z</time>
      </trkpt>
      <trkpt lat="49.81909" lon="2.53287">
        <ele>55</ele>
        <time>2022-12-07T14:32:14Z</time>
      </trkpt>
      <trkpt lat="49.81909" lon="2.53289">
        <ele>55</ele>
        <time>2022-12-07T14:32:15Z</time>
      </trkpt>
      <trkpt lat="49.81909" lon="2.5329">
        <ele>55.1</ele>
        <time>2022-12-07T14:32:16Z</time>
      </trkpt>
      <trkpt lat="49.81908" lon="2.53291">
        <ele>55.1</ele>
        <time>2022-12-07T14:32:17Z</time>
      </trkpt>
      <trkpt lat="49.81908" lon="2.53293">
        <ele>55.2</ele>
        <time>2022-12-07T14:32:18Z</time>
      </trkpt>
      <trkpt lat="49.81908" lon="2.53294">
        <ele>55.2</ele>
        <time>2022-12-07T14:32:19Z</time>
      </trkpt>
      <trkpt lat="49.81908" lon="2.53296">
        <ele>55.2</ele>
        <time>2022-12-07T14:32:20Z</time>
      </trkpt>
      <trkpt lat="49.81908" lon="2.53297">
        <ele>55.3</ele>
        <time>2022-12-07T14:32:21Z</time>
      </trkpt>
      <trkpt lat="49.81907" lon="2.53298">
        <ele>55.3</ele>
        <time>2022-12-07T14:32:22Z</time>
      </trkpt>
      <trkpt lat="49.81907" lon="2.533">
        <ele>55.4</ele>
        <time>2022-12-07T14:32:23Z</time>
      </trkpt>
      <trkpt lat="49.81907" lon="2.53301">
        <ele>55.4</ele>
        <time>2022-12-07T14:32:24Z</time>
      </trkpt>
      <trkpt lat="49.81907" lon="2.53302">
        <ele>55.4</ele>
        <time>2022-12-07T14:32:25Z</time>
      </trkpt>
      <trkpt lat="49.81907" lon="2.53304">
        <ele>55.5</ele>
        <time>2022-12-07T14:32:26Z</time>
      </trkpt>
      <trkpt lat="49.81907" lon="2.53305">
        <ele>55.5</ele>
        <time>2022-12-07T14:32:27Z</time>
      </trkpt>
      <trkpt lat="49.81907" lon="2.53306">
        <ele>55.5</ele>
        <time>2022-12-07T14:32:28Z</time>
      </trkpt>
      <trkpt lat="49.81907" lon="2.53307">
        <ele>55.6</ele>
        <time>2022-12-07T14:32:29Z</time>
      </trkpt>
      <trkpt lat="49.81906" lon="2.53308">
        <ele>55.6</ele>
        <time>2022-12-07T14:32:30Z</time>
      </trkpt>
      <trkpt lat="49.81906" lon="2.5331">
        <ele>55.7</ele>
        <time>2022-12-07T14:32:31Z</time>
      </trkpt>
      <trkpt lat="49.81906" lon="2.53311">
        <ele>55.7</ele>
        <time>2022-12-07T14:32:32Z</time>
      </trkpt>
      <trkpt lat="49.81906" lon="2.53312">
        <ele>55.7</ele>
        <time>2022-12-07T14:32:33Z</time>
      </trkpt>
      <trkpt lat="49.81905" lon="2.53313">
        <ele>55.7</ele>
        <time>2022-12-07T14:32:34Z</time>
      </trkpt>
      <trkpt lat="49.81905" lon="2.53314">
        <ele>55.8</ele>
        <time>2022-12-07T14:32:35Z</time>
      </trkpt>
      <trkpt lat="49.81905" lon="2.53315">
        <ele>55.8</ele>
        <time>2022-12-07T14:32:36Z</time>
      </trkpt>
      <trkpt lat="49.81904" lon="2.53316">
        <ele>55.8</ele>
        <time>2022-12-07T14:32:37Z</time>
      </trkpt>
      <trkpt lat="49.81904" lon="2.53317">
        <ele>55.9</ele>
        <time>2022-12-07T14:32:38Z</time>
      </trkpt>
      <trkpt lat="49.81903" lon="2.53318">
        <ele>55.9</ele>
        <time>2022-12-07T14:32:39Z</time>
      </trkpt>
      <trkpt lat="49.81903" lon="2.53319">
        <ele>55.9</ele>
        <time>2022-12-07T14:32:40Z</time>
      </trkpt>
      <trkpt lat="49.81903" lon="2.53319">
        <ele>56</ele>
        <time>2022-12-07T14:32:41Z</time>
      </trkpt>
      <trkpt lat="49.81902" lon="2.53319">
        <ele>56</ele>
        <time>2022-12-07T14:32:42Z</time>
      </trkpt>
      <trkpt lat="49.81902" lon="2.53319">
        <ele>56</ele>
        <time>2022-12-07T14:32:43Z</time>
      </trkpt>
      <trkpt lat="49.81902" lon="2.53319">
        <ele>56</ele>
        <time>2022-12-07T14:32:44Z</time>
      </trkpt>
      <trkpt lat="49.81902" lon="2.53319">
        <ele>56</ele>
        <time>2022-12-07T14:32:45Z</time>
      </trkpt>
      <trkpt lat="49.81902" lon="2.53319">
        <ele>56</ele>
        <time>2022-12-07T14:32:46Z</time>
      </trkpt>
      <trkpt lat="49.81901" lon="2.53319">
        <ele>56</ele>
        <time>2022-12-07T14:32:47Z</time>
      </trkpt>
      <trkpt lat="49.81901" lon="2.53318">
        <ele>56</ele>
        <time>2022-12-07T14:32:48Z</time>
      </trkpt>
      <trkpt lat="49.81901" lon="2.53318">
        <ele>56</ele>
        <time>2022-12-07T14:32:49Z</time>
      </trkpt>
      <trkpt lat="49.81901" lon="2.53318">
        <ele>56</ele>
        <time>2022-12-07T14:32:50Z</time>
      </trkpt>
      <trkpt lat="49.81901" lon="2.53318">
        <ele>56</ele>
        <time>2022-12-07T14:32:51Z</time>
      </trkpt>
      <trkpt lat="49.81901" lon="2.53317">
        <ele>56</ele>
        <time>2022-12-07T14:32:52Z</time>
      </trkpt>
      <trkpt lat="49.81902" lon="2.53316">
        <ele>56.1</ele>
        <time>2022-12-07T14:32:54Z</time>
      </trkpt>
      <trkpt lat="49.81902" lon="2.53316">
        <ele>56.1</ele>
        <time>2022-12-07T14:32:55Z</time>
      </trkpt>
      <trkpt lat="49.81902" lon="2.53316">
        <ele>56.1</ele>
        <time>2022-12-07T14:32:56Z</time>
      </trkpt>
      <trkpt lat="49.81902" lon="2.53316">
        <ele>56.1</ele>
        <time>2022-12-07T14:32:57Z</time>
      </trkpt>
      <trkpt lat="49.81902" lon="2.53316">
        <ele>56.1</ele>
        <time>2022-12-07T14:32:58Z</time>
      </trkpt>
      <trkpt lat="49.81902" lon="2.53315">
        <ele>56.1</ele>
        <time>2022-12-07T14:32:59Z</time>
      </trkpt>
      <trkpt lat="49.81902" lon="2.53315">
        <ele>56.1</ele>
        <time>2022-12-07T14:33:00Z</time>
      </trkpt>
      <trkpt lat="49.81903" lon="2.53314">
        <ele>56.2</ele>
        <time>2022-12-07T14:33:01Z</time>
      </trkpt>
      <trkpt lat="49.81903" lon="2.53314">
        <ele>56.2</ele>
        <time>2022-12-07T14:33:02Z</time>
      </trkpt>
      <trkpt lat="49.81902" lon="2.53314">
        <ele>56.2</ele>
        <time>2022-12-07T14:33:03Z</time>
      </trkpt>
      <trkpt lat="49.81902" lon="2.53314">
        <ele>56.2</ele>
        <time>2022-12-07T14:33:04Z</time>
      </trkpt>
      <trkpt lat="49.81902" lon="2.53314">
        <ele>56.2</ele>
        <time>2022-12-07T14:33:05Z</time>
      </trkpt>
      <trkpt lat="49.81902" lon="2.53314">
        <ele>56.2</ele>
        <time>2022-12-07T14:33:06Z</time>
      </trkpt>
      <trkpt lat="49.81902" lon="2.53314">
        <ele>56.2</ele>
        <time>2022-12-07T14:33:07Z</time>
      </trkpt>
      <trkpt lat="49.81902" lon="2.53314">
        <ele>56.2</ele>
        <time>2022-12-07T14:33:08Z</time>
      </trkpt>
      <trkpt lat="49.81902" lon="2.53314">
        <ele>56.2</ele>
        <time>2022-12-07T14:33:09Z</time>
      </trkpt>
      <trkpt lat="49.81902" lon="2.53314">
        <ele>56.2</ele>
        <time>2022-12-07T14:33:10Z</time>
      </trkpt>
      <trkpt lat="49.81902" lon="2.53314">
        <ele>56.2</ele>
        <time>2022-12-07T14:33:11Z</time>
      </trkpt>
      <trkpt lat="49.81902" lon="2.53314">
        <ele>56.2</ele>
        <time>2022-12-07T14:33:12Z</time>
      </trkpt>
      <trkpt lat="49.81902" lon="2.53314">
        <ele>56.2</ele>
        <time>2022-12-07T14:33:13Z</time>
      </trkpt>
      <trkpt lat="49.81902" lon="2.53314">
        <ele>56.2</ele>
        <time>2022-12-07T14:33:14Z</time>
      </trkpt>
      <trkpt lat="49.81902" lon="2.53314">
        <ele>56.2</ele>
        <time>2022-12-07T14:33:15Z</time>
      </trkpt>
      <trkpt lat="49.81902" lon="2.53314">
        <ele>56.2</ele>
        <time>2022-12-07T14:33:16Z</time>
      </trkpt>
      <trkpt lat="49.81902" lon="2.53314">
        <ele>56.2</ele>
        <time>2022-12-07T14:33:17Z</time>
      </trkpt>
      <trkpt lat="49.81902" lon="2.53314">
        <ele>56.2</ele>
        <time>2022-12-07T14:33:18Z</time>
      </trkpt>
      <trkpt lat="49.81902" lon="2.53314">
        <ele>56.2</ele>
        <time>2022-12-07T14:33:19Z</time>
      </trkpt>
      <trkpt lat="49.81902" lon="2.53314">
        <ele>56.2</ele>
        <time>2022-12-07T14:33:20Z</time>
      </trkpt>
      <trkpt lat="49.81902" lon="2.53314">
        <ele>56.2</ele>
        <time>2022-12-07T14:33:21Z</time>
      </trkpt>
      <trkpt lat="49.81902" lon="2.53314">
        <ele>56.2</ele>
        <time>2022-12-07T14:33:22Z</time>
      </trkpt>
      <trkpt lat="49.81902" lon="2.53314">
        <ele>56.2</ele>
        <time>2022-12-07T14:33:23Z</time>
      </trkpt>
      <trkpt lat="49.81902" lon="2.53314">
        <ele>56.2</ele>
        <time>2022-12-07T14:33:24Z</time>
      </trkpt>
      <trkpt lat="49.81902" lon="2.53314">
        <ele>56.2</ele>
        <time>2022-12-07T14:33:25Z</time>
      </trkpt>
      <trkpt lat="49.81902" lon="2.53314">
        <ele>56.2</ele>
        <time>2022-12-07T14:33:26Z</time>
      </trkpt>
      <trkpt lat="49.81902" lon="2.53314">
        <ele>56.2</ele>
        <time>2022-12-07T14:33:27Z</time>
      </trkpt>
      <trkpt lat="49.81902" lon="2.53314">
        <ele>56.2</ele>
        <time>2022-12-07T14:33:28Z</time>
      </trkpt>
      <trkpt lat="49.81902" lon="2.53314">
        <ele>56.2</ele>
        <time>2022-12-07T14:33:29Z</time>
      </trkpt>
      <trkpt lat="49.81902" lon="2.53314">
        <ele>56.2</ele>
        <time>2022-12-07T14:33:30Z</time>
      </trkpt>
      <trkpt lat="49.81902" lon="2.53313">
        <ele>56.2</ele>
        <time>2022-12-07T14:33:31Z</time>
      </trkpt>
      <trkpt lat="49.81902" lon="2.53314">
        <ele>56.2</ele>
        <time>2022-12-07T14:33:32Z</time>
      </trkpt>
      <trkpt lat="49.81901" lon="2.53314">
        <ele>56.3</ele>
        <time>2022-12-07T14:33:33Z</time>
      </trkpt>
      <trkpt lat="49.81901" lon="2.53314">
        <ele>56.3</ele>
        <time>2022-12-07T14:33:34Z</time>
      </trkpt>
      <trkpt lat="49.819" lon="2.53315">
        <ele>56.3</ele>
        <time>2022-12-07T14:33:35Z</time>
      </trkpt>
      <trkpt lat="49.819" lon="2.53315">
        <ele>56.3</ele>
        <time>2022-12-07T14:33:36Z</time>
      </trkpt>
      <trkpt lat="49.81899" lon="2.53316">
        <ele>56.4</ele>
        <time>2022-12-07T14:33:37Z</time>
      </trkpt>
      <trkpt lat="49.81898" lon="2.53316">
        <ele>56.4</ele>
        <time>2022-12-07T14:33:38Z</time>
      </trkpt>
      <trkpt lat="49.81898" lon="2.53316">
        <ele>56.4</ele>
        <time>2022-12-07T14:33:39Z</time>
      </trkpt>
      <trkpt lat="49.81897" lon="2.53315">
        <ele>56.4</ele>
        <time>2022-12-07T14:33:40Z</time>
      </trkpt>
      <trkpt lat="49.81897" lon="2.53315">
        <ele>56.5</ele>
        <time>2022-12-07T14:33:41Z</time>
      </trkpt>
      <trkpt lat="49.81896" lon="2.53315">
        <ele>56.5</ele>
        <time>2022-12-07T14:33:42Z</time>
      </trkpt>
      <trkpt lat="49.81895" lon="2.53315">
        <ele>56.5</ele>
        <time>2022-12-07T14:33:43Z</time>
      </trkpt>
      <trkpt lat="49.81895" lon="2.53316">
        <ele>56.5</ele>
        <time>2022-12-07T14:33:44Z</time>
      </trkpt>
      <trkpt lat="49.81894" lon="2.53316">
        <ele>56.6</ele>
        <time>2022-12-07T14:33:45Z</time>
      </trkpt>
      <trkpt lat="49.81893" lon="2.53317">
        <ele>56.6</ele>
        <time>2022-12-07T14:33:46Z</time>
      </trkpt>
      <trkpt lat="49.81893" lon="2.53318">
        <ele>56.6</ele>
        <time>2022-12-07T14:33:47Z</time>
      </trkpt>
      <trkpt lat="49.81892" lon="2.53318">
        <ele>56.7</ele>
        <time>2022-12-07T14:33:48Z</time>
      </trkpt>
      <trkpt lat="49.81892" lon="2.53319">
        <ele>56.7</ele>
        <time>2022-12-07T14:33:49Z</time>
      </trkpt>
      <trkpt lat="49.81892" lon="2.53319">
        <ele>56.7</ele>
        <time>2022-12-07T14:33:50Z</time>
      </trkpt>
      <trkpt lat="49.81892" lon="2.53319">
        <ele>56.7</ele>
        <time>2022-12-07T14:33:51Z</time>
      </trkpt>
      <trkpt lat="49.81892" lon="2.53319">
        <ele>56.7</ele>
        <time>2022-12-07T14:33:52Z</time>
      </trkpt>
      <trkpt lat="49.81892" lon="2.53319">
        <ele>56.7</ele>
        <time>2022-12-07T14:33:53Z</time>
      </trkpt>
      <trkpt lat="49.81892" lon="2.53319">
        <ele>56.7</ele>
        <time>2022-12-07T14:33:54Z</time>
      </trkpt>
      <trkpt lat="49.81892" lon="2.53319">
        <ele>56.7</ele>
        <time>2022-12-07T14:33:55Z</time>
      </trkpt>
      <trkpt lat="49.81892" lon="2.53319">
        <ele>56.7</ele>
        <time>2022-12-07T14:33:56Z</time>
      </trkpt>
      <trkpt lat="49.81892" lon="2.53319">
        <ele>56.7</ele>
        <time>2022-12-07T14:33:57Z</time>
      </trkpt>
      <trkpt lat="49.81892" lon="2.53319">
        <ele>56.7</ele>
        <time>2022-12-07T14:33:58Z</time>
      </trkpt>
      <trkpt lat="49.81892" lon="2.53319">
        <ele>56.7</ele>
        <time>2022-12-07T14:33:59Z</time>
      </trkpt>
      <trkpt lat="49.81892" lon="2.53319">
        <ele>56.7</ele>
        <time>2022-12-07T14:34:00Z</time>
      </trkpt>
      <trkpt lat="49.81892" lon="2.53319">
        <ele>56.7</ele>
        <time>2022-12-07T14:34:01Z</time>
      </trkpt>
      <trkpt lat="49.81892" lon="2.53319">
        <ele>56.7</ele>
        <time>2022-12-07T14:34:02Z</time>
      </trkpt>
      <trkpt lat="49.81892" lon="2.53319">
        <ele>56.7</ele>
        <time>2022-12-07T14:34:03Z</time>
      </trkpt>
      <trkpt lat="49.81892" lon="2.53319">
        <ele>56.7</ele>
        <time>2022-12-07T14:34:04Z</time>
      </trkpt>
      <trkpt lat="49.81892" lon="2.53319">
        <ele>56.7</ele>
        <time>2022-12-07T14:34:05Z</time>
      </trkpt>
      <trkpt lat="49.81892" lon="2.53319">
        <ele>56.7</ele>
        <time>2022-12-07T14:34:06Z</time>
      </trkpt>
      <trkpt lat="49.81892" lon="2.53319">
        <ele>56.7</ele>
        <time>2022-12-07T14:34:07Z</time>
      </trkpt>
      <trkpt lat="49.81892" lon="2.53319">
        <ele>56.7</ele>
        <time>2022-12-07T14:34:08Z</time>
      </trkpt>
      <trkpt lat="49.81892" lon="2.53319">
        <ele>56.7</ele>
        <time>2022-12-07T14:34:09Z</time>
      </trkpt>
      <trkpt lat="49.81892" lon="2.53319">
        <ele>56.7</ele>
        <time>2022-12-07T14:34:10Z</time>
      </trkpt>
      <trkpt lat="49.81892" lon="2.53319">
        <ele>56.7</ele>
        <time>2022-12-07T14:34:11Z</time>
      </trkpt>
      <trkpt lat="49.81892" lon="2.53319">
        <ele>56.7</ele>
        <time>2022-12-07T14:34:12Z</time>
      </trkpt>
      <trkpt lat="49.81892" lon="2.53319">
        <ele>56.7</ele>
        <time>2022-12-07T14:34:13Z</time>
      </trkpt>
      <trkpt lat="49.81892" lon="2.53319">
        <ele>56.7</ele>
        <time>2022-12-07T14:34:14Z</time>
      </trkpt>
      <trkpt lat="49.81892" lon="2.53319">
        <ele>56.7</ele>
        <time>2022-12-07T14:34:15Z</time>
      </trkpt>
      <trkpt lat="49.81892" lon="2.53319">
        <ele>56.7</ele>
        <time>2022-12-07T14:34:16Z</time>
      </trkpt>
      <trkpt lat="49.81892" lon="2.53319">
        <ele>56.7</ele>
        <time>2022-12-07T14:34:17Z</time>
      </trkpt>
      <trkpt lat="49.81892" lon="2.53319">
        <ele>56.7</ele>
        <time>2022-12-07T14:34:18Z</time>
      </trkpt>
      <trkpt lat="49.81892" lon="2.53319">
        <ele>56.7</ele>
        <time>2022-12-07T14:34:19Z</time>
      </trkpt>
      <trkpt lat="49.81892" lon="2.53319">
        <ele>56.7</ele>
        <time>2022-12-07T14:34:20Z</time>
      </trkpt>
      <trkpt lat="49.81892" lon="2.53319">
        <ele>56.8</ele>
        <time>2022-12-07T14:34:21Z</time>
      </trkpt>
      <trkpt lat="49.81892" lon="2.53319">
        <ele>56.8</ele>
        <time>2022-12-07T14:34:22Z</time>
      </trkpt>
      <trkpt lat="49.81892" lon="2.53319">
        <ele>56.8</ele>
        <time>2022-12-07T14:34:23Z</time>
      </trkpt>
      <trkpt lat="49.81892" lon="2.53319">
        <ele>56.8</ele>
        <time>2022-12-07T14:34:24Z</time>
      </trkpt>
      <trkpt lat="49.81892" lon="2.53319">
        <ele>56.9</ele>
        <time>2022-12-07T14:34:25Z</time>
      </trkpt>
      <trkpt lat="49.81892" lon="2.53319">
        <ele>56.9</ele>
        <time>2022-12-07T14:34:26Z</time>
      </trkpt>
      <trkpt lat="49.81892" lon="2.53319">
        <ele>56.9</ele>
        <time>2022-12-07T14:34:27Z</time>
      </trkpt>
      <trkpt lat="49.81892" lon="2.53319">
        <ele>56.9</ele>
        <time>2022-12-07T14:34:28Z</time>
      </trkpt>
      <trkpt lat="49.81892" lon="2.53319">
        <ele>57</ele>
        <time>2022-12-07T14:34:29Z</time>
      </trkpt>
      <trkpt lat="49.81892" lon="2.53319">
        <ele>57</ele>
        <time>2022-12-07T14:34:30Z</time>
      </trkpt>
      <trkpt lat="49.81892" lon="2.53319">
        <ele>57</ele>
        <time>2022-12-07T14:34:31Z</time>
      </trkpt>
      <trkpt lat="49.81892" lon="2.53319">
        <ele>57</ele>
        <time>2022-12-07T14:34:32Z</time>
      </trkpt>
      <trkpt lat="49.81892" lon="2.53319">
        <ele>57.1</ele>
        <time>2022-12-07T14:34:33Z</time>
      </trkpt>
      <trkpt lat="49.81892" lon="2.53319">
        <ele>57.1</ele>
        <time>2022-12-07T14:34:34Z</time>
      </trkpt>
      <trkpt lat="49.81892" lon="2.53319">
        <ele>57.1</ele>
        <time>2022-12-07T14:34:35Z</time>
      </trkpt>
      <trkpt lat="49.81892" lon="2.53319">
        <ele>57.1</ele>
        <time>2022-12-07T14:34:36Z</time>
      </trkpt>
      <trkpt lat="49.81892" lon="2.53319">
        <ele>57.2</ele>
        <time>2022-12-07T14:34:37Z</time>
      </trkpt>
      <trkpt lat="49.81892" lon="2.53319">
        <ele>57.2</ele>
        <time>2022-12-07T14:34:38Z</time>
      </trkpt>
      <trkpt lat="49.81892" lon="2.53319">
        <ele>57.2</ele>
        <time>2022-12-07T14:34:39Z</time>
      </trkpt>
      <trkpt lat="49.81892" lon="2.53319">
        <ele>57.2</ele>
        <time>2022-12-07T14:34:40Z</time>
      </trkpt>
      <trkpt lat="49.81892" lon="2.53319">
        <ele>57.3</ele>
        <time>2022-12-07T14:34:41Z</time>
      </trkpt>
      <trkpt lat="49.81894" lon="2.53316">
        <ele>57.4</ele>
        <time>2022-12-07T14:34:42Z</time>
      </trkpt>
      <trkpt lat="49.81895" lon="2.53315">
        <ele>57.5</ele>
        <time>2022-12-07T14:34:43Z</time>
      </trkpt>
      <trkpt lat="49.81895" lon="2.53315">
        <ele>57.5</ele>
        <time>2022-12-07T14:34:44Z</time>
      </trkpt>
      <trkpt lat="49.81896" lon="2.53315">
        <ele>57.5</ele>
        <time>2022-12-07T14:34:45Z</time>
      </trkpt>
      <trkpt lat="49.81896" lon="2.53316">
        <ele>57.5</ele>
        <time>2022-12-07T14:34:46Z</time>
      </trkpt>
      <trkpt lat="49.81896" lon="2.53316">
        <ele>57.6</ele>
        <time>2022-12-07T14:34:47Z</time>
      </trkpt>
      <trkpt lat="49.81896" lon="2.53316">
        <ele>57.7</ele>
        <time>2022-12-07T14:34:48Z</time>
      </trkpt>
      <trkpt lat="49.81896" lon="2.53316">
        <ele>57.7</ele>
        <time>2022-12-07T14:34:49Z</time>
      </trkpt>
      <trkpt lat="49.81896" lon="2.53316">
        <ele>57.7</ele>
        <time>2022-12-07T14:34:50Z</time>
      </trkpt>
      <trkpt lat="49.81896" lon="2.53316">
        <ele>57.7</ele>
        <time>2022-12-07T14:34:51Z</time>
      </trkpt>
      <trkpt lat="49.81896" lon="2.53316">
        <ele>57.8</ele>
        <time>2022-12-07T14:34:52Z</time>
      </trkpt>
      <trkpt lat="49.81896" lon="2.53316">
        <ele>57.8</ele>
        <time>2022-12-07T14:34:53Z</time>
      </trkpt>
      <trkpt lat="49.81896" lon="2.53316">
        <ele>57.8</ele>
        <time>2022-12-07T14:34:54Z</time>
      </trkpt>
      <trkpt lat="49.81896" lon="2.53316">
        <ele>57.8</ele>
        <time>2022-12-07T14:34:55Z</time>
      </trkpt>
      <trkpt lat="49.81896" lon="2.53316">
        <ele>57.9</ele>
        <time>2022-12-07T14:34:56Z</time>
      </trkpt>
      <trkpt lat="49.81896" lon="2.53316">
        <ele>57.9</ele>
        <time>2022-12-07T14:34:57Z</time>
      </trkpt>
      <trkpt lat="49.81896" lon="2.53316">
        <ele>57.9</ele>
        <time>2022-12-07T14:34:58Z</time>
      </trkpt>
      <trkpt lat="49.81896" lon="2.53316">
        <ele>57.9</ele>
        <time>2022-12-07T14:34:59Z</time>
      </trkpt>
      <trkpt lat="49.81896" lon="2.53316">
        <ele>57.9</ele>
        <time>2022-12-07T14:35:00Z</time>
      </trkpt>
      <trkpt lat="49.81896" lon="2.53316">
        <ele>58</ele>
        <time>2022-12-07T14:35:01Z</time>
      </trkpt>
      <trkpt lat="49.81896" lon="2.53316">
        <ele>58</ele>
        <time>2022-12-07T14:35:02Z</time>
      </trkpt>
      <trkpt lat="49.81896" lon="2.53316">
        <ele>58</ele>
        <time>2022-12-07T14:35:03Z</time>
      </trkpt>
      <trkpt lat="49.81896" lon="2.53316">
        <ele>58</ele>
        <time>2022-12-07T14:35:04Z</time>
      </trkpt>
      <trkpt lat="49.81896" lon="2.53316">
        <ele>58.1</ele>
        <time>2022-12-07T14:35:05Z</time>
      </trkpt>
      <trkpt lat="49.81896" lon="2.53316">
        <ele>58.1</ele>
        <time>2022-12-07T14:35:06Z</time>
      </trkpt>
      <trkpt lat="49.81896" lon="2.53316">
        <ele>58.1</ele>
        <time>2022-12-07T14:35:07Z</time>
      </trkpt>
      <trkpt lat="49.81896" lon="2.53316">
        <ele>58.1</ele>
        <time>2022-12-07T14:35:08Z</time>
      </trkpt>
      <trkpt lat="49.81896" lon="2.53316">
        <ele>58.2</ele>
        <time>2022-12-07T14:35:09Z</time>
      </trkpt>
      <trkpt lat="49.81896" lon="2.53316">
        <ele>58.2</ele>
        <time>2022-12-07T14:35:10Z</time>
      </trkpt>
      <trkpt lat="49.81896" lon="2.53316">
        <ele>58.2</ele>
        <time>2022-12-07T14:35:11Z</time>
      </trkpt>
      <trkpt lat="49.81896" lon="2.53316">
        <ele>58.2</ele>
        <time>2022-12-07T14:35:12Z</time>
      </trkpt>
      <trkpt lat="49.81896" lon="2.53316">
        <ele>58.2</ele>
        <time>2022-12-07T14:35:13Z</time>
      </trkpt>
      <trkpt lat="49.81896" lon="2.53316">
        <ele>58.3</ele>
        <time>2022-12-07T14:35:14Z</time>
      </trkpt>
      <trkpt lat="49.81896" lon="2.53316">
        <ele>58.3</ele>
        <time>2022-12-07T14:35:15Z</time>
      </trkpt>
      <trkpt lat="49.81896" lon="2.53316">
        <ele>58.3</ele>
        <time>2022-12-07T14:35:16Z</time>
      </trkpt>
      <trkpt lat="49.81896" lon="2.53316">
        <ele>58.3</ele>
        <time>2022-12-07T14:35:17Z</time>
      </trkpt>
      <trkpt lat="49.81896" lon="2.53316">
        <ele>58.4</ele>
        <time>2022-12-07T14:35:18Z</time>
      </trkpt>
      <trkpt lat="49.81896" lon="2.53316">
        <ele>58.4</ele>
        <time>2022-12-07T14:35:19Z</time>
      </trkpt>
      <trkpt lat="49.81896" lon="2.53316">
        <ele>58.4</ele>
        <time>2022-12-07T14:35:20Z</time>
      </trkpt>
      <trkpt lat="49.81896" lon="2.53316">
        <ele>58.4</ele>
        <time>2022-12-07T14:35:21Z</time>
      </trkpt>
      <trkpt lat="49.81896" lon="2.53316">
        <ele>58.4</ele>
        <time>2022-12-07T14:35:22Z</time>
      </trkpt>
      <trkpt lat="49.81896" lon="2.53316">
        <ele>58.5</ele>
        <time>2022-12-07T14:35:23Z</time>
      </trkpt>
      <trkpt lat="49.81896" lon="2.53316">
        <ele>58.5</ele>
        <time>2022-12-07T14:35:24Z</time>
      </trkpt>
      <trkpt lat="49.81896" lon="2.53316">
        <ele>58.5</ele>
        <time>2022-12-07T14:35:25Z</time>
      </trkpt>
      <trkpt lat="49.81896" lon="2.53316">
        <ele>58.5</ele>
        <time>2022-12-07T14:35:26Z</time>
      </trkpt>
      <trkpt lat="49.81896" lon="2.53316">
        <ele>58.6</ele>
        <time>2022-12-07T14:35:27Z</time>
      </trkpt>
      <trkpt lat="49.81896" lon="2.53316">
        <ele>58.6</ele>
        <time>2022-12-07T14:35:28Z</time>
      </trkpt>
      <trkpt lat="49.81896" lon="2.53316">
        <ele>58.6</ele>
        <time>2022-12-07T14:35:29Z</time>
      </trkpt>
      <trkpt lat="49.81896" lon="2.53316">
        <ele>58.6</ele>
        <time>2022-12-07T14:35:30Z</time>
      </trkpt>
      <trkpt lat="49.81896" lon="2.53316">
        <ele>58.7</ele>
        <time>2022-12-07T14:35:31Z</time>
      </trkpt>
      <trkpt lat="49.81896" lon="2.53316">
        <ele>58.7</ele>
        <time>2022-12-07T14:35:32Z</time>
      </trkpt>
      <trkpt lat="49.81896" lon="2.53316">
        <ele>58.7</ele>
        <time>2022-12-07T14:35:33Z</time>
      </trkpt>
      <trkpt lat="49.81896" lon="2.53316">
        <ele>58.7</ele>
        <time>2022-12-07T14:35:34Z</time>
      </trkpt>
      <trkpt lat="49.81896" lon="2.53316">
        <ele>58.7</ele>
        <time>2022-12-07T14:35:35Z</time>
      </trkpt>
      <trkpt lat="49.81896" lon="2.53316">
        <ele>58.8</ele>
        <time>2022-12-07T14:35:36Z</time>
      </trkpt>
      <trkpt lat="49.81896" lon="2.53316">
        <ele>58.8</ele>
        <time>2022-12-07T14:35:37Z</time>
      </trkpt>
      <trkpt lat="49.81896" lon="2.53316">
        <ele>58.8</ele>
        <time>2022-12-07T14:35:38Z</time>
      </trkpt>
      <trkpt lat="49.81896" lon="2.53316">
        <ele>58.8</ele>
        <time>2022-12-07T14:35:39Z</time>
      </trkpt>
      <trkpt lat="49.81896" lon="2.53316">
        <ele>58.9</ele>
        <time>2022-12-07T14:35:40Z</time>
      </trkpt>
      <trkpt lat="49.81896" lon="2.53316">
        <ele>58.9</ele>
        <time>2022-12-07T14:35:41Z</time>
      </trkpt>
      <trkpt lat="49.81896" lon="2.53316">
        <ele>58.9</ele>
        <time>2022-12-07T14:35:42Z</time>
      </trkpt>
      <trkpt lat="49.81896" lon="2.53316">
        <ele>58.9</ele>
        <time>2022-12-07T14:35:43Z</time>
      </trkpt>
      <trkpt lat="49.81896" lon="2.53316">
        <ele>59</ele>
        <time>2022-12-07T14:35:44Z</time>
      </trkpt>
      <trkpt lat="49.81896" lon="2.53316">
        <ele>59</ele>
        <time>2022-12-07T14:35:45Z</time>
      </trkpt>
      <trkpt lat="49.81896" lon="2.53316">
        <ele>59</ele>
        <time>2022-12-07T14:35:46Z</time>
      </trkpt>
      <trkpt lat="49.81896" lon="2.53316">
        <ele>59</ele>
        <time>2022-12-07T14:35:47Z</time>
      </trkpt>
      <trkpt lat="49.81896" lon="2.53316">
        <ele>59</ele>
        <time>2022-12-07T14:35:48Z</time>
      </trkpt>
      <trkpt lat="49.81896" lon="2.53316">
        <ele>59.1</ele>
        <time>2022-12-07T14:35:49Z</time>
      </trkpt>
      <trkpt lat="49.81896" lon="2.53316">
        <ele>59.1</ele>
        <time>2022-12-07T14:35:50Z</time>
      </trkpt>
      <trkpt lat="49.81896" lon="2.53316">
        <ele>59.1</ele>
        <time>2022-12-07T14:35:51Z</time>
      </trkpt>
      <trkpt lat="49.81896" lon="2.53316">
        <ele>59.1</ele>
        <time>2022-12-07T14:35:52Z</time>
      </trkpt>
      <trkpt lat="49.81896" lon="2.53316">
        <ele>59.2</ele>
        <time>2022-12-07T14:35:53Z</time>
      </trkpt>
      <trkpt lat="49.81896" lon="2.53316">
        <ele>59.2</ele>
        <time>2022-12-07T14:35:54Z</time>
      </trkpt>
      <trkpt lat="49.81896" lon="2.53316">
        <ele>59.2</ele>
        <time>2022-12-07T14:35:55Z</time>
      </trkpt>
      <trkpt lat="49.81896" lon="2.53316">
        <ele>59.2</ele>
        <time>2022-12-07T14:35:56Z</time>
      </trkpt>
      <trkpt lat="49.81896" lon="2.53316">
        <ele>59.3</ele>
        <time>2022-12-07T14:35:57Z</time>
      </trkpt>
      <trkpt lat="49.81896" lon="2.53316">
        <ele>59.3</ele>
        <time>2022-12-07T14:35:58Z</time>
      </trkpt>
      <trkpt lat="49.81896" lon="2.53316">
        <ele>59.3</ele>
        <time>2022-12-07T14:35:59Z</time>
      </trkpt>
      <trkpt lat="49.81896" lon="2.53316">
        <ele>59.3</ele>
        <time>2022-12-07T14:36:00Z</time>
      </trkpt>
      <trkpt lat="49.81896" lon="2.53316">
        <ele>59.3</ele>
        <time>2022-12-07T14:36:01Z</time>
      </trkpt>
      <trkpt lat="49.81896" lon="2.53316">
        <ele>59.3</ele>
        <time>2022-12-07T14:36:02Z</time>
      </trkpt>
      <trkpt lat="49.81896" lon="2.53316">
        <ele>59.3</ele>
        <time>2022-12-07T14:36:03Z</time>
      </trkpt>
      <trkpt lat="49.81896" lon="2.53316">
        <ele>59.3</ele>
        <time>2022-12-07T14:36:04Z</time>
      </trkpt>
      <trkpt lat="49.81896" lon="2.53316">
        <ele>59.3</ele>
        <time>2022-12-07T14:36:05Z</time>
      </trkpt>
      <trkpt lat="49.81896" lon="2.53316">
        <ele>59.3</ele>
        <time>2022-12-07T14:36:06Z</time>
      </trkpt>
      <trkpt lat="49.81896" lon="2.53316">
        <ele>59.3</ele>
        <time>2022-12-07T14:36:07Z</time>
      </trkpt>
      <trkpt lat="49.81896" lon="2.53316">
        <ele>59.3</ele>
        <time>2022-12-07T14:36:08Z</time>
      </trkpt>
      <trkpt lat="49.81896" lon="2.53316">
        <ele>59.3</ele>
        <time>2022-12-07T14:36:09Z</time>
      </trkpt>
      <trkpt lat="49.81896" lon="2.53316">
        <ele>59.3</ele>
        <time>2022-12-07T14:36:10Z</time>
      </trkpt>
      <trkpt lat="49.81896" lon="2.53316">
        <ele>59.3</ele>
        <time>2022-12-07T14:36:11Z</time>
      </trkpt>
      <trkpt lat="49.81896" lon="2.53316">
        <ele>59.3</ele>
        <time>2022-12-07T14:36:12Z</time>
      </trkpt>
      <trkpt lat="49.81896" lon="2.53316">
        <ele>59.3</ele>
        <time>2022-12-07T14:36:13Z</time>
      </trkpt>
      <trkpt lat="49.81896" lon="2.53316">
        <ele>59.3</ele>
        <time>2022-12-07T14:36:14Z</time>
      </trkpt>
      <trkpt lat="49.81896" lon="2.53316">
        <ele>59.3</ele>
        <time>2022-12-07T14:36:15Z</time>
      </trkpt>
      <trkpt lat="49.81896" lon="2.53316">
        <ele>59.3</ele>
        <time>2022-12-07T14:36:16Z</time>
      </trkpt>
      <trkpt lat="49.81896" lon="2.53316">
        <ele>59.3</ele>
        <time>2022-12-07T14:36:17Z</time>
      </trkpt>
      <trkpt lat="49.81896" lon="2.53316">
        <ele>59.3</ele>
        <time>2022-12-07T14:36:18Z</time>
      </trkpt>
      <trkpt lat="49.81896" lon="2.53316">
        <ele>59.3</ele>
        <time>2022-12-07T14:36:19Z</time>
      </trkpt>
      <trkpt lat="49.81896" lon="2.53316">
        <ele>59.3</ele>
        <time>2022-12-07T14:36:20Z</time>
      </trkpt>
      <trkpt lat="49.81896" lon="2.53316">
        <ele>59.3</ele>
        <time>2022-12-07T14:36:21Z</time>
      </trkpt>
      <trkpt lat="49.81896" lon="2.53316">
        <ele>59.3</ele>
        <time>2022-12-07T14:36:22Z</time>
      </trkpt>
      <trkpt lat="49.81896" lon="2.53316">
        <ele>59.3</ele>
        <time>2022-12-07T14:36:23Z</time>
      </trkpt>
      <trkpt lat="49.81896" lon="2.53316">
        <ele>59.3</ele>
        <time>2022-12-07T14:36:24Z</time>
      </trkpt>
      <trkpt lat="49.81896" lon="2.53316">
        <ele>59.3</ele>
        <time>2022-12-07T14:36:25Z</time>
      </trkpt>
      <trkpt lat="49.81896" lon="2.53316">
        <ele>59.3</ele>
        <time>2022-12-07T14:36:26Z</time>
      </trkpt>
      <trkpt lat="49.81896" lon="2.53316">
        <ele>59.3</ele>
        <time>2022-12-07T14:36:27Z</time>
      </trkpt>
      <trkpt lat="49.81896" lon="2.53316">
        <ele>59.3</ele>
        <time>2022-12-07T14:36:28Z</time>
      </trkpt>
      <trkpt lat="49.81896" lon="2.53316">
        <ele>59.3</ele>
        <time>2022-12-07T14:36:29Z</time>
      </trkpt>
      <trkpt lat="49.81896" lon="2.53316">
        <ele>59.3</ele>
        <time>2022-12-07T14:36:30Z</time>
      </trkpt>
      <trkpt lat="49.81896" lon="2.53316">
        <ele>59.3</ele>
        <time>2022-12-07T14:36:31Z</time>
      </trkpt>
      <trkpt lat="49.81896" lon="2.53316">
        <ele>59.3</ele>
        <time>2022-12-07T14:36:32Z</time>
      </trkpt>
      <trkpt lat="49.81896" lon="2.53316">
        <ele>59.3</ele>
        <time>2022-12-07T14:36:33Z</time>
      </trkpt>
      <trkpt lat="49.81896" lon="2.53316">
        <ele>59.3</ele>
        <time>2022-12-07T14:36:34Z</time>
      </trkpt>
      <trkpt lat="49.81896" lon="2.53316">
        <ele>59.3</ele>
        <time>2022-12-07T14:36:35Z</time>
      </trkpt>
      <trkpt lat="49.81896" lon="2.53316">
        <ele>59.3</ele>
        <time>2022-12-07T14:36:36Z</time>
      </trkpt>
      <trkpt lat="49.81896" lon="2.53316">
        <ele>59.3</ele>
        <time>2022-12-07T14:36:37Z</time>
      </trkpt>
      <trkpt lat="49.81896" lon="2.53316">
        <ele>59.3</ele>
        <time>2022-12-07T14:36:38Z</time>
      </trkpt>
      <trkpt lat="49.81896" lon="2.53316">
        <ele>59.3</ele>
        <time>2022-12-07T14:36:39Z</time>
      </trkpt>
      <trkpt lat="49.81896" lon="2.53316">
        <ele>59.3</ele>
        <time>2022-12-07T14:36:40Z</time>
      </trkpt>
      <trkpt lat="49.81896" lon="2.53316">
        <ele>59.3</ele>
        <time>2022-12-07T14:36:41Z</time>
      </trkpt>
      <trkpt lat="49.81896" lon="2.53316">
        <ele>59.3</ele>
        <time>2022-12-07T14:36:42Z</time>
      </trkpt>
      <trkpt lat="49.81896" lon="2.53316">
        <ele>59.3</ele>
        <time>2022-12-07T14:36:43Z</time>
      </trkpt>
      <trkpt lat="49.81896" lon="2.53316">
        <ele>59.3</ele>
        <time>2022-12-07T14:36:44Z</time>
      </trkpt>
      <trkpt lat="49.81896" lon="2.53316">
        <ele>59.3</ele>
        <time>2022-12-07T14:36:45Z</time>
      </trkpt>
      <trkpt lat="49.81896" lon="2.53316">
        <ele>59.3</ele>
        <time>2022-12-07T14:36:46Z</time>
      </trkpt>
      <trkpt lat="49.81896" lon="2.53316">
        <ele>59.3</ele>
        <time>2022-12-07T14:36:47Z</time>
      </trkpt>
      <trkpt lat="49.81896" lon="2.53316">
        <ele>59.3</ele>
        <time>2022-12-07T14:36:48Z</time>
      </trkpt>
      <trkpt lat="49.81896" lon="2.53316">
        <ele>59.3</ele>
        <time>2022-12-07T14:36:49Z</time>
      </trkpt>
      <trkpt lat="49.81896" lon="2.53316">
        <ele>59.3</ele>
        <time>2022-12-07T14:36:50Z</time>
      </trkpt>
      <trkpt lat="49.81896" lon="2.53316">
        <ele>59.3</ele>
        <time>2022-12-07T14:36:51Z</time>
      </trkpt>
      <trkpt lat="49.81896" lon="2.53316">
        <ele>59.3</ele>
        <time>2022-12-07T14:36:52Z</time>
      </trkpt>
      <trkpt lat="49.81896" lon="2.53316">
        <ele>59.3</ele>
        <time>2022-12-07T14:36:53Z</time>
      </trkpt>
      <trkpt lat="49.81896" lon="2.53316">
        <ele>59.3</ele>
        <time>2022-12-07T14:36:54Z</time>
      </trkpt>
      <trkpt lat="49.81896" lon="2.53316">
        <ele>59.3</ele>
        <time>2022-12-07T14:36:55Z</time>
      </trkpt>
      <trkpt lat="49.81896" lon="2.53316">
        <ele>59.3</ele>
        <time>2022-12-07T14:36:56Z</time>
      </trkpt>
      <trkpt lat="49.81896" lon="2.53316">
        <ele>59.3</ele>
        <time>2022-12-07T14:36:57Z</time>
      </trkpt>
      <trkpt lat="49.81896" lon="2.53316">
        <ele>59.3</ele>
        <time>2022-12-07T14:36:58Z</time>
      </trkpt>
      <trkpt lat="49.81896" lon="2.53316">
        <ele>59.3</ele>
        <time>2022-12-07T14:36:59Z</time>
      </trkpt>
      <trkpt lat="49.81896" lon="2.53316">
        <ele>59.3</ele>
        <time>2022-12-07T14:37:00Z</time>
      </trkpt>
      <trkpt lat="49.81896" lon="2.53316">
        <ele>59.3</ele>
        <time>2022-12-07T14:37:01Z</time>
      </trkpt>
      <trkpt lat="49.81896" lon="2.53316">
        <ele>59.3</ele>
        <time>2022-12-07T14:37:02Z</time>
      </trkpt>
      <trkpt lat="49.81896" lon="2.53316">
        <ele>59.3</ele>
        <time>2022-12-07T14:37:03Z</time>
      </trkpt>
      <trkpt lat="49.81896" lon="2.53316">
        <ele>59.3</ele>
        <time>2022-12-07T14:37:04Z</time>
      </trkpt>
      <trkpt lat="49.81896" lon="2.53316">
        <ele>59.3</ele>
        <time>2022-12-07T14:37:05Z</time>
      </trkpt>
      <trkpt lat="49.81896" lon="2.53316">
        <ele>59.3</ele>
        <time>2022-12-07T14:37:06Z</time>
      </trkpt>
      <trkpt lat="49.81897" lon="2.53314">
        <ele>59.4</ele>
        <time>2022-12-07T14:37:07Z</time>
      </trkpt>
      <trkpt lat="49.81897" lon="2.53313">
        <ele>59.4</ele>
        <time>2022-12-07T14:37:08Z</time>
      </trkpt>
      <trkpt lat="49.81897" lon="2.53313">
        <ele>59.4</ele>
        <time>2022-12-07T14:37:09Z</time>
      </trkpt>
      <trkpt lat="49.81897" lon="2.53313">
        <ele>59.4</ele>
        <time>2022-12-07T14:37:10Z</time>
      </trkpt>
      <trkpt lat="49.81897" lon="2.53313">
        <ele>59.4</ele>
        <time>2022-12-07T14:37:11Z</time>
      </trkpt>
      <trkpt lat="49.81897" lon="2.53313">
        <ele>59.4</ele>
        <time>2022-12-07T14:37:12Z</time>
      </trkpt>
      <trkpt lat="49.81897" lon="2.53313">
        <ele>59.4</ele>
        <time>2022-12-07T14:37:13Z</time>
      </trkpt>
      <trkpt lat="49.81897" lon="2.53313">
        <ele>59.4</ele>
        <time>2022-12-07T14:37:14Z</time>
      </trkpt>
      <trkpt lat="49.81897" lon="2.53313">
        <ele>59.4</ele>
        <time>2022-12-07T14:37:15Z</time>
      </trkpt>
      <trkpt lat="49.81897" lon="2.53313">
        <ele>59.4</ele>
        <time>2022-12-07T14:37:16Z</time>
      </trkpt>
      <trkpt lat="49.81897" lon="2.53313">
        <ele>59.4</ele>
        <time>2022-12-07T14:37:17Z</time>
      </trkpt>
      <trkpt lat="49.81897" lon="2.53313">
        <ele>59.4</ele>
        <time>2022-12-07T14:37:18Z</time>
      </trkpt>
      <trkpt lat="49.81897" lon="2.53313">
        <ele>59.4</ele>
        <time>2022-12-07T14:37:19Z</time>
      </trkpt>
      <trkpt lat="49.81897" lon="2.53313">
        <ele>59.4</ele>
        <time>2022-12-07T14:37:20Z</time>
      </trkpt>
      <trkpt lat="49.81897" lon="2.53313">
        <ele>59.4</ele>
        <time>2022-12-07T14:37:21Z</time>
      </trkpt>
      <trkpt lat="49.81897" lon="2.53313">
        <ele>59.4</ele>
        <time>2022-12-07T14:37:22Z</time>
      </trkpt>
      <trkpt lat="49.81897" lon="2.53313">
        <ele>59.4</ele>
        <time>2022-12-07T14:37:23Z</time>
      </trkpt>
      <trkpt lat="49.81897" lon="2.53313">
        <ele>59.4</ele>
        <time>2022-12-07T14:37:24Z</time>
      </trkpt>
      <trkpt lat="49.81897" lon="2.53313">
        <ele>59.4</ele>
        <time>2022-12-07T14:37:25Z</time>
      </trkpt>
      <trkpt lat="49.81897" lon="2.53313">
        <ele>59.4</ele>
        <time>2022-12-07T14:37:26Z</time>
      </trkpt>
      <trkpt lat="49.81897" lon="2.53313">
        <ele>59.4</ele>
        <time>2022-12-07T14:37:27Z</time>
      </trkpt>
      <trkpt lat="49.81897" lon="2.53313">
        <ele>59.4</ele>
        <time>2022-12-07T14:37:28Z</time>
      </trkpt>
      <trkpt lat="49.81897" lon="2.53313">
        <ele>59.4</ele>
        <time>2022-12-07T14:37:29Z</time>
      </trkpt>
      <trkpt lat="49.81897" lon="2.53313">
        <ele>59.4</ele>
        <time>2022-12-07T14:37:30Z</time>
      </trkpt>
      <trkpt lat="49.81896" lon="2.53314">
        <ele>59.4</ele>
        <time>2022-12-07T14:37:31Z</time>
      </trkpt>
      <trkpt lat="49.81896" lon="2.53314">
        <ele>59.4</ele>
        <time>2022-12-07T14:37:32Z</time>
      </trkpt>
      <trkpt lat="49.81896" lon="2.53314">
        <ele>59.4</ele>
        <time>2022-12-07T14:37:33Z</time>
      </trkpt>
      <trkpt lat="49.81895" lon="2.53313">
        <ele>59.4</ele>
        <time>2022-12-07T14:37:34Z</time>
      </trkpt>
      <trkpt lat="49.81895" lon="2.53313">
        <ele>59.4</ele>
        <time>2022-12-07T14:37:35Z</time>
      </trkpt>
      <trkpt lat="49.81895" lon="2.53312">
        <ele>59.4</ele>
        <time>2022-12-07T14:37:36Z</time>
      </trkpt>
      <trkpt lat="49.81894" lon="2.53311">
        <ele>59.5</ele>
        <time>2022-12-07T14:37:37Z</time>
      </trkpt>
      <trkpt lat="49.81894" lon="2.53311">
        <ele>59.5</ele>
        <time>2022-12-07T14:37:38Z</time>
      </trkpt>
      <trkpt lat="49.81894" lon="2.5331">
        <ele>59.5</ele>
        <time>2022-12-07T14:37:39Z</time>
      </trkpt>
      <trkpt lat="49.81894" lon="2.53309">
        <ele>59.5</ele>
        <time>2022-12-07T14:37:40Z</time>
      </trkpt>
      <trkpt lat="49.81894" lon="2.53308">
        <ele>59.5</ele>
        <time>2022-12-07T14:37:41Z</time>
      </trkpt>
      <trkpt lat="49.81893" lon="2.53308">
        <ele>59.5</ele>
        <time>2022-12-07T14:37:42Z</time>
      </trkpt>
      <trkpt lat="49.81893" lon="2.53307">
        <ele>59.5</ele>
        <time>2022-12-07T14:37:43Z</time>
      </trkpt>
      <trkpt lat="49.81893" lon="2.53305">
        <ele>59.5</ele>
        <time>2022-12-07T14:37:44Z</time>
      </trkpt>
      <trkpt lat="49.81893" lon="2.53303">
        <ele>59.6</ele>
        <time>2022-12-07T14:37:45Z</time>
      </trkpt>
      <trkpt lat="49.81892" lon="2.53301">
        <ele>59.6</ele>
        <time>2022-12-07T14:37:46Z</time>
      </trkpt>
      <trkpt lat="49.81892" lon="2.53299">
        <ele>59.6</ele>
        <time>2022-12-07T14:37:47Z</time>
      </trkpt>
      <trkpt lat="49.81891" lon="2.53298">
        <ele>59.6</ele>
        <time>2022-12-07T14:37:48Z</time>
      </trkpt>
      <trkpt lat="49.81891" lon="2.53296">
        <ele>59.6</ele>
        <time>2022-12-07T14:37:49Z</time>
      </trkpt>
      <trkpt lat="49.8189" lon="2.53294">
        <ele>59.7</ele>
        <time>2022-12-07T14:37:50Z</time>
      </trkpt>
      <trkpt lat="49.8189" lon="2.53293">
        <ele>59.7</ele>
        <time>2022-12-07T14:37:51Z</time>
      </trkpt>
      <trkpt lat="49.81889" lon="2.53292">
        <ele>59.7</ele>
        <time>2022-12-07T14:37:52Z</time>
      </trkpt>
      <trkpt lat="49.81889" lon="2.53291">
        <ele>59.7</ele>
        <time>2022-12-07T14:37:53Z</time>
      </trkpt>
      <trkpt lat="49.81888" lon="2.53289">
        <ele>59.7</ele>
        <time>2022-12-07T14:37:54Z</time>
      </trkpt>
      <trkpt lat="49.81887" lon="2.53286">
        <ele>59.7</ele>
        <time>2022-12-07T14:37:55Z</time>
      </trkpt>
      <trkpt lat="49.81887" lon="2.53285">
        <ele>59.7</ele>
        <time>2022-12-07T14:37:56Z</time>
      </trkpt>
      <trkpt lat="49.81886" lon="2.53283">
        <ele>59.7</ele>
        <time>2022-12-07T14:37:57Z</time>
      </trkpt>
      <trkpt lat="49.81885" lon="2.53282">
        <ele>59.6</ele>
        <time>2022-12-07T14:37:58Z</time>
      </trkpt>
      <trkpt lat="49.81885" lon="2.5328">
        <ele>59.6</ele>
        <time>2022-12-07T14:37:59Z</time>
      </trkpt>
      <trkpt lat="49.81883" lon="2.53277">
        <ele>59.6</ele>
        <time>2022-12-07T14:38:00Z</time>
      </trkpt>
      <trkpt lat="49.81883" lon="2.53276">
        <ele>59.6</ele>
        <time>2022-12-07T14:38:01Z</time>
      </trkpt>
      <trkpt lat="49.81882" lon="2.53275">
        <ele>59.6</ele>
        <time>2022-12-07T14:38:02Z</time>
      </trkpt>
      <trkpt lat="49.81881" lon="2.53273">
        <ele>59.6</ele>
        <time>2022-12-07T14:38:03Z</time>
      </trkpt>
      <trkpt lat="49.8188" lon="2.53272">
        <ele>59.6</ele>
        <time>2022-12-07T14:38:04Z</time>
      </trkpt>
      <trkpt lat="49.8188" lon="2.53271">
        <ele>59.6</ele>
        <time>2022-12-07T14:38:05Z</time>
      </trkpt>
      <trkpt lat="49.81879" lon="2.5327">
        <ele>59.7</ele>
        <time>2022-12-07T14:38:06Z</time>
      </trkpt>
      <trkpt lat="49.81878" lon="2.53268">
        <ele>59.7</ele>
        <time>2022-12-07T14:38:07Z</time>
      </trkpt>
      <trkpt lat="49.81877" lon="2.53265">
        <ele>59.7</ele>
        <time>2022-12-07T14:38:08Z</time>
      </trkpt>
      <trkpt lat="49.81877" lon="2.53264">
        <ele>59.7</ele>
        <time>2022-12-07T14:38:09Z</time>
      </trkpt>
      <trkpt lat="49.81876" lon="2.53263">
        <ele>59.7</ele>
        <time>2022-12-07T14:38:10Z</time>
      </trkpt>
      <trkpt lat="49.81875" lon="2.5326">
        <ele>59.7</ele>
        <time>2022-12-07T14:38:11Z</time>
      </trkpt>
      <trkpt lat="49.81875" lon="2.53259">
        <ele>59.7</ele>
        <time>2022-12-07T14:38:12Z</time>
      </trkpt>
      <trkpt lat="49.81874" lon="2.53258">
        <ele>59.8</ele>
        <time>2022-12-07T14:38:13Z</time>
      </trkpt>
      <trkpt lat="49.81873" lon="2.53255">
        <ele>59.8</ele>
        <time>2022-12-07T14:38:14Z</time>
      </trkpt>
      <trkpt lat="49.81873" lon="2.53254">
        <ele>59.8</ele>
        <time>2022-12-07T14:38:15Z</time>
      </trkpt>
      <trkpt lat="49.81872" lon="2.53253">
        <ele>59.8</ele>
        <time>2022-12-07T14:38:16Z</time>
      </trkpt>
      <trkpt lat="49.81872" lon="2.53251">
        <ele>59.8</ele>
        <time>2022-12-07T14:38:17Z</time>
      </trkpt>
      <trkpt lat="49.81871" lon="2.5325">
        <ele>59.9</ele>
        <time>2022-12-07T14:38:18Z</time>
      </trkpt>
      <trkpt lat="49.8187" lon="2.53248">
        <ele>59.9</ele>
        <time>2022-12-07T14:38:19Z</time>
      </trkpt>
      <trkpt lat="49.8187" lon="2.53246">
        <ele>59.9</ele>
        <time>2022-12-07T14:38:20Z</time>
      </trkpt>
      <trkpt lat="49.8187" lon="2.53244">
        <ele>59.9</ele>
        <time>2022-12-07T14:38:21Z</time>
      </trkpt>
      <trkpt lat="49.81869" lon="2.53243">
        <ele>60</ele>
        <time>2022-12-07T14:38:22Z</time>
      </trkpt>
      <trkpt lat="49.81869" lon="2.5324">
        <ele>60</ele>
        <time>2022-12-07T14:38:23Z</time>
      </trkpt>
      <trkpt lat="49.81868" lon="2.53239">
        <ele>60</ele>
        <time>2022-12-07T14:38:24Z</time>
      </trkpt>
      <trkpt lat="49.81868" lon="2.53237">
        <ele>60.1</ele>
        <time>2022-12-07T14:38:25Z</time>
      </trkpt>
      <trkpt lat="49.81868" lon="2.53235">
        <ele>60.1</ele>
        <time>2022-12-07T14:38:26Z</time>
      </trkpt>
      <trkpt lat="49.81867" lon="2.53234">
        <ele>60.1</ele>
        <time>2022-12-07T14:38:27Z</time>
      </trkpt>
      <trkpt lat="49.81867" lon="2.53232">
        <ele>60.1</ele>
        <time>2022-12-07T14:38:28Z</time>
      </trkpt>
      <trkpt lat="49.81866" lon="2.53231">
        <ele>60.2</ele>
        <time>2022-12-07T14:38:29Z</time>
      </trkpt>
      <trkpt lat="49.81865" lon="2.53229">
        <ele>60.2</ele>
        <time>2022-12-07T14:38:30Z</time>
      </trkpt>
      <trkpt lat="49.81865" lon="2.53228">
        <ele>60.2</ele>
        <time>2022-12-07T14:38:31Z</time>
      </trkpt>
      <trkpt lat="49.81864" lon="2.53227">
        <ele>60.3</ele>
        <time>2022-12-07T14:38:32Z</time>
      </trkpt>
      <trkpt lat="49.81864" lon="2.53225">
        <ele>60.3</ele>
        <time>2022-12-07T14:38:33Z</time>
      </trkpt>
      <trkpt lat="49.81863" lon="2.53224">
        <ele>60.3</ele>
        <time>2022-12-07T14:38:34Z</time>
      </trkpt>
      <trkpt lat="49.81863" lon="2.53223">
        <ele>60.3</ele>
        <time>2022-12-07T14:38:35Z</time>
      </trkpt>
      <trkpt lat="49.81862" lon="2.53221">
        <ele>60.4</ele>
        <time>2022-12-07T14:38:36Z</time>
      </trkpt>
      <trkpt lat="49.81862" lon="2.5322">
        <ele>60.4</ele>
        <time>2022-12-07T14:38:37Z</time>
      </trkpt>
      <trkpt lat="49.81861" lon="2.5322">
        <ele>60.4</ele>
        <time>2022-12-07T14:38:38Z</time>
      </trkpt>
      <trkpt lat="49.8186" lon="2.53219">
        <ele>60.4</ele>
        <time>2022-12-07T14:38:39Z</time>
      </trkpt>
      <trkpt lat="49.8186" lon="2.53217">
        <ele>60.4</ele>
        <time>2022-12-07T14:38:40Z</time>
      </trkpt>
      <trkpt lat="49.81859" lon="2.53216">
        <ele>60.5</ele>
        <time>2022-12-07T14:38:41Z</time>
      </trkpt>
      <trkpt lat="49.81859" lon="2.53215">
        <ele>60.5</ele>
        <time>2022-12-07T14:38:42Z</time>
      </trkpt>
      <trkpt lat="49.81858" lon="2.53213">
        <ele>60.5</ele>
        <time>2022-12-07T14:38:43Z</time>
      </trkpt>
      <trkpt lat="49.81858" lon="2.53212">
        <ele>60.5</ele>
        <time>2022-12-07T14:38:44Z</time>
      </trkpt>
      <trkpt lat="49.81857" lon="2.53211">
        <ele>60.5</ele>
        <time>2022-12-07T14:38:45Z</time>
      </trkpt>
      <trkpt lat="49.81856" lon="2.5321">
        <ele>60.6</ele>
        <time>2022-12-07T14:38:46Z</time>
      </trkpt>
      <trkpt lat="49.81856" lon="2.53209">
        <ele>60.6</ele>
        <time>2022-12-07T14:38:47Z</time>
      </trkpt>
      <trkpt lat="49.81856" lon="2.53207">
        <ele>60.6</ele>
        <time>2022-12-07T14:38:48Z</time>
      </trkpt>
      <trkpt lat="49.81855" lon="2.53206">
        <ele>60.6</ele>
        <time>2022-12-07T14:38:49Z</time>
      </trkpt>
      <trkpt lat="49.81855" lon="2.53204">
        <ele>60.7</ele>
        <time>2022-12-07T14:38:50Z</time>
      </trkpt>
      <trkpt lat="49.81855" lon="2.53203">
        <ele>60.7</ele>
        <time>2022-12-07T14:38:51Z</time>
      </trkpt>
      <trkpt lat="49.81854" lon="2.53201">
        <ele>60.7</ele>
        <time>2022-12-07T14:38:52Z</time>
      </trkpt>
      <trkpt lat="49.81854" lon="2.532">
        <ele>60.7</ele>
        <time>2022-12-07T14:38:53Z</time>
      </trkpt>
      <trkpt lat="49.81853" lon="2.53197">
        <ele>60.8</ele>
        <time>2022-12-07T14:38:54Z</time>
      </trkpt>
      <trkpt lat="49.81853" lon="2.53196">
        <ele>60.8</ele>
        <time>2022-12-07T14:38:55Z</time>
      </trkpt>
      <trkpt lat="49.81853" lon="2.53195">
        <ele>60.8</ele>
        <time>2022-12-07T14:38:56Z</time>
      </trkpt>
      <trkpt lat="49.81853" lon="2.53194">
        <ele>60.8</ele>
        <time>2022-12-07T14:38:57Z</time>
      </trkpt>
      <trkpt lat="49.81853" lon="2.53192">
        <ele>60.8</ele>
        <time>2022-12-07T14:38:58Z</time>
      </trkpt>
      <trkpt lat="49.81853" lon="2.53191">
        <ele>60.8</ele>
        <time>2022-12-07T14:38:59Z</time>
      </trkpt>
      <trkpt lat="49.81852" lon="2.5319">
        <ele>60.9</ele>
        <time>2022-12-07T14:39:00Z</time>
      </trkpt>
      <trkpt lat="49.81852" lon="2.53187">
        <ele>60.9</ele>
        <time>2022-12-07T14:39:01Z</time>
      </trkpt>
      <trkpt lat="49.81851" lon="2.53186">
        <ele>60.9</ele>
        <time>2022-12-07T14:39:02Z</time>
      </trkpt>
      <trkpt lat="49.81851" lon="2.53184">
        <ele>60.9</ele>
        <time>2022-12-07T14:39:03Z</time>
      </trkpt>
      <trkpt lat="49.81851" lon="2.53182">
        <ele>61</ele>
        <time>2022-12-07T14:39:04Z</time>
      </trkpt>
      <trkpt lat="49.8185" lon="2.53181">
        <ele>61</ele>
        <time>2022-12-07T14:39:05Z</time>
      </trkpt>
      <trkpt lat="49.8185" lon="2.53179">
        <ele>61</ele>
        <time>2022-12-07T14:39:06Z</time>
      </trkpt>
      <trkpt lat="49.81849" lon="2.53176">
        <ele>61.1</ele>
        <time>2022-12-07T14:39:07Z</time>
      </trkpt>
      <trkpt lat="49.81849" lon="2.53175">
        <ele>61.1</ele>
        <time>2022-12-07T14:39:08Z</time>
      </trkpt>
      <trkpt lat="49.81848" lon="2.53174">
        <ele>61.1</ele>
        <time>2022-12-07T14:39:09Z</time>
      </trkpt>
      <trkpt lat="49.81847" lon="2.53171">
        <ele>61.1</ele>
        <time>2022-12-07T14:39:10Z</time>
      </trkpt>
      <trkpt lat="49.81847" lon="2.5317">
        <ele>61.1</ele>
        <time>2022-12-07T14:39:11Z</time>
      </trkpt>
      <trkpt lat="49.81846" lon="2.53169">
        <ele>61.2</ele>
        <time>2022-12-07T14:39:12Z</time>
      </trkpt>
      <trkpt lat="49.81846" lon="2.53167">
        <ele>61.2</ele>
        <time>2022-12-07T14:39:13Z</time>
      </trkpt>
      <trkpt lat="49.81845" lon="2.53166">
        <ele>61.2</ele>
        <time>2022-12-07T14:39:14Z</time>
      </trkpt>
      <trkpt lat="49.81845" lon="2.53164">
        <ele>61.2</ele>
        <time>2022-12-07T14:39:15Z</time>
      </trkpt>
      <trkpt lat="49.81844" lon="2.53163">
        <ele>61.2</ele>
        <time>2022-12-07T14:39:16Z</time>
      </trkpt>
      <trkpt lat="49.81843" lon="2.53161">
        <ele>61.3</ele>
        <time>2022-12-07T14:39:17Z</time>
      </trkpt>
      <trkpt lat="49.81843" lon="2.5316">
        <ele>61.3</ele>
        <time>2022-12-07T14:39:18Z</time>
      </trkpt>
      <trkpt lat="49.81843" lon="2.53158">
        <ele>61.3</ele>
        <time>2022-12-07T14:39:19Z</time>
      </trkpt>
      <trkpt lat="49.81842" lon="2.53156">
        <ele>61.3</ele>
        <time>2022-12-07T14:39:20Z</time>
      </trkpt>
      <trkpt lat="49.81842" lon="2.53155">
        <ele>61.3</ele>
        <time>2022-12-07T14:39:21Z</time>
      </trkpt>
      <trkpt lat="49.81841" lon="2.53152">
        <ele>61.4</ele>
        <time>2022-12-07T14:39:22Z</time>
      </trkpt>
      <trkpt lat="49.81841" lon="2.53151">
        <ele>61.4</ele>
        <time>2022-12-07T14:39:23Z</time>
      </trkpt>
      <trkpt lat="49.81841" lon="2.5315">
        <ele>61.4</ele>
        <time>2022-12-07T14:39:24Z</time>
      </trkpt>
      <trkpt lat="49.81841" lon="2.53148">
        <ele>61.4</ele>
        <time>2022-12-07T14:39:25Z</time>
      </trkpt>
      <trkpt lat="49.81841" lon="2.53147">
        <ele>61.4</ele>
        <time>2022-12-07T14:39:26Z</time>
      </trkpt>
      <trkpt lat="49.8184" lon="2.53145">
        <ele>61.4</ele>
        <time>2022-12-07T14:39:27Z</time>
      </trkpt>
      <trkpt lat="49.8184" lon="2.53143">
        <ele>61.5</ele>
        <time>2022-12-07T14:39:28Z</time>
      </trkpt>
      <trkpt lat="49.8184" lon="2.53142">
        <ele>61.5</ele>
        <time>2022-12-07T14:39:29Z</time>
      </trkpt>
      <trkpt lat="49.81839" lon="2.53141">
        <ele>61.5</ele>
        <time>2022-12-07T14:39:30Z</time>
      </trkpt>
      <trkpt lat="49.81839" lon="2.53139">
        <ele>61.5</ele>
        <time>2022-12-07T14:39:31Z</time>
      </trkpt>
      <trkpt lat="49.81838" lon="2.53138">
        <ele>61.5</ele>
        <time>2022-12-07T14:39:32Z</time>
      </trkpt>
      <trkpt lat="49.81838" lon="2.53136">
        <ele>61.5</ele>
        <time>2022-12-07T14:39:33Z</time>
      </trkpt>
      <trkpt lat="49.81837" lon="2.53135">
        <ele>61.6</ele>
        <time>2022-12-07T14:39:34Z</time>
      </trkpt>
      <trkpt lat="49.81837" lon="2.53133">
        <ele>61.6</ele>
        <time>2022-12-07T14:39:35Z</time>
      </trkpt>
      <trkpt lat="49.81836" lon="2.53132">
        <ele>61.6</ele>
        <time>2022-12-07T14:39:36Z</time>
      </trkpt>
      <trkpt lat="49.81836" lon="2.5313">
        <ele>61.6</ele>
        <time>2022-12-07T14:39:37Z</time>
      </trkpt>
      <trkpt lat="49.81836" lon="2.53129">
        <ele>61.6</ele>
        <time>2022-12-07T14:39:38Z</time>
      </trkpt>
      <trkpt lat="49.81835" lon="2.53128">
        <ele>61.7</ele>
        <time>2022-12-07T14:39:39Z</time>
      </trkpt>
      <trkpt lat="49.81835" lon="2.53126">
        <ele>61.7</ele>
        <time>2022-12-07T14:39:40Z</time>
      </trkpt>
      <trkpt lat="49.81835" lon="2.53125">
        <ele>61.7</ele>
        <time>2022-12-07T14:39:41Z</time>
      </trkpt>
      <trkpt lat="49.81834" lon="2.53123">
        <ele>61.7</ele>
        <time>2022-12-07T14:39:42Z</time>
      </trkpt>
      <trkpt lat="49.81834" lon="2.53122">
        <ele>61.7</ele>
        <time>2022-12-07T14:39:43Z</time>
      </trkpt>
      <trkpt lat="49.81833" lon="2.5312">
        <ele>61.8</ele>
        <time>2022-12-07T14:39:44Z</time>
      </trkpt>
      <trkpt lat="49.81833" lon="2.53119">
        <ele>61.8</ele>
        <time>2022-12-07T14:39:45Z</time>
      </trkpt>
      <trkpt lat="49.81832" lon="2.53117">
        <ele>61.8</ele>
        <time>2022-12-07T14:39:46Z</time>
      </trkpt>
      <trkpt lat="49.81832" lon="2.53116">
        <ele>61.8</ele>
        <time>2022-12-07T14:39:47Z</time>
      </trkpt>
      <trkpt lat="49.81832" lon="2.53114">
        <ele>61.9</ele>
        <time>2022-12-07T14:39:48Z</time>
      </trkpt>
      <trkpt lat="49.81831" lon="2.53112">
        <ele>61.9</ele>
        <time>2022-12-07T14:39:49Z</time>
      </trkpt>
      <trkpt lat="49.8183" lon="2.53111">
        <ele>61.9</ele>
        <time>2022-12-07T14:39:50Z</time>
      </trkpt>
      <trkpt lat="49.8183" lon="2.53109">
        <ele>61.9</ele>
        <time>2022-12-07T14:39:51Z</time>
      </trkpt>
      <trkpt lat="49.81829" lon="2.53107">
        <ele>62</ele>
        <time>2022-12-07T14:39:52Z</time>
      </trkpt>
      <trkpt lat="49.81828" lon="2.53106">
        <ele>62</ele>
        <time>2022-12-07T14:39:53Z</time>
      </trkpt>
      <trkpt lat="49.81828" lon="2.53105">
        <ele>62</ele>
        <time>2022-12-07T14:39:54Z</time>
      </trkpt>
      <trkpt lat="49.81828" lon="2.53104">
        <ele>62</ele>
        <time>2022-12-07T14:39:55Z</time>
      </trkpt>
      <trkpt lat="49.81827" lon="2.53103">
        <ele>62.1</ele>
        <time>2022-12-07T14:39:56Z</time>
      </trkpt>
      <trkpt lat="49.81827" lon="2.53101">
        <ele>62.1</ele>
        <time>2022-12-07T14:39:57Z</time>
      </trkpt>
      <trkpt lat="49.81826" lon="2.531">
        <ele>62.1</ele>
        <time>2022-12-07T14:39:58Z</time>
      </trkpt>
      <trkpt lat="49.81826" lon="2.53098">
        <ele>62.1</ele>
        <time>2022-12-07T14:39:59Z</time>
      </trkpt>
      <trkpt lat="49.81826" lon="2.53097">
        <ele>62.2</ele>
        <time>2022-12-07T14:40:00Z</time>
      </trkpt>
      <trkpt lat="49.81825" lon="2.53095">
        <ele>62.2</ele>
        <time>2022-12-07T14:40:01Z</time>
      </trkpt>
      <trkpt lat="49.81825" lon="2.53093">
        <ele>62.2</ele>
        <time>2022-12-07T14:40:02Z</time>
      </trkpt>
      <trkpt lat="49.81824" lon="2.53092">
        <ele>62.2</ele>
        <time>2022-12-07T14:40:03Z</time>
      </trkpt>
      <trkpt lat="49.81824" lon="2.5309">
        <ele>62.3</ele>
        <time>2022-12-07T14:40:04Z</time>
      </trkpt>
      <trkpt lat="49.81824" lon="2.53089">
        <ele>62.3</ele>
        <time>2022-12-07T14:40:05Z</time>
      </trkpt>
      <trkpt lat="49.81824" lon="2.53088">
        <ele>62.3</ele>
        <time>2022-12-07T14:40:06Z</time>
      </trkpt>
      <trkpt lat="49.81823" lon="2.53086">
        <ele>62.3</ele>
        <time>2022-12-07T14:40:07Z</time>
      </trkpt>
      <trkpt lat="49.81823" lon="2.53084">
        <ele>62.3</ele>
        <time>2022-12-07T14:40:08Z</time>
      </trkpt>
      <trkpt lat="49.81823" lon="2.53083">
        <ele>62.4</ele>
        <time>2022-12-07T14:40:09Z</time>
      </trkpt>
      <trkpt lat="49.81822" lon="2.53081">
        <ele>62.4</ele>
        <time>2022-12-07T14:40:10Z</time>
      </trkpt>
      <trkpt lat="49.81822" lon="2.5308">
        <ele>62.4</ele>
        <time>2022-12-07T14:40:11Z</time>
      </trkpt>
      <trkpt lat="49.81821" lon="2.53078">
        <ele>62.4</ele>
        <time>2022-12-07T14:40:12Z</time>
      </trkpt>
      <trkpt lat="49.81821" lon="2.53076">
        <ele>62.4</ele>
        <time>2022-12-07T14:40:13Z</time>
      </trkpt>
      <trkpt lat="49.81821" lon="2.53075">
        <ele>62.5</ele>
        <time>2022-12-07T14:40:14Z</time>
      </trkpt>
      <trkpt lat="49.8182" lon="2.53073">
        <ele>62.5</ele>
        <time>2022-12-07T14:40:15Z</time>
      </trkpt>
      <trkpt lat="49.8182" lon="2.53072">
        <ele>62.5</ele>
        <time>2022-12-07T14:40:16Z</time>
      </trkpt>
      <trkpt lat="49.81819" lon="2.53071">
        <ele>62.5</ele>
        <time>2022-12-07T14:40:17Z</time>
      </trkpt>
      <trkpt lat="49.81819" lon="2.53069">
        <ele>62.5</ele>
        <time>2022-12-07T14:40:18Z</time>
      </trkpt>
      <trkpt lat="49.81818" lon="2.53068">
        <ele>62.5</ele>
        <time>2022-12-07T14:40:19Z</time>
      </trkpt>
      <trkpt lat="49.81817" lon="2.53067">
        <ele>62.6</ele>
        <time>2022-12-07T14:40:20Z</time>
      </trkpt>
      <trkpt lat="49.81817" lon="2.53066">
        <ele>62.6</ele>
        <time>2022-12-07T14:40:21Z</time>
      </trkpt>
      <trkpt lat="49.81816" lon="2.53065">
        <ele>62.6</ele>
        <time>2022-12-07T14:40:22Z</time>
      </trkpt>
      <trkpt lat="49.81815" lon="2.53064">
        <ele>62.6</ele>
        <time>2022-12-07T14:40:23Z</time>
      </trkpt>
      <trkpt lat="49.81815" lon="2.53063">
        <ele>62.6</ele>
        <time>2022-12-07T14:40:24Z</time>
      </trkpt>
      <trkpt lat="49.81814" lon="2.53062">
        <ele>62.6</ele>
        <time>2022-12-07T14:40:25Z</time>
      </trkpt>
      <trkpt lat="49.81813" lon="2.5306">
        <ele>62.7</ele>
        <time>2022-12-07T14:40:26Z</time>
      </trkpt>
      <trkpt lat="49.81812" lon="2.53059">
        <ele>62.7</ele>
        <time>2022-12-07T14:40:27Z</time>
      </trkpt>
      <trkpt lat="49.81812" lon="2.53059">
        <ele>62.7</ele>
        <time>2022-12-07T14:40:28Z</time>
      </trkpt>
      <trkpt lat="49.81811" lon="2.53058">
        <ele>62.7</ele>
        <time>2022-12-07T14:40:29Z</time>
      </trkpt>
      <trkpt lat="49.81811" lon="2.53057">
        <ele>62.7</ele>
        <time>2022-12-07T14:40:30Z</time>
      </trkpt>
      <trkpt lat="49.8181" lon="2.53056">
        <ele>62.7</ele>
        <time>2022-12-07T14:40:31Z</time>
      </trkpt>
      <trkpt lat="49.81809" lon="2.53055">
        <ele>62.8</ele>
        <time>2022-12-07T14:40:32Z</time>
      </trkpt>
      <trkpt lat="49.81809" lon="2.53053">
        <ele>62.8</ele>
        <time>2022-12-07T14:40:33Z</time>
      </trkpt>
      <trkpt lat="49.81808" lon="2.53052">
        <ele>62.8</ele>
        <time>2022-12-07T14:40:34Z</time>
      </trkpt>
      <trkpt lat="49.81808" lon="2.5305">
        <ele>62.8</ele>
        <time>2022-12-07T14:40:35Z</time>
      </trkpt>
      <trkpt lat="49.81808" lon="2.53049">
        <ele>62.8</ele>
        <time>2022-12-07T14:40:36Z</time>
      </trkpt>
      <trkpt lat="49.81807" lon="2.53047">
        <ele>62.8</ele>
        <time>2022-12-07T14:40:37Z</time>
      </trkpt>
      <trkpt lat="49.81806" lon="2.53046">
        <ele>62.9</ele>
        <time>2022-12-07T14:40:38Z</time>
      </trkpt>
      <trkpt lat="49.81806" lon="2.53044">
        <ele>62.9</ele>
        <time>2022-12-07T14:40:39Z</time>
      </trkpt>
      <trkpt lat="49.81805" lon="2.53043">
        <ele>62.9</ele>
        <time>2022-12-07T14:40:40Z</time>
      </trkpt>
      <trkpt lat="49.81805" lon="2.53041">
        <ele>62.9</ele>
        <time>2022-12-07T14:40:41Z</time>
      </trkpt>
      <trkpt lat="49.81804" lon="2.5304">
        <ele>62.9</ele>
        <time>2022-12-07T14:40:42Z</time>
      </trkpt>
      <trkpt lat="49.81804" lon="2.53039">
        <ele>62.9</ele>
        <time>2022-12-07T14:40:43Z</time>
      </trkpt>
      <trkpt lat="49.81804" lon="2.53037">
        <ele>63</ele>
        <time>2022-12-07T14:40:44Z</time>
      </trkpt>
      <trkpt lat="49.81803" lon="2.53036">
        <ele>63</ele>
        <time>2022-12-07T14:40:45Z</time>
      </trkpt>
      <trkpt lat="49.81802" lon="2.53035">
        <ele>63</ele>
        <time>2022-12-07T14:40:46Z</time>
      </trkpt>
      <trkpt lat="49.81802" lon="2.53033">
        <ele>63</ele>
        <time>2022-12-07T14:40:47Z</time>
      </trkpt>
      <trkpt lat="49.81801" lon="2.53031">
        <ele>63</ele>
        <time>2022-12-07T14:40:48Z</time>
      </trkpt>
      <trkpt lat="49.818" lon="2.5303">
        <ele>63</ele>
        <time>2022-12-07T14:40:49Z</time>
      </trkpt>
      <trkpt lat="49.818" lon="2.53028">
        <ele>63</ele>
        <time>2022-12-07T14:40:50Z</time>
      </trkpt>
      <trkpt lat="49.81799" lon="2.53026">
        <ele>63.1</ele>
        <time>2022-12-07T14:40:51Z</time>
      </trkpt>
      <trkpt lat="49.81798" lon="2.53025">
        <ele>63.1</ele>
        <time>2022-12-07T14:40:52Z</time>
      </trkpt>
      <trkpt lat="49.81798" lon="2.53023">
        <ele>63.1</ele>
        <time>2022-12-07T14:40:53Z</time>
      </trkpt>
      <trkpt lat="49.81797" lon="2.53022">
        <ele>63.1</ele>
        <time>2022-12-07T14:40:54Z</time>
      </trkpt>
      <trkpt lat="49.81797" lon="2.5302">
        <ele>63.1</ele>
        <time>2022-12-07T14:40:55Z</time>
      </trkpt>
      <trkpt lat="49.81797" lon="2.53018">
        <ele>63.2</ele>
        <time>2022-12-07T14:40:56Z</time>
      </trkpt>
      <trkpt lat="49.81796" lon="2.53016">
        <ele>63.2</ele>
        <time>2022-12-07T14:40:57Z</time>
      </trkpt>
      <trkpt lat="49.81796" lon="2.53014">
        <ele>63.2</ele>
        <time>2022-12-07T14:40:58Z</time>
      </trkpt>
      <trkpt lat="49.81795" lon="2.53011">
        <ele>63.2</ele>
        <time>2022-12-07T14:40:59Z</time>
      </trkpt>
      <trkpt lat="49.81795" lon="2.5301">
        <ele>63.2</ele>
        <time>2022-12-07T14:41:00Z</time>
      </trkpt>
      <trkpt lat="49.81794" lon="2.53008">
        <ele>63.3</ele>
        <time>2022-12-07T14:41:01Z</time>
      </trkpt>
      <trkpt lat="49.81794" lon="2.53006">
        <ele>63.3</ele>
        <time>2022-12-07T14:41:02Z</time>
      </trkpt>
      <trkpt lat="49.81793" lon="2.53004">
        <ele>63.3</ele>
        <time>2022-12-07T14:41:03Z</time>
      </trkpt>
      <trkpt lat="49.81792" lon="2.53001">
        <ele>63.3</ele>
        <time>2022-12-07T14:41:04Z</time>
      </trkpt>
      <trkpt lat="49.81792" lon="2.53">
        <ele>63.4</ele>
        <time>2022-12-07T14:41:05Z</time>
      </trkpt>
      <trkpt lat="49.81792" lon="2.52999">
        <ele>63.4</ele>
        <time>2022-12-07T14:41:06Z</time>
      </trkpt>
      <trkpt lat="49.81791" lon="2.52996">
        <ele>63.4</ele>
        <time>2022-12-07T14:41:07Z</time>
      </trkpt>
      <trkpt lat="49.81791" lon="2.52994">
        <ele>63.4</ele>
        <time>2022-12-07T14:41:08Z</time>
      </trkpt>
      <trkpt lat="49.81791" lon="2.52993">
        <ele>63.5</ele>
        <time>2022-12-07T14:41:09Z</time>
      </trkpt>
      <trkpt lat="49.8179" lon="2.52991">
        <ele>63.5</ele>
        <time>2022-12-07T14:41:10Z</time>
      </trkpt>
      <trkpt lat="49.8179" lon="2.52989">
        <ele>63.5</ele>
        <time>2022-12-07T14:41:11Z</time>
      </trkpt>
      <trkpt lat="49.8179" lon="2.52987">
        <ele>63.6</ele>
        <time>2022-12-07T14:41:12Z</time>
      </trkpt>
      <trkpt lat="49.8179" lon="2.52985">
        <ele>63.6</ele>
        <time>2022-12-07T14:41:13Z</time>
      </trkpt>
      <trkpt lat="49.8179" lon="2.52984">
        <ele>63.6</ele>
        <time>2022-12-07T14:41:14Z</time>
      </trkpt>
      <trkpt lat="49.81789" lon="2.5298">
        <ele>63.7</ele>
        <time>2022-12-07T14:41:15Z</time>
      </trkpt>
      <trkpt lat="49.8179" lon="2.52979">
        <ele>63.7</ele>
        <time>2022-12-07T14:41:16Z</time>
      </trkpt>
      <trkpt lat="49.8179" lon="2.52977">
        <ele>63.7</ele>
        <time>2022-12-07T14:41:17Z</time>
      </trkpt>
      <trkpt lat="49.8179" lon="2.52974">
        <ele>63.8</ele>
        <time>2022-12-07T14:41:18Z</time>
      </trkpt>
      <trkpt lat="49.8179" lon="2.52973">
        <ele>63.8</ele>
        <time>2022-12-07T14:41:19Z</time>
      </trkpt>
      <trkpt lat="49.8179" lon="2.52972">
        <ele>63.8</ele>
        <time>2022-12-07T14:41:20Z</time>
      </trkpt>
      <trkpt lat="49.8179" lon="2.5297">
        <ele>63.9</ele>
        <time>2022-12-07T14:41:21Z</time>
      </trkpt>
      <trkpt lat="49.8179" lon="2.52968">
        <ele>63.9</ele>
        <time>2022-12-07T14:41:22Z</time>
      </trkpt>
      <trkpt lat="49.8179" lon="2.52966">
        <ele>63.9</ele>
        <time>2022-12-07T14:41:23Z</time>
      </trkpt>
      <trkpt lat="49.8179" lon="2.52964">
        <ele>64</ele>
        <time>2022-12-07T14:41:24Z</time>
      </trkpt>
      <trkpt lat="49.8179" lon="2.52963">
        <ele>64</ele>
        <time>2022-12-07T14:41:25Z</time>
      </trkpt>
      <trkpt lat="49.8179" lon="2.52961">
        <ele>64</ele>
        <time>2022-12-07T14:41:26Z</time>
      </trkpt>
      <trkpt lat="49.8179" lon="2.52958">
        <ele>64.1</ele>
        <time>2022-12-07T14:41:27Z</time>
      </trkpt>
      <trkpt lat="49.81791" lon="2.52956">
        <ele>64.1</ele>
        <time>2022-12-07T14:41:28Z</time>
      </trkpt>
      <trkpt lat="49.81791" lon="2.52955">
        <ele>64.2</ele>
        <time>2022-12-07T14:41:29Z</time>
      </trkpt>
      <trkpt lat="49.81791" lon="2.52953">
        <ele>64.2</ele>
        <time>2022-12-07T14:41:30Z</time>
      </trkpt>
      <trkpt lat="49.81791" lon="2.52952">
        <ele>64.2</ele>
        <time>2022-12-07T14:41:31Z</time>
      </trkpt>
      <trkpt lat="49.81791" lon="2.5295">
        <ele>64.3</ele>
        <time>2022-12-07T14:41:32Z</time>
      </trkpt>
      <trkpt lat="49.81791" lon="2.52949">
        <ele>64.3</ele>
        <time>2022-12-07T14:41:33Z</time>
      </trkpt>
      <trkpt lat="49.81791" lon="2.52947">
        <ele>64.4</ele>
        <time>2022-12-07T14:41:34Z</time>
      </trkpt>
      <trkpt lat="49.81792" lon="2.52945">
        <ele>64.4</ele>
        <time>2022-12-07T14:41:35Z</time>
      </trkpt>
      <trkpt lat="49.81792" lon="2.52942">
        <ele>64.5</ele>
        <time>2022-12-07T14:41:36Z</time>
      </trkpt>
      <trkpt lat="49.81792" lon="2.52941">
        <ele>64.5</ele>
        <time>2022-12-07T14:41:37Z</time>
      </trkpt>
      <trkpt lat="49.81793" lon="2.5294">
        <ele>64.5</ele>
        <time>2022-12-07T14:41:38Z</time>
      </trkpt>
      <trkpt lat="49.81793" lon="2.52938">
        <ele>64.6</ele>
        <time>2022-12-07T14:41:39Z</time>
      </trkpt>
      <trkpt lat="49.81793" lon="2.52937">
        <ele>64.6</ele>
        <time>2022-12-07T14:41:40Z</time>
      </trkpt>
      <trkpt lat="49.81793" lon="2.52935">
        <ele>64.6</ele>
        <time>2022-12-07T14:41:41Z</time>
      </trkpt>
      <trkpt lat="49.81793" lon="2.52933">
        <ele>64.7</ele>
        <time>2022-12-07T14:41:42Z</time>
      </trkpt>
      <trkpt lat="49.81793" lon="2.52931">
        <ele>64.7</ele>
        <time>2022-12-07T14:41:43Z</time>
      </trkpt>
      <trkpt lat="49.81794" lon="2.5293">
        <ele>64.7</ele>
        <time>2022-12-07T14:41:44Z</time>
      </trkpt>
      <trkpt lat="49.81794" lon="2.52928">
        <ele>64.8</ele>
        <time>2022-12-07T14:41:45Z</time>
      </trkpt>
      <trkpt lat="49.81794" lon="2.52927">
        <ele>64.8</ele>
        <time>2022-12-07T14:41:46Z</time>
      </trkpt>
      <trkpt lat="49.81794" lon="2.52925">
        <ele>64.9</ele>
        <time>2022-12-07T14:41:47Z</time>
      </trkpt>
      <trkpt lat="49.81794" lon="2.52923">
        <ele>64.9</ele>
        <time>2022-12-07T14:41:48Z</time>
      </trkpt>
      <trkpt lat="49.81795" lon="2.52922">
        <ele>64.9</ele>
        <time>2022-12-07T14:41:49Z</time>
      </trkpt>
      <trkpt lat="49.81795" lon="2.52921">
        <ele>64.9</ele>
        <time>2022-12-07T14:41:50Z</time>
      </trkpt>
      <trkpt lat="49.81795" lon="2.52919">
        <ele>65</ele>
        <time>2022-12-07T14:41:51Z</time>
      </trkpt>
      <trkpt lat="49.81795" lon="2.52918">
        <ele>65</ele>
        <time>2022-12-07T14:41:52Z</time>
      </trkpt>
      <trkpt lat="49.81796" lon="2.52917">
        <ele>65</ele>
        <time>2022-12-07T14:41:53Z</time>
      </trkpt>
      <trkpt lat="49.81796" lon="2.52915">
        <ele>65.1</ele>
        <time>2022-12-07T14:41:54Z</time>
      </trkpt>
      <trkpt lat="49.81796" lon="2.52914">
        <ele>65.1</ele>
        <time>2022-12-07T14:41:55Z</time>
      </trkpt>
      <trkpt lat="49.81796" lon="2.52912">
        <ele>65.1</ele>
        <time>2022-12-07T14:41:56Z</time>
      </trkpt>
      <trkpt lat="49.81797" lon="2.5291">
        <ele>65.2</ele>
        <time>2022-12-07T14:41:57Z</time>
      </trkpt>
      <trkpt lat="49.81797" lon="2.52909">
        <ele>65.2</ele>
        <time>2022-12-07T14:41:58Z</time>
      </trkpt>
      <trkpt lat="49.81797" lon="2.52907">
        <ele>65.2</ele>
        <time>2022-12-07T14:41:59Z</time>
      </trkpt>
      <trkpt lat="49.81797" lon="2.52906">
        <ele>65.3</ele>
        <time>2022-12-07T14:42:00Z</time>
      </trkpt>
      <trkpt lat="49.81797" lon="2.52904">
        <ele>65.3</ele>
        <time>2022-12-07T14:42:01Z</time>
      </trkpt>
      <trkpt lat="49.81798" lon="2.52902">
        <ele>65.3</ele>
        <time>2022-12-07T14:42:02Z</time>
      </trkpt>
      <trkpt lat="49.81798" lon="2.52901">
        <ele>65.4</ele>
        <time>2022-12-07T14:42:03Z</time>
      </trkpt>
      <trkpt lat="49.81798" lon="2.52899">
        <ele>65.4</ele>
        <time>2022-12-07T14:42:04Z</time>
      </trkpt>
      <trkpt lat="49.81798" lon="2.52897">
        <ele>65.4</ele>
        <time>2022-12-07T14:42:05Z</time>
      </trkpt>
      <trkpt lat="49.81799" lon="2.52894">
        <ele>65.5</ele>
        <time>2022-12-07T14:42:06Z</time>
      </trkpt>
      <trkpt lat="49.81799" lon="2.52892">
        <ele>65.5</ele>
        <time>2022-12-07T14:42:07Z</time>
      </trkpt>
      <trkpt lat="49.818" lon="2.52889">
        <ele>65.6</ele>
        <time>2022-12-07T14:42:08Z</time>
      </trkpt>
      <trkpt lat="49.818" lon="2.52887">
        <ele>65.6</ele>
        <time>2022-12-07T14:42:09Z</time>
      </trkpt>
      <trkpt lat="49.818" lon="2.52885">
        <ele>65.7</ele>
        <time>2022-12-07T14:42:10Z</time>
      </trkpt>
      <trkpt lat="49.81801" lon="2.52883">
        <ele>65.7</ele>
        <time>2022-12-07T14:42:11Z</time>
      </trkpt>
      <trkpt lat="49.81801" lon="2.5288">
        <ele>65.8</ele>
        <time>2022-12-07T14:42:12Z</time>
      </trkpt>
      <trkpt lat="49.81801" lon="2.52878">
        <ele>65.8</ele>
        <time>2022-12-07T14:42:13Z</time>
      </trkpt>
      <trkpt lat="49.81801" lon="2.52876">
        <ele>65.9</ele>
        <time>2022-12-07T14:42:14Z</time>
      </trkpt>
      <trkpt lat="49.81801" lon="2.52873">
        <ele>65.9</ele>
        <time>2022-12-07T14:42:15Z</time>
      </trkpt>
      <trkpt lat="49.81801" lon="2.52871">
        <ele>66</ele>
        <time>2022-12-07T14:42:16Z</time>
      </trkpt>
      <trkpt lat="49.81801" lon="2.5287">
        <ele>66</ele>
        <time>2022-12-07T14:42:17Z</time>
      </trkpt>
      <trkpt lat="49.81801" lon="2.52868">
        <ele>66</ele>
        <time>2022-12-07T14:42:18Z</time>
      </trkpt>
      <trkpt lat="49.818" lon="2.52865">
        <ele>66.1</ele>
        <time>2022-12-07T14:42:19Z</time>
      </trkpt>
      <trkpt lat="49.818" lon="2.52863">
        <ele>66.1</ele>
        <time>2022-12-07T14:42:20Z</time>
      </trkpt>
      <trkpt lat="49.818" lon="2.52862">
        <ele>66.2</ele>
        <time>2022-12-07T14:42:21Z</time>
      </trkpt>
      <trkpt lat="49.818" lon="2.5286">
        <ele>66.2</ele>
        <time>2022-12-07T14:42:22Z</time>
      </trkpt>
      <trkpt lat="49.818" lon="2.52859">
        <ele>66.2</ele>
        <time>2022-12-07T14:42:23Z</time>
      </trkpt>
      <trkpt lat="49.818" lon="2.52857">
        <ele>66.3</ele>
        <time>2022-12-07T14:42:24Z</time>
      </trkpt>
      <trkpt lat="49.818" lon="2.52856">
        <ele>66.3</ele>
        <time>2022-12-07T14:42:25Z</time>
      </trkpt>
      <trkpt lat="49.81799" lon="2.52854">
        <ele>66.4</ele>
        <time>2022-12-07T14:42:26Z</time>
      </trkpt>
      <trkpt lat="49.81799" lon="2.52852">
        <ele>66.4</ele>
        <time>2022-12-07T14:42:27Z</time>
      </trkpt>
      <trkpt lat="49.81799" lon="2.5285">
        <ele>66.4</ele>
        <time>2022-12-07T14:42:28Z</time>
      </trkpt>
      <trkpt lat="49.81799" lon="2.52849">
        <ele>66.5</ele>
        <time>2022-12-07T14:42:29Z</time>
      </trkpt>
      <trkpt lat="49.81799" lon="2.52848">
        <ele>66.5</ele>
        <time>2022-12-07T14:42:30Z</time>
      </trkpt>
      <trkpt lat="49.81799" lon="2.52846">
        <ele>66.5</ele>
        <time>2022-12-07T14:42:31Z</time>
      </trkpt>
      <trkpt lat="49.81799" lon="2.52844">
        <ele>66.5</ele>
        <time>2022-12-07T14:42:32Z</time>
      </trkpt>
      <trkpt lat="49.81799" lon="2.52843">
        <ele>66.6</ele>
        <time>2022-12-07T14:42:33Z</time>
      </trkpt>
      <trkpt lat="49.81799" lon="2.52842">
        <ele>66.6</ele>
        <time>2022-12-07T14:42:34Z</time>
      </trkpt>
      <trkpt lat="49.81799" lon="2.5284">
        <ele>66.6</ele>
        <time>2022-12-07T14:42:35Z</time>
      </trkpt>
      <trkpt lat="49.81799" lon="2.52838">
        <ele>66.7</ele>
        <time>2022-12-07T14:42:36Z</time>
      </trkpt>
      <trkpt lat="49.81799" lon="2.52837">
        <ele>66.7</ele>
        <time>2022-12-07T14:42:37Z</time>
      </trkpt>
      <trkpt lat="49.81799" lon="2.52835">
        <ele>66.7</ele>
        <time>2022-12-07T14:42:38Z</time>
      </trkpt>
      <trkpt lat="49.81799" lon="2.52834">
        <ele>66.8</ele>
        <time>2022-12-07T14:42:39Z</time>
      </trkpt>
      <trkpt lat="49.81799" lon="2.52832">
        <ele>66.8</ele>
        <time>2022-12-07T14:42:40Z</time>
      </trkpt>
      <trkpt lat="49.81799" lon="2.52831">
        <ele>66.8</ele>
        <time>2022-12-07T14:42:41Z</time>
      </trkpt>
      <trkpt lat="49.81799" lon="2.5283">
        <ele>66.8</ele>
        <time>2022-12-07T14:42:42Z</time>
      </trkpt>
      <trkpt lat="49.81799" lon="2.52828">
        <ele>66.8</ele>
        <time>2022-12-07T14:42:43Z</time>
      </trkpt>
      <trkpt lat="49.81799" lon="2.52826">
        <ele>66.9</ele>
        <time>2022-12-07T14:42:44Z</time>
      </trkpt>
      <trkpt lat="49.81799" lon="2.52825">
        <ele>66.9</ele>
        <time>2022-12-07T14:42:45Z</time>
      </trkpt>
      <trkpt lat="49.81799" lon="2.52823">
        <ele>66.9</ele>
        <time>2022-12-07T14:42:46Z</time>
      </trkpt>
      <trkpt lat="49.81799" lon="2.52822">
        <ele>66.9</ele>
        <time>2022-12-07T14:42:47Z</time>
      </trkpt>
      <trkpt lat="49.81799" lon="2.5282">
        <ele>67</ele>
        <time>2022-12-07T14:42:48Z</time>
      </trkpt>
      <trkpt lat="49.81799" lon="2.52818">
        <ele>67</ele>
        <time>2022-12-07T14:42:49Z</time>
      </trkpt>
      <trkpt lat="49.81799" lon="2.52817">
        <ele>67</ele>
        <time>2022-12-07T14:42:50Z</time>
      </trkpt>
      <trkpt lat="49.81799" lon="2.52815">
        <ele>67</ele>
        <time>2022-12-07T14:42:51Z</time>
      </trkpt>
      <trkpt lat="49.81799" lon="2.52813">
        <ele>67</ele>
        <time>2022-12-07T14:42:52Z</time>
      </trkpt>
      <trkpt lat="49.81799" lon="2.52812">
        <ele>67</ele>
        <time>2022-12-07T14:42:53Z</time>
      </trkpt>
      <trkpt lat="49.81799" lon="2.52811">
        <ele>67.1</ele>
        <time>2022-12-07T14:42:54Z</time>
      </trkpt>
      <trkpt lat="49.81799" lon="2.52809">
        <ele>67.1</ele>
        <time>2022-12-07T14:42:55Z</time>
      </trkpt>
      <trkpt lat="49.81799" lon="2.52808">
        <ele>67.1</ele>
        <time>2022-12-07T14:42:56Z</time>
      </trkpt>
      <trkpt lat="49.81799" lon="2.52806">
        <ele>67.1</ele>
        <time>2022-12-07T14:42:57Z</time>
      </trkpt>
      <trkpt lat="49.81799" lon="2.52804">
        <ele>67.1</ele>
        <time>2022-12-07T14:42:58Z</time>
      </trkpt>
      <trkpt lat="49.81799" lon="2.52801">
        <ele>67.1</ele>
        <time>2022-12-07T14:42:59Z</time>
      </trkpt>
      <trkpt lat="49.81799" lon="2.528">
        <ele>67.1</ele>
        <time>2022-12-07T14:43:00Z</time>
      </trkpt>
      <trkpt lat="49.81799" lon="2.52799">
        <ele>67.1</ele>
        <time>2022-12-07T14:43:01Z</time>
      </trkpt>
      <trkpt lat="49.81799" lon="2.52797">
        <ele>67.1</ele>
        <time>2022-12-07T14:43:02Z</time>
      </trkpt>
      <trkpt lat="49.81798" lon="2.52795">
        <ele>67.2</ele>
        <time>2022-12-07T14:43:03Z</time>
      </trkpt>
      <trkpt lat="49.81798" lon="2.52793">
        <ele>67.2</ele>
        <time>2022-12-07T14:43:04Z</time>
      </trkpt>
      <trkpt lat="49.81798" lon="2.5279">
        <ele>67.2</ele>
        <time>2022-12-07T14:43:05Z</time>
      </trkpt>
      <trkpt lat="49.81798" lon="2.52789">
        <ele>67.2</ele>
        <time>2022-12-07T14:43:06Z</time>
      </trkpt>
      <trkpt lat="49.81798" lon="2.52788">
        <ele>67.2</ele>
        <time>2022-12-07T14:43:07Z</time>
      </trkpt>
      <trkpt lat="49.81798" lon="2.52785">
        <ele>67.2</ele>
        <time>2022-12-07T14:43:08Z</time>
      </trkpt>
      <trkpt lat="49.81798" lon="2.52783">
        <ele>67.2</ele>
        <time>2022-12-07T14:43:09Z</time>
      </trkpt>
      <trkpt lat="49.81798" lon="2.5278">
        <ele>67.2</ele>
        <time>2022-12-07T14:43:10Z</time>
      </trkpt>
      <trkpt lat="49.81798" lon="2.52779">
        <ele>67.2</ele>
        <time>2022-12-07T14:43:11Z</time>
      </trkpt>
      <trkpt lat="49.81798" lon="2.52778">
        <ele>67.2</ele>
        <time>2022-12-07T14:43:12Z</time>
      </trkpt>
      <trkpt lat="49.81797" lon="2.52774">
        <ele>67.2</ele>
        <time>2022-12-07T14:43:13Z</time>
      </trkpt>
      <trkpt lat="49.81797" lon="2.52773">
        <ele>67.1</ele>
        <time>2022-12-07T14:43:14Z</time>
      </trkpt>
      <trkpt lat="49.81797" lon="2.52772">
        <ele>67.1</ele>
        <time>2022-12-07T14:43:15Z</time>
      </trkpt>
      <trkpt lat="49.81797" lon="2.5277">
        <ele>67.1</ele>
        <time>2022-12-07T14:43:16Z</time>
      </trkpt>
      <trkpt lat="49.81797" lon="2.52769">
        <ele>67.1</ele>
        <time>2022-12-07T14:43:17Z</time>
      </trkpt>
      <trkpt lat="49.81797" lon="2.52767">
        <ele>67.1</ele>
        <time>2022-12-07T14:43:18Z</time>
      </trkpt>
      <trkpt lat="49.81797" lon="2.52765">
        <ele>67.1</ele>
        <time>2022-12-07T14:43:19Z</time>
      </trkpt>
      <trkpt lat="49.81797" lon="2.52763">
        <ele>67.1</ele>
        <time>2022-12-07T14:43:20Z</time>
      </trkpt>
      <trkpt lat="49.81797" lon="2.52761">
        <ele>67.1</ele>
        <time>2022-12-07T14:43:21Z</time>
      </trkpt>
      <trkpt lat="49.81796" lon="2.52758">
        <ele>67.1</ele>
        <time>2022-12-07T14:43:22Z</time>
      </trkpt>
      <trkpt lat="49.81796" lon="2.52757">
        <ele>67</ele>
        <time>2022-12-07T14:43:23Z</time>
      </trkpt>
      <trkpt lat="49.81796" lon="2.52755">
        <ele>67</ele>
        <time>2022-12-07T14:43:24Z</time>
      </trkpt>
      <trkpt lat="49.81796" lon="2.52754">
        <ele>67</ele>
        <time>2022-12-07T14:43:25Z</time>
      </trkpt>
      <trkpt lat="49.81796" lon="2.52752">
        <ele>67</ele>
        <time>2022-12-07T14:43:26Z</time>
      </trkpt>
      <trkpt lat="49.81796" lon="2.52751">
        <ele>67</ele>
        <time>2022-12-07T14:43:27Z</time>
      </trkpt>
      <trkpt lat="49.81796" lon="2.52749">
        <ele>67</ele>
        <time>2022-12-07T14:43:28Z</time>
      </trkpt>
      <trkpt lat="49.81796" lon="2.52747">
        <ele>66.9</ele>
        <time>2022-12-07T14:43:29Z</time>
      </trkpt>
      <trkpt lat="49.81796" lon="2.52745">
        <ele>66.9</ele>
        <time>2022-12-07T14:43:30Z</time>
      </trkpt>
      <trkpt lat="49.81796" lon="2.52744">
        <ele>66.9</ele>
        <time>2022-12-07T14:43:31Z</time>
      </trkpt>
      <trkpt lat="49.81796" lon="2.52742">
        <ele>66.9</ele>
        <time>2022-12-07T14:43:32Z</time>
      </trkpt>
      <trkpt lat="49.81796" lon="2.5274">
        <ele>66.9</ele>
        <time>2022-12-07T14:43:33Z</time>
      </trkpt>
      <trkpt lat="49.81796" lon="2.52738">
        <ele>66.9</ele>
        <time>2022-12-07T14:43:34Z</time>
      </trkpt>
      <trkpt lat="49.81796" lon="2.52736">
        <ele>66.8</ele>
        <time>2022-12-07T14:43:35Z</time>
      </trkpt>
      <trkpt lat="49.81795" lon="2.52734">
        <ele>66.8</ele>
        <time>2022-12-07T14:43:36Z</time>
      </trkpt>
      <trkpt lat="49.81795" lon="2.52733">
        <ele>66.8</ele>
        <time>2022-12-07T14:43:37Z</time>
      </trkpt>
      <trkpt lat="49.81795" lon="2.52731">
        <ele>66.8</ele>
        <time>2022-12-07T14:43:38Z</time>
      </trkpt>
      <trkpt lat="49.81795" lon="2.52729">
        <ele>66.7</ele>
        <time>2022-12-07T14:43:39Z</time>
      </trkpt>
      <trkpt lat="49.81795" lon="2.52728">
        <ele>66.7</ele>
        <time>2022-12-07T14:43:40Z</time>
      </trkpt>
      <trkpt lat="49.81795" lon="2.52726">
        <ele>66.7</ele>
        <time>2022-12-07T14:43:41Z</time>
      </trkpt>
      <trkpt lat="49.81795" lon="2.52724">
        <ele>66.7</ele>
        <time>2022-12-07T14:43:42Z</time>
      </trkpt>
      <trkpt lat="49.81795" lon="2.52723">
        <ele>66.7</ele>
        <time>2022-12-07T14:43:43Z</time>
      </trkpt>
      <trkpt lat="49.81795" lon="2.52721">
        <ele>66.6</ele>
        <time>2022-12-07T14:43:44Z</time>
      </trkpt>
      <trkpt lat="49.81794" lon="2.52719">
        <ele>66.6</ele>
        <time>2022-12-07T14:43:45Z</time>
      </trkpt>
      <trkpt lat="49.81794" lon="2.52716">
        <ele>66.6</ele>
        <time>2022-12-07T14:43:46Z</time>
      </trkpt>
      <trkpt lat="49.81793" lon="2.52715">
        <ele>66.6</ele>
        <time>2022-12-07T14:43:47Z</time>
      </trkpt>
      <trkpt lat="49.81793" lon="2.52714">
        <ele>66.5</ele>
        <time>2022-12-07T14:43:48Z</time>
      </trkpt>
      <trkpt lat="49.81793" lon="2.52712">
        <ele>66.5</ele>
        <time>2022-12-07T14:43:49Z</time>
      </trkpt>
      <trkpt lat="49.81793" lon="2.5271">
        <ele>66.5</ele>
        <time>2022-12-07T14:43:50Z</time>
      </trkpt>
      <trkpt lat="49.81792" lon="2.52706">
        <ele>66.5</ele>
        <time>2022-12-07T14:43:51Z</time>
      </trkpt>
      <trkpt lat="49.81792" lon="2.52705">
        <ele>66.4</ele>
        <time>2022-12-07T14:43:52Z</time>
      </trkpt>
      <trkpt lat="49.81792" lon="2.52704">
        <ele>66.4</ele>
        <time>2022-12-07T14:43:53Z</time>
      </trkpt>
      <trkpt lat="49.81791" lon="2.52701">
        <ele>66.4</ele>
        <time>2022-12-07T14:43:54Z</time>
      </trkpt>
      <trkpt lat="49.81791" lon="2.52699">
        <ele>66.4</ele>
        <time>2022-12-07T14:43:55Z</time>
      </trkpt>
      <trkpt lat="49.81791" lon="2.52698">
        <ele>66.4</ele>
        <time>2022-12-07T14:43:56Z</time>
      </trkpt>
      <trkpt lat="49.8179" lon="2.52695">
        <ele>66.3</ele>
        <time>2022-12-07T14:43:57Z</time>
      </trkpt>
      <trkpt lat="49.8179" lon="2.52694">
        <ele>66.3</ele>
        <time>2022-12-07T14:43:58Z</time>
      </trkpt>
      <trkpt lat="49.8179" lon="2.52693">
        <ele>66.3</ele>
        <time>2022-12-07T14:43:59Z</time>
      </trkpt>
      <trkpt lat="49.81789" lon="2.52691">
        <ele>66.3</ele>
        <time>2022-12-07T14:44:00Z</time>
      </trkpt>
      <trkpt lat="49.81789" lon="2.52689">
        <ele>66.2</ele>
        <time>2022-12-07T14:44:01Z</time>
      </trkpt>
      <trkpt lat="49.81789" lon="2.52687">
        <ele>66.2</ele>
        <time>2022-12-07T14:44:02Z</time>
      </trkpt>
      <trkpt lat="49.81789" lon="2.52686">
        <ele>66.2</ele>
        <time>2022-12-07T14:44:03Z</time>
      </trkpt>
      <trkpt lat="49.81788" lon="2.52684">
        <ele>66.2</ele>
        <time>2022-12-07T14:44:04Z</time>
      </trkpt>
      <trkpt lat="49.81788" lon="2.52682">
        <ele>66.1</ele>
        <time>2022-12-07T14:44:05Z</time>
      </trkpt>
      <trkpt lat="49.81788" lon="2.5268">
        <ele>66.1</ele>
        <time>2022-12-07T14:44:06Z</time>
      </trkpt>
      <trkpt lat="49.81788" lon="2.52679">
        <ele>66.1</ele>
        <time>2022-12-07T14:44:07Z</time>
      </trkpt>
      <trkpt lat="49.81788" lon="2.52677">
        <ele>66.1</ele>
        <time>2022-12-07T14:44:08Z</time>
      </trkpt>
      <trkpt lat="49.81787" lon="2.52675">
        <ele>66.1</ele>
        <time>2022-12-07T14:44:09Z</time>
      </trkpt>
      <trkpt lat="49.81787" lon="2.52673">
        <ele>66</ele>
        <time>2022-12-07T14:44:10Z</time>
      </trkpt>
      <trkpt lat="49.81787" lon="2.52672">
        <ele>66</ele>
        <time>2022-12-07T14:44:11Z</time>
      </trkpt>
      <trkpt lat="49.81787" lon="2.5267">
        <ele>66</ele>
        <time>2022-12-07T14:44:12Z</time>
      </trkpt>
      <trkpt lat="49.81787" lon="2.52669">
        <ele>66</ele>
        <time>2022-12-07T14:44:13Z</time>
      </trkpt>
      <trkpt lat="49.81786" lon="2.52667">
        <ele>66</ele>
        <time>2022-12-07T14:44:14Z</time>
      </trkpt>
      <trkpt lat="49.81786" lon="2.52665">
        <ele>65.9</ele>
        <time>2022-12-07T14:44:15Z</time>
      </trkpt>
      <trkpt lat="49.81786" lon="2.52663">
        <ele>65.9</ele>
        <time>2022-12-07T14:44:16Z</time>
      </trkpt>
      <trkpt lat="49.81786" lon="2.52662">
        <ele>65.9</ele>
        <time>2022-12-07T14:44:17Z</time>
      </trkpt>
      <trkpt lat="49.81785" lon="2.52661">
        <ele>65.9</ele>
        <time>2022-12-07T14:44:18Z</time>
      </trkpt>
      <trkpt lat="49.81785" lon="2.52659">
        <ele>65.9</ele>
        <time>2022-12-07T14:44:19Z</time>
      </trkpt>
      <trkpt lat="49.81785" lon="2.52657">
        <ele>65.8</ele>
        <time>2022-12-07T14:44:20Z</time>
      </trkpt>
      <trkpt lat="49.81784" lon="2.52655">
        <ele>65.8</ele>
        <time>2022-12-07T14:44:21Z</time>
      </trkpt>
      <trkpt lat="49.81784" lon="2.52653">
        <ele>65.8</ele>
        <time>2022-12-07T14:44:22Z</time>
      </trkpt>
      <trkpt lat="49.81784" lon="2.52651">
        <ele>65.8</ele>
        <time>2022-12-07T14:44:23Z</time>
      </trkpt>
      <trkpt lat="49.81784" lon="2.5265">
        <ele>65.7</ele>
        <time>2022-12-07T14:44:24Z</time>
      </trkpt>
      <trkpt lat="49.81783" lon="2.52648">
        <ele>65.7</ele>
        <time>2022-12-07T14:44:25Z</time>
      </trkpt>
      <trkpt lat="49.81783" lon="2.52646">
        <ele>65.7</ele>
        <time>2022-12-07T14:44:26Z</time>
      </trkpt>
      <trkpt lat="49.81783" lon="2.52645">
        <ele>65.7</ele>
        <time>2022-12-07T14:44:27Z</time>
      </trkpt>
      <trkpt lat="49.81783" lon="2.52643">
        <ele>65.7</ele>
        <time>2022-12-07T14:44:28Z</time>
      </trkpt>
      <trkpt lat="49.81783" lon="2.5264">
        <ele>65.6</ele>
        <time>2022-12-07T14:44:29Z</time>
      </trkpt>
      <trkpt lat="49.81783" lon="2.52638">
        <ele>65.6</ele>
        <time>2022-12-07T14:44:30Z</time>
      </trkpt>
      <trkpt lat="49.81783" lon="2.52637">
        <ele>65.6</ele>
        <time>2022-12-07T14:44:31Z</time>
      </trkpt>
      <trkpt lat="49.81783" lon="2.52634">
        <ele>65.6</ele>
        <time>2022-12-07T14:44:32Z</time>
      </trkpt>
      <trkpt lat="49.81783" lon="2.52632">
        <ele>65.6</ele>
        <time>2022-12-07T14:44:33Z</time>
      </trkpt>
      <trkpt lat="49.81782" lon="2.52631">
        <ele>65.5</ele>
        <time>2022-12-07T14:44:34Z</time>
      </trkpt>
      <trkpt lat="49.81782" lon="2.52628">
        <ele>65.5</ele>
        <time>2022-12-07T14:44:35Z</time>
      </trkpt>
      <trkpt lat="49.81782" lon="2.52627">
        <ele>65.5</ele>
        <time>2022-12-07T14:44:36Z</time>
      </trkpt>
      <trkpt lat="49.81781" lon="2.52625">
        <ele>65.5</ele>
        <time>2022-12-07T14:44:37Z</time>
      </trkpt>
      <trkpt lat="49.81781" lon="2.52622">
        <ele>65.5</ele>
        <time>2022-12-07T14:44:38Z</time>
      </trkpt>
      <trkpt lat="49.8178" lon="2.52621">
        <ele>65.4</ele>
        <time>2022-12-07T14:44:39Z</time>
      </trkpt>
      <trkpt lat="49.8178" lon="2.5262">
        <ele>65.4</ele>
        <time>2022-12-07T14:44:40Z</time>
      </trkpt>
      <trkpt lat="49.8178" lon="2.52619">
        <ele>65.4</ele>
        <time>2022-12-07T14:44:41Z</time>
      </trkpt>
      <trkpt lat="49.8178" lon="2.52617">
        <ele>65.4</ele>
        <time>2022-12-07T14:44:42Z</time>
      </trkpt>
      <trkpt lat="49.81779" lon="2.52616">
        <ele>65.4</ele>
        <time>2022-12-07T14:44:43Z</time>
      </trkpt>
      <trkpt lat="49.81779" lon="2.52612">
        <ele>65.3</ele>
        <time>2022-12-07T14:44:44Z</time>
      </trkpt>
      <trkpt lat="49.81779" lon="2.52611">
        <ele>65.3</ele>
        <time>2022-12-07T14:44:45Z</time>
      </trkpt>
      <trkpt lat="49.81779" lon="2.5261">
        <ele>65.3</ele>
        <time>2022-12-07T14:44:46Z</time>
      </trkpt>
      <trkpt lat="49.81778" lon="2.52607">
        <ele>65.3</ele>
        <time>2022-12-07T14:44:47Z</time>
      </trkpt>
      <trkpt lat="49.81778" lon="2.52605">
        <ele>65.3</ele>
        <time>2022-12-07T14:44:48Z</time>
      </trkpt>
      <trkpt lat="49.81778" lon="2.52604">
        <ele>65.3</ele>
        <time>2022-12-07T14:44:49Z</time>
      </trkpt>
      <trkpt lat="49.81778" lon="2.52602">
        <ele>65.2</ele>
        <time>2022-12-07T14:44:50Z</time>
      </trkpt>
      <trkpt lat="49.81777" lon="2.52601">
        <ele>65.2</ele>
        <time>2022-12-07T14:44:51Z</time>
      </trkpt>
      <trkpt lat="49.81777" lon="2.52599">
        <ele>65.2</ele>
        <time>2022-12-07T14:44:52Z</time>
      </trkpt>
      <trkpt lat="49.81777" lon="2.52597">
        <ele>65.2</ele>
        <time>2022-12-07T14:44:53Z</time>
      </trkpt>
      <trkpt lat="49.81777" lon="2.52595">
        <ele>65.2</ele>
        <time>2022-12-07T14:44:54Z</time>
      </trkpt>
      <trkpt lat="49.81777" lon="2.52594">
        <ele>65.2</ele>
        <time>2022-12-07T14:44:55Z</time>
      </trkpt>
      <trkpt lat="49.81777" lon="2.52592">
        <ele>65.1</ele>
        <time>2022-12-07T14:44:56Z</time>
      </trkpt>
      <trkpt lat="49.81776" lon="2.5259">
        <ele>65.1</ele>
        <time>2022-12-07T14:44:57Z</time>
      </trkpt>
      <trkpt lat="49.81776" lon="2.52589">
        <ele>65.1</ele>
        <time>2022-12-07T14:44:58Z</time>
      </trkpt>
      <trkpt lat="49.81776" lon="2.52587">
        <ele>65.1</ele>
        <time>2022-12-07T14:44:59Z</time>
      </trkpt>
      <trkpt lat="49.81776" lon="2.52585">
        <ele>65.1</ele>
        <time>2022-12-07T14:45:00Z</time>
      </trkpt>
      <trkpt lat="49.81776" lon="2.52583">
        <ele>65</ele>
        <time>2022-12-07T14:45:01Z</time>
      </trkpt>
      <trkpt lat="49.81775" lon="2.52582">
        <ele>65</ele>
        <time>2022-12-07T14:45:02Z</time>
      </trkpt>
      <trkpt lat="49.81775" lon="2.5258">
        <ele>65</ele>
        <time>2022-12-07T14:45:03Z</time>
      </trkpt>
      <trkpt lat="49.81775" lon="2.52579">
        <ele>65</ele>
        <time>2022-12-07T14:45:04Z</time>
      </trkpt>
      <trkpt lat="49.81774" lon="2.52577">
        <ele>65</ele>
        <time>2022-12-07T14:45:05Z</time>
      </trkpt>
      <trkpt lat="49.81774" lon="2.52576">
        <ele>64.9</ele>
        <time>2022-12-07T14:45:06Z</time>
      </trkpt>
      <trkpt lat="49.81774" lon="2.52574">
        <ele>64.9</ele>
        <time>2022-12-07T14:45:07Z</time>
      </trkpt>
      <trkpt lat="49.81774" lon="2.52572">
        <ele>64.9</ele>
        <time>2022-12-07T14:45:08Z</time>
      </trkpt>
      <trkpt lat="49.81773" lon="2.52571">
        <ele>64.9</ele>
        <time>2022-12-07T14:45:09Z</time>
      </trkpt>
      <trkpt lat="49.81773" lon="2.52569">
        <ele>64.8</ele>
        <time>2022-12-07T14:45:10Z</time>
      </trkpt>
      <trkpt lat="49.81773" lon="2.52568">
        <ele>64.8</ele>
        <time>2022-12-07T14:45:11Z</time>
      </trkpt>
      <trkpt lat="49.81772" lon="2.52566">
        <ele>64.8</ele>
        <time>2022-12-07T14:45:12Z</time>
      </trkpt>
      <trkpt lat="49.81772" lon="2.52565">
        <ele>64.8</ele>
        <time>2022-12-07T14:45:13Z</time>
      </trkpt>
      <trkpt lat="49.81772" lon="2.52563">
        <ele>64.8</ele>
        <time>2022-12-07T14:45:14Z</time>
      </trkpt>
      <trkpt lat="49.81772" lon="2.52562">
        <ele>64.8</ele>
        <time>2022-12-07T14:45:15Z</time>
      </trkpt>
      <trkpt lat="49.81771" lon="2.5256">
        <ele>64.7</ele>
        <time>2022-12-07T14:45:16Z</time>
      </trkpt>
      <trkpt lat="49.81771" lon="2.52558">
        <ele>64.7</ele>
        <time>2022-12-07T14:45:17Z</time>
      </trkpt>
      <trkpt lat="49.81771" lon="2.52556">
        <ele>64.7</ele>
        <time>2022-12-07T14:45:18Z</time>
      </trkpt>
      <trkpt lat="49.81771" lon="2.52554">
        <ele>64.6</ele>
        <time>2022-12-07T14:45:19Z</time>
      </trkpt>
      <trkpt lat="49.8177" lon="2.52551">
        <ele>64.6</ele>
        <time>2022-12-07T14:45:20Z</time>
      </trkpt>
      <trkpt lat="49.8177" lon="2.5255">
        <ele>64.6</ele>
        <time>2022-12-07T14:45:21Z</time>
      </trkpt>
      <trkpt lat="49.8177" lon="2.52548">
        <ele>64.6</ele>
        <time>2022-12-07T14:45:22Z</time>
      </trkpt>
      <trkpt lat="49.81769" lon="2.52546">
        <ele>64.5</ele>
        <time>2022-12-07T14:45:23Z</time>
      </trkpt>
      <trkpt lat="49.81769" lon="2.52544">
        <ele>64.5</ele>
        <time>2022-12-07T14:45:24Z</time>
      </trkpt>
      <trkpt lat="49.81769" lon="2.52543">
        <ele>64.5</ele>
        <time>2022-12-07T14:45:25Z</time>
      </trkpt>
      <trkpt lat="49.81768" lon="2.5254">
        <ele>64.4</ele>
        <time>2022-12-07T14:45:26Z</time>
      </trkpt>
      <trkpt lat="49.81768" lon="2.52539">
        <ele>64.4</ele>
        <time>2022-12-07T14:45:27Z</time>
      </trkpt>
      <trkpt lat="49.81768" lon="2.52537">
        <ele>64.4</ele>
        <time>2022-12-07T14:45:28Z</time>
      </trkpt>
      <trkpt lat="49.81768" lon="2.52535">
        <ele>64.4</ele>
        <time>2022-12-07T14:45:29Z</time>
      </trkpt>
      <trkpt lat="49.81767" lon="2.52533">
        <ele>64.3</ele>
        <time>2022-12-07T14:45:30Z</time>
      </trkpt>
      <trkpt lat="49.81767" lon="2.52532">
        <ele>64.3</ele>
        <time>2022-12-07T14:45:31Z</time>
      </trkpt>
      <trkpt lat="49.81767" lon="2.52529">
        <ele>64.3</ele>
        <time>2022-12-07T14:45:32Z</time>
      </trkpt>
      <trkpt lat="49.81766" lon="2.52527">
        <ele>64.2</ele>
        <time>2022-12-07T14:45:33Z</time>
      </trkpt>
      <trkpt lat="49.81766" lon="2.52526">
        <ele>64.2</ele>
        <time>2022-12-07T14:45:34Z</time>
      </trkpt>
      <trkpt lat="49.81766" lon="2.52524">
        <ele>64.2</ele>
        <time>2022-12-07T14:45:35Z</time>
      </trkpt>
      <trkpt lat="49.81766" lon="2.52522">
        <ele>64.2</ele>
        <time>2022-12-07T14:45:36Z</time>
      </trkpt>
      <trkpt lat="49.81766" lon="2.52519">
        <ele>64.1</ele>
        <time>2022-12-07T14:45:37Z</time>
      </trkpt>
      <trkpt lat="49.81766" lon="2.52517">
        <ele>64.1</ele>
        <time>2022-12-07T14:45:38Z</time>
      </trkpt>
      <trkpt lat="49.81766" lon="2.52516">
        <ele>64.1</ele>
        <time>2022-12-07T14:45:39Z</time>
      </trkpt>
      <trkpt lat="49.81765" lon="2.52512">
        <ele>64.1</ele>
        <time>2022-12-07T14:45:40Z</time>
      </trkpt>
      <trkpt lat="49.81765" lon="2.52511">
        <ele>64</ele>
        <time>2022-12-07T14:45:41Z</time>
      </trkpt>
      <trkpt lat="49.81765" lon="2.5251">
        <ele>64</ele>
        <time>2022-12-07T14:45:42Z</time>
      </trkpt>
      <trkpt lat="49.81765" lon="2.52507">
        <ele>64</ele>
        <time>2022-12-07T14:45:43Z</time>
      </trkpt>
      <trkpt lat="49.81765" lon="2.52505">
        <ele>64</ele>
        <time>2022-12-07T14:45:44Z</time>
      </trkpt>
      <trkpt lat="49.81765" lon="2.52504">
        <ele>64</ele>
        <time>2022-12-07T14:45:45Z</time>
      </trkpt>
      <trkpt lat="49.81764" lon="2.52502">
        <ele>63.9</ele>
        <time>2022-12-07T14:45:46Z</time>
      </trkpt>
      <trkpt lat="49.81764" lon="2.525">
        <ele>63.9</ele>
        <time>2022-12-07T14:45:47Z</time>
      </trkpt>
      <trkpt lat="49.81764" lon="2.52498">
        <ele>63.9</ele>
        <time>2022-12-07T14:45:48Z</time>
      </trkpt>
      <trkpt lat="49.81764" lon="2.52496">
        <ele>63.9</ele>
        <time>2022-12-07T14:45:49Z</time>
      </trkpt>
      <trkpt lat="49.81764" lon="2.52495">
        <ele>63.9</ele>
        <time>2022-12-07T14:45:50Z</time>
      </trkpt>
      <trkpt lat="49.81763" lon="2.52492">
        <ele>63.8</ele>
        <time>2022-12-07T14:45:51Z</time>
      </trkpt>
      <trkpt lat="49.81763" lon="2.52491">
        <ele>63.8</ele>
        <time>2022-12-07T14:45:52Z</time>
      </trkpt>
      <trkpt lat="49.81763" lon="2.52489">
        <ele>63.8</ele>
        <time>2022-12-07T14:45:53Z</time>
      </trkpt>
      <trkpt lat="49.81763" lon="2.52488">
        <ele>63.8</ele>
        <time>2022-12-07T14:45:54Z</time>
      </trkpt>
      <trkpt lat="49.81763" lon="2.52486">
        <ele>63.8</ele>
        <time>2022-12-07T14:45:55Z</time>
      </trkpt>
      <trkpt lat="49.81763" lon="2.52484">
        <ele>63.7</ele>
        <time>2022-12-07T14:45:56Z</time>
      </trkpt>
      <trkpt lat="49.81763" lon="2.52481">
        <ele>63.7</ele>
        <time>2022-12-07T14:45:57Z</time>
      </trkpt>
      <trkpt lat="49.81762" lon="2.5248">
        <ele>63.7</ele>
        <time>2022-12-07T14:45:58Z</time>
      </trkpt>
      <trkpt lat="49.81762" lon="2.52479">
        <ele>63.7</ele>
        <time>2022-12-07T14:45:59Z</time>
      </trkpt>
      <trkpt lat="49.81762" lon="2.52475">
        <ele>63.7</ele>
        <time>2022-12-07T14:46:00Z</time>
      </trkpt>
      <trkpt lat="49.81762" lon="2.52474">
        <ele>63.6</ele>
        <time>2022-12-07T14:46:01Z</time>
      </trkpt>
      <trkpt lat="49.81762" lon="2.52473">
        <ele>63.6</ele>
        <time>2022-12-07T14:46:02Z</time>
      </trkpt>
      <trkpt lat="49.81762" lon="2.52471">
        <ele>63.6</ele>
        <time>2022-12-07T14:46:03Z</time>
      </trkpt>
      <trkpt lat="49.81762" lon="2.52469">
        <ele>63.6</ele>
        <time>2022-12-07T14:46:04Z</time>
      </trkpt>
      <trkpt lat="49.81761" lon="2.52467">
        <ele>63.6</ele>
        <time>2022-12-07T14:46:05Z</time>
      </trkpt>
      <trkpt lat="49.81761" lon="2.52466">
        <ele>63.6</ele>
        <time>2022-12-07T14:46:06Z</time>
      </trkpt>
      <trkpt lat="49.81761" lon="2.52464">
        <ele>63.6</ele>
        <time>2022-12-07T14:46:07Z</time>
      </trkpt>
      <trkpt lat="49.81761" lon="2.52462">
        <ele>63.5</ele>
        <time>2022-12-07T14:46:08Z</time>
      </trkpt>
      <trkpt lat="49.81761" lon="2.5246">
        <ele>63.5</ele>
        <time>2022-12-07T14:46:09Z</time>
      </trkpt>
      <trkpt lat="49.81761" lon="2.52459">
        <ele>63.5</ele>
        <time>2022-12-07T14:46:10Z</time>
      </trkpt>
      <trkpt lat="49.8176" lon="2.52457">
        <ele>63.5</ele>
        <time>2022-12-07T14:46:11Z</time>
      </trkpt>
      <trkpt lat="49.8176" lon="2.52456">
        <ele>63.5</ele>
        <time>2022-12-07T14:46:12Z</time>
      </trkpt>
      <trkpt lat="49.8176" lon="2.52454">
        <ele>63.5</ele>
        <time>2022-12-07T14:46:13Z</time>
      </trkpt>
      <trkpt lat="49.8176" lon="2.52452">
        <ele>63.5</ele>
        <time>2022-12-07T14:46:14Z</time>
      </trkpt>
      <trkpt lat="49.8176" lon="2.52451">
        <ele>63.5</ele>
        <time>2022-12-07T14:46:15Z</time>
      </trkpt>
      <trkpt lat="49.81759" lon="2.52449">
        <ele>63.5</ele>
        <time>2022-12-07T14:46:16Z</time>
      </trkpt>
      <trkpt lat="49.81758" lon="2.52448">
        <ele>63.4</ele>
        <time>2022-12-07T14:46:17Z</time>
      </trkpt>
      <trkpt lat="49.81758" lon="2.52446">
        <ele>63.4</ele>
        <time>2022-12-07T14:46:18Z</time>
      </trkpt>
      <trkpt lat="49.81757" lon="2.52444">
        <ele>63.4</ele>
        <time>2022-12-07T14:46:19Z</time>
      </trkpt>
      <trkpt lat="49.81757" lon="2.52442">
        <ele>63.4</ele>
        <time>2022-12-07T14:46:20Z</time>
      </trkpt>
      <trkpt lat="49.81756" lon="2.52439">
        <ele>63.4</ele>
        <time>2022-12-07T14:46:21Z</time>
      </trkpt>
      <trkpt lat="49.81756" lon="2.52438">
        <ele>63.4</ele>
        <time>2022-12-07T14:46:22Z</time>
      </trkpt>
      <trkpt lat="49.81756" lon="2.52436">
        <ele>63.4</ele>
        <time>2022-12-07T14:46:23Z</time>
      </trkpt>
      <trkpt lat="49.81756" lon="2.52435">
        <ele>63.3</ele>
        <time>2022-12-07T14:46:24Z</time>
      </trkpt>
      <trkpt lat="49.81755" lon="2.52433">
        <ele>63.3</ele>
        <time>2022-12-07T14:46:25Z</time>
      </trkpt>
      <trkpt lat="49.81755" lon="2.52431">
        <ele>63.3</ele>
        <time>2022-12-07T14:46:26Z</time>
      </trkpt>
      <trkpt lat="49.81755" lon="2.52429">
        <ele>63.3</ele>
        <time>2022-12-07T14:46:27Z</time>
      </trkpt>
      <trkpt lat="49.81755" lon="2.52428">
        <ele>63.3</ele>
        <time>2022-12-07T14:46:28Z</time>
      </trkpt>
      <trkpt lat="49.81755" lon="2.52426">
        <ele>63.3</ele>
        <time>2022-12-07T14:46:29Z</time>
      </trkpt>
      <trkpt lat="49.81755" lon="2.52425">
        <ele>63.2</ele>
        <time>2022-12-07T14:46:30Z</time>
      </trkpt>
      <trkpt lat="49.81755" lon="2.52423">
        <ele>63.2</ele>
        <time>2022-12-07T14:46:31Z</time>
      </trkpt>
      <trkpt lat="49.81754" lon="2.52421">
        <ele>63.2</ele>
        <time>2022-12-07T14:46:32Z</time>
      </trkpt>
      <trkpt lat="49.81754" lon="2.52419">
        <ele>63.2</ele>
        <time>2022-12-07T14:46:33Z</time>
      </trkpt>
      <trkpt lat="49.81754" lon="2.52418">
        <ele>63.2</ele>
        <time>2022-12-07T14:46:34Z</time>
      </trkpt>
      <trkpt lat="49.81754" lon="2.52416">
        <ele>63.1</ele>
        <time>2022-12-07T14:46:35Z</time>
      </trkpt>
      <trkpt lat="49.81754" lon="2.52413">
        <ele>63.1</ele>
        <time>2022-12-07T14:46:36Z</time>
      </trkpt>
      <trkpt lat="49.81754" lon="2.52411">
        <ele>63.1</ele>
        <time>2022-12-07T14:46:37Z</time>
      </trkpt>
      <trkpt lat="49.81753" lon="2.5241">
        <ele>63.1</ele>
        <time>2022-12-07T14:46:38Z</time>
      </trkpt>
      <trkpt lat="49.81753" lon="2.52409">
        <ele>63</ele>
        <time>2022-12-07T14:46:39Z</time>
      </trkpt>
      <trkpt lat="49.81753" lon="2.52407">
        <ele>63</ele>
        <time>2022-12-07T14:46:40Z</time>
      </trkpt>
      <trkpt lat="49.81753" lon="2.52405">
        <ele>63</ele>
        <time>2022-12-07T14:46:41Z</time>
      </trkpt>
      <trkpt lat="49.81753" lon="2.52403">
        <ele>63</ele>
        <time>2022-12-07T14:46:42Z</time>
      </trkpt>
      <trkpt lat="49.81753" lon="2.52402">
        <ele>62.9</ele>
        <time>2022-12-07T14:46:43Z</time>
      </trkpt>
      <trkpt lat="49.81753" lon="2.524">
        <ele>62.9</ele>
        <time>2022-12-07T14:46:44Z</time>
      </trkpt>
      <trkpt lat="49.81752" lon="2.52398">
        <ele>62.9</ele>
        <time>2022-12-07T14:46:45Z</time>
      </trkpt>
      <trkpt lat="49.81752" lon="2.52397">
        <ele>62.9</ele>
        <time>2022-12-07T14:46:46Z</time>
      </trkpt>
      <trkpt lat="49.81752" lon="2.52395">
        <ele>62.8</ele>
        <time>2022-12-07T14:46:47Z</time>
      </trkpt>
      <trkpt lat="49.81752" lon="2.52394">
        <ele>62.8</ele>
        <time>2022-12-07T14:46:48Z</time>
      </trkpt>
      <trkpt lat="49.81752" lon="2.52392">
        <ele>62.8</ele>
        <time>2022-12-07T14:46:49Z</time>
      </trkpt>
      <trkpt lat="49.81751" lon="2.5239">
        <ele>62.8</ele>
        <time>2022-12-07T14:46:50Z</time>
      </trkpt>
      <trkpt lat="49.81751" lon="2.52387">
        <ele>62.7</ele>
        <time>2022-12-07T14:46:51Z</time>
      </trkpt>
      <trkpt lat="49.81751" lon="2.52386">
        <ele>62.7</ele>
        <time>2022-12-07T14:46:52Z</time>
      </trkpt>
      <trkpt lat="49.8175" lon="2.52385">
        <ele>62.7</ele>
        <time>2022-12-07T14:46:53Z</time>
      </trkpt>
      <trkpt lat="49.8175" lon="2.52383">
        <ele>62.6</ele>
        <time>2022-12-07T14:46:54Z</time>
      </trkpt>
      <trkpt lat="49.8175" lon="2.52381">
        <ele>62.6</ele>
        <time>2022-12-07T14:46:55Z</time>
      </trkpt>
      <trkpt lat="49.8175" lon="2.5238">
        <ele>62.6</ele>
        <time>2022-12-07T14:46:56Z</time>
      </trkpt>
      <trkpt lat="49.81749" lon="2.52378">
        <ele>62.6</ele>
        <time>2022-12-07T14:46:57Z</time>
      </trkpt>
      <trkpt lat="49.81749" lon="2.52376">
        <ele>62.5</ele>
        <time>2022-12-07T14:46:58Z</time>
      </trkpt>
      <trkpt lat="49.81749" lon="2.52374">
        <ele>62.5</ele>
        <time>2022-12-07T14:46:59Z</time>
      </trkpt>
      <trkpt lat="49.81749" lon="2.52371">
        <ele>62.4</ele>
        <time>2022-12-07T14:47:00Z</time>
      </trkpt>
      <trkpt lat="49.81748" lon="2.5237">
        <ele>62.4</ele>
        <time>2022-12-07T14:47:01Z</time>
      </trkpt>
      <trkpt lat="49.81748" lon="2.52368">
        <ele>62.4</ele>
        <time>2022-12-07T14:47:02Z</time>
      </trkpt>
      <trkpt lat="49.81748" lon="2.52366">
        <ele>62.4</ele>
        <time>2022-12-07T14:47:03Z</time>
      </trkpt>
      <trkpt lat="49.81748" lon="2.52364">
        <ele>62.3</ele>
        <time>2022-12-07T14:47:04Z</time>
      </trkpt>
      <trkpt lat="49.81748" lon="2.52363">
        <ele>62.3</ele>
        <time>2022-12-07T14:47:05Z</time>
      </trkpt>
      <trkpt lat="49.81747" lon="2.5236">
        <ele>62.2</ele>
        <time>2022-12-07T14:47:06Z</time>
      </trkpt>
      <trkpt lat="49.81747" lon="2.52359">
        <ele>62.2</ele>
        <time>2022-12-07T14:47:07Z</time>
      </trkpt>
      <trkpt lat="49.81747" lon="2.52357">
        <ele>62.2</ele>
        <time>2022-12-07T14:47:08Z</time>
      </trkpt>
      <trkpt lat="49.81747" lon="2.52354">
        <ele>62.2</ele>
        <time>2022-12-07T14:47:09Z</time>
      </trkpt>
      <trkpt lat="49.81747" lon="2.52353">
        <ele>62.1</ele>
        <time>2022-12-07T14:47:10Z</time>
      </trkpt>
      <trkpt lat="49.81747" lon="2.52351">
        <ele>62.1</ele>
        <time>2022-12-07T14:47:11Z</time>
      </trkpt>
      <trkpt lat="49.81747" lon="2.52348">
        <ele>62</ele>
        <time>2022-12-07T14:47:12Z</time>
      </trkpt>
      <trkpt lat="49.81747" lon="2.52346">
        <ele>62</ele>
        <time>2022-12-07T14:47:13Z</time>
      </trkpt>
      <trkpt lat="49.81747" lon="2.52345">
        <ele>62</ele>
        <time>2022-12-07T14:47:14Z</time>
      </trkpt>
      <trkpt lat="49.81746" lon="2.52343">
        <ele>62</ele>
        <time>2022-12-07T14:47:15Z</time>
      </trkpt>
      <trkpt lat="49.81746" lon="2.52341">
        <ele>61.9</ele>
        <time>2022-12-07T14:47:16Z</time>
      </trkpt>
      <trkpt lat="49.81745" lon="2.52338">
        <ele>61.9</ele>
        <time>2022-12-07T14:47:17Z</time>
      </trkpt>
      <trkpt lat="49.81745" lon="2.52336">
        <ele>61.9</ele>
        <time>2022-12-07T14:47:18Z</time>
      </trkpt>
      <trkpt lat="49.81745" lon="2.52335">
        <ele>61.8</ele>
        <time>2022-12-07T14:47:19Z</time>
      </trkpt>
      <trkpt lat="49.81744" lon="2.52332">
        <ele>61.8</ele>
        <time>2022-12-07T14:47:20Z</time>
      </trkpt>
      <trkpt lat="49.81744" lon="2.52331">
        <ele>61.8</ele>
        <time>2022-12-07T14:47:21Z</time>
      </trkpt>
      <trkpt lat="49.81744" lon="2.5233">
        <ele>61.7</ele>
        <time>2022-12-07T14:47:22Z</time>
      </trkpt>
      <trkpt lat="49.81744" lon="2.52328">
        <ele>61.7</ele>
        <time>2022-12-07T14:47:23Z</time>
      </trkpt>
      <trkpt lat="49.81744" lon="2.52326">
        <ele>61.7</ele>
        <time>2022-12-07T14:47:24Z</time>
      </trkpt>
      <trkpt lat="49.81743" lon="2.52325">
        <ele>61.6</ele>
        <time>2022-12-07T14:47:25Z</time>
      </trkpt>
      <trkpt lat="49.81743" lon="2.52323">
        <ele>61.6</ele>
        <time>2022-12-07T14:47:26Z</time>
      </trkpt>
      <trkpt lat="49.81743" lon="2.52321">
        <ele>61.6</ele>
        <time>2022-12-07T14:47:27Z</time>
      </trkpt>
      <trkpt lat="49.81743" lon="2.5232">
        <ele>61.5</ele>
        <time>2022-12-07T14:47:28Z</time>
      </trkpt>
      <trkpt lat="49.81743" lon="2.52318">
        <ele>61.5</ele>
        <time>2022-12-07T14:47:29Z</time>
      </trkpt>
      <trkpt lat="49.81743" lon="2.52316">
        <ele>61.5</ele>
        <time>2022-12-07T14:47:30Z</time>
      </trkpt>
      <trkpt lat="49.81742" lon="2.52315">
        <ele>61.4</ele>
        <time>2022-12-07T14:47:31Z</time>
      </trkpt>
      <trkpt lat="49.81742" lon="2.52313">
        <ele>61.4</ele>
        <time>2022-12-07T14:47:32Z</time>
      </trkpt>
      <trkpt lat="49.81742" lon="2.52311">
        <ele>61.4</ele>
        <time>2022-12-07T14:47:33Z</time>
      </trkpt>
      <trkpt lat="49.81742" lon="2.5231">
        <ele>61.3</ele>
        <time>2022-12-07T14:47:34Z</time>
      </trkpt>
      <trkpt lat="49.81741" lon="2.52308">
        <ele>61.3</ele>
        <time>2022-12-07T14:47:35Z</time>
      </trkpt>
      <trkpt lat="49.81741" lon="2.52306">
        <ele>61.3</ele>
        <time>2022-12-07T14:47:36Z</time>
      </trkpt>
      <trkpt lat="49.81741" lon="2.52304">
        <ele>61.2</ele>
        <time>2022-12-07T14:47:37Z</time>
      </trkpt>
      <trkpt lat="49.81741" lon="2.52301">
        <ele>61.2</ele>
        <time>2022-12-07T14:47:38Z</time>
      </trkpt>
      <trkpt lat="49.81741" lon="2.523">
        <ele>61.1</ele>
        <time>2022-12-07T14:47:39Z</time>
      </trkpt>
      <trkpt lat="49.81741" lon="2.52298">
        <ele>61.1</ele>
        <time>2022-12-07T14:47:40Z</time>
      </trkpt>
      <trkpt lat="49.81741" lon="2.52297">
        <ele>61.1</ele>
        <time>2022-12-07T14:47:41Z</time>
      </trkpt>
      <trkpt lat="49.81741" lon="2.52295">
        <ele>61.1</ele>
        <time>2022-12-07T14:47:42Z</time>
      </trkpt>
      <trkpt lat="49.81742" lon="2.52293">
        <ele>61</ele>
        <time>2022-12-07T14:47:43Z</time>
      </trkpt>
      <trkpt lat="49.81742" lon="2.52291">
        <ele>61</ele>
        <time>2022-12-07T14:47:44Z</time>
      </trkpt>
      <trkpt lat="49.81742" lon="2.52289">
        <ele>60.9</ele>
        <time>2022-12-07T14:47:45Z</time>
      </trkpt>
      <trkpt lat="49.81742" lon="2.52288">
        <ele>60.9</ele>
        <time>2022-12-07T14:47:46Z</time>
      </trkpt>
      <trkpt lat="49.81742" lon="2.52286">
        <ele>60.9</ele>
        <time>2022-12-07T14:47:47Z</time>
      </trkpt>
      <trkpt lat="49.81742" lon="2.52284">
        <ele>60.9</ele>
        <time>2022-12-07T14:47:48Z</time>
      </trkpt>
      <trkpt lat="49.81742" lon="2.52283">
        <ele>60.8</ele>
        <time>2022-12-07T14:47:49Z</time>
      </trkpt>
      <trkpt lat="49.81742" lon="2.52281">
        <ele>60.8</ele>
        <time>2022-12-07T14:47:50Z</time>
      </trkpt>
      <trkpt lat="49.81742" lon="2.52279">
        <ele>60.8</ele>
        <time>2022-12-07T14:47:51Z</time>
      </trkpt>
      <trkpt lat="49.81742" lon="2.52277">
        <ele>60.7</ele>
        <time>2022-12-07T14:47:52Z</time>
      </trkpt>
      <trkpt lat="49.81741" lon="2.52274">
        <ele>60.7</ele>
        <time>2022-12-07T14:47:53Z</time>
      </trkpt>
      <trkpt lat="49.81741" lon="2.52273">
        <ele>60.6</ele>
        <time>2022-12-07T14:47:54Z</time>
      </trkpt>
      <trkpt lat="49.81741" lon="2.52272">
        <ele>60.6</ele>
        <time>2022-12-07T14:47:55Z</time>
      </trkpt>
      <trkpt lat="49.81741" lon="2.52269">
        <ele>60.6</ele>
        <time>2022-12-07T14:47:56Z</time>
      </trkpt>
      <trkpt lat="49.8174" lon="2.52267">
        <ele>60.5</ele>
        <time>2022-12-07T14:47:57Z</time>
      </trkpt>
      <trkpt lat="49.8174" lon="2.52266">
        <ele>60.5</ele>
        <time>2022-12-07T14:47:58Z</time>
      </trkpt>
      <trkpt lat="49.8174" lon="2.52264">
        <ele>60.5</ele>
        <time>2022-12-07T14:47:59Z</time>
      </trkpt>
      <trkpt lat="49.8174" lon="2.52262">
        <ele>60.4</ele>
        <time>2022-12-07T14:48:00Z</time>
      </trkpt>
      <trkpt lat="49.81739" lon="2.52259">
        <ele>60.4</ele>
        <time>2022-12-07T14:48:01Z</time>
      </trkpt>
      <trkpt lat="49.81739" lon="2.52258">
        <ele>60.3</ele>
        <time>2022-12-07T14:48:02Z</time>
      </trkpt>
      <trkpt lat="49.81739" lon="2.52256">
        <ele>60.3</ele>
        <time>2022-12-07T14:48:03Z</time>
      </trkpt>
      <trkpt lat="49.81739" lon="2.52253">
        <ele>60.2</ele>
        <time>2022-12-07T14:48:04Z</time>
      </trkpt>
      <trkpt lat="49.81739" lon="2.52252">
        <ele>60.2</ele>
        <time>2022-12-07T14:48:05Z</time>
      </trkpt>
      <trkpt lat="49.81738" lon="2.52251">
        <ele>60.2</ele>
        <time>2022-12-07T14:48:06Z</time>
      </trkpt>
      <trkpt lat="49.81738" lon="2.52248">
        <ele>60.1</ele>
        <time>2022-12-07T14:48:07Z</time>
      </trkpt>
      <trkpt lat="49.81738" lon="2.52246">
        <ele>60.1</ele>
        <time>2022-12-07T14:48:08Z</time>
      </trkpt>
      <trkpt lat="49.81738" lon="2.52245">
        <ele>60.1</ele>
        <time>2022-12-07T14:48:09Z</time>
      </trkpt>
      <trkpt lat="49.81738" lon="2.52244">
        <ele>60.1</ele>
        <time>2022-12-07T14:48:10Z</time>
      </trkpt>
      <trkpt lat="49.81738" lon="2.52242">
        <ele>60</ele>
        <time>2022-12-07T14:48:11Z</time>
      </trkpt>
      <trkpt lat="49.81738" lon="2.5224">
        <ele>60</ele>
        <time>2022-12-07T14:48:12Z</time>
      </trkpt>
      <trkpt lat="49.81737" lon="2.52237">
        <ele>59.9</ele>
        <time>2022-12-07T14:48:13Z</time>
      </trkpt>
      <trkpt lat="49.81737" lon="2.52235">
        <ele>59.9</ele>
        <time>2022-12-07T14:48:14Z</time>
      </trkpt>
      <trkpt lat="49.81737" lon="2.52234">
        <ele>59.9</ele>
        <time>2022-12-07T14:48:15Z</time>
      </trkpt>
      <trkpt lat="49.81737" lon="2.5223">
        <ele>59.8</ele>
        <time>2022-12-07T14:48:16Z</time>
      </trkpt>
      <trkpt lat="49.81737" lon="2.52229">
        <ele>59.8</ele>
        <time>2022-12-07T14:48:17Z</time>
      </trkpt>
      <trkpt lat="49.81736" lon="2.52228">
        <ele>59.8</ele>
        <time>2022-12-07T14:48:18Z</time>
      </trkpt>
      <trkpt lat="49.81736" lon="2.52226">
        <ele>59.7</ele>
        <time>2022-12-07T14:48:19Z</time>
      </trkpt>
      <trkpt lat="49.81736" lon="2.52224">
        <ele>59.7</ele>
        <time>2022-12-07T14:48:20Z</time>
      </trkpt>
      <trkpt lat="49.81735" lon="2.5222">
        <ele>59.7</ele>
        <time>2022-12-07T14:48:21Z</time>
      </trkpt>
      <trkpt lat="49.81735" lon="2.52219">
        <ele>59.6</ele>
        <time>2022-12-07T14:48:22Z</time>
      </trkpt>
      <trkpt lat="49.81735" lon="2.52218">
        <ele>59.6</ele>
        <time>2022-12-07T14:48:23Z</time>
      </trkpt>
      <trkpt lat="49.81735" lon="2.52214">
        <ele>59.6</ele>
        <time>2022-12-07T14:48:24Z</time>
      </trkpt>
      <trkpt lat="49.81735" lon="2.52213">
        <ele>59.6</ele>
        <time>2022-12-07T14:48:25Z</time>
      </trkpt>
      <trkpt lat="49.81735" lon="2.52212">
        <ele>59.5</ele>
        <time>2022-12-07T14:48:26Z</time>
      </trkpt>
      <trkpt lat="49.81735" lon="2.52209">
        <ele>59.5</ele>
        <time>2022-12-07T14:48:27Z</time>
      </trkpt>
      <trkpt lat="49.81735" lon="2.52207">
        <ele>59.5</ele>
        <time>2022-12-07T14:48:28Z</time>
      </trkpt>
      <trkpt lat="49.81735" lon="2.52205">
        <ele>59.4</ele>
        <time>2022-12-07T14:48:29Z</time>
      </trkpt>
      <trkpt lat="49.81735" lon="2.52204">
        <ele>59.4</ele>
        <time>2022-12-07T14:48:30Z</time>
      </trkpt>
      <trkpt lat="49.81735" lon="2.52202">
        <ele>59.4</ele>
        <time>2022-12-07T14:48:31Z</time>
      </trkpt>
      <trkpt lat="49.81735" lon="2.522">
        <ele>59.4</ele>
        <time>2022-12-07T14:48:32Z</time>
      </trkpt>
      <trkpt lat="49.81735" lon="2.52198">
        <ele>59.3</ele>
        <time>2022-12-07T14:48:33Z</time>
      </trkpt>
      <trkpt lat="49.81735" lon="2.52197">
        <ele>59.3</ele>
        <time>2022-12-07T14:48:34Z</time>
      </trkpt>
      <trkpt lat="49.81735" lon="2.52193">
        <ele>59.3</ele>
        <time>2022-12-07T14:48:35Z</time>
      </trkpt>
      <trkpt lat="49.81734" lon="2.52192">
        <ele>59.3</ele>
        <time>2022-12-07T14:48:36Z</time>
      </trkpt>
      <trkpt lat="49.81734" lon="2.52191">
        <ele>59.2</ele>
        <time>2022-12-07T14:48:37Z</time>
      </trkpt>
      <trkpt lat="49.81734" lon="2.52188">
        <ele>59.2</ele>
        <time>2022-12-07T14:48:38Z</time>
      </trkpt>
      <trkpt lat="49.81734" lon="2.52186">
        <ele>59.2</ele>
        <time>2022-12-07T14:48:39Z</time>
      </trkpt>
      <trkpt lat="49.81734" lon="2.52185">
        <ele>59.2</ele>
        <time>2022-12-07T14:48:40Z</time>
      </trkpt>
      <trkpt lat="49.81734" lon="2.52183">
        <ele>59.1</ele>
        <time>2022-12-07T14:48:41Z</time>
      </trkpt>
      <trkpt lat="49.81733" lon="2.52181">
        <ele>59.1</ele>
        <time>2022-12-07T14:48:42Z</time>
      </trkpt>
      <trkpt lat="49.81733" lon="2.5218">
        <ele>59.1</ele>
        <time>2022-12-07T14:48:43Z</time>
      </trkpt>
      <trkpt lat="49.81733" lon="2.52177">
        <ele>59</ele>
        <time>2022-12-07T14:48:44Z</time>
      </trkpt>
      <trkpt lat="49.81732" lon="2.52175">
        <ele>59</ele>
        <time>2022-12-07T14:48:45Z</time>
      </trkpt>
      <trkpt lat="49.81732" lon="2.52174">
        <ele>59</ele>
        <time>2022-12-07T14:48:46Z</time>
      </trkpt>
      <trkpt lat="49.81732" lon="2.52173">
        <ele>59</ele>
        <time>2022-12-07T14:48:47Z</time>
      </trkpt>
      <trkpt lat="49.81731" lon="2.52171">
        <ele>59</ele>
        <time>2022-12-07T14:48:48Z</time>
      </trkpt>
      <trkpt lat="49.81731" lon="2.52169">
        <ele>58.9</ele>
        <time>2022-12-07T14:48:49Z</time>
      </trkpt>
      <trkpt lat="49.81731" lon="2.52167">
        <ele>58.9</ele>
        <time>2022-12-07T14:48:50Z</time>
      </trkpt>
      <trkpt lat="49.81731" lon="2.52166">
        <ele>58.9</ele>
        <time>2022-12-07T14:48:51Z</time>
      </trkpt>
      <trkpt lat="49.81731" lon="2.52164">
        <ele>58.9</ele>
        <time>2022-12-07T14:48:52Z</time>
      </trkpt>
      <trkpt lat="49.8173" lon="2.52163">
        <ele>58.8</ele>
        <time>2022-12-07T14:48:53Z</time>
      </trkpt>
      <trkpt lat="49.8173" lon="2.52161">
        <ele>58.8</ele>
        <time>2022-12-07T14:48:54Z</time>
      </trkpt>
      <trkpt lat="49.8173" lon="2.52159">
        <ele>58.8</ele>
        <time>2022-12-07T14:48:55Z</time>
      </trkpt>
      <trkpt lat="49.8173" lon="2.52158">
        <ele>58.7</ele>
        <time>2022-12-07T14:48:56Z</time>
      </trkpt>
      <trkpt lat="49.8173" lon="2.52156">
        <ele>58.7</ele>
        <time>2022-12-07T14:48:57Z</time>
      </trkpt>
      <trkpt lat="49.8173" lon="2.52154">
        <ele>58.7</ele>
        <time>2022-12-07T14:48:58Z</time>
      </trkpt>
      <trkpt lat="49.8173" lon="2.5215">
        <ele>58.6</ele>
        <time>2022-12-07T14:48:59Z</time>
      </trkpt>
      <trkpt lat="49.8173" lon="2.52149">
        <ele>58.6</ele>
        <time>2022-12-07T14:49:00Z</time>
      </trkpt>
      <trkpt lat="49.8173" lon="2.52148">
        <ele>58.6</ele>
        <time>2022-12-07T14:49:01Z</time>
      </trkpt>
      <trkpt lat="49.8173" lon="2.52146">
        <ele>58.5</ele>
        <time>2022-12-07T14:49:02Z</time>
      </trkpt>
      <trkpt lat="49.8173" lon="2.52144">
        <ele>58.5</ele>
        <time>2022-12-07T14:49:03Z</time>
      </trkpt>
      <trkpt lat="49.8173" lon="2.52142">
        <ele>58.5</ele>
        <time>2022-12-07T14:49:04Z</time>
      </trkpt>
      <trkpt lat="49.8173" lon="2.52139">
        <ele>58.4</ele>
        <time>2022-12-07T14:49:05Z</time>
      </trkpt>
      <trkpt lat="49.8173" lon="2.52137">
        <ele>58.4</ele>
        <time>2022-12-07T14:49:06Z</time>
      </trkpt>
      <trkpt lat="49.8173" lon="2.52136">
        <ele>58.4</ele>
        <time>2022-12-07T14:49:07Z</time>
      </trkpt>
      <trkpt lat="49.81729" lon="2.52133">
        <ele>58.3</ele>
        <time>2022-12-07T14:49:08Z</time>
      </trkpt>
      <trkpt lat="49.81729" lon="2.52132">
        <ele>58.3</ele>
        <time>2022-12-07T14:49:09Z</time>
      </trkpt>
      <trkpt lat="49.81729" lon="2.52131">
        <ele>58.3</ele>
        <time>2022-12-07T14:49:10Z</time>
      </trkpt>
      <trkpt lat="49.81729" lon="2.52129">
        <ele>58.2</ele>
        <time>2022-12-07T14:49:11Z</time>
      </trkpt>
      <trkpt lat="49.81728" lon="2.52127">
        <ele>58.2</ele>
        <time>2022-12-07T14:49:12Z</time>
      </trkpt>
      <trkpt lat="49.81728" lon="2.52125">
        <ele>58.2</ele>
        <time>2022-12-07T14:49:13Z</time>
      </trkpt>
      <trkpt lat="49.81728" lon="2.52123">
        <ele>58.2</ele>
        <time>2022-12-07T14:49:14Z</time>
      </trkpt>
      <trkpt lat="49.81727" lon="2.52121">
        <ele>58.1</ele>
        <time>2022-12-07T14:49:15Z</time>
      </trkpt>
      <trkpt lat="49.81727" lon="2.5212">
        <ele>58.1</ele>
        <time>2022-12-07T14:49:16Z</time>
      </trkpt>
      <trkpt lat="49.81727" lon="2.52118">
        <ele>58.1</ele>
        <time>2022-12-07T14:49:17Z</time>
      </trkpt>
      <trkpt lat="49.81727" lon="2.52117">
        <ele>58.1</ele>
        <time>2022-12-07T14:49:18Z</time>
      </trkpt>
      <trkpt lat="49.81726" lon="2.52115">
        <ele>58</ele>
        <time>2022-12-07T14:49:19Z</time>
      </trkpt>
      <trkpt lat="49.81726" lon="2.52113">
        <ele>58</ele>
        <time>2022-12-07T14:49:20Z</time>
      </trkpt>
      <trkpt lat="49.81725" lon="2.52111">
        <ele>58</ele>
        <time>2022-12-07T14:49:21Z</time>
      </trkpt>
      <trkpt lat="49.81725" lon="2.5211">
        <ele>58</ele>
        <time>2022-12-07T14:49:22Z</time>
      </trkpt>
      <trkpt lat="49.81724" lon="2.52107">
        <ele>57.9</ele>
        <time>2022-12-07T14:49:23Z</time>
      </trkpt>
      <trkpt lat="49.81724" lon="2.52106">
        <ele>57.9</ele>
        <time>2022-12-07T14:49:24Z</time>
      </trkpt>
      <trkpt lat="49.81723" lon="2.52104">
        <ele>57.9</ele>
        <time>2022-12-07T14:49:25Z</time>
      </trkpt>
      <trkpt lat="49.81723" lon="2.52102">
        <ele>57.9</ele>
        <time>2022-12-07T14:49:26Z</time>
      </trkpt>
      <trkpt lat="49.81722" lon="2.521">
        <ele>57.9</ele>
        <time>2022-12-07T14:49:27Z</time>
      </trkpt>
      <trkpt lat="49.81722" lon="2.52099">
        <ele>57.8</ele>
        <time>2022-12-07T14:49:28Z</time>
      </trkpt>
      <trkpt lat="49.81722" lon="2.52097">
        <ele>57.8</ele>
        <time>2022-12-07T14:49:29Z</time>
      </trkpt>
      <trkpt lat="49.81722" lon="2.52095">
        <ele>57.8</ele>
        <time>2022-12-07T14:49:30Z</time>
      </trkpt>
      <trkpt lat="49.81722" lon="2.52094">
        <ele>57.8</ele>
        <time>2022-12-07T14:49:31Z</time>
      </trkpt>
      <trkpt lat="49.81722" lon="2.52092">
        <ele>57.8</ele>
        <time>2022-12-07T14:49:32Z</time>
      </trkpt>
      <trkpt lat="49.81722" lon="2.52091">
        <ele>57.8</ele>
        <time>2022-12-07T14:49:33Z</time>
      </trkpt>
      <trkpt lat="49.81722" lon="2.52089">
        <ele>57.7</ele>
        <time>2022-12-07T14:49:34Z</time>
      </trkpt>
      <trkpt lat="49.81722" lon="2.52087">
        <ele>57.7</ele>
        <time>2022-12-07T14:49:35Z</time>
      </trkpt>
      <trkpt lat="49.81722" lon="2.52086">
        <ele>57.7</ele>
        <time>2022-12-07T14:49:36Z</time>
      </trkpt>
      <trkpt lat="49.81721" lon="2.52084">
        <ele>57.7</ele>
        <time>2022-12-07T14:49:37Z</time>
      </trkpt>
      <trkpt lat="49.81721" lon="2.52081">
        <ele>57.7</ele>
        <time>2022-12-07T14:49:38Z</time>
      </trkpt>
      <trkpt lat="49.81721" lon="2.52079">
        <ele>57.6</ele>
        <time>2022-12-07T14:49:39Z</time>
      </trkpt>
      <trkpt lat="49.81721" lon="2.52076">
        <ele>57.6</ele>
        <time>2022-12-07T14:49:40Z</time>
      </trkpt>
      <trkpt lat="49.81721" lon="2.52075">
        <ele>57.6</ele>
        <time>2022-12-07T14:49:41Z</time>
      </trkpt>
      <trkpt lat="49.81721" lon="2.52073">
        <ele>57.6</ele>
        <time>2022-12-07T14:49:42Z</time>
      </trkpt>
      <trkpt lat="49.81721" lon="2.5207">
        <ele>57.5</ele>
        <time>2022-12-07T14:49:43Z</time>
      </trkpt>
      <trkpt lat="49.81721" lon="2.52069">
        <ele>57.5</ele>
        <time>2022-12-07T14:49:44Z</time>
      </trkpt>
      <trkpt lat="49.81721" lon="2.52068">
        <ele>57.5</ele>
        <time>2022-12-07T14:49:45Z</time>
      </trkpt>
      <trkpt lat="49.81721" lon="2.52065">
        <ele>57.5</ele>
        <time>2022-12-07T14:49:46Z</time>
      </trkpt>
      <trkpt lat="49.8172" lon="2.52063">
        <ele>57.5</ele>
        <time>2022-12-07T14:49:47Z</time>
      </trkpt>
      <trkpt lat="49.8172" lon="2.5206">
        <ele>57.4</ele>
        <time>2022-12-07T14:49:48Z</time>
      </trkpt>
      <trkpt lat="49.8172" lon="2.52059">
        <ele>57.4</ele>
        <time>2022-12-07T14:49:49Z</time>
      </trkpt>
      <trkpt lat="49.81719" lon="2.52057">
        <ele>57.4</ele>
        <time>2022-12-07T14:49:50Z</time>
      </trkpt>
      <trkpt lat="49.81719" lon="2.52054">
        <ele>57.4</ele>
        <time>2022-12-07T14:49:51Z</time>
      </trkpt>
      <trkpt lat="49.81719" lon="2.52053">
        <ele>57.4</ele>
        <time>2022-12-07T14:49:52Z</time>
      </trkpt>
      <trkpt lat="49.81719" lon="2.52052">
        <ele>57.4</ele>
        <time>2022-12-07T14:49:53Z</time>
      </trkpt>
      <trkpt lat="49.81719" lon="2.5205">
        <ele>57.3</ele>
        <time>2022-12-07T14:49:54Z</time>
      </trkpt>
      <trkpt lat="49.81718" lon="2.52048">
        <ele>57.3</ele>
        <time>2022-12-07T14:49:55Z</time>
      </trkpt>
      <trkpt lat="49.81718" lon="2.52047">
        <ele>57.3</ele>
        <time>2022-12-07T14:49:56Z</time>
      </trkpt>
      <trkpt lat="49.81718" lon="2.52045">
        <ele>57.3</ele>
        <time>2022-12-07T14:49:57Z</time>
      </trkpt>
      <trkpt lat="49.81718" lon="2.52043">
        <ele>57.3</ele>
        <time>2022-12-07T14:49:58Z</time>
      </trkpt>
      <trkpt lat="49.81717" lon="2.52041">
        <ele>57.2</ele>
        <time>2022-12-07T14:49:59Z</time>
      </trkpt>
      <trkpt lat="49.81717" lon="2.52038">
        <ele>57.2</ele>
        <time>2022-12-07T14:50:00Z</time>
      </trkpt>
      <trkpt lat="49.81717" lon="2.52037">
        <ele>57.2</ele>
        <time>2022-12-07T14:50:01Z</time>
      </trkpt>
      <trkpt lat="49.81717" lon="2.52036">
        <ele>57.2</ele>
        <time>2022-12-07T14:50:02Z</time>
      </trkpt>
      <trkpt lat="49.81716" lon="2.52034">
        <ele>57.2</ele>
        <time>2022-12-07T14:50:03Z</time>
      </trkpt>
      <trkpt lat="49.81716" lon="2.52032">
        <ele>57.2</ele>
        <time>2022-12-07T14:50:04Z</time>
      </trkpt>
      <trkpt lat="49.81716" lon="2.52031">
        <ele>57.2</ele>
        <time>2022-12-07T14:50:05Z</time>
      </trkpt>
      <trkpt lat="49.81716" lon="2.52029">
        <ele>57.1</ele>
        <time>2022-12-07T14:50:06Z</time>
      </trkpt>
      <trkpt lat="49.81716" lon="2.52027">
        <ele>57.1</ele>
        <time>2022-12-07T14:50:07Z</time>
      </trkpt>
      <trkpt lat="49.81716" lon="2.52025">
        <ele>57.1</ele>
        <time>2022-12-07T14:50:08Z</time>
      </trkpt>
      <trkpt lat="49.81716" lon="2.52024">
        <ele>57.1</ele>
        <time>2022-12-07T14:50:09Z</time>
      </trkpt>
      <trkpt lat="49.81715" lon="2.52022">
        <ele>57.1</ele>
        <time>2022-12-07T14:50:10Z</time>
      </trkpt>
      <trkpt lat="49.81715" lon="2.5202">
        <ele>57.1</ele>
        <time>2022-12-07T14:50:11Z</time>
      </trkpt>
      <trkpt lat="49.81715" lon="2.52017">
        <ele>57.1</ele>
        <time>2022-12-07T14:50:12Z</time>
      </trkpt>
      <trkpt lat="49.81715" lon="2.52016">
        <ele>57.1</ele>
        <time>2022-12-07T14:50:13Z</time>
      </trkpt>
      <trkpt lat="49.81715" lon="2.52014">
        <ele>57.1</ele>
        <time>2022-12-07T14:50:14Z</time>
      </trkpt>
      <trkpt lat="49.81715" lon="2.52013">
        <ele>57.1</ele>
        <time>2022-12-07T14:50:15Z</time>
      </trkpt>
      <trkpt lat="49.81715" lon="2.52011">
        <ele>57.1</ele>
        <time>2022-12-07T14:50:16Z</time>
      </trkpt>
      <trkpt lat="49.81715" lon="2.52009">
        <ele>57.1</ele>
        <time>2022-12-07T14:50:17Z</time>
      </trkpt>
      <trkpt lat="49.81715" lon="2.52007">
        <ele>57.1</ele>
        <time>2022-12-07T14:50:18Z</time>
      </trkpt>
      <trkpt lat="49.81714" lon="2.52005">
        <ele>57.1</ele>
        <time>2022-12-07T14:50:19Z</time>
      </trkpt>
      <trkpt lat="49.81714" lon="2.52001">
        <ele>57.1</ele>
        <time>2022-12-07T14:50:20Z</time>
      </trkpt>
      <trkpt lat="49.81714" lon="2.52">
        <ele>57.1</ele>
        <time>2022-12-07T14:50:21Z</time>
      </trkpt>
      <trkpt lat="49.81714" lon="2.51998">
        <ele>57.1</ele>
        <time>2022-12-07T14:50:22Z</time>
      </trkpt>
      <trkpt lat="49.81714" lon="2.51996">
        <ele>57.1</ele>
        <time>2022-12-07T14:50:23Z</time>
      </trkpt>
      <trkpt lat="49.81714" lon="2.51994">
        <ele>57</ele>
        <time>2022-12-07T14:50:24Z</time>
      </trkpt>
      <trkpt lat="49.81713" lon="2.51991">
        <ele>57</ele>
        <time>2022-12-07T14:50:25Z</time>
      </trkpt>
      <trkpt lat="49.81713" lon="2.5199">
        <ele>57</ele>
        <time>2022-12-07T14:50:26Z</time>
      </trkpt>
      <trkpt lat="49.81713" lon="2.51988">
        <ele>57</ele>
        <time>2022-12-07T14:50:27Z</time>
      </trkpt>
      <trkpt lat="49.81712" lon="2.51985">
        <ele>57</ele>
        <time>2022-12-07T14:50:28Z</time>
      </trkpt>
      <trkpt lat="49.81712" lon="2.51984">
        <ele>57</ele>
        <time>2022-12-07T14:50:29Z</time>
      </trkpt>
      <trkpt lat="49.81712" lon="2.51983">
        <ele>57</ele>
        <time>2022-12-07T14:50:30Z</time>
      </trkpt>
      <trkpt lat="49.81711" lon="2.51981">
        <ele>57</ele>
        <time>2022-12-07T14:50:31Z</time>
      </trkpt>
      <trkpt lat="49.81711" lon="2.51979">
        <ele>57</ele>
        <time>2022-12-07T14:50:32Z</time>
      </trkpt>
      <trkpt lat="49.81711" lon="2.51977">
        <ele>57</ele>
        <time>2022-12-07T14:50:33Z</time>
      </trkpt>
      <trkpt lat="49.8171" lon="2.51975">
        <ele>57</ele>
        <time>2022-12-07T14:50:34Z</time>
      </trkpt>
      <trkpt lat="49.8171" lon="2.51973">
        <ele>57</ele>
        <time>2022-12-07T14:50:35Z</time>
      </trkpt>
      <trkpt lat="49.8171" lon="2.51972">
        <ele>57</ele>
        <time>2022-12-07T14:50:36Z</time>
      </trkpt>
      <trkpt lat="49.8171" lon="2.5197">
        <ele>57</ele>
        <time>2022-12-07T14:50:37Z</time>
      </trkpt>
      <trkpt lat="49.8171" lon="2.51968">
        <ele>57</ele>
        <time>2022-12-07T14:50:38Z</time>
      </trkpt>
      <trkpt lat="49.8171" lon="2.51967">
        <ele>56.9</ele>
        <time>2022-12-07T14:50:39Z</time>
      </trkpt>
      <trkpt lat="49.8171" lon="2.51965">
        <ele>56.9</ele>
        <time>2022-12-07T14:50:40Z</time>
      </trkpt>
      <trkpt lat="49.81709" lon="2.51963">
        <ele>56.9</ele>
        <time>2022-12-07T14:50:41Z</time>
      </trkpt>
      <trkpt lat="49.81709" lon="2.51961">
        <ele>56.9</ele>
        <time>2022-12-07T14:50:42Z</time>
      </trkpt>
      <trkpt lat="49.81709" lon="2.5196">
        <ele>56.9</ele>
        <time>2022-12-07T14:50:43Z</time>
      </trkpt>
      <trkpt lat="49.81709" lon="2.51958">
        <ele>56.9</ele>
        <time>2022-12-07T14:50:44Z</time>
      </trkpt>
      <trkpt lat="49.81709" lon="2.51956">
        <ele>56.9</ele>
        <time>2022-12-07T14:50:45Z</time>
      </trkpt>
      <trkpt lat="49.81709" lon="2.51953">
        <ele>56.9</ele>
        <time>2022-12-07T14:50:46Z</time>
      </trkpt>
      <trkpt lat="49.81708" lon="2.5195">
        <ele>56.9</ele>
        <time>2022-12-07T14:50:47Z</time>
      </trkpt>
      <trkpt lat="49.81708" lon="2.51949">
        <ele>56.9</ele>
        <time>2022-12-07T14:50:48Z</time>
      </trkpt>
      <trkpt lat="49.81707" lon="2.51947">
        <ele>56.8</ele>
        <time>2022-12-07T14:50:49Z</time>
      </trkpt>
      <trkpt lat="49.81707" lon="2.51946">
        <ele>56.8</ele>
        <time>2022-12-07T14:50:50Z</time>
      </trkpt>
      <trkpt lat="49.81707" lon="2.51944">
        <ele>56.8</ele>
        <time>2022-12-07T14:50:51Z</time>
      </trkpt>
      <trkpt lat="49.81706" lon="2.51942">
        <ele>56.8</ele>
        <time>2022-12-07T14:50:52Z</time>
      </trkpt>
      <trkpt lat="49.81706" lon="2.51939">
        <ele>56.8</ele>
        <time>2022-12-07T14:50:53Z</time>
      </trkpt>
      <trkpt lat="49.81706" lon="2.51938">
        <ele>56.8</ele>
        <time>2022-12-07T14:50:54Z</time>
      </trkpt>
      <trkpt lat="49.81706" lon="2.51937">
        <ele>56.8</ele>
        <time>2022-12-07T14:50:55Z</time>
      </trkpt>
      <trkpt lat="49.81705" lon="2.51935">
        <ele>56.8</ele>
        <time>2022-12-07T14:50:56Z</time>
      </trkpt>
      <trkpt lat="49.81705" lon="2.51933">
        <ele>56.8</ele>
        <time>2022-12-07T14:50:57Z</time>
      </trkpt>
      <trkpt lat="49.81705" lon="2.51931">
        <ele>56.8</ele>
        <time>2022-12-07T14:50:58Z</time>
      </trkpt>
      <trkpt lat="49.81705" lon="2.5193">
        <ele>56.8</ele>
        <time>2022-12-07T14:50:59Z</time>
      </trkpt>
      <trkpt lat="49.81705" lon="2.51928">
        <ele>56.7</ele>
        <time>2022-12-07T14:51:00Z</time>
      </trkpt>
      <trkpt lat="49.81704" lon="2.51927">
        <ele>56.7</ele>
        <time>2022-12-07T14:51:01Z</time>
      </trkpt>
      <trkpt lat="49.81704" lon="2.51924">
        <ele>56.7</ele>
        <time>2022-12-07T14:51:02Z</time>
      </trkpt>
      <trkpt lat="49.81704" lon="2.51922">
        <ele>56.7</ele>
        <time>2022-12-07T14:51:03Z</time>
      </trkpt>
      <trkpt lat="49.81704" lon="2.51921">
        <ele>56.7</ele>
        <time>2022-12-07T14:51:04Z</time>
      </trkpt>
      <trkpt lat="49.81703" lon="2.51918">
        <ele>56.7</ele>
        <time>2022-12-07T14:51:05Z</time>
      </trkpt>
      <trkpt lat="49.81703" lon="2.51917">
        <ele>56.7</ele>
        <time>2022-12-07T14:51:06Z</time>
      </trkpt>
      <trkpt lat="49.81703" lon="2.51915">
        <ele>56.7</ele>
        <time>2022-12-07T14:51:07Z</time>
      </trkpt>
      <trkpt lat="49.81702" lon="2.51913">
        <ele>56.7</ele>
        <time>2022-12-07T14:51:08Z</time>
      </trkpt>
      <trkpt lat="49.81702" lon="2.51911">
        <ele>56.7</ele>
        <time>2022-12-07T14:51:09Z</time>
      </trkpt>
      <trkpt lat="49.81701" lon="2.51909">
        <ele>56.6</ele>
        <time>2022-12-07T14:51:10Z</time>
      </trkpt>
      <trkpt lat="49.81701" lon="2.51907">
        <ele>56.6</ele>
        <time>2022-12-07T14:51:11Z</time>
      </trkpt>
      <trkpt lat="49.81701" lon="2.51906">
        <ele>56.6</ele>
        <time>2022-12-07T14:51:12Z</time>
      </trkpt>
      <trkpt lat="49.817" lon="2.51904">
        <ele>56.6</ele>
        <time>2022-12-07T14:51:13Z</time>
      </trkpt>
      <trkpt lat="49.817" lon="2.51902">
        <ele>56.6</ele>
        <time>2022-12-07T14:51:14Z</time>
      </trkpt>
      <trkpt lat="49.817" lon="2.519">
        <ele>56.6</ele>
        <time>2022-12-07T14:51:15Z</time>
      </trkpt>
      <trkpt lat="49.817" lon="2.51897">
        <ele>56.6</ele>
        <time>2022-12-07T14:51:16Z</time>
      </trkpt>
      <trkpt lat="49.817" lon="2.51896">
        <ele>56.6</ele>
        <time>2022-12-07T14:51:17Z</time>
      </trkpt>
      <trkpt lat="49.817" lon="2.51895">
        <ele>56.6</ele>
        <time>2022-12-07T14:51:18Z</time>
      </trkpt>
      <trkpt lat="49.817" lon="2.51893">
        <ele>56.6</ele>
        <time>2022-12-07T14:51:19Z</time>
      </trkpt>
      <trkpt lat="49.817" lon="2.51891">
        <ele>56.5</ele>
        <time>2022-12-07T14:51:20Z</time>
      </trkpt>
      <trkpt lat="49.81699" lon="2.5189">
        <ele>56.5</ele>
        <time>2022-12-07T14:51:21Z</time>
      </trkpt>
      <trkpt lat="49.81699" lon="2.51888">
        <ele>56.5</ele>
        <time>2022-12-07T14:51:22Z</time>
      </trkpt>
      <trkpt lat="49.81699" lon="2.51887">
        <ele>56.5</ele>
        <time>2022-12-07T14:51:23Z</time>
      </trkpt>
      <trkpt lat="49.81699" lon="2.51885">
        <ele>56.5</ele>
        <time>2022-12-07T14:51:24Z</time>
      </trkpt>
      <trkpt lat="49.81699" lon="2.51883">
        <ele>56.5</ele>
        <time>2022-12-07T14:51:25Z</time>
      </trkpt>
      <trkpt lat="49.81698" lon="2.51881">
        <ele>56.5</ele>
        <time>2022-12-07T14:51:26Z</time>
      </trkpt>
      <trkpt lat="49.81698" lon="2.5188">
        <ele>56.5</ele>
        <time>2022-12-07T14:51:27Z</time>
      </trkpt>
      <trkpt lat="49.81698" lon="2.51877">
        <ele>56.4</ele>
        <time>2022-12-07T14:51:28Z</time>
      </trkpt>
      <trkpt lat="49.81698" lon="2.51876">
        <ele>56.4</ele>
        <time>2022-12-07T14:51:29Z</time>
      </trkpt>
      <trkpt lat="49.81698" lon="2.51874">
        <ele>56.4</ele>
        <time>2022-12-07T14:51:30Z</time>
      </trkpt>
      <trkpt lat="49.81697" lon="2.51871">
        <ele>56.4</ele>
        <time>2022-12-07T14:51:31Z</time>
      </trkpt>
      <trkpt lat="49.81697" lon="2.5187">
        <ele>56.4</ele>
        <time>2022-12-07T14:51:32Z</time>
      </trkpt>
      <trkpt lat="49.81697" lon="2.51868">
        <ele>56.4</ele>
        <time>2022-12-07T14:51:33Z</time>
      </trkpt>
      <trkpt lat="49.81697" lon="2.51865">
        <ele>56.3</ele>
        <time>2022-12-07T14:51:34Z</time>
      </trkpt>
      <trkpt lat="49.81697" lon="2.51864">
        <ele>56.3</ele>
        <time>2022-12-07T14:51:35Z</time>
      </trkpt>
      <trkpt lat="49.81697" lon="2.51862">
        <ele>56.3</ele>
        <time>2022-12-07T14:51:36Z</time>
      </trkpt>
      <trkpt lat="49.81697" lon="2.51861">
        <ele>56.3</ele>
        <time>2022-12-07T14:51:37Z</time>
      </trkpt>
      <trkpt lat="49.81697" lon="2.51859">
        <ele>56.3</ele>
        <time>2022-12-07T14:51:38Z</time>
      </trkpt>
      <trkpt lat="49.81697" lon="2.51857">
        <ele>56.3</ele>
        <time>2022-12-07T14:51:39Z</time>
      </trkpt>
      <trkpt lat="49.81697" lon="2.51855">
        <ele>56.3</ele>
        <time>2022-12-07T14:51:40Z</time>
      </trkpt>
      <trkpt lat="49.81696" lon="2.51853">
        <ele>56.2</ele>
        <time>2022-12-07T14:51:41Z</time>
      </trkpt>
      <trkpt lat="49.81696" lon="2.51851">
        <ele>56.2</ele>
        <time>2022-12-07T14:51:42Z</time>
      </trkpt>
      <trkpt lat="49.81696" lon="2.51849">
        <ele>56.2</ele>
        <time>2022-12-07T14:51:43Z</time>
      </trkpt>
      <trkpt lat="49.81696" lon="2.51847">
        <ele>56.2</ele>
        <time>2022-12-07T14:51:44Z</time>
      </trkpt>
      <trkpt lat="49.81695" lon="2.51846">
        <ele>56.2</ele>
        <time>2022-12-07T14:51:45Z</time>
      </trkpt>
      <trkpt lat="49.81695" lon="2.51845">
        <ele>56.2</ele>
        <time>2022-12-07T14:51:46Z</time>
      </trkpt>
      <trkpt lat="49.81695" lon="2.51843">
        <ele>56.2</ele>
        <time>2022-12-07T14:51:47Z</time>
      </trkpt>
      <trkpt lat="49.81695" lon="2.51841">
        <ele>56.1</ele>
        <time>2022-12-07T14:51:48Z</time>
      </trkpt>
      <trkpt lat="49.81694" lon="2.5184">
        <ele>56.1</ele>
        <time>2022-12-07T14:51:49Z</time>
      </trkpt>
      <trkpt lat="49.81694" lon="2.51838">
        <ele>56.1</ele>
        <time>2022-12-07T14:51:50Z</time>
      </trkpt>
      <trkpt lat="49.81693" lon="2.51835">
        <ele>56.1</ele>
        <time>2022-12-07T14:51:51Z</time>
      </trkpt>
      <trkpt lat="49.81693" lon="2.51834">
        <ele>56.1</ele>
        <time>2022-12-07T14:51:52Z</time>
      </trkpt>
      <trkpt lat="49.81693" lon="2.51833">
        <ele>56.1</ele>
        <time>2022-12-07T14:51:53Z</time>
      </trkpt>
      <trkpt lat="49.81693" lon="2.51831">
        <ele>56.1</ele>
        <time>2022-12-07T14:51:54Z</time>
      </trkpt>
      <trkpt lat="49.81693" lon="2.51829">
        <ele>56.1</ele>
        <time>2022-12-07T14:51:55Z</time>
      </trkpt>
      <trkpt lat="49.81692" lon="2.51827">
        <ele>56</ele>
        <time>2022-12-07T14:51:56Z</time>
      </trkpt>
      <trkpt lat="49.81692" lon="2.51824">
        <ele>56</ele>
        <time>2022-12-07T14:51:57Z</time>
      </trkpt>
      <trkpt lat="49.81692" lon="2.51823">
        <ele>56</ele>
        <time>2022-12-07T14:51:58Z</time>
      </trkpt>
      <trkpt lat="49.81692" lon="2.51822">
        <ele>56</ele>
        <time>2022-12-07T14:51:59Z</time>
      </trkpt>
      <trkpt lat="49.81691" lon="2.5182">
        <ele>56</ele>
        <time>2022-12-07T14:52:00Z</time>
      </trkpt>
      <trkpt lat="49.81691" lon="2.51818">
        <ele>56</ele>
        <time>2022-12-07T14:52:01Z</time>
      </trkpt>
      <trkpt lat="49.81691" lon="2.51816">
        <ele>56</ele>
        <time>2022-12-07T14:52:02Z</time>
      </trkpt>
      <trkpt lat="49.8169" lon="2.51813">
        <ele>56</ele>
        <time>2022-12-07T14:52:03Z</time>
      </trkpt>
      <trkpt lat="49.8169" lon="2.51812">
        <ele>55.9</ele>
        <time>2022-12-07T14:52:04Z</time>
      </trkpt>
      <trkpt lat="49.8169" lon="2.5181">
        <ele>55.9</ele>
        <time>2022-12-07T14:52:05Z</time>
      </trkpt>
      <trkpt lat="49.8169" lon="2.51808">
        <ele>55.9</ele>
        <time>2022-12-07T14:52:06Z</time>
      </trkpt>
      <trkpt lat="49.8169" lon="2.51806">
        <ele>55.9</ele>
        <time>2022-12-07T14:52:07Z</time>
      </trkpt>
      <trkpt lat="49.8169" lon="2.51803">
        <ele>55.9</ele>
        <time>2022-12-07T14:52:08Z</time>
      </trkpt>
      <trkpt lat="49.8169" lon="2.51802">
        <ele>55.9</ele>
        <time>2022-12-07T14:52:09Z</time>
      </trkpt>
      <trkpt lat="49.8169" lon="2.518">
        <ele>55.9</ele>
        <time>2022-12-07T14:52:10Z</time>
      </trkpt>
      <trkpt lat="49.81689" lon="2.51799">
        <ele>55.9</ele>
        <time>2022-12-07T14:52:11Z</time>
      </trkpt>
      <trkpt lat="49.81689" lon="2.51797">
        <ele>55.8</ele>
        <time>2022-12-07T14:52:12Z</time>
      </trkpt>
      <trkpt lat="49.81689" lon="2.51795">
        <ele>55.8</ele>
        <time>2022-12-07T14:52:13Z</time>
      </trkpt>
      <trkpt lat="49.81689" lon="2.51793">
        <ele>55.8</ele>
        <time>2022-12-07T14:52:14Z</time>
      </trkpt>
      <trkpt lat="49.81689" lon="2.51792">
        <ele>55.8</ele>
        <time>2022-12-07T14:52:15Z</time>
      </trkpt>
      <trkpt lat="49.81689" lon="2.5179">
        <ele>55.8</ele>
        <time>2022-12-07T14:52:16Z</time>
      </trkpt>
      <trkpt lat="49.81689" lon="2.51786">
        <ele>55.8</ele>
        <time>2022-12-07T14:52:17Z</time>
      </trkpt>
      <trkpt lat="49.81688" lon="2.51785">
        <ele>55.8</ele>
        <time>2022-12-07T14:52:18Z</time>
      </trkpt>
      <trkpt lat="49.81688" lon="2.51784">
        <ele>55.8</ele>
        <time>2022-12-07T14:52:19Z</time>
      </trkpt>
      <trkpt lat="49.81688" lon="2.51782">
        <ele>55.7</ele>
        <time>2022-12-07T14:52:20Z</time>
      </trkpt>
      <trkpt lat="49.81688" lon="2.51779">
        <ele>55.7</ele>
        <time>2022-12-07T14:52:21Z</time>
      </trkpt>
      <trkpt lat="49.81687" lon="2.51776">
        <ele>55.7</ele>
        <time>2022-12-07T14:52:22Z</time>
      </trkpt>
      <trkpt lat="49.81687" lon="2.51775">
        <ele>55.7</ele>
        <time>2022-12-07T14:52:23Z</time>
      </trkpt>
      <trkpt lat="49.81687" lon="2.51774">
        <ele>55.7</ele>
        <time>2022-12-07T14:52:24Z</time>
      </trkpt>
      <trkpt lat="49.81686" lon="2.5177">
        <ele>55.6</ele>
        <time>2022-12-07T14:52:25Z</time>
      </trkpt>
      <trkpt lat="49.81686" lon="2.51769">
        <ele>55.6</ele>
        <time>2022-12-07T14:52:26Z</time>
      </trkpt>
      <trkpt lat="49.81686" lon="2.51768">
        <ele>55.6</ele>
        <time>2022-12-07T14:52:27Z</time>
      </trkpt>
      <trkpt lat="49.81685" lon="2.51765">
        <ele>55.6</ele>
        <time>2022-12-07T14:52:28Z</time>
      </trkpt>
      <trkpt lat="49.81685" lon="2.51764">
        <ele>55.6</ele>
        <time>2022-12-07T14:52:29Z</time>
      </trkpt>
      <trkpt lat="49.81684" lon="2.51762">
        <ele>55.6</ele>
        <time>2022-12-07T14:52:30Z</time>
      </trkpt>
      <trkpt lat="49.81684" lon="2.51761">
        <ele>55.6</ele>
        <time>2022-12-07T14:52:31Z</time>
      </trkpt>
      <trkpt lat="49.81684" lon="2.51759">
        <ele>55.5</ele>
        <time>2022-12-07T14:52:32Z</time>
      </trkpt>
      <trkpt lat="49.81684" lon="2.51757">
        <ele>55.5</ele>
        <time>2022-12-07T14:52:33Z</time>
      </trkpt>
      <trkpt lat="49.81683" lon="2.51755">
        <ele>55.5</ele>
        <time>2022-12-07T14:52:34Z</time>
      </trkpt>
      <trkpt lat="49.81683" lon="2.51754">
        <ele>55.5</ele>
        <time>2022-12-07T14:52:35Z</time>
      </trkpt>
      <trkpt lat="49.81683" lon="2.51752">
        <ele>55.5</ele>
        <time>2022-12-07T14:52:36Z</time>
      </trkpt>
      <trkpt lat="49.81683" lon="2.51751">
        <ele>55.5</ele>
        <time>2022-12-07T14:52:37Z</time>
      </trkpt>
      <trkpt lat="49.81683" lon="2.51749">
        <ele>55.4</ele>
        <time>2022-12-07T14:52:38Z</time>
      </trkpt>
      <trkpt lat="49.81683" lon="2.51747">
        <ele>55.4</ele>
        <time>2022-12-07T14:52:39Z</time>
      </trkpt>
      <trkpt lat="49.81683" lon="2.51744">
        <ele>55.4</ele>
        <time>2022-12-07T14:52:40Z</time>
      </trkpt>
      <trkpt lat="49.81682" lon="2.51742">
        <ele>55.4</ele>
        <time>2022-12-07T14:52:41Z</time>
      </trkpt>
      <trkpt lat="49.81682" lon="2.51741">
        <ele>55.4</ele>
        <time>2022-12-07T14:52:42Z</time>
      </trkpt>
      <trkpt lat="49.81682" lon="2.5174">
        <ele>55.4</ele>
        <time>2022-12-07T14:52:43Z</time>
      </trkpt>
      <trkpt lat="49.81681" lon="2.51738">
        <ele>55.3</ele>
        <time>2022-12-07T14:52:44Z</time>
      </trkpt>
      <trkpt lat="49.81681" lon="2.51736">
        <ele>55.3</ele>
        <time>2022-12-07T14:52:45Z</time>
      </trkpt>
      <trkpt lat="49.81681" lon="2.51734">
        <ele>55.3</ele>
        <time>2022-12-07T14:52:46Z</time>
      </trkpt>
      <trkpt lat="49.81681" lon="2.51733">
        <ele>55.3</ele>
        <time>2022-12-07T14:52:47Z</time>
      </trkpt>
      <trkpt lat="49.8168" lon="2.51731">
        <ele>55.3</ele>
        <time>2022-12-07T14:52:48Z</time>
      </trkpt>
      <trkpt lat="49.8168" lon="2.51729">
        <ele>55.3</ele>
        <time>2022-12-07T14:52:49Z</time>
      </trkpt>
      <trkpt lat="49.81679" lon="2.51727">
        <ele>55.2</ele>
        <time>2022-12-07T14:52:50Z</time>
      </trkpt>
      <trkpt lat="49.81679" lon="2.51726">
        <ele>55.2</ele>
        <time>2022-12-07T14:52:51Z</time>
      </trkpt>
      <trkpt lat="49.81679" lon="2.51723">
        <ele>55.2</ele>
        <time>2022-12-07T14:52:52Z</time>
      </trkpt>
      <trkpt lat="49.81679" lon="2.51721">
        <ele>55.2</ele>
        <time>2022-12-07T14:52:53Z</time>
      </trkpt>
      <trkpt lat="49.81679" lon="2.5172">
        <ele>55.2</ele>
        <time>2022-12-07T14:52:54Z</time>
      </trkpt>
      <trkpt lat="49.81679" lon="2.51718">
        <ele>55.2</ele>
        <time>2022-12-07T14:52:55Z</time>
      </trkpt>
      <trkpt lat="49.81679" lon="2.51716">
        <ele>55.1</ele>
        <time>2022-12-07T14:52:56Z</time>
      </trkpt>
      <trkpt lat="49.81679" lon="2.51715">
        <ele>55.1</ele>
        <time>2022-12-07T14:52:57Z</time>
      </trkpt>
      <trkpt lat="49.81679" lon="2.51713">
        <ele>55.1</ele>
        <time>2022-12-07T14:52:58Z</time>
      </trkpt>
      <trkpt lat="49.81679" lon="2.51712">
        <ele>55.1</ele>
        <time>2022-12-07T14:52:59Z</time>
      </trkpt>
      <trkpt lat="49.81679" lon="2.5171">
        <ele>55.1</ele>
        <time>2022-12-07T14:53:00Z</time>
      </trkpt>
      <trkpt lat="49.81679" lon="2.51708">
        <ele>55.1</ele>
        <time>2022-12-07T14:53:01Z</time>
      </trkpt>
      <trkpt lat="49.81678" lon="2.51706">
        <ele>55.1</ele>
        <time>2022-12-07T14:53:02Z</time>
      </trkpt>
      <trkpt lat="49.81678" lon="2.51704">
        <ele>55.1</ele>
        <time>2022-12-07T14:53:03Z</time>
      </trkpt>
      <trkpt lat="49.81678" lon="2.51701">
        <ele>55</ele>
        <time>2022-12-07T14:53:04Z</time>
      </trkpt>
      <trkpt lat="49.81678" lon="2.517">
        <ele>55</ele>
        <time>2022-12-07T14:53:05Z</time>
      </trkpt>
      <trkpt lat="49.81677" lon="2.51699">
        <ele>55</ele>
        <time>2022-12-07T14:53:06Z</time>
      </trkpt>
      <trkpt lat="49.81677" lon="2.51697">
        <ele>55</ele>
        <time>2022-12-07T14:53:07Z</time>
      </trkpt>
      <trkpt lat="49.81677" lon="2.51695">
        <ele>55</ele>
        <time>2022-12-07T14:53:08Z</time>
      </trkpt>
      <trkpt lat="49.81677" lon="2.51694">
        <ele>55</ele>
        <time>2022-12-07T14:53:09Z</time>
      </trkpt>
      <trkpt lat="49.81676" lon="2.5169">
        <ele>55</ele>
        <time>2022-12-07T14:53:10Z</time>
      </trkpt>
      <trkpt lat="49.81676" lon="2.51689">
        <ele>55</ele>
        <time>2022-12-07T14:53:11Z</time>
      </trkpt>
      <trkpt lat="49.81676" lon="2.51688">
        <ele>55</ele>
        <time>2022-12-07T14:53:12Z</time>
      </trkpt>
      <trkpt lat="49.81675" lon="2.51686">
        <ele>55</ele>
        <time>2022-12-07T14:53:13Z</time>
      </trkpt>
      <trkpt lat="49.81675" lon="2.51684">
        <ele>55</ele>
        <time>2022-12-07T14:53:14Z</time>
      </trkpt>
      <trkpt lat="49.81675" lon="2.51682">
        <ele>55</ele>
        <time>2022-12-07T14:53:15Z</time>
      </trkpt>
      <trkpt lat="49.81675" lon="2.51681">
        <ele>55</ele>
        <time>2022-12-07T14:53:16Z</time>
      </trkpt>
      <trkpt lat="49.81675" lon="2.51679">
        <ele>55</ele>
        <time>2022-12-07T14:53:17Z</time>
      </trkpt>
      <trkpt lat="49.81674" lon="2.51678">
        <ele>55</ele>
        <time>2022-12-07T14:53:18Z</time>
      </trkpt>
      <trkpt lat="49.81674" lon="2.51676">
        <ele>55</ele>
        <time>2022-12-07T14:53:19Z</time>
      </trkpt>
      <trkpt lat="49.81673" lon="2.51674">
        <ele>55</ele>
        <time>2022-12-07T14:53:20Z</time>
      </trkpt>
      <trkpt lat="49.81673" lon="2.51673">
        <ele>55</ele>
        <time>2022-12-07T14:53:21Z</time>
      </trkpt>
      <trkpt lat="49.81672" lon="2.51672">
        <ele>55</ele>
        <time>2022-12-07T14:53:22Z</time>
      </trkpt>
      <trkpt lat="49.81671" lon="2.5167">
        <ele>55</ele>
        <time>2022-12-07T14:53:23Z</time>
      </trkpt>
      <trkpt lat="49.81671" lon="2.51669">
        <ele>55</ele>
        <time>2022-12-07T14:53:24Z</time>
      </trkpt>
      <trkpt lat="49.8167" lon="2.51667">
        <ele>55</ele>
        <time>2022-12-07T14:53:25Z</time>
      </trkpt>
      <trkpt lat="49.8167" lon="2.51666">
        <ele>55</ele>
        <time>2022-12-07T14:53:26Z</time>
      </trkpt>
      <trkpt lat="49.8167" lon="2.51664">
        <ele>55</ele>
        <time>2022-12-07T14:53:27Z</time>
      </trkpt>
      <trkpt lat="49.8167" lon="2.51663">
        <ele>55</ele>
        <time>2022-12-07T14:53:28Z</time>
      </trkpt>
      <trkpt lat="49.81669" lon="2.51661">
        <ele>55</ele>
        <time>2022-12-07T14:53:29Z</time>
      </trkpt>
      <trkpt lat="49.81669" lon="2.51659">
        <ele>55</ele>
        <time>2022-12-07T14:53:30Z</time>
      </trkpt>
      <trkpt lat="49.81669" lon="2.51658">
        <ele>55</ele>
        <time>2022-12-07T14:53:31Z</time>
      </trkpt>
      <trkpt lat="49.81669" lon="2.51656">
        <ele>55</ele>
        <time>2022-12-07T14:53:32Z</time>
      </trkpt>
      <trkpt lat="49.81668" lon="2.51655">
        <ele>55</ele>
        <time>2022-12-07T14:53:33Z</time>
      </trkpt>
      <trkpt lat="49.81668" lon="2.51653">
        <ele>55</ele>
        <time>2022-12-07T14:53:34Z</time>
      </trkpt>
      <trkpt lat="49.81668" lon="2.51651">
        <ele>55</ele>
        <time>2022-12-07T14:53:35Z</time>
      </trkpt>
      <trkpt lat="49.81668" lon="2.5165">
        <ele>55</ele>
        <time>2022-12-07T14:53:36Z</time>
      </trkpt>
      <trkpt lat="49.81667" lon="2.51648">
        <ele>55</ele>
        <time>2022-12-07T14:53:37Z</time>
      </trkpt>
      <trkpt lat="49.81667" lon="2.51646">
        <ele>55</ele>
        <time>2022-12-07T14:53:38Z</time>
      </trkpt>
      <trkpt lat="49.81667" lon="2.51645">
        <ele>55</ele>
        <time>2022-12-07T14:53:39Z</time>
      </trkpt>
      <trkpt lat="49.81667" lon="2.51643">
        <ele>55</ele>
        <time>2022-12-07T14:53:40Z</time>
      </trkpt>
      <trkpt lat="49.81666" lon="2.51641">
        <ele>55.1</ele>
        <time>2022-12-07T14:53:41Z</time>
      </trkpt>
      <trkpt lat="49.81666" lon="2.51639">
        <ele>55.1</ele>
        <time>2022-12-07T14:53:42Z</time>
      </trkpt>
      <trkpt lat="49.81666" lon="2.51636">
        <ele>55.1</ele>
        <time>2022-12-07T14:53:43Z</time>
      </trkpt>
      <trkpt lat="49.81666" lon="2.51635">
        <ele>55.1</ele>
        <time>2022-12-07T14:53:44Z</time>
      </trkpt>
      <trkpt lat="49.81666" lon="2.51634">
        <ele>55.1</ele>
        <time>2022-12-07T14:53:45Z</time>
      </trkpt>
      <trkpt lat="49.81665" lon="2.51632">
        <ele>55.1</ele>
        <time>2022-12-07T14:53:46Z</time>
      </trkpt>
      <trkpt lat="49.81665" lon="2.51631">
        <ele>55.1</ele>
        <time>2022-12-07T14:53:47Z</time>
      </trkpt>
      <trkpt lat="49.81665" lon="2.51629">
        <ele>55.1</ele>
        <time>2022-12-07T14:53:48Z</time>
      </trkpt>
      <trkpt lat="49.81665" lon="2.51628">
        <ele>55.1</ele>
        <time>2022-12-07T14:53:49Z</time>
      </trkpt>
      <trkpt lat="49.81665" lon="2.51626">
        <ele>55.1</ele>
        <time>2022-12-07T14:53:50Z</time>
      </trkpt>
      <trkpt lat="49.81664" lon="2.51624">
        <ele>55.1</ele>
        <time>2022-12-07T14:53:51Z</time>
      </trkpt>
      <trkpt lat="49.81664" lon="2.51622">
        <ele>55.1</ele>
        <time>2022-12-07T14:53:52Z</time>
      </trkpt>
      <trkpt lat="49.81664" lon="2.51621">
        <ele>55.1</ele>
        <time>2022-12-07T14:53:53Z</time>
      </trkpt>
      <trkpt lat="49.81664" lon="2.51619">
        <ele>55.1</ele>
        <time>2022-12-07T14:53:54Z</time>
      </trkpt>
      <trkpt lat="49.81664" lon="2.51615">
        <ele>55.1</ele>
        <time>2022-12-07T14:53:55Z</time>
      </trkpt>
      <trkpt lat="49.81663" lon="2.51614">
        <ele>55.1</ele>
        <time>2022-12-07T14:53:56Z</time>
      </trkpt>
      <trkpt lat="49.81663" lon="2.51613">
        <ele>55.1</ele>
        <time>2022-12-07T14:53:57Z</time>
      </trkpt>
      <trkpt lat="49.81663" lon="2.51611">
        <ele>55.1</ele>
        <time>2022-12-07T14:53:58Z</time>
      </trkpt>
      <trkpt lat="49.81663" lon="2.5161">
        <ele>55.1</ele>
        <time>2022-12-07T14:53:59Z</time>
      </trkpt>
      <trkpt lat="49.81663" lon="2.51608">
        <ele>55.1</ele>
        <time>2022-12-07T14:54:00Z</time>
      </trkpt>
      <trkpt lat="49.81662" lon="2.51607">
        <ele>55.1</ele>
        <time>2022-12-07T14:54:01Z</time>
      </trkpt>
      <trkpt lat="49.81662" lon="2.51605">
        <ele>55.1</ele>
        <time>2022-12-07T14:54:02Z</time>
      </trkpt>
      <trkpt lat="49.81662" lon="2.51603">
        <ele>55.2</ele>
        <time>2022-12-07T14:54:03Z</time>
      </trkpt>
      <trkpt lat="49.81661" lon="2.51602">
        <ele>55.2</ele>
        <time>2022-12-07T14:54:04Z</time>
      </trkpt>
      <trkpt lat="49.81661" lon="2.516">
        <ele>55.2</ele>
        <time>2022-12-07T14:54:05Z</time>
      </trkpt>
      <trkpt lat="49.81661" lon="2.51599">
        <ele>55.2</ele>
        <time>2022-12-07T14:54:06Z</time>
      </trkpt>
      <trkpt lat="49.8166" lon="2.51597">
        <ele>55.2</ele>
        <time>2022-12-07T14:54:07Z</time>
      </trkpt>
      <trkpt lat="49.8166" lon="2.51595">
        <ele>55.2</ele>
        <time>2022-12-07T14:54:08Z</time>
      </trkpt>
      <trkpt lat="49.8166" lon="2.51593">
        <ele>55.2</ele>
        <time>2022-12-07T14:54:09Z</time>
      </trkpt>
      <trkpt lat="49.8166" lon="2.51591">
        <ele>55.2</ele>
        <time>2022-12-07T14:54:10Z</time>
      </trkpt>
      <trkpt lat="49.81659" lon="2.5159">
        <ele>55.2</ele>
        <time>2022-12-07T14:54:11Z</time>
      </trkpt>
      <trkpt lat="49.81659" lon="2.51589">
        <ele>55.2</ele>
        <time>2022-12-07T14:54:12Z</time>
      </trkpt>
      <trkpt lat="49.81659" lon="2.51587">
        <ele>55.2</ele>
        <time>2022-12-07T14:54:13Z</time>
      </trkpt>
      <trkpt lat="49.81659" lon="2.51586">
        <ele>55.2</ele>
        <time>2022-12-07T14:54:14Z</time>
      </trkpt>
      <trkpt lat="49.81659" lon="2.51584">
        <ele>55.2</ele>
        <time>2022-12-07T14:54:15Z</time>
      </trkpt>
      <trkpt lat="49.81659" lon="2.51583">
        <ele>55.2</ele>
        <time>2022-12-07T14:54:16Z</time>
      </trkpt>
      <trkpt lat="49.81658" lon="2.51581">
        <ele>55.2</ele>
        <time>2022-12-07T14:54:17Z</time>
      </trkpt>
      <trkpt lat="49.81658" lon="2.51579">
        <ele>55.2</ele>
        <time>2022-12-07T14:54:18Z</time>
      </trkpt>
      <trkpt lat="49.81658" lon="2.51577">
        <ele>55.2</ele>
        <time>2022-12-07T14:54:19Z</time>
      </trkpt>
      <trkpt lat="49.81657" lon="2.51576">
        <ele>55.2</ele>
        <time>2022-12-07T14:54:20Z</time>
      </trkpt>
      <trkpt lat="49.81657" lon="2.51575">
        <ele>55.2</ele>
        <time>2022-12-07T14:54:21Z</time>
      </trkpt>
      <trkpt lat="49.81657" lon="2.51573">
        <ele>55.3</ele>
        <time>2022-12-07T14:54:22Z</time>
      </trkpt>
      <trkpt lat="49.81657" lon="2.5157">
        <ele>55.3</ele>
        <time>2022-12-07T14:54:23Z</time>
      </trkpt>
      <trkpt lat="49.81657" lon="2.51569">
        <ele>55.3</ele>
        <time>2022-12-07T14:54:24Z</time>
      </trkpt>
      <trkpt lat="49.81657" lon="2.51567">
        <ele>55.3</ele>
        <time>2022-12-07T14:54:25Z</time>
      </trkpt>
      <trkpt lat="49.81657" lon="2.51566">
        <ele>55.3</ele>
        <time>2022-12-07T14:54:26Z</time>
      </trkpt>
      <trkpt lat="49.81656" lon="2.51564">
        <ele>55.3</ele>
        <time>2022-12-07T14:54:27Z</time>
      </trkpt>
      <trkpt lat="49.81656" lon="2.51562">
        <ele>55.3</ele>
        <time>2022-12-07T14:54:28Z</time>
      </trkpt>
      <trkpt lat="49.81656" lon="2.5156">
        <ele>55.4</ele>
        <time>2022-12-07T14:54:29Z</time>
      </trkpt>
      <trkpt lat="49.81656" lon="2.51559">
        <ele>55.4</ele>
        <time>2022-12-07T14:54:30Z</time>
      </trkpt>
      <trkpt lat="49.81655" lon="2.51558">
        <ele>55.4</ele>
        <time>2022-12-07T14:54:31Z</time>
      </trkpt>
      <trkpt lat="49.81655" lon="2.51556">
        <ele>55.4</ele>
        <time>2022-12-07T14:54:32Z</time>
      </trkpt>
      <trkpt lat="49.81655" lon="2.51554">
        <ele>55.4</ele>
        <time>2022-12-07T14:54:33Z</time>
      </trkpt>
      <trkpt lat="49.81655" lon="2.51553">
        <ele>55.4</ele>
        <time>2022-12-07T14:54:34Z</time>
      </trkpt>
      <trkpt lat="49.81654" lon="2.51551">
        <ele>55.4</ele>
        <time>2022-12-07T14:54:35Z</time>
      </trkpt>
      <trkpt lat="49.81654" lon="2.51549">
        <ele>55.5</ele>
        <time>2022-12-07T14:54:36Z</time>
      </trkpt>
      <trkpt lat="49.81654" lon="2.51548">
        <ele>55.5</ele>
        <time>2022-12-07T14:54:37Z</time>
      </trkpt>
      <trkpt lat="49.81654" lon="2.51546">
        <ele>55.5</ele>
        <time>2022-12-07T14:54:38Z</time>
      </trkpt>
      <trkpt lat="49.81654" lon="2.51544">
        <ele>55.5</ele>
        <time>2022-12-07T14:54:39Z</time>
      </trkpt>
      <trkpt lat="49.81653" lon="2.51542">
        <ele>55.5</ele>
        <time>2022-12-07T14:54:40Z</time>
      </trkpt>
      <trkpt lat="49.81653" lon="2.51541">
        <ele>55.6</ele>
        <time>2022-12-07T14:54:41Z</time>
      </trkpt>
      <trkpt lat="49.81653" lon="2.5154">
        <ele>55.6</ele>
        <time>2022-12-07T14:54:42Z</time>
      </trkpt>
      <trkpt lat="49.81653" lon="2.51538">
        <ele>55.6</ele>
        <time>2022-12-07T14:54:43Z</time>
      </trkpt>
      <trkpt lat="49.81653" lon="2.51536">
        <ele>55.6</ele>
        <time>2022-12-07T14:54:44Z</time>
      </trkpt>
      <trkpt lat="49.81653" lon="2.51535">
        <ele>55.6</ele>
        <time>2022-12-07T14:54:45Z</time>
      </trkpt>
      <trkpt lat="49.81652" lon="2.51534">
        <ele>55.7</ele>
        <time>2022-12-07T14:54:46Z</time>
      </trkpt>
      <trkpt lat="49.81652" lon="2.51532">
        <ele>55.7</ele>
        <time>2022-12-07T14:54:47Z</time>
      </trkpt>
      <trkpt lat="49.81652" lon="2.51531">
        <ele>55.7</ele>
        <time>2022-12-07T14:54:48Z</time>
      </trkpt>
      <trkpt lat="49.81652" lon="2.5153">
        <ele>55.7</ele>
        <time>2022-12-07T14:54:49Z</time>
      </trkpt>
      <trkpt lat="49.81652" lon="2.51528">
        <ele>55.7</ele>
        <time>2022-12-07T14:54:50Z</time>
      </trkpt>
      <trkpt lat="49.81652" lon="2.51527">
        <ele>55.8</ele>
        <time>2022-12-07T14:54:51Z</time>
      </trkpt>
      <trkpt lat="49.81652" lon="2.51526">
        <ele>55.8</ele>
        <time>2022-12-07T14:54:52Z</time>
      </trkpt>
      <trkpt lat="49.81652" lon="2.51524">
        <ele>55.8</ele>
        <time>2022-12-07T14:54:53Z</time>
      </trkpt>
      <trkpt lat="49.81651" lon="2.51523">
        <ele>55.8</ele>
        <time>2022-12-07T14:54:54Z</time>
      </trkpt>
      <trkpt lat="49.81651" lon="2.51522">
        <ele>55.8</ele>
        <time>2022-12-07T14:54:55Z</time>
      </trkpt>
      <trkpt lat="49.81651" lon="2.51521">
        <ele>55.9</ele>
        <time>2022-12-07T14:54:56Z</time>
      </trkpt>
      <trkpt lat="49.81651" lon="2.51519">
        <ele>55.9</ele>
        <time>2022-12-07T14:54:57Z</time>
      </trkpt>
      <trkpt lat="49.81651" lon="2.51518">
        <ele>55.9</ele>
        <time>2022-12-07T14:54:58Z</time>
      </trkpt>
      <trkpt lat="49.81651" lon="2.51517">
        <ele>55.9</ele>
        <time>2022-12-07T14:54:59Z</time>
      </trkpt>
      <trkpt lat="49.81651" lon="2.51516">
        <ele>55.9</ele>
        <time>2022-12-07T14:55:00Z</time>
      </trkpt>
      <trkpt lat="49.81651" lon="2.51514">
        <ele>56</ele>
        <time>2022-12-07T14:55:01Z</time>
      </trkpt>
      <trkpt lat="49.81651" lon="2.51513">
        <ele>56</ele>
        <time>2022-12-07T14:55:02Z</time>
      </trkpt>
      <trkpt lat="49.8165" lon="2.51512">
        <ele>56</ele>
        <time>2022-12-07T14:55:03Z</time>
      </trkpt>
      <trkpt lat="49.8165" lon="2.51511">
        <ele>56</ele>
        <time>2022-12-07T14:55:04Z</time>
      </trkpt>
      <trkpt lat="49.8165" lon="2.51511">
        <ele>56</ele>
        <time>2022-12-07T14:55:05Z</time>
      </trkpt>
      <trkpt lat="49.8165" lon="2.5151">
        <ele>56</ele>
        <time>2022-12-07T14:55:06Z</time>
      </trkpt>
      <trkpt lat="49.81649" lon="2.51508">
        <ele>56</ele>
        <time>2022-12-07T14:55:07Z</time>
      </trkpt>
      <trkpt lat="49.81649" lon="2.51508">
        <ele>56.1</ele>
        <time>2022-12-07T14:55:08Z</time>
      </trkpt>
      <trkpt lat="49.8165" lon="2.51507">
        <ele>56.1</ele>
        <time>2022-12-07T14:55:09Z</time>
      </trkpt>
      <trkpt lat="49.81649" lon="2.51507">
        <ele>56.1</ele>
        <time>2022-12-07T14:55:10Z</time>
      </trkpt>
      <trkpt lat="49.81649" lon="2.51506">
        <ele>56.1</ele>
        <time>2022-12-07T14:55:11Z</time>
      </trkpt>
      <trkpt lat="49.81649" lon="2.51506">
        <ele>56.1</ele>
        <time>2022-12-07T14:55:12Z</time>
      </trkpt>
      <trkpt lat="49.81649" lon="2.51506">
        <ele>56.1</ele>
        <time>2022-12-07T14:55:13Z</time>
      </trkpt>
      <trkpt lat="49.81649" lon="2.51506">
        <ele>56.1</ele>
        <time>2022-12-07T14:55:14Z</time>
      </trkpt>
      <trkpt lat="49.81649" lon="2.51506">
        <ele>56.1</ele>
        <time>2022-12-07T14:55:15Z</time>
      </trkpt>
      <trkpt lat="49.81649" lon="2.51507">
        <ele>56.1</ele>
        <time>2022-12-07T14:55:16Z</time>
      </trkpt>
      <trkpt lat="49.81649" lon="2.51507">
        <ele>56.1</ele>
        <time>2022-12-07T14:55:17Z</time>
      </trkpt>
      <trkpt lat="49.81649" lon="2.51507">
        <ele>56.1</ele>
        <time>2022-12-07T14:55:18Z</time>
      </trkpt>
      <trkpt lat="49.81648" lon="2.51508">
        <ele>56.1</ele>
        <time>2022-12-07T14:55:19Z</time>
      </trkpt>
      <trkpt lat="49.81648" lon="2.51508">
        <ele>56.1</ele>
        <time>2022-12-07T14:55:20Z</time>
      </trkpt>
      <trkpt lat="49.81648" lon="2.51509">
        <ele>56.1</ele>
        <time>2022-12-07T14:55:21Z</time>
      </trkpt>
      <trkpt lat="49.81648" lon="2.51509">
        <ele>56.1</ele>
        <time>2022-12-07T14:55:22Z</time>
      </trkpt>
      <trkpt lat="49.81648" lon="2.51509">
        <ele>56.1</ele>
        <time>2022-12-07T14:55:23Z</time>
      </trkpt>
      <trkpt lat="49.81648" lon="2.5151">
        <ele>56.1</ele>
        <time>2022-12-07T14:55:24Z</time>
      </trkpt>
      <trkpt lat="49.81648" lon="2.5151">
        <ele>56.2</ele>
        <time>2022-12-07T14:55:25Z</time>
      </trkpt>
      <trkpt lat="49.81648" lon="2.51511">
        <ele>56.2</ele>
        <time>2022-12-07T14:55:26Z</time>
      </trkpt>
      <trkpt lat="49.81648" lon="2.51512">
        <ele>56.2</ele>
        <time>2022-12-07T14:55:27Z</time>
      </trkpt>
      <trkpt lat="49.81648" lon="2.51513">
        <ele>56.2</ele>
        <time>2022-12-07T14:55:28Z</time>
      </trkpt>
      <trkpt lat="49.81648" lon="2.51513">
        <ele>56.2</ele>
        <time>2022-12-07T14:55:29Z</time>
      </trkpt>
      <trkpt lat="49.81648" lon="2.51513">
        <ele>56.2</ele>
        <time>2022-12-07T14:55:30Z</time>
      </trkpt>
      <trkpt lat="49.81648" lon="2.51513">
        <ele>56.2</ele>
        <time>2022-12-07T14:55:31Z</time>
      </trkpt>
      <trkpt lat="49.81648" lon="2.51513">
        <ele>56.2</ele>
        <time>2022-12-07T14:55:32Z</time>
      </trkpt>
      <trkpt lat="49.81648" lon="2.51513">
        <ele>56.2</ele>
        <time>2022-12-07T14:55:33Z</time>
      </trkpt>
      <trkpt lat="49.81649" lon="2.51513">
        <ele>56.2</ele>
        <time>2022-12-07T14:55:34Z</time>
      </trkpt>
      <trkpt lat="49.81649" lon="2.51513">
        <ele>56.2</ele>
        <time>2022-12-07T14:55:35Z</time>
      </trkpt>
      <trkpt lat="49.81649" lon="2.51513">
        <ele>56.2</ele>
        <time>2022-12-07T14:55:36Z</time>
      </trkpt>
      <trkpt lat="49.81649" lon="2.51513">
        <ele>56.2</ele>
        <time>2022-12-07T14:55:37Z</time>
      </trkpt>
      <trkpt lat="49.81649" lon="2.51513">
        <ele>56.2</ele>
        <time>2022-12-07T14:55:38Z</time>
      </trkpt>
      <trkpt lat="49.81649" lon="2.51513">
        <ele>56.2</ele>
        <time>2022-12-07T14:55:39Z</time>
      </trkpt>
      <trkpt lat="49.81649" lon="2.51513">
        <ele>56.2</ele>
        <time>2022-12-07T14:55:40Z</time>
      </trkpt>
      <trkpt lat="49.81649" lon="2.51513">
        <ele>56.2</ele>
        <time>2022-12-07T14:55:41Z</time>
      </trkpt>
      <trkpt lat="49.81649" lon="2.51513">
        <ele>56.2</ele>
        <time>2022-12-07T14:55:42Z</time>
      </trkpt>
      <trkpt lat="49.81649" lon="2.51513">
        <ele>56.2</ele>
        <time>2022-12-07T14:55:43Z</time>
      </trkpt>
      <trkpt lat="49.81649" lon="2.51513">
        <ele>56.2</ele>
        <time>2022-12-07T14:55:44Z</time>
      </trkpt>
      <trkpt lat="49.81649" lon="2.51513">
        <ele>56.2</ele>
        <time>2022-12-07T14:55:45Z</time>
      </trkpt>
      <trkpt lat="49.81649" lon="2.51513">
        <ele>56.2</ele>
        <time>2022-12-07T14:55:46Z</time>
      </trkpt>
      <trkpt lat="49.81649" lon="2.51513">
        <ele>56.2</ele>
        <time>2022-12-07T14:55:47Z</time>
      </trkpt>
      <trkpt lat="49.81649" lon="2.51513">
        <ele>56.2</ele>
        <time>2022-12-07T14:55:48Z</time>
      </trkpt>
      <trkpt lat="49.81649" lon="2.51513">
        <ele>56.2</ele>
        <time>2022-12-07T14:55:49Z</time>
      </trkpt>
      <trkpt lat="49.81649" lon="2.51513">
        <ele>56.2</ele>
        <time>2022-12-07T14:55:50Z</time>
      </trkpt>
      <trkpt lat="49.81649" lon="2.51513">
        <ele>56.2</ele>
        <time>2022-12-07T14:55:51Z</time>
      </trkpt>
      <trkpt lat="49.81649" lon="2.51513">
        <ele>56.2</ele>
        <time>2022-12-07T14:55:52Z</time>
      </trkpt>
      <trkpt lat="49.81649" lon="2.51513">
        <ele>56.2</ele>
        <time>2022-12-07T14:55:53Z</time>
      </trkpt>
      <trkpt lat="49.81649" lon="2.51513">
        <ele>56.2</ele>
        <time>2022-12-07T14:55:54Z</time>
      </trkpt>
      <trkpt lat="49.81649" lon="2.51513">
        <ele>56.2</ele>
        <time>2022-12-07T14:55:55Z</time>
      </trkpt>
      <trkpt lat="49.81649" lon="2.51513">
        <ele>56.2</ele>
        <time>2022-12-07T14:55:56Z</time>
      </trkpt>
      <trkpt lat="49.81649" lon="2.51513">
        <ele>56.2</ele>
        <time>2022-12-07T14:55:57Z</time>
      </trkpt>
      <trkpt lat="49.81649" lon="2.51513">
        <ele>56.2</ele>
        <time>2022-12-07T14:55:58Z</time>
      </trkpt>
      <trkpt lat="49.81649" lon="2.51513">
        <ele>56.2</ele>
        <time>2022-12-07T14:55:59Z</time>
      </trkpt>
      <trkpt lat="49.81649" lon="2.51513">
        <ele>56.2</ele>
        <time>2022-12-07T14:56:00Z</time>
      </trkpt>
      <trkpt lat="49.81649" lon="2.51513">
        <ele>56.2</ele>
        <time>2022-12-07T14:56:01Z</time>
      </trkpt>
      <trkpt lat="49.81649" lon="2.51513">
        <ele>56.2</ele>
        <time>2022-12-07T14:56:02Z</time>
      </trkpt>
      <trkpt lat="49.81649" lon="2.51513">
        <ele>56.2</ele>
        <time>2022-12-07T14:56:03Z</time>
      </trkpt>
      <trkpt lat="49.81649" lon="2.51513">
        <ele>56.2</ele>
        <time>2022-12-07T14:56:04Z</time>
      </trkpt>
      <trkpt lat="49.81649" lon="2.51513">
        <ele>56.2</ele>
        <time>2022-12-07T14:56:05Z</time>
      </trkpt>
      <trkpt lat="49.81649" lon="2.51513">
        <ele>56.2</ele>
        <time>2022-12-07T14:56:06Z</time>
      </trkpt>
      <trkpt lat="49.81649" lon="2.51513">
        <ele>56.2</ele>
        <time>2022-12-07T14:56:07Z</time>
      </trkpt>
      <trkpt lat="49.81649" lon="2.51513">
        <ele>56.2</ele>
        <time>2022-12-07T14:56:08Z</time>
      </trkpt>
      <trkpt lat="49.81649" lon="2.51513">
        <ele>56.2</ele>
        <time>2022-12-07T14:56:09Z</time>
      </trkpt>
      <trkpt lat="49.81649" lon="2.51513">
        <ele>56.2</ele>
        <time>2022-12-07T14:56:10Z</time>
      </trkpt>
      <trkpt lat="49.81649" lon="2.51513">
        <ele>56.2</ele>
        <time>2022-12-07T14:56:11Z</time>
      </trkpt>
      <trkpt lat="49.81649" lon="2.51513">
        <ele>56.2</ele>
        <time>2022-12-07T14:56:12Z</time>
      </trkpt>
      <trkpt lat="49.81649" lon="2.51513">
        <ele>56.2</ele>
        <time>2022-12-07T14:56:13Z</time>
      </trkpt>
      <trkpt lat="49.81649" lon="2.51513">
        <ele>56.2</ele>
        <time>2022-12-07T14:56:14Z</time>
      </trkpt>
      <trkpt lat="49.81649" lon="2.51513">
        <ele>56.2</ele>
        <time>2022-12-07T14:56:15Z</time>
      </trkpt>
      <trkpt lat="49.81649" lon="2.51513">
        <ele>56.2</ele>
        <time>2022-12-07T14:56:16Z</time>
      </trkpt>
      <trkpt lat="49.81649" lon="2.51513">
        <ele>56.2</ele>
        <time>2022-12-07T14:56:17Z</time>
      </trkpt>
      <trkpt lat="49.81649" lon="2.51513">
        <ele>56.2</ele>
        <time>2022-12-07T14:56:18Z</time>
      </trkpt>
      <trkpt lat="49.81649" lon="2.51513">
        <ele>56.2</ele>
        <time>2022-12-07T14:56:19Z</time>
      </trkpt>
      <trkpt lat="49.81649" lon="2.51513">
        <ele>56.2</ele>
        <time>2022-12-07T14:56:20Z</time>
      </trkpt>
      <trkpt lat="49.81649" lon="2.51513">
        <ele>56.2</ele>
        <time>2022-12-07T14:56:21Z</time>
      </trkpt>
      <trkpt lat="49.81649" lon="2.51513">
        <ele>56.2</ele>
        <time>2022-12-07T14:56:22Z</time>
      </trkpt>
      <trkpt lat="49.81649" lon="2.51513">
        <ele>56.2</ele>
        <time>2022-12-07T14:56:23Z</time>
      </trkpt>
      <trkpt lat="49.8165" lon="2.51514">
        <ele>56.2</ele>
        <time>2022-12-07T14:56:24Z</time>
      </trkpt>
      <trkpt lat="49.8165" lon="2.51514">
        <ele>56.2</ele>
        <time>2022-12-07T14:56:25Z</time>
      </trkpt>
      <trkpt lat="49.81651" lon="2.51512">
        <ele>56.3</ele>
        <time>2022-12-07T14:56:26Z</time>
      </trkpt>
      <trkpt lat="49.81651" lon="2.51511">
        <ele>56.3</ele>
        <time>2022-12-07T14:56:27Z</time>
      </trkpt>
      <trkpt lat="49.81651" lon="2.51509">
        <ele>56.3</ele>
        <time>2022-12-07T14:56:28Z</time>
      </trkpt>
      <trkpt lat="49.81651" lon="2.51507">
        <ele>56.3</ele>
        <time>2022-12-07T14:56:29Z</time>
      </trkpt>
      <trkpt lat="49.81652" lon="2.51506">
        <ele>56.3</ele>
        <time>2022-12-07T14:56:30Z</time>
      </trkpt>
      <trkpt lat="49.81652" lon="2.51505">
        <ele>56.2</ele>
        <time>2022-12-07T14:56:31Z</time>
      </trkpt>
      <trkpt lat="49.81652" lon="2.51504">
        <ele>56.2</ele>
        <time>2022-12-07T14:56:32Z</time>
      </trkpt>
      <trkpt lat="49.81653" lon="2.51503">
        <ele>56.2</ele>
        <time>2022-12-07T14:56:33Z</time>
      </trkpt>
      <trkpt lat="49.81654" lon="2.51501">
        <ele>56.1</ele>
        <time>2022-12-07T14:56:34Z</time>
      </trkpt>
      <trkpt lat="49.81656" lon="2.51499">
        <ele>56</ele>
        <time>2022-12-07T14:56:35Z</time>
      </trkpt>
      <trkpt lat="49.81657" lon="2.51498">
        <ele>56</ele>
        <time>2022-12-07T14:56:36Z</time>
      </trkpt>
      <trkpt lat="49.81658" lon="2.51497">
        <ele>55.9</ele>
        <time>2022-12-07T14:56:37Z</time>
      </trkpt>
      <trkpt lat="49.81659" lon="2.51497">
        <ele>55.9</ele>
        <time>2022-12-07T14:56:38Z</time>
      </trkpt>
      <trkpt lat="49.8166" lon="2.51496">
        <ele>55.8</ele>
        <time>2022-12-07T14:56:39Z</time>
      </trkpt>
      <trkpt lat="49.81662" lon="2.51494">
        <ele>55.7</ele>
        <time>2022-12-07T14:56:40Z</time>
      </trkpt>
      <trkpt lat="49.81663" lon="2.51494">
        <ele>55.6</ele>
        <time>2022-12-07T14:56:41Z</time>
      </trkpt>
      <trkpt lat="49.81663" lon="2.51493">
        <ele>55.6</ele>
        <time>2022-12-07T14:56:42Z</time>
      </trkpt>
      <trkpt lat="49.81665" lon="2.51492">
        <ele>55.5</ele>
        <time>2022-12-07T14:56:43Z</time>
      </trkpt>
      <trkpt lat="49.81666" lon="2.51491">
        <ele>55.4</ele>
        <time>2022-12-07T14:56:44Z</time>
      </trkpt>
      <trkpt lat="49.81667" lon="2.5149">
        <ele>55.4</ele>
        <time>2022-12-07T14:56:45Z</time>
      </trkpt>
      <trkpt lat="49.81668" lon="2.5149">
        <ele>55.3</ele>
        <time>2022-12-07T14:56:46Z</time>
      </trkpt>
      <trkpt lat="49.81669" lon="2.51489">
        <ele>55.3</ele>
        <time>2022-12-07T14:56:47Z</time>
      </trkpt>
      <trkpt lat="49.8167" lon="2.51489">
        <ele>55.2</ele>
        <time>2022-12-07T14:56:48Z</time>
      </trkpt>
      <trkpt lat="49.81672" lon="2.51488">
        <ele>55.1</ele>
        <time>2022-12-07T14:56:49Z</time>
      </trkpt>
      <trkpt lat="49.81672" lon="2.51488">
        <ele>55.1</ele>
        <time>2022-12-07T14:56:50Z</time>
      </trkpt>
      <trkpt lat="49.81674" lon="2.51488">
        <ele>55</ele>
        <time>2022-12-07T14:56:51Z</time>
      </trkpt>
      <trkpt lat="49.81675" lon="2.51487">
        <ele>55</ele>
        <time>2022-12-07T14:56:52Z</time>
      </trkpt>
      <trkpt lat="49.81676" lon="2.51487">
        <ele>54.9</ele>
        <time>2022-12-07T14:56:53Z</time>
      </trkpt>
      <trkpt lat="49.81678" lon="2.51487">
        <ele>54.8</ele>
        <time>2022-12-07T14:56:54Z</time>
      </trkpt>
      <trkpt lat="49.81679" lon="2.51486">
        <ele>54.7</ele>
        <time>2022-12-07T14:56:55Z</time>
      </trkpt>
      <trkpt lat="49.8168" lon="2.51486">
        <ele>54.7</ele>
        <time>2022-12-07T14:56:56Z</time>
      </trkpt>
      <trkpt lat="49.81682" lon="2.51486">
        <ele>54.5</ele>
        <time>2022-12-07T14:56:57Z</time>
      </trkpt>
      <trkpt lat="49.81683" lon="2.51486">
        <ele>54.5</ele>
        <time>2022-12-07T14:56:58Z</time>
      </trkpt>
      <trkpt lat="49.81684" lon="2.51485">
        <ele>54.4</ele>
        <time>2022-12-07T14:56:59Z</time>
      </trkpt>
      <trkpt lat="49.81685" lon="2.51485">
        <ele>54.4</ele>
        <time>2022-12-07T14:57:00Z</time>
      </trkpt>
      <trkpt lat="49.81687" lon="2.51485">
        <ele>54.3</ele>
        <time>2022-12-07T14:57:01Z</time>
      </trkpt>
      <trkpt lat="49.81688" lon="2.51484">
        <ele>54.2</ele>
        <time>2022-12-07T14:57:02Z</time>
      </trkpt>
      <trkpt lat="49.81689" lon="2.51484">
        <ele>54.1</ele>
        <time>2022-12-07T14:57:03Z</time>
      </trkpt>
      <trkpt lat="49.8169" lon="2.51483">
        <ele>54.1</ele>
        <time>2022-12-07T14:57:04Z</time>
      </trkpt>
      <trkpt lat="49.81691" lon="2.51483">
        <ele>54</ele>
        <time>2022-12-07T14:57:05Z</time>
      </trkpt>
      <trkpt lat="49.81692" lon="2.51483">
        <ele>53.9</ele>
        <time>2022-12-07T14:57:06Z</time>
      </trkpt>
      <trkpt lat="49.81693" lon="2.51483">
        <ele>53.9</ele>
        <time>2022-12-07T14:57:07Z</time>
      </trkpt>
      <trkpt lat="49.81694" lon="2.51483">
        <ele>53.8</ele>
        <time>2022-12-07T14:57:08Z</time>
      </trkpt>
      <trkpt lat="49.81695" lon="2.51482">
        <ele>53.7</ele>
        <time>2022-12-07T14:57:09Z</time>
      </trkpt>
      <trkpt lat="49.81697" lon="2.51482">
        <ele>53.6</ele>
        <time>2022-12-07T14:57:10Z</time>
      </trkpt>
      <trkpt lat="49.81699" lon="2.51481">
        <ele>53.5</ele>
        <time>2022-12-07T14:57:11Z</time>
      </trkpt>
      <trkpt lat="49.817" lon="2.51481">
        <ele>53.5</ele>
        <time>2022-12-07T14:57:12Z</time>
      </trkpt>
      <trkpt lat="49.817" lon="2.5148">
        <ele>53.4</ele>
        <time>2022-12-07T14:57:13Z</time>
      </trkpt>
      <trkpt lat="49.81702" lon="2.51479">
        <ele>53.3</ele>
        <time>2022-12-07T14:57:14Z</time>
      </trkpt>
      <trkpt lat="49.81703" lon="2.51479">
        <ele>53.3</ele>
        <time>2022-12-07T14:57:15Z</time>
      </trkpt>
      <trkpt lat="49.81704" lon="2.51478">
        <ele>53.2</ele>
        <time>2022-12-07T14:57:16Z</time>
      </trkpt>
      <trkpt lat="49.81706" lon="2.51477">
        <ele>53.1</ele>
        <time>2022-12-07T14:57:17Z</time>
      </trkpt>
      <trkpt lat="49.81706" lon="2.51476">
        <ele>53</ele>
        <time>2022-12-07T14:57:18Z</time>
      </trkpt>
      <trkpt lat="49.81707" lon="2.51476">
        <ele>53</ele>
        <time>2022-12-07T14:57:19Z</time>
      </trkpt>
      <trkpt lat="49.81708" lon="2.51475">
        <ele>52.9</ele>
        <time>2022-12-07T14:57:20Z</time>
      </trkpt>
      <trkpt lat="49.81709" lon="2.51475">
        <ele>52.9</ele>
        <time>2022-12-07T14:57:21Z</time>
      </trkpt>
      <trkpt lat="49.8171" lon="2.51474">
        <ele>52.8</ele>
        <time>2022-12-07T14:57:22Z</time>
      </trkpt>
      <trkpt lat="49.81711" lon="2.51474">
        <ele>52.8</ele>
        <time>2022-12-07T14:57:23Z</time>
      </trkpt>
      <trkpt lat="49.81712" lon="2.51474">
        <ele>52.7</ele>
        <time>2022-12-07T14:57:24Z</time>
      </trkpt>
      <trkpt lat="49.81713" lon="2.51474">
        <ele>52.7</ele>
        <time>2022-12-07T14:57:25Z</time>
      </trkpt>
      <trkpt lat="49.81715" lon="2.51473">
        <ele>52.6</ele>
        <time>2022-12-07T14:57:26Z</time>
      </trkpt>
      <trkpt lat="49.81716" lon="2.51473">
        <ele>52.5</ele>
        <time>2022-12-07T14:57:27Z</time>
      </trkpt>
      <trkpt lat="49.81717" lon="2.51473">
        <ele>52.5</ele>
        <time>2022-12-07T14:57:28Z</time>
      </trkpt>
      <trkpt lat="49.81719" lon="2.51472">
        <ele>52.4</ele>
        <time>2022-12-07T14:57:29Z</time>
      </trkpt>
      <trkpt lat="49.8172" lon="2.51472">
        <ele>52.3</ele>
        <time>2022-12-07T14:57:30Z</time>
      </trkpt>
      <trkpt lat="49.8172" lon="2.51472">
        <ele>52.3</ele>
        <time>2022-12-07T14:57:31Z</time>
      </trkpt>
      <trkpt lat="49.81721" lon="2.51471">
        <ele>52.2</ele>
        <time>2022-12-07T14:57:32Z</time>
      </trkpt>
      <trkpt lat="49.81723" lon="2.51471">
        <ele>52.2</ele>
        <time>2022-12-07T14:57:33Z</time>
      </trkpt>
      <trkpt lat="49.81724" lon="2.5147">
        <ele>52.1</ele>
        <time>2022-12-07T14:57:34Z</time>
      </trkpt>
      <trkpt lat="49.81725" lon="2.51469">
        <ele>52</ele>
        <time>2022-12-07T14:57:35Z</time>
      </trkpt>
      <trkpt lat="49.81726" lon="2.51469">
        <ele>52</ele>
        <time>2022-12-07T14:57:36Z</time>
      </trkpt>
      <trkpt lat="49.81727" lon="2.51468">
        <ele>51.9</ele>
        <time>2022-12-07T14:57:37Z</time>
      </trkpt>
      <trkpt lat="49.81728" lon="2.51468">
        <ele>51.9</ele>
        <time>2022-12-07T14:57:38Z</time>
      </trkpt>
      <trkpt lat="49.81728" lon="2.51467">
        <ele>51.9</ele>
        <time>2022-12-07T14:57:39Z</time>
      </trkpt>
      <trkpt lat="49.8173" lon="2.51467">
        <ele>51.8</ele>
        <time>2022-12-07T14:57:40Z</time>
      </trkpt>
      <trkpt lat="49.81731" lon="2.51466">
        <ele>51.7</ele>
        <time>2022-12-07T14:57:41Z</time>
      </trkpt>
      <trkpt lat="49.81732" lon="2.51466">
        <ele>51.7</ele>
        <time>2022-12-07T14:57:42Z</time>
      </trkpt>
      <trkpt lat="49.81733" lon="2.51466">
        <ele>51.6</ele>
        <time>2022-12-07T14:57:43Z</time>
      </trkpt>
      <trkpt lat="49.81735" lon="2.51465">
        <ele>51.5</ele>
        <time>2022-12-07T14:57:44Z</time>
      </trkpt>
      <trkpt lat="49.81736" lon="2.51464">
        <ele>51.4</ele>
        <time>2022-12-07T14:57:45Z</time>
      </trkpt>
      <trkpt lat="49.81737" lon="2.51464">
        <ele>51.4</ele>
        <time>2022-12-07T14:57:46Z</time>
      </trkpt>
      <trkpt lat="49.81739" lon="2.51463">
        <ele>51.3</ele>
        <time>2022-12-07T14:57:47Z</time>
      </trkpt>
      <trkpt lat="49.8174" lon="2.51463">
        <ele>51.2</ele>
        <time>2022-12-07T14:57:48Z</time>
      </trkpt>
      <trkpt lat="49.8174" lon="2.51462">
        <ele>51.2</ele>
        <time>2022-12-07T14:57:49Z</time>
      </trkpt>
      <trkpt lat="49.81742" lon="2.51462">
        <ele>51.1</ele>
        <time>2022-12-07T14:57:50Z</time>
      </trkpt>
      <trkpt lat="49.81743" lon="2.51462">
        <ele>51</ele>
        <time>2022-12-07T14:57:51Z</time>
      </trkpt>
      <trkpt lat="49.81744" lon="2.51461">
        <ele>51</ele>
        <time>2022-12-07T14:57:52Z</time>
      </trkpt>
      <trkpt lat="49.81746" lon="2.5146">
        <ele>50.9</ele>
        <time>2022-12-07T14:57:53Z</time>
      </trkpt>
      <trkpt lat="49.81747" lon="2.5146">
        <ele>50.8</ele>
        <time>2022-12-07T14:57:54Z</time>
      </trkpt>
      <trkpt lat="49.81748" lon="2.5146">
        <ele>50.8</ele>
        <time>2022-12-07T14:57:55Z</time>
      </trkpt>
      <trkpt lat="49.81749" lon="2.51459">
        <ele>50.7</ele>
        <time>2022-12-07T14:57:56Z</time>
      </trkpt>
      <trkpt lat="49.8175" lon="2.51459">
        <ele>50.6</ele>
        <time>2022-12-07T14:57:57Z</time>
      </trkpt>
      <trkpt lat="49.81751" lon="2.51458">
        <ele>50.6</ele>
        <time>2022-12-07T14:57:58Z</time>
      </trkpt>
      <trkpt lat="49.81753" lon="2.51458">
        <ele>50.5</ele>
        <time>2022-12-07T14:57:59Z</time>
      </trkpt>
      <trkpt lat="49.81754" lon="2.51457">
        <ele>50.4</ele>
        <time>2022-12-07T14:58:00Z</time>
      </trkpt>
      <trkpt lat="49.81754" lon="2.51457">
        <ele>50.4</ele>
        <time>2022-12-07T14:58:01Z</time>
      </trkpt>
      <trkpt lat="49.81757" lon="2.51456">
        <ele>50.2</ele>
        <time>2022-12-07T14:58:02Z</time>
      </trkpt>
      <trkpt lat="49.81757" lon="2.51456">
        <ele>50.2</ele>
        <time>2022-12-07T14:58:03Z</time>
      </trkpt>
      <trkpt lat="49.81758" lon="2.51456">
        <ele>50.1</ele>
        <time>2022-12-07T14:58:04Z</time>
      </trkpt>
      <trkpt lat="49.8176" lon="2.51455">
        <ele>50</ele>
        <time>2022-12-07T14:58:05Z</time>
      </trkpt>
      <trkpt lat="49.81761" lon="2.51455">
        <ele>50</ele>
        <time>2022-12-07T14:58:06Z</time>
      </trkpt>
      <trkpt lat="49.81762" lon="2.51454">
        <ele>49.9</ele>
        <time>2022-12-07T14:58:07Z</time>
      </trkpt>
      <trkpt lat="49.81764" lon="2.51454">
        <ele>49.8</ele>
        <time>2022-12-07T14:58:08Z</time>
      </trkpt>
      <trkpt lat="49.81765" lon="2.51453">
        <ele>49.7</ele>
        <time>2022-12-07T14:58:09Z</time>
      </trkpt>
      <trkpt lat="49.81766" lon="2.51453">
        <ele>49.7</ele>
        <time>2022-12-07T14:58:10Z</time>
      </trkpt>
      <trkpt lat="49.81767" lon="2.51452">
        <ele>49.6</ele>
        <time>2022-12-07T14:58:11Z</time>
      </trkpt>
      <trkpt lat="49.81768" lon="2.51452">
        <ele>49.5</ele>
        <time>2022-12-07T14:58:12Z</time>
      </trkpt>
      <trkpt lat="49.81769" lon="2.51451">
        <ele>49.5</ele>
        <time>2022-12-07T14:58:13Z</time>
      </trkpt>
      <trkpt lat="49.8177" lon="2.51451">
        <ele>49.4</ele>
        <time>2022-12-07T14:58:14Z</time>
      </trkpt>
      <trkpt lat="49.81771" lon="2.5145">
        <ele>49.4</ele>
        <time>2022-12-07T14:58:15Z</time>
      </trkpt>
      <trkpt lat="49.81772" lon="2.5145">
        <ele>49.3</ele>
        <time>2022-12-07T14:58:16Z</time>
      </trkpt>
      <trkpt lat="49.81773" lon="2.5145">
        <ele>49.2</ele>
        <time>2022-12-07T14:58:17Z</time>
      </trkpt>
      <trkpt lat="49.81774" lon="2.51449">
        <ele>49.2</ele>
        <time>2022-12-07T14:58:18Z</time>
      </trkpt>
      <trkpt lat="49.81775" lon="2.51449">
        <ele>49.1</ele>
        <time>2022-12-07T14:58:19Z</time>
      </trkpt>
      <trkpt lat="49.81776" lon="2.51448">
        <ele>49</ele>
        <time>2022-12-07T14:58:20Z</time>
      </trkpt>
      <trkpt lat="49.81777" lon="2.51448">
        <ele>49</ele>
        <time>2022-12-07T14:58:21Z</time>
      </trkpt>
      <trkpt lat="49.81779" lon="2.51447">
        <ele>48.9</ele>
        <time>2022-12-07T14:58:22Z</time>
      </trkpt>
      <trkpt lat="49.8178" lon="2.51447">
        <ele>48.8</ele>
        <time>2022-12-07T14:58:23Z</time>
      </trkpt>
      <trkpt lat="49.81781" lon="2.51446">
        <ele>48.8</ele>
        <time>2022-12-07T14:58:24Z</time>
      </trkpt>
      <trkpt lat="49.81782" lon="2.51446">
        <ele>48.7</ele>
        <time>2022-12-07T14:58:25Z</time>
      </trkpt>
      <trkpt lat="49.81783" lon="2.51446">
        <ele>48.6</ele>
        <time>2022-12-07T14:58:26Z</time>
      </trkpt>
      <trkpt lat="49.81784" lon="2.51445">
        <ele>48.5</ele>
        <time>2022-12-07T14:58:27Z</time>
      </trkpt>
      <trkpt lat="49.81785" lon="2.51445">
        <ele>48.5</ele>
        <time>2022-12-07T14:58:28Z</time>
      </trkpt>
      <trkpt lat="49.81786" lon="2.51444">
        <ele>48.4</ele>
        <time>2022-12-07T14:58:29Z</time>
      </trkpt>
      <trkpt lat="49.81787" lon="2.51444">
        <ele>48.3</ele>
        <time>2022-12-07T14:58:30Z</time>
      </trkpt>
      <trkpt lat="49.81788" lon="2.51444">
        <ele>48.3</ele>
        <time>2022-12-07T14:58:31Z</time>
      </trkpt>
      <trkpt lat="49.81789" lon="2.51443">
        <ele>48.2</ele>
        <time>2022-12-07T14:58:32Z</time>
      </trkpt>
      <trkpt lat="49.8179" lon="2.51442">
        <ele>48.1</ele>
        <time>2022-12-07T14:58:33Z</time>
      </trkpt>
      <trkpt lat="49.81791" lon="2.51442">
        <ele>48.1</ele>
        <time>2022-12-07T14:58:34Z</time>
      </trkpt>
      <trkpt lat="49.81792" lon="2.51441">
        <ele>48</ele>
        <time>2022-12-07T14:58:35Z</time>
      </trkpt>
      <trkpt lat="49.81793" lon="2.5144">
        <ele>47.9</ele>
        <time>2022-12-07T14:58:36Z</time>
      </trkpt>
      <trkpt lat="49.81795" lon="2.5144">
        <ele>47.8</ele>
        <time>2022-12-07T14:58:37Z</time>
      </trkpt>
      <trkpt lat="49.81796" lon="2.5144">
        <ele>47.7</ele>
        <time>2022-12-07T14:58:38Z</time>
      </trkpt>
      <trkpt lat="49.81798" lon="2.51439">
        <ele>47.6</ele>
        <time>2022-12-07T14:58:39Z</time>
      </trkpt>
      <trkpt lat="49.81799" lon="2.51439">
        <ele>47.6</ele>
        <time>2022-12-07T14:58:40Z</time>
      </trkpt>
      <trkpt lat="49.818" lon="2.51439">
        <ele>47.5</ele>
        <time>2022-12-07T14:58:41Z</time>
      </trkpt>
      <trkpt lat="49.81802" lon="2.51438">
        <ele>47.4</ele>
        <time>2022-12-07T14:58:42Z</time>
      </trkpt>
      <trkpt lat="49.81803" lon="2.51438">
        <ele>47.3</ele>
        <time>2022-12-07T14:58:43Z</time>
      </trkpt>
      <trkpt lat="49.81803" lon="2.51438">
        <ele>47.3</ele>
        <time>2022-12-07T14:58:44Z</time>
      </trkpt>
      <trkpt lat="49.81804" lon="2.51438">
        <ele>47.2</ele>
        <time>2022-12-07T14:58:45Z</time>
      </trkpt>
      <trkpt lat="49.81805" lon="2.51438">
        <ele>47.1</ele>
        <time>2022-12-07T14:58:46Z</time>
      </trkpt>
      <trkpt lat="49.81806" lon="2.51438">
        <ele>47.1</ele>
        <time>2022-12-07T14:58:47Z</time>
      </trkpt>
      <trkpt lat="49.81807" lon="2.51438">
        <ele>47</ele>
        <time>2022-12-07T14:58:48Z</time>
      </trkpt>
      <trkpt lat="49.81809" lon="2.51437">
        <ele>46.9</ele>
        <time>2022-12-07T14:58:49Z</time>
      </trkpt>
      <trkpt lat="49.8181" lon="2.51437">
        <ele>46.8</ele>
        <time>2022-12-07T14:58:50Z</time>
      </trkpt>
      <trkpt lat="49.81811" lon="2.51436">
        <ele>46.8</ele>
        <time>2022-12-07T14:58:51Z</time>
      </trkpt>
      <trkpt lat="49.81812" lon="2.51436">
        <ele>46.7</ele>
        <time>2022-12-07T14:58:52Z</time>
      </trkpt>
      <trkpt lat="49.81813" lon="2.51435">
        <ele>46.6</ele>
        <time>2022-12-07T14:58:53Z</time>
      </trkpt>
      <trkpt lat="49.81815" lon="2.51434">
        <ele>46.5</ele>
        <time>2022-12-07T14:58:54Z</time>
      </trkpt>
      <trkpt lat="49.81815" lon="2.51434">
        <ele>46.4</ele>
        <time>2022-12-07T14:58:55Z</time>
      </trkpt>
      <trkpt lat="49.81816" lon="2.51434">
        <ele>46.4</ele>
        <time>2022-12-07T14:58:56Z</time>
      </trkpt>
      <trkpt lat="49.81818" lon="2.51433">
        <ele>46.2</ele>
        <time>2022-12-07T14:58:57Z</time>
      </trkpt>
      <trkpt lat="49.81819" lon="2.51432">
        <ele>46.2</ele>
        <time>2022-12-07T14:58:58Z</time>
      </trkpt>
      <trkpt lat="49.8182" lon="2.51432">
        <ele>46.1</ele>
        <time>2022-12-07T14:58:59Z</time>
      </trkpt>
      <trkpt lat="49.81821" lon="2.51432">
        <ele>46.1</ele>
        <time>2022-12-07T14:59:00Z</time>
      </trkpt>
      <trkpt lat="49.81822" lon="2.51431">
        <ele>46</ele>
        <time>2022-12-07T14:59:01Z</time>
      </trkpt>
      <trkpt lat="49.81823" lon="2.51431">
        <ele>45.9</ele>
        <time>2022-12-07T14:59:02Z</time>
      </trkpt>
      <trkpt lat="49.81825" lon="2.5143">
        <ele>45.8</ele>
        <time>2022-12-07T14:59:03Z</time>
      </trkpt>
      <trkpt lat="49.81826" lon="2.5143">
        <ele>45.7</ele>
        <time>2022-12-07T14:59:04Z</time>
      </trkpt>
      <trkpt lat="49.81827" lon="2.5143">
        <ele>45.7</ele>
        <time>2022-12-07T14:59:05Z</time>
      </trkpt>
      <trkpt lat="49.81828" lon="2.5143">
        <ele>45.6</ele>
        <time>2022-12-07T14:59:06Z</time>
      </trkpt>
      <trkpt lat="49.81829" lon="2.51429">
        <ele>45.6</ele>
        <time>2022-12-07T14:59:07Z</time>
      </trkpt>
      <trkpt lat="49.8183" lon="2.51429">
        <ele>45.5</ele>
        <time>2022-12-07T14:59:08Z</time>
      </trkpt>
      <trkpt lat="49.81831" lon="2.51428">
        <ele>45.4</ele>
        <time>2022-12-07T14:59:09Z</time>
      </trkpt>
      <trkpt lat="49.81832" lon="2.51428">
        <ele>45.3</ele>
        <time>2022-12-07T14:59:10Z</time>
      </trkpt>
      <trkpt lat="49.81833" lon="2.51427">
        <ele>45.3</ele>
        <time>2022-12-07T14:59:11Z</time>
      </trkpt>
      <trkpt lat="49.81834" lon="2.51427">
        <ele>45.2</ele>
        <time>2022-12-07T14:59:12Z</time>
      </trkpt>
      <trkpt lat="49.81836" lon="2.51426">
        <ele>45.1</ele>
        <time>2022-12-07T14:59:13Z</time>
      </trkpt>
      <trkpt lat="49.81837" lon="2.51426">
        <ele>45.1</ele>
        <time>2022-12-07T14:59:14Z</time>
      </trkpt>
      <trkpt lat="49.81838" lon="2.51426">
        <ele>45</ele>
        <time>2022-12-07T14:59:15Z</time>
      </trkpt>
      <trkpt lat="49.81839" lon="2.51426">
        <ele>45</ele>
        <time>2022-12-07T14:59:16Z</time>
      </trkpt>
      <trkpt lat="49.8184" lon="2.51425">
        <ele>44.9</ele>
        <time>2022-12-07T14:59:17Z</time>
      </trkpt>
      <trkpt lat="49.8184" lon="2.51425">
        <ele>44.9</ele>
        <time>2022-12-07T14:59:18Z</time>
      </trkpt>
      <trkpt lat="49.81841" lon="2.51425">
        <ele>44.8</ele>
        <time>2022-12-07T14:59:19Z</time>
      </trkpt>
      <trkpt lat="49.81842" lon="2.51425">
        <ele>44.8</ele>
        <time>2022-12-07T14:59:20Z</time>
      </trkpt>
      <trkpt lat="49.81843" lon="2.51425">
        <ele>44.7</ele>
        <time>2022-12-07T14:59:21Z</time>
      </trkpt>
      <trkpt lat="49.81844" lon="2.51425">
        <ele>44.7</ele>
        <time>2022-12-07T14:59:22Z</time>
      </trkpt>
      <trkpt lat="49.81845" lon="2.51424">
        <ele>44.6</ele>
        <time>2022-12-07T14:59:23Z</time>
      </trkpt>
      <trkpt lat="49.81846" lon="2.51423">
        <ele>44.5</ele>
        <time>2022-12-07T14:59:24Z</time>
      </trkpt>
      <trkpt lat="49.81847" lon="2.51423">
        <ele>44.5</ele>
        <time>2022-12-07T14:59:25Z</time>
      </trkpt>
      <trkpt lat="49.81848" lon="2.51423">
        <ele>44.4</ele>
        <time>2022-12-07T14:59:26Z</time>
      </trkpt>
      <trkpt lat="49.8185" lon="2.51422">
        <ele>44.4</ele>
        <time>2022-12-07T14:59:27Z</time>
      </trkpt>
      <trkpt lat="49.81851" lon="2.51422">
        <ele>44.3</ele>
        <time>2022-12-07T14:59:28Z</time>
      </trkpt>
      <trkpt lat="49.81852" lon="2.51421">
        <ele>44.2</ele>
        <time>2022-12-07T14:59:29Z</time>
      </trkpt>
      <trkpt lat="49.81853" lon="2.51421">
        <ele>44.2</ele>
        <time>2022-12-07T14:59:30Z</time>
      </trkpt>
      <trkpt lat="49.81854" lon="2.5142">
        <ele>44.1</ele>
        <time>2022-12-07T14:59:31Z</time>
      </trkpt>
      <trkpt lat="49.81855" lon="2.51419">
        <ele>44.1</ele>
        <time>2022-12-07T14:59:32Z</time>
      </trkpt>
      <trkpt lat="49.81856" lon="2.51419">
        <ele>44</ele>
        <time>2022-12-07T14:59:33Z</time>
      </trkpt>
      <trkpt lat="49.81857" lon="2.51418">
        <ele>43.9</ele>
        <time>2022-12-07T14:59:34Z</time>
      </trkpt>
      <trkpt lat="49.81858" lon="2.51417">
        <ele>43.9</ele>
        <time>2022-12-07T14:59:35Z</time>
      </trkpt>
      <trkpt lat="49.81859" lon="2.51416">
        <ele>43.8</ele>
        <time>2022-12-07T14:59:36Z</time>
      </trkpt>
      <trkpt lat="49.8186" lon="2.51416">
        <ele>43.8</ele>
        <time>2022-12-07T14:59:37Z</time>
      </trkpt>
      <trkpt lat="49.81861" lon="2.51415">
        <ele>43.7</ele>
        <time>2022-12-07T14:59:38Z</time>
      </trkpt>
      <trkpt lat="49.81863" lon="2.51415">
        <ele>43.6</ele>
        <time>2022-12-07T14:59:39Z</time>
      </trkpt>
      <trkpt lat="49.81864" lon="2.51415">
        <ele>43.6</ele>
        <time>2022-12-07T14:59:40Z</time>
      </trkpt>
      <trkpt lat="49.81865" lon="2.51415">
        <ele>43.5</ele>
        <time>2022-12-07T14:59:41Z</time>
      </trkpt>
      <trkpt lat="49.81866" lon="2.51414">
        <ele>43.5</ele>
        <time>2022-12-07T14:59:42Z</time>
      </trkpt>
      <trkpt lat="49.81868" lon="2.51414">
        <ele>43.4</ele>
        <time>2022-12-07T14:59:43Z</time>
      </trkpt>
      <trkpt lat="49.81869" lon="2.51413">
        <ele>43.3</ele>
        <time>2022-12-07T14:59:44Z</time>
      </trkpt>
      <trkpt lat="49.8187" lon="2.51413">
        <ele>43.3</ele>
        <time>2022-12-07T14:59:45Z</time>
      </trkpt>
      <trkpt lat="49.81872" lon="2.51412">
        <ele>43.2</ele>
        <time>2022-12-07T14:59:46Z</time>
      </trkpt>
      <trkpt lat="49.81873" lon="2.51412">
        <ele>43.2</ele>
        <time>2022-12-07T14:59:47Z</time>
      </trkpt>
      <trkpt lat="49.81873" lon="2.51411">
        <ele>43.1</ele>
        <time>2022-12-07T14:59:48Z</time>
      </trkpt>
      <trkpt lat="49.81875" lon="2.5141">
        <ele>43</ele>
        <time>2022-12-07T14:59:49Z</time>
      </trkpt>
      <trkpt lat="49.81876" lon="2.51409">
        <ele>43</ele>
        <time>2022-12-07T14:59:50Z</time>
      </trkpt>
      <trkpt lat="49.81877" lon="2.51409">
        <ele>43</ele>
        <time>2022-12-07T14:59:51Z</time>
      </trkpt>
      <trkpt lat="49.81878" lon="2.51408">
        <ele>42.9</ele>
        <time>2022-12-07T14:59:52Z</time>
      </trkpt>
      <trkpt lat="49.81879" lon="2.51407">
        <ele>42.9</ele>
        <time>2022-12-07T14:59:53Z</time>
      </trkpt>
      <trkpt lat="49.8188" lon="2.51406">
        <ele>42.8</ele>
        <time>2022-12-07T14:59:54Z</time>
      </trkpt>
      <trkpt lat="49.81881" lon="2.51406">
        <ele>42.8</ele>
        <time>2022-12-07T14:59:55Z</time>
      </trkpt>
      <trkpt lat="49.81882" lon="2.51405">
        <ele>42.8</ele>
        <time>2022-12-07T14:59:56Z</time>
      </trkpt>
      <trkpt lat="49.81884" lon="2.51405">
        <ele>42.7</ele>
        <time>2022-12-07T14:59:57Z</time>
      </trkpt>
      <trkpt lat="49.81886" lon="2.51404">
        <ele>42.6</ele>
        <time>2022-12-07T14:59:58Z</time>
      </trkpt>
      <trkpt lat="49.81886" lon="2.51403">
        <ele>42.6</ele>
        <time>2022-12-07T14:59:59Z</time>
      </trkpt>
      <trkpt lat="49.81887" lon="2.51403">
        <ele>42.6</ele>
        <time>2022-12-07T15:00:00Z</time>
      </trkpt>
      <trkpt lat="49.81888" lon="2.51402">
        <ele>42.6</ele>
        <time>2022-12-07T15:00:01Z</time>
      </trkpt>
      <trkpt lat="49.81889" lon="2.51402">
        <ele>42.5</ele>
        <time>2022-12-07T15:00:02Z</time>
      </trkpt>
      <trkpt lat="49.8189" lon="2.51401">
        <ele>42.5</ele>
        <time>2022-12-07T15:00:03Z</time>
      </trkpt>
      <trkpt lat="49.81891" lon="2.514">
        <ele>42.5</ele>
        <time>2022-12-07T15:00:04Z</time>
      </trkpt>
      <trkpt lat="49.81892" lon="2.51399">
        <ele>42.4</ele>
        <time>2022-12-07T15:00:05Z</time>
      </trkpt>
      <trkpt lat="49.81893" lon="2.51399">
        <ele>42.4</ele>
        <time>2022-12-07T15:00:06Z</time>
      </trkpt>
      <trkpt lat="49.81895" lon="2.51397">
        <ele>42.3</ele>
        <time>2022-12-07T15:00:07Z</time>
      </trkpt>
      <trkpt lat="49.81896" lon="2.51397">
        <ele>42.3</ele>
        <time>2022-12-07T15:00:08Z</time>
      </trkpt>
      <trkpt lat="49.81897" lon="2.51396">
        <ele>42.3</ele>
        <time>2022-12-07T15:00:09Z</time>
      </trkpt>
      <trkpt lat="49.81898" lon="2.51394">
        <ele>42.2</ele>
        <time>2022-12-07T15:00:10Z</time>
      </trkpt>
      <trkpt lat="49.81899" lon="2.51394">
        <ele>42.2</ele>
        <time>2022-12-07T15:00:11Z</time>
      </trkpt>
      <trkpt lat="49.819" lon="2.51393">
        <ele>42.2</ele>
        <time>2022-12-07T15:00:12Z</time>
      </trkpt>
      <trkpt lat="49.81901" lon="2.51391">
        <ele>42.1</ele>
        <time>2022-12-07T15:00:13Z</time>
      </trkpt>
      <trkpt lat="49.81902" lon="2.5139">
        <ele>42.1</ele>
        <time>2022-12-07T15:00:14Z</time>
      </trkpt>
      <trkpt lat="49.81903" lon="2.51389">
        <ele>42.1</ele>
        <time>2022-12-07T15:00:15Z</time>
      </trkpt>
      <trkpt lat="49.81904" lon="2.51388">
        <ele>42</ele>
        <time>2022-12-07T15:00:16Z</time>
      </trkpt>
      <trkpt lat="49.81906" lon="2.51387">
        <ele>42</ele>
        <time>2022-12-07T15:00:17Z</time>
      </trkpt>
      <trkpt lat="49.81906" lon="2.51386">
        <ele>42</ele>
        <time>2022-12-07T15:00:18Z</time>
      </trkpt>
      <trkpt lat="49.81907" lon="2.51386">
        <ele>42</ele>
        <time>2022-12-07T15:00:19Z</time>
      </trkpt>
      <trkpt lat="49.81909" lon="2.51385">
        <ele>41.9</ele>
        <time>2022-12-07T15:00:20Z</time>
      </trkpt>
      <trkpt lat="49.81911" lon="2.51383">
        <ele>41.9</ele>
        <time>2022-12-07T15:00:21Z</time>
      </trkpt>
      <trkpt lat="49.81911" lon="2.51383">
        <ele>41.9</ele>
        <time>2022-12-07T15:00:22Z</time>
      </trkpt>
      <trkpt lat="49.81912" lon="2.51382">
        <ele>41.9</ele>
        <time>2022-12-07T15:00:23Z</time>
      </trkpt>
      <trkpt lat="49.81913" lon="2.51381">
        <ele>41.9</ele>
        <time>2022-12-07T15:00:24Z</time>
      </trkpt>
      <trkpt lat="49.81914" lon="2.5138">
        <ele>41.8</ele>
        <time>2022-12-07T15:00:25Z</time>
      </trkpt>
      <trkpt lat="49.81915" lon="2.51379">
        <ele>41.8</ele>
        <time>2022-12-07T15:00:26Z</time>
      </trkpt>
      <trkpt lat="49.81916" lon="2.51378">
        <ele>41.8</ele>
        <time>2022-12-07T15:00:27Z</time>
      </trkpt>
      <trkpt lat="49.81917" lon="2.51377">
        <ele>41.8</ele>
        <time>2022-12-07T15:00:28Z</time>
      </trkpt>
      <trkpt lat="49.81918" lon="2.51376">
        <ele>41.8</ele>
        <time>2022-12-07T15:00:29Z</time>
      </trkpt>
      <trkpt lat="49.81919" lon="2.51374">
        <ele>41.7</ele>
        <time>2022-12-07T15:00:30Z</time>
      </trkpt>
      <trkpt lat="49.8192" lon="2.51373">
        <ele>41.7</ele>
        <time>2022-12-07T15:00:31Z</time>
      </trkpt>
      <trkpt lat="49.81921" lon="2.5137">
        <ele>41.7</ele>
        <time>2022-12-07T15:00:32Z</time>
      </trkpt>
      <trkpt lat="49.81922" lon="2.51369">
        <ele>41.7</ele>
        <time>2022-12-07T15:00:33Z</time>
      </trkpt>
      <trkpt lat="49.81922" lon="2.51368">
        <ele>41.7</ele>
        <time>2022-12-07T15:00:34Z</time>
      </trkpt>
      <trkpt lat="49.81923" lon="2.51366">
        <ele>41.7</ele>
        <time>2022-12-07T15:00:35Z</time>
      </trkpt>
      <trkpt lat="49.81924" lon="2.51365">
        <ele>41.6</ele>
        <time>2022-12-07T15:00:36Z</time>
      </trkpt>
      <trkpt lat="49.81925" lon="2.51363">
        <ele>41.6</ele>
        <time>2022-12-07T15:00:37Z</time>
      </trkpt>
      <trkpt lat="49.81925" lon="2.51361">
        <ele>41.6</ele>
        <time>2022-12-07T15:00:38Z</time>
      </trkpt>
      <trkpt lat="49.81927" lon="2.51358">
        <ele>41.6</ele>
        <time>2022-12-07T15:00:39Z</time>
      </trkpt>
      <trkpt lat="49.81927" lon="2.51357">
        <ele>41.6</ele>
        <time>2022-12-07T15:00:40Z</time>
      </trkpt>
      <trkpt lat="49.81928" lon="2.51356">
        <ele>41.5</ele>
        <time>2022-12-07T15:00:41Z</time>
      </trkpt>
      <trkpt lat="49.81929" lon="2.51354">
        <ele>41.5</ele>
        <time>2022-12-07T15:00:42Z</time>
      </trkpt>
      <trkpt lat="49.8193" lon="2.51353">
        <ele>41.5</ele>
        <time>2022-12-07T15:00:43Z</time>
      </trkpt>
      <trkpt lat="49.8193" lon="2.51352">
        <ele>41.5</ele>
        <time>2022-12-07T15:00:44Z</time>
      </trkpt>
      <trkpt lat="49.81931" lon="2.51351">
        <ele>41.5</ele>
        <time>2022-12-07T15:00:45Z</time>
      </trkpt>
      <trkpt lat="49.81932" lon="2.51349">
        <ele>41.5</ele>
        <time>2022-12-07T15:00:46Z</time>
      </trkpt>
      <trkpt lat="49.81933" lon="2.51348">
        <ele>41.4</ele>
        <time>2022-12-07T15:00:47Z</time>
      </trkpt>
      <trkpt lat="49.81935" lon="2.51347">
        <ele>41.4</ele>
        <time>2022-12-07T15:00:48Z</time>
      </trkpt>
      <trkpt lat="49.81935" lon="2.51347">
        <ele>41.4</ele>
        <time>2022-12-07T15:00:49Z</time>
      </trkpt>
      <trkpt lat="49.81937" lon="2.51346">
        <ele>41.4</ele>
        <time>2022-12-07T15:00:50Z</time>
      </trkpt>
      <trkpt lat="49.81938" lon="2.51345">
        <ele>41.4</ele>
        <time>2022-12-07T15:00:51Z</time>
      </trkpt>
      <trkpt lat="49.81939" lon="2.51345">
        <ele>41.4</ele>
        <time>2022-12-07T15:00:52Z</time>
      </trkpt>
      <trkpt lat="49.81941" lon="2.51344">
        <ele>41.4</ele>
        <time>2022-12-07T15:00:53Z</time>
      </trkpt>
      <trkpt lat="49.81942" lon="2.51344">
        <ele>41.4</ele>
        <time>2022-12-07T15:00:54Z</time>
      </trkpt>
      <trkpt lat="49.81943" lon="2.51344">
        <ele>41.4</ele>
        <time>2022-12-07T15:00:55Z</time>
      </trkpt>
      <trkpt lat="49.81945" lon="2.51344">
        <ele>41.4</ele>
        <time>2022-12-07T15:00:56Z</time>
      </trkpt>
      <trkpt lat="49.81946" lon="2.51344">
        <ele>41.4</ele>
        <time>2022-12-07T15:00:57Z</time>
      </trkpt>
      <trkpt lat="49.81947" lon="2.51344">
        <ele>41.4</ele>
        <time>2022-12-07T15:00:58Z</time>
      </trkpt>
      <trkpt lat="49.81948" lon="2.51344">
        <ele>41.4</ele>
        <time>2022-12-07T15:00:59Z</time>
      </trkpt>
      <trkpt lat="49.81949" lon="2.51345">
        <ele>41.4</ele>
        <time>2022-12-07T15:01:00Z</time>
      </trkpt>
      <trkpt lat="49.8195" lon="2.51345">
        <ele>41.3</ele>
        <time>2022-12-07T15:01:01Z</time>
      </trkpt>
      <trkpt lat="49.81951" lon="2.51345">
        <ele>41.3</ele>
        <time>2022-12-07T15:01:02Z</time>
      </trkpt>
      <trkpt lat="49.81952" lon="2.51345">
        <ele>41.3</ele>
        <time>2022-12-07T15:01:03Z</time>
      </trkpt>
      <trkpt lat="49.81953" lon="2.51345">
        <ele>41.3</ele>
        <time>2022-12-07T15:01:04Z</time>
      </trkpt>
      <trkpt lat="49.81953" lon="2.51345">
        <ele>41.3</ele>
        <time>2022-12-07T15:01:05Z</time>
      </trkpt>
      <trkpt lat="49.81953" lon="2.51344">
        <ele>41.3</ele>
        <time>2022-12-07T15:01:06Z</time>
      </trkpt>
      <trkpt lat="49.81953" lon="2.51343">
        <ele>41.3</ele>
        <time>2022-12-07T15:01:07Z</time>
      </trkpt>
      <trkpt lat="49.81952" lon="2.51342">
        <ele>41.3</ele>
        <time>2022-12-07T15:01:08Z</time>
      </trkpt>
      <trkpt lat="49.81952" lon="2.51342">
        <ele>41.3</ele>
        <time>2022-12-07T15:01:09Z</time>
      </trkpt>
      <trkpt lat="49.81952" lon="2.51342">
        <ele>41.3</ele>
        <time>2022-12-07T15:01:10Z</time>
      </trkpt>
      <trkpt lat="49.81951" lon="2.51342">
        <ele>41.3</ele>
        <time>2022-12-07T15:01:11Z</time>
      </trkpt>
      <trkpt lat="49.81951" lon="2.51342">
        <ele>41.3</ele>
        <time>2022-12-07T15:01:12Z</time>
      </trkpt>
      <trkpt lat="49.81951" lon="2.51342">
        <ele>41.3</ele>
        <time>2022-12-07T15:01:13Z</time>
      </trkpt>
      <trkpt lat="49.81951" lon="2.51342">
        <ele>41.3</ele>
        <time>2022-12-07T15:01:14Z</time>
      </trkpt>
      <trkpt lat="49.81951" lon="2.51342">
        <ele>41.3</ele>
        <time>2022-12-07T15:01:15Z</time>
      </trkpt>
      <trkpt lat="49.81951" lon="2.51342">
        <ele>41.3</ele>
        <time>2022-12-07T15:01:16Z</time>
      </trkpt>
      <trkpt lat="49.81951" lon="2.51341">
        <ele>41.3</ele>
        <time>2022-12-07T15:01:17Z</time>
      </trkpt>
      <trkpt lat="49.81951" lon="2.51342">
        <ele>41.3</ele>
        <time>2022-12-07T15:01:18Z</time>
      </trkpt>
      <trkpt lat="49.81951" lon="2.51342">
        <ele>41.3</ele>
        <time>2022-12-07T15:01:19Z</time>
      </trkpt>
      <trkpt lat="49.8195" lon="2.51342">
        <ele>41.3</ele>
        <time>2022-12-07T15:01:20Z</time>
      </trkpt>
      <trkpt lat="49.8195" lon="2.51342">
        <ele>41.2</ele>
        <time>2022-12-07T15:01:21Z</time>
      </trkpt>
      <trkpt lat="49.8195" lon="2.51342">
        <ele>41.2</ele>
        <time>2022-12-07T15:01:22Z</time>
      </trkpt>
      <trkpt lat="49.8195" lon="2.51342">
        <ele>41.2</ele>
        <time>2022-12-07T15:01:23Z</time>
      </trkpt>
      <trkpt lat="49.8195" lon="2.51342">
        <ele>41.2</ele>
        <time>2022-12-07T15:01:24Z</time>
      </trkpt>
      <trkpt lat="49.8195" lon="2.51343">
        <ele>41.2</ele>
        <time>2022-12-07T15:01:25Z</time>
      </trkpt>
      <trkpt lat="49.8195" lon="2.51344">
        <ele>41.2</ele>
        <time>2022-12-07T15:01:26Z</time>
      </trkpt>
      <trkpt lat="49.8195" lon="2.51344">
        <ele>41.2</ele>
        <time>2022-12-07T15:01:27Z</time>
      </trkpt>
      <trkpt lat="49.8195" lon="2.51344">
        <ele>41.2</ele>
        <time>2022-12-07T15:01:28Z</time>
      </trkpt>
      <trkpt lat="49.81951" lon="2.51344">
        <ele>41.2</ele>
        <time>2022-12-07T15:01:29Z</time>
      </trkpt>
      <trkpt lat="49.81951" lon="2.51345">
        <ele>41.2</ele>
        <time>2022-12-07T15:01:30Z</time>
      </trkpt>
      <trkpt lat="49.81951" lon="2.51345">
        <ele>41.2</ele>
        <time>2022-12-07T15:01:31Z</time>
      </trkpt>
      <trkpt lat="49.81951" lon="2.51345">
        <ele>41.2</ele>
        <time>2022-12-07T15:01:32Z</time>
      </trkpt>
      <trkpt lat="49.81951" lon="2.51345">
        <ele>41.2</ele>
        <time>2022-12-07T15:01:33Z</time>
      </trkpt>
      <trkpt lat="49.81951" lon="2.51345">
        <ele>41.2</ele>
        <time>2022-12-07T15:01:34Z</time>
      </trkpt>
      <trkpt lat="49.81951" lon="2.51345">
        <ele>41.2</ele>
        <time>2022-12-07T15:01:35Z</time>
      </trkpt>
      <trkpt lat="49.81951" lon="2.51345">
        <ele>41.2</ele>
        <time>2022-12-07T15:01:36Z</time>
      </trkpt>
      <trkpt lat="49.81951" lon="2.51345">
        <ele>41.2</ele>
        <time>2022-12-07T15:01:37Z</time>
      </trkpt>
      <trkpt lat="49.81951" lon="2.51345">
        <ele>41.2</ele>
        <time>2022-12-07T15:01:38Z</time>
      </trkpt>
      <trkpt lat="49.81951" lon="2.51345">
        <ele>41.2</ele>
        <time>2022-12-07T15:01:39Z</time>
      </trkpt>
      <trkpt lat="49.81951" lon="2.51345">
        <ele>41.2</ele>
        <time>2022-12-07T15:01:40Z</time>
      </trkpt>
      <trkpt lat="49.81951" lon="2.51345">
        <ele>41.2</ele>
        <time>2022-12-07T15:01:41Z</time>
      </trkpt>
      <trkpt lat="49.81951" lon="2.51345">
        <ele>41.2</ele>
        <time>2022-12-07T15:01:42Z</time>
      </trkpt>
      <trkpt lat="49.81951" lon="2.51345">
        <ele>41.2</ele>
        <time>2022-12-07T15:01:43Z</time>
      </trkpt>
      <trkpt lat="49.81951" lon="2.51345">
        <ele>41.2</ele>
        <time>2022-12-07T15:01:44Z</time>
      </trkpt>
      <trkpt lat="49.81951" lon="2.51345">
        <ele>41.2</ele>
        <time>2022-12-07T15:01:45Z</time>
      </trkpt>
      <trkpt lat="49.81951" lon="2.51345">
        <ele>41.2</ele>
        <time>2022-12-07T15:01:46Z</time>
      </trkpt>
      <trkpt lat="49.81951" lon="2.51345">
        <ele>41.2</ele>
        <time>2022-12-07T15:01:47Z</time>
      </trkpt>
      <trkpt lat="49.81951" lon="2.51345">
        <ele>41.2</ele>
        <time>2022-12-07T15:01:48Z</time>
      </trkpt>
      <trkpt lat="49.81951" lon="2.51345">
        <ele>41.2</ele>
        <time>2022-12-07T15:01:49Z</time>
      </trkpt>
      <trkpt lat="49.81951" lon="2.51345">
        <ele>41.2</ele>
        <time>2022-12-07T15:01:50Z</time>
      </trkpt>
      <trkpt lat="49.81951" lon="2.51345">
        <ele>41.2</ele>
        <time>2022-12-07T15:01:51Z</time>
      </trkpt>
      <trkpt lat="49.81951" lon="2.51345">
        <ele>41.2</ele>
        <time>2022-12-07T15:01:52Z</time>
      </trkpt>
      <trkpt lat="49.81951" lon="2.51345">
        <ele>41.2</ele>
        <time>2022-12-07T15:01:53Z</time>
      </trkpt>
      <trkpt lat="49.81951" lon="2.51345">
        <ele>41.2</ele>
        <time>2022-12-07T15:01:54Z</time>
      </trkpt>
      <trkpt lat="49.81951" lon="2.51345">
        <ele>41.2</ele>
        <time>2022-12-07T15:01:55Z</time>
      </trkpt>
      <trkpt lat="49.81951" lon="2.51345">
        <ele>41.2</ele>
        <time>2022-12-07T15:01:56Z</time>
      </trkpt>
      <trkpt lat="49.81951" lon="2.51345">
        <ele>41.2</ele>
        <time>2022-12-07T15:01:57Z</time>
      </trkpt>
      <trkpt lat="49.81951" lon="2.51345">
        <ele>41.2</ele>
        <time>2022-12-07T15:01:58Z</time>
      </trkpt>
      <trkpt lat="49.81951" lon="2.51345">
        <ele>41.2</ele>
        <time>2022-12-07T15:01:59Z</time>
      </trkpt>
      <trkpt lat="49.81951" lon="2.51345">
        <ele>41.2</ele>
        <time>2022-12-07T15:02:00Z</time>
      </trkpt>
      <trkpt lat="49.81951" lon="2.51345">
        <ele>41.2</ele>
        <time>2022-12-07T15:02:01Z</time>
      </trkpt>
      <trkpt lat="49.81951" lon="2.51345">
        <ele>41.2</ele>
        <time>2022-12-07T15:02:02Z</time>
      </trkpt>
      <trkpt lat="49.81951" lon="2.51345">
        <ele>41.2</ele>
        <time>2022-12-07T15:02:03Z</time>
      </trkpt>
      <trkpt lat="49.81951" lon="2.51345">
        <ele>41.2</ele>
        <time>2022-12-07T15:02:04Z</time>
      </trkpt>
      <trkpt lat="49.81951" lon="2.51345">
        <ele>41.2</ele>
        <time>2022-12-07T15:02:05Z</time>
      </trkpt>
      <trkpt lat="49.81951" lon="2.51345">
        <ele>41.2</ele>
        <time>2022-12-07T15:02:06Z</time>
      </trkpt>
      <trkpt lat="49.81951" lon="2.51345">
        <ele>41.2</ele>
        <time>2022-12-07T15:02:07Z</time>
      </trkpt>
      <trkpt lat="49.81951" lon="2.51345">
        <ele>41.2</ele>
        <time>2022-12-07T15:02:08Z</time>
      </trkpt>
      <trkpt lat="49.81951" lon="2.51345">
        <ele>41.2</ele>
        <time>2022-12-07T15:02:09Z</time>
      </trkpt>
      <trkpt lat="49.81951" lon="2.51345">
        <ele>41.2</ele>
        <time>2022-12-07T15:02:10Z</time>
      </trkpt>
      <trkpt lat="49.81951" lon="2.51345">
        <ele>41.2</ele>
        <time>2022-12-07T15:02:11Z</time>
      </trkpt>
      <trkpt lat="49.81951" lon="2.51345">
        <ele>41.2</ele>
        <time>2022-12-07T15:02:12Z</time>
      </trkpt>
      <trkpt lat="49.81951" lon="2.51345">
        <ele>41.2</ele>
        <time>2022-12-07T15:02:13Z</time>
      </trkpt>
      <trkpt lat="49.81951" lon="2.51345">
        <ele>41.2</ele>
        <time>2022-12-07T15:02:14Z</time>
      </trkpt>
      <trkpt lat="49.81951" lon="2.51345">
        <ele>41.2</ele>
        <time>2022-12-07T15:02:15Z</time>
      </trkpt>
      <trkpt lat="49.81951" lon="2.51345">
        <ele>41.2</ele>
        <time>2022-12-07T15:02:16Z</time>
      </trkpt>
      <trkpt lat="49.81951" lon="2.51345">
        <ele>41.2</ele>
        <time>2022-12-07T15:02:17Z</time>
      </trkpt>
      <trkpt lat="49.81951" lon="2.51345">
        <ele>41.2</ele>
        <time>2022-12-07T15:02:18Z</time>
      </trkpt>
      <trkpt lat="49.81951" lon="2.51345">
        <ele>41.2</ele>
        <time>2022-12-07T15:02:19Z</time>
      </trkpt>
      <trkpt lat="49.81951" lon="2.51345">
        <ele>41.2</ele>
        <time>2022-12-07T15:02:20Z</time>
      </trkpt>
      <trkpt lat="49.81951" lon="2.51345">
        <ele>41.2</ele>
        <time>2022-12-07T15:02:21Z</time>
      </trkpt>
      <trkpt lat="49.81951" lon="2.51345">
        <ele>41.2</ele>
        <time>2022-12-07T15:02:22Z</time>
      </trkpt>
      <trkpt lat="49.81951" lon="2.51345">
        <ele>41.2</ele>
        <time>2022-12-07T15:02:23Z</time>
      </trkpt>
      <trkpt lat="49.81949" lon="2.51346">
        <ele>41.2</ele>
        <time>2022-12-07T15:02:24Z</time>
      </trkpt>
      <trkpt lat="49.81949" lon="2.51347">
        <ele>41.2</ele>
        <time>2022-12-07T15:02:25Z</time>
      </trkpt>
      <trkpt lat="49.8195" lon="2.51346">
        <ele>41.2</ele>
        <time>2022-12-07T15:02:26Z</time>
      </trkpt>
      <trkpt lat="49.8195" lon="2.51346">
        <ele>41.2</ele>
        <time>2022-12-07T15:02:27Z</time>
      </trkpt>
      <trkpt lat="49.81951" lon="2.51346">
        <ele>41.2</ele>
        <time>2022-12-07T15:02:28Z</time>
      </trkpt>
      <trkpt lat="49.81951" lon="2.51347">
        <ele>41.2</ele>
        <time>2022-12-07T15:02:29Z</time>
      </trkpt>
      <trkpt lat="49.81952" lon="2.51346">
        <ele>41.1</ele>
        <time>2022-12-07T15:02:30Z</time>
      </trkpt>
      <trkpt lat="49.81952" lon="2.51345">
        <ele>41.1</ele>
        <time>2022-12-07T15:02:31Z</time>
      </trkpt>
      <trkpt lat="49.81951" lon="2.51344">
        <ele>41.1</ele>
        <time>2022-12-07T15:02:32Z</time>
      </trkpt>
      <trkpt lat="49.8195" lon="2.51344">
        <ele>41.1</ele>
        <time>2022-12-07T15:02:33Z</time>
      </trkpt>
      <trkpt lat="49.8195" lon="2.51344">
        <ele>41.1</ele>
        <time>2022-12-07T15:02:34Z</time>
      </trkpt>
      <trkpt lat="49.81949" lon="2.51344">
        <ele>41.1</ele>
        <time>2022-12-07T15:02:35Z</time>
      </trkpt>
      <trkpt lat="49.81949" lon="2.51344">
        <ele>41.1</ele>
        <time>2022-12-07T15:02:36Z</time>
      </trkpt>
      <trkpt lat="49.81949" lon="2.51344">
        <ele>41.1</ele>
        <time>2022-12-07T15:02:37Z</time>
      </trkpt>
      <trkpt lat="49.81949" lon="2.51344">
        <ele>41.1</ele>
        <time>2022-12-07T15:02:38Z</time>
      </trkpt>
      <trkpt lat="49.81949" lon="2.51344">
        <ele>41.1</ele>
        <time>2022-12-07T15:02:39Z</time>
      </trkpt>
      <trkpt lat="49.81949" lon="2.51344">
        <ele>41.1</ele>
        <time>2022-12-07T15:02:40Z</time>
      </trkpt>
      <trkpt lat="49.81949" lon="2.51344">
        <ele>41.1</ele>
        <time>2022-12-07T15:02:41Z</time>
      </trkpt>
      <trkpt lat="49.81949" lon="2.51344">
        <ele>41.1</ele>
        <time>2022-12-07T15:02:42Z</time>
      </trkpt>
      <trkpt lat="49.81949" lon="2.51344">
        <ele>41.1</ele>
        <time>2022-12-07T15:02:43Z</time>
      </trkpt>
      <trkpt lat="49.81949" lon="2.51344">
        <ele>41.1</ele>
        <time>2022-12-07T15:02:44Z</time>
      </trkpt>
      <trkpt lat="49.81949" lon="2.51343">
        <ele>41.1</ele>
        <time>2022-12-07T15:02:45Z</time>
      </trkpt>
      <trkpt lat="49.81948" lon="2.51343">
        <ele>41.1</ele>
        <time>2022-12-07T15:02:46Z</time>
      </trkpt>
      <trkpt lat="49.81948" lon="2.51343">
        <ele>41.1</ele>
        <time>2022-12-07T15:02:47Z</time>
      </trkpt>
      <trkpt lat="49.81948" lon="2.51343">
        <ele>41.1</ele>
        <time>2022-12-07T15:02:48Z</time>
      </trkpt>
      <trkpt lat="49.81949" lon="2.51343">
        <ele>41.1</ele>
        <time>2022-12-07T15:02:49Z</time>
      </trkpt>
      <trkpt lat="49.81949" lon="2.51343">
        <ele>41.1</ele>
        <time>2022-12-07T15:02:50Z</time>
      </trkpt>
      <trkpt lat="49.81949" lon="2.51343">
        <ele>41.1</ele>
        <time>2022-12-07T15:02:51Z</time>
      </trkpt>
      <trkpt lat="49.81949" lon="2.51343">
        <ele>41.1</ele>
        <time>2022-12-07T15:02:52Z</time>
      </trkpt>
      <trkpt lat="49.81949" lon="2.51343">
        <ele>41.1</ele>
        <time>2022-12-07T15:02:53Z</time>
      </trkpt>
      <trkpt lat="49.81949" lon="2.51343">
        <ele>41.1</ele>
        <time>2022-12-07T15:02:54Z</time>
      </trkpt>
      <trkpt lat="49.81949" lon="2.51343">
        <ele>41.1</ele>
        <time>2022-12-07T15:02:55Z</time>
      </trkpt>
      <trkpt lat="49.81949" lon="2.51344">
        <ele>41.1</ele>
        <time>2022-12-07T15:02:56Z</time>
      </trkpt>
      <trkpt lat="49.81949" lon="2.51344">
        <ele>41.1</ele>
        <time>2022-12-07T15:02:57Z</time>
      </trkpt>
      <trkpt lat="49.81949" lon="2.51344">
        <ele>41</ele>
        <time>2022-12-07T15:02:58Z</time>
      </trkpt>
      <trkpt lat="49.81949" lon="2.51343">
        <ele>41</ele>
        <time>2022-12-07T15:02:59Z</time>
      </trkpt>
      <trkpt lat="49.81949" lon="2.51342">
        <ele>41</ele>
        <time>2022-12-07T15:03:00Z</time>
      </trkpt>
      <trkpt lat="49.8195" lon="2.51342">
        <ele>41</ele>
        <time>2022-12-07T15:03:01Z</time>
      </trkpt>
      <trkpt lat="49.81951" lon="2.51341">
        <ele>41</ele>
        <time>2022-12-07T15:03:02Z</time>
      </trkpt>
      <trkpt lat="49.81952" lon="2.5134">
        <ele>41</ele>
        <time>2022-12-07T15:03:03Z</time>
      </trkpt>
      <trkpt lat="49.81953" lon="2.51339">
        <ele>41</ele>
        <time>2022-12-07T15:03:04Z</time>
      </trkpt>
      <trkpt lat="49.81954" lon="2.51338">
        <ele>40.9</ele>
        <time>2022-12-07T15:03:05Z</time>
      </trkpt>
      <trkpt lat="49.81955" lon="2.51337">
        <ele>40.9</ele>
        <time>2022-12-07T15:03:06Z</time>
      </trkpt>
      <trkpt lat="49.81956" lon="2.51336">
        <ele>40.9</ele>
        <time>2022-12-07T15:03:07Z</time>
      </trkpt>
      <trkpt lat="49.81958" lon="2.51335">
        <ele>40.8</ele>
        <time>2022-12-07T15:03:08Z</time>
      </trkpt>
      <trkpt lat="49.81959" lon="2.51334">
        <ele>40.8</ele>
        <time>2022-12-07T15:03:09Z</time>
      </trkpt>
      <trkpt lat="49.81961" lon="2.51334">
        <ele>40.8</ele>
        <time>2022-12-07T15:03:10Z</time>
      </trkpt>
      <trkpt lat="49.81963" lon="2.51333">
        <ele>40.7</ele>
        <time>2022-12-07T15:03:11Z</time>
      </trkpt>
      <trkpt lat="49.81964" lon="2.51333">
        <ele>40.7</ele>
        <time>2022-12-07T15:03:12Z</time>
      </trkpt>
      <trkpt lat="49.81965" lon="2.51333">
        <ele>40.7</ele>
        <time>2022-12-07T15:03:13Z</time>
      </trkpt>
      <trkpt lat="49.81967" lon="2.51332">
        <ele>40.7</ele>
        <time>2022-12-07T15:03:14Z</time>
      </trkpt>
      <trkpt lat="49.81969" lon="2.51332">
        <ele>40.6</ele>
        <time>2022-12-07T15:03:15Z</time>
      </trkpt>
      <trkpt lat="49.8197" lon="2.51331">
        <ele>40.6</ele>
        <time>2022-12-07T15:03:16Z</time>
      </trkpt>
      <trkpt lat="49.81971" lon="2.51331">
        <ele>40.6</ele>
        <time>2022-12-07T15:03:17Z</time>
      </trkpt>
      <trkpt lat="49.81973" lon="2.5133">
        <ele>40.5</ele>
        <time>2022-12-07T15:03:18Z</time>
      </trkpt>
      <trkpt lat="49.81975" lon="2.5133">
        <ele>40.5</ele>
        <time>2022-12-07T15:03:19Z</time>
      </trkpt>
      <trkpt lat="49.81976" lon="2.51329">
        <ele>40.5</ele>
        <time>2022-12-07T15:03:20Z</time>
      </trkpt>
      <trkpt lat="49.81978" lon="2.51328">
        <ele>40.4</ele>
        <time>2022-12-07T15:03:21Z</time>
      </trkpt>
      <trkpt lat="49.81979" lon="2.51328">
        <ele>40.4</ele>
        <time>2022-12-07T15:03:22Z</time>
      </trkpt>
      <trkpt lat="49.8198" lon="2.51327">
        <ele>40.4</ele>
        <time>2022-12-07T15:03:23Z</time>
      </trkpt>
      <trkpt lat="49.81982" lon="2.51326">
        <ele>40.4</ele>
        <time>2022-12-07T15:03:24Z</time>
      </trkpt>
      <trkpt lat="49.81983" lon="2.51325">
        <ele>40.3</ele>
        <time>2022-12-07T15:03:25Z</time>
      </trkpt>
      <trkpt lat="49.81985" lon="2.51325">
        <ele>40.3</ele>
        <time>2022-12-07T15:03:26Z</time>
      </trkpt>
      <trkpt lat="49.81986" lon="2.51324">
        <ele>40.3</ele>
        <time>2022-12-07T15:03:27Z</time>
      </trkpt>
      <trkpt lat="49.81988" lon="2.51323">
        <ele>40.3</ele>
        <time>2022-12-07T15:03:28Z</time>
      </trkpt>
      <trkpt lat="49.81989" lon="2.51322">
        <ele>40.3</ele>
        <time>2022-12-07T15:03:29Z</time>
      </trkpt>
      <trkpt lat="49.8199" lon="2.51321">
        <ele>40.3</ele>
        <time>2022-12-07T15:03:30Z</time>
      </trkpt>
      <trkpt lat="49.81991" lon="2.51321">
        <ele>40.2</ele>
        <time>2022-12-07T15:03:31Z</time>
      </trkpt>
      <trkpt lat="49.81992" lon="2.5132">
        <ele>40.2</ele>
        <time>2022-12-07T15:03:32Z</time>
      </trkpt>
      <trkpt lat="49.81993" lon="2.51319">
        <ele>40.2</ele>
        <time>2022-12-07T15:03:33Z</time>
      </trkpt>
      <trkpt lat="49.81995" lon="2.51319">
        <ele>40.2</ele>
        <time>2022-12-07T15:03:34Z</time>
      </trkpt>
      <trkpt lat="49.81996" lon="2.51318">
        <ele>40.2</ele>
        <time>2022-12-07T15:03:35Z</time>
      </trkpt>
      <trkpt lat="49.81998" lon="2.51318">
        <ele>40.2</ele>
        <time>2022-12-07T15:03:36Z</time>
      </trkpt>
      <trkpt lat="49.81999" lon="2.51317">
        <ele>40.2</ele>
        <time>2022-12-07T15:03:37Z</time>
      </trkpt>
      <trkpt lat="49.82" lon="2.51317">
        <ele>40.2</ele>
        <time>2022-12-07T15:03:38Z</time>
      </trkpt>
      <trkpt lat="49.82002" lon="2.51317">
        <ele>40.2</ele>
        <time>2022-12-07T15:03:39Z</time>
      </trkpt>
      <trkpt lat="49.82003" lon="2.51316">
        <ele>40.2</ele>
        <time>2022-12-07T15:03:40Z</time>
      </trkpt>
      <trkpt lat="49.82004" lon="2.51316">
        <ele>40.2</ele>
        <time>2022-12-07T15:03:41Z</time>
      </trkpt>
      <trkpt lat="49.82005" lon="2.51316">
        <ele>40.2</ele>
        <time>2022-12-07T15:03:42Z</time>
      </trkpt>
      <trkpt lat="49.82006" lon="2.51316">
        <ele>40.2</ele>
        <time>2022-12-07T15:03:43Z</time>
      </trkpt>
      <trkpt lat="49.82007" lon="2.51316">
        <ele>40.2</ele>
        <time>2022-12-07T15:03:44Z</time>
      </trkpt>
      <trkpt lat="49.82009" lon="2.51316">
        <ele>40.2</ele>
        <time>2022-12-07T15:03:45Z</time>
      </trkpt>
      <trkpt lat="49.8201" lon="2.51316">
        <ele>40.2</ele>
        <time>2022-12-07T15:03:46Z</time>
      </trkpt>
      <trkpt lat="49.82011" lon="2.51316">
        <ele>40.2</ele>
        <time>2022-12-07T15:03:47Z</time>
      </trkpt>
      <trkpt lat="49.82013" lon="2.51316">
        <ele>40.2</ele>
        <time>2022-12-07T15:03:48Z</time>
      </trkpt>
      <trkpt lat="49.82014" lon="2.51316">
        <ele>40.2</ele>
        <time>2022-12-07T15:03:49Z</time>
      </trkpt>
      <trkpt lat="49.82014" lon="2.51316">
        <ele>40.2</ele>
        <time>2022-12-07T15:03:50Z</time>
      </trkpt>
      <trkpt lat="49.82017" lon="2.51317">
        <ele>40.2</ele>
        <time>2022-12-07T15:03:51Z</time>
      </trkpt>
      <trkpt lat="49.82017" lon="2.51317">
        <ele>40.2</ele>
        <time>2022-12-07T15:03:52Z</time>
      </trkpt>
      <trkpt lat="49.82018" lon="2.51317">
        <ele>40.2</ele>
        <time>2022-12-07T15:03:53Z</time>
      </trkpt>
      <trkpt lat="49.8202" lon="2.51318">
        <ele>40.2</ele>
        <time>2022-12-07T15:03:54Z</time>
      </trkpt>
      <trkpt lat="49.82021" lon="2.51318">
        <ele>40.2</ele>
        <time>2022-12-07T15:03:55Z</time>
      </trkpt>
      <trkpt lat="49.82022" lon="2.51319">
        <ele>40.2</ele>
        <time>2022-12-07T15:03:56Z</time>
      </trkpt>
      <trkpt lat="49.82023" lon="2.51319">
        <ele>40.2</ele>
        <time>2022-12-07T15:03:57Z</time>
      </trkpt>
      <trkpt lat="49.82024" lon="2.5132">
        <ele>40.2</ele>
        <time>2022-12-07T15:03:58Z</time>
      </trkpt>
      <trkpt lat="49.82026" lon="2.51321">
        <ele>40.2</ele>
        <time>2022-12-07T15:03:59Z</time>
      </trkpt>
      <trkpt lat="49.82027" lon="2.51322">
        <ele>40.2</ele>
        <time>2022-12-07T15:04:00Z</time>
      </trkpt>
      <trkpt lat="49.82028" lon="2.51322">
        <ele>40.2</ele>
        <time>2022-12-07T15:04:01Z</time>
      </trkpt>
      <trkpt lat="49.8203" lon="2.51323">
        <ele>40.2</ele>
        <time>2022-12-07T15:04:02Z</time>
      </trkpt>
      <trkpt lat="49.82031" lon="2.51324">
        <ele>40.2</ele>
        <time>2022-12-07T15:04:03Z</time>
      </trkpt>
      <trkpt lat="49.82033" lon="2.51325">
        <ele>40.3</ele>
        <time>2022-12-07T15:04:04Z</time>
      </trkpt>
      <trkpt lat="49.82034" lon="2.51326">
        <ele>40.3</ele>
        <time>2022-12-07T15:04:05Z</time>
      </trkpt>
      <trkpt lat="49.82035" lon="2.51326">
        <ele>40.3</ele>
        <time>2022-12-07T15:04:06Z</time>
      </trkpt>
      <trkpt lat="49.82037" lon="2.51328">
        <ele>40.3</ele>
        <time>2022-12-07T15:04:07Z</time>
      </trkpt>
      <trkpt lat="49.82038" lon="2.51328">
        <ele>40.3</ele>
        <time>2022-12-07T15:04:08Z</time>
      </trkpt>
      <trkpt lat="49.82038" lon="2.51329">
        <ele>40.3</ele>
        <time>2022-12-07T15:04:09Z</time>
      </trkpt>
      <trkpt lat="49.8204" lon="2.5133">
        <ele>40.3</ele>
        <time>2022-12-07T15:04:10Z</time>
      </trkpt>
      <trkpt lat="49.82041" lon="2.51331">
        <ele>40.3</ele>
        <time>2022-12-07T15:04:11Z</time>
      </trkpt>
      <trkpt lat="49.82042" lon="2.51332">
        <ele>40.3</ele>
        <time>2022-12-07T15:04:12Z</time>
      </trkpt>
      <trkpt lat="49.82043" lon="2.51334">
        <ele>40.3</ele>
        <time>2022-12-07T15:04:13Z</time>
      </trkpt>
      <trkpt lat="49.82045" lon="2.51336">
        <ele>40.4</ele>
        <time>2022-12-07T15:04:14Z</time>
      </trkpt>
      <trkpt lat="49.82046" lon="2.51336">
        <ele>40.4</ele>
        <time>2022-12-07T15:04:15Z</time>
      </trkpt>
      <trkpt lat="49.82047" lon="2.51337">
        <ele>40.4</ele>
        <time>2022-12-07T15:04:16Z</time>
      </trkpt>
      <trkpt lat="49.82048" lon="2.51339">
        <ele>40.4</ele>
        <time>2022-12-07T15:04:17Z</time>
      </trkpt>
      <trkpt lat="49.82049" lon="2.5134">
        <ele>40.4</ele>
        <time>2022-12-07T15:04:18Z</time>
      </trkpt>
      <trkpt lat="49.8205" lon="2.5134">
        <ele>40.4</ele>
        <time>2022-12-07T15:04:19Z</time>
      </trkpt>
      <trkpt lat="49.82051" lon="2.51341">
        <ele>40.4</ele>
        <time>2022-12-07T15:04:20Z</time>
      </trkpt>
      <trkpt lat="49.82052" lon="2.51342">
        <ele>40.4</ele>
        <time>2022-12-07T15:04:21Z</time>
      </trkpt>
      <trkpt lat="49.82053" lon="2.51343">
        <ele>40.4</ele>
        <time>2022-12-07T15:04:22Z</time>
      </trkpt>
      <trkpt lat="49.82055" lon="2.51344">
        <ele>40.4</ele>
        <time>2022-12-07T15:04:23Z</time>
      </trkpt>
      <trkpt lat="49.82056" lon="2.51345">
        <ele>40.4</ele>
        <time>2022-12-07T15:04:24Z</time>
      </trkpt>
      <trkpt lat="49.82057" lon="2.51347">
        <ele>40.4</ele>
        <time>2022-12-07T15:04:25Z</time>
      </trkpt>
      <trkpt lat="49.82059" lon="2.51348">
        <ele>40.5</ele>
        <time>2022-12-07T15:04:26Z</time>
      </trkpt>
      <trkpt lat="49.82059" lon="2.51349">
        <ele>40.5</ele>
        <time>2022-12-07T15:04:27Z</time>
      </trkpt>
      <trkpt lat="49.8206" lon="2.5135">
        <ele>40.5</ele>
        <time>2022-12-07T15:04:28Z</time>
      </trkpt>
      <trkpt lat="49.82061" lon="2.51353">
        <ele>40.5</ele>
        <time>2022-12-07T15:04:29Z</time>
      </trkpt>
      <trkpt lat="49.82062" lon="2.51354">
        <ele>40.5</ele>
        <time>2022-12-07T15:04:30Z</time>
      </trkpt>
      <trkpt lat="49.82062" lon="2.51355">
        <ele>40.5</ele>
        <time>2022-12-07T15:04:31Z</time>
      </trkpt>
      <trkpt lat="49.82064" lon="2.51358">
        <ele>40.5</ele>
        <time>2022-12-07T15:04:32Z</time>
      </trkpt>
      <trkpt lat="49.82064" lon="2.51359">
        <ele>40.5</ele>
        <time>2022-12-07T15:04:33Z</time>
      </trkpt>
      <trkpt lat="49.82065" lon="2.5136">
        <ele>40.5</ele>
        <time>2022-12-07T15:04:34Z</time>
      </trkpt>
      <trkpt lat="49.82066" lon="2.51361">
        <ele>40.5</ele>
        <time>2022-12-07T15:04:35Z</time>
      </trkpt>
      <trkpt lat="49.82067" lon="2.51363">
        <ele>40.5</ele>
        <time>2022-12-07T15:04:36Z</time>
      </trkpt>
      <trkpt lat="49.82069" lon="2.51365">
        <ele>40.5</ele>
        <time>2022-12-07T15:04:37Z</time>
      </trkpt>
      <trkpt lat="49.8207" lon="2.51366">
        <ele>40.5</ele>
        <time>2022-12-07T15:04:38Z</time>
      </trkpt>
      <trkpt lat="49.82071" lon="2.51367">
        <ele>40.5</ele>
        <time>2022-12-07T15:04:39Z</time>
      </trkpt>
      <trkpt lat="49.82072" lon="2.51369">
        <ele>40.5</ele>
        <time>2022-12-07T15:04:40Z</time>
      </trkpt>
      <trkpt lat="49.82073" lon="2.5137">
        <ele>40.5</ele>
        <time>2022-12-07T15:04:41Z</time>
      </trkpt>
      <trkpt lat="49.82074" lon="2.51371">
        <ele>40.5</ele>
        <time>2022-12-07T15:04:42Z</time>
      </trkpt>
      <trkpt lat="49.82075" lon="2.51372">
        <ele>40.5</ele>
        <time>2022-12-07T15:04:43Z</time>
      </trkpt>
      <trkpt lat="49.82076" lon="2.51373">
        <ele>40.5</ele>
        <time>2022-12-07T15:04:44Z</time>
      </trkpt>
      <trkpt lat="49.82077" lon="2.51374">
        <ele>40.5</ele>
        <time>2022-12-07T15:04:45Z</time>
      </trkpt>
      <trkpt lat="49.82078" lon="2.51375">
        <ele>40.5</ele>
        <time>2022-12-07T15:04:46Z</time>
      </trkpt>
      <trkpt lat="49.82079" lon="2.51376">
        <ele>40.5</ele>
        <time>2022-12-07T15:04:47Z</time>
      </trkpt>
      <trkpt lat="49.8208" lon="2.51376">
        <ele>40.5</ele>
        <time>2022-12-07T15:04:48Z</time>
      </trkpt>
      <trkpt lat="49.82081" lon="2.51377">
        <ele>40.6</ele>
        <time>2022-12-07T15:04:49Z</time>
      </trkpt>
      <trkpt lat="49.82082" lon="2.51377">
        <ele>40.6</ele>
        <time>2022-12-07T15:04:50Z</time>
      </trkpt>
      <trkpt lat="49.82083" lon="2.51378">
        <ele>40.6</ele>
        <time>2022-12-07T15:04:51Z</time>
      </trkpt>
      <trkpt lat="49.82085" lon="2.51379">
        <ele>40.6</ele>
        <time>2022-12-07T15:04:52Z</time>
      </trkpt>
      <trkpt lat="49.82086" lon="2.51379">
        <ele>40.6</ele>
        <time>2022-12-07T15:04:53Z</time>
      </trkpt>
      <trkpt lat="49.82087" lon="2.5138">
        <ele>40.6</ele>
        <time>2022-12-07T15:04:54Z</time>
      </trkpt>
      <trkpt lat="49.82088" lon="2.5138">
        <ele>40.6</ele>
        <time>2022-12-07T15:04:55Z</time>
      </trkpt>
      <trkpt lat="49.82089" lon="2.5138">
        <ele>40.6</ele>
        <time>2022-12-07T15:04:56Z</time>
      </trkpt>
      <trkpt lat="49.8209" lon="2.5138">
        <ele>40.6</ele>
        <time>2022-12-07T15:04:57Z</time>
      </trkpt>
      <trkpt lat="49.82091" lon="2.5138">
        <ele>40.6</ele>
        <time>2022-12-07T15:04:58Z</time>
      </trkpt>
      <trkpt lat="49.82092" lon="2.5138">
        <ele>40.6</ele>
        <time>2022-12-07T15:04:59Z</time>
      </trkpt>
      <trkpt lat="49.82093" lon="2.5138">
        <ele>40.6</ele>
        <time>2022-12-07T15:05:00Z</time>
      </trkpt>
      <trkpt lat="49.82094" lon="2.5138">
        <ele>40.6</ele>
        <time>2022-12-07T15:05:01Z</time>
      </trkpt>
      <trkpt lat="49.82095" lon="2.5138">
        <ele>40.6</ele>
        <time>2022-12-07T15:05:02Z</time>
      </trkpt>
      <trkpt lat="49.82096" lon="2.5138">
        <ele>40.6</ele>
        <time>2022-12-07T15:05:03Z</time>
      </trkpt>
      <trkpt lat="49.82097" lon="2.51379">
        <ele>40.6</ele>
        <time>2022-12-07T15:05:04Z</time>
      </trkpt>
      <trkpt lat="49.82098" lon="2.51379">
        <ele>40.6</ele>
        <time>2022-12-07T15:05:05Z</time>
      </trkpt>
      <trkpt lat="49.82099" lon="2.51379">
        <ele>40.6</ele>
        <time>2022-12-07T15:05:06Z</time>
      </trkpt>
      <trkpt lat="49.821" lon="2.51379">
        <ele>40.6</ele>
        <time>2022-12-07T15:05:07Z</time>
      </trkpt>
      <trkpt lat="49.82102" lon="2.51378">
        <ele>40.6</ele>
        <time>2022-12-07T15:05:08Z</time>
      </trkpt>
      <trkpt lat="49.82102" lon="2.51378">
        <ele>40.6</ele>
        <time>2022-12-07T15:05:09Z</time>
      </trkpt>
      <trkpt lat="49.82103" lon="2.51377">
        <ele>40.6</ele>
        <time>2022-12-07T15:05:10Z</time>
      </trkpt>
      <trkpt lat="49.82105" lon="2.51377">
        <ele>40.6</ele>
        <time>2022-12-07T15:05:11Z</time>
      </trkpt>
      <trkpt lat="49.82106" lon="2.51376">
        <ele>40.6</ele>
        <time>2022-12-07T15:05:12Z</time>
      </trkpt>
      <trkpt lat="49.82106" lon="2.51375">
        <ele>40.6</ele>
        <time>2022-12-07T15:05:13Z</time>
      </trkpt>
      <trkpt lat="49.82107" lon="2.51374">
        <ele>40.6</ele>
        <time>2022-12-07T15:05:14Z</time>
      </trkpt>
      <trkpt lat="49.82108" lon="2.51373">
        <ele>40.6</ele>
        <time>2022-12-07T15:05:15Z</time>
      </trkpt>
      <trkpt lat="49.82108" lon="2.51372">
        <ele>40.6</ele>
        <time>2022-12-07T15:05:16Z</time>
      </trkpt>
      <trkpt lat="49.82109" lon="2.5137">
        <ele>40.6</ele>
        <time>2022-12-07T15:05:17Z</time>
      </trkpt>
      <trkpt lat="49.8211" lon="2.51369">
        <ele>40.6</ele>
        <time>2022-12-07T15:05:18Z</time>
      </trkpt>
      <trkpt lat="49.8211" lon="2.51367">
        <ele>40.6</ele>
        <time>2022-12-07T15:05:19Z</time>
      </trkpt>
      <trkpt lat="49.82111" lon="2.51366">
        <ele>40.6</ele>
        <time>2022-12-07T15:05:20Z</time>
      </trkpt>
      <trkpt lat="49.82111" lon="2.51365">
        <ele>40.7</ele>
        <time>2022-12-07T15:05:21Z</time>
      </trkpt>
      <trkpt lat="49.82112" lon="2.51364">
        <ele>40.7</ele>
        <time>2022-12-07T15:05:22Z</time>
      </trkpt>
      <trkpt lat="49.82113" lon="2.51363">
        <ele>40.7</ele>
        <time>2022-12-07T15:05:23Z</time>
      </trkpt>
      <trkpt lat="49.82114" lon="2.51362">
        <ele>40.7</ele>
        <time>2022-12-07T15:05:24Z</time>
      </trkpt>
      <trkpt lat="49.82115" lon="2.51361">
        <ele>40.7</ele>
        <time>2022-12-07T15:05:25Z</time>
      </trkpt>
      <trkpt lat="49.82116" lon="2.51361">
        <ele>40.7</ele>
        <time>2022-12-07T15:05:26Z</time>
      </trkpt>
      <trkpt lat="49.82117" lon="2.5136">
        <ele>40.7</ele>
        <time>2022-12-07T15:05:27Z</time>
      </trkpt>
      <trkpt lat="49.82118" lon="2.5136">
        <ele>40.7</ele>
        <time>2022-12-07T15:05:28Z</time>
      </trkpt>
      <trkpt lat="49.82119" lon="2.51359">
        <ele>40.7</ele>
        <time>2022-12-07T15:05:29Z</time>
      </trkpt>
      <trkpt lat="49.8212" lon="2.51359">
        <ele>40.7</ele>
        <time>2022-12-07T15:05:30Z</time>
      </trkpt>
      <trkpt lat="49.82121" lon="2.51359">
        <ele>40.7</ele>
        <time>2022-12-07T15:05:31Z</time>
      </trkpt>
      <trkpt lat="49.82122" lon="2.51358">
        <ele>40.7</ele>
        <time>2022-12-07T15:05:32Z</time>
      </trkpt>
      <trkpt lat="49.82123" lon="2.51358">
        <ele>40.7</ele>
        <time>2022-12-07T15:05:33Z</time>
      </trkpt>
      <trkpt lat="49.82124" lon="2.51358">
        <ele>40.7</ele>
        <time>2022-12-07T15:05:34Z</time>
      </trkpt>
      <trkpt lat="49.82125" lon="2.51357">
        <ele>40.7</ele>
        <time>2022-12-07T15:05:35Z</time>
      </trkpt>
      <trkpt lat="49.82125" lon="2.51356">
        <ele>40.7</ele>
        <time>2022-12-07T15:05:36Z</time>
      </trkpt>
      <trkpt lat="49.82126" lon="2.51355">
        <ele>40.7</ele>
        <time>2022-12-07T15:05:37Z</time>
      </trkpt>
      <trkpt lat="49.82127" lon="2.51354">
        <ele>40.7</ele>
        <time>2022-12-07T15:05:38Z</time>
      </trkpt>
      <trkpt lat="49.82127" lon="2.51353">
        <ele>40.7</ele>
        <time>2022-12-07T15:05:39Z</time>
      </trkpt>
      <trkpt lat="49.82128" lon="2.51352">
        <ele>40.7</ele>
        <time>2022-12-07T15:05:40Z</time>
      </trkpt>
      <trkpt lat="49.82128" lon="2.51351">
        <ele>40.7</ele>
        <time>2022-12-07T15:05:41Z</time>
      </trkpt>
      <trkpt lat="49.82129" lon="2.5135">
        <ele>40.7</ele>
        <time>2022-12-07T15:05:42Z</time>
      </trkpt>
      <trkpt lat="49.8213" lon="2.51349">
        <ele>40.7</ele>
        <time>2022-12-07T15:05:43Z</time>
      </trkpt>
      <trkpt lat="49.82131" lon="2.51348">
        <ele>40.7</ele>
        <time>2022-12-07T15:05:44Z</time>
      </trkpt>
      <trkpt lat="49.82132" lon="2.51347">
        <ele>40.7</ele>
        <time>2022-12-07T15:05:45Z</time>
      </trkpt>
      <trkpt lat="49.82133" lon="2.51346">
        <ele>40.7</ele>
        <time>2022-12-07T15:05:46Z</time>
      </trkpt>
      <trkpt lat="49.82134" lon="2.51345">
        <ele>40.7</ele>
        <time>2022-12-07T15:05:47Z</time>
      </trkpt>
      <trkpt lat="49.82136" lon="2.51344">
        <ele>40.7</ele>
        <time>2022-12-07T15:05:48Z</time>
      </trkpt>
      <trkpt lat="49.82137" lon="2.51342">
        <ele>40.7</ele>
        <time>2022-12-07T15:05:49Z</time>
      </trkpt>
      <trkpt lat="49.82138" lon="2.51341">
        <ele>40.7</ele>
        <time>2022-12-07T15:05:50Z</time>
      </trkpt>
      <trkpt lat="49.82139" lon="2.51341">
        <ele>40.7</ele>
        <time>2022-12-07T15:05:51Z</time>
      </trkpt>
      <trkpt lat="49.8214" lon="2.5134">
        <ele>40.7</ele>
        <time>2022-12-07T15:05:52Z</time>
      </trkpt>
      <trkpt lat="49.82141" lon="2.51339">
        <ele>40.8</ele>
        <time>2022-12-07T15:05:53Z</time>
      </trkpt>
      <trkpt lat="49.82141" lon="2.51338">
        <ele>40.8</ele>
        <time>2022-12-07T15:05:54Z</time>
      </trkpt>
      <trkpt lat="49.82142" lon="2.51337">
        <ele>40.8</ele>
        <time>2022-12-07T15:05:55Z</time>
      </trkpt>
      <trkpt lat="49.82143" lon="2.51336">
        <ele>40.8</ele>
        <time>2022-12-07T15:05:56Z</time>
      </trkpt>
      <trkpt lat="49.82145" lon="2.51335">
        <ele>40.8</ele>
        <time>2022-12-07T15:05:57Z</time>
      </trkpt>
      <trkpt lat="49.82145" lon="2.51334">
        <ele>40.8</ele>
        <time>2022-12-07T15:05:58Z</time>
      </trkpt>
      <trkpt lat="49.82146" lon="2.51334">
        <ele>40.8</ele>
        <time>2022-12-07T15:05:59Z</time>
      </trkpt>
      <trkpt lat="49.82147" lon="2.51333">
        <ele>40.8</ele>
        <time>2022-12-07T15:06:00Z</time>
      </trkpt>
      <trkpt lat="49.82149" lon="2.51332">
        <ele>40.8</ele>
        <time>2022-12-07T15:06:01Z</time>
      </trkpt>
      <trkpt lat="49.8215" lon="2.51331">
        <ele>40.8</ele>
        <time>2022-12-07T15:06:02Z</time>
      </trkpt>
      <trkpt lat="49.82151" lon="2.51331">
        <ele>40.8</ele>
        <time>2022-12-07T15:06:03Z</time>
      </trkpt>
      <trkpt lat="49.82153" lon="2.5133">
        <ele>40.8</ele>
        <time>2022-12-07T15:06:04Z</time>
      </trkpt>
      <trkpt lat="49.82154" lon="2.5133">
        <ele>40.8</ele>
        <time>2022-12-07T15:06:05Z</time>
      </trkpt>
      <trkpt lat="49.82155" lon="2.5133">
        <ele>40.8</ele>
        <time>2022-12-07T15:06:06Z</time>
      </trkpt>
      <trkpt lat="49.82156" lon="2.5133">
        <ele>40.9</ele>
        <time>2022-12-07T15:06:07Z</time>
      </trkpt>
      <trkpt lat="49.82158" lon="2.51329">
        <ele>40.9</ele>
        <time>2022-12-07T15:06:08Z</time>
      </trkpt>
      <trkpt lat="49.82159" lon="2.51328">
        <ele>40.9</ele>
        <time>2022-12-07T15:06:09Z</time>
      </trkpt>
      <trkpt lat="49.8216" lon="2.51328">
        <ele>40.9</ele>
        <time>2022-12-07T15:06:10Z</time>
      </trkpt>
      <trkpt lat="49.82162" lon="2.51327">
        <ele>40.9</ele>
        <time>2022-12-07T15:06:11Z</time>
      </trkpt>
      <trkpt lat="49.82163" lon="2.51326">
        <ele>40.9</ele>
        <time>2022-12-07T15:06:12Z</time>
      </trkpt>
      <trkpt lat="49.82165" lon="2.51325">
        <ele>40.9</ele>
        <time>2022-12-07T15:06:13Z</time>
      </trkpt>
      <trkpt lat="49.82166" lon="2.51324">
        <ele>40.9</ele>
        <time>2022-12-07T15:06:14Z</time>
      </trkpt>
      <trkpt lat="49.82167" lon="2.51323">
        <ele>40.9</ele>
        <time>2022-12-07T15:06:15Z</time>
      </trkpt>
      <trkpt lat="49.82168" lon="2.51322">
        <ele>40.9</ele>
        <time>2022-12-07T15:06:16Z</time>
      </trkpt>
      <trkpt lat="49.8217" lon="2.51321">
        <ele>40.9</ele>
        <time>2022-12-07T15:06:17Z</time>
      </trkpt>
      <trkpt lat="49.82171" lon="2.5132">
        <ele>40.9</ele>
        <time>2022-12-07T15:06:18Z</time>
      </trkpt>
      <trkpt lat="49.82172" lon="2.51319">
        <ele>41</ele>
        <time>2022-12-07T15:06:19Z</time>
      </trkpt>
      <trkpt lat="49.82174" lon="2.51318">
        <ele>41</ele>
        <time>2022-12-07T15:06:20Z</time>
      </trkpt>
      <trkpt lat="49.82175" lon="2.51318">
        <ele>41</ele>
        <time>2022-12-07T15:06:21Z</time>
      </trkpt>
      <trkpt lat="49.82175" lon="2.51317">
        <ele>41</ele>
        <time>2022-12-07T15:06:22Z</time>
      </trkpt>
      <trkpt lat="49.82176" lon="2.51317">
        <ele>41</ele>
        <time>2022-12-07T15:06:23Z</time>
      </trkpt>
      <trkpt lat="49.82177" lon="2.51316">
        <ele>41</ele>
        <time>2022-12-07T15:06:24Z</time>
      </trkpt>
      <trkpt lat="49.82178" lon="2.51315">
        <ele>41</ele>
        <time>2022-12-07T15:06:25Z</time>
      </trkpt>
      <trkpt lat="49.82179" lon="2.51315">
        <ele>41</ele>
        <time>2022-12-07T15:06:26Z</time>
      </trkpt>
      <trkpt lat="49.8218" lon="2.51314">
        <ele>41</ele>
        <time>2022-12-07T15:06:27Z</time>
      </trkpt>
      <trkpt lat="49.82181" lon="2.51313">
        <ele>41</ele>
        <time>2022-12-07T15:06:28Z</time>
      </trkpt>
      <trkpt lat="49.82182" lon="2.51312">
        <ele>41</ele>
        <time>2022-12-07T15:06:29Z</time>
      </trkpt>
      <trkpt lat="49.82183" lon="2.51311">
        <ele>41</ele>
        <time>2022-12-07T15:06:30Z</time>
      </trkpt>
      <trkpt lat="49.82184" lon="2.51311">
        <ele>41</ele>
        <time>2022-12-07T15:06:31Z</time>
      </trkpt>
      <trkpt lat="49.82185" lon="2.5131">
        <ele>41</ele>
        <time>2022-12-07T15:06:32Z</time>
      </trkpt>
      <trkpt lat="49.82186" lon="2.51309">
        <ele>41</ele>
        <time>2022-12-07T15:06:33Z</time>
      </trkpt>
      <trkpt lat="49.82187" lon="2.51308">
        <ele>41</ele>
        <time>2022-12-07T15:06:34Z</time>
      </trkpt>
      <trkpt lat="49.82188" lon="2.51308">
        <ele>41</ele>
        <time>2022-12-07T15:06:35Z</time>
      </trkpt>
      <trkpt lat="49.82189" lon="2.51307">
        <ele>41</ele>
        <time>2022-12-07T15:06:36Z</time>
      </trkpt>
      <trkpt lat="49.8219" lon="2.51307">
        <ele>41</ele>
        <time>2022-12-07T15:06:37Z</time>
      </trkpt>
      <trkpt lat="49.82191" lon="2.51306">
        <ele>41</ele>
        <time>2022-12-07T15:06:38Z</time>
      </trkpt>
      <trkpt lat="49.82192" lon="2.51306">
        <ele>41</ele>
        <time>2022-12-07T15:06:39Z</time>
      </trkpt>
      <trkpt lat="49.82192" lon="2.51305">
        <ele>41</ele>
        <time>2022-12-07T15:06:40Z</time>
      </trkpt>
      <trkpt lat="49.82193" lon="2.51305">
        <ele>41</ele>
        <time>2022-12-07T15:06:41Z</time>
      </trkpt>
      <trkpt lat="49.82194" lon="2.51305">
        <ele>41</ele>
        <time>2022-12-07T15:06:42Z</time>
      </trkpt>
      <trkpt lat="49.82195" lon="2.51304">
        <ele>41</ele>
        <time>2022-12-07T15:06:43Z</time>
      </trkpt>
      <trkpt lat="49.82196" lon="2.51304">
        <ele>41.1</ele>
        <time>2022-12-07T15:06:44Z</time>
      </trkpt>
      <trkpt lat="49.82196" lon="2.51304">
        <ele>41.1</ele>
        <time>2022-12-07T15:06:45Z</time>
      </trkpt>
      <trkpt lat="49.82197" lon="2.51304">
        <ele>41.1</ele>
        <time>2022-12-07T15:06:46Z</time>
      </trkpt>
      <trkpt lat="49.82198" lon="2.51304">
        <ele>41.1</ele>
        <time>2022-12-07T15:06:47Z</time>
      </trkpt>
      <trkpt lat="49.82199" lon="2.51304">
        <ele>41.1</ele>
        <time>2022-12-07T15:06:48Z</time>
      </trkpt>
      <trkpt lat="49.822" lon="2.51304">
        <ele>41.1</ele>
        <time>2022-12-07T15:06:49Z</time>
      </trkpt>
      <trkpt lat="49.822" lon="2.51303">
        <ele>41.1</ele>
        <time>2022-12-07T15:06:50Z</time>
      </trkpt>
      <trkpt lat="49.82201" lon="2.51303">
        <ele>41.1</ele>
        <time>2022-12-07T15:06:51Z</time>
      </trkpt>
      <trkpt lat="49.82202" lon="2.51303">
        <ele>41.1</ele>
        <time>2022-12-07T15:06:52Z</time>
      </trkpt>
      <trkpt lat="49.82203" lon="2.51302">
        <ele>41.1</ele>
        <time>2022-12-07T15:06:53Z</time>
      </trkpt>
      <trkpt lat="49.82204" lon="2.51302">
        <ele>41.1</ele>
        <time>2022-12-07T15:06:54Z</time>
      </trkpt>
      <trkpt lat="49.82205" lon="2.51302">
        <ele>41.1</ele>
        <time>2022-12-07T15:06:55Z</time>
      </trkpt>
      <trkpt lat="49.82206" lon="2.51301">
        <ele>41.1</ele>
        <time>2022-12-07T15:06:56Z</time>
      </trkpt>
      <trkpt lat="49.82207" lon="2.51301">
        <ele>41.1</ele>
        <time>2022-12-07T15:06:57Z</time>
      </trkpt>
      <trkpt lat="49.82208" lon="2.51301">
        <ele>41.1</ele>
        <time>2022-12-07T15:06:58Z</time>
      </trkpt>
      <trkpt lat="49.82208" lon="2.513">
        <ele>41.1</ele>
        <time>2022-12-07T15:06:59Z</time>
      </trkpt>
      <trkpt lat="49.82209" lon="2.513">
        <ele>41.1</ele>
        <time>2022-12-07T15:07:00Z</time>
      </trkpt>
      <trkpt lat="49.8221" lon="2.513">
        <ele>41.1</ele>
        <time>2022-12-07T15:07:01Z</time>
      </trkpt>
      <trkpt lat="49.82211" lon="2.51299">
        <ele>41.1</ele>
        <time>2022-12-07T15:07:02Z</time>
      </trkpt>
      <trkpt lat="49.82212" lon="2.51299">
        <ele>41.1</ele>
        <time>2022-12-07T15:07:03Z</time>
      </trkpt>
      <trkpt lat="49.82212" lon="2.51299">
        <ele>41.2</ele>
        <time>2022-12-07T15:07:04Z</time>
      </trkpt>
      <trkpt lat="49.82213" lon="2.51298">
        <ele>41.2</ele>
        <time>2022-12-07T15:07:05Z</time>
      </trkpt>
      <trkpt lat="49.82214" lon="2.51297">
        <ele>41.2</ele>
        <time>2022-12-07T15:07:06Z</time>
      </trkpt>
      <trkpt lat="49.82215" lon="2.51297">
        <ele>41.2</ele>
        <time>2022-12-07T15:07:07Z</time>
      </trkpt>
      <trkpt lat="49.82216" lon="2.51296">
        <ele>41.2</ele>
        <time>2022-12-07T15:07:08Z</time>
      </trkpt>
      <trkpt lat="49.82217" lon="2.51295">
        <ele>41.2</ele>
        <time>2022-12-07T15:07:09Z</time>
      </trkpt>
      <trkpt lat="49.82217" lon="2.51295">
        <ele>41.2</ele>
        <time>2022-12-07T15:07:10Z</time>
      </trkpt>
      <trkpt lat="49.82218" lon="2.51294">
        <ele>41.2</ele>
        <time>2022-12-07T15:07:11Z</time>
      </trkpt>
      <trkpt lat="49.82219" lon="2.51293">
        <ele>41.2</ele>
        <time>2022-12-07T15:07:12Z</time>
      </trkpt>
      <trkpt lat="49.8222" lon="2.51293">
        <ele>41.2</ele>
        <time>2022-12-07T15:07:13Z</time>
      </trkpt>
      <trkpt lat="49.82221" lon="2.51292">
        <ele>41.2</ele>
        <time>2022-12-07T15:07:14Z</time>
      </trkpt>
      <trkpt lat="49.82222" lon="2.51292">
        <ele>41.3</ele>
        <time>2022-12-07T15:07:15Z</time>
      </trkpt>
      <trkpt lat="49.82223" lon="2.51292">
        <ele>41.3</ele>
        <time>2022-12-07T15:07:16Z</time>
      </trkpt>
      <trkpt lat="49.82225" lon="2.51292">
        <ele>41.3</ele>
        <time>2022-12-07T15:07:17Z</time>
      </trkpt>
      <trkpt lat="49.82226" lon="2.51291">
        <ele>41.3</ele>
        <time>2022-12-07T15:07:18Z</time>
      </trkpt>
      <trkpt lat="49.82227" lon="2.51291">
        <ele>41.3</ele>
        <time>2022-12-07T15:07:19Z</time>
      </trkpt>
      <trkpt lat="49.82228" lon="2.51291">
        <ele>41.3</ele>
        <time>2022-12-07T15:07:20Z</time>
      </trkpt>
      <trkpt lat="49.82229" lon="2.51291">
        <ele>41.3</ele>
        <time>2022-12-07T15:07:21Z</time>
      </trkpt>
      <trkpt lat="49.82231" lon="2.5129">
        <ele>41.4</ele>
        <time>2022-12-07T15:07:22Z</time>
      </trkpt>
      <trkpt lat="49.82231" lon="2.51289">
        <ele>41.4</ele>
        <time>2022-12-07T15:07:23Z</time>
      </trkpt>
      <trkpt lat="49.82232" lon="2.51289">
        <ele>41.4</ele>
        <time>2022-12-07T15:07:24Z</time>
      </trkpt>
      <trkpt lat="49.82233" lon="2.51288">
        <ele>41.4</ele>
        <time>2022-12-07T15:07:25Z</time>
      </trkpt>
      <trkpt lat="49.82234" lon="2.51287">
        <ele>41.4</ele>
        <time>2022-12-07T15:07:26Z</time>
      </trkpt>
      <trkpt lat="49.82235" lon="2.51287">
        <ele>41.4</ele>
        <time>2022-12-07T15:07:27Z</time>
      </trkpt>
      <trkpt lat="49.82236" lon="2.51286">
        <ele>41.4</ele>
        <time>2022-12-07T15:07:28Z</time>
      </trkpt>
      <trkpt lat="49.82237" lon="2.51285">
        <ele>41.4</ele>
        <time>2022-12-07T15:07:29Z</time>
      </trkpt>
      <trkpt lat="49.82238" lon="2.51285">
        <ele>41.4</ele>
        <time>2022-12-07T15:07:30Z</time>
      </trkpt>
      <trkpt lat="49.82239" lon="2.51284">
        <ele>41.5</ele>
        <time>2022-12-07T15:07:31Z</time>
      </trkpt>
      <trkpt lat="49.8224" lon="2.51284">
        <ele>41.5</ele>
        <time>2022-12-07T15:07:32Z</time>
      </trkpt>
      <trkpt lat="49.82241" lon="2.51283">
        <ele>41.5</ele>
        <time>2022-12-07T15:07:33Z</time>
      </trkpt>
      <trkpt lat="49.82242" lon="2.51283">
        <ele>41.5</ele>
        <time>2022-12-07T15:07:34Z</time>
      </trkpt>
      <trkpt lat="49.82243" lon="2.51282">
        <ele>41.5</ele>
        <time>2022-12-07T15:07:35Z</time>
      </trkpt>
      <trkpt lat="49.82244" lon="2.51282">
        <ele>41.5</ele>
        <time>2022-12-07T15:07:36Z</time>
      </trkpt>
      <trkpt lat="49.82245" lon="2.51281">
        <ele>41.6</ele>
        <time>2022-12-07T15:07:37Z</time>
      </trkpt>
      <trkpt lat="49.82246" lon="2.51281">
        <ele>41.6</ele>
        <time>2022-12-07T15:07:38Z</time>
      </trkpt>
      <trkpt lat="49.82247" lon="2.5128">
        <ele>41.6</ele>
        <time>2022-12-07T15:07:39Z</time>
      </trkpt>
      <trkpt lat="49.82248" lon="2.5128">
        <ele>41.6</ele>
        <time>2022-12-07T15:07:40Z</time>
      </trkpt>
      <trkpt lat="49.82249" lon="2.5128">
        <ele>41.6</ele>
        <time>2022-12-07T15:07:41Z</time>
      </trkpt>
      <trkpt lat="49.8225" lon="2.51279">
        <ele>41.6</ele>
        <time>2022-12-07T15:07:42Z</time>
      </trkpt>
      <trkpt lat="49.82251" lon="2.51279">
        <ele>41.7</ele>
        <time>2022-12-07T15:07:43Z</time>
      </trkpt>
      <trkpt lat="49.82252" lon="2.51279">
        <ele>41.7</ele>
        <time>2022-12-07T15:07:44Z</time>
      </trkpt>
      <trkpt lat="49.82253" lon="2.51278">
        <ele>41.7</ele>
        <time>2022-12-07T15:07:45Z</time>
      </trkpt>
      <trkpt lat="49.82254" lon="2.51278">
        <ele>41.7</ele>
        <time>2022-12-07T15:07:46Z</time>
      </trkpt>
      <trkpt lat="49.82254" lon="2.51278">
        <ele>41.7</ele>
        <time>2022-12-07T15:07:47Z</time>
      </trkpt>
      <trkpt lat="49.82256" lon="2.51277">
        <ele>41.8</ele>
        <time>2022-12-07T15:07:48Z</time>
      </trkpt>
      <trkpt lat="49.82256" lon="2.51277">
        <ele>41.8</ele>
        <time>2022-12-07T15:07:49Z</time>
      </trkpt>
      <trkpt lat="49.82258" lon="2.51277">
        <ele>41.8</ele>
        <time>2022-12-07T15:07:50Z</time>
      </trkpt>
      <trkpt lat="49.82259" lon="2.51276">
        <ele>41.8</ele>
        <time>2022-12-07T15:07:51Z</time>
      </trkpt>
      <trkpt lat="49.8226" lon="2.51276">
        <ele>41.8</ele>
        <time>2022-12-07T15:07:52Z</time>
      </trkpt>
      <trkpt lat="49.82261" lon="2.51276">
        <ele>41.9</ele>
        <time>2022-12-07T15:07:53Z</time>
      </trkpt>
      <trkpt lat="49.82262" lon="2.51276">
        <ele>41.9</ele>
        <time>2022-12-07T15:07:54Z</time>
      </trkpt>
      <trkpt lat="49.82263" lon="2.51276">
        <ele>41.9</ele>
        <time>2022-12-07T15:07:55Z</time>
      </trkpt>
      <trkpt lat="49.82264" lon="2.51276">
        <ele>41.9</ele>
        <time>2022-12-07T15:07:56Z</time>
      </trkpt>
      <trkpt lat="49.82265" lon="2.51276">
        <ele>42</ele>
        <time>2022-12-07T15:07:57Z</time>
      </trkpt>
      <trkpt lat="49.82266" lon="2.51275">
        <ele>42</ele>
        <time>2022-12-07T15:07:58Z</time>
      </trkpt>
      <trkpt lat="49.82267" lon="2.51275">
        <ele>42</ele>
        <time>2022-12-07T15:07:59Z</time>
      </trkpt>
      <trkpt lat="49.82268" lon="2.51274">
        <ele>42</ele>
        <time>2022-12-07T15:08:00Z</time>
      </trkpt>
      <trkpt lat="49.82269" lon="2.51273">
        <ele>42.1</ele>
        <time>2022-12-07T15:08:01Z</time>
      </trkpt>
      <trkpt lat="49.8227" lon="2.51273">
        <ele>42.1</ele>
        <time>2022-12-07T15:08:02Z</time>
      </trkpt>
      <trkpt lat="49.82271" lon="2.51272">
        <ele>42.1</ele>
        <time>2022-12-07T15:08:03Z</time>
      </trkpt>
      <trkpt lat="49.82271" lon="2.51272">
        <ele>42.1</ele>
        <time>2022-12-07T15:08:04Z</time>
      </trkpt>
      <trkpt lat="49.82272" lon="2.51272">
        <ele>42.2</ele>
        <time>2022-12-07T15:08:05Z</time>
      </trkpt>
      <trkpt lat="49.82273" lon="2.51271">
        <ele>42.2</ele>
        <time>2022-12-07T15:08:06Z</time>
      </trkpt>
      <trkpt lat="49.82275" lon="2.51271">
        <ele>42.2</ele>
        <time>2022-12-07T15:08:07Z</time>
      </trkpt>
      <trkpt lat="49.82275" lon="2.5127">
        <ele>42.2</ele>
        <time>2022-12-07T15:08:08Z</time>
      </trkpt>
      <trkpt lat="49.82276" lon="2.5127">
        <ele>42.3</ele>
        <time>2022-12-07T15:08:09Z</time>
      </trkpt>
      <trkpt lat="49.82277" lon="2.51269">
        <ele>42.3</ele>
        <time>2022-12-07T15:08:10Z</time>
      </trkpt>
      <trkpt lat="49.82278" lon="2.51268">
        <ele>42.3</ele>
        <time>2022-12-07T15:08:11Z</time>
      </trkpt>
      <trkpt lat="49.82279" lon="2.51267">
        <ele>42.3</ele>
        <time>2022-12-07T15:08:12Z</time>
      </trkpt>
      <trkpt lat="49.8228" lon="2.51266">
        <ele>42.4</ele>
        <time>2022-12-07T15:08:13Z</time>
      </trkpt>
      <trkpt lat="49.82281" lon="2.51266">
        <ele>42.4</ele>
        <time>2022-12-07T15:08:14Z</time>
      </trkpt>
      <trkpt lat="49.82282" lon="2.51265">
        <ele>42.4</ele>
        <time>2022-12-07T15:08:15Z</time>
      </trkpt>
      <trkpt lat="49.82283" lon="2.51265">
        <ele>42.5</ele>
        <time>2022-12-07T15:08:16Z</time>
      </trkpt>
      <trkpt lat="49.82284" lon="2.51265">
        <ele>42.5</ele>
        <time>2022-12-07T15:08:17Z</time>
      </trkpt>
      <trkpt lat="49.82285" lon="2.51264">
        <ele>42.5</ele>
        <time>2022-12-07T15:08:18Z</time>
      </trkpt>
      <trkpt lat="49.82286" lon="2.51264">
        <ele>42.5</ele>
        <time>2022-12-07T15:08:19Z</time>
      </trkpt>
      <trkpt lat="49.82287" lon="2.51264">
        <ele>42.6</ele>
        <time>2022-12-07T15:08:20Z</time>
      </trkpt>
      <trkpt lat="49.82288" lon="2.51263">
        <ele>42.6</ele>
        <time>2022-12-07T15:08:21Z</time>
      </trkpt>
      <trkpt lat="49.82289" lon="2.51263">
        <ele>42.6</ele>
        <time>2022-12-07T15:08:22Z</time>
      </trkpt>
      <trkpt lat="49.8229" lon="2.51262">
        <ele>42.6</ele>
        <time>2022-12-07T15:08:23Z</time>
      </trkpt>
      <trkpt lat="49.82291" lon="2.51262">
        <ele>42.7</ele>
        <time>2022-12-07T15:08:24Z</time>
      </trkpt>
      <trkpt lat="49.82292" lon="2.51262">
        <ele>42.7</ele>
        <time>2022-12-07T15:08:25Z</time>
      </trkpt>
      <trkpt lat="49.82293" lon="2.51261">
        <ele>42.7</ele>
        <time>2022-12-07T15:08:26Z</time>
      </trkpt>
      <trkpt lat="49.82294" lon="2.51261">
        <ele>42.8</ele>
        <time>2022-12-07T15:08:27Z</time>
      </trkpt>
      <trkpt lat="49.82295" lon="2.51261">
        <ele>42.8</ele>
        <time>2022-12-07T15:08:28Z</time>
      </trkpt>
      <trkpt lat="49.82296" lon="2.5126">
        <ele>42.8</ele>
        <time>2022-12-07T15:08:29Z</time>
      </trkpt>
      <trkpt lat="49.82297" lon="2.5126">
        <ele>42.8</ele>
        <time>2022-12-07T15:08:30Z</time>
      </trkpt>
      <trkpt lat="49.82298" lon="2.51259">
        <ele>42.9</ele>
        <time>2022-12-07T15:08:31Z</time>
      </trkpt>
      <trkpt lat="49.82298" lon="2.51258">
        <ele>42.9</ele>
        <time>2022-12-07T15:08:32Z</time>
      </trkpt>
      <trkpt lat="49.82299" lon="2.51257">
        <ele>42.9</ele>
        <time>2022-12-07T15:08:33Z</time>
      </trkpt>
      <trkpt lat="49.823" lon="2.51257">
        <ele>43</ele>
        <time>2022-12-07T15:08:34Z</time>
      </trkpt>
      <trkpt lat="49.82301" lon="2.51256">
        <ele>43</ele>
        <time>2022-12-07T15:08:35Z</time>
      </trkpt>
      <trkpt lat="49.82302" lon="2.51255">
        <ele>43</ele>
        <time>2022-12-07T15:08:36Z</time>
      </trkpt>
      <trkpt lat="49.82303" lon="2.51255">
        <ele>43.1</ele>
        <time>2022-12-07T15:08:37Z</time>
      </trkpt>
      <trkpt lat="49.82304" lon="2.51254">
        <ele>43.1</ele>
        <time>2022-12-07T15:08:38Z</time>
      </trkpt>
      <trkpt lat="49.82305" lon="2.51253">
        <ele>43.1</ele>
        <time>2022-12-07T15:08:39Z</time>
      </trkpt>
      <trkpt lat="49.82306" lon="2.51253">
        <ele>43.2</ele>
        <time>2022-12-07T15:08:40Z</time>
      </trkpt>
      <trkpt lat="49.82306" lon="2.51252">
        <ele>43.2</ele>
        <time>2022-12-07T15:08:41Z</time>
      </trkpt>
      <trkpt lat="49.82307" lon="2.51251">
        <ele>43.2</ele>
        <time>2022-12-07T15:08:42Z</time>
      </trkpt>
      <trkpt lat="49.82308" lon="2.5125">
        <ele>43.2</ele>
        <time>2022-12-07T15:08:43Z</time>
      </trkpt>
      <trkpt lat="49.82308" lon="2.5125">
        <ele>43.3</ele>
        <time>2022-12-07T15:08:44Z</time>
      </trkpt>
      <trkpt lat="49.82309" lon="2.51249">
        <ele>43.3</ele>
        <time>2022-12-07T15:08:45Z</time>
      </trkpt>
      <trkpt lat="49.8231" lon="2.51249">
        <ele>43.3</ele>
        <time>2022-12-07T15:08:46Z</time>
      </trkpt>
      <trkpt lat="49.82311" lon="2.51248">
        <ele>43.3</ele>
        <time>2022-12-07T15:08:47Z</time>
      </trkpt>
      <trkpt lat="49.82312" lon="2.51248">
        <ele>43.4</ele>
        <time>2022-12-07T15:08:48Z</time>
      </trkpt>
      <trkpt lat="49.82312" lon="2.51247">
        <ele>43.4</ele>
        <time>2022-12-07T15:08:49Z</time>
      </trkpt>
      <trkpt lat="49.82313" lon="2.51246">
        <ele>43.4</ele>
        <time>2022-12-07T15:08:50Z</time>
      </trkpt>
      <trkpt lat="49.82314" lon="2.51245">
        <ele>43.5</ele>
        <time>2022-12-07T15:08:51Z</time>
      </trkpt>
      <trkpt lat="49.82315" lon="2.51244">
        <ele>43.5</ele>
        <time>2022-12-07T15:08:52Z</time>
      </trkpt>
      <trkpt lat="49.82316" lon="2.51244">
        <ele>43.6</ele>
        <time>2022-12-07T15:08:53Z</time>
      </trkpt>
      <trkpt lat="49.82317" lon="2.51243">
        <ele>43.6</ele>
        <time>2022-12-07T15:08:54Z</time>
      </trkpt>
      <trkpt lat="49.82317" lon="2.51242">
        <ele>43.6</ele>
        <time>2022-12-07T15:08:55Z</time>
      </trkpt>
      <trkpt lat="49.82318" lon="2.5124">
        <ele>43.7</ele>
        <time>2022-12-07T15:08:56Z</time>
      </trkpt>
      <trkpt lat="49.82319" lon="2.51239">
        <ele>43.7</ele>
        <time>2022-12-07T15:08:57Z</time>
      </trkpt>
      <trkpt lat="49.8232" lon="2.51237">
        <ele>43.8</ele>
        <time>2022-12-07T15:08:58Z</time>
      </trkpt>
      <trkpt lat="49.8232" lon="2.51236">
        <ele>43.8</ele>
        <time>2022-12-07T15:08:59Z</time>
      </trkpt>
      <trkpt lat="49.82321" lon="2.51235">
        <ele>43.8</ele>
        <time>2022-12-07T15:09:00Z</time>
      </trkpt>
      <trkpt lat="49.82322" lon="2.51234">
        <ele>43.9</ele>
        <time>2022-12-07T15:09:01Z</time>
      </trkpt>
      <trkpt lat="49.82323" lon="2.51233">
        <ele>43.9</ele>
        <time>2022-12-07T15:09:02Z</time>
      </trkpt>
      <trkpt lat="49.82323" lon="2.51232">
        <ele>44</ele>
        <time>2022-12-07T15:09:03Z</time>
      </trkpt>
      <trkpt lat="49.82324" lon="2.51231">
        <ele>44</ele>
        <time>2022-12-07T15:09:04Z</time>
      </trkpt>
      <trkpt lat="49.82325" lon="2.5123">
        <ele>44</ele>
        <time>2022-12-07T15:09:05Z</time>
      </trkpt>
      <trkpt lat="49.82326" lon="2.5123">
        <ele>44.1</ele>
        <time>2022-12-07T15:09:06Z</time>
      </trkpt>
      <trkpt lat="49.82327" lon="2.51229">
        <ele>44.1</ele>
        <time>2022-12-07T15:09:07Z</time>
      </trkpt>
      <trkpt lat="49.82328" lon="2.51228">
        <ele>44.1</ele>
        <time>2022-12-07T15:09:08Z</time>
      </trkpt>
      <trkpt lat="49.82329" lon="2.51227">
        <ele>44.2</ele>
        <time>2022-12-07T15:09:09Z</time>
      </trkpt>
      <trkpt lat="49.8233" lon="2.51227">
        <ele>44.2</ele>
        <time>2022-12-07T15:09:10Z</time>
      </trkpt>
      <trkpt lat="49.8233" lon="2.51226">
        <ele>44.3</ele>
        <time>2022-12-07T15:09:11Z</time>
      </trkpt>
      <trkpt lat="49.82331" lon="2.51226">
        <ele>44.3</ele>
        <time>2022-12-07T15:09:12Z</time>
      </trkpt>
      <trkpt lat="49.82332" lon="2.51225">
        <ele>44.3</ele>
        <time>2022-12-07T15:09:13Z</time>
      </trkpt>
      <trkpt lat="49.82333" lon="2.51225">
        <ele>44.4</ele>
        <time>2022-12-07T15:09:14Z</time>
      </trkpt>
      <trkpt lat="49.82334" lon="2.51225">
        <ele>44.4</ele>
        <time>2022-12-07T15:09:15Z</time>
      </trkpt>
      <trkpt lat="49.82334" lon="2.51224">
        <ele>44.4</ele>
        <time>2022-12-07T15:09:16Z</time>
      </trkpt>
      <trkpt lat="49.82335" lon="2.51224">
        <ele>44.5</ele>
        <time>2022-12-07T15:09:17Z</time>
      </trkpt>
      <trkpt lat="49.82336" lon="2.51223">
        <ele>44.5</ele>
        <time>2022-12-07T15:09:18Z</time>
      </trkpt>
      <trkpt lat="49.82337" lon="2.51222">
        <ele>44.5</ele>
        <time>2022-12-07T15:09:19Z</time>
      </trkpt>
      <trkpt lat="49.82337" lon="2.51222">
        <ele>44.5</ele>
        <time>2022-12-07T15:09:20Z</time>
      </trkpt>
      <trkpt lat="49.82337" lon="2.51221">
        <ele>44.5</ele>
        <time>2022-12-07T15:09:21Z</time>
      </trkpt>
      <trkpt lat="49.82338" lon="2.5122">
        <ele>44.6</ele>
        <time>2022-12-07T15:09:22Z</time>
      </trkpt>
      <trkpt lat="49.82338" lon="2.5122">
        <ele>44.6</ele>
        <time>2022-12-07T15:09:23Z</time>
      </trkpt>
      <trkpt lat="49.82338" lon="2.5122">
        <ele>44.6</ele>
        <time>2022-12-07T15:09:24Z</time>
      </trkpt>
      <trkpt lat="49.82338" lon="2.5122">
        <ele>44.6</ele>
        <time>2022-12-07T15:09:25Z</time>
      </trkpt>
      <trkpt lat="49.82338" lon="2.5122">
        <ele>44.6</ele>
        <time>2022-12-07T15:09:26Z</time>
      </trkpt>
      <trkpt lat="49.82338" lon="2.5122">
        <ele>44.6</ele>
        <time>2022-12-07T15:09:27Z</time>
      </trkpt>
      <trkpt lat="49.82338" lon="2.5122">
        <ele>44.6</ele>
        <time>2022-12-07T15:09:28Z</time>
      </trkpt>
      <trkpt lat="49.82338" lon="2.5122">
        <ele>44.6</ele>
        <time>2022-12-07T15:09:29Z</time>
      </trkpt>
      <trkpt lat="49.82338" lon="2.5122">
        <ele>44.6</ele>
        <time>2022-12-07T15:09:30Z</time>
      </trkpt>
      <trkpt lat="49.82338" lon="2.5122">
        <ele>44.6</ele>
        <time>2022-12-07T15:09:31Z</time>
      </trkpt>
      <trkpt lat="49.82338" lon="2.5122">
        <ele>44.6</ele>
        <time>2022-12-07T15:09:32Z</time>
      </trkpt>
      <trkpt lat="49.82338" lon="2.5122">
        <ele>44.6</ele>
        <time>2022-12-07T15:09:33Z</time>
      </trkpt>
      <trkpt lat="49.82338" lon="2.5122">
        <ele>44.6</ele>
        <time>2022-12-07T15:09:34Z</time>
      </trkpt>
      <trkpt lat="49.82338" lon="2.5122">
        <ele>44.6</ele>
        <time>2022-12-07T15:09:35Z</time>
      </trkpt>
      <trkpt lat="49.82339" lon="2.5122">
        <ele>44.6</ele>
        <time>2022-12-07T15:09:36Z</time>
      </trkpt>
      <trkpt lat="49.82339" lon="2.51219">
        <ele>44.6</ele>
        <time>2022-12-07T15:09:37Z</time>
      </trkpt>
      <trkpt lat="49.8234" lon="2.51219">
        <ele>44.6</ele>
        <time>2022-12-07T15:09:38Z</time>
      </trkpt>
      <trkpt lat="49.8234" lon="2.51219">
        <ele>44.6</ele>
        <time>2022-12-07T15:09:39Z</time>
      </trkpt>
      <trkpt lat="49.82341" lon="2.51218">
        <ele>44.6</ele>
        <time>2022-12-07T15:09:40Z</time>
      </trkpt>
      <trkpt lat="49.82341" lon="2.51218">
        <ele>44.6</ele>
        <time>2022-12-07T15:09:41Z</time>
      </trkpt>
      <trkpt lat="49.82341" lon="2.51217">
        <ele>44.6</ele>
        <time>2022-12-07T15:09:42Z</time>
      </trkpt>
      <trkpt lat="49.82341" lon="2.51216">
        <ele>44.7</ele>
        <time>2022-12-07T15:09:43Z</time>
      </trkpt>
      <trkpt lat="49.82341" lon="2.51216">
        <ele>44.7</ele>
        <time>2022-12-07T15:09:44Z</time>
      </trkpt>
      <trkpt lat="49.82341" lon="2.51216">
        <ele>44.7</ele>
        <time>2022-12-07T15:09:45Z</time>
      </trkpt>
      <trkpt lat="49.82341" lon="2.51216">
        <ele>44.7</ele>
        <time>2022-12-07T15:09:46Z</time>
      </trkpt>
      <trkpt lat="49.82341" lon="2.51216">
        <ele>44.7</ele>
        <time>2022-12-07T15:09:47Z</time>
      </trkpt>
      <trkpt lat="49.82341" lon="2.51216">
        <ele>44.7</ele>
        <time>2022-12-07T15:09:48Z</time>
      </trkpt>
      <trkpt lat="49.82341" lon="2.51215">
        <ele>44.7</ele>
        <time>2022-12-07T15:09:49Z</time>
      </trkpt>
      <trkpt lat="49.82341" lon="2.51215">
        <ele>44.7</ele>
        <time>2022-12-07T15:09:50Z</time>
      </trkpt>
      <trkpt lat="49.8234" lon="2.51216">
        <ele>44.7</ele>
        <time>2022-12-07T15:09:51Z</time>
      </trkpt>
      <trkpt lat="49.8234" lon="2.51216">
        <ele>44.7</ele>
        <time>2022-12-07T15:09:52Z</time>
      </trkpt>
      <trkpt lat="49.8234" lon="2.51216">
        <ele>44.7</ele>
        <time>2022-12-07T15:09:53Z</time>
      </trkpt>
      <trkpt lat="49.8234" lon="2.51216">
        <ele>44.7</ele>
        <time>2022-12-07T15:09:54Z</time>
      </trkpt>
      <trkpt lat="49.8234" lon="2.51216">
        <ele>44.7</ele>
        <time>2022-12-07T15:09:55Z</time>
      </trkpt>
      <trkpt lat="49.8234" lon="2.51216">
        <ele>44.7</ele>
        <time>2022-12-07T15:09:56Z</time>
      </trkpt>
      <trkpt lat="49.8234" lon="2.51216">
        <ele>44.7</ele>
        <time>2022-12-07T15:09:57Z</time>
      </trkpt>
      <trkpt lat="49.8234" lon="2.51216">
        <ele>44.7</ele>
        <time>2022-12-07T15:09:58Z</time>
      </trkpt>
      <trkpt lat="49.8234" lon="2.51216">
        <ele>44.7</ele>
        <time>2022-12-07T15:09:59Z</time>
      </trkpt>
      <trkpt lat="49.8234" lon="2.51216">
        <ele>44.7</ele>
        <time>2022-12-07T15:10:00Z</time>
      </trkpt>
      <trkpt lat="49.82339" lon="2.51216">
        <ele>44.7</ele>
        <time>2022-12-07T15:10:01Z</time>
      </trkpt>
      <trkpt lat="49.82339" lon="2.51216">
        <ele>44.7</ele>
        <time>2022-12-07T15:10:02Z</time>
      </trkpt>
      <trkpt lat="49.82339" lon="2.51216">
        <ele>44.7</ele>
        <time>2022-12-07T15:10:03Z</time>
      </trkpt>
      <trkpt lat="49.82339" lon="2.51216">
        <ele>44.7</ele>
        <time>2022-12-07T15:10:04Z</time>
      </trkpt>
      <trkpt lat="49.82339" lon="2.51216">
        <ele>44.7</ele>
        <time>2022-12-07T15:10:05Z</time>
      </trkpt>
      <trkpt lat="49.82339" lon="2.51216">
        <ele>44.7</ele>
        <time>2022-12-07T15:10:06Z</time>
      </trkpt>
      <trkpt lat="49.82339" lon="2.51216">
        <ele>44.7</ele>
        <time>2022-12-07T15:10:07Z</time>
      </trkpt>
      <trkpt lat="49.82339" lon="2.51216">
        <ele>44.7</ele>
        <time>2022-12-07T15:10:08Z</time>
      </trkpt>
      <trkpt lat="49.82339" lon="2.51216">
        <ele>44.7</ele>
        <time>2022-12-07T15:10:09Z</time>
      </trkpt>
      <trkpt lat="49.82339" lon="2.51216">
        <ele>44.7</ele>
        <time>2022-12-07T15:10:10Z</time>
      </trkpt>
      <trkpt lat="49.8234" lon="2.51216">
        <ele>44.7</ele>
        <time>2022-12-07T15:10:11Z</time>
      </trkpt>
      <trkpt lat="49.8234" lon="2.51215">
        <ele>44.7</ele>
        <time>2022-12-07T15:10:12Z</time>
      </trkpt>
      <trkpt lat="49.8234" lon="2.51215">
        <ele>44.7</ele>
        <time>2022-12-07T15:10:13Z</time>
      </trkpt>
      <trkpt lat="49.82341" lon="2.51215">
        <ele>44.7</ele>
        <time>2022-12-07T15:10:14Z</time>
      </trkpt>
      <trkpt lat="49.82341" lon="2.51215">
        <ele>44.8</ele>
        <time>2022-12-07T15:10:15Z</time>
      </trkpt>
      <trkpt lat="49.82342" lon="2.51215">
        <ele>44.8</ele>
        <time>2022-12-07T15:10:16Z</time>
      </trkpt>
      <trkpt lat="49.82342" lon="2.51215">
        <ele>44.8</ele>
        <time>2022-12-07T15:10:17Z</time>
      </trkpt>
      <trkpt lat="49.82342" lon="2.51216">
        <ele>44.8</ele>
        <time>2022-12-07T15:10:18Z</time>
      </trkpt>
      <trkpt lat="49.82343" lon="2.51217">
        <ele>44.8</ele>
        <time>2022-12-07T15:10:19Z</time>
      </trkpt>
      <trkpt lat="49.82343" lon="2.51217">
        <ele>44.8</ele>
        <time>2022-12-07T15:10:20Z</time>
      </trkpt>
      <trkpt lat="49.82342" lon="2.51218">
        <ele>44.8</ele>
        <time>2022-12-07T15:10:21Z</time>
      </trkpt>
      <trkpt lat="49.82342" lon="2.51218">
        <ele>44.8</ele>
        <time>2022-12-07T15:10:22Z</time>
      </trkpt>
      <trkpt lat="49.82341" lon="2.51218">
        <ele>44.8</ele>
        <time>2022-12-07T15:10:23Z</time>
      </trkpt>
      <trkpt lat="49.82341" lon="2.51218">
        <ele>44.8</ele>
        <time>2022-12-07T15:10:24Z</time>
      </trkpt>
      <trkpt lat="49.82341" lon="2.51218">
        <ele>44.8</ele>
        <time>2022-12-07T15:10:25Z</time>
      </trkpt>
      <trkpt lat="49.82341" lon="2.51218">
        <ele>44.8</ele>
        <time>2022-12-07T15:10:26Z</time>
      </trkpt>
      <trkpt lat="49.82341" lon="2.51219">
        <ele>44.8</ele>
        <time>2022-12-07T15:10:27Z</time>
      </trkpt>
      <trkpt lat="49.82341" lon="2.51219">
        <ele>44.8</ele>
        <time>2022-12-07T15:10:28Z</time>
      </trkpt>
      <trkpt lat="49.82341" lon="2.51219">
        <ele>44.9</ele>
        <time>2022-12-07T15:10:29Z</time>
      </trkpt>
      <trkpt lat="49.82341" lon="2.51218">
        <ele>44.9</ele>
        <time>2022-12-07T15:10:30Z</time>
      </trkpt>
      <trkpt lat="49.82341" lon="2.51218">
        <ele>44.9</ele>
        <time>2022-12-07T15:10:31Z</time>
      </trkpt>
      <trkpt lat="49.82341" lon="2.51218">
        <ele>44.9</ele>
        <time>2022-12-07T15:10:32Z</time>
      </trkpt>
      <trkpt lat="49.8234" lon="2.51217">
        <ele>44.9</ele>
        <time>2022-12-07T15:10:33Z</time>
      </trkpt>
      <trkpt lat="49.8234" lon="2.51216">
        <ele>44.9</ele>
        <time>2022-12-07T15:10:34Z</time>
      </trkpt>
      <trkpt lat="49.8234" lon="2.51216">
        <ele>44.9</ele>
        <time>2022-12-07T15:10:35Z</time>
      </trkpt>
      <trkpt lat="49.8234" lon="2.51215">
        <ele>44.9</ele>
        <time>2022-12-07T15:10:36Z</time>
      </trkpt>
      <trkpt lat="49.8234" lon="2.51214">
        <ele>44.9</ele>
        <time>2022-12-07T15:10:37Z</time>
      </trkpt>
      <trkpt lat="49.8234" lon="2.51214">
        <ele>44.9</ele>
        <time>2022-12-07T15:10:38Z</time>
      </trkpt>
      <trkpt lat="49.82341" lon="2.51214">
        <ele>44.9</ele>
        <time>2022-12-07T15:10:39Z</time>
      </trkpt>
      <trkpt lat="49.82341" lon="2.51214">
        <ele>44.9</ele>
        <time>2022-12-07T15:10:40Z</time>
      </trkpt>
      <trkpt lat="49.82341" lon="2.51214">
        <ele>44.9</ele>
        <time>2022-12-07T15:10:41Z</time>
      </trkpt>
      <trkpt lat="49.82341" lon="2.51213">
        <ele>44.9</ele>
        <time>2022-12-07T15:10:42Z</time>
      </trkpt>
      <trkpt lat="49.82341" lon="2.51214">
        <ele>44.9</ele>
        <time>2022-12-07T15:10:43Z</time>
      </trkpt>
      <trkpt lat="49.82341" lon="2.51214">
        <ele>44.9</ele>
        <time>2022-12-07T15:10:44Z</time>
      </trkpt>
      <trkpt lat="49.8234" lon="2.51213">
        <ele>45</ele>
        <time>2022-12-07T15:10:45Z</time>
      </trkpt>
      <trkpt lat="49.8234" lon="2.51213">
        <ele>45</ele>
        <time>2022-12-07T15:10:46Z</time>
      </trkpt>
      <trkpt lat="49.82339" lon="2.51213">
        <ele>45</ele>
        <time>2022-12-07T15:10:47Z</time>
      </trkpt>
      <trkpt lat="49.82339" lon="2.51212">
        <ele>45</ele>
        <time>2022-12-07T15:10:48Z</time>
      </trkpt>
      <trkpt lat="49.82339" lon="2.51212">
        <ele>45</ele>
        <time>2022-12-07T15:10:49Z</time>
      </trkpt>
      <trkpt lat="49.82339" lon="2.51212">
        <ele>45</ele>
        <time>2022-12-07T15:10:50Z</time>
      </trkpt>
      <trkpt lat="49.82339" lon="2.51212">
        <ele>45</ele>
        <time>2022-12-07T15:10:51Z</time>
      </trkpt>
      <trkpt lat="49.82339" lon="2.51212">
        <ele>45</ele>
        <time>2022-12-07T15:10:52Z</time>
      </trkpt>
      <trkpt lat="49.82339" lon="2.51212">
        <ele>45</ele>
        <time>2022-12-07T15:10:53Z</time>
      </trkpt>
      <trkpt lat="49.82339" lon="2.51212">
        <ele>45</ele>
        <time>2022-12-07T15:10:54Z</time>
      </trkpt>
      <trkpt lat="49.82339" lon="2.51212">
        <ele>45</ele>
        <time>2022-12-07T15:10:55Z</time>
      </trkpt>
      <trkpt lat="49.82339" lon="2.51212">
        <ele>45</ele>
        <time>2022-12-07T15:10:56Z</time>
      </trkpt>
      <trkpt lat="49.82339" lon="2.51212">
        <ele>45</ele>
        <time>2022-12-07T15:10:57Z</time>
      </trkpt>
      <trkpt lat="49.82339" lon="2.51212">
        <ele>45</ele>
        <time>2022-12-07T15:10:58Z</time>
      </trkpt>
      <trkpt lat="49.82339" lon="2.51212">
        <ele>45</ele>
        <time>2022-12-07T15:10:59Z</time>
      </trkpt>
      <trkpt lat="49.82339" lon="2.51212">
        <ele>45</ele>
        <time>2022-12-07T15:11:00Z</time>
      </trkpt>
      <trkpt lat="49.82339" lon="2.51212">
        <ele>45</ele>
        <time>2022-12-07T15:11:01Z</time>
      </trkpt>
      <trkpt lat="49.82339" lon="2.51212">
        <ele>45</ele>
        <time>2022-12-07T15:11:02Z</time>
      </trkpt>
      <trkpt lat="49.82339" lon="2.51212">
        <ele>45</ele>
        <time>2022-12-07T15:11:03Z</time>
      </trkpt>
      <trkpt lat="49.82339" lon="2.51212">
        <ele>45</ele>
        <time>2022-12-07T15:11:04Z</time>
      </trkpt>
      <trkpt lat="49.82339" lon="2.51212">
        <ele>45</ele>
        <time>2022-12-07T15:11:05Z</time>
      </trkpt>
      <trkpt lat="49.82339" lon="2.51213">
        <ele>45</ele>
        <time>2022-12-07T15:11:06Z</time>
      </trkpt>
      <trkpt lat="49.82339" lon="2.51213">
        <ele>45</ele>
        <time>2022-12-07T15:11:07Z</time>
      </trkpt>
      <trkpt lat="49.82339" lon="2.51213">
        <ele>45</ele>
        <time>2022-12-07T15:11:08Z</time>
      </trkpt>
      <trkpt lat="49.82339" lon="2.51213">
        <ele>45</ele>
        <time>2022-12-07T15:11:09Z</time>
      </trkpt>
      <trkpt lat="49.82339" lon="2.51213">
        <ele>45</ele>
        <time>2022-12-07T15:11:10Z</time>
      </trkpt>
      <trkpt lat="49.82339" lon="2.51212">
        <ele>45</ele>
        <time>2022-12-07T15:11:11Z</time>
      </trkpt>
      <trkpt lat="49.82339" lon="2.51212">
        <ele>45</ele>
        <time>2022-12-07T15:11:12Z</time>
      </trkpt>
      <trkpt lat="49.82339" lon="2.51212">
        <ele>45</ele>
        <time>2022-12-07T15:11:13Z</time>
      </trkpt>
      <trkpt lat="49.82339" lon="2.51212">
        <ele>45</ele>
        <time>2022-12-07T15:11:14Z</time>
      </trkpt>
      <trkpt lat="49.82339" lon="2.51211">
        <ele>45</ele>
        <time>2022-12-07T15:11:15Z</time>
      </trkpt>
      <trkpt lat="49.82339" lon="2.5121">
        <ele>45.1</ele>
        <time>2022-12-07T15:11:16Z</time>
      </trkpt>
      <trkpt lat="49.82339" lon="2.51209">
        <ele>45.1</ele>
        <time>2022-12-07T15:11:17Z</time>
      </trkpt>
      <trkpt lat="49.82339" lon="2.51209">
        <ele>45.1</ele>
        <time>2022-12-07T15:11:18Z</time>
      </trkpt>
      <trkpt lat="49.82339" lon="2.51208">
        <ele>45.1</ele>
        <time>2022-12-07T15:11:19Z</time>
      </trkpt>
      <trkpt lat="49.82338" lon="2.51208">
        <ele>45.1</ele>
        <time>2022-12-07T15:11:20Z</time>
      </trkpt>
      <trkpt lat="49.82338" lon="2.51209">
        <ele>45.1</ele>
        <time>2022-12-07T15:11:21Z</time>
      </trkpt>
      <trkpt lat="49.82338" lon="2.5121">
        <ele>45.1</ele>
        <time>2022-12-07T15:11:22Z</time>
      </trkpt>
      <trkpt lat="49.82338" lon="2.51211">
        <ele>45.1</ele>
        <time>2022-12-07T15:11:23Z</time>
      </trkpt>
      <trkpt lat="49.82339" lon="2.51212">
        <ele>45.1</ele>
        <time>2022-12-07T15:11:24Z</time>
      </trkpt>
      <trkpt lat="49.82339" lon="2.51212">
        <ele>45.1</ele>
        <time>2022-12-07T15:11:25Z</time>
      </trkpt>
      <trkpt lat="49.8234" lon="2.51212">
        <ele>45.2</ele>
        <time>2022-12-07T15:11:26Z</time>
      </trkpt>
      <trkpt lat="49.8234" lon="2.51211">
        <ele>45.2</ele>
        <time>2022-12-07T15:11:27Z</time>
      </trkpt>
      <trkpt lat="49.82341" lon="2.51212">
        <ele>45.2</ele>
        <time>2022-12-07T15:11:28Z</time>
      </trkpt>
      <trkpt lat="49.82342" lon="2.51212">
        <ele>45.2</ele>
        <time>2022-12-07T15:11:29Z</time>
      </trkpt>
      <trkpt lat="49.82343" lon="2.51213">
        <ele>45.2</ele>
        <time>2022-12-07T15:11:30Z</time>
      </trkpt>
      <trkpt lat="49.82343" lon="2.51213">
        <ele>45.2</ele>
        <time>2022-12-07T15:11:31Z</time>
      </trkpt>
      <trkpt lat="49.82344" lon="2.51212">
        <ele>45.2</ele>
        <time>2022-12-07T15:11:32Z</time>
      </trkpt>
      <trkpt lat="49.82345" lon="2.51212">
        <ele>45.3</ele>
        <time>2022-12-07T15:11:33Z</time>
      </trkpt>
      <trkpt lat="49.82345" lon="2.51212">
        <ele>45.3</ele>
        <time>2022-12-07T15:11:34Z</time>
      </trkpt>
      <trkpt lat="49.82346" lon="2.51212">
        <ele>45.3</ele>
        <time>2022-12-07T15:11:35Z</time>
      </trkpt>
      <trkpt lat="49.82346" lon="2.51212">
        <ele>45.3</ele>
        <time>2022-12-07T15:11:36Z</time>
      </trkpt>
      <trkpt lat="49.82346" lon="2.51212">
        <ele>45.3</ele>
        <time>2022-12-07T15:11:37Z</time>
      </trkpt>
      <trkpt lat="49.82346" lon="2.51212">
        <ele>45.3</ele>
        <time>2022-12-07T15:11:38Z</time>
      </trkpt>
      <trkpt lat="49.82346" lon="2.51212">
        <ele>45.3</ele>
        <time>2022-12-07T15:11:39Z</time>
      </trkpt>
      <trkpt lat="49.82346" lon="2.51212">
        <ele>45.3</ele>
        <time>2022-12-07T15:11:40Z</time>
      </trkpt>
      <trkpt lat="49.82345" lon="2.51212">
        <ele>45.3</ele>
        <time>2022-12-07T15:11:41Z</time>
      </trkpt>
      <trkpt lat="49.82345" lon="2.51212">
        <ele>45.3</ele>
        <time>2022-12-07T15:11:42Z</time>
      </trkpt>
      <trkpt lat="49.82345" lon="2.51212">
        <ele>45.3</ele>
        <time>2022-12-07T15:11:43Z</time>
      </trkpt>
      <trkpt lat="49.82345" lon="2.51212">
        <ele>45.3</ele>
        <time>2022-12-07T15:11:44Z</time>
      </trkpt>
      <trkpt lat="49.82345" lon="2.51212">
        <ele>45.3</ele>
        <time>2022-12-07T15:11:45Z</time>
      </trkpt>
      <trkpt lat="49.82345" lon="2.51212">
        <ele>45.3</ele>
        <time>2022-12-07T15:11:46Z</time>
      </trkpt>
      <trkpt lat="49.82346" lon="2.51212">
        <ele>45.3</ele>
        <time>2022-12-07T15:11:47Z</time>
      </trkpt>
      <trkpt lat="49.82346" lon="2.51211">
        <ele>45.3</ele>
        <time>2022-12-07T15:11:48Z</time>
      </trkpt>
      <trkpt lat="49.82347" lon="2.51211">
        <ele>45.3</ele>
        <time>2022-12-07T15:11:49Z</time>
      </trkpt>
      <trkpt lat="49.82347" lon="2.51211">
        <ele>45.3</ele>
        <time>2022-12-07T15:11:50Z</time>
      </trkpt>
      <trkpt lat="49.82348" lon="2.5121">
        <ele>45.4</ele>
        <time>2022-12-07T15:11:51Z</time>
      </trkpt>
      <trkpt lat="49.82349" lon="2.5121">
        <ele>45.4</ele>
        <time>2022-12-07T15:11:52Z</time>
      </trkpt>
      <trkpt lat="49.8235" lon="2.51209">
        <ele>45.4</ele>
        <time>2022-12-07T15:11:53Z</time>
      </trkpt>
      <trkpt lat="49.82351" lon="2.51209">
        <ele>45.4</ele>
        <time>2022-12-07T15:11:54Z</time>
      </trkpt>
      <trkpt lat="49.82352" lon="2.51208">
        <ele>45.5</ele>
        <time>2022-12-07T15:11:56Z</time>
      </trkpt>
    </trkseg>
  </trk>
</gpx>